<?xml version="1.0" encoding="UTF-8" standalone="no" ?>
<gpx xmlns="http://www.topografix.com/GPX/1/1" xmlns:xsi="http://www.w3.org/2001/XMLSchema-instance" xsi:schemaLocation="http://www.topografix.com/GPX/1/1 http://www.topografix.com/GPX/1/1/gpx.xsd" version="1.1" creator="VisuGPX - https://www.visugpx.com">
  <metadata>
    <name>Rando des papy</name>
    <desc><![CDATA[Du single, du single ! Déniv raisonnable pour un petit tour rapide.]]></desc>
  </metadata>
  <trk>
    <name><![CDATA[Rando des papy_1]]></name>
    <trkseg>
      <trkpt lat="44.41029" lon="1.352">
        <ele>317</ele>
        <time>2025-03-08T13:20:05Z</time>
      </trkpt>
      <trkpt lat="44.41029" lon="1.352">
        <ele>317</ele>
        <time>2025-03-08T13:20:06Z</time>
      </trkpt>
      <trkpt lat="44.41029" lon="1.352">
        <ele>317</ele>
        <time>2025-03-08T13:20:07Z</time>
      </trkpt>
      <trkpt lat="44.41029" lon="1.35199">
        <ele>317</ele>
        <time>2025-03-08T13:20:08Z</time>
      </trkpt>
      <trkpt lat="44.41029" lon="1.35199">
        <ele>317</ele>
        <time>2025-03-08T13:20:09Z</time>
      </trkpt>
      <trkpt lat="44.41028" lon="1.35198">
        <ele>317</ele>
        <time>2025-03-08T13:20:10Z</time>
      </trkpt>
      <trkpt lat="44.41028" lon="1.35198">
        <ele>317</ele>
        <time>2025-03-08T13:20:11Z</time>
      </trkpt>
      <trkpt lat="44.41028" lon="1.35198">
        <ele>317</ele>
        <time>2025-03-08T13:20:12Z</time>
      </trkpt>
      <trkpt lat="44.41028" lon="1.35197">
        <ele>317</ele>
        <time>2025-03-08T13:20:13Z</time>
      </trkpt>
      <trkpt lat="44.41028" lon="1.35197">
        <ele>317</ele>
        <time>2025-03-08T13:20:14Z</time>
      </trkpt>
      <trkpt lat="44.41028" lon="1.35197">
        <ele>317</ele>
        <time>2025-03-08T13:20:15Z</time>
      </trkpt>
      <trkpt lat="44.41028" lon="1.35196">
        <ele>317</ele>
        <time>2025-03-08T13:20:16Z</time>
      </trkpt>
      <trkpt lat="44.41028" lon="1.35196">
        <ele>317</ele>
        <time>2025-03-08T13:20:17Z</time>
      </trkpt>
      <trkpt lat="44.41028" lon="1.35196">
        <ele>317</ele>
        <time>2025-03-08T13:20:18Z</time>
      </trkpt>
      <trkpt lat="44.41028" lon="1.35195">
        <ele>317</ele>
        <time>2025-03-08T13:20:19Z</time>
      </trkpt>
      <trkpt lat="44.41028" lon="1.35195">
        <ele>317</ele>
        <time>2025-03-08T13:20:20Z</time>
      </trkpt>
      <trkpt lat="44.41027" lon="1.3519">
        <ele>316.9</ele>
        <time>2025-03-08T13:20:21Z</time>
      </trkpt>
      <trkpt lat="44.41027" lon="1.35186">
        <ele>316.9</ele>
        <time>2025-03-08T13:20:22Z</time>
      </trkpt>
      <trkpt lat="44.41021" lon="1.35184">
        <ele>316.8</ele>
        <time>2025-03-08T13:20:23Z</time>
      </trkpt>
      <trkpt lat="44.41017" lon="1.35186">
        <ele>316.7</ele>
        <time>2025-03-08T13:20:24Z</time>
      </trkpt>
      <trkpt lat="44.41008" lon="1.35189">
        <ele>316.4</ele>
        <time>2025-03-08T13:20:25Z</time>
      </trkpt>
      <trkpt lat="44.40996" lon="1.35183">
        <ele>316</ele>
        <time>2025-03-08T13:20:27Z</time>
      </trkpt>
      <trkpt lat="44.40989" lon="1.35182">
        <ele>315.7</ele>
        <time>2025-03-08T13:20:28Z</time>
      </trkpt>
      <trkpt lat="44.40983" lon="1.35181">
        <ele>315.5</ele>
        <time>2025-03-08T13:20:29Z</time>
      </trkpt>
      <trkpt lat="44.40977" lon="1.3518">
        <ele>315.1</ele>
        <time>2025-03-08T13:20:30Z</time>
      </trkpt>
      <trkpt lat="44.40971" lon="1.3518">
        <ele>314.8</ele>
        <time>2025-03-08T13:20:31Z</time>
      </trkpt>
      <trkpt lat="44.40965" lon="1.3518">
        <ele>314.4</ele>
        <time>2025-03-08T13:20:32Z</time>
      </trkpt>
      <trkpt lat="44.40958" lon="1.35179">
        <ele>313.9</ele>
        <time>2025-03-08T13:20:33Z</time>
      </trkpt>
      <trkpt lat="44.40952" lon="1.35179">
        <ele>313.4</ele>
        <time>2025-03-08T13:20:34Z</time>
      </trkpt>
      <trkpt lat="44.40945" lon="1.35179">
        <ele>312.8</ele>
        <time>2025-03-08T13:20:35Z</time>
      </trkpt>
      <trkpt lat="44.40938" lon="1.35179">
        <ele>312.1</ele>
        <time>2025-03-08T13:20:36Z</time>
      </trkpt>
      <trkpt lat="44.40931" lon="1.35178">
        <ele>311.3</ele>
        <time>2025-03-08T13:20:37Z</time>
      </trkpt>
      <trkpt lat="44.40923" lon="1.35178">
        <ele>310.4</ele>
        <time>2025-03-08T13:20:38Z</time>
      </trkpt>
      <trkpt lat="44.40915" lon="1.35177">
        <ele>309.5</ele>
        <time>2025-03-08T13:20:39Z</time>
      </trkpt>
      <trkpt lat="44.40907" lon="1.35176">
        <ele>308.6</ele>
        <time>2025-03-08T13:20:40Z</time>
      </trkpt>
      <trkpt lat="44.409" lon="1.35175">
        <ele>307.8</ele>
        <time>2025-03-08T13:20:41Z</time>
      </trkpt>
      <trkpt lat="44.40892" lon="1.35173">
        <ele>306.9</ele>
        <time>2025-03-08T13:20:42Z</time>
      </trkpt>
      <trkpt lat="44.40885" lon="1.35172">
        <ele>306.1</ele>
        <time>2025-03-08T13:20:43Z</time>
      </trkpt>
      <trkpt lat="44.40879" lon="1.3517">
        <ele>305.3</ele>
        <time>2025-03-08T13:20:44Z</time>
      </trkpt>
      <trkpt lat="44.40873" lon="1.35168">
        <ele>304.6</ele>
        <time>2025-03-08T13:20:45Z</time>
      </trkpt>
      <trkpt lat="44.40868" lon="1.35164">
        <ele>303.8</ele>
        <time>2025-03-08T13:20:46Z</time>
      </trkpt>
      <trkpt lat="44.40865" lon="1.35159">
        <ele>303.1</ele>
        <time>2025-03-08T13:20:47Z</time>
      </trkpt>
      <trkpt lat="44.40862" lon="1.3515">
        <ele>302.3</ele>
        <time>2025-03-08T13:20:48Z</time>
      </trkpt>
      <trkpt lat="44.40859" lon="1.35143">
        <ele>301.5</ele>
        <time>2025-03-08T13:20:49Z</time>
      </trkpt>
      <trkpt lat="44.40854" lon="1.35137">
        <ele>300.8</ele>
        <time>2025-03-08T13:20:50Z</time>
      </trkpt>
      <trkpt lat="44.40849" lon="1.3513">
        <ele>300.1</ele>
        <time>2025-03-08T13:20:51Z</time>
      </trkpt>
      <trkpt lat="44.40844" lon="1.35123">
        <ele>299.5</ele>
        <time>2025-03-08T13:20:52Z</time>
      </trkpt>
      <trkpt lat="44.40838" lon="1.35116">
        <ele>299</ele>
        <time>2025-03-08T13:20:53Z</time>
      </trkpt>
      <trkpt lat="44.40833" lon="1.35109">
        <ele>298.6</ele>
        <time>2025-03-08T13:20:54Z</time>
      </trkpt>
      <trkpt lat="44.40828" lon="1.35101">
        <ele>298.2</ele>
        <time>2025-03-08T13:20:55Z</time>
      </trkpt>
      <trkpt lat="44.40823" lon="1.35094">
        <ele>297.8</ele>
        <time>2025-03-08T13:20:56Z</time>
      </trkpt>
      <trkpt lat="44.40819" lon="1.35087">
        <ele>297.4</ele>
        <time>2025-03-08T13:20:57Z</time>
      </trkpt>
      <trkpt lat="44.40814" lon="1.3508">
        <ele>297</ele>
        <time>2025-03-08T13:20:58Z</time>
      </trkpt>
      <trkpt lat="44.40809" lon="1.35073">
        <ele>296.5</ele>
        <time>2025-03-08T13:20:59Z</time>
      </trkpt>
      <trkpt lat="44.40805" lon="1.35066">
        <ele>296</ele>
        <time>2025-03-08T13:21:00Z</time>
      </trkpt>
      <trkpt lat="44.408" lon="1.35059">
        <ele>295.5</ele>
        <time>2025-03-08T13:21:01Z</time>
      </trkpt>
      <trkpt lat="44.40795" lon="1.35052">
        <ele>294.9</ele>
        <time>2025-03-08T13:21:02Z</time>
      </trkpt>
      <trkpt lat="44.4079" lon="1.35045">
        <ele>294.4</ele>
        <time>2025-03-08T13:21:03Z</time>
      </trkpt>
      <trkpt lat="44.40785" lon="1.35039">
        <ele>294</ele>
        <time>2025-03-08T13:21:04Z</time>
      </trkpt>
      <trkpt lat="44.40781" lon="1.35032">
        <ele>293.7</ele>
        <time>2025-03-08T13:21:05Z</time>
      </trkpt>
      <trkpt lat="44.40776" lon="1.35024">
        <ele>293.4</ele>
        <time>2025-03-08T13:21:06Z</time>
      </trkpt>
      <trkpt lat="44.40771" lon="1.35018">
        <ele>293.2</ele>
        <time>2025-03-08T13:21:07Z</time>
      </trkpt>
      <trkpt lat="44.40765" lon="1.35013">
        <ele>293.1</ele>
        <time>2025-03-08T13:21:08Z</time>
      </trkpt>
      <trkpt lat="44.4076" lon="1.3501">
        <ele>293</ele>
        <time>2025-03-08T13:21:09Z</time>
      </trkpt>
      <trkpt lat="44.40755" lon="1.35008">
        <ele>292.9</ele>
        <time>2025-03-08T13:21:10Z</time>
      </trkpt>
      <trkpt lat="44.40751" lon="1.35004">
        <ele>292.9</ele>
        <time>2025-03-08T13:21:11Z</time>
      </trkpt>
      <trkpt lat="44.40747" lon="1.35001">
        <ele>292.7</ele>
        <time>2025-03-08T13:21:12Z</time>
      </trkpt>
      <trkpt lat="44.40743" lon="1.34996">
        <ele>292.6</ele>
        <time>2025-03-08T13:21:13Z</time>
      </trkpt>
      <trkpt lat="44.40738" lon="1.34991">
        <ele>292.5</ele>
        <time>2025-03-08T13:21:14Z</time>
      </trkpt>
      <trkpt lat="44.40735" lon="1.34984">
        <ele>292.4</ele>
        <time>2025-03-08T13:21:15Z</time>
      </trkpt>
      <trkpt lat="44.40734" lon="1.34977">
        <ele>292.4</ele>
        <time>2025-03-08T13:21:16Z</time>
      </trkpt>
      <trkpt lat="44.40735" lon="1.34969">
        <ele>292.4</ele>
        <time>2025-03-08T13:21:17Z</time>
      </trkpt>
      <trkpt lat="44.40735" lon="1.34962">
        <ele>292.5</ele>
        <time>2025-03-08T13:21:18Z</time>
      </trkpt>
      <trkpt lat="44.40735" lon="1.34956">
        <ele>292.6</ele>
        <time>2025-03-08T13:21:19Z</time>
      </trkpt>
      <trkpt lat="44.40735" lon="1.34952">
        <ele>292.7</ele>
        <time>2025-03-08T13:21:20Z</time>
      </trkpt>
      <trkpt lat="44.40735" lon="1.34946">
        <ele>292.9</ele>
        <time>2025-03-08T13:21:21Z</time>
      </trkpt>
      <trkpt lat="44.40735" lon="1.34943">
        <ele>293</ele>
        <time>2025-03-08T13:21:22Z</time>
      </trkpt>
      <trkpt lat="44.40735" lon="1.34939">
        <ele>293.2</ele>
        <time>2025-03-08T13:21:23Z</time>
      </trkpt>
      <trkpt lat="44.40734" lon="1.34934">
        <ele>293.4</ele>
        <time>2025-03-08T13:21:24Z</time>
      </trkpt>
      <trkpt lat="44.40733" lon="1.3493">
        <ele>293.6</ele>
        <time>2025-03-08T13:21:25Z</time>
      </trkpt>
      <trkpt lat="44.40732" lon="1.34926">
        <ele>293.8</ele>
        <time>2025-03-08T13:21:26Z</time>
      </trkpt>
      <trkpt lat="44.40732" lon="1.34921">
        <ele>294.1</ele>
        <time>2025-03-08T13:21:27Z</time>
      </trkpt>
      <trkpt lat="44.40731" lon="1.34916">
        <ele>294.3</ele>
        <time>2025-03-08T13:21:28Z</time>
      </trkpt>
      <trkpt lat="44.40731" lon="1.34912">
        <ele>294.5</ele>
        <time>2025-03-08T13:21:29Z</time>
      </trkpt>
      <trkpt lat="44.4073" lon="1.34908">
        <ele>294.7</ele>
        <time>2025-03-08T13:21:30Z</time>
      </trkpt>
      <trkpt lat="44.4073" lon="1.34904">
        <ele>295</ele>
        <time>2025-03-08T13:21:31Z</time>
      </trkpt>
      <trkpt lat="44.40729" lon="1.34898">
        <ele>295.3</ele>
        <time>2025-03-08T13:21:32Z</time>
      </trkpt>
      <trkpt lat="44.40729" lon="1.34896">
        <ele>295.4</ele>
        <time>2025-03-08T13:21:33Z</time>
      </trkpt>
      <trkpt lat="44.40728" lon="1.34892">
        <ele>295.7</ele>
        <time>2025-03-08T13:21:34Z</time>
      </trkpt>
      <trkpt lat="44.40728" lon="1.34887">
        <ele>296</ele>
        <time>2025-03-08T13:21:35Z</time>
      </trkpt>
      <trkpt lat="44.40728" lon="1.34883">
        <ele>296.2</ele>
        <time>2025-03-08T13:21:36Z</time>
      </trkpt>
      <trkpt lat="44.40727" lon="1.34879">
        <ele>296.5</ele>
        <time>2025-03-08T13:21:37Z</time>
      </trkpt>
      <trkpt lat="44.40727" lon="1.34875">
        <ele>296.7</ele>
        <time>2025-03-08T13:21:38Z</time>
      </trkpt>
      <trkpt lat="44.40727" lon="1.34871">
        <ele>296.9</ele>
        <time>2025-03-08T13:21:39Z</time>
      </trkpt>
      <trkpt lat="44.40727" lon="1.34867">
        <ele>297.2</ele>
        <time>2025-03-08T13:21:40Z</time>
      </trkpt>
      <trkpt lat="44.40726" lon="1.34863">
        <ele>297.4</ele>
        <time>2025-03-08T13:21:41Z</time>
      </trkpt>
      <trkpt lat="44.40725" lon="1.34858">
        <ele>297.7</ele>
        <time>2025-03-08T13:21:42Z</time>
      </trkpt>
      <trkpt lat="44.40724" lon="1.34853">
        <ele>297.9</ele>
        <time>2025-03-08T13:21:43Z</time>
      </trkpt>
      <trkpt lat="44.40723" lon="1.34849">
        <ele>298.1</ele>
        <time>2025-03-08T13:21:44Z</time>
      </trkpt>
      <trkpt lat="44.40723" lon="1.34844">
        <ele>298.4</ele>
        <time>2025-03-08T13:21:45Z</time>
      </trkpt>
      <trkpt lat="44.40722" lon="1.3484">
        <ele>298.6</ele>
        <time>2025-03-08T13:21:46Z</time>
      </trkpt>
      <trkpt lat="44.40721" lon="1.34836">
        <ele>298.8</ele>
        <time>2025-03-08T13:21:47Z</time>
      </trkpt>
      <trkpt lat="44.4072" lon="1.34831">
        <ele>299</ele>
        <time>2025-03-08T13:21:48Z</time>
      </trkpt>
      <trkpt lat="44.40719" lon="1.34827">
        <ele>299.2</ele>
        <time>2025-03-08T13:21:49Z</time>
      </trkpt>
      <trkpt lat="44.40718" lon="1.34823">
        <ele>299.4</ele>
        <time>2025-03-08T13:21:50Z</time>
      </trkpt>
      <trkpt lat="44.40717" lon="1.34819">
        <ele>299.6</ele>
        <time>2025-03-08T13:21:51Z</time>
      </trkpt>
      <trkpt lat="44.40716" lon="1.34815">
        <ele>299.8</ele>
        <time>2025-03-08T13:21:52Z</time>
      </trkpt>
      <trkpt lat="44.40715" lon="1.34811">
        <ele>299.9</ele>
        <time>2025-03-08T13:21:53Z</time>
      </trkpt>
      <trkpt lat="44.40715" lon="1.34807">
        <ele>300.1</ele>
        <time>2025-03-08T13:21:54Z</time>
      </trkpt>
      <trkpt lat="44.40714" lon="1.34802">
        <ele>300.3</ele>
        <time>2025-03-08T13:21:55Z</time>
      </trkpt>
      <trkpt lat="44.40713" lon="1.34798">
        <ele>300.4</ele>
        <time>2025-03-08T13:21:56Z</time>
      </trkpt>
      <trkpt lat="44.40713" lon="1.34794">
        <ele>300.6</ele>
        <time>2025-03-08T13:21:57Z</time>
      </trkpt>
      <trkpt lat="44.40712" lon="1.3479">
        <ele>300.7</ele>
        <time>2025-03-08T13:21:58Z</time>
      </trkpt>
      <trkpt lat="44.40711" lon="1.34786">
        <ele>300.8</ele>
        <time>2025-03-08T13:21:59Z</time>
      </trkpt>
      <trkpt lat="44.4071" lon="1.34781">
        <ele>300.9</ele>
        <time>2025-03-08T13:22:00Z</time>
      </trkpt>
      <trkpt lat="44.40709" lon="1.34779">
        <ele>301</ele>
        <time>2025-03-08T13:22:01Z</time>
      </trkpt>
      <trkpt lat="44.40708" lon="1.34776">
        <ele>301</ele>
        <time>2025-03-08T13:22:02Z</time>
      </trkpt>
      <trkpt lat="44.40708" lon="1.34772">
        <ele>301.1</ele>
        <time>2025-03-08T13:22:03Z</time>
      </trkpt>
      <trkpt lat="44.40707" lon="1.34768">
        <ele>301.1</ele>
        <time>2025-03-08T13:22:04Z</time>
      </trkpt>
      <trkpt lat="44.40706" lon="1.34764">
        <ele>301.2</ele>
        <time>2025-03-08T13:22:05Z</time>
      </trkpt>
      <trkpt lat="44.40705" lon="1.34761">
        <ele>301.2</ele>
        <time>2025-03-08T13:22:06Z</time>
      </trkpt>
      <trkpt lat="44.40704" lon="1.34757">
        <ele>301.2</ele>
        <time>2025-03-08T13:22:07Z</time>
      </trkpt>
      <trkpt lat="44.40703" lon="1.34753">
        <ele>301.2</ele>
        <time>2025-03-08T13:22:08Z</time>
      </trkpt>
      <trkpt lat="44.40702" lon="1.3475">
        <ele>301.2</ele>
        <time>2025-03-08T13:22:09Z</time>
      </trkpt>
      <trkpt lat="44.40702" lon="1.34745">
        <ele>301.1</ele>
        <time>2025-03-08T13:22:10Z</time>
      </trkpt>
      <trkpt lat="44.40701" lon="1.34743">
        <ele>301.1</ele>
        <time>2025-03-08T13:22:11Z</time>
      </trkpt>
      <trkpt lat="44.40701" lon="1.34739">
        <ele>301.1</ele>
        <time>2025-03-08T13:22:12Z</time>
      </trkpt>
      <trkpt lat="44.407" lon="1.34735">
        <ele>301</ele>
        <time>2025-03-08T13:22:13Z</time>
      </trkpt>
      <trkpt lat="44.40696" lon="1.34732">
        <ele>301</ele>
        <time>2025-03-08T13:22:14Z</time>
      </trkpt>
      <trkpt lat="44.40691" lon="1.34733">
        <ele>301</ele>
        <time>2025-03-08T13:22:15Z</time>
      </trkpt>
      <trkpt lat="44.40688" lon="1.34737">
        <ele>300.9</ele>
        <time>2025-03-08T13:22:16Z</time>
      </trkpt>
      <trkpt lat="44.40685" lon="1.34742">
        <ele>300.9</ele>
        <time>2025-03-08T13:22:17Z</time>
      </trkpt>
      <trkpt lat="44.40682" lon="1.34746">
        <ele>300.9</ele>
        <time>2025-03-08T13:22:18Z</time>
      </trkpt>
      <trkpt lat="44.4068" lon="1.34749">
        <ele>300.8</ele>
        <time>2025-03-08T13:22:19Z</time>
      </trkpt>
      <trkpt lat="44.40678" lon="1.34752">
        <ele>300.8</ele>
        <time>2025-03-08T13:22:20Z</time>
      </trkpt>
      <trkpt lat="44.40676" lon="1.34755">
        <ele>300.8</ele>
        <time>2025-03-08T13:22:21Z</time>
      </trkpt>
      <trkpt lat="44.40673" lon="1.34758">
        <ele>300.7</ele>
        <time>2025-03-08T13:22:22Z</time>
      </trkpt>
      <trkpt lat="44.4067" lon="1.34761">
        <ele>300.7</ele>
        <time>2025-03-08T13:22:23Z</time>
      </trkpt>
      <trkpt lat="44.40667" lon="1.34764">
        <ele>300.6</ele>
        <time>2025-03-08T13:22:24Z</time>
      </trkpt>
      <trkpt lat="44.40665" lon="1.34767">
        <ele>300.6</ele>
        <time>2025-03-08T13:22:25Z</time>
      </trkpt>
      <trkpt lat="44.40662" lon="1.34771">
        <ele>300.5</ele>
        <time>2025-03-08T13:22:26Z</time>
      </trkpt>
      <trkpt lat="44.40659" lon="1.34774">
        <ele>300.5</ele>
        <time>2025-03-08T13:22:27Z</time>
      </trkpt>
      <trkpt lat="44.40656" lon="1.34777">
        <ele>300.4</ele>
        <time>2025-03-08T13:22:28Z</time>
      </trkpt>
      <trkpt lat="44.40653" lon="1.3478">
        <ele>300.3</ele>
        <time>2025-03-08T13:22:29Z</time>
      </trkpt>
      <trkpt lat="44.4065" lon="1.34782">
        <ele>300.3</ele>
        <time>2025-03-08T13:22:30Z</time>
      </trkpt>
      <trkpt lat="44.40646" lon="1.34785">
        <ele>300.2</ele>
        <time>2025-03-08T13:22:31Z</time>
      </trkpt>
      <trkpt lat="44.40643" lon="1.34787">
        <ele>300.1</ele>
        <time>2025-03-08T13:22:32Z</time>
      </trkpt>
      <trkpt lat="44.4064" lon="1.3479">
        <ele>300.1</ele>
        <time>2025-03-08T13:22:33Z</time>
      </trkpt>
      <trkpt lat="44.40637" lon="1.34792">
        <ele>300</ele>
        <time>2025-03-08T13:22:34Z</time>
      </trkpt>
      <trkpt lat="44.40634" lon="1.34795">
        <ele>300</ele>
        <time>2025-03-08T13:22:35Z</time>
      </trkpt>
      <trkpt lat="44.40631" lon="1.34798">
        <ele>299.9</ele>
        <time>2025-03-08T13:22:36Z</time>
      </trkpt>
      <trkpt lat="44.40627" lon="1.34801">
        <ele>299.9</ele>
        <time>2025-03-08T13:22:37Z</time>
      </trkpt>
      <trkpt lat="44.40624" lon="1.34805">
        <ele>299.8</ele>
        <time>2025-03-08T13:22:38Z</time>
      </trkpt>
      <trkpt lat="44.4062" lon="1.34808">
        <ele>299.8</ele>
        <time>2025-03-08T13:22:39Z</time>
      </trkpt>
      <trkpt lat="44.40617" lon="1.34812">
        <ele>299.8</ele>
        <time>2025-03-08T13:22:40Z</time>
      </trkpt>
      <trkpt lat="44.40614" lon="1.34816">
        <ele>299.8</ele>
        <time>2025-03-08T13:22:41Z</time>
      </trkpt>
      <trkpt lat="44.40611" lon="1.3482">
        <ele>299.8</ele>
        <time>2025-03-08T13:22:42Z</time>
      </trkpt>
      <trkpt lat="44.40608" lon="1.34823">
        <ele>299.8</ele>
        <time>2025-03-08T13:22:43Z</time>
      </trkpt>
      <trkpt lat="44.40606" lon="1.34827">
        <ele>299.8</ele>
        <time>2025-03-08T13:22:44Z</time>
      </trkpt>
      <trkpt lat="44.40603" lon="1.34831">
        <ele>299.8</ele>
        <time>2025-03-08T13:22:45Z</time>
      </trkpt>
      <trkpt lat="44.40601" lon="1.34836">
        <ele>299.8</ele>
        <time>2025-03-08T13:22:46Z</time>
      </trkpt>
      <trkpt lat="44.40599" lon="1.3484">
        <ele>299.8</ele>
        <time>2025-03-08T13:22:47Z</time>
      </trkpt>
      <trkpt lat="44.40597" lon="1.34844">
        <ele>299.8</ele>
        <time>2025-03-08T13:22:48Z</time>
      </trkpt>
      <trkpt lat="44.40594" lon="1.34848">
        <ele>299.8</ele>
        <time>2025-03-08T13:22:49Z</time>
      </trkpt>
      <trkpt lat="44.40592" lon="1.34851">
        <ele>299.8</ele>
        <time>2025-03-08T13:22:50Z</time>
      </trkpt>
      <trkpt lat="44.4059" lon="1.34855">
        <ele>299.8</ele>
        <time>2025-03-08T13:22:51Z</time>
      </trkpt>
      <trkpt lat="44.40588" lon="1.34859">
        <ele>299.8</ele>
        <time>2025-03-08T13:22:52Z</time>
      </trkpt>
      <trkpt lat="44.40586" lon="1.34863">
        <ele>299.8</ele>
        <time>2025-03-08T13:22:53Z</time>
      </trkpt>
      <trkpt lat="44.40584" lon="1.34868">
        <ele>299.9</ele>
        <time>2025-03-08T13:22:54Z</time>
      </trkpt>
      <trkpt lat="44.40582" lon="1.34872">
        <ele>299.9</ele>
        <time>2025-03-08T13:22:55Z</time>
      </trkpt>
      <trkpt lat="44.4058" lon="1.34876">
        <ele>300</ele>
        <time>2025-03-08T13:22:56Z</time>
      </trkpt>
      <trkpt lat="44.40577" lon="1.34877">
        <ele>300.3</ele>
        <time>2025-03-08T13:22:57Z</time>
      </trkpt>
      <trkpt lat="44.40576" lon="1.34876">
        <ele>300.4</ele>
        <time>2025-03-08T13:22:58Z</time>
      </trkpt>
      <trkpt lat="44.40573" lon="1.34874">
        <ele>300.4</ele>
        <time>2025-03-08T13:22:59Z</time>
      </trkpt>
      <trkpt lat="44.40571" lon="1.3487">
        <ele>300.5</ele>
        <time>2025-03-08T13:23:00Z</time>
      </trkpt>
      <trkpt lat="44.4057" lon="1.34866">
        <ele>300.6</ele>
        <time>2025-03-08T13:23:01Z</time>
      </trkpt>
      <trkpt lat="44.40569" lon="1.34861">
        <ele>300.7</ele>
        <time>2025-03-08T13:23:02Z</time>
      </trkpt>
      <trkpt lat="44.40568" lon="1.3486">
        <ele>300.7</ele>
        <time>2025-03-08T13:23:03Z</time>
      </trkpt>
      <trkpt lat="44.40566" lon="1.34856">
        <ele>300.7</ele>
        <time>2025-03-08T13:23:04Z</time>
      </trkpt>
      <trkpt lat="44.40563" lon="1.34853">
        <ele>300.7</ele>
        <time>2025-03-08T13:23:05Z</time>
      </trkpt>
      <trkpt lat="44.4056" lon="1.34849">
        <ele>300.8</ele>
        <time>2025-03-08T13:23:06Z</time>
      </trkpt>
      <trkpt lat="44.40557" lon="1.34846">
        <ele>300.7</ele>
        <time>2025-03-08T13:23:07Z</time>
      </trkpt>
      <trkpt lat="44.40555" lon="1.34843">
        <ele>300.7</ele>
        <time>2025-03-08T13:23:08Z</time>
      </trkpt>
      <trkpt lat="44.40552" lon="1.3484">
        <ele>300.7</ele>
        <time>2025-03-08T13:23:09Z</time>
      </trkpt>
      <trkpt lat="44.40549" lon="1.34836">
        <ele>300.7</ele>
        <time>2025-03-08T13:23:10Z</time>
      </trkpt>
      <trkpt lat="44.40546" lon="1.34832">
        <ele>300.7</ele>
        <time>2025-03-08T13:23:11Z</time>
      </trkpt>
      <trkpt lat="44.40543" lon="1.34829">
        <ele>300.7</ele>
        <time>2025-03-08T13:23:12Z</time>
      </trkpt>
      <trkpt lat="44.4054" lon="1.34825">
        <ele>300.6</ele>
        <time>2025-03-08T13:23:13Z</time>
      </trkpt>
      <trkpt lat="44.40537" lon="1.34821">
        <ele>300.6</ele>
        <time>2025-03-08T13:23:14Z</time>
      </trkpt>
      <trkpt lat="44.40534" lon="1.34818">
        <ele>300.7</ele>
        <time>2025-03-08T13:23:15Z</time>
      </trkpt>
      <trkpt lat="44.40532" lon="1.34815">
        <ele>300.7</ele>
        <time>2025-03-08T13:23:16Z</time>
      </trkpt>
      <trkpt lat="44.4053" lon="1.34812">
        <ele>300.7</ele>
        <time>2025-03-08T13:23:17Z</time>
      </trkpt>
      <trkpt lat="44.40527" lon="1.34809">
        <ele>300.7</ele>
        <time>2025-03-08T13:23:18Z</time>
      </trkpt>
      <trkpt lat="44.40524" lon="1.34806">
        <ele>300.8</ele>
        <time>2025-03-08T13:23:19Z</time>
      </trkpt>
      <trkpt lat="44.40521" lon="1.34802">
        <ele>300.8</ele>
        <time>2025-03-08T13:23:20Z</time>
      </trkpt>
      <trkpt lat="44.40519" lon="1.348">
        <ele>300.8</ele>
        <time>2025-03-08T13:23:21Z</time>
      </trkpt>
      <trkpt lat="44.40516" lon="1.34796">
        <ele>300.9</ele>
        <time>2025-03-08T13:23:22Z</time>
      </trkpt>
      <trkpt lat="44.40513" lon="1.34792">
        <ele>301</ele>
        <time>2025-03-08T13:23:23Z</time>
      </trkpt>
      <trkpt lat="44.4051" lon="1.34788">
        <ele>301.1</ele>
        <time>2025-03-08T13:23:24Z</time>
      </trkpt>
      <trkpt lat="44.40508" lon="1.34784">
        <ele>301.2</ele>
        <time>2025-03-08T13:23:25Z</time>
      </trkpt>
      <trkpt lat="44.40505" lon="1.3478">
        <ele>301.3</ele>
        <time>2025-03-08T13:23:26Z</time>
      </trkpt>
      <trkpt lat="44.40502" lon="1.34777">
        <ele>301.4</ele>
        <time>2025-03-08T13:23:27Z</time>
      </trkpt>
      <trkpt lat="44.405" lon="1.34774">
        <ele>301.5</ele>
        <time>2025-03-08T13:23:28Z</time>
      </trkpt>
      <trkpt lat="44.40498" lon="1.34772">
        <ele>301.5</ele>
        <time>2025-03-08T13:23:29Z</time>
      </trkpt>
      <trkpt lat="44.40497" lon="1.34771">
        <ele>301.6</ele>
        <time>2025-03-08T13:23:30Z</time>
      </trkpt>
      <trkpt lat="44.40495" lon="1.34767">
        <ele>301.7</ele>
        <time>2025-03-08T13:23:31Z</time>
      </trkpt>
      <trkpt lat="44.40494" lon="1.34765">
        <ele>301.8</ele>
        <time>2025-03-08T13:23:32Z</time>
      </trkpt>
      <trkpt lat="44.40492" lon="1.34762">
        <ele>301.9</ele>
        <time>2025-03-08T13:23:33Z</time>
      </trkpt>
      <trkpt lat="44.4049" lon="1.34759">
        <ele>302</ele>
        <time>2025-03-08T13:23:34Z</time>
      </trkpt>
      <trkpt lat="44.40489" lon="1.34758">
        <ele>302.1</ele>
        <time>2025-03-08T13:23:35Z</time>
      </trkpt>
      <trkpt lat="44.40486" lon="1.34755">
        <ele>302.3</ele>
        <time>2025-03-08T13:23:36Z</time>
      </trkpt>
      <trkpt lat="44.40484" lon="1.34751">
        <ele>302.5</ele>
        <time>2025-03-08T13:23:37Z</time>
      </trkpt>
      <trkpt lat="44.40482" lon="1.34749">
        <ele>302.6</ele>
        <time>2025-03-08T13:23:38Z</time>
      </trkpt>
      <trkpt lat="44.4048" lon="1.34745">
        <ele>302.8</ele>
        <time>2025-03-08T13:23:39Z</time>
      </trkpt>
      <trkpt lat="44.40479" lon="1.34744">
        <ele>302.9</ele>
        <time>2025-03-08T13:23:40Z</time>
      </trkpt>
      <trkpt lat="44.40476" lon="1.3474">
        <ele>303.2</ele>
        <time>2025-03-08T13:23:41Z</time>
      </trkpt>
      <trkpt lat="44.40474" lon="1.34737">
        <ele>303.4</ele>
        <time>2025-03-08T13:23:42Z</time>
      </trkpt>
      <trkpt lat="44.40472" lon="1.34735">
        <ele>303.7</ele>
        <time>2025-03-08T13:23:43Z</time>
      </trkpt>
      <trkpt lat="44.4047" lon="1.34731">
        <ele>304</ele>
        <time>2025-03-08T13:23:44Z</time>
      </trkpt>
      <trkpt lat="44.40469" lon="1.3473">
        <ele>304.1</ele>
        <time>2025-03-08T13:23:45Z</time>
      </trkpt>
      <trkpt lat="44.40467" lon="1.34726">
        <ele>304.5</ele>
        <time>2025-03-08T13:23:46Z</time>
      </trkpt>
      <trkpt lat="44.40466" lon="1.34724">
        <ele>304.6</ele>
        <time>2025-03-08T13:23:47Z</time>
      </trkpt>
      <trkpt lat="44.40465" lon="1.34721">
        <ele>304.9</ele>
        <time>2025-03-08T13:23:48Z</time>
      </trkpt>
      <trkpt lat="44.40464" lon="1.34719">
        <ele>305</ele>
        <time>2025-03-08T13:23:49Z</time>
      </trkpt>
      <trkpt lat="44.40462" lon="1.34716">
        <ele>305.4</ele>
        <time>2025-03-08T13:23:50Z</time>
      </trkpt>
      <trkpt lat="44.40461" lon="1.34715">
        <ele>305.5</ele>
        <time>2025-03-08T13:23:51Z</time>
      </trkpt>
      <trkpt lat="44.40459" lon="1.34712">
        <ele>305.8</ele>
        <time>2025-03-08T13:23:52Z</time>
      </trkpt>
      <trkpt lat="44.40458" lon="1.3471">
        <ele>306</ele>
        <time>2025-03-08T13:23:53Z</time>
      </trkpt>
      <trkpt lat="44.40456" lon="1.34706">
        <ele>306.4</ele>
        <time>2025-03-08T13:23:54Z</time>
      </trkpt>
      <trkpt lat="44.40456" lon="1.34704">
        <ele>306.5</ele>
        <time>2025-03-08T13:23:55Z</time>
      </trkpt>
      <trkpt lat="44.40455" lon="1.34699">
        <ele>306.9</ele>
        <time>2025-03-08T13:23:56Z</time>
      </trkpt>
      <trkpt lat="44.40454" lon="1.34698">
        <ele>307</ele>
        <time>2025-03-08T13:23:57Z</time>
      </trkpt>
      <trkpt lat="44.40452" lon="1.34693">
        <ele>307.4</ele>
        <time>2025-03-08T13:23:58Z</time>
      </trkpt>
      <trkpt lat="44.40452" lon="1.34692">
        <ele>307.5</ele>
        <time>2025-03-08T13:23:59Z</time>
      </trkpt>
      <trkpt lat="44.40452" lon="1.34687">
        <ele>307.9</ele>
        <time>2025-03-08T13:24:00Z</time>
      </trkpt>
      <trkpt lat="44.40452" lon="1.34685">
        <ele>308.1</ele>
        <time>2025-03-08T13:24:01Z</time>
      </trkpt>
      <trkpt lat="44.40451" lon="1.34681">
        <ele>308.4</ele>
        <time>2025-03-08T13:24:02Z</time>
      </trkpt>
      <trkpt lat="44.40451" lon="1.3468">
        <ele>308.5</ele>
        <time>2025-03-08T13:24:03Z</time>
      </trkpt>
      <trkpt lat="44.40451" lon="1.34676">
        <ele>308.8</ele>
        <time>2025-03-08T13:24:04Z</time>
      </trkpt>
      <trkpt lat="44.40451" lon="1.34675">
        <ele>308.9</ele>
        <time>2025-03-08T13:24:05Z</time>
      </trkpt>
      <trkpt lat="44.4045" lon="1.34671">
        <ele>309.2</ele>
        <time>2025-03-08T13:24:06Z</time>
      </trkpt>
      <trkpt lat="44.4045" lon="1.3467">
        <ele>309.3</ele>
        <time>2025-03-08T13:24:07Z</time>
      </trkpt>
      <trkpt lat="44.4045" lon="1.34668">
        <ele>309.5</ele>
        <time>2025-03-08T13:24:08Z</time>
      </trkpt>
      <trkpt lat="44.4045" lon="1.34666">
        <ele>309.5</ele>
        <time>2025-03-08T13:24:09Z</time>
      </trkpt>
      <trkpt lat="44.40454" lon="1.34663">
        <ele>309.4</ele>
        <time>2025-03-08T13:24:10Z</time>
      </trkpt>
      <trkpt lat="44.40455" lon="1.34661">
        <ele>309</ele>
        <time>2025-03-08T13:24:11Z</time>
      </trkpt>
      <trkpt lat="44.40458" lon="1.34656">
        <ele>308.9</ele>
        <time>2025-03-08T13:24:12Z</time>
      </trkpt>
      <trkpt lat="44.40462" lon="1.34651">
        <ele>309.1</ele>
        <time>2025-03-08T13:24:13Z</time>
      </trkpt>
      <trkpt lat="44.40466" lon="1.34643">
        <ele>308.9</ele>
        <time>2025-03-08T13:24:14Z</time>
      </trkpt>
      <trkpt lat="44.4047" lon="1.34635">
        <ele>308.3</ele>
        <time>2025-03-08T13:24:15Z</time>
      </trkpt>
      <trkpt lat="44.40473" lon="1.34627">
        <ele>308.1</ele>
        <time>2025-03-08T13:24:16Z</time>
      </trkpt>
      <trkpt lat="44.40476" lon="1.34619">
        <ele>307.8</ele>
        <time>2025-03-08T13:24:17Z</time>
      </trkpt>
      <trkpt lat="44.40478" lon="1.34612">
        <ele>308.1</ele>
        <time>2025-03-08T13:24:18Z</time>
      </trkpt>
      <trkpt lat="44.4048" lon="1.34604">
        <ele>307.7</ele>
        <time>2025-03-08T13:24:19Z</time>
      </trkpt>
      <trkpt lat="44.40482" lon="1.34597">
        <ele>307.5</ele>
        <time>2025-03-08T13:24:20Z</time>
      </trkpt>
      <trkpt lat="44.40484" lon="1.34591">
        <ele>307.8</ele>
        <time>2025-03-08T13:24:21Z</time>
      </trkpt>
      <trkpt lat="44.40487" lon="1.34585">
        <ele>307.4</ele>
        <time>2025-03-08T13:24:22Z</time>
      </trkpt>
      <trkpt lat="44.40489" lon="1.34579">
        <ele>307.1</ele>
        <time>2025-03-08T13:24:23Z</time>
      </trkpt>
      <trkpt lat="44.40492" lon="1.34573">
        <ele>307</ele>
        <time>2025-03-08T13:24:24Z</time>
      </trkpt>
      <trkpt lat="44.40495" lon="1.34567">
        <ele>306.7</ele>
        <time>2025-03-08T13:24:25Z</time>
      </trkpt>
      <trkpt lat="44.40497" lon="1.34561">
        <ele>306.6</ele>
        <time>2025-03-08T13:24:26Z</time>
      </trkpt>
      <trkpt lat="44.405" lon="1.34555">
        <ele>306.4</ele>
        <time>2025-03-08T13:24:27Z</time>
      </trkpt>
      <trkpt lat="44.40502" lon="1.34549">
        <ele>306.6</ele>
        <time>2025-03-08T13:24:28Z</time>
      </trkpt>
      <trkpt lat="44.40505" lon="1.34545">
        <ele>306.5</ele>
        <time>2025-03-08T13:24:29Z</time>
      </trkpt>
      <trkpt lat="44.40507" lon="1.34541">
        <ele>306.4</ele>
        <time>2025-03-08T13:24:30Z</time>
      </trkpt>
      <trkpt lat="44.4051" lon="1.34537">
        <ele>306.3</ele>
        <time>2025-03-08T13:24:31Z</time>
      </trkpt>
      <trkpt lat="44.40512" lon="1.34534">
        <ele>306.6</ele>
        <time>2025-03-08T13:24:32Z</time>
      </trkpt>
      <trkpt lat="44.40515" lon="1.34531">
        <ele>306.1</ele>
        <time>2025-03-08T13:24:33Z</time>
      </trkpt>
      <trkpt lat="44.40516" lon="1.3453">
        <ele>306.1</ele>
        <time>2025-03-08T13:24:34Z</time>
      </trkpt>
      <trkpt lat="44.40519" lon="1.34526">
        <ele>306</ele>
        <time>2025-03-08T13:24:35Z</time>
      </trkpt>
      <trkpt lat="44.4052" lon="1.34525">
        <ele>306</ele>
        <time>2025-03-08T13:24:36Z</time>
      </trkpt>
      <trkpt lat="44.40523" lon="1.34522">
        <ele>305.9</ele>
        <time>2025-03-08T13:24:37Z</time>
      </trkpt>
      <trkpt lat="44.40524" lon="1.3452">
        <ele>305.9</ele>
        <time>2025-03-08T13:24:38Z</time>
      </trkpt>
      <trkpt lat="44.40526" lon="1.34517">
        <ele>305.7</ele>
        <time>2025-03-08T13:24:39Z</time>
      </trkpt>
      <trkpt lat="44.40528" lon="1.34514">
        <ele>305.7</ele>
        <time>2025-03-08T13:24:40Z</time>
      </trkpt>
      <trkpt lat="44.4053" lon="1.3451">
        <ele>305.7</ele>
        <time>2025-03-08T13:24:41Z</time>
      </trkpt>
      <trkpt lat="44.40532" lon="1.34506">
        <ele>305.6</ele>
        <time>2025-03-08T13:24:42Z</time>
      </trkpt>
      <trkpt lat="44.40534" lon="1.34503">
        <ele>305.6</ele>
        <time>2025-03-08T13:24:43Z</time>
      </trkpt>
      <trkpt lat="44.40537" lon="1.34499">
        <ele>305.7</ele>
        <time>2025-03-08T13:24:44Z</time>
      </trkpt>
      <trkpt lat="44.4054" lon="1.34495">
        <ele>306.1</ele>
        <time>2025-03-08T13:24:45Z</time>
      </trkpt>
      <trkpt lat="44.40542" lon="1.34491">
        <ele>306.2</ele>
        <time>2025-03-08T13:24:46Z</time>
      </trkpt>
      <trkpt lat="44.40544" lon="1.34488">
        <ele>306.3</ele>
        <time>2025-03-08T13:24:47Z</time>
      </trkpt>
      <trkpt lat="44.40547" lon="1.34485">
        <ele>306.1</ele>
        <time>2025-03-08T13:24:48Z</time>
      </trkpt>
      <trkpt lat="44.40549" lon="1.34482">
        <ele>306.2</ele>
        <time>2025-03-08T13:24:49Z</time>
      </trkpt>
      <trkpt lat="44.40552" lon="1.3448">
        <ele>306</ele>
        <time>2025-03-08T13:24:50Z</time>
      </trkpt>
      <trkpt lat="44.40555" lon="1.34478">
        <ele>306</ele>
        <time>2025-03-08T13:24:51Z</time>
      </trkpt>
      <trkpt lat="44.40558" lon="1.34476">
        <ele>305.7</ele>
        <time>2025-03-08T13:24:52Z</time>
      </trkpt>
      <trkpt lat="44.40562" lon="1.34475">
        <ele>305.6</ele>
        <time>2025-03-08T13:24:53Z</time>
      </trkpt>
      <trkpt lat="44.40565" lon="1.34473">
        <ele>305.3</ele>
        <time>2025-03-08T13:24:54Z</time>
      </trkpt>
      <trkpt lat="44.40568" lon="1.3447">
        <ele>305.3</ele>
        <time>2025-03-08T13:24:55Z</time>
      </trkpt>
      <trkpt lat="44.40572" lon="1.34467">
        <ele>305</ele>
        <time>2025-03-08T13:24:56Z</time>
      </trkpt>
      <trkpt lat="44.40576" lon="1.34464">
        <ele>304.9</ele>
        <time>2025-03-08T13:24:57Z</time>
      </trkpt>
      <trkpt lat="44.40581" lon="1.3446">
        <ele>304.2</ele>
        <time>2025-03-08T13:24:58Z</time>
      </trkpt>
      <trkpt lat="44.40585" lon="1.34455">
        <ele>304</ele>
        <time>2025-03-08T13:24:59Z</time>
      </trkpt>
      <trkpt lat="44.40588" lon="1.34449">
        <ele>304.4</ele>
        <time>2025-03-08T13:25:00Z</time>
      </trkpt>
      <trkpt lat="44.4059" lon="1.34444">
        <ele>304.7</ele>
        <time>2025-03-08T13:25:01Z</time>
      </trkpt>
      <trkpt lat="44.40592" lon="1.3444">
        <ele>304.9</ele>
        <time>2025-03-08T13:25:02Z</time>
      </trkpt>
      <trkpt lat="44.40592" lon="1.34437">
        <ele>305</ele>
        <time>2025-03-08T13:25:03Z</time>
      </trkpt>
      <trkpt lat="44.40593" lon="1.34436">
        <ele>305.1</ele>
        <time>2025-03-08T13:25:04Z</time>
      </trkpt>
      <trkpt lat="44.40594" lon="1.34435">
        <ele>305.2</ele>
        <time>2025-03-08T13:25:05Z</time>
      </trkpt>
      <trkpt lat="44.40595" lon="1.34432">
        <ele>305.3</ele>
        <time>2025-03-08T13:25:06Z</time>
      </trkpt>
      <trkpt lat="44.40596" lon="1.34429">
        <ele>305.4</ele>
        <time>2025-03-08T13:25:07Z</time>
      </trkpt>
      <trkpt lat="44.40596" lon="1.34428">
        <ele>305.4</ele>
        <time>2025-03-08T13:25:08Z</time>
      </trkpt>
      <trkpt lat="44.40598" lon="1.34423">
        <ele>305.6</ele>
        <time>2025-03-08T13:25:09Z</time>
      </trkpt>
      <trkpt lat="44.40598" lon="1.3442">
        <ele>305.7</ele>
        <time>2025-03-08T13:25:10Z</time>
      </trkpt>
      <trkpt lat="44.406" lon="1.34416">
        <ele>305.8</ele>
        <time>2025-03-08T13:25:11Z</time>
      </trkpt>
      <trkpt lat="44.40601" lon="1.34412">
        <ele>305.9</ele>
        <time>2025-03-08T13:25:12Z</time>
      </trkpt>
      <trkpt lat="44.40601" lon="1.34411">
        <ele>305.9</ele>
        <time>2025-03-08T13:25:13Z</time>
      </trkpt>
      <trkpt lat="44.40602" lon="1.34408">
        <ele>306</ele>
        <time>2025-03-08T13:25:14Z</time>
      </trkpt>
      <trkpt lat="44.40601" lon="1.34407">
        <ele>306</ele>
        <time>2025-03-08T13:25:15Z</time>
      </trkpt>
      <trkpt lat="44.406" lon="1.34406">
        <ele>306</ele>
        <time>2025-03-08T13:25:16Z</time>
      </trkpt>
      <trkpt lat="44.406" lon="1.34406">
        <ele>306</ele>
        <time>2025-03-08T13:25:17Z</time>
      </trkpt>
      <trkpt lat="44.406" lon="1.34406">
        <ele>306.1</ele>
        <time>2025-03-08T13:25:18Z</time>
      </trkpt>
      <trkpt lat="44.406" lon="1.34405">
        <ele>306.1</ele>
        <time>2025-03-08T13:25:19Z</time>
      </trkpt>
      <trkpt lat="44.40599" lon="1.34405">
        <ele>306.1</ele>
        <time>2025-03-08T13:25:20Z</time>
      </trkpt>
      <trkpt lat="44.40599" lon="1.34405">
        <ele>306.1</ele>
        <time>2025-03-08T13:25:21Z</time>
      </trkpt>
      <trkpt lat="44.40599" lon="1.34405">
        <ele>306.1</ele>
        <time>2025-03-08T13:25:22Z</time>
      </trkpt>
      <trkpt lat="44.40598" lon="1.34404">
        <ele>306.1</ele>
        <time>2025-03-08T13:25:23Z</time>
      </trkpt>
      <trkpt lat="44.40598" lon="1.34404">
        <ele>306.1</ele>
        <time>2025-03-08T13:25:24Z</time>
      </trkpt>
      <trkpt lat="44.40597" lon="1.34405">
        <ele>306.1</ele>
        <time>2025-03-08T13:25:25Z</time>
      </trkpt>
      <trkpt lat="44.40596" lon="1.34405">
        <ele>306.2</ele>
        <time>2025-03-08T13:25:26Z</time>
      </trkpt>
      <trkpt lat="44.40595" lon="1.34405">
        <ele>306.2</ele>
        <time>2025-03-08T13:25:27Z</time>
      </trkpt>
      <trkpt lat="44.40594" lon="1.34405">
        <ele>306.2</ele>
        <time>2025-03-08T13:25:28Z</time>
      </trkpt>
      <trkpt lat="44.40595" lon="1.34406">
        <ele>306.2</ele>
        <time>2025-03-08T13:25:29Z</time>
      </trkpt>
      <trkpt lat="44.40595" lon="1.34406">
        <ele>306.2</ele>
        <time>2025-03-08T13:25:30Z</time>
      </trkpt>
      <trkpt lat="44.40595" lon="1.34406">
        <ele>306.2</ele>
        <time>2025-03-08T13:25:31Z</time>
      </trkpt>
      <trkpt lat="44.40595" lon="1.34407">
        <ele>306.3</ele>
        <time>2025-03-08T13:25:32Z</time>
      </trkpt>
      <trkpt lat="44.40595" lon="1.34407">
        <ele>306.3</ele>
        <time>2025-03-08T13:25:33Z</time>
      </trkpt>
      <trkpt lat="44.40596" lon="1.34407">
        <ele>306.3</ele>
        <time>2025-03-08T13:25:34Z</time>
      </trkpt>
      <trkpt lat="44.40596" lon="1.34408">
        <ele>306.3</ele>
        <time>2025-03-08T13:25:35Z</time>
      </trkpt>
      <trkpt lat="44.40596" lon="1.34408">
        <ele>306.3</ele>
        <time>2025-03-08T13:25:36Z</time>
      </trkpt>
      <trkpt lat="44.40596" lon="1.34409">
        <ele>306.3</ele>
        <time>2025-03-08T13:25:37Z</time>
      </trkpt>
      <trkpt lat="44.40596" lon="1.34409">
        <ele>306.3</ele>
        <time>2025-03-08T13:25:38Z</time>
      </trkpt>
      <trkpt lat="44.40597" lon="1.34409">
        <ele>306.3</ele>
        <time>2025-03-08T13:25:39Z</time>
      </trkpt>
      <trkpt lat="44.40597" lon="1.3441">
        <ele>306.3</ele>
        <time>2025-03-08T13:25:40Z</time>
      </trkpt>
      <trkpt lat="44.40599" lon="1.34411">
        <ele>306.3</ele>
        <time>2025-03-08T13:25:41Z</time>
      </trkpt>
      <trkpt lat="44.406" lon="1.34411">
        <ele>306.4</ele>
        <time>2025-03-08T13:25:42Z</time>
      </trkpt>
      <trkpt lat="44.40601" lon="1.34409">
        <ele>306.4</ele>
        <time>2025-03-08T13:25:43Z</time>
      </trkpt>
      <trkpt lat="44.40601" lon="1.34407">
        <ele>306.4</ele>
        <time>2025-03-08T13:25:44Z</time>
      </trkpt>
      <trkpt lat="44.40601" lon="1.34407">
        <ele>306.4</ele>
        <time>2025-03-08T13:25:45Z</time>
      </trkpt>
      <trkpt lat="44.40601" lon="1.34407">
        <ele>306.4</ele>
        <time>2025-03-08T13:25:46Z</time>
      </trkpt>
      <trkpt lat="44.40601" lon="1.34407">
        <ele>306.4</ele>
        <time>2025-03-08T13:25:47Z</time>
      </trkpt>
      <trkpt lat="44.40601" lon="1.34407">
        <ele>306.4</ele>
        <time>2025-03-08T13:25:48Z</time>
      </trkpt>
      <trkpt lat="44.40601" lon="1.34407">
        <ele>306.4</ele>
        <time>2025-03-08T13:25:49Z</time>
      </trkpt>
      <trkpt lat="44.40602" lon="1.34406">
        <ele>306.4</ele>
        <time>2025-03-08T13:25:50Z</time>
      </trkpt>
      <trkpt lat="44.40602" lon="1.34406">
        <ele>306.4</ele>
        <time>2025-03-08T13:25:51Z</time>
      </trkpt>
      <trkpt lat="44.40603" lon="1.34404">
        <ele>306.4</ele>
        <time>2025-03-08T13:25:52Z</time>
      </trkpt>
      <trkpt lat="44.40605" lon="1.34402">
        <ele>306.4</ele>
        <time>2025-03-08T13:25:53Z</time>
      </trkpt>
      <trkpt lat="44.40606" lon="1.34401">
        <ele>306.4</ele>
        <time>2025-03-08T13:25:54Z</time>
      </trkpt>
      <trkpt lat="44.40609" lon="1.34397">
        <ele>306.4</ele>
        <time>2025-03-08T13:25:55Z</time>
      </trkpt>
      <trkpt lat="44.40609" lon="1.34395">
        <ele>306.4</ele>
        <time>2025-03-08T13:25:56Z</time>
      </trkpt>
      <trkpt lat="44.40611" lon="1.34392">
        <ele>306.4</ele>
        <time>2025-03-08T13:25:57Z</time>
      </trkpt>
      <trkpt lat="44.40613" lon="1.34389">
        <ele>306.3</ele>
        <time>2025-03-08T13:25:58Z</time>
      </trkpt>
      <trkpt lat="44.40616" lon="1.34385">
        <ele>306.2</ele>
        <time>2025-03-08T13:25:59Z</time>
      </trkpt>
      <trkpt lat="44.40617" lon="1.34383">
        <ele>306.2</ele>
        <time>2025-03-08T13:26:00Z</time>
      </trkpt>
      <trkpt lat="44.40619" lon="1.34379">
        <ele>306</ele>
        <time>2025-03-08T13:26:01Z</time>
      </trkpt>
      <trkpt lat="44.40621" lon="1.34376">
        <ele>305.9</ele>
        <time>2025-03-08T13:26:02Z</time>
      </trkpt>
      <trkpt lat="44.40623" lon="1.34371">
        <ele>305.6</ele>
        <time>2025-03-08T13:26:03Z</time>
      </trkpt>
      <trkpt lat="44.40625" lon="1.34366">
        <ele>305.4</ele>
        <time>2025-03-08T13:26:04Z</time>
      </trkpt>
      <trkpt lat="44.40626" lon="1.34362">
        <ele>305.2</ele>
        <time>2025-03-08T13:26:05Z</time>
      </trkpt>
      <trkpt lat="44.40626" lon="1.34359">
        <ele>305</ele>
        <time>2025-03-08T13:26:06Z</time>
      </trkpt>
      <trkpt lat="44.40625" lon="1.34358">
        <ele>305</ele>
        <time>2025-03-08T13:26:07Z</time>
      </trkpt>
      <trkpt lat="44.40624" lon="1.34358">
        <ele>304.9</ele>
        <time>2025-03-08T13:26:08Z</time>
      </trkpt>
      <trkpt lat="44.40624" lon="1.34359">
        <ele>304.8</ele>
        <time>2025-03-08T13:26:09Z</time>
      </trkpt>
      <trkpt lat="44.40623" lon="1.3436">
        <ele>304.7</ele>
        <time>2025-03-08T13:26:10Z</time>
      </trkpt>
      <trkpt lat="44.40623" lon="1.34362">
        <ele>304.7</ele>
        <time>2025-03-08T13:26:11Z</time>
      </trkpt>
      <trkpt lat="44.40621" lon="1.34362">
        <ele>304.6</ele>
        <time>2025-03-08T13:26:12Z</time>
      </trkpt>
      <trkpt lat="44.4062" lon="1.34362">
        <ele>304.5</ele>
        <time>2025-03-08T13:26:13Z</time>
      </trkpt>
      <trkpt lat="44.4062" lon="1.3436">
        <ele>304.4</ele>
        <time>2025-03-08T13:26:14Z</time>
      </trkpt>
      <trkpt lat="44.4062" lon="1.34359">
        <ele>304.4</ele>
        <time>2025-03-08T13:26:15Z</time>
      </trkpt>
      <trkpt lat="44.4062" lon="1.34359">
        <ele>304.4</ele>
        <time>2025-03-08T13:26:16Z</time>
      </trkpt>
      <trkpt lat="44.40621" lon="1.34359">
        <ele>304.3</ele>
        <time>2025-03-08T13:26:17Z</time>
      </trkpt>
      <trkpt lat="44.40621" lon="1.34361">
        <ele>304.2</ele>
        <time>2025-03-08T13:26:19Z</time>
      </trkpt>
      <trkpt lat="44.40621" lon="1.34362">
        <ele>304.2</ele>
        <time>2025-03-08T13:26:20Z</time>
      </trkpt>
      <trkpt lat="44.4062" lon="1.34363">
        <ele>304.1</ele>
        <time>2025-03-08T13:26:21Z</time>
      </trkpt>
      <trkpt lat="44.4062" lon="1.34364">
        <ele>304.1</ele>
        <time>2025-03-08T13:26:22Z</time>
      </trkpt>
      <trkpt lat="44.40621" lon="1.34364">
        <ele>304</ele>
        <time>2025-03-08T13:26:23Z</time>
      </trkpt>
      <trkpt lat="44.40623" lon="1.34363">
        <ele>303.9</ele>
        <time>2025-03-08T13:26:24Z</time>
      </trkpt>
      <trkpt lat="44.40624" lon="1.34362">
        <ele>303.9</ele>
        <time>2025-03-08T13:26:25Z</time>
      </trkpt>
      <trkpt lat="44.40625" lon="1.34361">
        <ele>303.8</ele>
        <time>2025-03-08T13:26:26Z</time>
      </trkpt>
      <trkpt lat="44.40625" lon="1.3436">
        <ele>303.8</ele>
        <time>2025-03-08T13:26:27Z</time>
      </trkpt>
      <trkpt lat="44.40624" lon="1.34359">
        <ele>303.7</ele>
        <time>2025-03-08T13:26:28Z</time>
      </trkpt>
      <trkpt lat="44.40624" lon="1.34359">
        <ele>303.7</ele>
        <time>2025-03-08T13:26:29Z</time>
      </trkpt>
      <trkpt lat="44.40625" lon="1.34359">
        <ele>303.6</ele>
        <time>2025-03-08T13:26:30Z</time>
      </trkpt>
      <trkpt lat="44.40627" lon="1.34358">
        <ele>303.5</ele>
        <time>2025-03-08T13:26:31Z</time>
      </trkpt>
      <trkpt lat="44.40631" lon="1.34355">
        <ele>303.3</ele>
        <time>2025-03-08T13:26:32Z</time>
      </trkpt>
      <trkpt lat="44.40633" lon="1.34353">
        <ele>303.2</ele>
        <time>2025-03-08T13:26:33Z</time>
      </trkpt>
      <trkpt lat="44.40636" lon="1.3435">
        <ele>303</ele>
        <time>2025-03-08T13:26:34Z</time>
      </trkpt>
      <trkpt lat="44.4064" lon="1.34346">
        <ele>302.8</ele>
        <time>2025-03-08T13:26:35Z</time>
      </trkpt>
      <trkpt lat="44.40644" lon="1.34342">
        <ele>302.6</ele>
        <time>2025-03-08T13:26:36Z</time>
      </trkpt>
      <trkpt lat="44.40648" lon="1.34338">
        <ele>302.5</ele>
        <time>2025-03-08T13:26:37Z</time>
      </trkpt>
      <trkpt lat="44.40652" lon="1.34333">
        <ele>302.5</ele>
        <time>2025-03-08T13:26:38Z</time>
      </trkpt>
      <trkpt lat="44.40655" lon="1.34326">
        <ele>302.5</ele>
        <time>2025-03-08T13:26:39Z</time>
      </trkpt>
      <trkpt lat="44.40658" lon="1.34318">
        <ele>302.6</ele>
        <time>2025-03-08T13:26:40Z</time>
      </trkpt>
      <trkpt lat="44.40658" lon="1.34311">
        <ele>302.8</ele>
        <time>2025-03-08T13:26:41Z</time>
      </trkpt>
      <trkpt lat="44.40659" lon="1.34304">
        <ele>303.2</ele>
        <time>2025-03-08T13:26:42Z</time>
      </trkpt>
      <trkpt lat="44.40659" lon="1.34296">
        <ele>303.6</ele>
        <time>2025-03-08T13:26:43Z</time>
      </trkpt>
      <trkpt lat="44.40659" lon="1.34289">
        <ele>304.1</ele>
        <time>2025-03-08T13:26:44Z</time>
      </trkpt>
      <trkpt lat="44.40659" lon="1.34282">
        <ele>304.5</ele>
        <time>2025-03-08T13:26:45Z</time>
      </trkpt>
      <trkpt lat="44.4066" lon="1.34277">
        <ele>304.9</ele>
        <time>2025-03-08T13:26:46Z</time>
      </trkpt>
      <trkpt lat="44.4066" lon="1.34275">
        <ele>305.1</ele>
        <time>2025-03-08T13:26:47Z</time>
      </trkpt>
      <trkpt lat="44.40661" lon="1.34274">
        <ele>305.3</ele>
        <time>2025-03-08T13:26:48Z</time>
      </trkpt>
      <trkpt lat="44.40664" lon="1.3427">
        <ele>305.7</ele>
        <time>2025-03-08T13:26:49Z</time>
      </trkpt>
      <trkpt lat="44.40665" lon="1.34268">
        <ele>305.9</ele>
        <time>2025-03-08T13:26:50Z</time>
      </trkpt>
      <trkpt lat="44.40665" lon="1.34265">
        <ele>306.1</ele>
        <time>2025-03-08T13:26:51Z</time>
      </trkpt>
      <trkpt lat="44.40666" lon="1.34264">
        <ele>306.2</ele>
        <time>2025-03-08T13:26:52Z</time>
      </trkpt>
      <trkpt lat="44.40668" lon="1.34261">
        <ele>306.5</ele>
        <time>2025-03-08T13:26:53Z</time>
      </trkpt>
      <trkpt lat="44.40668" lon="1.3426">
        <ele>306.6</ele>
        <time>2025-03-08T13:26:54Z</time>
      </trkpt>
      <trkpt lat="44.40669" lon="1.34258">
        <ele>306.8</ele>
        <time>2025-03-08T13:26:55Z</time>
      </trkpt>
      <trkpt lat="44.4067" lon="1.34257">
        <ele>307</ele>
        <time>2025-03-08T13:26:56Z</time>
      </trkpt>
      <trkpt lat="44.40672" lon="1.34252">
        <ele>307.4</ele>
        <time>2025-03-08T13:26:57Z</time>
      </trkpt>
      <trkpt lat="44.40672" lon="1.34251">
        <ele>307.6</ele>
        <time>2025-03-08T13:26:58Z</time>
      </trkpt>
      <trkpt lat="44.40673" lon="1.34245">
        <ele>308</ele>
        <time>2025-03-08T13:26:59Z</time>
      </trkpt>
      <trkpt lat="44.40674" lon="1.34243">
        <ele>308.2</ele>
        <time>2025-03-08T13:27:00Z</time>
      </trkpt>
      <trkpt lat="44.40675" lon="1.3424">
        <ele>308.6</ele>
        <time>2025-03-08T13:27:01Z</time>
      </trkpt>
      <trkpt lat="44.40677" lon="1.34236">
        <ele>308.9</ele>
        <time>2025-03-08T13:27:02Z</time>
      </trkpt>
      <trkpt lat="44.40679" lon="1.34233">
        <ele>309.3</ele>
        <time>2025-03-08T13:27:03Z</time>
      </trkpt>
      <trkpt lat="44.40679" lon="1.34232">
        <ele>309.4</ele>
        <time>2025-03-08T13:27:04Z</time>
      </trkpt>
      <trkpt lat="44.40681" lon="1.3423">
        <ele>309.7</ele>
        <time>2025-03-08T13:27:05Z</time>
      </trkpt>
      <trkpt lat="44.40682" lon="1.34228">
        <ele>309.9</ele>
        <time>2025-03-08T13:27:06Z</time>
      </trkpt>
      <trkpt lat="44.40683" lon="1.34227">
        <ele>310</ele>
        <time>2025-03-08T13:27:07Z</time>
      </trkpt>
      <trkpt lat="44.40684" lon="1.34225">
        <ele>310.2</ele>
        <time>2025-03-08T13:27:08Z</time>
      </trkpt>
      <trkpt lat="44.40686" lon="1.34222">
        <ele>310.7</ele>
        <time>2025-03-08T13:27:09Z</time>
      </trkpt>
      <trkpt lat="44.40686" lon="1.3422">
        <ele>310.8</ele>
        <time>2025-03-08T13:27:10Z</time>
      </trkpt>
      <trkpt lat="44.40688" lon="1.34216">
        <ele>311.3</ele>
        <time>2025-03-08T13:27:11Z</time>
      </trkpt>
      <trkpt lat="44.40689" lon="1.34215">
        <ele>311.5</ele>
        <time>2025-03-08T13:27:12Z</time>
      </trkpt>
      <trkpt lat="44.4069" lon="1.34212">
        <ele>311.7</ele>
        <time>2025-03-08T13:27:13Z</time>
      </trkpt>
      <trkpt lat="44.4069" lon="1.3421">
        <ele>312</ele>
        <time>2025-03-08T13:27:14Z</time>
      </trkpt>
      <trkpt lat="44.40691" lon="1.34208">
        <ele>312.2</ele>
        <time>2025-03-08T13:27:15Z</time>
      </trkpt>
      <trkpt lat="44.40692" lon="1.34207">
        <ele>312.3</ele>
        <time>2025-03-08T13:27:16Z</time>
      </trkpt>
      <trkpt lat="44.40692" lon="1.34205">
        <ele>312.6</ele>
        <time>2025-03-08T13:27:17Z</time>
      </trkpt>
      <trkpt lat="44.40693" lon="1.34203">
        <ele>312.8</ele>
        <time>2025-03-08T13:27:18Z</time>
      </trkpt>
      <trkpt lat="44.40695" lon="1.34199">
        <ele>313.2</ele>
        <time>2025-03-08T13:27:19Z</time>
      </trkpt>
      <trkpt lat="44.40695" lon="1.34199">
        <ele>313.3</ele>
        <time>2025-03-08T13:27:20Z</time>
      </trkpt>
      <trkpt lat="44.40697" lon="1.34195">
        <ele>313.7</ele>
        <time>2025-03-08T13:27:21Z</time>
      </trkpt>
      <trkpt lat="44.40697" lon="1.34193">
        <ele>313.9</ele>
        <time>2025-03-08T13:27:22Z</time>
      </trkpt>
      <trkpt lat="44.40698" lon="1.34189">
        <ele>314.4</ele>
        <time>2025-03-08T13:27:23Z</time>
      </trkpt>
      <trkpt lat="44.40698" lon="1.34187">
        <ele>314.5</ele>
        <time>2025-03-08T13:27:24Z</time>
      </trkpt>
      <trkpt lat="44.40699" lon="1.34183">
        <ele>314.9</ele>
        <time>2025-03-08T13:27:25Z</time>
      </trkpt>
      <trkpt lat="44.407" lon="1.34182">
        <ele>315</ele>
        <time>2025-03-08T13:27:26Z</time>
      </trkpt>
      <trkpt lat="44.40701" lon="1.34179">
        <ele>315.5</ele>
        <time>2025-03-08T13:27:27Z</time>
      </trkpt>
      <trkpt lat="44.40701" lon="1.34177">
        <ele>315.6</ele>
        <time>2025-03-08T13:27:28Z</time>
      </trkpt>
      <trkpt lat="44.40702" lon="1.34174">
        <ele>315.9</ele>
        <time>2025-03-08T13:27:29Z</time>
      </trkpt>
      <trkpt lat="44.40702" lon="1.34172">
        <ele>316.1</ele>
        <time>2025-03-08T13:27:30Z</time>
      </trkpt>
      <trkpt lat="44.40703" lon="1.34168">
        <ele>316.6</ele>
        <time>2025-03-08T13:27:31Z</time>
      </trkpt>
      <trkpt lat="44.40704" lon="1.34167">
        <ele>316.7</ele>
        <time>2025-03-08T13:27:32Z</time>
      </trkpt>
      <trkpt lat="44.40704" lon="1.34165">
        <ele>316.9</ele>
        <time>2025-03-08T13:27:33Z</time>
      </trkpt>
      <trkpt lat="44.40704" lon="1.34162">
        <ele>317.1</ele>
        <time>2025-03-08T13:27:34Z</time>
      </trkpt>
      <trkpt lat="44.40705" lon="1.34158">
        <ele>317.5</ele>
        <time>2025-03-08T13:27:35Z</time>
      </trkpt>
      <trkpt lat="44.40706" lon="1.34157">
        <ele>317.7</ele>
        <time>2025-03-08T13:27:36Z</time>
      </trkpt>
      <trkpt lat="44.40706" lon="1.34152">
        <ele>318.1</ele>
        <time>2025-03-08T13:27:37Z</time>
      </trkpt>
      <trkpt lat="44.40707" lon="1.34151">
        <ele>318.3</ele>
        <time>2025-03-08T13:27:38Z</time>
      </trkpt>
      <trkpt lat="44.40707" lon="1.34149">
        <ele>318.5</ele>
        <time>2025-03-08T13:27:39Z</time>
      </trkpt>
      <trkpt lat="44.40707" lon="1.34147">
        <ele>318.6</ele>
        <time>2025-03-08T13:27:40Z</time>
      </trkpt>
      <trkpt lat="44.40708" lon="1.34143">
        <ele>319</ele>
        <time>2025-03-08T13:27:41Z</time>
      </trkpt>
      <trkpt lat="44.40709" lon="1.34142">
        <ele>319.1</ele>
        <time>2025-03-08T13:27:42Z</time>
      </trkpt>
      <trkpt lat="44.4071" lon="1.34138">
        <ele>319.5</ele>
        <time>2025-03-08T13:27:43Z</time>
      </trkpt>
      <trkpt lat="44.4071" lon="1.34136">
        <ele>319.6</ele>
        <time>2025-03-08T13:27:44Z</time>
      </trkpt>
      <trkpt lat="44.40712" lon="1.34132">
        <ele>320</ele>
        <time>2025-03-08T13:27:45Z</time>
      </trkpt>
      <trkpt lat="44.40712" lon="1.34131">
        <ele>320.1</ele>
        <time>2025-03-08T13:27:46Z</time>
      </trkpt>
      <trkpt lat="44.40713" lon="1.34127">
        <ele>320.4</ele>
        <time>2025-03-08T13:27:47Z</time>
      </trkpt>
      <trkpt lat="44.40713" lon="1.34126">
        <ele>320.5</ele>
        <time>2025-03-08T13:27:48Z</time>
      </trkpt>
      <trkpt lat="44.40715" lon="1.34122">
        <ele>320.9</ele>
        <time>2025-03-08T13:27:49Z</time>
      </trkpt>
      <trkpt lat="44.40716" lon="1.34121">
        <ele>321</ele>
        <time>2025-03-08T13:27:50Z</time>
      </trkpt>
      <trkpt lat="44.40716" lon="1.34117">
        <ele>321.3</ele>
        <time>2025-03-08T13:27:51Z</time>
      </trkpt>
      <trkpt lat="44.40717" lon="1.34112">
        <ele>321.6</ele>
        <time>2025-03-08T13:27:52Z</time>
      </trkpt>
      <trkpt lat="44.40717" lon="1.34111">
        <ele>321.7</ele>
        <time>2025-03-08T13:27:53Z</time>
      </trkpt>
      <trkpt lat="44.40717" lon="1.34109">
        <ele>321.9</ele>
        <time>2025-03-08T13:27:54Z</time>
      </trkpt>
      <trkpt lat="44.40717" lon="1.34106">
        <ele>322.1</ele>
        <time>2025-03-08T13:27:55Z</time>
      </trkpt>
      <trkpt lat="44.40718" lon="1.34104">
        <ele>322.3</ele>
        <time>2025-03-08T13:27:56Z</time>
      </trkpt>
      <trkpt lat="44.40718" lon="1.34102">
        <ele>322.4</ele>
        <time>2025-03-08T13:27:57Z</time>
      </trkpt>
      <trkpt lat="44.40719" lon="1.341">
        <ele>322.5</ele>
        <time>2025-03-08T13:27:58Z</time>
      </trkpt>
      <trkpt lat="44.40719" lon="1.34098">
        <ele>322.6</ele>
        <time>2025-03-08T13:27:59Z</time>
      </trkpt>
      <trkpt lat="44.4072" lon="1.34096">
        <ele>322.6</ele>
        <time>2025-03-08T13:28:00Z</time>
      </trkpt>
      <trkpt lat="44.40721" lon="1.34095">
        <ele>322.7</ele>
        <time>2025-03-08T13:28:01Z</time>
      </trkpt>
      <trkpt lat="44.40723" lon="1.34092">
        <ele>322.8</ele>
        <time>2025-03-08T13:28:02Z</time>
      </trkpt>
      <trkpt lat="44.40724" lon="1.34092">
        <ele>322.9</ele>
        <time>2025-03-08T13:28:03Z</time>
      </trkpt>
      <trkpt lat="44.40725" lon="1.34091">
        <ele>322.9</ele>
        <time>2025-03-08T13:28:04Z</time>
      </trkpt>
      <trkpt lat="44.40726" lon="1.3409">
        <ele>323</ele>
        <time>2025-03-08T13:28:05Z</time>
      </trkpt>
      <trkpt lat="44.40727" lon="1.34089">
        <ele>323.1</ele>
        <time>2025-03-08T13:28:06Z</time>
      </trkpt>
      <trkpt lat="44.40729" lon="1.34084">
        <ele>323.2</ele>
        <time>2025-03-08T13:28:07Z</time>
      </trkpt>
      <trkpt lat="44.40729" lon="1.34083">
        <ele>323.3</ele>
        <time>2025-03-08T13:28:08Z</time>
      </trkpt>
      <trkpt lat="44.40731" lon="1.34078">
        <ele>323.5</ele>
        <time>2025-03-08T13:28:09Z</time>
      </trkpt>
      <trkpt lat="44.40732" lon="1.34076">
        <ele>323.5</ele>
        <time>2025-03-08T13:28:10Z</time>
      </trkpt>
      <trkpt lat="44.40732" lon="1.34072">
        <ele>323.7</ele>
        <time>2025-03-08T13:28:11Z</time>
      </trkpt>
      <trkpt lat="44.40732" lon="1.3407">
        <ele>323.8</ele>
        <time>2025-03-08T13:28:12Z</time>
      </trkpt>
      <trkpt lat="44.40733" lon="1.34066">
        <ele>323.9</ele>
        <time>2025-03-08T13:28:13Z</time>
      </trkpt>
      <trkpt lat="44.40734" lon="1.34065">
        <ele>324</ele>
        <time>2025-03-08T13:28:14Z</time>
      </trkpt>
      <trkpt lat="44.40735" lon="1.34061">
        <ele>324.1</ele>
        <time>2025-03-08T13:28:15Z</time>
      </trkpt>
      <trkpt lat="44.40736" lon="1.3406">
        <ele>324.1</ele>
        <time>2025-03-08T13:28:16Z</time>
      </trkpt>
      <trkpt lat="44.40737" lon="1.34056">
        <ele>324.2</ele>
        <time>2025-03-08T13:28:17Z</time>
      </trkpt>
      <trkpt lat="44.40737" lon="1.34054">
        <ele>324.3</ele>
        <time>2025-03-08T13:28:18Z</time>
      </trkpt>
      <trkpt lat="44.40737" lon="1.34049">
        <ele>324.4</ele>
        <time>2025-03-08T13:28:19Z</time>
      </trkpt>
      <trkpt lat="44.40736" lon="1.34047">
        <ele>324.4</ele>
        <time>2025-03-08T13:28:20Z</time>
      </trkpt>
      <trkpt lat="44.40736" lon="1.34043">
        <ele>324.5</ele>
        <time>2025-03-08T13:28:21Z</time>
      </trkpt>
      <trkpt lat="44.40737" lon="1.34038">
        <ele>324.5</ele>
        <time>2025-03-08T13:28:22Z</time>
      </trkpt>
      <trkpt lat="44.40737" lon="1.34037">
        <ele>324.5</ele>
        <time>2025-03-08T13:28:23Z</time>
      </trkpt>
      <trkpt lat="44.40737" lon="1.34033">
        <ele>324.5</ele>
        <time>2025-03-08T13:28:24Z</time>
      </trkpt>
      <trkpt lat="44.40737" lon="1.34032">
        <ele>324.5</ele>
        <time>2025-03-08T13:28:25Z</time>
      </trkpt>
      <trkpt lat="44.40738" lon="1.34027">
        <ele>324.5</ele>
        <time>2025-03-08T13:28:26Z</time>
      </trkpt>
      <trkpt lat="44.40738" lon="1.34026">
        <ele>324.5</ele>
        <time>2025-03-08T13:28:27Z</time>
      </trkpt>
      <trkpt lat="44.40739" lon="1.34021">
        <ele>324.5</ele>
        <time>2025-03-08T13:28:28Z</time>
      </trkpt>
      <trkpt lat="44.4074" lon="1.34019">
        <ele>324.5</ele>
        <time>2025-03-08T13:28:29Z</time>
      </trkpt>
      <trkpt lat="44.40742" lon="1.34014">
        <ele>324.4</ele>
        <time>2025-03-08T13:28:30Z</time>
      </trkpt>
      <trkpt lat="44.40743" lon="1.34012">
        <ele>324.4</ele>
        <time>2025-03-08T13:28:31Z</time>
      </trkpt>
      <trkpt lat="44.40745" lon="1.34008">
        <ele>324.3</ele>
        <time>2025-03-08T13:28:32Z</time>
      </trkpt>
      <trkpt lat="44.40748" lon="1.34005">
        <ele>324.3</ele>
        <time>2025-03-08T13:28:33Z</time>
      </trkpt>
      <trkpt lat="44.4075" lon="1.34001">
        <ele>324.2</ele>
        <time>2025-03-08T13:28:34Z</time>
      </trkpt>
      <trkpt lat="44.40752" lon="1.33998">
        <ele>324.1</ele>
        <time>2025-03-08T13:28:35Z</time>
      </trkpt>
      <trkpt lat="44.40755" lon="1.33993">
        <ele>324</ele>
        <time>2025-03-08T13:28:36Z</time>
      </trkpt>
      <trkpt lat="44.40756" lon="1.33992">
        <ele>324</ele>
        <time>2025-03-08T13:28:37Z</time>
      </trkpt>
      <trkpt lat="44.40758" lon="1.33988">
        <ele>323.9</ele>
        <time>2025-03-08T13:28:38Z</time>
      </trkpt>
      <trkpt lat="44.40759" lon="1.33985">
        <ele>323.9</ele>
        <time>2025-03-08T13:28:39Z</time>
      </trkpt>
      <trkpt lat="44.40761" lon="1.33982">
        <ele>323.8</ele>
        <time>2025-03-08T13:28:40Z</time>
      </trkpt>
      <trkpt lat="44.40763" lon="1.33978">
        <ele>323.7</ele>
        <time>2025-03-08T13:28:41Z</time>
      </trkpt>
      <trkpt lat="44.40766" lon="1.33974">
        <ele>323.6</ele>
        <time>2025-03-08T13:28:42Z</time>
      </trkpt>
      <trkpt lat="44.40768" lon="1.33969">
        <ele>323.6</ele>
        <time>2025-03-08T13:28:43Z</time>
      </trkpt>
      <trkpt lat="44.40771" lon="1.33966">
        <ele>323.5</ele>
        <time>2025-03-08T13:28:44Z</time>
      </trkpt>
      <trkpt lat="44.40773" lon="1.33962">
        <ele>323.4</ele>
        <time>2025-03-08T13:28:45Z</time>
      </trkpt>
      <trkpt lat="44.40775" lon="1.33957">
        <ele>323.4</ele>
        <time>2025-03-08T13:28:46Z</time>
      </trkpt>
      <trkpt lat="44.40777" lon="1.33953">
        <ele>323.3</ele>
        <time>2025-03-08T13:28:47Z</time>
      </trkpt>
      <trkpt lat="44.40779" lon="1.3395">
        <ele>323.3</ele>
        <time>2025-03-08T13:28:48Z</time>
      </trkpt>
      <trkpt lat="44.40781" lon="1.33947">
        <ele>323.3</ele>
        <time>2025-03-08T13:28:49Z</time>
      </trkpt>
      <trkpt lat="44.40784" lon="1.33944">
        <ele>323.2</ele>
        <time>2025-03-08T13:28:50Z</time>
      </trkpt>
      <trkpt lat="44.40786" lon="1.33941">
        <ele>323.2</ele>
        <time>2025-03-08T13:28:51Z</time>
      </trkpt>
      <trkpt lat="44.40789" lon="1.33938">
        <ele>323.1</ele>
        <time>2025-03-08T13:28:52Z</time>
      </trkpt>
      <trkpt lat="44.40791" lon="1.33935">
        <ele>323.1</ele>
        <time>2025-03-08T13:28:53Z</time>
      </trkpt>
      <trkpt lat="44.40792" lon="1.33931">
        <ele>323.1</ele>
        <time>2025-03-08T13:28:54Z</time>
      </trkpt>
      <trkpt lat="44.40795" lon="1.33928">
        <ele>323</ele>
        <time>2025-03-08T13:28:55Z</time>
      </trkpt>
      <trkpt lat="44.40797" lon="1.33925">
        <ele>323</ele>
        <time>2025-03-08T13:28:56Z</time>
      </trkpt>
      <trkpt lat="44.40799" lon="1.33922">
        <ele>322.9</ele>
        <time>2025-03-08T13:28:57Z</time>
      </trkpt>
      <trkpt lat="44.40802" lon="1.33919">
        <ele>322.9</ele>
        <time>2025-03-08T13:28:58Z</time>
      </trkpt>
      <trkpt lat="44.40804" lon="1.33916">
        <ele>322.9</ele>
        <time>2025-03-08T13:28:59Z</time>
      </trkpt>
      <trkpt lat="44.40806" lon="1.33913">
        <ele>322.8</ele>
        <time>2025-03-08T13:29:00Z</time>
      </trkpt>
      <trkpt lat="44.40808" lon="1.3391">
        <ele>322.8</ele>
        <time>2025-03-08T13:29:01Z</time>
      </trkpt>
      <trkpt lat="44.40811" lon="1.33907">
        <ele>322.8</ele>
        <time>2025-03-08T13:29:02Z</time>
      </trkpt>
      <trkpt lat="44.40813" lon="1.33904">
        <ele>322.7</ele>
        <time>2025-03-08T13:29:03Z</time>
      </trkpt>
      <trkpt lat="44.40816" lon="1.33901">
        <ele>322.7</ele>
        <time>2025-03-08T13:29:04Z</time>
      </trkpt>
      <trkpt lat="44.40816" lon="1.339">
        <ele>322.7</ele>
        <time>2025-03-08T13:29:05Z</time>
      </trkpt>
      <trkpt lat="44.40817" lon="1.33899">
        <ele>322.7</ele>
        <time>2025-03-08T13:29:06Z</time>
      </trkpt>
      <trkpt lat="44.40818" lon="1.33899">
        <ele>322.7</ele>
        <time>2025-03-08T13:29:07Z</time>
      </trkpt>
      <trkpt lat="44.40818" lon="1.33899">
        <ele>322.7</ele>
        <time>2025-03-08T13:29:08Z</time>
      </trkpt>
      <trkpt lat="44.40818" lon="1.33899">
        <ele>322.7</ele>
        <time>2025-03-08T13:29:09Z</time>
      </trkpt>
      <trkpt lat="44.40818" lon="1.33899">
        <ele>322.7</ele>
        <time>2025-03-08T13:29:10Z</time>
      </trkpt>
      <trkpt lat="44.40818" lon="1.33899">
        <ele>322.7</ele>
        <time>2025-03-08T13:29:11Z</time>
      </trkpt>
      <trkpt lat="44.40818" lon="1.33899">
        <ele>322.7</ele>
        <time>2025-03-08T13:29:12Z</time>
      </trkpt>
      <trkpt lat="44.40818" lon="1.33898">
        <ele>322.7</ele>
        <time>2025-03-08T13:29:13Z</time>
      </trkpt>
      <trkpt lat="44.40818" lon="1.33898">
        <ele>322.7</ele>
        <time>2025-03-08T13:29:14Z</time>
      </trkpt>
      <trkpt lat="44.40818" lon="1.33898">
        <ele>322.6</ele>
        <time>2025-03-08T13:29:15Z</time>
      </trkpt>
      <trkpt lat="44.40818" lon="1.33898">
        <ele>322.6</ele>
        <time>2025-03-08T13:29:16Z</time>
      </trkpt>
      <trkpt lat="44.40818" lon="1.33898">
        <ele>322.6</ele>
        <time>2025-03-08T13:29:17Z</time>
      </trkpt>
      <trkpt lat="44.40818" lon="1.33898">
        <ele>322.6</ele>
        <time>2025-03-08T13:29:18Z</time>
      </trkpt>
      <trkpt lat="44.40818" lon="1.33898">
        <ele>322.6</ele>
        <time>2025-03-08T13:29:19Z</time>
      </trkpt>
      <trkpt lat="44.40818" lon="1.33898">
        <ele>322.6</ele>
        <time>2025-03-08T13:29:20Z</time>
      </trkpt>
      <trkpt lat="44.40818" lon="1.33898">
        <ele>322.6</ele>
        <time>2025-03-08T13:29:21Z</time>
      </trkpt>
      <trkpt lat="44.40818" lon="1.33898">
        <ele>322.6</ele>
        <time>2025-03-08T13:29:22Z</time>
      </trkpt>
      <trkpt lat="44.40818" lon="1.33898">
        <ele>322.6</ele>
        <time>2025-03-08T13:29:23Z</time>
      </trkpt>
      <trkpt lat="44.40818" lon="1.33898">
        <ele>322.6</ele>
        <time>2025-03-08T13:29:24Z</time>
      </trkpt>
      <trkpt lat="44.40818" lon="1.33898">
        <ele>322.6</ele>
        <time>2025-03-08T13:29:25Z</time>
      </trkpt>
      <trkpt lat="44.40818" lon="1.33898">
        <ele>322.6</ele>
        <time>2025-03-08T13:29:26Z</time>
      </trkpt>
      <trkpt lat="44.40818" lon="1.33898">
        <ele>322.6</ele>
        <time>2025-03-08T13:29:27Z</time>
      </trkpt>
      <trkpt lat="44.40818" lon="1.33897">
        <ele>322.6</ele>
        <time>2025-03-08T13:29:28Z</time>
      </trkpt>
      <trkpt lat="44.40818" lon="1.33897">
        <ele>322.6</ele>
        <time>2025-03-08T13:29:29Z</time>
      </trkpt>
      <trkpt lat="44.40818" lon="1.33897">
        <ele>322.6</ele>
        <time>2025-03-08T13:29:30Z</time>
      </trkpt>
      <trkpt lat="44.40818" lon="1.33897">
        <ele>322.6</ele>
        <time>2025-03-08T13:29:31Z</time>
      </trkpt>
      <trkpt lat="44.40818" lon="1.33897">
        <ele>322.6</ele>
        <time>2025-03-08T13:29:32Z</time>
      </trkpt>
      <trkpt lat="44.40818" lon="1.33897">
        <ele>322.6</ele>
        <time>2025-03-08T13:29:33Z</time>
      </trkpt>
      <trkpt lat="44.40818" lon="1.33897">
        <ele>322.6</ele>
        <time>2025-03-08T13:29:34Z</time>
      </trkpt>
      <trkpt lat="44.40818" lon="1.33897">
        <ele>322.6</ele>
        <time>2025-03-08T13:29:35Z</time>
      </trkpt>
      <trkpt lat="44.40818" lon="1.33897">
        <ele>322.6</ele>
        <time>2025-03-08T13:29:36Z</time>
      </trkpt>
      <trkpt lat="44.40818" lon="1.33897">
        <ele>322.6</ele>
        <time>2025-03-08T13:29:37Z</time>
      </trkpt>
      <trkpt lat="44.40818" lon="1.33897">
        <ele>322.6</ele>
        <time>2025-03-08T13:29:38Z</time>
      </trkpt>
      <trkpt lat="44.40818" lon="1.33897">
        <ele>322.6</ele>
        <time>2025-03-08T13:29:39Z</time>
      </trkpt>
      <trkpt lat="44.40818" lon="1.33897">
        <ele>322.6</ele>
        <time>2025-03-08T13:29:40Z</time>
      </trkpt>
      <trkpt lat="44.40818" lon="1.33897">
        <ele>322.6</ele>
        <time>2025-03-08T13:29:41Z</time>
      </trkpt>
      <trkpt lat="44.40818" lon="1.33897">
        <ele>322.6</ele>
        <time>2025-03-08T13:29:42Z</time>
      </trkpt>
      <trkpt lat="44.40818" lon="1.33897">
        <ele>322.6</ele>
        <time>2025-03-08T13:29:43Z</time>
      </trkpt>
      <trkpt lat="44.40818" lon="1.33897">
        <ele>322.6</ele>
        <time>2025-03-08T13:29:44Z</time>
      </trkpt>
      <trkpt lat="44.40818" lon="1.33897">
        <ele>322.6</ele>
        <time>2025-03-08T13:29:45Z</time>
      </trkpt>
      <trkpt lat="44.40818" lon="1.33897">
        <ele>322.6</ele>
        <time>2025-03-08T13:29:46Z</time>
      </trkpt>
      <trkpt lat="44.40818" lon="1.33897">
        <ele>322.6</ele>
        <time>2025-03-08T13:29:47Z</time>
      </trkpt>
      <trkpt lat="44.40818" lon="1.33897">
        <ele>322.6</ele>
        <time>2025-03-08T13:29:48Z</time>
      </trkpt>
      <trkpt lat="44.40818" lon="1.33897">
        <ele>322.6</ele>
        <time>2025-03-08T13:29:49Z</time>
      </trkpt>
      <trkpt lat="44.40818" lon="1.33897">
        <ele>322.6</ele>
        <time>2025-03-08T13:29:50Z</time>
      </trkpt>
      <trkpt lat="44.40818" lon="1.33897">
        <ele>322.6</ele>
        <time>2025-03-08T13:29:51Z</time>
      </trkpt>
      <trkpt lat="44.40818" lon="1.33897">
        <ele>322.6</ele>
        <time>2025-03-08T13:29:52Z</time>
      </trkpt>
      <trkpt lat="44.40818" lon="1.33897">
        <ele>322.6</ele>
        <time>2025-03-08T13:29:53Z</time>
      </trkpt>
      <trkpt lat="44.40818" lon="1.33897">
        <ele>322.6</ele>
        <time>2025-03-08T13:29:54Z</time>
      </trkpt>
      <trkpt lat="44.40818" lon="1.33897">
        <ele>322.6</ele>
        <time>2025-03-08T13:29:55Z</time>
      </trkpt>
      <trkpt lat="44.40818" lon="1.33897">
        <ele>322.6</ele>
        <time>2025-03-08T13:29:56Z</time>
      </trkpt>
      <trkpt lat="44.40818" lon="1.33897">
        <ele>322.6</ele>
        <time>2025-03-08T13:29:57Z</time>
      </trkpt>
      <trkpt lat="44.40818" lon="1.33897">
        <ele>322.6</ele>
        <time>2025-03-08T13:29:58Z</time>
      </trkpt>
      <trkpt lat="44.40818" lon="1.33897">
        <ele>322.6</ele>
        <time>2025-03-08T13:29:59Z</time>
      </trkpt>
      <trkpt lat="44.40818" lon="1.33897">
        <ele>322.6</ele>
        <time>2025-03-08T13:30:00Z</time>
      </trkpt>
      <trkpt lat="44.40818" lon="1.33897">
        <ele>322.6</ele>
        <time>2025-03-08T13:30:01Z</time>
      </trkpt>
      <trkpt lat="44.40818" lon="1.33897">
        <ele>322.6</ele>
        <time>2025-03-08T13:30:02Z</time>
      </trkpt>
      <trkpt lat="44.40818" lon="1.33897">
        <ele>322.6</ele>
        <time>2025-03-08T13:30:03Z</time>
      </trkpt>
      <trkpt lat="44.40818" lon="1.33897">
        <ele>322.6</ele>
        <time>2025-03-08T13:30:04Z</time>
      </trkpt>
      <trkpt lat="44.40818" lon="1.33897">
        <ele>322.6</ele>
        <time>2025-03-08T13:30:05Z</time>
      </trkpt>
      <trkpt lat="44.40818" lon="1.33897">
        <ele>322.6</ele>
        <time>2025-03-08T13:30:06Z</time>
      </trkpt>
      <trkpt lat="44.40818" lon="1.33897">
        <ele>322.6</ele>
        <time>2025-03-08T13:30:07Z</time>
      </trkpt>
      <trkpt lat="44.40818" lon="1.33897">
        <ele>322.6</ele>
        <time>2025-03-08T13:30:08Z</time>
      </trkpt>
      <trkpt lat="44.40818" lon="1.33897">
        <ele>322.6</ele>
        <time>2025-03-08T13:30:09Z</time>
      </trkpt>
      <trkpt lat="44.40819" lon="1.33897">
        <ele>322.6</ele>
        <time>2025-03-08T13:30:10Z</time>
      </trkpt>
      <trkpt lat="44.40819" lon="1.33897">
        <ele>322.6</ele>
        <time>2025-03-08T13:30:11Z</time>
      </trkpt>
      <trkpt lat="44.40819" lon="1.33897">
        <ele>322.6</ele>
        <time>2025-03-08T13:30:12Z</time>
      </trkpt>
      <trkpt lat="44.40819" lon="1.33897">
        <ele>322.6</ele>
        <time>2025-03-08T13:30:13Z</time>
      </trkpt>
      <trkpt lat="44.40819" lon="1.33897">
        <ele>322.6</ele>
        <time>2025-03-08T13:30:14Z</time>
      </trkpt>
      <trkpt lat="44.40819" lon="1.33896">
        <ele>322.6</ele>
        <time>2025-03-08T13:30:15Z</time>
      </trkpt>
      <trkpt lat="44.40821" lon="1.33894">
        <ele>322.6</ele>
        <time>2025-03-08T13:30:16Z</time>
      </trkpt>
      <trkpt lat="44.40823" lon="1.33891">
        <ele>322.6</ele>
        <time>2025-03-08T13:30:17Z</time>
      </trkpt>
      <trkpt lat="44.40824" lon="1.3389">
        <ele>322.6</ele>
        <time>2025-03-08T13:30:18Z</time>
      </trkpt>
      <trkpt lat="44.40828" lon="1.33888">
        <ele>322.5</ele>
        <time>2025-03-08T13:30:19Z</time>
      </trkpt>
      <trkpt lat="44.40829" lon="1.33887">
        <ele>322.5</ele>
        <time>2025-03-08T13:30:20Z</time>
      </trkpt>
      <trkpt lat="44.40832" lon="1.33886">
        <ele>322.5</ele>
        <time>2025-03-08T13:30:21Z</time>
      </trkpt>
      <trkpt lat="44.40835" lon="1.33886">
        <ele>322.5</ele>
        <time>2025-03-08T13:30:22Z</time>
      </trkpt>
      <trkpt lat="44.40838" lon="1.33886">
        <ele>322.4</ele>
        <time>2025-03-08T13:30:23Z</time>
      </trkpt>
      <trkpt lat="44.4084" lon="1.33875">
        <ele>322.4</ele>
        <time>2025-03-08T13:30:24Z</time>
      </trkpt>
      <trkpt lat="44.40844" lon="1.33865">
        <ele>322.4</ele>
        <time>2025-03-08T13:30:25Z</time>
      </trkpt>
      <trkpt lat="44.40848" lon="1.33862">
        <ele>322.4</ele>
        <time>2025-03-08T13:30:26Z</time>
      </trkpt>
      <trkpt lat="44.40852" lon="1.33858">
        <ele>322.4</ele>
        <time>2025-03-08T13:30:27Z</time>
      </trkpt>
      <trkpt lat="44.40855" lon="1.33855">
        <ele>322.4</ele>
        <time>2025-03-08T13:30:28Z</time>
      </trkpt>
      <trkpt lat="44.40858" lon="1.33851">
        <ele>322.4</ele>
        <time>2025-03-08T13:30:29Z</time>
      </trkpt>
      <trkpt lat="44.40861" lon="1.33847">
        <ele>322.4</ele>
        <time>2025-03-08T13:30:30Z</time>
      </trkpt>
      <trkpt lat="44.40863" lon="1.33844">
        <ele>322.4</ele>
        <time>2025-03-08T13:30:31Z</time>
      </trkpt>
      <trkpt lat="44.40866" lon="1.3384">
        <ele>322.5</ele>
        <time>2025-03-08T13:30:32Z</time>
      </trkpt>
      <trkpt lat="44.40869" lon="1.33835">
        <ele>322.5</ele>
        <time>2025-03-08T13:30:33Z</time>
      </trkpt>
      <trkpt lat="44.40871" lon="1.33831">
        <ele>322.5</ele>
        <time>2025-03-08T13:30:34Z</time>
      </trkpt>
      <trkpt lat="44.40873" lon="1.33827">
        <ele>322.5</ele>
        <time>2025-03-08T13:30:35Z</time>
      </trkpt>
      <trkpt lat="44.40876" lon="1.33823">
        <ele>322.5</ele>
        <time>2025-03-08T13:30:36Z</time>
      </trkpt>
      <trkpt lat="44.40878" lon="1.33819">
        <ele>322.4</ele>
        <time>2025-03-08T13:30:37Z</time>
      </trkpt>
      <trkpt lat="44.40881" lon="1.33815">
        <ele>322.4</ele>
        <time>2025-03-08T13:30:38Z</time>
      </trkpt>
      <trkpt lat="44.40882" lon="1.33811">
        <ele>322.4</ele>
        <time>2025-03-08T13:30:39Z</time>
      </trkpt>
      <trkpt lat="44.40883" lon="1.33805">
        <ele>322.2</ele>
        <time>2025-03-08T13:30:40Z</time>
      </trkpt>
      <trkpt lat="44.40879" lon="1.33794">
        <ele>321.7</ele>
        <time>2025-03-08T13:30:42Z</time>
      </trkpt>
      <trkpt lat="44.40875" lon="1.33787">
        <ele>321.4</ele>
        <time>2025-03-08T13:30:43Z</time>
      </trkpt>
      <trkpt lat="44.40873" lon="1.33781">
        <ele>321</ele>
        <time>2025-03-08T13:30:44Z</time>
      </trkpt>
      <trkpt lat="44.40869" lon="1.33775">
        <ele>320.5</ele>
        <time>2025-03-08T13:30:45Z</time>
      </trkpt>
      <trkpt lat="44.40864" lon="1.33769">
        <ele>320</ele>
        <time>2025-03-08T13:30:46Z</time>
      </trkpt>
      <trkpt lat="44.40858" lon="1.33764">
        <ele>319.3</ele>
        <time>2025-03-08T13:30:47Z</time>
      </trkpt>
      <trkpt lat="44.40852" lon="1.3376">
        <ele>318.6</ele>
        <time>2025-03-08T13:30:48Z</time>
      </trkpt>
      <trkpt lat="44.40845" lon="1.33756">
        <ele>317.9</ele>
        <time>2025-03-08T13:30:49Z</time>
      </trkpt>
      <trkpt lat="44.40838" lon="1.33752">
        <ele>317.3</ele>
        <time>2025-03-08T13:30:50Z</time>
      </trkpt>
      <trkpt lat="44.4083" lon="1.33748">
        <ele>316.6</ele>
        <time>2025-03-08T13:30:51Z</time>
      </trkpt>
      <trkpt lat="44.40823" lon="1.33744">
        <ele>316.2</ele>
        <time>2025-03-08T13:30:52Z</time>
      </trkpt>
      <trkpt lat="44.40816" lon="1.3374">
        <ele>315.8</ele>
        <time>2025-03-08T13:30:53Z</time>
      </trkpt>
      <trkpt lat="44.4081" lon="1.33735">
        <ele>315.5</ele>
        <time>2025-03-08T13:30:54Z</time>
      </trkpt>
      <trkpt lat="44.40803" lon="1.33729">
        <ele>315.3</ele>
        <time>2025-03-08T13:30:55Z</time>
      </trkpt>
      <trkpt lat="44.40798" lon="1.33723">
        <ele>315.2</ele>
        <time>2025-03-08T13:30:56Z</time>
      </trkpt>
      <trkpt lat="44.40793" lon="1.33717">
        <ele>315.2</ele>
        <time>2025-03-08T13:30:57Z</time>
      </trkpt>
      <trkpt lat="44.40788" lon="1.33712">
        <ele>315.3</ele>
        <time>2025-03-08T13:30:58Z</time>
      </trkpt>
      <trkpt lat="44.40784" lon="1.33707">
        <ele>315.4</ele>
        <time>2025-03-08T13:30:59Z</time>
      </trkpt>
      <trkpt lat="44.40779" lon="1.33702">
        <ele>315.5</ele>
        <time>2025-03-08T13:31:00Z</time>
      </trkpt>
      <trkpt lat="44.40775" lon="1.33699">
        <ele>315.8</ele>
        <time>2025-03-08T13:31:01Z</time>
      </trkpt>
      <trkpt lat="44.40771" lon="1.33695">
        <ele>316.1</ele>
        <time>2025-03-08T13:31:02Z</time>
      </trkpt>
      <trkpt lat="44.40768" lon="1.33692">
        <ele>316.3</ele>
        <time>2025-03-08T13:31:03Z</time>
      </trkpt>
      <trkpt lat="44.40765" lon="1.33689">
        <ele>316.5</ele>
        <time>2025-03-08T13:31:04Z</time>
      </trkpt>
      <trkpt lat="44.40762" lon="1.33686">
        <ele>316.8</ele>
        <time>2025-03-08T13:31:05Z</time>
      </trkpt>
      <trkpt lat="44.40759" lon="1.33683">
        <ele>317</ele>
        <time>2025-03-08T13:31:06Z</time>
      </trkpt>
      <trkpt lat="44.40755" lon="1.3368">
        <ele>317.2</ele>
        <time>2025-03-08T13:31:07Z</time>
      </trkpt>
      <trkpt lat="44.40752" lon="1.33677">
        <ele>317.5</ele>
        <time>2025-03-08T13:31:08Z</time>
      </trkpt>
      <trkpt lat="44.40748" lon="1.33674">
        <ele>317.8</ele>
        <time>2025-03-08T13:31:09Z</time>
      </trkpt>
      <trkpt lat="44.40745" lon="1.33671">
        <ele>318</ele>
        <time>2025-03-08T13:31:10Z</time>
      </trkpt>
      <trkpt lat="44.40742" lon="1.33668">
        <ele>318.2</ele>
        <time>2025-03-08T13:31:11Z</time>
      </trkpt>
      <trkpt lat="44.40738" lon="1.33664">
        <ele>318.4</ele>
        <time>2025-03-08T13:31:12Z</time>
      </trkpt>
      <trkpt lat="44.40735" lon="1.33661">
        <ele>318.6</ele>
        <time>2025-03-08T13:31:13Z</time>
      </trkpt>
      <trkpt lat="44.40732" lon="1.33659">
        <ele>318.8</ele>
        <time>2025-03-08T13:31:14Z</time>
      </trkpt>
      <trkpt lat="44.40729" lon="1.33656">
        <ele>319</ele>
        <time>2025-03-08T13:31:15Z</time>
      </trkpt>
      <trkpt lat="44.40725" lon="1.33653">
        <ele>319.2</ele>
        <time>2025-03-08T13:31:16Z</time>
      </trkpt>
      <trkpt lat="44.40722" lon="1.33649">
        <ele>319.4</ele>
        <time>2025-03-08T13:31:17Z</time>
      </trkpt>
      <trkpt lat="44.40719" lon="1.33647">
        <ele>319.6</ele>
        <time>2025-03-08T13:31:18Z</time>
      </trkpt>
      <trkpt lat="44.40716" lon="1.33644">
        <ele>319.8</ele>
        <time>2025-03-08T13:31:19Z</time>
      </trkpt>
      <trkpt lat="44.40712" lon="1.33641">
        <ele>320</ele>
        <time>2025-03-08T13:31:20Z</time>
      </trkpt>
      <trkpt lat="44.40709" lon="1.33638">
        <ele>320.2</ele>
        <time>2025-03-08T13:31:21Z</time>
      </trkpt>
      <trkpt lat="44.40705" lon="1.33635">
        <ele>320.5</ele>
        <time>2025-03-08T13:31:22Z</time>
      </trkpt>
      <trkpt lat="44.40702" lon="1.33632">
        <ele>320.7</ele>
        <time>2025-03-08T13:31:23Z</time>
      </trkpt>
      <trkpt lat="44.40699" lon="1.33629">
        <ele>321</ele>
        <time>2025-03-08T13:31:24Z</time>
      </trkpt>
      <trkpt lat="44.40696" lon="1.33626">
        <ele>321.3</ele>
        <time>2025-03-08T13:31:25Z</time>
      </trkpt>
      <trkpt lat="44.40692" lon="1.33623">
        <ele>321.6</ele>
        <time>2025-03-08T13:31:26Z</time>
      </trkpt>
      <trkpt lat="44.40689" lon="1.3362">
        <ele>321.9</ele>
        <time>2025-03-08T13:31:27Z</time>
      </trkpt>
      <trkpt lat="44.40686" lon="1.33617">
        <ele>322.2</ele>
        <time>2025-03-08T13:31:28Z</time>
      </trkpt>
      <trkpt lat="44.40683" lon="1.33614">
        <ele>322.5</ele>
        <time>2025-03-08T13:31:29Z</time>
      </trkpt>
      <trkpt lat="44.4068" lon="1.33611">
        <ele>322.9</ele>
        <time>2025-03-08T13:31:30Z</time>
      </trkpt>
      <trkpt lat="44.40677" lon="1.33609">
        <ele>323.2</ele>
        <time>2025-03-08T13:31:31Z</time>
      </trkpt>
      <trkpt lat="44.40674" lon="1.33606">
        <ele>323.6</ele>
        <time>2025-03-08T13:31:32Z</time>
      </trkpt>
      <trkpt lat="44.40672" lon="1.33604">
        <ele>323.9</ele>
        <time>2025-03-08T13:31:33Z</time>
      </trkpt>
      <trkpt lat="44.4067" lon="1.336">
        <ele>324.3</ele>
        <time>2025-03-08T13:31:34Z</time>
      </trkpt>
      <trkpt lat="44.4067" lon="1.33598">
        <ele>324.6</ele>
        <time>2025-03-08T13:31:35Z</time>
      </trkpt>
      <trkpt lat="44.40671" lon="1.33594">
        <ele>324.7</ele>
        <time>2025-03-08T13:31:36Z</time>
      </trkpt>
      <trkpt lat="44.40672" lon="1.3359">
        <ele>324.9</ele>
        <time>2025-03-08T13:31:37Z</time>
      </trkpt>
      <trkpt lat="44.40674" lon="1.33587">
        <ele>325.1</ele>
        <time>2025-03-08T13:31:38Z</time>
      </trkpt>
      <trkpt lat="44.40675" lon="1.33583">
        <ele>325.3</ele>
        <time>2025-03-08T13:31:39Z</time>
      </trkpt>
      <trkpt lat="44.40677" lon="1.3358">
        <ele>325.4</ele>
        <time>2025-03-08T13:31:40Z</time>
      </trkpt>
      <trkpt lat="44.40679" lon="1.33576">
        <ele>325.6</ele>
        <time>2025-03-08T13:31:41Z</time>
      </trkpt>
      <trkpt lat="44.40681" lon="1.33573">
        <ele>325.8</ele>
        <time>2025-03-08T13:31:42Z</time>
      </trkpt>
      <trkpt lat="44.40682" lon="1.33569">
        <ele>325.9</ele>
        <time>2025-03-08T13:31:43Z</time>
      </trkpt>
      <trkpt lat="44.40684" lon="1.33565">
        <ele>326.1</ele>
        <time>2025-03-08T13:31:44Z</time>
      </trkpt>
      <trkpt lat="44.40685" lon="1.33562">
        <ele>326.3</ele>
        <time>2025-03-08T13:31:45Z</time>
      </trkpt>
      <trkpt lat="44.40684" lon="1.33556">
        <ele>326.5</ele>
        <time>2025-03-08T13:31:46Z</time>
      </trkpt>
      <trkpt lat="44.40684" lon="1.33554">
        <ele>326.6</ele>
        <time>2025-03-08T13:31:47Z</time>
      </trkpt>
      <trkpt lat="44.40681" lon="1.3355">
        <ele>326.9</ele>
        <time>2025-03-08T13:31:48Z</time>
      </trkpt>
      <trkpt lat="44.40678" lon="1.33548">
        <ele>327.1</ele>
        <time>2025-03-08T13:31:49Z</time>
      </trkpt>
      <trkpt lat="44.40675" lon="1.33546">
        <ele>327.2</ele>
        <time>2025-03-08T13:31:50Z</time>
      </trkpt>
      <trkpt lat="44.40672" lon="1.33544">
        <ele>327.5</ele>
        <time>2025-03-08T13:31:51Z</time>
      </trkpt>
      <trkpt lat="44.4067" lon="1.33541">
        <ele>327.7</ele>
        <time>2025-03-08T13:31:52Z</time>
      </trkpt>
      <trkpt lat="44.40667" lon="1.33537">
        <ele>328</ele>
        <time>2025-03-08T13:31:53Z</time>
      </trkpt>
      <trkpt lat="44.40665" lon="1.33534">
        <ele>328.3</ele>
        <time>2025-03-08T13:31:54Z</time>
      </trkpt>
      <trkpt lat="44.40662" lon="1.33531">
        <ele>328.4</ele>
        <time>2025-03-08T13:31:55Z</time>
      </trkpt>
      <trkpt lat="44.40659" lon="1.33528">
        <ele>328.6</ele>
        <time>2025-03-08T13:31:56Z</time>
      </trkpt>
      <trkpt lat="44.40656" lon="1.33524">
        <ele>328.8</ele>
        <time>2025-03-08T13:31:57Z</time>
      </trkpt>
      <trkpt lat="44.40653" lon="1.3352">
        <ele>329</ele>
        <time>2025-03-08T13:31:58Z</time>
      </trkpt>
      <trkpt lat="44.40649" lon="1.33515">
        <ele>329.2</ele>
        <time>2025-03-08T13:31:59Z</time>
      </trkpt>
      <trkpt lat="44.40644" lon="1.33509">
        <ele>329.5</ele>
        <time>2025-03-08T13:32:00Z</time>
      </trkpt>
      <trkpt lat="44.40639" lon="1.33504">
        <ele>329.7</ele>
        <time>2025-03-08T13:32:01Z</time>
      </trkpt>
      <trkpt lat="44.40634" lon="1.33499">
        <ele>329.9</ele>
        <time>2025-03-08T13:32:02Z</time>
      </trkpt>
      <trkpt lat="44.40629" lon="1.33496">
        <ele>330.1</ele>
        <time>2025-03-08T13:32:03Z</time>
      </trkpt>
      <trkpt lat="44.40624" lon="1.33492">
        <ele>330.2</ele>
        <time>2025-03-08T13:32:04Z</time>
      </trkpt>
      <trkpt lat="44.4062" lon="1.33488">
        <ele>330.3</ele>
        <time>2025-03-08T13:32:05Z</time>
      </trkpt>
      <trkpt lat="44.40616" lon="1.33484">
        <ele>330.3</ele>
        <time>2025-03-08T13:32:06Z</time>
      </trkpt>
      <trkpt lat="44.40612" lon="1.3348">
        <ele>330.4</ele>
        <time>2025-03-08T13:32:07Z</time>
      </trkpt>
      <trkpt lat="44.40609" lon="1.33476">
        <ele>330.5</ele>
        <time>2025-03-08T13:32:08Z</time>
      </trkpt>
      <trkpt lat="44.40606" lon="1.33472">
        <ele>330.6</ele>
        <time>2025-03-08T13:32:09Z</time>
      </trkpt>
      <trkpt lat="44.40603" lon="1.33468">
        <ele>330.7</ele>
        <time>2025-03-08T13:32:10Z</time>
      </trkpt>
      <trkpt lat="44.40601" lon="1.33464">
        <ele>330.8</ele>
        <time>2025-03-08T13:32:11Z</time>
      </trkpt>
      <trkpt lat="44.40599" lon="1.3346">
        <ele>330.9</ele>
        <time>2025-03-08T13:32:12Z</time>
      </trkpt>
      <trkpt lat="44.40597" lon="1.33455">
        <ele>331</ele>
        <time>2025-03-08T13:32:13Z</time>
      </trkpt>
      <trkpt lat="44.40597" lon="1.33453">
        <ele>331.1</ele>
        <time>2025-03-08T13:32:14Z</time>
      </trkpt>
      <trkpt lat="44.40596" lon="1.33448">
        <ele>331.2</ele>
        <time>2025-03-08T13:32:15Z</time>
      </trkpt>
      <trkpt lat="44.40595" lon="1.33443">
        <ele>331.3</ele>
        <time>2025-03-08T13:32:16Z</time>
      </trkpt>
      <trkpt lat="44.40595" lon="1.33437">
        <ele>331.4</ele>
        <time>2025-03-08T13:32:17Z</time>
      </trkpt>
      <trkpt lat="44.40598" lon="1.33433">
        <ele>331.5</ele>
        <time>2025-03-08T13:32:18Z</time>
      </trkpt>
      <trkpt lat="44.40601" lon="1.33429">
        <ele>331.7</ele>
        <time>2025-03-08T13:32:19Z</time>
      </trkpt>
      <trkpt lat="44.40605" lon="1.33426">
        <ele>331.8</ele>
        <time>2025-03-08T13:32:20Z</time>
      </trkpt>
      <trkpt lat="44.40607" lon="1.33421">
        <ele>331.9</ele>
        <time>2025-03-08T13:32:21Z</time>
      </trkpt>
      <trkpt lat="44.4061" lon="1.33416">
        <ele>332</ele>
        <time>2025-03-08T13:32:22Z</time>
      </trkpt>
      <trkpt lat="44.40612" lon="1.33412">
        <ele>332.1</ele>
        <time>2025-03-08T13:32:23Z</time>
      </trkpt>
      <trkpt lat="44.40615" lon="1.33409">
        <ele>332.3</ele>
        <time>2025-03-08T13:32:24Z</time>
      </trkpt>
      <trkpt lat="44.40617" lon="1.33405">
        <ele>332.4</ele>
        <time>2025-03-08T13:32:25Z</time>
      </trkpt>
      <trkpt lat="44.40619" lon="1.33399">
        <ele>332.5</ele>
        <time>2025-03-08T13:32:26Z</time>
      </trkpt>
      <trkpt lat="44.4062" lon="1.33394">
        <ele>332.6</ele>
        <time>2025-03-08T13:32:27Z</time>
      </trkpt>
      <trkpt lat="44.40622" lon="1.33389">
        <ele>332.8</ele>
        <time>2025-03-08T13:32:28Z</time>
      </trkpt>
      <trkpt lat="44.40624" lon="1.33385">
        <ele>332.9</ele>
        <time>2025-03-08T13:32:29Z</time>
      </trkpt>
      <trkpt lat="44.40627" lon="1.33381">
        <ele>333</ele>
        <time>2025-03-08T13:32:30Z</time>
      </trkpt>
      <trkpt lat="44.40629" lon="1.33376">
        <ele>333.2</ele>
        <time>2025-03-08T13:32:31Z</time>
      </trkpt>
      <trkpt lat="44.40631" lon="1.33371">
        <ele>333.2</ele>
        <time>2025-03-08T13:32:32Z</time>
      </trkpt>
      <trkpt lat="44.40634" lon="1.33368">
        <ele>333.3</ele>
        <time>2025-03-08T13:32:33Z</time>
      </trkpt>
      <trkpt lat="44.40637" lon="1.33363">
        <ele>333.4</ele>
        <time>2025-03-08T13:32:34Z</time>
      </trkpt>
      <trkpt lat="44.40639" lon="1.33358">
        <ele>333.4</ele>
        <time>2025-03-08T13:32:35Z</time>
      </trkpt>
      <trkpt lat="44.40641" lon="1.33352">
        <ele>333.4</ele>
        <time>2025-03-08T13:32:36Z</time>
      </trkpt>
      <trkpt lat="44.40643" lon="1.33346">
        <ele>333.3</ele>
        <time>2025-03-08T13:32:37Z</time>
      </trkpt>
      <trkpt lat="44.40645" lon="1.33342">
        <ele>333.3</ele>
        <time>2025-03-08T13:32:38Z</time>
      </trkpt>
      <trkpt lat="44.40648" lon="1.33339">
        <ele>333.5</ele>
        <time>2025-03-08T13:32:39Z</time>
      </trkpt>
      <trkpt lat="44.40652" lon="1.33338">
        <ele>333.5</ele>
        <time>2025-03-08T13:32:40Z</time>
      </trkpt>
      <trkpt lat="44.40655" lon="1.33336">
        <ele>333.6</ele>
        <time>2025-03-08T13:32:41Z</time>
      </trkpt>
      <trkpt lat="44.40659" lon="1.33336">
        <ele>333.7</ele>
        <time>2025-03-08T13:32:42Z</time>
      </trkpt>
      <trkpt lat="44.40661" lon="1.33331">
        <ele>333.7</ele>
        <time>2025-03-08T13:32:43Z</time>
      </trkpt>
      <trkpt lat="44.40661" lon="1.33323">
        <ele>333.4</ele>
        <time>2025-03-08T13:32:44Z</time>
      </trkpt>
      <trkpt lat="44.40661" lon="1.33315">
        <ele>333</ele>
        <time>2025-03-08T13:32:45Z</time>
      </trkpt>
      <trkpt lat="44.40662" lon="1.33308">
        <ele>332.6</ele>
        <time>2025-03-08T13:32:46Z</time>
      </trkpt>
      <trkpt lat="44.40665" lon="1.33304">
        <ele>332.8</ele>
        <time>2025-03-08T13:32:47Z</time>
      </trkpt>
      <trkpt lat="44.40667" lon="1.33301">
        <ele>332.8</ele>
        <time>2025-03-08T13:32:48Z</time>
      </trkpt>
      <trkpt lat="44.40669" lon="1.33297">
        <ele>332.8</ele>
        <time>2025-03-08T13:32:49Z</time>
      </trkpt>
      <trkpt lat="44.40673" lon="1.33295">
        <ele>333</ele>
        <time>2025-03-08T13:32:50Z</time>
      </trkpt>
      <trkpt lat="44.40676" lon="1.33297">
        <ele>333.2</ele>
        <time>2025-03-08T13:32:51Z</time>
      </trkpt>
      <trkpt lat="44.40679" lon="1.33299">
        <ele>333.4</ele>
        <time>2025-03-08T13:32:52Z</time>
      </trkpt>
      <trkpt lat="44.40683" lon="1.33298">
        <ele>333.6</ele>
        <time>2025-03-08T13:32:53Z</time>
      </trkpt>
      <trkpt lat="44.40686" lon="1.33294">
        <ele>333.7</ele>
        <time>2025-03-08T13:32:54Z</time>
      </trkpt>
      <trkpt lat="44.40688" lon="1.33289">
        <ele>333.8</ele>
        <time>2025-03-08T13:32:55Z</time>
      </trkpt>
      <trkpt lat="44.4069" lon="1.33286">
        <ele>333.9</ele>
        <time>2025-03-08T13:32:56Z</time>
      </trkpt>
      <trkpt lat="44.40694" lon="1.33283">
        <ele>334.1</ele>
        <time>2025-03-08T13:32:57Z</time>
      </trkpt>
      <trkpt lat="44.40698" lon="1.3328">
        <ele>334.2</ele>
        <time>2025-03-08T13:32:58Z</time>
      </trkpt>
      <trkpt lat="44.407" lon="1.33275">
        <ele>334.3</ele>
        <time>2025-03-08T13:32:59Z</time>
      </trkpt>
      <trkpt lat="44.40701" lon="1.33269">
        <ele>334.1</ele>
        <time>2025-03-08T13:33:00Z</time>
      </trkpt>
      <trkpt lat="44.40703" lon="1.33264">
        <ele>334.1</ele>
        <time>2025-03-08T13:33:01Z</time>
      </trkpt>
      <trkpt lat="44.40705" lon="1.33259">
        <ele>333.9</ele>
        <time>2025-03-08T13:33:02Z</time>
      </trkpt>
      <trkpt lat="44.40706" lon="1.33254">
        <ele>334</ele>
        <time>2025-03-08T13:33:03Z</time>
      </trkpt>
      <trkpt lat="44.40707" lon="1.33248">
        <ele>333.8</ele>
        <time>2025-03-08T13:33:04Z</time>
      </trkpt>
      <trkpt lat="44.40707" lon="1.33242">
        <ele>333.4</ele>
        <time>2025-03-08T13:33:05Z</time>
      </trkpt>
      <trkpt lat="44.40706" lon="1.33236">
        <ele>333.2</ele>
        <time>2025-03-08T13:33:06Z</time>
      </trkpt>
      <trkpt lat="44.40703" lon="1.33231">
        <ele>332.6</ele>
        <time>2025-03-08T13:33:07Z</time>
      </trkpt>
      <trkpt lat="44.40701" lon="1.33226">
        <ele>331.7</ele>
        <time>2025-03-08T13:33:08Z</time>
      </trkpt>
      <trkpt lat="44.407" lon="1.3322">
        <ele>331.4</ele>
        <time>2025-03-08T13:33:09Z</time>
      </trkpt>
      <trkpt lat="44.40702" lon="1.33214">
        <ele>330.8</ele>
        <time>2025-03-08T13:33:10Z</time>
      </trkpt>
      <trkpt lat="44.40705" lon="1.33208">
        <ele>330.9</ele>
        <time>2025-03-08T13:33:11Z</time>
      </trkpt>
      <trkpt lat="44.40707" lon="1.33203">
        <ele>331</ele>
        <time>2025-03-08T13:33:12Z</time>
      </trkpt>
      <trkpt lat="44.4071" lon="1.33197">
        <ele>331.1</ele>
        <time>2025-03-08T13:33:13Z</time>
      </trkpt>
      <trkpt lat="44.40713" lon="1.33191">
        <ele>330.8</ele>
        <time>2025-03-08T13:33:14Z</time>
      </trkpt>
      <trkpt lat="44.40715" lon="1.33185">
        <ele>330.9</ele>
        <time>2025-03-08T13:33:15Z</time>
      </trkpt>
      <trkpt lat="44.40719" lon="1.3318">
        <ele>330.9</ele>
        <time>2025-03-08T13:33:16Z</time>
      </trkpt>
      <trkpt lat="44.40722" lon="1.33177">
        <ele>330.9</ele>
        <time>2025-03-08T13:33:17Z</time>
      </trkpt>
      <trkpt lat="44.40725" lon="1.33174">
        <ele>330.9</ele>
        <time>2025-03-08T13:33:18Z</time>
      </trkpt>
      <trkpt lat="44.40728" lon="1.33171">
        <ele>331.1</ele>
        <time>2025-03-08T13:33:19Z</time>
      </trkpt>
      <trkpt lat="44.40731" lon="1.33169">
        <ele>331.1</ele>
        <time>2025-03-08T13:33:20Z</time>
      </trkpt>
      <trkpt lat="44.40733" lon="1.33166">
        <ele>331</ele>
        <time>2025-03-08T13:33:21Z</time>
      </trkpt>
      <trkpt lat="44.40736" lon="1.33163">
        <ele>331</ele>
        <time>2025-03-08T13:33:22Z</time>
      </trkpt>
      <trkpt lat="44.40738" lon="1.3316">
        <ele>331</ele>
        <time>2025-03-08T13:33:23Z</time>
      </trkpt>
      <trkpt lat="44.4074" lon="1.33158">
        <ele>330.9</ele>
        <time>2025-03-08T13:33:24Z</time>
      </trkpt>
      <trkpt lat="44.40742" lon="1.33155">
        <ele>331</ele>
        <time>2025-03-08T13:33:25Z</time>
      </trkpt>
      <trkpt lat="44.40745" lon="1.33152">
        <ele>330.8</ele>
        <time>2025-03-08T13:33:26Z</time>
      </trkpt>
      <trkpt lat="44.40745" lon="1.33151">
        <ele>330.7</ele>
        <time>2025-03-08T13:33:27Z</time>
      </trkpt>
      <trkpt lat="44.40745" lon="1.33147">
        <ele>330.4</ele>
        <time>2025-03-08T13:33:28Z</time>
      </trkpt>
      <trkpt lat="44.40742" lon="1.33141">
        <ele>330.1</ele>
        <time>2025-03-08T13:33:29Z</time>
      </trkpt>
      <trkpt lat="44.40738" lon="1.33137">
        <ele>329.5</ele>
        <time>2025-03-08T13:33:30Z</time>
      </trkpt>
      <trkpt lat="44.40734" lon="1.33132">
        <ele>329.1</ele>
        <time>2025-03-08T13:33:31Z</time>
      </trkpt>
      <trkpt lat="44.40729" lon="1.33128">
        <ele>328.3</ele>
        <time>2025-03-08T13:33:32Z</time>
      </trkpt>
      <trkpt lat="44.40723" lon="1.33123">
        <ele>327.8</ele>
        <time>2025-03-08T13:33:33Z</time>
      </trkpt>
      <trkpt lat="44.40717" lon="1.33119">
        <ele>327.2</ele>
        <time>2025-03-08T13:33:34Z</time>
      </trkpt>
      <trkpt lat="44.40711" lon="1.33115">
        <ele>326.9</ele>
        <time>2025-03-08T13:33:35Z</time>
      </trkpt>
      <trkpt lat="44.40705" lon="1.3311">
        <ele>326.1</ele>
        <time>2025-03-08T13:33:36Z</time>
      </trkpt>
      <trkpt lat="44.40699" lon="1.33106">
        <ele>325.2</ele>
        <time>2025-03-08T13:33:37Z</time>
      </trkpt>
      <trkpt lat="44.40693" lon="1.33102">
        <ele>324.6</ele>
        <time>2025-03-08T13:33:38Z</time>
      </trkpt>
      <trkpt lat="44.40688" lon="1.33097">
        <ele>324.2</ele>
        <time>2025-03-08T13:33:39Z</time>
      </trkpt>
      <trkpt lat="44.40687" lon="1.3309">
        <ele>323.8</ele>
        <time>2025-03-08T13:33:40Z</time>
      </trkpt>
      <trkpt lat="44.40687" lon="1.33082">
        <ele>323.9</ele>
        <time>2025-03-08T13:33:41Z</time>
      </trkpt>
      <trkpt lat="44.40691" lon="1.33073">
        <ele>324.1</ele>
        <time>2025-03-08T13:33:42Z</time>
      </trkpt>
      <trkpt lat="44.40697" lon="1.33064">
        <ele>324.5</ele>
        <time>2025-03-08T13:33:43Z</time>
      </trkpt>
      <trkpt lat="44.40702" lon="1.33055">
        <ele>324.6</ele>
        <time>2025-03-08T13:33:44Z</time>
      </trkpt>
      <trkpt lat="44.40706" lon="1.33046">
        <ele>324.8</ele>
        <time>2025-03-08T13:33:45Z</time>
      </trkpt>
      <trkpt lat="44.4071" lon="1.33038">
        <ele>324.9</ele>
        <time>2025-03-08T13:33:46Z</time>
      </trkpt>
      <trkpt lat="44.40716" lon="1.33033">
        <ele>325</ele>
        <time>2025-03-08T13:33:47Z</time>
      </trkpt>
      <trkpt lat="44.40722" lon="1.3303">
        <ele>325.1</ele>
        <time>2025-03-08T13:33:48Z</time>
      </trkpt>
      <trkpt lat="44.40728" lon="1.33028">
        <ele>325</ele>
        <time>2025-03-08T13:33:49Z</time>
      </trkpt>
      <trkpt lat="44.40733" lon="1.33028">
        <ele>325</ele>
        <time>2025-03-08T13:33:50Z</time>
      </trkpt>
      <trkpt lat="44.40739" lon="1.33027">
        <ele>325</ele>
        <time>2025-03-08T13:33:51Z</time>
      </trkpt>
      <trkpt lat="44.40745" lon="1.33027">
        <ele>325</ele>
        <time>2025-03-08T13:33:52Z</time>
      </trkpt>
      <trkpt lat="44.40751" lon="1.33026">
        <ele>325</ele>
        <time>2025-03-08T13:33:53Z</time>
      </trkpt>
      <trkpt lat="44.40756" lon="1.33025">
        <ele>325.1</ele>
        <time>2025-03-08T13:33:54Z</time>
      </trkpt>
      <trkpt lat="44.40762" lon="1.33025">
        <ele>325.1</ele>
        <time>2025-03-08T13:33:55Z</time>
      </trkpt>
      <trkpt lat="44.40767" lon="1.33024">
        <ele>325.2</ele>
        <time>2025-03-08T13:33:56Z</time>
      </trkpt>
      <trkpt lat="44.40773" lon="1.33023">
        <ele>325.3</ele>
        <time>2025-03-08T13:33:57Z</time>
      </trkpt>
      <trkpt lat="44.40778" lon="1.33022">
        <ele>325.4</ele>
        <time>2025-03-08T13:33:58Z</time>
      </trkpt>
      <trkpt lat="44.40784" lon="1.33021">
        <ele>325.6</ele>
        <time>2025-03-08T13:33:59Z</time>
      </trkpt>
      <trkpt lat="44.40789" lon="1.3302">
        <ele>325.7</ele>
        <time>2025-03-08T13:34:00Z</time>
      </trkpt>
      <trkpt lat="44.40795" lon="1.33019">
        <ele>325.9</ele>
        <time>2025-03-08T13:34:01Z</time>
      </trkpt>
      <trkpt lat="44.40801" lon="1.33018">
        <ele>326.2</ele>
        <time>2025-03-08T13:34:02Z</time>
      </trkpt>
      <trkpt lat="44.40806" lon="1.33018">
        <ele>326.4</ele>
        <time>2025-03-08T13:34:03Z</time>
      </trkpt>
      <trkpt lat="44.40812" lon="1.33018">
        <ele>326.5</ele>
        <time>2025-03-08T13:34:04Z</time>
      </trkpt>
      <trkpt lat="44.40818" lon="1.33019">
        <ele>326.7</ele>
        <time>2025-03-08T13:34:05Z</time>
      </trkpt>
      <trkpt lat="44.40823" lon="1.33023">
        <ele>327</ele>
        <time>2025-03-08T13:34:06Z</time>
      </trkpt>
      <trkpt lat="44.40827" lon="1.33027">
        <ele>327.1</ele>
        <time>2025-03-08T13:34:07Z</time>
      </trkpt>
      <trkpt lat="44.40831" lon="1.3303">
        <ele>327.3</ele>
        <time>2025-03-08T13:34:08Z</time>
      </trkpt>
      <trkpt lat="44.40835" lon="1.33033">
        <ele>327.3</ele>
        <time>2025-03-08T13:34:09Z</time>
      </trkpt>
      <trkpt lat="44.40838" lon="1.33035">
        <ele>327.4</ele>
        <time>2025-03-08T13:34:10Z</time>
      </trkpt>
      <trkpt lat="44.40842" lon="1.33038">
        <ele>327.5</ele>
        <time>2025-03-08T13:34:11Z</time>
      </trkpt>
      <trkpt lat="44.40845" lon="1.33042">
        <ele>327.5</ele>
        <time>2025-03-08T13:34:12Z</time>
      </trkpt>
      <trkpt lat="44.40848" lon="1.33045">
        <ele>327.6</ele>
        <time>2025-03-08T13:34:13Z</time>
      </trkpt>
      <trkpt lat="44.40851" lon="1.33048">
        <ele>327.6</ele>
        <time>2025-03-08T13:34:14Z</time>
      </trkpt>
      <trkpt lat="44.40854" lon="1.3305">
        <ele>327.7</ele>
        <time>2025-03-08T13:34:15Z</time>
      </trkpt>
      <trkpt lat="44.40857" lon="1.33052">
        <ele>327.7</ele>
        <time>2025-03-08T13:34:16Z</time>
      </trkpt>
      <trkpt lat="44.40861" lon="1.33054">
        <ele>327.8</ele>
        <time>2025-03-08T13:34:17Z</time>
      </trkpt>
      <trkpt lat="44.40864" lon="1.33057">
        <ele>327.9</ele>
        <time>2025-03-08T13:34:18Z</time>
      </trkpt>
      <trkpt lat="44.40867" lon="1.33059">
        <ele>327.9</ele>
        <time>2025-03-08T13:34:19Z</time>
      </trkpt>
      <trkpt lat="44.40871" lon="1.33062">
        <ele>327.9</ele>
        <time>2025-03-08T13:34:20Z</time>
      </trkpt>
      <trkpt lat="44.40874" lon="1.33064">
        <ele>328</ele>
        <time>2025-03-08T13:34:21Z</time>
      </trkpt>
      <trkpt lat="44.40877" lon="1.33067">
        <ele>328.1</ele>
        <time>2025-03-08T13:34:22Z</time>
      </trkpt>
      <trkpt lat="44.40881" lon="1.33069">
        <ele>328.1</ele>
        <time>2025-03-08T13:34:23Z</time>
      </trkpt>
      <trkpt lat="44.40884" lon="1.33072">
        <ele>328.1</ele>
        <time>2025-03-08T13:34:24Z</time>
      </trkpt>
      <trkpt lat="44.40888" lon="1.33075">
        <ele>328.1</ele>
        <time>2025-03-08T13:34:25Z</time>
      </trkpt>
      <trkpt lat="44.40891" lon="1.33077">
        <ele>328</ele>
        <time>2025-03-08T13:34:26Z</time>
      </trkpt>
      <trkpt lat="44.40894" lon="1.3308">
        <ele>328</ele>
        <time>2025-03-08T13:34:27Z</time>
      </trkpt>
      <trkpt lat="44.40898" lon="1.33082">
        <ele>328</ele>
        <time>2025-03-08T13:34:28Z</time>
      </trkpt>
      <trkpt lat="44.409" lon="1.33085">
        <ele>328.1</ele>
        <time>2025-03-08T13:34:29Z</time>
      </trkpt>
      <trkpt lat="44.40903" lon="1.33088">
        <ele>328.1</ele>
        <time>2025-03-08T13:34:30Z</time>
      </trkpt>
      <trkpt lat="44.40905" lon="1.33092">
        <ele>328.1</ele>
        <time>2025-03-08T13:34:31Z</time>
      </trkpt>
      <trkpt lat="44.40906" lon="1.33094">
        <ele>328.2</ele>
        <time>2025-03-08T13:34:32Z</time>
      </trkpt>
      <trkpt lat="44.40906" lon="1.33098">
        <ele>328.2</ele>
        <time>2025-03-08T13:34:33Z</time>
      </trkpt>
      <trkpt lat="44.40906" lon="1.331">
        <ele>328.2</ele>
        <time>2025-03-08T13:34:34Z</time>
      </trkpt>
      <trkpt lat="44.40903" lon="1.33104">
        <ele>328.3</ele>
        <time>2025-03-08T13:34:35Z</time>
      </trkpt>
      <trkpt lat="44.40903" lon="1.33106">
        <ele>328.3</ele>
        <time>2025-03-08T13:34:36Z</time>
      </trkpt>
      <trkpt lat="44.40901" lon="1.33109">
        <ele>328.4</ele>
        <time>2025-03-08T13:34:37Z</time>
      </trkpt>
      <trkpt lat="44.40899" lon="1.33112">
        <ele>328.6</ele>
        <time>2025-03-08T13:34:38Z</time>
      </trkpt>
      <trkpt lat="44.40897" lon="1.33115">
        <ele>328.7</ele>
        <time>2025-03-08T13:34:39Z</time>
      </trkpt>
      <trkpt lat="44.40895" lon="1.33118">
        <ele>328.7</ele>
        <time>2025-03-08T13:34:40Z</time>
      </trkpt>
      <trkpt lat="44.40893" lon="1.33123">
        <ele>328.9</ele>
        <time>2025-03-08T13:34:41Z</time>
      </trkpt>
      <trkpt lat="44.40892" lon="1.33124">
        <ele>329.1</ele>
        <time>2025-03-08T13:34:42Z</time>
      </trkpt>
      <trkpt lat="44.4089" lon="1.33127">
        <ele>329.1</ele>
        <time>2025-03-08T13:34:43Z</time>
      </trkpt>
      <trkpt lat="44.40888" lon="1.3313">
        <ele>329.3</ele>
        <time>2025-03-08T13:34:44Z</time>
      </trkpt>
      <trkpt lat="44.40886" lon="1.33134">
        <ele>329.5</ele>
        <time>2025-03-08T13:34:45Z</time>
      </trkpt>
      <trkpt lat="44.40885" lon="1.33137">
        <ele>329.7</ele>
        <time>2025-03-08T13:34:46Z</time>
      </trkpt>
      <trkpt lat="44.40883" lon="1.33141">
        <ele>330</ele>
        <time>2025-03-08T13:34:47Z</time>
      </trkpt>
      <trkpt lat="44.40881" lon="1.33144">
        <ele>329.9</ele>
        <time>2025-03-08T13:34:48Z</time>
      </trkpt>
      <trkpt lat="44.40879" lon="1.33147">
        <ele>330.2</ele>
        <time>2025-03-08T13:34:49Z</time>
      </trkpt>
      <trkpt lat="44.40877" lon="1.3315">
        <ele>330.3</ele>
        <time>2025-03-08T13:34:50Z</time>
      </trkpt>
      <trkpt lat="44.40875" lon="1.33154">
        <ele>330.5</ele>
        <time>2025-03-08T13:34:51Z</time>
      </trkpt>
      <trkpt lat="44.40873" lon="1.33157">
        <ele>330.5</ele>
        <time>2025-03-08T13:34:52Z</time>
      </trkpt>
      <trkpt lat="44.40872" lon="1.3316">
        <ele>330.6</ele>
        <time>2025-03-08T13:34:53Z</time>
      </trkpt>
      <trkpt lat="44.4087" lon="1.33164">
        <ele>330.8</ele>
        <time>2025-03-08T13:34:54Z</time>
      </trkpt>
      <trkpt lat="44.40868" lon="1.33167">
        <ele>330.8</ele>
        <time>2025-03-08T13:34:55Z</time>
      </trkpt>
      <trkpt lat="44.40867" lon="1.33171">
        <ele>330.9</ele>
        <time>2025-03-08T13:34:56Z</time>
      </trkpt>
      <trkpt lat="44.40866" lon="1.33174">
        <ele>330.9</ele>
        <time>2025-03-08T13:34:57Z</time>
      </trkpt>
      <trkpt lat="44.40865" lon="1.33178">
        <ele>330.9</ele>
        <time>2025-03-08T13:34:58Z</time>
      </trkpt>
      <trkpt lat="44.40864" lon="1.33182">
        <ele>331.1</ele>
        <time>2025-03-08T13:34:59Z</time>
      </trkpt>
      <trkpt lat="44.40864" lon="1.33186">
        <ele>331.1</ele>
        <time>2025-03-08T13:35:00Z</time>
      </trkpt>
      <trkpt lat="44.40865" lon="1.3319">
        <ele>331.1</ele>
        <time>2025-03-08T13:35:01Z</time>
      </trkpt>
      <trkpt lat="44.40865" lon="1.33194">
        <ele>331</ele>
        <time>2025-03-08T13:35:02Z</time>
      </trkpt>
      <trkpt lat="44.40865" lon="1.33198">
        <ele>331</ele>
        <time>2025-03-08T13:35:03Z</time>
      </trkpt>
      <trkpt lat="44.40865" lon="1.33203">
        <ele>331</ele>
        <time>2025-03-08T13:35:04Z</time>
      </trkpt>
      <trkpt lat="44.40865" lon="1.33205">
        <ele>331</ele>
        <time>2025-03-08T13:35:05Z</time>
      </trkpt>
      <trkpt lat="44.40864" lon="1.33211">
        <ele>331.1</ele>
        <time>2025-03-08T13:35:06Z</time>
      </trkpt>
      <trkpt lat="44.40864" lon="1.33212">
        <ele>331.1</ele>
        <time>2025-03-08T13:35:07Z</time>
      </trkpt>
      <trkpt lat="44.40863" lon="1.33218">
        <ele>331.1</ele>
        <time>2025-03-08T13:35:08Z</time>
      </trkpt>
      <trkpt lat="44.40863" lon="1.33219">
        <ele>331.2</ele>
        <time>2025-03-08T13:35:09Z</time>
      </trkpt>
      <trkpt lat="44.40861" lon="1.33223">
        <ele>331.3</ele>
        <time>2025-03-08T13:35:10Z</time>
      </trkpt>
      <trkpt lat="44.4086" lon="1.33224">
        <ele>331.3</ele>
        <time>2025-03-08T13:35:11Z</time>
      </trkpt>
      <trkpt lat="44.40859" lon="1.33228">
        <ele>331.4</ele>
        <time>2025-03-08T13:35:12Z</time>
      </trkpt>
      <trkpt lat="44.40859" lon="1.33231">
        <ele>331.5</ele>
        <time>2025-03-08T13:35:13Z</time>
      </trkpt>
      <trkpt lat="44.40862" lon="1.33236">
        <ele>331.5</ele>
        <time>2025-03-08T13:35:14Z</time>
      </trkpt>
      <trkpt lat="44.40865" lon="1.33239">
        <ele>331.4</ele>
        <time>2025-03-08T13:35:15Z</time>
      </trkpt>
      <trkpt lat="44.40867" lon="1.33242">
        <ele>331.5</ele>
        <time>2025-03-08T13:35:16Z</time>
      </trkpt>
      <trkpt lat="44.40868" lon="1.33247">
        <ele>331.5</ele>
        <time>2025-03-08T13:35:17Z</time>
      </trkpt>
      <trkpt lat="44.40871" lon="1.33252">
        <ele>331.8</ele>
        <time>2025-03-08T13:35:18Z</time>
      </trkpt>
      <trkpt lat="44.40875" lon="1.33256">
        <ele>331.6</ele>
        <time>2025-03-08T13:35:19Z</time>
      </trkpt>
      <trkpt lat="44.4088" lon="1.33259">
        <ele>331.6</ele>
        <time>2025-03-08T13:35:20Z</time>
      </trkpt>
      <trkpt lat="44.40885" lon="1.33263">
        <ele>331.5</ele>
        <time>2025-03-08T13:35:21Z</time>
      </trkpt>
      <trkpt lat="44.40891" lon="1.33265">
        <ele>331.1</ele>
        <time>2025-03-08T13:35:22Z</time>
      </trkpt>
      <trkpt lat="44.40896" lon="1.33266">
        <ele>330.6</ele>
        <time>2025-03-08T13:35:23Z</time>
      </trkpt>
      <trkpt lat="44.40901" lon="1.33267">
        <ele>330.3</ele>
        <time>2025-03-08T13:35:24Z</time>
      </trkpt>
      <trkpt lat="44.40908" lon="1.33269">
        <ele>329.3</ele>
        <time>2025-03-08T13:35:25Z</time>
      </trkpt>
      <trkpt lat="44.40914" lon="1.33267">
        <ele>328.4</ele>
        <time>2025-03-08T13:35:26Z</time>
      </trkpt>
      <trkpt lat="44.40921" lon="1.33265">
        <ele>327.6</ele>
        <time>2025-03-08T13:35:27Z</time>
      </trkpt>
      <trkpt lat="44.40928" lon="1.33263">
        <ele>326.8</ele>
        <time>2025-03-08T13:35:28Z</time>
      </trkpt>
      <trkpt lat="44.40935" lon="1.33261">
        <ele>326.1</ele>
        <time>2025-03-08T13:35:29Z</time>
      </trkpt>
      <trkpt lat="44.40942" lon="1.33259">
        <ele>325.3</ele>
        <time>2025-03-08T13:35:30Z</time>
      </trkpt>
      <trkpt lat="44.40948" lon="1.33256">
        <ele>324.9</ele>
        <time>2025-03-08T13:35:31Z</time>
      </trkpt>
      <trkpt lat="44.40954" lon="1.33252">
        <ele>324.4</ele>
        <time>2025-03-08T13:35:32Z</time>
      </trkpt>
      <trkpt lat="44.40959" lon="1.33248">
        <ele>324.1</ele>
        <time>2025-03-08T13:35:33Z</time>
      </trkpt>
      <trkpt lat="44.40964" lon="1.33245">
        <ele>323.6</ele>
        <time>2025-03-08T13:35:34Z</time>
      </trkpt>
      <trkpt lat="44.40968" lon="1.33243">
        <ele>323.3</ele>
        <time>2025-03-08T13:35:35Z</time>
      </trkpt>
      <trkpt lat="44.40971" lon="1.33243">
        <ele>322.9</ele>
        <time>2025-03-08T13:35:36Z</time>
      </trkpt>
      <trkpt lat="44.40974" lon="1.33241">
        <ele>322.4</ele>
        <time>2025-03-08T13:35:37Z</time>
      </trkpt>
      <trkpt lat="44.40976" lon="1.33238">
        <ele>321.9</ele>
        <time>2025-03-08T13:35:38Z</time>
      </trkpt>
      <trkpt lat="44.40979" lon="1.33236">
        <ele>321.4</ele>
        <time>2025-03-08T13:35:39Z</time>
      </trkpt>
      <trkpt lat="44.40982" lon="1.33234">
        <ele>320.8</ele>
        <time>2025-03-08T13:35:40Z</time>
      </trkpt>
      <trkpt lat="44.40985" lon="1.33232">
        <ele>320.3</ele>
        <time>2025-03-08T13:35:41Z</time>
      </trkpt>
      <trkpt lat="44.40986" lon="1.33231">
        <ele>320.3</ele>
        <time>2025-03-08T13:35:42Z</time>
      </trkpt>
      <trkpt lat="44.4099" lon="1.3323">
        <ele>319.7</ele>
        <time>2025-03-08T13:35:43Z</time>
      </trkpt>
      <trkpt lat="44.40995" lon="1.3323">
        <ele>318.5</ele>
        <time>2025-03-08T13:35:44Z</time>
      </trkpt>
      <trkpt lat="44.41" lon="1.33229">
        <ele>317.2</ele>
        <time>2025-03-08T13:35:45Z</time>
      </trkpt>
      <trkpt lat="44.41005" lon="1.33228">
        <ele>316.5</ele>
        <time>2025-03-08T13:35:46Z</time>
      </trkpt>
      <trkpt lat="44.41009" lon="1.33227">
        <ele>315.1</ele>
        <time>2025-03-08T13:35:47Z</time>
      </trkpt>
      <trkpt lat="44.41012" lon="1.33229">
        <ele>314.5</ele>
        <time>2025-03-08T13:35:48Z</time>
      </trkpt>
      <trkpt lat="44.41014" lon="1.3323">
        <ele>314.5</ele>
        <time>2025-03-08T13:35:49Z</time>
      </trkpt>
      <trkpt lat="44.41017" lon="1.33231">
        <ele>313.9</ele>
        <time>2025-03-08T13:35:50Z</time>
      </trkpt>
      <trkpt lat="44.41018" lon="1.33231">
        <ele>313.2</ele>
        <time>2025-03-08T13:35:51Z</time>
      </trkpt>
      <trkpt lat="44.41022" lon="1.3323">
        <ele>312.6</ele>
        <time>2025-03-08T13:35:52Z</time>
      </trkpt>
      <trkpt lat="44.41025" lon="1.33227">
        <ele>311.6</ele>
        <time>2025-03-08T13:35:53Z</time>
      </trkpt>
      <trkpt lat="44.41026" lon="1.33226">
        <ele>311.6</ele>
        <time>2025-03-08T13:35:54Z</time>
      </trkpt>
      <trkpt lat="44.41028" lon="1.33221">
        <ele>311.1</ele>
        <time>2025-03-08T13:35:55Z</time>
      </trkpt>
      <trkpt lat="44.41028" lon="1.33219">
        <ele>311.1</ele>
        <time>2025-03-08T13:35:56Z</time>
      </trkpt>
      <trkpt lat="44.41032" lon="1.33218">
        <ele>310.6</ele>
        <time>2025-03-08T13:35:57Z</time>
      </trkpt>
      <trkpt lat="44.41035" lon="1.33216">
        <ele>310.3</ele>
        <time>2025-03-08T13:35:58Z</time>
      </trkpt>
      <trkpt lat="44.41038" lon="1.33214">
        <ele>310</ele>
        <time>2025-03-08T13:35:59Z</time>
      </trkpt>
      <trkpt lat="44.4104" lon="1.33212">
        <ele>309.8</ele>
        <time>2025-03-08T13:36:00Z</time>
      </trkpt>
      <trkpt lat="44.41043" lon="1.33209">
        <ele>309.8</ele>
        <time>2025-03-08T13:36:01Z</time>
      </trkpt>
      <trkpt lat="44.41047" lon="1.33206">
        <ele>309.7</ele>
        <time>2025-03-08T13:36:02Z</time>
      </trkpt>
      <trkpt lat="44.41051" lon="1.33204">
        <ele>309.8</ele>
        <time>2025-03-08T13:36:03Z</time>
      </trkpt>
      <trkpt lat="44.41056" lon="1.33202">
        <ele>309.6</ele>
        <time>2025-03-08T13:36:04Z</time>
      </trkpt>
      <trkpt lat="44.41061" lon="1.33202">
        <ele>309.5</ele>
        <time>2025-03-08T13:36:05Z</time>
      </trkpt>
      <trkpt lat="44.41066" lon="1.33202">
        <ele>309.4</ele>
        <time>2025-03-08T13:36:06Z</time>
      </trkpt>
      <trkpt lat="44.41071" lon="1.33201">
        <ele>309.7</ele>
        <time>2025-03-08T13:36:07Z</time>
      </trkpt>
      <trkpt lat="44.41075" lon="1.33198">
        <ele>309.6</ele>
        <time>2025-03-08T13:36:08Z</time>
      </trkpt>
      <trkpt lat="44.41078" lon="1.33195">
        <ele>309.8</ele>
        <time>2025-03-08T13:36:09Z</time>
      </trkpt>
      <trkpt lat="44.41081" lon="1.33192">
        <ele>309.9</ele>
        <time>2025-03-08T13:36:10Z</time>
      </trkpt>
      <trkpt lat="44.41084" lon="1.33189">
        <ele>309.6</ele>
        <time>2025-03-08T13:36:11Z</time>
      </trkpt>
      <trkpt lat="44.41086" lon="1.33188">
        <ele>309.2</ele>
        <time>2025-03-08T13:36:12Z</time>
      </trkpt>
      <trkpt lat="44.41089" lon="1.33186">
        <ele>309.1</ele>
        <time>2025-03-08T13:36:13Z</time>
      </trkpt>
      <trkpt lat="44.41092" lon="1.33183">
        <ele>308.8</ele>
        <time>2025-03-08T13:36:14Z</time>
      </trkpt>
      <trkpt lat="44.41094" lon="1.3318">
        <ele>308.8</ele>
        <time>2025-03-08T13:36:15Z</time>
      </trkpt>
      <trkpt lat="44.41097" lon="1.33178">
        <ele>308.5</ele>
        <time>2025-03-08T13:36:16Z</time>
      </trkpt>
      <trkpt lat="44.411" lon="1.33177">
        <ele>307.9</ele>
        <time>2025-03-08T13:36:17Z</time>
      </trkpt>
      <trkpt lat="44.41103" lon="1.33175">
        <ele>307.4</ele>
        <time>2025-03-08T13:36:18Z</time>
      </trkpt>
      <trkpt lat="44.41105" lon="1.33171">
        <ele>306.8</ele>
        <time>2025-03-08T13:36:19Z</time>
      </trkpt>
      <trkpt lat="44.41106" lon="1.3317">
        <ele>306.8</ele>
        <time>2025-03-08T13:36:20Z</time>
      </trkpt>
      <trkpt lat="44.41109" lon="1.33167">
        <ele>306.1</ele>
        <time>2025-03-08T13:36:21Z</time>
      </trkpt>
      <trkpt lat="44.41112" lon="1.33164">
        <ele>305.4</ele>
        <time>2025-03-08T13:36:22Z</time>
      </trkpt>
      <trkpt lat="44.41113" lon="1.33163">
        <ele>305.4</ele>
        <time>2025-03-08T13:36:23Z</time>
      </trkpt>
      <trkpt lat="44.41115" lon="1.3316">
        <ele>304.8</ele>
        <time>2025-03-08T13:36:24Z</time>
      </trkpt>
      <trkpt lat="44.41118" lon="1.33157">
        <ele>304.3</ele>
        <time>2025-03-08T13:36:25Z</time>
      </trkpt>
      <trkpt lat="44.41121" lon="1.33156">
        <ele>303.6</ele>
        <time>2025-03-08T13:36:26Z</time>
      </trkpt>
      <trkpt lat="44.41126" lon="1.33157">
        <ele>302.4</ele>
        <time>2025-03-08T13:36:27Z</time>
      </trkpt>
      <trkpt lat="44.4113" lon="1.33158">
        <ele>301.6</ele>
        <time>2025-03-08T13:36:28Z</time>
      </trkpt>
      <trkpt lat="44.41134" lon="1.33157">
        <ele>301.2</ele>
        <time>2025-03-08T13:36:29Z</time>
      </trkpt>
      <trkpt lat="44.41139" lon="1.33155">
        <ele>300.2</ele>
        <time>2025-03-08T13:36:30Z</time>
      </trkpt>
      <trkpt lat="44.41143" lon="1.33153">
        <ele>300.1</ele>
        <time>2025-03-08T13:36:31Z</time>
      </trkpt>
      <trkpt lat="44.41147" lon="1.33152">
        <ele>299.4</ele>
        <time>2025-03-08T13:36:32Z</time>
      </trkpt>
      <trkpt lat="44.41151" lon="1.33151">
        <ele>299.1</ele>
        <time>2025-03-08T13:36:33Z</time>
      </trkpt>
      <trkpt lat="44.41155" lon="1.33151">
        <ele>298.9</ele>
        <time>2025-03-08T13:36:34Z</time>
      </trkpt>
      <trkpt lat="44.4116" lon="1.3315">
        <ele>298.5</ele>
        <time>2025-03-08T13:36:35Z</time>
      </trkpt>
      <trkpt lat="44.41165" lon="1.33147">
        <ele>298.5</ele>
        <time>2025-03-08T13:36:36Z</time>
      </trkpt>
      <trkpt lat="44.41169" lon="1.33146">
        <ele>298.5</ele>
        <time>2025-03-08T13:36:37Z</time>
      </trkpt>
      <trkpt lat="44.41171" lon="1.33148">
        <ele>298.5</ele>
        <time>2025-03-08T13:36:38Z</time>
      </trkpt>
      <trkpt lat="44.41175" lon="1.33152">
        <ele>298.3</ele>
        <time>2025-03-08T13:36:39Z</time>
      </trkpt>
      <trkpt lat="44.41178" lon="1.33151">
        <ele>298.4</ele>
        <time>2025-03-08T13:36:40Z</time>
      </trkpt>
      <trkpt lat="44.41181" lon="1.33149">
        <ele>298.8</ele>
        <time>2025-03-08T13:36:41Z</time>
      </trkpt>
      <trkpt lat="44.41186" lon="1.33148">
        <ele>299</ele>
        <time>2025-03-08T13:36:42Z</time>
      </trkpt>
      <trkpt lat="44.4119" lon="1.33149">
        <ele>299.4</ele>
        <time>2025-03-08T13:36:43Z</time>
      </trkpt>
      <trkpt lat="44.41194" lon="1.3315">
        <ele>299.5</ele>
        <time>2025-03-08T13:36:44Z</time>
      </trkpt>
      <trkpt lat="44.41197" lon="1.33152">
        <ele>299.7</ele>
        <time>2025-03-08T13:36:45Z</time>
      </trkpt>
      <trkpt lat="44.412" lon="1.33152">
        <ele>299.9</ele>
        <time>2025-03-08T13:36:46Z</time>
      </trkpt>
      <trkpt lat="44.41204" lon="1.3315">
        <ele>300.1</ele>
        <time>2025-03-08T13:36:47Z</time>
      </trkpt>
      <trkpt lat="44.41208" lon="1.33148">
        <ele>300.5</ele>
        <time>2025-03-08T13:36:48Z</time>
      </trkpt>
      <trkpt lat="44.41212" lon="1.33149">
        <ele>300.8</ele>
        <time>2025-03-08T13:36:49Z</time>
      </trkpt>
      <trkpt lat="44.41216" lon="1.3315">
        <ele>300.6</ele>
        <time>2025-03-08T13:36:50Z</time>
      </trkpt>
      <trkpt lat="44.41221" lon="1.33151">
        <ele>300.5</ele>
        <time>2025-03-08T13:36:51Z</time>
      </trkpt>
      <trkpt lat="44.41225" lon="1.33151">
        <ele>300.4</ele>
        <time>2025-03-08T13:36:52Z</time>
      </trkpt>
      <trkpt lat="44.41229" lon="1.33152">
        <ele>300.3</ele>
        <time>2025-03-08T13:36:53Z</time>
      </trkpt>
      <trkpt lat="44.41232" lon="1.33153">
        <ele>300.2</ele>
        <time>2025-03-08T13:36:54Z</time>
      </trkpt>
      <trkpt lat="44.41235" lon="1.33155">
        <ele>299.7</ele>
        <time>2025-03-08T13:36:55Z</time>
      </trkpt>
      <trkpt lat="44.41239" lon="1.33156">
        <ele>299.3</ele>
        <time>2025-03-08T13:36:56Z</time>
      </trkpt>
      <trkpt lat="44.41243" lon="1.33155">
        <ele>299.1</ele>
        <time>2025-03-08T13:36:57Z</time>
      </trkpt>
      <trkpt lat="44.41247" lon="1.33154">
        <ele>298.8</ele>
        <time>2025-03-08T13:36:58Z</time>
      </trkpt>
      <trkpt lat="44.41252" lon="1.33153">
        <ele>298.8</ele>
        <time>2025-03-08T13:36:59Z</time>
      </trkpt>
      <trkpt lat="44.41255" lon="1.3315">
        <ele>298.5</ele>
        <time>2025-03-08T13:37:00Z</time>
      </trkpt>
      <trkpt lat="44.41258" lon="1.33147">
        <ele>298.7</ele>
        <time>2025-03-08T13:37:01Z</time>
      </trkpt>
      <trkpt lat="44.41261" lon="1.33143">
        <ele>298.8</ele>
        <time>2025-03-08T13:37:02Z</time>
      </trkpt>
      <trkpt lat="44.41264" lon="1.3314">
        <ele>299</ele>
        <time>2025-03-08T13:37:03Z</time>
      </trkpt>
      <trkpt lat="44.41268" lon="1.33138">
        <ele>298.7</ele>
        <time>2025-03-08T13:37:04Z</time>
      </trkpt>
      <trkpt lat="44.41273" lon="1.33138">
        <ele>298.1</ele>
        <time>2025-03-08T13:37:05Z</time>
      </trkpt>
      <trkpt lat="44.41278" lon="1.3314">
        <ele>297.8</ele>
        <time>2025-03-08T13:37:06Z</time>
      </trkpt>
      <trkpt lat="44.41282" lon="1.33143">
        <ele>296.6</ele>
        <time>2025-03-08T13:37:07Z</time>
      </trkpt>
      <trkpt lat="44.41286" lon="1.33146">
        <ele>295.7</ele>
        <time>2025-03-08T13:37:08Z</time>
      </trkpt>
      <trkpt lat="44.41291" lon="1.33146">
        <ele>295.3</ele>
        <time>2025-03-08T13:37:09Z</time>
      </trkpt>
      <trkpt lat="44.41295" lon="1.33146">
        <ele>294.4</ele>
        <time>2025-03-08T13:37:10Z</time>
      </trkpt>
      <trkpt lat="44.413" lon="1.33149">
        <ele>294</ele>
        <time>2025-03-08T13:37:11Z</time>
      </trkpt>
      <trkpt lat="44.41305" lon="1.33151">
        <ele>292.5</ele>
        <time>2025-03-08T13:37:12Z</time>
      </trkpt>
      <trkpt lat="44.41309" lon="1.3315">
        <ele>291.9</ele>
        <time>2025-03-08T13:37:13Z</time>
      </trkpt>
      <trkpt lat="44.41313" lon="1.33148">
        <ele>291.2</ele>
        <time>2025-03-08T13:37:14Z</time>
      </trkpt>
      <trkpt lat="44.41317" lon="1.33145">
        <ele>290.7</ele>
        <time>2025-03-08T13:37:15Z</time>
      </trkpt>
      <trkpt lat="44.4132" lon="1.33144">
        <ele>290.6</ele>
        <time>2025-03-08T13:37:16Z</time>
      </trkpt>
      <trkpt lat="44.41323" lon="1.33146">
        <ele>289.8</ele>
        <time>2025-03-08T13:37:17Z</time>
      </trkpt>
      <trkpt lat="44.41327" lon="1.33148">
        <ele>289.3</ele>
        <time>2025-03-08T13:37:18Z</time>
      </trkpt>
      <trkpt lat="44.41331" lon="1.3315">
        <ele>288</ele>
        <time>2025-03-08T13:37:19Z</time>
      </trkpt>
      <trkpt lat="44.41336" lon="1.33151">
        <ele>287.5</ele>
        <time>2025-03-08T13:37:20Z</time>
      </trkpt>
      <trkpt lat="44.41341" lon="1.3315">
        <ele>286.8</ele>
        <time>2025-03-08T13:37:21Z</time>
      </trkpt>
      <trkpt lat="44.41344" lon="1.3315">
        <ele>286.4</ele>
        <time>2025-03-08T13:37:22Z</time>
      </trkpt>
      <trkpt lat="44.41347" lon="1.3315">
        <ele>286.1</ele>
        <time>2025-03-08T13:37:23Z</time>
      </trkpt>
      <trkpt lat="44.41349" lon="1.33151">
        <ele>286.1</ele>
        <time>2025-03-08T13:37:24Z</time>
      </trkpt>
      <trkpt lat="44.41349" lon="1.33154">
        <ele>285.5</ele>
        <time>2025-03-08T13:37:25Z</time>
      </trkpt>
      <trkpt lat="44.4135" lon="1.33159">
        <ele>285.3</ele>
        <time>2025-03-08T13:37:26Z</time>
      </trkpt>
      <trkpt lat="44.41352" lon="1.33163">
        <ele>284.8</ele>
        <time>2025-03-08T13:37:27Z</time>
      </trkpt>
      <trkpt lat="44.41356" lon="1.33167">
        <ele>284.3</ele>
        <time>2025-03-08T13:37:28Z</time>
      </trkpt>
      <trkpt lat="44.41361" lon="1.3317">
        <ele>284.1</ele>
        <time>2025-03-08T13:37:29Z</time>
      </trkpt>
      <trkpt lat="44.41368" lon="1.33173">
        <ele>283.2</ele>
        <time>2025-03-08T13:37:30Z</time>
      </trkpt>
      <trkpt lat="44.41373" lon="1.33175">
        <ele>282.9</ele>
        <time>2025-03-08T13:37:31Z</time>
      </trkpt>
      <trkpt lat="44.41379" lon="1.33178">
        <ele>282.6</ele>
        <time>2025-03-08T13:37:32Z</time>
      </trkpt>
      <trkpt lat="44.41384" lon="1.3318">
        <ele>282.1</ele>
        <time>2025-03-08T13:37:33Z</time>
      </trkpt>
      <trkpt lat="44.41389" lon="1.33182">
        <ele>281.8</ele>
        <time>2025-03-08T13:37:34Z</time>
      </trkpt>
      <trkpt lat="44.41394" lon="1.33183">
        <ele>281.7</ele>
        <time>2025-03-08T13:37:35Z</time>
      </trkpt>
      <trkpt lat="44.41398" lon="1.33182">
        <ele>281.6</ele>
        <time>2025-03-08T13:37:36Z</time>
      </trkpt>
      <trkpt lat="44.41401" lon="1.33182">
        <ele>281.5</ele>
        <time>2025-03-08T13:37:37Z</time>
      </trkpt>
      <trkpt lat="44.41402" lon="1.33183">
        <ele>281.4</ele>
        <time>2025-03-08T13:37:38Z</time>
      </trkpt>
      <trkpt lat="44.41405" lon="1.33186">
        <ele>281.3</ele>
        <time>2025-03-08T13:37:39Z</time>
      </trkpt>
      <trkpt lat="44.41409" lon="1.33188">
        <ele>281.2</ele>
        <time>2025-03-08T13:37:40Z</time>
      </trkpt>
      <trkpt lat="44.41412" lon="1.33189">
        <ele>281</ele>
        <time>2025-03-08T13:37:41Z</time>
      </trkpt>
      <trkpt lat="44.41415" lon="1.33192">
        <ele>281</ele>
        <time>2025-03-08T13:37:42Z</time>
      </trkpt>
      <trkpt lat="44.41418" lon="1.33195">
        <ele>280.8</ele>
        <time>2025-03-08T13:37:43Z</time>
      </trkpt>
      <trkpt lat="44.41422" lon="1.33198">
        <ele>280.6</ele>
        <time>2025-03-08T13:37:44Z</time>
      </trkpt>
      <trkpt lat="44.41426" lon="1.33201">
        <ele>280.5</ele>
        <time>2025-03-08T13:37:45Z</time>
      </trkpt>
      <trkpt lat="44.41429" lon="1.33202">
        <ele>280.3</ele>
        <time>2025-03-08T13:37:46Z</time>
      </trkpt>
      <trkpt lat="44.41432" lon="1.33203">
        <ele>280.3</ele>
        <time>2025-03-08T13:37:47Z</time>
      </trkpt>
      <trkpt lat="44.41434" lon="1.33204">
        <ele>280.3</ele>
        <time>2025-03-08T13:37:48Z</time>
      </trkpt>
      <trkpt lat="44.41436" lon="1.33207">
        <ele>280.2</ele>
        <time>2025-03-08T13:37:49Z</time>
      </trkpt>
      <trkpt lat="44.41439" lon="1.33211">
        <ele>280.1</ele>
        <time>2025-03-08T13:37:50Z</time>
      </trkpt>
      <trkpt lat="44.41441" lon="1.33216">
        <ele>280</ele>
        <time>2025-03-08T13:37:51Z</time>
      </trkpt>
      <trkpt lat="44.41444" lon="1.3322">
        <ele>279.9</ele>
        <time>2025-03-08T13:37:52Z</time>
      </trkpt>
      <trkpt lat="44.41448" lon="1.33224">
        <ele>279.7</ele>
        <time>2025-03-08T13:37:53Z</time>
      </trkpt>
      <trkpt lat="44.41453" lon="1.33227">
        <ele>279.6</ele>
        <time>2025-03-08T13:37:54Z</time>
      </trkpt>
      <trkpt lat="44.41457" lon="1.3323">
        <ele>279.7</ele>
        <time>2025-03-08T13:37:55Z</time>
      </trkpt>
      <trkpt lat="44.41462" lon="1.33233">
        <ele>279.6</ele>
        <time>2025-03-08T13:37:56Z</time>
      </trkpt>
      <trkpt lat="44.41466" lon="1.33238">
        <ele>279.5</ele>
        <time>2025-03-08T13:37:57Z</time>
      </trkpt>
      <trkpt lat="44.4147" lon="1.33241">
        <ele>279.3</ele>
        <time>2025-03-08T13:37:58Z</time>
      </trkpt>
      <trkpt lat="44.41475" lon="1.33244">
        <ele>279.3</ele>
        <time>2025-03-08T13:37:59Z</time>
      </trkpt>
      <trkpt lat="44.41479" lon="1.33245">
        <ele>279.3</ele>
        <time>2025-03-08T13:38:00Z</time>
      </trkpt>
      <trkpt lat="44.41482" lon="1.33247">
        <ele>279.4</ele>
        <time>2025-03-08T13:38:01Z</time>
      </trkpt>
      <trkpt lat="44.41485" lon="1.3325">
        <ele>279.3</ele>
        <time>2025-03-08T13:38:02Z</time>
      </trkpt>
      <trkpt lat="44.41489" lon="1.33253">
        <ele>279.2</ele>
        <time>2025-03-08T13:38:03Z</time>
      </trkpt>
      <trkpt lat="44.41493" lon="1.33255">
        <ele>279.4</ele>
        <time>2025-03-08T13:38:04Z</time>
      </trkpt>
      <trkpt lat="44.41497" lon="1.33256">
        <ele>279.4</ele>
        <time>2025-03-08T13:38:05Z</time>
      </trkpt>
      <trkpt lat="44.41501" lon="1.33256">
        <ele>279.5</ele>
        <time>2025-03-08T13:38:06Z</time>
      </trkpt>
      <trkpt lat="44.41505" lon="1.33256">
        <ele>279.5</ele>
        <time>2025-03-08T13:38:07Z</time>
      </trkpt>
      <trkpt lat="44.41509" lon="1.33257">
        <ele>279.6</ele>
        <time>2025-03-08T13:38:08Z</time>
      </trkpt>
      <trkpt lat="44.41513" lon="1.33258">
        <ele>279.7</ele>
        <time>2025-03-08T13:38:09Z</time>
      </trkpt>
      <trkpt lat="44.41516" lon="1.33259">
        <ele>279.7</ele>
        <time>2025-03-08T13:38:10Z</time>
      </trkpt>
      <trkpt lat="44.41519" lon="1.33261">
        <ele>279.8</ele>
        <time>2025-03-08T13:38:11Z</time>
      </trkpt>
      <trkpt lat="44.41523" lon="1.33263">
        <ele>279.8</ele>
        <time>2025-03-08T13:38:12Z</time>
      </trkpt>
      <trkpt lat="44.41526" lon="1.33264">
        <ele>279.8</ele>
        <time>2025-03-08T13:38:13Z</time>
      </trkpt>
      <trkpt lat="44.41529" lon="1.33266">
        <ele>279.7</ele>
        <time>2025-03-08T13:38:14Z</time>
      </trkpt>
      <trkpt lat="44.41533" lon="1.33268">
        <ele>279.7</ele>
        <time>2025-03-08T13:38:15Z</time>
      </trkpt>
      <trkpt lat="44.41537" lon="1.3327">
        <ele>279.5</ele>
        <time>2025-03-08T13:38:16Z</time>
      </trkpt>
      <trkpt lat="44.4154" lon="1.3327">
        <ele>279.5</ele>
        <time>2025-03-08T13:38:17Z</time>
      </trkpt>
      <trkpt lat="44.41543" lon="1.33268">
        <ele>279.6</ele>
        <time>2025-03-08T13:38:18Z</time>
      </trkpt>
      <trkpt lat="44.41546" lon="1.33266">
        <ele>279.6</ele>
        <time>2025-03-08T13:38:19Z</time>
      </trkpt>
      <trkpt lat="44.41547" lon="1.33266">
        <ele>279.5</ele>
        <time>2025-03-08T13:38:20Z</time>
      </trkpt>
      <trkpt lat="44.41551" lon="1.33269">
        <ele>279.5</ele>
        <time>2025-03-08T13:38:21Z</time>
      </trkpt>
      <trkpt lat="44.41552" lon="1.33269">
        <ele>279.3</ele>
        <time>2025-03-08T13:38:22Z</time>
      </trkpt>
      <trkpt lat="44.41555" lon="1.33271">
        <ele>279.2</ele>
        <time>2025-03-08T13:38:23Z</time>
      </trkpt>
      <trkpt lat="44.41555" lon="1.33272">
        <ele>279.2</ele>
        <time>2025-03-08T13:38:24Z</time>
      </trkpt>
      <trkpt lat="44.41558" lon="1.33274">
        <ele>279.1</ele>
        <time>2025-03-08T13:38:25Z</time>
      </trkpt>
      <trkpt lat="44.4156" lon="1.33274">
        <ele>279</ele>
        <time>2025-03-08T13:38:26Z</time>
      </trkpt>
      <trkpt lat="44.41562" lon="1.33273">
        <ele>279</ele>
        <time>2025-03-08T13:38:27Z</time>
      </trkpt>
      <trkpt lat="44.41563" lon="1.33272">
        <ele>279</ele>
        <time>2025-03-08T13:38:28Z</time>
      </trkpt>
      <trkpt lat="44.41567" lon="1.33271">
        <ele>278.9</ele>
        <time>2025-03-08T13:38:29Z</time>
      </trkpt>
      <trkpt lat="44.41568" lon="1.3327">
        <ele>278.8</ele>
        <time>2025-03-08T13:38:30Z</time>
      </trkpt>
      <trkpt lat="44.41571" lon="1.33269">
        <ele>278.7</ele>
        <time>2025-03-08T13:38:31Z</time>
      </trkpt>
      <trkpt lat="44.41573" lon="1.33269">
        <ele>278.7</ele>
        <time>2025-03-08T13:38:32Z</time>
      </trkpt>
      <trkpt lat="44.41576" lon="1.33268">
        <ele>278.6</ele>
        <time>2025-03-08T13:38:33Z</time>
      </trkpt>
      <trkpt lat="44.41577" lon="1.33268">
        <ele>278.4</ele>
        <time>2025-03-08T13:38:34Z</time>
      </trkpt>
      <trkpt lat="44.41579" lon="1.33267">
        <ele>278.4</ele>
        <time>2025-03-08T13:38:35Z</time>
      </trkpt>
      <trkpt lat="44.4158" lon="1.33266">
        <ele>278.2</ele>
        <time>2025-03-08T13:38:36Z</time>
      </trkpt>
      <trkpt lat="44.41583" lon="1.33269">
        <ele>277.9</ele>
        <time>2025-03-08T13:38:37Z</time>
      </trkpt>
      <trkpt lat="44.41583" lon="1.33269">
        <ele>277.9</ele>
        <time>2025-03-08T13:38:38Z</time>
      </trkpt>
      <trkpt lat="44.41587" lon="1.33271">
        <ele>277.6</ele>
        <time>2025-03-08T13:38:39Z</time>
      </trkpt>
      <trkpt lat="44.41588" lon="1.33271">
        <ele>277.6</ele>
        <time>2025-03-08T13:38:40Z</time>
      </trkpt>
      <trkpt lat="44.4159" lon="1.3327">
        <ele>277.3</ele>
        <time>2025-03-08T13:38:41Z</time>
      </trkpt>
      <trkpt lat="44.41594" lon="1.33267">
        <ele>277</ele>
        <time>2025-03-08T13:38:42Z</time>
      </trkpt>
      <trkpt lat="44.41594" lon="1.33266">
        <ele>276.7</ele>
        <time>2025-03-08T13:38:43Z</time>
      </trkpt>
      <trkpt lat="44.41597" lon="1.33264">
        <ele>276.6</ele>
        <time>2025-03-08T13:38:44Z</time>
      </trkpt>
      <trkpt lat="44.41598" lon="1.33263">
        <ele>276.3</ele>
        <time>2025-03-08T13:38:45Z</time>
      </trkpt>
      <trkpt lat="44.41599" lon="1.33262">
        <ele>276.3</ele>
        <time>2025-03-08T13:38:46Z</time>
      </trkpt>
      <trkpt lat="44.416" lon="1.3326">
        <ele>276.1</ele>
        <time>2025-03-08T13:38:47Z</time>
      </trkpt>
      <trkpt lat="44.41601" lon="1.33256">
        <ele>275.6</ele>
        <time>2025-03-08T13:38:48Z</time>
      </trkpt>
      <trkpt lat="44.41601" lon="1.33254">
        <ele>275.6</ele>
        <time>2025-03-08T13:38:49Z</time>
      </trkpt>
      <trkpt lat="44.416" lon="1.3325">
        <ele>275.7</ele>
        <time>2025-03-08T13:38:50Z</time>
      </trkpt>
      <trkpt lat="44.41598" lon="1.33249">
        <ele>275.7</ele>
        <time>2025-03-08T13:38:51Z</time>
      </trkpt>
      <trkpt lat="44.41596" lon="1.33247">
        <ele>275.8</ele>
        <time>2025-03-08T13:38:52Z</time>
      </trkpt>
      <trkpt lat="44.41593" lon="1.33246">
        <ele>276.2</ele>
        <time>2025-03-08T13:38:53Z</time>
      </trkpt>
      <trkpt lat="44.41589" lon="1.33245">
        <ele>276.6</ele>
        <time>2025-03-08T13:38:54Z</time>
      </trkpt>
      <trkpt lat="44.41587" lon="1.33244">
        <ele>276.9</ele>
        <time>2025-03-08T13:38:55Z</time>
      </trkpt>
      <trkpt lat="44.41583" lon="1.33243">
        <ele>277</ele>
        <time>2025-03-08T13:38:56Z</time>
      </trkpt>
      <trkpt lat="44.4158" lon="1.33242">
        <ele>277.4</ele>
        <time>2025-03-08T13:38:57Z</time>
      </trkpt>
      <trkpt lat="44.41576" lon="1.33241">
        <ele>277.6</ele>
        <time>2025-03-08T13:38:58Z</time>
      </trkpt>
      <trkpt lat="44.41573" lon="1.33241">
        <ele>277.9</ele>
        <time>2025-03-08T13:38:59Z</time>
      </trkpt>
      <trkpt lat="44.4157" lon="1.3324">
        <ele>278.3</ele>
        <time>2025-03-08T13:39:00Z</time>
      </trkpt>
      <trkpt lat="44.41567" lon="1.33241">
        <ele>278.5</ele>
        <time>2025-03-08T13:39:01Z</time>
      </trkpt>
      <trkpt lat="44.41564" lon="1.33243">
        <ele>278.5</ele>
        <time>2025-03-08T13:39:02Z</time>
      </trkpt>
      <trkpt lat="44.41561" lon="1.33243">
        <ele>278.7</ele>
        <time>2025-03-08T13:39:03Z</time>
      </trkpt>
      <trkpt lat="44.4156" lon="1.33242">
        <ele>278.8</ele>
        <time>2025-03-08T13:39:04Z</time>
      </trkpt>
      <trkpt lat="44.41557" lon="1.3324">
        <ele>279</ele>
        <time>2025-03-08T13:39:05Z</time>
      </trkpt>
      <trkpt lat="44.41555" lon="1.33238">
        <ele>278.8</ele>
        <time>2025-03-08T13:39:06Z</time>
      </trkpt>
      <trkpt lat="44.41553" lon="1.33234">
        <ele>278.7</ele>
        <time>2025-03-08T13:39:07Z</time>
      </trkpt>
      <trkpt lat="44.4155" lon="1.33231">
        <ele>278.8</ele>
        <time>2025-03-08T13:39:08Z</time>
      </trkpt>
      <trkpt lat="44.41546" lon="1.33229">
        <ele>278.6</ele>
        <time>2025-03-08T13:39:09Z</time>
      </trkpt>
      <trkpt lat="44.41542" lon="1.33229">
        <ele>278.6</ele>
        <time>2025-03-08T13:39:10Z</time>
      </trkpt>
      <trkpt lat="44.41538" lon="1.3323">
        <ele>278.6</ele>
        <time>2025-03-08T13:39:11Z</time>
      </trkpt>
      <trkpt lat="44.41534" lon="1.3323">
        <ele>278.6</ele>
        <time>2025-03-08T13:39:12Z</time>
      </trkpt>
      <trkpt lat="44.41533" lon="1.33229">
        <ele>278.6</ele>
        <time>2025-03-08T13:39:13Z</time>
      </trkpt>
      <trkpt lat="44.4153" lon="1.33225">
        <ele>278.2</ele>
        <time>2025-03-08T13:39:14Z</time>
      </trkpt>
      <trkpt lat="44.41527" lon="1.33222">
        <ele>277.9</ele>
        <time>2025-03-08T13:39:15Z</time>
      </trkpt>
      <trkpt lat="44.41523" lon="1.33219">
        <ele>278</ele>
        <time>2025-03-08T13:39:16Z</time>
      </trkpt>
      <trkpt lat="44.41519" lon="1.33218">
        <ele>278.1</ele>
        <time>2025-03-08T13:39:17Z</time>
      </trkpt>
      <trkpt lat="44.41515" lon="1.33217">
        <ele>277.9</ele>
        <time>2025-03-08T13:39:18Z</time>
      </trkpt>
      <trkpt lat="44.41512" lon="1.33215">
        <ele>277.9</ele>
        <time>2025-03-08T13:39:19Z</time>
      </trkpt>
      <trkpt lat="44.41509" lon="1.33214">
        <ele>278</ele>
        <time>2025-03-08T13:39:20Z</time>
      </trkpt>
      <trkpt lat="44.41506" lon="1.33214">
        <ele>278</ele>
        <time>2025-03-08T13:39:21Z</time>
      </trkpt>
      <trkpt lat="44.41502" lon="1.33213">
        <ele>277.9</ele>
        <time>2025-03-08T13:39:22Z</time>
      </trkpt>
      <trkpt lat="44.41501" lon="1.33213">
        <ele>278</ele>
        <time>2025-03-08T13:39:23Z</time>
      </trkpt>
      <trkpt lat="44.41498" lon="1.3321">
        <ele>278</ele>
        <time>2025-03-08T13:39:24Z</time>
      </trkpt>
      <trkpt lat="44.41494" lon="1.33208">
        <ele>277.9</ele>
        <time>2025-03-08T13:39:25Z</time>
      </trkpt>
      <trkpt lat="44.41491" lon="1.33207">
        <ele>277.9</ele>
        <time>2025-03-08T13:39:26Z</time>
      </trkpt>
      <trkpt lat="44.41488" lon="1.33206">
        <ele>278</ele>
        <time>2025-03-08T13:39:27Z</time>
      </trkpt>
      <trkpt lat="44.41485" lon="1.33206">
        <ele>278.1</ele>
        <time>2025-03-08T13:39:28Z</time>
      </trkpt>
      <trkpt lat="44.41482" lon="1.33204">
        <ele>277.9</ele>
        <time>2025-03-08T13:39:29Z</time>
      </trkpt>
      <trkpt lat="44.41479" lon="1.33203">
        <ele>278</ele>
        <time>2025-03-08T13:39:30Z</time>
      </trkpt>
      <trkpt lat="44.41476" lon="1.33202">
        <ele>278.1</ele>
        <time>2025-03-08T13:39:31Z</time>
      </trkpt>
      <trkpt lat="44.41473" lon="1.33201">
        <ele>278.2</ele>
        <time>2025-03-08T13:39:32Z</time>
      </trkpt>
      <trkpt lat="44.4147" lon="1.332">
        <ele>278.1</ele>
        <time>2025-03-08T13:39:33Z</time>
      </trkpt>
      <trkpt lat="44.41467" lon="1.33197">
        <ele>278.2</ele>
        <time>2025-03-08T13:39:34Z</time>
      </trkpt>
      <trkpt lat="44.41465" lon="1.33196">
        <ele>278.1</ele>
        <time>2025-03-08T13:39:35Z</time>
      </trkpt>
      <trkpt lat="44.41463" lon="1.33194">
        <ele>278.1</ele>
        <time>2025-03-08T13:39:36Z</time>
      </trkpt>
      <trkpt lat="44.4146" lon="1.33192">
        <ele>278</ele>
        <time>2025-03-08T13:39:37Z</time>
      </trkpt>
      <trkpt lat="44.41457" lon="1.3319">
        <ele>278.1</ele>
        <time>2025-03-08T13:39:38Z</time>
      </trkpt>
      <trkpt lat="44.41454" lon="1.33189">
        <ele>278.3</ele>
        <time>2025-03-08T13:39:39Z</time>
      </trkpt>
      <trkpt lat="44.41451" lon="1.33188">
        <ele>278.2</ele>
        <time>2025-03-08T13:39:40Z</time>
      </trkpt>
      <trkpt lat="44.41448" lon="1.33186">
        <ele>278.4</ele>
        <time>2025-03-08T13:39:41Z</time>
      </trkpt>
      <trkpt lat="44.41445" lon="1.33185">
        <ele>278.6</ele>
        <time>2025-03-08T13:39:42Z</time>
      </trkpt>
      <trkpt lat="44.41442" lon="1.33184">
        <ele>278.7</ele>
        <time>2025-03-08T13:39:43Z</time>
      </trkpt>
      <trkpt lat="44.4144" lon="1.33183">
        <ele>278.7</ele>
        <time>2025-03-08T13:39:44Z</time>
      </trkpt>
      <trkpt lat="44.41437" lon="1.33182">
        <ele>278.9</ele>
        <time>2025-03-08T13:39:45Z</time>
      </trkpt>
      <trkpt lat="44.41434" lon="1.33181">
        <ele>279.1</ele>
        <time>2025-03-08T13:39:46Z</time>
      </trkpt>
      <trkpt lat="44.41431" lon="1.3318">
        <ele>279.2</ele>
        <time>2025-03-08T13:39:47Z</time>
      </trkpt>
      <trkpt lat="44.41428" lon="1.33178">
        <ele>279.2</ele>
        <time>2025-03-08T13:39:48Z</time>
      </trkpt>
      <trkpt lat="44.41425" lon="1.33176">
        <ele>279.3</ele>
        <time>2025-03-08T13:39:49Z</time>
      </trkpt>
      <trkpt lat="44.41422" lon="1.33174">
        <ele>279.2</ele>
        <time>2025-03-08T13:39:50Z</time>
      </trkpt>
      <trkpt lat="44.4142" lon="1.33171">
        <ele>279.2</ele>
        <time>2025-03-08T13:39:51Z</time>
      </trkpt>
      <trkpt lat="44.41417" lon="1.33169">
        <ele>279.1</ele>
        <time>2025-03-08T13:39:52Z</time>
      </trkpt>
      <trkpt lat="44.41413" lon="1.33168">
        <ele>279.4</ele>
        <time>2025-03-08T13:39:53Z</time>
      </trkpt>
      <trkpt lat="44.41412" lon="1.33167">
        <ele>279.4</ele>
        <time>2025-03-08T13:39:54Z</time>
      </trkpt>
      <trkpt lat="44.41408" lon="1.33167">
        <ele>279.6</ele>
        <time>2025-03-08T13:39:55Z</time>
      </trkpt>
      <trkpt lat="44.41405" lon="1.33166">
        <ele>279.5</ele>
        <time>2025-03-08T13:39:56Z</time>
      </trkpt>
      <trkpt lat="44.41403" lon="1.33164">
        <ele>279.6</ele>
        <time>2025-03-08T13:39:57Z</time>
      </trkpt>
      <trkpt lat="44.414" lon="1.33162">
        <ele>279.6</ele>
        <time>2025-03-08T13:39:58Z</time>
      </trkpt>
      <trkpt lat="44.41397" lon="1.33161">
        <ele>279.8</ele>
        <time>2025-03-08T13:39:59Z</time>
      </trkpt>
      <trkpt lat="44.41394" lon="1.33159">
        <ele>280.1</ele>
        <time>2025-03-08T13:40:00Z</time>
      </trkpt>
      <trkpt lat="44.41391" lon="1.33158">
        <ele>280.3</ele>
        <time>2025-03-08T13:40:01Z</time>
      </trkpt>
      <trkpt lat="44.41388" lon="1.33155">
        <ele>280.6</ele>
        <time>2025-03-08T13:40:02Z</time>
      </trkpt>
      <trkpt lat="44.41385" lon="1.33153">
        <ele>280.9</ele>
        <time>2025-03-08T13:40:03Z</time>
      </trkpt>
      <trkpt lat="44.41382" lon="1.33152">
        <ele>281.2</ele>
        <time>2025-03-08T13:40:04Z</time>
      </trkpt>
      <trkpt lat="44.41379" lon="1.33152">
        <ele>281.5</ele>
        <time>2025-03-08T13:40:05Z</time>
      </trkpt>
      <trkpt lat="44.41376" lon="1.33152">
        <ele>281.8</ele>
        <time>2025-03-08T13:40:06Z</time>
      </trkpt>
      <trkpt lat="44.41373" lon="1.3315">
        <ele>282.1</ele>
        <time>2025-03-08T13:40:07Z</time>
      </trkpt>
      <trkpt lat="44.41371" lon="1.33148">
        <ele>282.2</ele>
        <time>2025-03-08T13:40:08Z</time>
      </trkpt>
      <trkpt lat="44.41368" lon="1.33146">
        <ele>282.5</ele>
        <time>2025-03-08T13:40:09Z</time>
      </trkpt>
      <trkpt lat="44.41366" lon="1.33143">
        <ele>283</ele>
        <time>2025-03-08T13:40:10Z</time>
      </trkpt>
      <trkpt lat="44.41363" lon="1.3314">
        <ele>283.5</ele>
        <time>2025-03-08T13:40:11Z</time>
      </trkpt>
      <trkpt lat="44.41359" lon="1.33139">
        <ele>283.9</ele>
        <time>2025-03-08T13:40:12Z</time>
      </trkpt>
      <trkpt lat="44.41356" lon="1.33138">
        <ele>284.3</ele>
        <time>2025-03-08T13:40:13Z</time>
      </trkpt>
      <trkpt lat="44.41353" lon="1.33137">
        <ele>284.7</ele>
        <time>2025-03-08T13:40:14Z</time>
      </trkpt>
      <trkpt lat="44.4135" lon="1.33137">
        <ele>285.1</ele>
        <time>2025-03-08T13:40:15Z</time>
      </trkpt>
      <trkpt lat="44.41347" lon="1.33136">
        <ele>285.8</ele>
        <time>2025-03-08T13:40:16Z</time>
      </trkpt>
      <trkpt lat="44.41343" lon="1.33136">
        <ele>286.2</ele>
        <time>2025-03-08T13:40:17Z</time>
      </trkpt>
      <trkpt lat="44.41341" lon="1.33135">
        <ele>286.5</ele>
        <time>2025-03-08T13:40:18Z</time>
      </trkpt>
      <trkpt lat="44.41338" lon="1.33134">
        <ele>286.9</ele>
        <time>2025-03-08T13:40:19Z</time>
      </trkpt>
      <trkpt lat="44.41334" lon="1.33133">
        <ele>287.4</ele>
        <time>2025-03-08T13:40:20Z</time>
      </trkpt>
      <trkpt lat="44.41333" lon="1.33132">
        <ele>287.9</ele>
        <time>2025-03-08T13:40:21Z</time>
      </trkpt>
      <trkpt lat="44.4133" lon="1.33128">
        <ele>288.8</ele>
        <time>2025-03-08T13:40:22Z</time>
      </trkpt>
      <trkpt lat="44.41329" lon="1.33127">
        <ele>289.1</ele>
        <time>2025-03-08T13:40:23Z</time>
      </trkpt>
      <trkpt lat="44.41327" lon="1.33124">
        <ele>289.7</ele>
        <time>2025-03-08T13:40:24Z</time>
      </trkpt>
      <trkpt lat="44.41324" lon="1.33122">
        <ele>290.6</ele>
        <time>2025-03-08T13:40:25Z</time>
      </trkpt>
      <trkpt lat="44.4132" lon="1.33121">
        <ele>291</ele>
        <time>2025-03-08T13:40:26Z</time>
      </trkpt>
      <trkpt lat="44.41319" lon="1.3312">
        <ele>291</ele>
        <time>2025-03-08T13:40:27Z</time>
      </trkpt>
      <trkpt lat="44.41316" lon="1.33118">
        <ele>291.9</ele>
        <time>2025-03-08T13:40:28Z</time>
      </trkpt>
      <trkpt lat="44.41313" lon="1.33117">
        <ele>292.4</ele>
        <time>2025-03-08T13:40:29Z</time>
      </trkpt>
      <trkpt lat="44.41309" lon="1.3312">
        <ele>293.1</ele>
        <time>2025-03-08T13:40:30Z</time>
      </trkpt>
      <trkpt lat="44.41307" lon="1.33123">
        <ele>293.1</ele>
        <time>2025-03-08T13:40:31Z</time>
      </trkpt>
      <trkpt lat="44.41305" lon="1.33124">
        <ele>293.3</ele>
        <time>2025-03-08T13:40:32Z</time>
      </trkpt>
      <trkpt lat="44.41303" lon="1.33123">
        <ele>293.6</ele>
        <time>2025-03-08T13:40:33Z</time>
      </trkpt>
      <trkpt lat="44.413" lon="1.33119">
        <ele>294.5</ele>
        <time>2025-03-08T13:40:34Z</time>
      </trkpt>
      <trkpt lat="44.41299" lon="1.33118">
        <ele>295</ele>
        <time>2025-03-08T13:40:35Z</time>
      </trkpt>
      <trkpt lat="44.41296" lon="1.33116">
        <ele>295.5</ele>
        <time>2025-03-08T13:40:36Z</time>
      </trkpt>
      <trkpt lat="44.41295" lon="1.33116">
        <ele>295.4</ele>
        <time>2025-03-08T13:40:37Z</time>
      </trkpt>
      <trkpt lat="44.41292" lon="1.33114">
        <ele>296.2</ele>
        <time>2025-03-08T13:40:38Z</time>
      </trkpt>
      <trkpt lat="44.41291" lon="1.33113">
        <ele>296.1</ele>
        <time>2025-03-08T13:40:39Z</time>
      </trkpt>
      <trkpt lat="44.41288" lon="1.3311">
        <ele>296.8</ele>
        <time>2025-03-08T13:40:40Z</time>
      </trkpt>
      <trkpt lat="44.41287" lon="1.3311">
        <ele>297.2</ele>
        <time>2025-03-08T13:40:41Z</time>
      </trkpt>
      <trkpt lat="44.41285" lon="1.33106">
        <ele>297.5</ele>
        <time>2025-03-08T13:40:42Z</time>
      </trkpt>
      <trkpt lat="44.41284" lon="1.33105">
        <ele>297.9</ele>
        <time>2025-03-08T13:40:43Z</time>
      </trkpt>
      <trkpt lat="44.41282" lon="1.33102">
        <ele>298.2</ele>
        <time>2025-03-08T13:40:44Z</time>
      </trkpt>
      <trkpt lat="44.41281" lon="1.33101">
        <ele>298.5</ele>
        <time>2025-03-08T13:40:45Z</time>
      </trkpt>
      <trkpt lat="44.4128" lon="1.33097">
        <ele>298.8</ele>
        <time>2025-03-08T13:40:46Z</time>
      </trkpt>
      <trkpt lat="44.41279" lon="1.33095">
        <ele>298.8</ele>
        <time>2025-03-08T13:40:47Z</time>
      </trkpt>
      <trkpt lat="44.41277" lon="1.33091">
        <ele>299.5</ele>
        <time>2025-03-08T13:40:48Z</time>
      </trkpt>
      <trkpt lat="44.41274" lon="1.33088">
        <ele>300.1</ele>
        <time>2025-03-08T13:40:49Z</time>
      </trkpt>
      <trkpt lat="44.41271" lon="1.33085">
        <ele>300.4</ele>
        <time>2025-03-08T13:40:50Z</time>
      </trkpt>
      <trkpt lat="44.41268" lon="1.33083">
        <ele>300.9</ele>
        <time>2025-03-08T13:40:51Z</time>
      </trkpt>
      <trkpt lat="44.41267" lon="1.33082">
        <ele>300.9</ele>
        <time>2025-03-08T13:40:52Z</time>
      </trkpt>
      <trkpt lat="44.41264" lon="1.33077">
        <ele>301.5</ele>
        <time>2025-03-08T13:40:53Z</time>
      </trkpt>
      <trkpt lat="44.41264" lon="1.33075">
        <ele>301.7</ele>
        <time>2025-03-08T13:40:54Z</time>
      </trkpt>
      <trkpt lat="44.41261" lon="1.3307">
        <ele>302.2</ele>
        <time>2025-03-08T13:40:55Z</time>
      </trkpt>
      <trkpt lat="44.41258" lon="1.33066">
        <ele>302.7</ele>
        <time>2025-03-08T13:40:56Z</time>
      </trkpt>
      <trkpt lat="44.41255" lon="1.33061">
        <ele>303.2</ele>
        <time>2025-03-08T13:40:57Z</time>
      </trkpt>
      <trkpt lat="44.41252" lon="1.33057">
        <ele>303.6</ele>
        <time>2025-03-08T13:40:58Z</time>
      </trkpt>
      <trkpt lat="44.4125" lon="1.33054">
        <ele>304</ele>
        <time>2025-03-08T13:40:59Z</time>
      </trkpt>
      <trkpt lat="44.41247" lon="1.33051">
        <ele>304.2</ele>
        <time>2025-03-08T13:41:00Z</time>
      </trkpt>
      <trkpt lat="44.41245" lon="1.33049">
        <ele>304.3</ele>
        <time>2025-03-08T13:41:01Z</time>
      </trkpt>
      <trkpt lat="44.41243" lon="1.33044">
        <ele>304.5</ele>
        <time>2025-03-08T13:41:02Z</time>
      </trkpt>
      <trkpt lat="44.41243" lon="1.33042">
        <ele>304.6</ele>
        <time>2025-03-08T13:41:03Z</time>
      </trkpt>
      <trkpt lat="44.41241" lon="1.33037">
        <ele>304.8</ele>
        <time>2025-03-08T13:41:04Z</time>
      </trkpt>
      <trkpt lat="44.4124" lon="1.33034">
        <ele>304.8</ele>
        <time>2025-03-08T13:41:05Z</time>
      </trkpt>
      <trkpt lat="44.41238" lon="1.33029">
        <ele>304.9</ele>
        <time>2025-03-08T13:41:06Z</time>
      </trkpt>
      <trkpt lat="44.41237" lon="1.33027">
        <ele>304.9</ele>
        <time>2025-03-08T13:41:07Z</time>
      </trkpt>
      <trkpt lat="44.41236" lon="1.33023">
        <ele>304.9</ele>
        <time>2025-03-08T13:41:08Z</time>
      </trkpt>
      <trkpt lat="44.41235" lon="1.3302">
        <ele>305</ele>
        <time>2025-03-08T13:41:09Z</time>
      </trkpt>
      <trkpt lat="44.41234" lon="1.33016">
        <ele>305</ele>
        <time>2025-03-08T13:41:10Z</time>
      </trkpt>
      <trkpt lat="44.41233" lon="1.33012">
        <ele>304.9</ele>
        <time>2025-03-08T13:41:11Z</time>
      </trkpt>
      <trkpt lat="44.41233" lon="1.33008">
        <ele>304.9</ele>
        <time>2025-03-08T13:41:12Z</time>
      </trkpt>
      <trkpt lat="44.41233" lon="1.33004">
        <ele>304.9</ele>
        <time>2025-03-08T13:41:13Z</time>
      </trkpt>
      <trkpt lat="44.41233" lon="1.33">
        <ele>304.9</ele>
        <time>2025-03-08T13:41:14Z</time>
      </trkpt>
      <trkpt lat="44.41233" lon="1.32994">
        <ele>304.8</ele>
        <time>2025-03-08T13:41:15Z</time>
      </trkpt>
      <trkpt lat="44.41233" lon="1.32992">
        <ele>304.8</ele>
        <time>2025-03-08T13:41:16Z</time>
      </trkpt>
      <trkpt lat="44.41232" lon="1.32988">
        <ele>304.8</ele>
        <time>2025-03-08T13:41:17Z</time>
      </trkpt>
      <trkpt lat="44.41229" lon="1.32985">
        <ele>304.7</ele>
        <time>2025-03-08T13:41:18Z</time>
      </trkpt>
      <trkpt lat="44.41226" lon="1.32983">
        <ele>304.8</ele>
        <time>2025-03-08T13:41:19Z</time>
      </trkpt>
      <trkpt lat="44.41223" lon="1.32981">
        <ele>304.7</ele>
        <time>2025-03-08T13:41:20Z</time>
      </trkpt>
      <trkpt lat="44.41222" lon="1.3298">
        <ele>304.7</ele>
        <time>2025-03-08T13:41:21Z</time>
      </trkpt>
      <trkpt lat="44.4122" lon="1.32976">
        <ele>304.6</ele>
        <time>2025-03-08T13:41:22Z</time>
      </trkpt>
      <trkpt lat="44.4122" lon="1.32974">
        <ele>304.7</ele>
        <time>2025-03-08T13:41:23Z</time>
      </trkpt>
      <trkpt lat="44.4122" lon="1.3297">
        <ele>304.6</ele>
        <time>2025-03-08T13:41:24Z</time>
      </trkpt>
      <trkpt lat="44.4122" lon="1.32965">
        <ele>304.3</ele>
        <time>2025-03-08T13:41:25Z</time>
      </trkpt>
      <trkpt lat="44.4122" lon="1.32962">
        <ele>304.3</ele>
        <time>2025-03-08T13:41:26Z</time>
      </trkpt>
      <trkpt lat="44.41218" lon="1.32957">
        <ele>304.1</ele>
        <time>2025-03-08T13:41:27Z</time>
      </trkpt>
      <trkpt lat="44.41218" lon="1.32956">
        <ele>304</ele>
        <time>2025-03-08T13:41:28Z</time>
      </trkpt>
      <trkpt lat="44.41218" lon="1.32951">
        <ele>303.8</ele>
        <time>2025-03-08T13:41:29Z</time>
      </trkpt>
      <trkpt lat="44.41219" lon="1.32949">
        <ele>303.8</ele>
        <time>2025-03-08T13:41:30Z</time>
      </trkpt>
      <trkpt lat="44.41221" lon="1.32947">
        <ele>303.5</ele>
        <time>2025-03-08T13:41:31Z</time>
      </trkpt>
      <trkpt lat="44.41225" lon="1.32945">
        <ele>303.3</ele>
        <time>2025-03-08T13:41:32Z</time>
      </trkpt>
      <trkpt lat="44.41229" lon="1.32944">
        <ele>303.1</ele>
        <time>2025-03-08T13:41:33Z</time>
      </trkpt>
      <trkpt lat="44.41232" lon="1.32944">
        <ele>303</ele>
        <time>2025-03-08T13:41:34Z</time>
      </trkpt>
      <trkpt lat="44.41235" lon="1.32944">
        <ele>302.8</ele>
        <time>2025-03-08T13:41:35Z</time>
      </trkpt>
      <trkpt lat="44.41236" lon="1.32944">
        <ele>302.6</ele>
        <time>2025-03-08T13:41:36Z</time>
      </trkpt>
      <trkpt lat="44.4124" lon="1.32944">
        <ele>302.4</ele>
        <time>2025-03-08T13:41:37Z</time>
      </trkpt>
      <trkpt lat="44.41241" lon="1.32944">
        <ele>302.4</ele>
        <time>2025-03-08T13:41:38Z</time>
      </trkpt>
      <trkpt lat="44.41245" lon="1.32946">
        <ele>302.1</ele>
        <time>2025-03-08T13:41:39Z</time>
      </trkpt>
      <trkpt lat="44.41246" lon="1.32948">
        <ele>302.2</ele>
        <time>2025-03-08T13:41:40Z</time>
      </trkpt>
      <trkpt lat="44.41249" lon="1.32951">
        <ele>302</ele>
        <time>2025-03-08T13:41:41Z</time>
      </trkpt>
      <trkpt lat="44.41254" lon="1.32953">
        <ele>302</ele>
        <time>2025-03-08T13:41:42Z</time>
      </trkpt>
      <trkpt lat="44.41259" lon="1.32953">
        <ele>301.7</ele>
        <time>2025-03-08T13:41:43Z</time>
      </trkpt>
      <trkpt lat="44.41263" lon="1.32952">
        <ele>301.4</ele>
        <time>2025-03-08T13:41:44Z</time>
      </trkpt>
      <trkpt lat="44.41266" lon="1.3295">
        <ele>301.3</ele>
        <time>2025-03-08T13:41:45Z</time>
      </trkpt>
      <trkpt lat="44.41269" lon="1.3295">
        <ele>301.2</ele>
        <time>2025-03-08T13:41:46Z</time>
      </trkpt>
      <trkpt lat="44.4127" lon="1.3295">
        <ele>301.1</ele>
        <time>2025-03-08T13:41:47Z</time>
      </trkpt>
      <trkpt lat="44.41273" lon="1.32952">
        <ele>301</ele>
        <time>2025-03-08T13:41:48Z</time>
      </trkpt>
      <trkpt lat="44.41275" lon="1.32952">
        <ele>301.2</ele>
        <time>2025-03-08T13:41:49Z</time>
      </trkpt>
      <trkpt lat="44.41278" lon="1.32954">
        <ele>301.1</ele>
        <time>2025-03-08T13:41:50Z</time>
      </trkpt>
      <trkpt lat="44.41279" lon="1.32954">
        <ele>300.9</ele>
        <time>2025-03-08T13:41:51Z</time>
      </trkpt>
      <trkpt lat="44.4128" lon="1.32954">
        <ele>300.9</ele>
        <time>2025-03-08T13:41:52Z</time>
      </trkpt>
      <trkpt lat="44.41282" lon="1.32955">
        <ele>300.8</ele>
        <time>2025-03-08T13:41:53Z</time>
      </trkpt>
      <trkpt lat="44.41285" lon="1.32956">
        <ele>300.6</ele>
        <time>2025-03-08T13:41:54Z</time>
      </trkpt>
      <trkpt lat="44.41286" lon="1.32956">
        <ele>300.7</ele>
        <time>2025-03-08T13:41:55Z</time>
      </trkpt>
      <trkpt lat="44.41288" lon="1.32957">
        <ele>300.6</ele>
        <time>2025-03-08T13:41:56Z</time>
      </trkpt>
      <trkpt lat="44.41289" lon="1.32957">
        <ele>300.6</ele>
        <time>2025-03-08T13:41:57Z</time>
      </trkpt>
      <trkpt lat="44.41292" lon="1.32957">
        <ele>300.3</ele>
        <time>2025-03-08T13:41:58Z</time>
      </trkpt>
      <trkpt lat="44.41293" lon="1.32957">
        <ele>300.3</ele>
        <time>2025-03-08T13:41:59Z</time>
      </trkpt>
      <trkpt lat="44.41296" lon="1.32958">
        <ele>300.1</ele>
        <time>2025-03-08T13:42:00Z</time>
      </trkpt>
      <trkpt lat="44.41297" lon="1.32958">
        <ele>299.8</ele>
        <time>2025-03-08T13:42:01Z</time>
      </trkpt>
      <trkpt lat="44.41299" lon="1.32958">
        <ele>299.8</ele>
        <time>2025-03-08T13:42:02Z</time>
      </trkpt>
      <trkpt lat="44.41301" lon="1.32959">
        <ele>299.5</ele>
        <time>2025-03-08T13:42:03Z</time>
      </trkpt>
      <trkpt lat="44.41302" lon="1.32959">
        <ele>299.5</ele>
        <time>2025-03-08T13:42:04Z</time>
      </trkpt>
      <trkpt lat="44.41304" lon="1.32959">
        <ele>299.2</ele>
        <time>2025-03-08T13:42:05Z</time>
      </trkpt>
      <trkpt lat="44.41306" lon="1.32959">
        <ele>299.2</ele>
        <time>2025-03-08T13:42:06Z</time>
      </trkpt>
      <trkpt lat="44.41308" lon="1.32959">
        <ele>298.8</ele>
        <time>2025-03-08T13:42:07Z</time>
      </trkpt>
      <trkpt lat="44.41311" lon="1.32959">
        <ele>298.4</ele>
        <time>2025-03-08T13:42:08Z</time>
      </trkpt>
      <trkpt lat="44.41312" lon="1.32959">
        <ele>298.4</ele>
        <time>2025-03-08T13:42:09Z</time>
      </trkpt>
      <trkpt lat="44.41314" lon="1.32959">
        <ele>298.1</ele>
        <time>2025-03-08T13:42:10Z</time>
      </trkpt>
      <trkpt lat="44.41315" lon="1.3296">
        <ele>298.1</ele>
        <time>2025-03-08T13:42:11Z</time>
      </trkpt>
      <trkpt lat="44.41318" lon="1.32959">
        <ele>297.8</ele>
        <time>2025-03-08T13:42:12Z</time>
      </trkpt>
      <trkpt lat="44.41319" lon="1.32959">
        <ele>297.5</ele>
        <time>2025-03-08T13:42:13Z</time>
      </trkpt>
      <trkpt lat="44.41322" lon="1.3296">
        <ele>297.2</ele>
        <time>2025-03-08T13:42:14Z</time>
      </trkpt>
      <trkpt lat="44.41323" lon="1.3296">
        <ele>297.1</ele>
        <time>2025-03-08T13:42:15Z</time>
      </trkpt>
      <trkpt lat="44.41326" lon="1.3296">
        <ele>296.8</ele>
        <time>2025-03-08T13:42:16Z</time>
      </trkpt>
      <trkpt lat="44.41327" lon="1.3296">
        <ele>296.8</ele>
        <time>2025-03-08T13:42:17Z</time>
      </trkpt>
      <trkpt lat="44.41331" lon="1.3296">
        <ele>296.5</ele>
        <time>2025-03-08T13:42:18Z</time>
      </trkpt>
      <trkpt lat="44.41332" lon="1.3296">
        <ele>296.2</ele>
        <time>2025-03-08T13:42:19Z</time>
      </trkpt>
      <trkpt lat="44.41335" lon="1.3296">
        <ele>295.9</ele>
        <time>2025-03-08T13:42:20Z</time>
      </trkpt>
      <trkpt lat="44.41339" lon="1.3296">
        <ele>295.7</ele>
        <time>2025-03-08T13:42:21Z</time>
      </trkpt>
      <trkpt lat="44.4134" lon="1.32959">
        <ele>295.4</ele>
        <time>2025-03-08T13:42:22Z</time>
      </trkpt>
      <trkpt lat="44.41344" lon="1.32958">
        <ele>295.2</ele>
        <time>2025-03-08T13:42:23Z</time>
      </trkpt>
      <trkpt lat="44.41345" lon="1.32957">
        <ele>295.2</ele>
        <time>2025-03-08T13:42:24Z</time>
      </trkpt>
      <trkpt lat="44.41348" lon="1.32956">
        <ele>295</ele>
        <time>2025-03-08T13:42:25Z</time>
      </trkpt>
      <trkpt lat="44.4135" lon="1.32953">
        <ele>294.7</ele>
        <time>2025-03-08T13:42:26Z</time>
      </trkpt>
      <trkpt lat="44.41353" lon="1.3295">
        <ele>294.5</ele>
        <time>2025-03-08T13:42:27Z</time>
      </trkpt>
      <trkpt lat="44.41356" lon="1.32948">
        <ele>294.2</ele>
        <time>2025-03-08T13:42:28Z</time>
      </trkpt>
      <trkpt lat="44.41359" lon="1.32946">
        <ele>294.1</ele>
        <time>2025-03-08T13:42:29Z</time>
      </trkpt>
      <trkpt lat="44.41362" lon="1.32944">
        <ele>293.8</ele>
        <time>2025-03-08T13:42:30Z</time>
      </trkpt>
      <trkpt lat="44.41366" lon="1.32942">
        <ele>293.7</ele>
        <time>2025-03-08T13:42:31Z</time>
      </trkpt>
      <trkpt lat="44.4137" lon="1.32941">
        <ele>293.5</ele>
        <time>2025-03-08T13:42:32Z</time>
      </trkpt>
      <trkpt lat="44.41372" lon="1.32938">
        <ele>293.4</ele>
        <time>2025-03-08T13:42:33Z</time>
      </trkpt>
      <trkpt lat="44.41374" lon="1.32933">
        <ele>293.5</ele>
        <time>2025-03-08T13:42:34Z</time>
      </trkpt>
      <trkpt lat="44.41376" lon="1.32928">
        <ele>293.6</ele>
        <time>2025-03-08T13:42:35Z</time>
      </trkpt>
      <trkpt lat="44.41378" lon="1.32923">
        <ele>293.6</ele>
        <time>2025-03-08T13:42:36Z</time>
      </trkpt>
      <trkpt lat="44.41379" lon="1.32919">
        <ele>293.7</ele>
        <time>2025-03-08T13:42:37Z</time>
      </trkpt>
      <trkpt lat="44.41379" lon="1.32914">
        <ele>293.9</ele>
        <time>2025-03-08T13:42:38Z</time>
      </trkpt>
      <trkpt lat="44.41379" lon="1.3291">
        <ele>294</ele>
        <time>2025-03-08T13:42:39Z</time>
      </trkpt>
      <trkpt lat="44.4138" lon="1.32905">
        <ele>293.9</ele>
        <time>2025-03-08T13:42:40Z</time>
      </trkpt>
      <trkpt lat="44.4138" lon="1.32903">
        <ele>294</ele>
        <time>2025-03-08T13:42:41Z</time>
      </trkpt>
      <trkpt lat="44.41383" lon="1.32899">
        <ele>294.1</ele>
        <time>2025-03-08T13:42:42Z</time>
      </trkpt>
      <trkpt lat="44.41386" lon="1.32897">
        <ele>294</ele>
        <time>2025-03-08T13:42:43Z</time>
      </trkpt>
      <trkpt lat="44.4139" lon="1.32897">
        <ele>293.6</ele>
        <time>2025-03-08T13:42:44Z</time>
      </trkpt>
      <trkpt lat="44.41394" lon="1.32897">
        <ele>293.4</ele>
        <time>2025-03-08T13:42:45Z</time>
      </trkpt>
      <trkpt lat="44.41397" lon="1.32897">
        <ele>293.2</ele>
        <time>2025-03-08T13:42:46Z</time>
      </trkpt>
      <trkpt lat="44.41401" lon="1.32898">
        <ele>293</ele>
        <time>2025-03-08T13:42:47Z</time>
      </trkpt>
      <trkpt lat="44.41402" lon="1.32898">
        <ele>292.8</ele>
        <time>2025-03-08T13:42:48Z</time>
      </trkpt>
      <trkpt lat="44.41406" lon="1.32899">
        <ele>292.6</ele>
        <time>2025-03-08T13:42:49Z</time>
      </trkpt>
      <trkpt lat="44.41407" lon="1.329">
        <ele>292.6</ele>
        <time>2025-03-08T13:42:50Z</time>
      </trkpt>
      <trkpt lat="44.41411" lon="1.329">
        <ele>292</ele>
        <time>2025-03-08T13:42:51Z</time>
      </trkpt>
      <trkpt lat="44.41412" lon="1.329">
        <ele>292</ele>
        <time>2025-03-08T13:42:52Z</time>
      </trkpt>
      <trkpt lat="44.41415" lon="1.32901">
        <ele>291.5</ele>
        <time>2025-03-08T13:42:53Z</time>
      </trkpt>
      <trkpt lat="44.41418" lon="1.32901">
        <ele>291.1</ele>
        <time>2025-03-08T13:42:54Z</time>
      </trkpt>
      <trkpt lat="44.41422" lon="1.32901">
        <ele>290.7</ele>
        <time>2025-03-08T13:42:55Z</time>
      </trkpt>
      <trkpt lat="44.41423" lon="1.32901">
        <ele>290.3</ele>
        <time>2025-03-08T13:42:56Z</time>
      </trkpt>
      <trkpt lat="44.41427" lon="1.329">
        <ele>289.9</ele>
        <time>2025-03-08T13:42:57Z</time>
      </trkpt>
      <trkpt lat="44.41428" lon="1.32899">
        <ele>289.9</ele>
        <time>2025-03-08T13:42:58Z</time>
      </trkpt>
      <trkpt lat="44.41431" lon="1.32895">
        <ele>289.5</ele>
        <time>2025-03-08T13:42:59Z</time>
      </trkpt>
      <trkpt lat="44.41431" lon="1.32894">
        <ele>289.5</ele>
        <time>2025-03-08T13:43:00Z</time>
      </trkpt>
      <trkpt lat="44.41434" lon="1.3289">
        <ele>289.1</ele>
        <time>2025-03-08T13:43:01Z</time>
      </trkpt>
      <trkpt lat="44.41434" lon="1.32889">
        <ele>289.1</ele>
        <time>2025-03-08T13:43:02Z</time>
      </trkpt>
      <trkpt lat="44.41438" lon="1.32887">
        <ele>288.6</ele>
        <time>2025-03-08T13:43:03Z</time>
      </trkpt>
      <trkpt lat="44.41439" lon="1.32887">
        <ele>288.1</ele>
        <time>2025-03-08T13:43:04Z</time>
      </trkpt>
      <trkpt lat="44.41443" lon="1.32886">
        <ele>287.5</ele>
        <time>2025-03-08T13:43:05Z</time>
      </trkpt>
      <trkpt lat="44.41444" lon="1.32886">
        <ele>287.5</ele>
        <time>2025-03-08T13:43:06Z</time>
      </trkpt>
      <trkpt lat="44.41447" lon="1.32883">
        <ele>286.4</ele>
        <time>2025-03-08T13:43:07Z</time>
      </trkpt>
      <trkpt lat="44.41448" lon="1.32881">
        <ele>286.3</ele>
        <time>2025-03-08T13:43:08Z</time>
      </trkpt>
      <trkpt lat="44.4145" lon="1.32877">
        <ele>286.5</ele>
        <time>2025-03-08T13:43:09Z</time>
      </trkpt>
      <trkpt lat="44.4145" lon="1.32876">
        <ele>286.4</ele>
        <time>2025-03-08T13:43:10Z</time>
      </trkpt>
      <trkpt lat="44.41451" lon="1.32874">
        <ele>285.9</ele>
        <time>2025-03-08T13:43:11Z</time>
      </trkpt>
      <trkpt lat="44.41452" lon="1.32872">
        <ele>285.9</ele>
        <time>2025-03-08T13:43:12Z</time>
      </trkpt>
      <trkpt lat="44.41455" lon="1.32868">
        <ele>285.4</ele>
        <time>2025-03-08T13:43:13Z</time>
      </trkpt>
      <trkpt lat="44.41456" lon="1.32866">
        <ele>285.4</ele>
        <time>2025-03-08T13:43:14Z</time>
      </trkpt>
      <trkpt lat="44.41459" lon="1.32864">
        <ele>284.8</ele>
        <time>2025-03-08T13:43:15Z</time>
      </trkpt>
      <trkpt lat="44.41463" lon="1.32863">
        <ele>283.2</ele>
        <time>2025-03-08T13:43:16Z</time>
      </trkpt>
      <trkpt lat="44.41465" lon="1.3286">
        <ele>283.3</ele>
        <time>2025-03-08T13:43:17Z</time>
      </trkpt>
      <trkpt lat="44.41466" lon="1.32854">
        <ele>282.6</ele>
        <time>2025-03-08T13:43:18Z</time>
      </trkpt>
      <trkpt lat="44.41466" lon="1.32848">
        <ele>283</ele>
        <time>2025-03-08T13:43:19Z</time>
      </trkpt>
      <trkpt lat="44.41466" lon="1.32842">
        <ele>283.2</ele>
        <time>2025-03-08T13:43:20Z</time>
      </trkpt>
      <trkpt lat="44.41466" lon="1.32837">
        <ele>283.5</ele>
        <time>2025-03-08T13:43:21Z</time>
      </trkpt>
      <trkpt lat="44.41467" lon="1.32831">
        <ele>284.3</ele>
        <time>2025-03-08T13:43:22Z</time>
      </trkpt>
      <trkpt lat="44.41467" lon="1.32825">
        <ele>284.6</ele>
        <time>2025-03-08T13:43:23Z</time>
      </trkpt>
      <trkpt lat="44.41464" lon="1.3282">
        <ele>285.8</ele>
        <time>2025-03-08T13:43:24Z</time>
      </trkpt>
      <trkpt lat="44.4146" lon="1.32819">
        <ele>286.5</ele>
        <time>2025-03-08T13:43:25Z</time>
      </trkpt>
      <trkpt lat="44.41456" lon="1.32821">
        <ele>287.8</ele>
        <time>2025-03-08T13:43:26Z</time>
      </trkpt>
      <trkpt lat="44.41453" lon="1.32822">
        <ele>288.4</ele>
        <time>2025-03-08T13:43:27Z</time>
      </trkpt>
      <trkpt lat="44.41452" lon="1.32822">
        <ele>288.4</ele>
        <time>2025-03-08T13:43:28Z</time>
      </trkpt>
      <trkpt lat="44.41449" lon="1.3282">
        <ele>289</ele>
        <time>2025-03-08T13:43:29Z</time>
      </trkpt>
      <trkpt lat="44.41445" lon="1.32819">
        <ele>289.6</ele>
        <time>2025-03-08T13:43:30Z</time>
      </trkpt>
      <trkpt lat="44.41443" lon="1.32819">
        <ele>290.1</ele>
        <time>2025-03-08T13:43:31Z</time>
      </trkpt>
      <trkpt lat="44.41441" lon="1.32819">
        <ele>290.6</ele>
        <time>2025-03-08T13:43:32Z</time>
      </trkpt>
      <trkpt lat="44.41437" lon="1.32817">
        <ele>291.4</ele>
        <time>2025-03-08T13:43:33Z</time>
      </trkpt>
      <trkpt lat="44.41435" lon="1.32817">
        <ele>291.4</ele>
        <time>2025-03-08T13:43:34Z</time>
      </trkpt>
      <trkpt lat="44.41432" lon="1.32816">
        <ele>291.8</ele>
        <time>2025-03-08T13:43:35Z</time>
      </trkpt>
      <trkpt lat="44.41429" lon="1.32816">
        <ele>292.1</ele>
        <time>2025-03-08T13:43:36Z</time>
      </trkpt>
      <trkpt lat="44.41426" lon="1.32816">
        <ele>292.4</ele>
        <time>2025-03-08T13:43:37Z</time>
      </trkpt>
      <trkpt lat="44.41424" lon="1.32814">
        <ele>293</ele>
        <time>2025-03-08T13:43:38Z</time>
      </trkpt>
      <trkpt lat="44.41421" lon="1.32811">
        <ele>293.3</ele>
        <time>2025-03-08T13:43:39Z</time>
      </trkpt>
      <trkpt lat="44.41418" lon="1.3281">
        <ele>293.8</ele>
        <time>2025-03-08T13:43:40Z</time>
      </trkpt>
      <trkpt lat="44.41415" lon="1.32808">
        <ele>294.1</ele>
        <time>2025-03-08T13:43:41Z</time>
      </trkpt>
      <trkpt lat="44.41412" lon="1.32806">
        <ele>294.3</ele>
        <time>2025-03-08T13:43:42Z</time>
      </trkpt>
      <trkpt lat="44.4141" lon="1.32804">
        <ele>294.6</ele>
        <time>2025-03-08T13:43:43Z</time>
      </trkpt>
      <trkpt lat="44.41409" lon="1.328">
        <ele>294.8</ele>
        <time>2025-03-08T13:43:44Z</time>
      </trkpt>
      <trkpt lat="44.41408" lon="1.32797">
        <ele>294.9</ele>
        <time>2025-03-08T13:43:45Z</time>
      </trkpt>
      <trkpt lat="44.41407" lon="1.32793">
        <ele>295.2</ele>
        <time>2025-03-08T13:43:46Z</time>
      </trkpt>
      <trkpt lat="44.41405" lon="1.32789">
        <ele>295.2</ele>
        <time>2025-03-08T13:43:47Z</time>
      </trkpt>
      <trkpt lat="44.41405" lon="1.32788">
        <ele>295.3</ele>
        <time>2025-03-08T13:43:48Z</time>
      </trkpt>
      <trkpt lat="44.41406" lon="1.32786">
        <ele>295.3</ele>
        <time>2025-03-08T13:43:49Z</time>
      </trkpt>
      <trkpt lat="44.41406" lon="1.32783">
        <ele>295.5</ele>
        <time>2025-03-08T13:43:50Z</time>
      </trkpt>
      <trkpt lat="44.41408" lon="1.32778">
        <ele>295.7</ele>
        <time>2025-03-08T13:43:51Z</time>
      </trkpt>
      <trkpt lat="44.41408" lon="1.32776">
        <ele>295.7</ele>
        <time>2025-03-08T13:43:52Z</time>
      </trkpt>
      <trkpt lat="44.4141" lon="1.32773">
        <ele>295.9</ele>
        <time>2025-03-08T13:43:53Z</time>
      </trkpt>
      <trkpt lat="44.41411" lon="1.32768">
        <ele>296.2</ele>
        <time>2025-03-08T13:43:54Z</time>
      </trkpt>
      <trkpt lat="44.41412" lon="1.32764">
        <ele>296.4</ele>
        <time>2025-03-08T13:43:55Z</time>
      </trkpt>
      <trkpt lat="44.41414" lon="1.32759">
        <ele>296.7</ele>
        <time>2025-03-08T13:43:56Z</time>
      </trkpt>
      <trkpt lat="44.41415" lon="1.32754">
        <ele>297</ele>
        <time>2025-03-08T13:43:57Z</time>
      </trkpt>
      <trkpt lat="44.41417" lon="1.32748">
        <ele>297.7</ele>
        <time>2025-03-08T13:43:58Z</time>
      </trkpt>
      <trkpt lat="44.41417" lon="1.32743">
        <ele>298.1</ele>
        <time>2025-03-08T13:43:59Z</time>
      </trkpt>
      <trkpt lat="44.41415" lon="1.32739">
        <ele>298.5</ele>
        <time>2025-03-08T13:44:00Z</time>
      </trkpt>
      <trkpt lat="44.41413" lon="1.32735">
        <ele>298.8</ele>
        <time>2025-03-08T13:44:01Z</time>
      </trkpt>
      <trkpt lat="44.41412" lon="1.32734">
        <ele>298.7</ele>
        <time>2025-03-08T13:44:02Z</time>
      </trkpt>
      <trkpt lat="44.41409" lon="1.32731">
        <ele>299</ele>
        <time>2025-03-08T13:44:03Z</time>
      </trkpt>
      <trkpt lat="44.41408" lon="1.3273">
        <ele>299</ele>
        <time>2025-03-08T13:44:04Z</time>
      </trkpt>
      <trkpt lat="44.41405" lon="1.32728">
        <ele>299.1</ele>
        <time>2025-03-08T13:44:05Z</time>
      </trkpt>
      <trkpt lat="44.41404" lon="1.32727">
        <ele>299.1</ele>
        <time>2025-03-08T13:44:06Z</time>
      </trkpt>
      <trkpt lat="44.41404" lon="1.32725">
        <ele>299</ele>
        <time>2025-03-08T13:44:07Z</time>
      </trkpt>
      <trkpt lat="44.41404" lon="1.32723">
        <ele>299.2</ele>
        <time>2025-03-08T13:44:08Z</time>
      </trkpt>
      <trkpt lat="44.41404" lon="1.32721">
        <ele>299.2</ele>
        <time>2025-03-08T13:44:09Z</time>
      </trkpt>
      <trkpt lat="44.41405" lon="1.32719">
        <ele>299.6</ele>
        <time>2025-03-08T13:44:10Z</time>
      </trkpt>
      <trkpt lat="44.41406" lon="1.32717">
        <ele>299.6</ele>
        <time>2025-03-08T13:44:11Z</time>
      </trkpt>
      <trkpt lat="44.41406" lon="1.32714">
        <ele>299.9</ele>
        <time>2025-03-08T13:44:12Z</time>
      </trkpt>
      <trkpt lat="44.41406" lon="1.3271">
        <ele>300.2</ele>
        <time>2025-03-08T13:44:13Z</time>
      </trkpt>
      <trkpt lat="44.41406" lon="1.32709">
        <ele>300.2</ele>
        <time>2025-03-08T13:44:14Z</time>
      </trkpt>
      <trkpt lat="44.41408" lon="1.32706">
        <ele>300.6</ele>
        <time>2025-03-08T13:44:15Z</time>
      </trkpt>
      <trkpt lat="44.41409" lon="1.32705">
        <ele>300.6</ele>
        <time>2025-03-08T13:44:16Z</time>
      </trkpt>
      <trkpt lat="44.41411" lon="1.32701">
        <ele>300.9</ele>
        <time>2025-03-08T13:44:17Z</time>
      </trkpt>
      <trkpt lat="44.41412" lon="1.327">
        <ele>300.9</ele>
        <time>2025-03-08T13:44:18Z</time>
      </trkpt>
      <trkpt lat="44.41414" lon="1.32697">
        <ele>301.3</ele>
        <time>2025-03-08T13:44:19Z</time>
      </trkpt>
      <trkpt lat="44.41415" lon="1.32696">
        <ele>301.3</ele>
        <time>2025-03-08T13:44:20Z</time>
      </trkpt>
      <trkpt lat="44.41419" lon="1.32693">
        <ele>301.6</ele>
        <time>2025-03-08T13:44:21Z</time>
      </trkpt>
      <trkpt lat="44.4142" lon="1.32693">
        <ele>301.7</ele>
        <time>2025-03-08T13:44:22Z</time>
      </trkpt>
      <trkpt lat="44.41424" lon="1.32692">
        <ele>301.8</ele>
        <time>2025-03-08T13:44:23Z</time>
      </trkpt>
      <trkpt lat="44.41429" lon="1.3269">
        <ele>302.2</ele>
        <time>2025-03-08T13:44:24Z</time>
      </trkpt>
      <trkpt lat="44.41433" lon="1.32687">
        <ele>302.4</ele>
        <time>2025-03-08T13:44:25Z</time>
      </trkpt>
      <trkpt lat="44.41437" lon="1.32683">
        <ele>302.7</ele>
        <time>2025-03-08T13:44:26Z</time>
      </trkpt>
      <trkpt lat="44.41439" lon="1.3268">
        <ele>303</ele>
        <time>2025-03-08T13:44:27Z</time>
      </trkpt>
      <trkpt lat="44.41441" lon="1.32677">
        <ele>303.4</ele>
        <time>2025-03-08T13:44:28Z</time>
      </trkpt>
      <trkpt lat="44.41444" lon="1.32676">
        <ele>303.4</ele>
        <time>2025-03-08T13:44:29Z</time>
      </trkpt>
      <trkpt lat="44.41448" lon="1.32676">
        <ele>303.5</ele>
        <time>2025-03-08T13:44:30Z</time>
      </trkpt>
      <trkpt lat="44.41452" lon="1.32674">
        <ele>303.6</ele>
        <time>2025-03-08T13:44:31Z</time>
      </trkpt>
      <trkpt lat="44.41455" lon="1.3267">
        <ele>303.8</ele>
        <time>2025-03-08T13:44:32Z</time>
      </trkpt>
      <trkpt lat="44.41458" lon="1.32667">
        <ele>303.9</ele>
        <time>2025-03-08T13:44:33Z</time>
      </trkpt>
      <trkpt lat="44.41461" lon="1.32664">
        <ele>303.9</ele>
        <time>2025-03-08T13:44:34Z</time>
      </trkpt>
      <trkpt lat="44.41464" lon="1.32662">
        <ele>303.8</ele>
        <time>2025-03-08T13:44:35Z</time>
      </trkpt>
      <trkpt lat="44.41467" lon="1.32661">
        <ele>303.6</ele>
        <time>2025-03-08T13:44:36Z</time>
      </trkpt>
      <trkpt lat="44.41469" lon="1.32662">
        <ele>303.6</ele>
        <time>2025-03-08T13:44:37Z</time>
      </trkpt>
      <trkpt lat="44.41472" lon="1.32661">
        <ele>303.2</ele>
        <time>2025-03-08T13:44:38Z</time>
      </trkpt>
      <trkpt lat="44.41477" lon="1.3266">
        <ele>303.1</ele>
        <time>2025-03-08T13:44:39Z</time>
      </trkpt>
      <trkpt lat="44.41481" lon="1.32658">
        <ele>302.9</ele>
        <time>2025-03-08T13:44:40Z</time>
      </trkpt>
      <trkpt lat="44.41484" lon="1.32654">
        <ele>302.7</ele>
        <time>2025-03-08T13:44:41Z</time>
      </trkpt>
      <trkpt lat="44.41488" lon="1.32651">
        <ele>302.7</ele>
        <time>2025-03-08T13:44:42Z</time>
      </trkpt>
      <trkpt lat="44.41493" lon="1.32651">
        <ele>302.5</ele>
        <time>2025-03-08T13:44:43Z</time>
      </trkpt>
      <trkpt lat="44.41498" lon="1.32652">
        <ele>302.1</ele>
        <time>2025-03-08T13:44:44Z</time>
      </trkpt>
      <trkpt lat="44.41503" lon="1.32651">
        <ele>301.9</ele>
        <time>2025-03-08T13:44:45Z</time>
      </trkpt>
      <trkpt lat="44.41507" lon="1.32648">
        <ele>301.6</ele>
        <time>2025-03-08T13:44:46Z</time>
      </trkpt>
      <trkpt lat="44.4151" lon="1.32646">
        <ele>301.5</ele>
        <time>2025-03-08T13:44:47Z</time>
      </trkpt>
      <trkpt lat="44.41513" lon="1.32649">
        <ele>301.2</ele>
        <time>2025-03-08T13:44:48Z</time>
      </trkpt>
      <trkpt lat="44.41514" lon="1.3265">
        <ele>301.2</ele>
        <time>2025-03-08T13:44:49Z</time>
      </trkpt>
      <trkpt lat="44.41518" lon="1.3265">
        <ele>300.6</ele>
        <time>2025-03-08T13:44:50Z</time>
      </trkpt>
      <trkpt lat="44.41522" lon="1.32649">
        <ele>300.2</ele>
        <time>2025-03-08T13:44:51Z</time>
      </trkpt>
      <trkpt lat="44.41526" lon="1.32647">
        <ele>299.8</ele>
        <time>2025-03-08T13:44:52Z</time>
      </trkpt>
      <trkpt lat="44.4153" lon="1.32648">
        <ele>298.9</ele>
        <time>2025-03-08T13:44:53Z</time>
      </trkpt>
      <trkpt lat="44.41534" lon="1.3265">
        <ele>298.5</ele>
        <time>2025-03-08T13:44:54Z</time>
      </trkpt>
      <trkpt lat="44.41539" lon="1.32653">
        <ele>297.4</ele>
        <time>2025-03-08T13:44:55Z</time>
      </trkpt>
      <trkpt lat="44.41544" lon="1.32655">
        <ele>297</ele>
        <time>2025-03-08T13:44:56Z</time>
      </trkpt>
      <trkpt lat="44.41549" lon="1.32654">
        <ele>296.3</ele>
        <time>2025-03-08T13:44:57Z</time>
      </trkpt>
      <trkpt lat="44.41554" lon="1.32654">
        <ele>296</ele>
        <time>2025-03-08T13:44:58Z</time>
      </trkpt>
      <trkpt lat="44.41557" lon="1.32657">
        <ele>295.2</ele>
        <time>2025-03-08T13:44:59Z</time>
      </trkpt>
      <trkpt lat="44.41562" lon="1.32661">
        <ele>294</ele>
        <time>2025-03-08T13:45:00Z</time>
      </trkpt>
      <trkpt lat="44.41567" lon="1.32666">
        <ele>292.7</ele>
        <time>2025-03-08T13:45:01Z</time>
      </trkpt>
      <trkpt lat="44.41574" lon="1.3267">
        <ele>291.3</ele>
        <time>2025-03-08T13:45:02Z</time>
      </trkpt>
      <trkpt lat="44.4158" lon="1.3267">
        <ele>290.3</ele>
        <time>2025-03-08T13:45:03Z</time>
      </trkpt>
      <trkpt lat="44.41585" lon="1.32671">
        <ele>289.7</ele>
        <time>2025-03-08T13:45:04Z</time>
      </trkpt>
      <trkpt lat="44.41587" lon="1.32676">
        <ele>288.6</ele>
        <time>2025-03-08T13:45:05Z</time>
      </trkpt>
      <trkpt lat="44.41591" lon="1.32682">
        <ele>287.1</ele>
        <time>2025-03-08T13:45:06Z</time>
      </trkpt>
      <trkpt lat="44.41595" lon="1.32686">
        <ele>285.7</ele>
        <time>2025-03-08T13:45:07Z</time>
      </trkpt>
      <trkpt lat="44.416" lon="1.32687">
        <ele>285.2</ele>
        <time>2025-03-08T13:45:08Z</time>
      </trkpt>
      <trkpt lat="44.41603" lon="1.3269">
        <ele>284.8</ele>
        <time>2025-03-08T13:45:09Z</time>
      </trkpt>
      <trkpt lat="44.41604" lon="1.32695">
        <ele>283.7</ele>
        <time>2025-03-08T13:45:10Z</time>
      </trkpt>
      <trkpt lat="44.41605" lon="1.327">
        <ele>283.2</ele>
        <time>2025-03-08T13:45:11Z</time>
      </trkpt>
      <trkpt lat="44.41608" lon="1.32707">
        <ele>282.4</ele>
        <time>2025-03-08T13:45:12Z</time>
      </trkpt>
      <trkpt lat="44.41612" lon="1.32712">
        <ele>281.2</ele>
        <time>2025-03-08T13:45:13Z</time>
      </trkpt>
      <trkpt lat="44.41616" lon="1.32715">
        <ele>280.4</ele>
        <time>2025-03-08T13:45:14Z</time>
      </trkpt>
      <trkpt lat="44.41621" lon="1.32718">
        <ele>279.6</ele>
        <time>2025-03-08T13:45:15Z</time>
      </trkpt>
      <trkpt lat="44.41625" lon="1.32721">
        <ele>278.6</ele>
        <time>2025-03-08T13:45:16Z</time>
      </trkpt>
      <trkpt lat="44.4163" lon="1.32722">
        <ele>278.3</ele>
        <time>2025-03-08T13:45:17Z</time>
      </trkpt>
      <trkpt lat="44.41633" lon="1.32725">
        <ele>277.6</ele>
        <time>2025-03-08T13:45:18Z</time>
      </trkpt>
      <trkpt lat="44.41635" lon="1.32729">
        <ele>276.9</ele>
        <time>2025-03-08T13:45:19Z</time>
      </trkpt>
      <trkpt lat="44.41637" lon="1.32734">
        <ele>276.5</ele>
        <time>2025-03-08T13:45:20Z</time>
      </trkpt>
      <trkpt lat="44.41639" lon="1.3274">
        <ele>275.8</ele>
        <time>2025-03-08T13:45:21Z</time>
      </trkpt>
      <trkpt lat="44.41641" lon="1.32744">
        <ele>275.3</ele>
        <time>2025-03-08T13:45:22Z</time>
      </trkpt>
      <trkpt lat="44.41642" lon="1.32748">
        <ele>274.9</ele>
        <time>2025-03-08T13:45:23Z</time>
      </trkpt>
      <trkpt lat="44.41644" lon="1.32753">
        <ele>274.4</ele>
        <time>2025-03-08T13:45:24Z</time>
      </trkpt>
      <trkpt lat="44.41648" lon="1.32756">
        <ele>274</ele>
        <time>2025-03-08T13:45:25Z</time>
      </trkpt>
      <trkpt lat="44.41653" lon="1.32758">
        <ele>273.7</ele>
        <time>2025-03-08T13:45:26Z</time>
      </trkpt>
      <trkpt lat="44.41658" lon="1.32757">
        <ele>273.5</ele>
        <time>2025-03-08T13:45:27Z</time>
      </trkpt>
      <trkpt lat="44.41662" lon="1.32755">
        <ele>273.1</ele>
        <time>2025-03-08T13:45:28Z</time>
      </trkpt>
      <trkpt lat="44.41666" lon="1.32757">
        <ele>272.9</ele>
        <time>2025-03-08T13:45:29Z</time>
      </trkpt>
      <trkpt lat="44.41667" lon="1.32759">
        <ele>272.6</ele>
        <time>2025-03-08T13:45:30Z</time>
      </trkpt>
      <trkpt lat="44.41667" lon="1.32765">
        <ele>272.4</ele>
        <time>2025-03-08T13:45:31Z</time>
      </trkpt>
      <trkpt lat="44.41669" lon="1.32771">
        <ele>271.9</ele>
        <time>2025-03-08T13:45:32Z</time>
      </trkpt>
      <trkpt lat="44.4167" lon="1.32777">
        <ele>271.3</ele>
        <time>2025-03-08T13:45:33Z</time>
      </trkpt>
      <trkpt lat="44.41672" lon="1.32781">
        <ele>270.8</ele>
        <time>2025-03-08T13:45:34Z</time>
      </trkpt>
      <trkpt lat="44.41674" lon="1.32782">
        <ele>270.5</ele>
        <time>2025-03-08T13:45:35Z</time>
      </trkpt>
      <trkpt lat="44.41679" lon="1.32782">
        <ele>270.2</ele>
        <time>2025-03-08T13:45:36Z</time>
      </trkpt>
      <trkpt lat="44.41683" lon="1.32782">
        <ele>269.5</ele>
        <time>2025-03-08T13:45:37Z</time>
      </trkpt>
      <trkpt lat="44.41688" lon="1.32783">
        <ele>269.1</ele>
        <time>2025-03-08T13:45:38Z</time>
      </trkpt>
      <trkpt lat="44.41693" lon="1.32784">
        <ele>268.3</ele>
        <time>2025-03-08T13:45:39Z</time>
      </trkpt>
      <trkpt lat="44.41697" lon="1.32785">
        <ele>267.5</ele>
        <time>2025-03-08T13:45:40Z</time>
      </trkpt>
      <trkpt lat="44.417" lon="1.32785">
        <ele>267</ele>
        <time>2025-03-08T13:45:41Z</time>
      </trkpt>
      <trkpt lat="44.41704" lon="1.32788">
        <ele>266.5</ele>
        <time>2025-03-08T13:45:42Z</time>
      </trkpt>
      <trkpt lat="44.41708" lon="1.32792">
        <ele>265.3</ele>
        <time>2025-03-08T13:45:43Z</time>
      </trkpt>
      <trkpt lat="44.41711" lon="1.32797">
        <ele>265</ele>
        <time>2025-03-08T13:45:44Z</time>
      </trkpt>
      <trkpt lat="44.41713" lon="1.32801">
        <ele>264.3</ele>
        <time>2025-03-08T13:45:45Z</time>
      </trkpt>
      <trkpt lat="44.41716" lon="1.32803">
        <ele>263.5</ele>
        <time>2025-03-08T13:45:46Z</time>
      </trkpt>
      <trkpt lat="44.41719" lon="1.32806">
        <ele>263</ele>
        <time>2025-03-08T13:45:47Z</time>
      </trkpt>
      <trkpt lat="44.4172" lon="1.32807">
        <ele>262.7</ele>
        <time>2025-03-08T13:45:48Z</time>
      </trkpt>
      <trkpt lat="44.4172" lon="1.32812">
        <ele>262.4</ele>
        <time>2025-03-08T13:45:49Z</time>
      </trkpt>
      <trkpt lat="44.41718" lon="1.32817">
        <ele>262.2</ele>
        <time>2025-03-08T13:45:50Z</time>
      </trkpt>
      <trkpt lat="44.41716" lon="1.32819">
        <ele>262.4</ele>
        <time>2025-03-08T13:45:51Z</time>
      </trkpt>
      <trkpt lat="44.41714" lon="1.32822">
        <ele>262.4</ele>
        <time>2025-03-08T13:45:52Z</time>
      </trkpt>
      <trkpt lat="44.41712" lon="1.32824">
        <ele>262.6</ele>
        <time>2025-03-08T13:45:53Z</time>
      </trkpt>
      <trkpt lat="44.41709" lon="1.32828">
        <ele>262.6</ele>
        <time>2025-03-08T13:45:54Z</time>
      </trkpt>
      <trkpt lat="44.41708" lon="1.32829">
        <ele>262.6</ele>
        <time>2025-03-08T13:45:55Z</time>
      </trkpt>
      <trkpt lat="44.41706" lon="1.32834">
        <ele>262.6</ele>
        <time>2025-03-08T13:45:56Z</time>
      </trkpt>
      <trkpt lat="44.41706" lon="1.32836">
        <ele>262.6</ele>
        <time>2025-03-08T13:45:57Z</time>
      </trkpt>
      <trkpt lat="44.41707" lon="1.32841">
        <ele>261.6</ele>
        <time>2025-03-08T13:45:58Z</time>
      </trkpt>
      <trkpt lat="44.41708" lon="1.32844">
        <ele>261.2</ele>
        <time>2025-03-08T13:45:59Z</time>
      </trkpt>
      <trkpt lat="44.41712" lon="1.32847">
        <ele>260.2</ele>
        <time>2025-03-08T13:46:00Z</time>
      </trkpt>
      <trkpt lat="44.41715" lon="1.32849">
        <ele>259.2</ele>
        <time>2025-03-08T13:46:01Z</time>
      </trkpt>
      <trkpt lat="44.41717" lon="1.32853">
        <ele>258.2</ele>
        <time>2025-03-08T13:46:02Z</time>
      </trkpt>
      <trkpt lat="44.41718" lon="1.32855">
        <ele>258.2</ele>
        <time>2025-03-08T13:46:03Z</time>
      </trkpt>
      <trkpt lat="44.4172" lon="1.32858">
        <ele>257.2</ele>
        <time>2025-03-08T13:46:04Z</time>
      </trkpt>
      <trkpt lat="44.41723" lon="1.3286">
        <ele>257.2</ele>
        <time>2025-03-08T13:46:05Z</time>
      </trkpt>
      <trkpt lat="44.41724" lon="1.32862">
        <ele>256.2</ele>
        <time>2025-03-08T13:46:06Z</time>
      </trkpt>
      <trkpt lat="44.41725" lon="1.32864">
        <ele>256.1</ele>
        <time>2025-03-08T13:46:07Z</time>
      </trkpt>
      <trkpt lat="44.41726" lon="1.32869">
        <ele>255.6</ele>
        <time>2025-03-08T13:46:08Z</time>
      </trkpt>
      <trkpt lat="44.41727" lon="1.32871">
        <ele>254.5</ele>
        <time>2025-03-08T13:46:09Z</time>
      </trkpt>
      <trkpt lat="44.41729" lon="1.32872">
        <ele>254.1</ele>
        <time>2025-03-08T13:46:10Z</time>
      </trkpt>
      <trkpt lat="44.41732" lon="1.32873">
        <ele>254.1</ele>
        <time>2025-03-08T13:46:11Z</time>
      </trkpt>
      <trkpt lat="44.41735" lon="1.32874">
        <ele>253.3</ele>
        <time>2025-03-08T13:46:12Z</time>
      </trkpt>
      <trkpt lat="44.41739" lon="1.32876">
        <ele>252.4</ele>
        <time>2025-03-08T13:46:13Z</time>
      </trkpt>
      <trkpt lat="44.41743" lon="1.32876">
        <ele>252.1</ele>
        <time>2025-03-08T13:46:14Z</time>
      </trkpt>
      <trkpt lat="44.41745" lon="1.32874">
        <ele>252.4</ele>
        <time>2025-03-08T13:46:15Z</time>
      </trkpt>
      <trkpt lat="44.41749" lon="1.32873">
        <ele>252.2</ele>
        <time>2025-03-08T13:46:16Z</time>
      </trkpt>
      <trkpt lat="44.41751" lon="1.32873">
        <ele>252.1</ele>
        <time>2025-03-08T13:46:17Z</time>
      </trkpt>
      <trkpt lat="44.41754" lon="1.32872">
        <ele>251.9</ele>
        <time>2025-03-08T13:46:18Z</time>
      </trkpt>
      <trkpt lat="44.41757" lon="1.3287">
        <ele>252.3</ele>
        <time>2025-03-08T13:46:19Z</time>
      </trkpt>
      <trkpt lat="44.4176" lon="1.32867">
        <ele>252.2</ele>
        <time>2025-03-08T13:46:20Z</time>
      </trkpt>
      <trkpt lat="44.41762" lon="1.32863">
        <ele>252.7</ele>
        <time>2025-03-08T13:46:21Z</time>
      </trkpt>
      <trkpt lat="44.41764" lon="1.3286">
        <ele>253.1</ele>
        <time>2025-03-08T13:46:22Z</time>
      </trkpt>
      <trkpt lat="44.41767" lon="1.32859">
        <ele>253</ele>
        <time>2025-03-08T13:46:23Z</time>
      </trkpt>
      <trkpt lat="44.4177" lon="1.3286">
        <ele>253</ele>
        <time>2025-03-08T13:46:24Z</time>
      </trkpt>
      <trkpt lat="44.41772" lon="1.32862">
        <ele>252.5</ele>
        <time>2025-03-08T13:46:25Z</time>
      </trkpt>
      <trkpt lat="44.41773" lon="1.32868">
        <ele>252.1</ele>
        <time>2025-03-08T13:46:26Z</time>
      </trkpt>
      <trkpt lat="44.41773" lon="1.3287">
        <ele>252.1</ele>
        <time>2025-03-08T13:46:27Z</time>
      </trkpt>
      <trkpt lat="44.41773" lon="1.32875">
        <ele>251.2</ele>
        <time>2025-03-08T13:46:28Z</time>
      </trkpt>
      <trkpt lat="44.41773" lon="1.32876">
        <ele>251.2</ele>
        <time>2025-03-08T13:46:29Z</time>
      </trkpt>
      <trkpt lat="44.41775" lon="1.32879">
        <ele>250.8</ele>
        <time>2025-03-08T13:46:30Z</time>
      </trkpt>
      <trkpt lat="44.41776" lon="1.32884">
        <ele>250.6</ele>
        <time>2025-03-08T13:46:31Z</time>
      </trkpt>
      <trkpt lat="44.41775" lon="1.32889">
        <ele>250.1</ele>
        <time>2025-03-08T13:46:32Z</time>
      </trkpt>
      <trkpt lat="44.41772" lon="1.32893">
        <ele>249.7</ele>
        <time>2025-03-08T13:46:33Z</time>
      </trkpt>
      <trkpt lat="44.41771" lon="1.32897">
        <ele>249.2</ele>
        <time>2025-03-08T13:46:34Z</time>
      </trkpt>
      <trkpt lat="44.4177" lon="1.32902">
        <ele>248.8</ele>
        <time>2025-03-08T13:46:35Z</time>
      </trkpt>
      <trkpt lat="44.41769" lon="1.32906">
        <ele>248.3</ele>
        <time>2025-03-08T13:46:36Z</time>
      </trkpt>
      <trkpt lat="44.41766" lon="1.32909">
        <ele>247.9</ele>
        <time>2025-03-08T13:46:37Z</time>
      </trkpt>
      <trkpt lat="44.41763" lon="1.32911">
        <ele>247.8</ele>
        <time>2025-03-08T13:46:38Z</time>
      </trkpt>
      <trkpt lat="44.41761" lon="1.32913">
        <ele>247.2</ele>
        <time>2025-03-08T13:46:39Z</time>
      </trkpt>
      <trkpt lat="44.4176" lon="1.32918">
        <ele>246.7</ele>
        <time>2025-03-08T13:46:40Z</time>
      </trkpt>
      <trkpt lat="44.4176" lon="1.3292">
        <ele>246.7</ele>
        <time>2025-03-08T13:46:41Z</time>
      </trkpt>
      <trkpt lat="44.41762" lon="1.32923">
        <ele>246.2</ele>
        <time>2025-03-08T13:46:42Z</time>
      </trkpt>
      <trkpt lat="44.41764" lon="1.32926">
        <ele>245.9</ele>
        <time>2025-03-08T13:46:43Z</time>
      </trkpt>
      <trkpt lat="44.41765" lon="1.3293">
        <ele>245.9</ele>
        <time>2025-03-08T13:46:44Z</time>
      </trkpt>
      <trkpt lat="44.41765" lon="1.32931">
        <ele>245.5</ele>
        <time>2025-03-08T13:46:45Z</time>
      </trkpt>
      <trkpt lat="44.41764" lon="1.32937">
        <ele>244.9</ele>
        <time>2025-03-08T13:46:46Z</time>
      </trkpt>
      <trkpt lat="44.41764" lon="1.32938">
        <ele>244.9</ele>
        <time>2025-03-08T13:46:47Z</time>
      </trkpt>
      <trkpt lat="44.41763" lon="1.32944">
        <ele>244.2</ele>
        <time>2025-03-08T13:46:48Z</time>
      </trkpt>
      <trkpt lat="44.41763" lon="1.32945">
        <ele>244.2</ele>
        <time>2025-03-08T13:46:49Z</time>
      </trkpt>
      <trkpt lat="44.41763" lon="1.3295">
        <ele>243.8</ele>
        <time>2025-03-08T13:46:50Z</time>
      </trkpt>
      <trkpt lat="44.41762" lon="1.32951">
        <ele>243.6</ele>
        <time>2025-03-08T13:46:51Z</time>
      </trkpt>
      <trkpt lat="44.4176" lon="1.32952">
        <ele>243.2</ele>
        <time>2025-03-08T13:46:52Z</time>
      </trkpt>
      <trkpt lat="44.41756" lon="1.32953">
        <ele>242.7</ele>
        <time>2025-03-08T13:46:53Z</time>
      </trkpt>
      <trkpt lat="44.41754" lon="1.32955">
        <ele>242.5</ele>
        <time>2025-03-08T13:46:54Z</time>
      </trkpt>
      <trkpt lat="44.4175" lon="1.32958">
        <ele>241.9</ele>
        <time>2025-03-08T13:46:55Z</time>
      </trkpt>
      <trkpt lat="44.41749" lon="1.32959">
        <ele>241.9</ele>
        <time>2025-03-08T13:46:56Z</time>
      </trkpt>
      <trkpt lat="44.41747" lon="1.32963">
        <ele>241.2</ele>
        <time>2025-03-08T13:46:57Z</time>
      </trkpt>
      <trkpt lat="44.41745" lon="1.32968">
        <ele>240.8</ele>
        <time>2025-03-08T13:46:58Z</time>
      </trkpt>
      <trkpt lat="44.41745" lon="1.32973">
        <ele>239.9</ele>
        <time>2025-03-08T13:46:59Z</time>
      </trkpt>
      <trkpt lat="44.41745" lon="1.32975">
        <ele>239.9</ele>
        <time>2025-03-08T13:47:00Z</time>
      </trkpt>
      <trkpt lat="44.41747" lon="1.32978">
        <ele>239.6</ele>
        <time>2025-03-08T13:47:01Z</time>
      </trkpt>
      <trkpt lat="44.41748" lon="1.32982">
        <ele>239.8</ele>
        <time>2025-03-08T13:47:02Z</time>
      </trkpt>
      <trkpt lat="44.4175" lon="1.32985">
        <ele>239.5</ele>
        <time>2025-03-08T13:47:03Z</time>
      </trkpt>
      <trkpt lat="44.41751" lon="1.3299">
        <ele>239.5</ele>
        <time>2025-03-08T13:47:04Z</time>
      </trkpt>
      <trkpt lat="44.41752" lon="1.32994">
        <ele>239.2</ele>
        <time>2025-03-08T13:47:05Z</time>
      </trkpt>
      <trkpt lat="44.41752" lon="1.32998">
        <ele>238.9</ele>
        <time>2025-03-08T13:47:06Z</time>
      </trkpt>
      <trkpt lat="44.41752" lon="1.32999">
        <ele>238.9</ele>
        <time>2025-03-08T13:47:07Z</time>
      </trkpt>
      <trkpt lat="44.41752" lon="1.33001">
        <ele>238.6</ele>
        <time>2025-03-08T13:47:08Z</time>
      </trkpt>
      <trkpt lat="44.41752" lon="1.33003">
        <ele>238.6</ele>
        <time>2025-03-08T13:47:09Z</time>
      </trkpt>
      <trkpt lat="44.41752" lon="1.33003">
        <ele>238.6</ele>
        <time>2025-03-08T13:47:10Z</time>
      </trkpt>
      <trkpt lat="44.41752" lon="1.33003">
        <ele>238.6</ele>
        <time>2025-03-08T13:47:11Z</time>
      </trkpt>
      <trkpt lat="44.41752" lon="1.33002">
        <ele>238.6</ele>
        <time>2025-03-08T13:47:12Z</time>
      </trkpt>
      <trkpt lat="44.41752" lon="1.33002">
        <ele>238.6</ele>
        <time>2025-03-08T13:47:13Z</time>
      </trkpt>
      <trkpt lat="44.41752" lon="1.33001">
        <ele>238.5</ele>
        <time>2025-03-08T13:47:14Z</time>
      </trkpt>
      <trkpt lat="44.41752" lon="1.33001">
        <ele>238.5</ele>
        <time>2025-03-08T13:47:15Z</time>
      </trkpt>
      <trkpt lat="44.41752" lon="1.33001">
        <ele>238.5</ele>
        <time>2025-03-08T13:47:16Z</time>
      </trkpt>
      <trkpt lat="44.41752" lon="1.33001">
        <ele>238.5</ele>
        <time>2025-03-08T13:47:17Z</time>
      </trkpt>
      <trkpt lat="44.41752" lon="1.33001">
        <ele>238.5</ele>
        <time>2025-03-08T13:47:18Z</time>
      </trkpt>
      <trkpt lat="44.41752" lon="1.33001">
        <ele>238.5</ele>
        <time>2025-03-08T13:47:19Z</time>
      </trkpt>
      <trkpt lat="44.41752" lon="1.33001">
        <ele>238.5</ele>
        <time>2025-03-08T13:47:20Z</time>
      </trkpt>
      <trkpt lat="44.41752" lon="1.33001">
        <ele>238.5</ele>
        <time>2025-03-08T13:47:21Z</time>
      </trkpt>
      <trkpt lat="44.41752" lon="1.33001">
        <ele>238.5</ele>
        <time>2025-03-08T13:47:22Z</time>
      </trkpt>
      <trkpt lat="44.41752" lon="1.33001">
        <ele>238.5</ele>
        <time>2025-03-08T13:47:23Z</time>
      </trkpt>
      <trkpt lat="44.41752" lon="1.33001">
        <ele>238.5</ele>
        <time>2025-03-08T13:47:24Z</time>
      </trkpt>
      <trkpt lat="44.41752" lon="1.33001">
        <ele>238.5</ele>
        <time>2025-03-08T13:47:25Z</time>
      </trkpt>
      <trkpt lat="44.41752" lon="1.33001">
        <ele>238.4</ele>
        <time>2025-03-08T13:47:26Z</time>
      </trkpt>
      <trkpt lat="44.41752" lon="1.33001">
        <ele>238.4</ele>
        <time>2025-03-08T13:47:27Z</time>
      </trkpt>
      <trkpt lat="44.41752" lon="1.33001">
        <ele>238.4</ele>
        <time>2025-03-08T13:47:28Z</time>
      </trkpt>
      <trkpt lat="44.41752" lon="1.33001">
        <ele>238.4</ele>
        <time>2025-03-08T13:47:29Z</time>
      </trkpt>
      <trkpt lat="44.41752" lon="1.33001">
        <ele>238.4</ele>
        <time>2025-03-08T13:47:30Z</time>
      </trkpt>
      <trkpt lat="44.41752" lon="1.33001">
        <ele>238.4</ele>
        <time>2025-03-08T13:47:31Z</time>
      </trkpt>
      <trkpt lat="44.41752" lon="1.33001">
        <ele>238.4</ele>
        <time>2025-03-08T13:47:32Z</time>
      </trkpt>
      <trkpt lat="44.41752" lon="1.33001">
        <ele>238.4</ele>
        <time>2025-03-08T13:47:33Z</time>
      </trkpt>
      <trkpt lat="44.41752" lon="1.33001">
        <ele>238.4</ele>
        <time>2025-03-08T13:47:34Z</time>
      </trkpt>
      <trkpt lat="44.41752" lon="1.33001">
        <ele>238.4</ele>
        <time>2025-03-08T13:47:35Z</time>
      </trkpt>
      <trkpt lat="44.41752" lon="1.33001">
        <ele>238.4</ele>
        <time>2025-03-08T13:47:36Z</time>
      </trkpt>
      <trkpt lat="44.41752" lon="1.33001">
        <ele>238.4</ele>
        <time>2025-03-08T13:47:37Z</time>
      </trkpt>
      <trkpt lat="44.41752" lon="1.33001">
        <ele>238.3</ele>
        <time>2025-03-08T13:47:38Z</time>
      </trkpt>
      <trkpt lat="44.41752" lon="1.33001">
        <ele>238.3</ele>
        <time>2025-03-08T13:47:39Z</time>
      </trkpt>
      <trkpt lat="44.41752" lon="1.33001">
        <ele>238.3</ele>
        <time>2025-03-08T13:47:40Z</time>
      </trkpt>
      <trkpt lat="44.41752" lon="1.33001">
        <ele>238.3</ele>
        <time>2025-03-08T13:47:41Z</time>
      </trkpt>
      <trkpt lat="44.41752" lon="1.33001">
        <ele>238.3</ele>
        <time>2025-03-08T13:47:42Z</time>
      </trkpt>
      <trkpt lat="44.41752" lon="1.33001">
        <ele>238.3</ele>
        <time>2025-03-08T13:47:43Z</time>
      </trkpt>
      <trkpt lat="44.41752" lon="1.33001">
        <ele>238.3</ele>
        <time>2025-03-08T13:47:44Z</time>
      </trkpt>
      <trkpt lat="44.41752" lon="1.33001">
        <ele>238.3</ele>
        <time>2025-03-08T13:47:45Z</time>
      </trkpt>
      <trkpt lat="44.41752" lon="1.33001">
        <ele>238.3</ele>
        <time>2025-03-08T13:47:46Z</time>
      </trkpt>
      <trkpt lat="44.41752" lon="1.33001">
        <ele>238.3</ele>
        <time>2025-03-08T13:47:47Z</time>
      </trkpt>
      <trkpt lat="44.41752" lon="1.33001">
        <ele>238.3</ele>
        <time>2025-03-08T13:47:48Z</time>
      </trkpt>
      <trkpt lat="44.41752" lon="1.33001">
        <ele>238.3</ele>
        <time>2025-03-08T13:47:49Z</time>
      </trkpt>
      <trkpt lat="44.41752" lon="1.33001">
        <ele>238.2</ele>
        <time>2025-03-08T13:47:50Z</time>
      </trkpt>
      <trkpt lat="44.41752" lon="1.33001">
        <ele>238.2</ele>
        <time>2025-03-08T13:47:51Z</time>
      </trkpt>
      <trkpt lat="44.41752" lon="1.33001">
        <ele>238.2</ele>
        <time>2025-03-08T13:47:52Z</time>
      </trkpt>
      <trkpt lat="44.41752" lon="1.33001">
        <ele>238.2</ele>
        <time>2025-03-08T13:47:53Z</time>
      </trkpt>
      <trkpt lat="44.41752" lon="1.33001">
        <ele>238.2</ele>
        <time>2025-03-08T13:47:54Z</time>
      </trkpt>
      <trkpt lat="44.41752" lon="1.33001">
        <ele>238.2</ele>
        <time>2025-03-08T13:47:55Z</time>
      </trkpt>
      <trkpt lat="44.41752" lon="1.33001">
        <ele>238.2</ele>
        <time>2025-03-08T13:47:56Z</time>
      </trkpt>
      <trkpt lat="44.41752" lon="1.33001">
        <ele>238.2</ele>
        <time>2025-03-08T13:47:57Z</time>
      </trkpt>
      <trkpt lat="44.41752" lon="1.33006">
        <ele>237.9</ele>
        <time>2025-03-08T13:47:58Z</time>
      </trkpt>
      <trkpt lat="44.41752" lon="1.33008">
        <ele>237.9</ele>
        <time>2025-03-08T13:47:59Z</time>
      </trkpt>
      <trkpt lat="44.41752" lon="1.33008">
        <ele>237.7</ele>
        <time>2025-03-08T13:48:00Z</time>
      </trkpt>
      <trkpt lat="44.41752" lon="1.33008">
        <ele>237.7</ele>
        <time>2025-03-08T13:48:01Z</time>
      </trkpt>
      <trkpt lat="44.41752" lon="1.33008">
        <ele>237.7</ele>
        <time>2025-03-08T13:48:02Z</time>
      </trkpt>
      <trkpt lat="44.41752" lon="1.33008">
        <ele>237.7</ele>
        <time>2025-03-08T13:48:03Z</time>
      </trkpt>
      <trkpt lat="44.41752" lon="1.33008">
        <ele>237.7</ele>
        <time>2025-03-08T13:48:04Z</time>
      </trkpt>
      <trkpt lat="44.41752" lon="1.33008">
        <ele>237.6</ele>
        <time>2025-03-08T13:48:05Z</time>
      </trkpt>
      <trkpt lat="44.41752" lon="1.33008">
        <ele>237.6</ele>
        <time>2025-03-08T13:48:06Z</time>
      </trkpt>
      <trkpt lat="44.41752" lon="1.33008">
        <ele>237.6</ele>
        <time>2025-03-08T13:48:07Z</time>
      </trkpt>
      <trkpt lat="44.41752" lon="1.33008">
        <ele>237.6</ele>
        <time>2025-03-08T13:48:08Z</time>
      </trkpt>
      <trkpt lat="44.41752" lon="1.33008">
        <ele>237.6</ele>
        <time>2025-03-08T13:48:09Z</time>
      </trkpt>
      <trkpt lat="44.41752" lon="1.33008">
        <ele>237.6</ele>
        <time>2025-03-08T13:48:10Z</time>
      </trkpt>
      <trkpt lat="44.41752" lon="1.33008">
        <ele>237.6</ele>
        <time>2025-03-08T13:48:11Z</time>
      </trkpt>
      <trkpt lat="44.41752" lon="1.33008">
        <ele>237.6</ele>
        <time>2025-03-08T13:48:12Z</time>
      </trkpt>
      <trkpt lat="44.41752" lon="1.33008">
        <ele>237.6</ele>
        <time>2025-03-08T13:48:13Z</time>
      </trkpt>
      <trkpt lat="44.41752" lon="1.33008">
        <ele>237.6</ele>
        <time>2025-03-08T13:48:14Z</time>
      </trkpt>
      <trkpt lat="44.41752" lon="1.33008">
        <ele>237.6</ele>
        <time>2025-03-08T13:48:15Z</time>
      </trkpt>
      <trkpt lat="44.41752" lon="1.33008">
        <ele>237.6</ele>
        <time>2025-03-08T13:48:16Z</time>
      </trkpt>
      <trkpt lat="44.41752" lon="1.33008">
        <ele>237.5</ele>
        <time>2025-03-08T13:48:17Z</time>
      </trkpt>
      <trkpt lat="44.41752" lon="1.33008">
        <ele>237.5</ele>
        <time>2025-03-08T13:48:18Z</time>
      </trkpt>
      <trkpt lat="44.41752" lon="1.33008">
        <ele>237.5</ele>
        <time>2025-03-08T13:48:19Z</time>
      </trkpt>
      <trkpt lat="44.41752" lon="1.33008">
        <ele>237.5</ele>
        <time>2025-03-08T13:48:20Z</time>
      </trkpt>
      <trkpt lat="44.41752" lon="1.33008">
        <ele>237.5</ele>
        <time>2025-03-08T13:48:21Z</time>
      </trkpt>
      <trkpt lat="44.41752" lon="1.33008">
        <ele>237.5</ele>
        <time>2025-03-08T13:48:22Z</time>
      </trkpt>
      <trkpt lat="44.41752" lon="1.33008">
        <ele>237.5</ele>
        <time>2025-03-08T13:48:23Z</time>
      </trkpt>
      <trkpt lat="44.41752" lon="1.33008">
        <ele>237.5</ele>
        <time>2025-03-08T13:48:24Z</time>
      </trkpt>
      <trkpt lat="44.41752" lon="1.33008">
        <ele>237.5</ele>
        <time>2025-03-08T13:48:25Z</time>
      </trkpt>
      <trkpt lat="44.41752" lon="1.33008">
        <ele>237.5</ele>
        <time>2025-03-08T13:48:26Z</time>
      </trkpt>
      <trkpt lat="44.41752" lon="1.33008">
        <ele>237.5</ele>
        <time>2025-03-08T13:48:27Z</time>
      </trkpt>
      <trkpt lat="44.41752" lon="1.33008">
        <ele>237.4</ele>
        <time>2025-03-08T13:48:28Z</time>
      </trkpt>
      <trkpt lat="44.41752" lon="1.33008">
        <ele>237.4</ele>
        <time>2025-03-08T13:48:29Z</time>
      </trkpt>
      <trkpt lat="44.41752" lon="1.33008">
        <ele>237.4</ele>
        <time>2025-03-08T13:48:30Z</time>
      </trkpt>
      <trkpt lat="44.41752" lon="1.33008">
        <ele>237.4</ele>
        <time>2025-03-08T13:48:31Z</time>
      </trkpt>
      <trkpt lat="44.41752" lon="1.33008">
        <ele>237.4</ele>
        <time>2025-03-08T13:48:32Z</time>
      </trkpt>
      <trkpt lat="44.41752" lon="1.33008">
        <ele>237.4</ele>
        <time>2025-03-08T13:48:33Z</time>
      </trkpt>
      <trkpt lat="44.41752" lon="1.33007">
        <ele>237.6</ele>
        <time>2025-03-08T13:48:34Z</time>
      </trkpt>
      <trkpt lat="44.41751" lon="1.33013">
        <ele>237.2</ele>
        <time>2025-03-08T13:48:36Z</time>
      </trkpt>
      <trkpt lat="44.4175" lon="1.33018">
        <ele>236.7</ele>
        <time>2025-03-08T13:48:37Z</time>
      </trkpt>
      <trkpt lat="44.4175" lon="1.33023">
        <ele>236.5</ele>
        <time>2025-03-08T13:48:38Z</time>
      </trkpt>
      <trkpt lat="44.41749" lon="1.33027">
        <ele>236.4</ele>
        <time>2025-03-08T13:48:39Z</time>
      </trkpt>
      <trkpt lat="44.41749" lon="1.33032">
        <ele>236.3</ele>
        <time>2025-03-08T13:48:40Z</time>
      </trkpt>
      <trkpt lat="44.41748" lon="1.33037">
        <ele>236.2</ele>
        <time>2025-03-08T13:48:41Z</time>
      </trkpt>
      <trkpt lat="44.41747" lon="1.33043">
        <ele>235.7</ele>
        <time>2025-03-08T13:48:42Z</time>
      </trkpt>
      <trkpt lat="44.41747" lon="1.33048">
        <ele>235.6</ele>
        <time>2025-03-08T13:48:43Z</time>
      </trkpt>
      <trkpt lat="44.41747" lon="1.33053">
        <ele>235.5</ele>
        <time>2025-03-08T13:48:44Z</time>
      </trkpt>
      <trkpt lat="44.41747" lon="1.33058">
        <ele>235.4</ele>
        <time>2025-03-08T13:48:45Z</time>
      </trkpt>
      <trkpt lat="44.41748" lon="1.33063">
        <ele>235.8</ele>
        <time>2025-03-08T13:48:46Z</time>
      </trkpt>
      <trkpt lat="44.41748" lon="1.33068">
        <ele>235.7</ele>
        <time>2025-03-08T13:48:47Z</time>
      </trkpt>
      <trkpt lat="44.41749" lon="1.33074">
        <ele>235.7</ele>
        <time>2025-03-08T13:48:48Z</time>
      </trkpt>
      <trkpt lat="44.4175" lon="1.33079">
        <ele>235.6</ele>
        <time>2025-03-08T13:48:49Z</time>
      </trkpt>
      <trkpt lat="44.41751" lon="1.33083">
        <ele>235.5</ele>
        <time>2025-03-08T13:48:50Z</time>
      </trkpt>
      <trkpt lat="44.41752" lon="1.33088">
        <ele>235.9</ele>
        <time>2025-03-08T13:48:51Z</time>
      </trkpt>
      <trkpt lat="44.41753" lon="1.33093">
        <ele>235.8</ele>
        <time>2025-03-08T13:48:52Z</time>
      </trkpt>
      <trkpt lat="44.41754" lon="1.33098">
        <ele>236</ele>
        <time>2025-03-08T13:48:53Z</time>
      </trkpt>
      <trkpt lat="44.41755" lon="1.33103">
        <ele>235.8</ele>
        <time>2025-03-08T13:48:54Z</time>
      </trkpt>
      <trkpt lat="44.41756" lon="1.33108">
        <ele>235.6</ele>
        <time>2025-03-08T13:48:55Z</time>
      </trkpt>
      <trkpt lat="44.41757" lon="1.33113">
        <ele>235.8</ele>
        <time>2025-03-08T13:48:56Z</time>
      </trkpt>
      <trkpt lat="44.41758" lon="1.33118">
        <ele>235.6</ele>
        <time>2025-03-08T13:48:57Z</time>
      </trkpt>
      <trkpt lat="44.41758" lon="1.33123">
        <ele>235.4</ele>
        <time>2025-03-08T13:48:58Z</time>
      </trkpt>
      <trkpt lat="44.41758" lon="1.33129">
        <ele>234.9</ele>
        <time>2025-03-08T13:48:59Z</time>
      </trkpt>
      <trkpt lat="44.41759" lon="1.33135">
        <ele>234.6</ele>
        <time>2025-03-08T13:49:00Z</time>
      </trkpt>
      <trkpt lat="44.4176" lon="1.33141">
        <ele>234</ele>
        <time>2025-03-08T13:49:01Z</time>
      </trkpt>
      <trkpt lat="44.4176" lon="1.33147">
        <ele>234.1</ele>
        <time>2025-03-08T13:49:02Z</time>
      </trkpt>
      <trkpt lat="44.41761" lon="1.33152">
        <ele>233.8</ele>
        <time>2025-03-08T13:49:03Z</time>
      </trkpt>
      <trkpt lat="44.41761" lon="1.33159">
        <ele>233.1</ele>
        <time>2025-03-08T13:49:04Z</time>
      </trkpt>
      <trkpt lat="44.41761" lon="1.33165">
        <ele>232.8</ele>
        <time>2025-03-08T13:49:05Z</time>
      </trkpt>
      <trkpt lat="44.41762" lon="1.33171">
        <ele>232.1</ele>
        <time>2025-03-08T13:49:06Z</time>
      </trkpt>
      <trkpt lat="44.41763" lon="1.33178">
        <ele>231.8</ele>
        <time>2025-03-08T13:49:07Z</time>
      </trkpt>
      <trkpt lat="44.41763" lon="1.33186">
        <ele>231.4</ele>
        <time>2025-03-08T13:49:08Z</time>
      </trkpt>
      <trkpt lat="44.41764" lon="1.33194">
        <ele>230.5</ele>
        <time>2025-03-08T13:49:09Z</time>
      </trkpt>
      <trkpt lat="44.41765" lon="1.33203">
        <ele>229.6</ele>
        <time>2025-03-08T13:49:10Z</time>
      </trkpt>
      <trkpt lat="44.41767" lon="1.33212">
        <ele>229</ele>
        <time>2025-03-08T13:49:11Z</time>
      </trkpt>
      <trkpt lat="44.41768" lon="1.33221">
        <ele>227.9</ele>
        <time>2025-03-08T13:49:12Z</time>
      </trkpt>
      <trkpt lat="44.41769" lon="1.33229">
        <ele>226.8</ele>
        <time>2025-03-08T13:49:13Z</time>
      </trkpt>
      <trkpt lat="44.41771" lon="1.33238">
        <ele>226.1</ele>
        <time>2025-03-08T13:49:14Z</time>
      </trkpt>
      <trkpt lat="44.41773" lon="1.33247">
        <ele>225.5</ele>
        <time>2025-03-08T13:49:15Z</time>
      </trkpt>
      <trkpt lat="44.41774" lon="1.33256">
        <ele>224.7</ele>
        <time>2025-03-08T13:49:16Z</time>
      </trkpt>
      <trkpt lat="44.41776" lon="1.33264">
        <ele>224.3</ele>
        <time>2025-03-08T13:49:17Z</time>
      </trkpt>
      <trkpt lat="44.41778" lon="1.33272">
        <ele>223.6</ele>
        <time>2025-03-08T13:49:18Z</time>
      </trkpt>
      <trkpt lat="44.41779" lon="1.33281">
        <ele>223.1</ele>
        <time>2025-03-08T13:49:19Z</time>
      </trkpt>
      <trkpt lat="44.4178" lon="1.33289">
        <ele>222.5</ele>
        <time>2025-03-08T13:49:20Z</time>
      </trkpt>
      <trkpt lat="44.41781" lon="1.33296">
        <ele>222.1</ele>
        <time>2025-03-08T13:49:21Z</time>
      </trkpt>
      <trkpt lat="44.41782" lon="1.33303">
        <ele>222.1</ele>
        <time>2025-03-08T13:49:22Z</time>
      </trkpt>
      <trkpt lat="44.41782" lon="1.33309">
        <ele>221.9</ele>
        <time>2025-03-08T13:49:23Z</time>
      </trkpt>
      <trkpt lat="44.41782" lon="1.33315">
        <ele>221.9</ele>
        <time>2025-03-08T13:49:24Z</time>
      </trkpt>
      <trkpt lat="44.41783" lon="1.33319">
        <ele>221.9</ele>
        <time>2025-03-08T13:49:25Z</time>
      </trkpt>
      <trkpt lat="44.41783" lon="1.33324">
        <ele>222</ele>
        <time>2025-03-08T13:49:26Z</time>
      </trkpt>
      <trkpt lat="44.41783" lon="1.33325">
        <ele>222.1</ele>
        <time>2025-03-08T13:49:27Z</time>
      </trkpt>
      <trkpt lat="44.41783" lon="1.3333">
        <ele>222.2</ele>
        <time>2025-03-08T13:49:28Z</time>
      </trkpt>
      <trkpt lat="44.41783" lon="1.33332">
        <ele>222.2</ele>
        <time>2025-03-08T13:49:29Z</time>
      </trkpt>
      <trkpt lat="44.41785" lon="1.33335">
        <ele>222.4</ele>
        <time>2025-03-08T13:49:30Z</time>
      </trkpt>
      <trkpt lat="44.41786" lon="1.33336">
        <ele>222.4</ele>
        <time>2025-03-08T13:49:31Z</time>
      </trkpt>
      <trkpt lat="44.41789" lon="1.33337">
        <ele>222.4</ele>
        <time>2025-03-08T13:49:32Z</time>
      </trkpt>
      <trkpt lat="44.41792" lon="1.33337">
        <ele>222.3</ele>
        <time>2025-03-08T13:49:33Z</time>
      </trkpt>
      <trkpt lat="44.41796" lon="1.33337">
        <ele>222.1</ele>
        <time>2025-03-08T13:49:34Z</time>
      </trkpt>
      <trkpt lat="44.418" lon="1.33337">
        <ele>221.9</ele>
        <time>2025-03-08T13:49:35Z</time>
      </trkpt>
      <trkpt lat="44.41804" lon="1.33338">
        <ele>221.8</ele>
        <time>2025-03-08T13:49:36Z</time>
      </trkpt>
      <trkpt lat="44.41808" lon="1.33339">
        <ele>221.6</ele>
        <time>2025-03-08T13:49:37Z</time>
      </trkpt>
      <trkpt lat="44.41812" lon="1.3334">
        <ele>221.5</ele>
        <time>2025-03-08T13:49:38Z</time>
      </trkpt>
      <trkpt lat="44.41816" lon="1.33341">
        <ele>221.3</ele>
        <time>2025-03-08T13:49:39Z</time>
      </trkpt>
      <trkpt lat="44.41819" lon="1.33342">
        <ele>221.2</ele>
        <time>2025-03-08T13:49:40Z</time>
      </trkpt>
      <trkpt lat="44.41823" lon="1.33342">
        <ele>221.1</ele>
        <time>2025-03-08T13:49:41Z</time>
      </trkpt>
      <trkpt lat="44.41827" lon="1.33343">
        <ele>221</ele>
        <time>2025-03-08T13:49:42Z</time>
      </trkpt>
      <trkpt lat="44.4183" lon="1.33345">
        <ele>220.9</ele>
        <time>2025-03-08T13:49:43Z</time>
      </trkpt>
      <trkpt lat="44.41835" lon="1.33349">
        <ele>220.7</ele>
        <time>2025-03-08T13:49:44Z</time>
      </trkpt>
      <trkpt lat="44.4184" lon="1.33353">
        <ele>220.5</ele>
        <time>2025-03-08T13:49:45Z</time>
      </trkpt>
      <trkpt lat="44.41845" lon="1.33356">
        <ele>220.3</ele>
        <time>2025-03-08T13:49:46Z</time>
      </trkpt>
      <trkpt lat="44.41849" lon="1.33359">
        <ele>220.2</ele>
        <time>2025-03-08T13:49:47Z</time>
      </trkpt>
      <trkpt lat="44.41852" lon="1.33362">
        <ele>220</ele>
        <time>2025-03-08T13:49:48Z</time>
      </trkpt>
      <trkpt lat="44.41856" lon="1.33365">
        <ele>219.9</ele>
        <time>2025-03-08T13:49:49Z</time>
      </trkpt>
      <trkpt lat="44.41859" lon="1.33369">
        <ele>219.8</ele>
        <time>2025-03-08T13:49:50Z</time>
      </trkpt>
      <trkpt lat="44.41864" lon="1.33372">
        <ele>219.7</ele>
        <time>2025-03-08T13:49:51Z</time>
      </trkpt>
      <trkpt lat="44.41868" lon="1.33375">
        <ele>219.5</ele>
        <time>2025-03-08T13:49:52Z</time>
      </trkpt>
      <trkpt lat="44.41871" lon="1.33379">
        <ele>219.3</ele>
        <time>2025-03-08T13:49:53Z</time>
      </trkpt>
      <trkpt lat="44.41875" lon="1.33381">
        <ele>219.2</ele>
        <time>2025-03-08T13:49:54Z</time>
      </trkpt>
      <trkpt lat="44.41878" lon="1.33384">
        <ele>219.1</ele>
        <time>2025-03-08T13:49:55Z</time>
      </trkpt>
      <trkpt lat="44.41881" lon="1.33386">
        <ele>219</ele>
        <time>2025-03-08T13:49:56Z</time>
      </trkpt>
      <trkpt lat="44.41885" lon="1.33389">
        <ele>218.9</ele>
        <time>2025-03-08T13:49:57Z</time>
      </trkpt>
      <trkpt lat="44.41889" lon="1.33393">
        <ele>218.7</ele>
        <time>2025-03-08T13:49:58Z</time>
      </trkpt>
      <trkpt lat="44.41892" lon="1.33396">
        <ele>218.6</ele>
        <time>2025-03-08T13:49:59Z</time>
      </trkpt>
      <trkpt lat="44.41896" lon="1.334">
        <ele>218.5</ele>
        <time>2025-03-08T13:50:00Z</time>
      </trkpt>
      <trkpt lat="44.419" lon="1.33404">
        <ele>218.4</ele>
        <time>2025-03-08T13:50:01Z</time>
      </trkpt>
      <trkpt lat="44.41904" lon="1.33409">
        <ele>218.3</ele>
        <time>2025-03-08T13:50:02Z</time>
      </trkpt>
      <trkpt lat="44.41907" lon="1.33414">
        <ele>218.1</ele>
        <time>2025-03-08T13:50:03Z</time>
      </trkpt>
      <trkpt lat="44.41911" lon="1.33419">
        <ele>218</ele>
        <time>2025-03-08T13:50:04Z</time>
      </trkpt>
      <trkpt lat="44.41914" lon="1.33423">
        <ele>217.8</ele>
        <time>2025-03-08T13:50:05Z</time>
      </trkpt>
      <trkpt lat="44.41916" lon="1.33426">
        <ele>217.7</ele>
        <time>2025-03-08T13:50:06Z</time>
      </trkpt>
      <trkpt lat="44.41919" lon="1.3343">
        <ele>217.6</ele>
        <time>2025-03-08T13:50:07Z</time>
      </trkpt>
      <trkpt lat="44.41923" lon="1.33435">
        <ele>217.5</ele>
        <time>2025-03-08T13:50:08Z</time>
      </trkpt>
      <trkpt lat="44.41927" lon="1.33439">
        <ele>217.3</ele>
        <time>2025-03-08T13:50:09Z</time>
      </trkpt>
      <trkpt lat="44.41932" lon="1.33444">
        <ele>217.1</ele>
        <time>2025-03-08T13:50:10Z</time>
      </trkpt>
      <trkpt lat="44.41937" lon="1.33448">
        <ele>216.9</ele>
        <time>2025-03-08T13:50:11Z</time>
      </trkpt>
      <trkpt lat="44.41941" lon="1.33452">
        <ele>216.8</ele>
        <time>2025-03-08T13:50:12Z</time>
      </trkpt>
      <trkpt lat="44.41945" lon="1.33456">
        <ele>216.6</ele>
        <time>2025-03-08T13:50:13Z</time>
      </trkpt>
      <trkpt lat="44.41948" lon="1.33461">
        <ele>216.4</ele>
        <time>2025-03-08T13:50:14Z</time>
      </trkpt>
      <trkpt lat="44.41952" lon="1.33465">
        <ele>216.2</ele>
        <time>2025-03-08T13:50:15Z</time>
      </trkpt>
      <trkpt lat="44.41955" lon="1.3347">
        <ele>216.1</ele>
        <time>2025-03-08T13:50:16Z</time>
      </trkpt>
      <trkpt lat="44.41958" lon="1.33474">
        <ele>215.9</ele>
        <time>2025-03-08T13:50:17Z</time>
      </trkpt>
      <trkpt lat="44.41961" lon="1.33479">
        <ele>215.7</ele>
        <time>2025-03-08T13:50:18Z</time>
      </trkpt>
      <trkpt lat="44.41964" lon="1.33485">
        <ele>215.5</ele>
        <time>2025-03-08T13:50:19Z</time>
      </trkpt>
      <trkpt lat="44.41966" lon="1.3349">
        <ele>215.3</ele>
        <time>2025-03-08T13:50:20Z</time>
      </trkpt>
      <trkpt lat="44.41968" lon="1.33496">
        <ele>215.2</ele>
        <time>2025-03-08T13:50:21Z</time>
      </trkpt>
      <trkpt lat="44.41971" lon="1.33502">
        <ele>215</ele>
        <time>2025-03-08T13:50:22Z</time>
      </trkpt>
      <trkpt lat="44.41973" lon="1.33507">
        <ele>214.9</ele>
        <time>2025-03-08T13:50:23Z</time>
      </trkpt>
      <trkpt lat="44.41975" lon="1.33512">
        <ele>214.8</ele>
        <time>2025-03-08T13:50:24Z</time>
      </trkpt>
      <trkpt lat="44.41978" lon="1.33517">
        <ele>214.6</ele>
        <time>2025-03-08T13:50:25Z</time>
      </trkpt>
      <trkpt lat="44.4198" lon="1.33522">
        <ele>214.5</ele>
        <time>2025-03-08T13:50:26Z</time>
      </trkpt>
      <trkpt lat="44.41983" lon="1.33527">
        <ele>214.4</ele>
        <time>2025-03-08T13:50:27Z</time>
      </trkpt>
      <trkpt lat="44.41986" lon="1.33532">
        <ele>214.3</ele>
        <time>2025-03-08T13:50:28Z</time>
      </trkpt>
      <trkpt lat="44.41988" lon="1.33537">
        <ele>214.2</ele>
        <time>2025-03-08T13:50:29Z</time>
      </trkpt>
      <trkpt lat="44.4199" lon="1.33541">
        <ele>214.1</ele>
        <time>2025-03-08T13:50:30Z</time>
      </trkpt>
      <trkpt lat="44.41991" lon="1.33545">
        <ele>214</ele>
        <time>2025-03-08T13:50:31Z</time>
      </trkpt>
      <trkpt lat="44.41993" lon="1.3355">
        <ele>213.8</ele>
        <time>2025-03-08T13:50:32Z</time>
      </trkpt>
      <trkpt lat="44.41995" lon="1.33556">
        <ele>213.6</ele>
        <time>2025-03-08T13:50:33Z</time>
      </trkpt>
      <trkpt lat="44.41998" lon="1.33562">
        <ele>213.4</ele>
        <time>2025-03-08T13:50:34Z</time>
      </trkpt>
      <trkpt lat="44.42" lon="1.33569">
        <ele>213.1</ele>
        <time>2025-03-08T13:50:35Z</time>
      </trkpt>
      <trkpt lat="44.42002" lon="1.33574">
        <ele>212.8</ele>
        <time>2025-03-08T13:50:36Z</time>
      </trkpt>
      <trkpt lat="44.42004" lon="1.33581">
        <ele>212.5</ele>
        <time>2025-03-08T13:50:37Z</time>
      </trkpt>
      <trkpt lat="44.42006" lon="1.33589">
        <ele>212.2</ele>
        <time>2025-03-08T13:50:38Z</time>
      </trkpt>
      <trkpt lat="44.42007" lon="1.33597">
        <ele>212</ele>
        <time>2025-03-08T13:50:39Z</time>
      </trkpt>
      <trkpt lat="44.42009" lon="1.33605">
        <ele>211.7</ele>
        <time>2025-03-08T13:50:40Z</time>
      </trkpt>
      <trkpt lat="44.4201" lon="1.33613">
        <ele>211.5</ele>
        <time>2025-03-08T13:50:41Z</time>
      </trkpt>
      <trkpt lat="44.42011" lon="1.3362">
        <ele>211.3</ele>
        <time>2025-03-08T13:50:42Z</time>
      </trkpt>
      <trkpt lat="44.42012" lon="1.33627">
        <ele>211.2</ele>
        <time>2025-03-08T13:50:43Z</time>
      </trkpt>
      <trkpt lat="44.42012" lon="1.33632">
        <ele>211.2</ele>
        <time>2025-03-08T13:50:44Z</time>
      </trkpt>
      <trkpt lat="44.42013" lon="1.33638">
        <ele>211.2</ele>
        <time>2025-03-08T13:50:45Z</time>
      </trkpt>
      <trkpt lat="44.42014" lon="1.33643">
        <ele>211.1</ele>
        <time>2025-03-08T13:50:46Z</time>
      </trkpt>
      <trkpt lat="44.42016" lon="1.33649">
        <ele>211.1</ele>
        <time>2025-03-08T13:50:47Z</time>
      </trkpt>
      <trkpt lat="44.42018" lon="1.33653">
        <ele>211.1</ele>
        <time>2025-03-08T13:50:48Z</time>
      </trkpt>
      <trkpt lat="44.4202" lon="1.33658">
        <ele>211.1</ele>
        <time>2025-03-08T13:50:49Z</time>
      </trkpt>
      <trkpt lat="44.42022" lon="1.33662">
        <ele>211.1</ele>
        <time>2025-03-08T13:50:50Z</time>
      </trkpt>
      <trkpt lat="44.42025" lon="1.33667">
        <ele>211.1</ele>
        <time>2025-03-08T13:50:51Z</time>
      </trkpt>
      <trkpt lat="44.42028" lon="1.33672">
        <ele>211</ele>
        <time>2025-03-08T13:50:52Z</time>
      </trkpt>
      <trkpt lat="44.42031" lon="1.33677">
        <ele>211</ele>
        <time>2025-03-08T13:50:53Z</time>
      </trkpt>
      <trkpt lat="44.42034" lon="1.3368">
        <ele>211</ele>
        <time>2025-03-08T13:50:54Z</time>
      </trkpt>
      <trkpt lat="44.42038" lon="1.33684">
        <ele>210.9</ele>
        <time>2025-03-08T13:50:55Z</time>
      </trkpt>
      <trkpt lat="44.4204" lon="1.33687">
        <ele>210.9</ele>
        <time>2025-03-08T13:50:56Z</time>
      </trkpt>
      <trkpt lat="44.42043" lon="1.33689">
        <ele>210.9</ele>
        <time>2025-03-08T13:50:57Z</time>
      </trkpt>
      <trkpt lat="44.42047" lon="1.33692">
        <ele>210.9</ele>
        <time>2025-03-08T13:50:58Z</time>
      </trkpt>
      <trkpt lat="44.4205" lon="1.33695">
        <ele>210.9</ele>
        <time>2025-03-08T13:50:59Z</time>
      </trkpt>
      <trkpt lat="44.42054" lon="1.33699">
        <ele>210.8</ele>
        <time>2025-03-08T13:51:00Z</time>
      </trkpt>
      <trkpt lat="44.42057" lon="1.33702">
        <ele>210.8</ele>
        <time>2025-03-08T13:51:01Z</time>
      </trkpt>
      <trkpt lat="44.4206" lon="1.33705">
        <ele>210.8</ele>
        <time>2025-03-08T13:51:02Z</time>
      </trkpt>
      <trkpt lat="44.42063" lon="1.33709">
        <ele>210.8</ele>
        <time>2025-03-08T13:51:03Z</time>
      </trkpt>
      <trkpt lat="44.42067" lon="1.33713">
        <ele>210.8</ele>
        <time>2025-03-08T13:51:04Z</time>
      </trkpt>
      <trkpt lat="44.42071" lon="1.33716">
        <ele>210.8</ele>
        <time>2025-03-08T13:51:05Z</time>
      </trkpt>
      <trkpt lat="44.42075" lon="1.33721">
        <ele>210.8</ele>
        <time>2025-03-08T13:51:06Z</time>
      </trkpt>
      <trkpt lat="44.42078" lon="1.33725">
        <ele>210.7</ele>
        <time>2025-03-08T13:51:07Z</time>
      </trkpt>
      <trkpt lat="44.42081" lon="1.3373">
        <ele>210.6</ele>
        <time>2025-03-08T13:51:08Z</time>
      </trkpt>
      <trkpt lat="44.42084" lon="1.33737">
        <ele>210.5</ele>
        <time>2025-03-08T13:51:09Z</time>
      </trkpt>
      <trkpt lat="44.42087" lon="1.33744">
        <ele>210.2</ele>
        <time>2025-03-08T13:51:10Z</time>
      </trkpt>
      <trkpt lat="44.42089" lon="1.33752">
        <ele>210</ele>
        <time>2025-03-08T13:51:11Z</time>
      </trkpt>
      <trkpt lat="44.42091" lon="1.3376">
        <ele>209.7</ele>
        <time>2025-03-08T13:51:12Z</time>
      </trkpt>
      <trkpt lat="44.42094" lon="1.33767">
        <ele>209.5</ele>
        <time>2025-03-08T13:51:13Z</time>
      </trkpt>
      <trkpt lat="44.42097" lon="1.33775">
        <ele>209.2</ele>
        <time>2025-03-08T13:51:14Z</time>
      </trkpt>
      <trkpt lat="44.421" lon="1.33783">
        <ele>209</ele>
        <time>2025-03-08T13:51:15Z</time>
      </trkpt>
      <trkpt lat="44.42104" lon="1.33789">
        <ele>208.9</ele>
        <time>2025-03-08T13:51:16Z</time>
      </trkpt>
      <trkpt lat="44.42107" lon="1.33796">
        <ele>208.7</ele>
        <time>2025-03-08T13:51:17Z</time>
      </trkpt>
      <trkpt lat="44.4211" lon="1.33802">
        <ele>208.6</ele>
        <time>2025-03-08T13:51:18Z</time>
      </trkpt>
      <trkpt lat="44.42113" lon="1.33808">
        <ele>208.6</ele>
        <time>2025-03-08T13:51:19Z</time>
      </trkpt>
      <trkpt lat="44.42116" lon="1.33814">
        <ele>208.5</ele>
        <time>2025-03-08T13:51:20Z</time>
      </trkpt>
      <trkpt lat="44.42119" lon="1.33819">
        <ele>208.5</ele>
        <time>2025-03-08T13:51:21Z</time>
      </trkpt>
      <trkpt lat="44.42123" lon="1.33824">
        <ele>208.4</ele>
        <time>2025-03-08T13:51:22Z</time>
      </trkpt>
      <trkpt lat="44.42126" lon="1.33827">
        <ele>208.4</ele>
        <time>2025-03-08T13:51:23Z</time>
      </trkpt>
      <trkpt lat="44.42129" lon="1.3383">
        <ele>208.3</ele>
        <time>2025-03-08T13:51:24Z</time>
      </trkpt>
      <trkpt lat="44.42132" lon="1.33833">
        <ele>208.3</ele>
        <time>2025-03-08T13:51:25Z</time>
      </trkpt>
      <trkpt lat="44.42135" lon="1.33835">
        <ele>208.3</ele>
        <time>2025-03-08T13:51:26Z</time>
      </trkpt>
      <trkpt lat="44.42139" lon="1.33838">
        <ele>208.2</ele>
        <time>2025-03-08T13:51:27Z</time>
      </trkpt>
      <trkpt lat="44.42143" lon="1.3384">
        <ele>208.2</ele>
        <time>2025-03-08T13:51:28Z</time>
      </trkpt>
      <trkpt lat="44.42147" lon="1.33843">
        <ele>208.1</ele>
        <time>2025-03-08T13:51:29Z</time>
      </trkpt>
      <trkpt lat="44.42151" lon="1.33845">
        <ele>208.1</ele>
        <time>2025-03-08T13:51:30Z</time>
      </trkpt>
      <trkpt lat="44.42157" lon="1.33848">
        <ele>208</ele>
        <time>2025-03-08T13:51:31Z</time>
      </trkpt>
      <trkpt lat="44.42162" lon="1.33852">
        <ele>207.8</ele>
        <time>2025-03-08T13:51:32Z</time>
      </trkpt>
      <trkpt lat="44.42167" lon="1.33855">
        <ele>207.7</ele>
        <time>2025-03-08T13:51:33Z</time>
      </trkpt>
      <trkpt lat="44.42172" lon="1.33858">
        <ele>207.5</ele>
        <time>2025-03-08T13:51:34Z</time>
      </trkpt>
      <trkpt lat="44.42178" lon="1.33861">
        <ele>207.3</ele>
        <time>2025-03-08T13:51:35Z</time>
      </trkpt>
      <trkpt lat="44.42185" lon="1.33865">
        <ele>207.1</ele>
        <time>2025-03-08T13:51:36Z</time>
      </trkpt>
      <trkpt lat="44.4219" lon="1.33869">
        <ele>206.9</ele>
        <time>2025-03-08T13:51:37Z</time>
      </trkpt>
      <trkpt lat="44.42194" lon="1.33872">
        <ele>206.8</ele>
        <time>2025-03-08T13:51:38Z</time>
      </trkpt>
      <trkpt lat="44.42198" lon="1.33875">
        <ele>206.7</ele>
        <time>2025-03-08T13:51:39Z</time>
      </trkpt>
      <trkpt lat="44.42203" lon="1.33879">
        <ele>206.6</ele>
        <time>2025-03-08T13:51:40Z</time>
      </trkpt>
      <trkpt lat="44.42207" lon="1.33882">
        <ele>206.5</ele>
        <time>2025-03-08T13:51:41Z</time>
      </trkpt>
      <trkpt lat="44.42212" lon="1.33885">
        <ele>206.5</ele>
        <time>2025-03-08T13:51:42Z</time>
      </trkpt>
      <trkpt lat="44.42216" lon="1.33888">
        <ele>206.5</ele>
        <time>2025-03-08T13:51:43Z</time>
      </trkpt>
      <trkpt lat="44.42219" lon="1.33891">
        <ele>206.5</ele>
        <time>2025-03-08T13:51:44Z</time>
      </trkpt>
      <trkpt lat="44.42222" lon="1.33894">
        <ele>206.5</ele>
        <time>2025-03-08T13:51:45Z</time>
      </trkpt>
      <trkpt lat="44.42225" lon="1.33897">
        <ele>206.5</ele>
        <time>2025-03-08T13:51:46Z</time>
      </trkpt>
      <trkpt lat="44.42228" lon="1.339">
        <ele>206.6</ele>
        <time>2025-03-08T13:51:47Z</time>
      </trkpt>
      <trkpt lat="44.42231" lon="1.33904">
        <ele>206.6</ele>
        <time>2025-03-08T13:51:48Z</time>
      </trkpt>
      <trkpt lat="44.42232" lon="1.33905">
        <ele>206.6</ele>
        <time>2025-03-08T13:51:49Z</time>
      </trkpt>
      <trkpt lat="44.42235" lon="1.33909">
        <ele>206.6</ele>
        <time>2025-03-08T13:51:50Z</time>
      </trkpt>
      <trkpt lat="44.42238" lon="1.33912">
        <ele>206.7</ele>
        <time>2025-03-08T13:51:51Z</time>
      </trkpt>
      <trkpt lat="44.4224" lon="1.33915">
        <ele>206.7</ele>
        <time>2025-03-08T13:51:52Z</time>
      </trkpt>
      <trkpt lat="44.42243" lon="1.33919">
        <ele>206.7</ele>
        <time>2025-03-08T13:51:53Z</time>
      </trkpt>
      <trkpt lat="44.42243" lon="1.33921">
        <ele>206.7</ele>
        <time>2025-03-08T13:51:54Z</time>
      </trkpt>
      <trkpt lat="44.42245" lon="1.33926">
        <ele>206.4</ele>
        <time>2025-03-08T13:51:55Z</time>
      </trkpt>
      <trkpt lat="44.42245" lon="1.33928">
        <ele>206.3</ele>
        <time>2025-03-08T13:51:56Z</time>
      </trkpt>
      <trkpt lat="44.42246" lon="1.33934">
        <ele>206.1</ele>
        <time>2025-03-08T13:51:57Z</time>
      </trkpt>
      <trkpt lat="44.42247" lon="1.3394">
        <ele>205.8</ele>
        <time>2025-03-08T13:51:58Z</time>
      </trkpt>
      <trkpt lat="44.42249" lon="1.33945">
        <ele>205.5</ele>
        <time>2025-03-08T13:51:59Z</time>
      </trkpt>
      <trkpt lat="44.42252" lon="1.33949">
        <ele>205.2</ele>
        <time>2025-03-08T13:52:00Z</time>
      </trkpt>
      <trkpt lat="44.42256" lon="1.33954">
        <ele>204.9</ele>
        <time>2025-03-08T13:52:01Z</time>
      </trkpt>
      <trkpt lat="44.42259" lon="1.33958">
        <ele>204.6</ele>
        <time>2025-03-08T13:52:02Z</time>
      </trkpt>
      <trkpt lat="44.42263" lon="1.33962">
        <ele>204.3</ele>
        <time>2025-03-08T13:52:03Z</time>
      </trkpt>
      <trkpt lat="44.42266" lon="1.33965">
        <ele>204.1</ele>
        <time>2025-03-08T13:52:04Z</time>
      </trkpt>
      <trkpt lat="44.42269" lon="1.33968">
        <ele>203.8</ele>
        <time>2025-03-08T13:52:05Z</time>
      </trkpt>
      <trkpt lat="44.42272" lon="1.33971">
        <ele>203.6</ele>
        <time>2025-03-08T13:52:06Z</time>
      </trkpt>
      <trkpt lat="44.42276" lon="1.33974">
        <ele>203.4</ele>
        <time>2025-03-08T13:52:07Z</time>
      </trkpt>
      <trkpt lat="44.42279" lon="1.33977">
        <ele>203.2</ele>
        <time>2025-03-08T13:52:08Z</time>
      </trkpt>
      <trkpt lat="44.42282" lon="1.3398">
        <ele>203</ele>
        <time>2025-03-08T13:52:09Z</time>
      </trkpt>
      <trkpt lat="44.42285" lon="1.33983">
        <ele>202.8</ele>
        <time>2025-03-08T13:52:10Z</time>
      </trkpt>
      <trkpt lat="44.42289" lon="1.33986">
        <ele>202.6</ele>
        <time>2025-03-08T13:52:11Z</time>
      </trkpt>
      <trkpt lat="44.42292" lon="1.33989">
        <ele>202.4</ele>
        <time>2025-03-08T13:52:12Z</time>
      </trkpt>
      <trkpt lat="44.42295" lon="1.33991">
        <ele>202.3</ele>
        <time>2025-03-08T13:52:13Z</time>
      </trkpt>
      <trkpt lat="44.42298" lon="1.33993">
        <ele>202.1</ele>
        <time>2025-03-08T13:52:14Z</time>
      </trkpt>
      <trkpt lat="44.42302" lon="1.33996">
        <ele>201.9</ele>
        <time>2025-03-08T13:52:15Z</time>
      </trkpt>
      <trkpt lat="44.42305" lon="1.33998">
        <ele>201.7</ele>
        <time>2025-03-08T13:52:16Z</time>
      </trkpt>
      <trkpt lat="44.42308" lon="1.33999">
        <ele>201.6</ele>
        <time>2025-03-08T13:52:17Z</time>
      </trkpt>
      <trkpt lat="44.42309" lon="1.34">
        <ele>201.5</ele>
        <time>2025-03-08T13:52:18Z</time>
      </trkpt>
      <trkpt lat="44.42311" lon="1.34002">
        <ele>201.4</ele>
        <time>2025-03-08T13:52:19Z</time>
      </trkpt>
      <trkpt lat="44.42311" lon="1.34003">
        <ele>201.4</ele>
        <time>2025-03-08T13:52:20Z</time>
      </trkpt>
      <trkpt lat="44.42312" lon="1.34004">
        <ele>201.3</ele>
        <time>2025-03-08T13:52:21Z</time>
      </trkpt>
      <trkpt lat="44.42316" lon="1.34008">
        <ele>201.1</ele>
        <time>2025-03-08T13:52:22Z</time>
      </trkpt>
      <trkpt lat="44.42317" lon="1.3401">
        <ele>201.1</ele>
        <time>2025-03-08T13:52:23Z</time>
      </trkpt>
      <trkpt lat="44.4232" lon="1.34013">
        <ele>200.9</ele>
        <time>2025-03-08T13:52:24Z</time>
      </trkpt>
      <trkpt lat="44.42323" lon="1.34017">
        <ele>200.7</ele>
        <time>2025-03-08T13:52:25Z</time>
      </trkpt>
      <trkpt lat="44.42327" lon="1.34021">
        <ele>200.5</ele>
        <time>2025-03-08T13:52:26Z</time>
      </trkpt>
      <trkpt lat="44.4233" lon="1.34025">
        <ele>200.4</ele>
        <time>2025-03-08T13:52:27Z</time>
      </trkpt>
      <trkpt lat="44.42334" lon="1.3403">
        <ele>200.2</ele>
        <time>2025-03-08T13:52:28Z</time>
      </trkpt>
      <trkpt lat="44.42338" lon="1.34035">
        <ele>200</ele>
        <time>2025-03-08T13:52:29Z</time>
      </trkpt>
      <trkpt lat="44.42342" lon="1.3404">
        <ele>199.8</ele>
        <time>2025-03-08T13:52:30Z</time>
      </trkpt>
      <trkpt lat="44.42346" lon="1.34044">
        <ele>199.7</ele>
        <time>2025-03-08T13:52:31Z</time>
      </trkpt>
      <trkpt lat="44.42349" lon="1.34047">
        <ele>199.5</ele>
        <time>2025-03-08T13:52:32Z</time>
      </trkpt>
      <trkpt lat="44.42353" lon="1.34051">
        <ele>199.4</ele>
        <time>2025-03-08T13:52:33Z</time>
      </trkpt>
      <trkpt lat="44.42357" lon="1.34055">
        <ele>199.2</ele>
        <time>2025-03-08T13:52:34Z</time>
      </trkpt>
      <trkpt lat="44.42361" lon="1.34059">
        <ele>199.1</ele>
        <time>2025-03-08T13:52:35Z</time>
      </trkpt>
      <trkpt lat="44.42364" lon="1.34063">
        <ele>198.9</ele>
        <time>2025-03-08T13:52:36Z</time>
      </trkpt>
      <trkpt lat="44.42367" lon="1.34066">
        <ele>198.8</ele>
        <time>2025-03-08T13:52:37Z</time>
      </trkpt>
      <trkpt lat="44.42371" lon="1.3407">
        <ele>198.7</ele>
        <time>2025-03-08T13:52:38Z</time>
      </trkpt>
      <trkpt lat="44.42375" lon="1.34074">
        <ele>198.5</ele>
        <time>2025-03-08T13:52:39Z</time>
      </trkpt>
      <trkpt lat="44.42379" lon="1.34077">
        <ele>198.3</ele>
        <time>2025-03-08T13:52:40Z</time>
      </trkpt>
      <trkpt lat="44.42383" lon="1.3408">
        <ele>198.2</ele>
        <time>2025-03-08T13:52:41Z</time>
      </trkpt>
      <trkpt lat="44.42387" lon="1.34084">
        <ele>198</ele>
        <time>2025-03-08T13:52:42Z</time>
      </trkpt>
      <trkpt lat="44.42391" lon="1.34087">
        <ele>197.9</ele>
        <time>2025-03-08T13:52:43Z</time>
      </trkpt>
      <trkpt lat="44.42396" lon="1.3409">
        <ele>197.7</ele>
        <time>2025-03-08T13:52:44Z</time>
      </trkpt>
      <trkpt lat="44.424" lon="1.34093">
        <ele>197.6</ele>
        <time>2025-03-08T13:52:45Z</time>
      </trkpt>
      <trkpt lat="44.42405" lon="1.34095">
        <ele>197.4</ele>
        <time>2025-03-08T13:52:46Z</time>
      </trkpt>
      <trkpt lat="44.42409" lon="1.34098">
        <ele>197.2</ele>
        <time>2025-03-08T13:52:47Z</time>
      </trkpt>
      <trkpt lat="44.42416" lon="1.34101">
        <ele>197</ele>
        <time>2025-03-08T13:52:48Z</time>
      </trkpt>
      <trkpt lat="44.4242" lon="1.34104">
        <ele>196.9</ele>
        <time>2025-03-08T13:52:49Z</time>
      </trkpt>
      <trkpt lat="44.42424" lon="1.34106">
        <ele>196.7</ele>
        <time>2025-03-08T13:52:50Z</time>
      </trkpt>
      <trkpt lat="44.42429" lon="1.3411">
        <ele>196.5</ele>
        <time>2025-03-08T13:52:51Z</time>
      </trkpt>
      <trkpt lat="44.42433" lon="1.34112">
        <ele>196.4</ele>
        <time>2025-03-08T13:52:52Z</time>
      </trkpt>
      <trkpt lat="44.42438" lon="1.34115">
        <ele>196.2</ele>
        <time>2025-03-08T13:52:53Z</time>
      </trkpt>
      <trkpt lat="44.42443" lon="1.34116">
        <ele>196</ele>
        <time>2025-03-08T13:52:54Z</time>
      </trkpt>
      <trkpt lat="44.42447" lon="1.34118">
        <ele>195.9</ele>
        <time>2025-03-08T13:52:55Z</time>
      </trkpt>
      <trkpt lat="44.4245" lon="1.3412">
        <ele>195.7</ele>
        <time>2025-03-08T13:52:56Z</time>
      </trkpt>
      <trkpt lat="44.42454" lon="1.34122">
        <ele>195.6</ele>
        <time>2025-03-08T13:52:57Z</time>
      </trkpt>
      <trkpt lat="44.42459" lon="1.34124">
        <ele>195.5</ele>
        <time>2025-03-08T13:52:58Z</time>
      </trkpt>
      <trkpt lat="44.42464" lon="1.34126">
        <ele>195.3</ele>
        <time>2025-03-08T13:52:59Z</time>
      </trkpt>
      <trkpt lat="44.42469" lon="1.34129">
        <ele>195.2</ele>
        <time>2025-03-08T13:53:00Z</time>
      </trkpt>
      <trkpt lat="44.42473" lon="1.34131">
        <ele>195.1</ele>
        <time>2025-03-08T13:53:01Z</time>
      </trkpt>
      <trkpt lat="44.42477" lon="1.34133">
        <ele>195</ele>
        <time>2025-03-08T13:53:02Z</time>
      </trkpt>
      <trkpt lat="44.42481" lon="1.34135">
        <ele>194.9</ele>
        <time>2025-03-08T13:53:03Z</time>
      </trkpt>
      <trkpt lat="44.42486" lon="1.34136">
        <ele>194.8</ele>
        <time>2025-03-08T13:53:04Z</time>
      </trkpt>
      <trkpt lat="44.42489" lon="1.34136">
        <ele>194.7</ele>
        <time>2025-03-08T13:53:05Z</time>
      </trkpt>
      <trkpt lat="44.42493" lon="1.34137">
        <ele>194.6</ele>
        <time>2025-03-08T13:53:06Z</time>
      </trkpt>
      <trkpt lat="44.42496" lon="1.34139">
        <ele>194.6</ele>
        <time>2025-03-08T13:53:07Z</time>
      </trkpt>
      <trkpt lat="44.42497" lon="1.34139">
        <ele>194.5</ele>
        <time>2025-03-08T13:53:08Z</time>
      </trkpt>
      <trkpt lat="44.42499" lon="1.3414">
        <ele>194.5</ele>
        <time>2025-03-08T13:53:09Z</time>
      </trkpt>
      <trkpt lat="44.425" lon="1.34142">
        <ele>194.5</ele>
        <time>2025-03-08T13:53:10Z</time>
      </trkpt>
      <trkpt lat="44.425" lon="1.34143">
        <ele>194.4</ele>
        <time>2025-03-08T13:53:11Z</time>
      </trkpt>
      <trkpt lat="44.425" lon="1.34145">
        <ele>194.4</ele>
        <time>2025-03-08T13:53:12Z</time>
      </trkpt>
      <trkpt lat="44.425" lon="1.34146">
        <ele>194.4</ele>
        <time>2025-03-08T13:53:13Z</time>
      </trkpt>
      <trkpt lat="44.42501" lon="1.34146">
        <ele>194.4</ele>
        <time>2025-03-08T13:53:14Z</time>
      </trkpt>
      <trkpt lat="44.42502" lon="1.34145">
        <ele>194.4</ele>
        <time>2025-03-08T13:53:15Z</time>
      </trkpt>
      <trkpt lat="44.42503" lon="1.34145">
        <ele>194.4</ele>
        <time>2025-03-08T13:53:16Z</time>
      </trkpt>
      <trkpt lat="44.42504" lon="1.34144">
        <ele>194.3</ele>
        <time>2025-03-08T13:53:17Z</time>
      </trkpt>
      <trkpt lat="44.42507" lon="1.34145">
        <ele>194.3</ele>
        <time>2025-03-08T13:53:18Z</time>
      </trkpt>
      <trkpt lat="44.42508" lon="1.34145">
        <ele>194.3</ele>
        <time>2025-03-08T13:53:19Z</time>
      </trkpt>
      <trkpt lat="44.42512" lon="1.34146">
        <ele>194.2</ele>
        <time>2025-03-08T13:53:20Z</time>
      </trkpt>
      <trkpt lat="44.42513" lon="1.34146">
        <ele>194.2</ele>
        <time>2025-03-08T13:53:21Z</time>
      </trkpt>
      <trkpt lat="44.42516" lon="1.34146">
        <ele>194.1</ele>
        <time>2025-03-08T13:53:22Z</time>
      </trkpt>
      <trkpt lat="44.4252" lon="1.34147">
        <ele>194</ele>
        <time>2025-03-08T13:53:23Z</time>
      </trkpt>
      <trkpt lat="44.42523" lon="1.34147">
        <ele>194</ele>
        <time>2025-03-08T13:53:24Z</time>
      </trkpt>
      <trkpt lat="44.42527" lon="1.34148">
        <ele>193.9</ele>
        <time>2025-03-08T13:53:25Z</time>
      </trkpt>
      <trkpt lat="44.42531" lon="1.34149">
        <ele>193.8</ele>
        <time>2025-03-08T13:53:26Z</time>
      </trkpt>
      <trkpt lat="44.42535" lon="1.3415">
        <ele>193.7</ele>
        <time>2025-03-08T13:53:27Z</time>
      </trkpt>
      <trkpt lat="44.42539" lon="1.3415">
        <ele>193.6</ele>
        <time>2025-03-08T13:53:28Z</time>
      </trkpt>
      <trkpt lat="44.42544" lon="1.3415">
        <ele>193.5</ele>
        <time>2025-03-08T13:53:29Z</time>
      </trkpt>
      <trkpt lat="44.42548" lon="1.3415">
        <ele>193.4</ele>
        <time>2025-03-08T13:53:30Z</time>
      </trkpt>
      <trkpt lat="44.42553" lon="1.3415">
        <ele>193.3</ele>
        <time>2025-03-08T13:53:31Z</time>
      </trkpt>
      <trkpt lat="44.42558" lon="1.3415">
        <ele>193.2</ele>
        <time>2025-03-08T13:53:32Z</time>
      </trkpt>
      <trkpt lat="44.42563" lon="1.3415">
        <ele>193.1</ele>
        <time>2025-03-08T13:53:33Z</time>
      </trkpt>
      <trkpt lat="44.42567" lon="1.34149">
        <ele>193.1</ele>
        <time>2025-03-08T13:53:34Z</time>
      </trkpt>
      <trkpt lat="44.42571" lon="1.34149">
        <ele>193</ele>
        <time>2025-03-08T13:53:35Z</time>
      </trkpt>
      <trkpt lat="44.42575" lon="1.34149">
        <ele>192.9</ele>
        <time>2025-03-08T13:53:36Z</time>
      </trkpt>
      <trkpt lat="44.42581" lon="1.34149">
        <ele>192.8</ele>
        <time>2025-03-08T13:53:37Z</time>
      </trkpt>
      <trkpt lat="44.42586" lon="1.34149">
        <ele>192.6</ele>
        <time>2025-03-08T13:53:38Z</time>
      </trkpt>
      <trkpt lat="44.42591" lon="1.34149">
        <ele>192.5</ele>
        <time>2025-03-08T13:53:39Z</time>
      </trkpt>
      <trkpt lat="44.42596" lon="1.34148">
        <ele>192.4</ele>
        <time>2025-03-08T13:53:40Z</time>
      </trkpt>
      <trkpt lat="44.426" lon="1.34148">
        <ele>192.3</ele>
        <time>2025-03-08T13:53:41Z</time>
      </trkpt>
      <trkpt lat="44.42604" lon="1.34148">
        <ele>192.2</ele>
        <time>2025-03-08T13:53:42Z</time>
      </trkpt>
      <trkpt lat="44.42609" lon="1.34147">
        <ele>192.1</ele>
        <time>2025-03-08T13:53:43Z</time>
      </trkpt>
      <trkpt lat="44.42614" lon="1.34147">
        <ele>192</ele>
        <time>2025-03-08T13:53:44Z</time>
      </trkpt>
      <trkpt lat="44.42619" lon="1.34147">
        <ele>191.8</ele>
        <time>2025-03-08T13:53:45Z</time>
      </trkpt>
      <trkpt lat="44.42624" lon="1.34147">
        <ele>191.7</ele>
        <time>2025-03-08T13:53:46Z</time>
      </trkpt>
      <trkpt lat="44.42628" lon="1.34146">
        <ele>191.7</ele>
        <time>2025-03-08T13:53:47Z</time>
      </trkpt>
      <trkpt lat="44.42633" lon="1.34146">
        <ele>191.6</ele>
        <time>2025-03-08T13:53:48Z</time>
      </trkpt>
      <trkpt lat="44.42638" lon="1.34146">
        <ele>191.5</ele>
        <time>2025-03-08T13:53:49Z</time>
      </trkpt>
      <trkpt lat="44.42642" lon="1.34146">
        <ele>191.4</ele>
        <time>2025-03-08T13:53:50Z</time>
      </trkpt>
      <trkpt lat="44.42646" lon="1.34146">
        <ele>191.3</ele>
        <time>2025-03-08T13:53:51Z</time>
      </trkpt>
      <trkpt lat="44.42649" lon="1.34146">
        <ele>191.3</ele>
        <time>2025-03-08T13:53:52Z</time>
      </trkpt>
      <trkpt lat="44.42652" lon="1.34146">
        <ele>191.2</ele>
        <time>2025-03-08T13:53:53Z</time>
      </trkpt>
      <trkpt lat="44.42654" lon="1.34147">
        <ele>191.2</ele>
        <time>2025-03-08T13:53:54Z</time>
      </trkpt>
      <trkpt lat="44.42658" lon="1.34147">
        <ele>191.1</ele>
        <time>2025-03-08T13:53:55Z</time>
      </trkpt>
      <trkpt lat="44.4266" lon="1.34146">
        <ele>191.3</ele>
        <time>2025-03-08T13:53:56Z</time>
      </trkpt>
      <trkpt lat="44.42664" lon="1.34144">
        <ele>191.5</ele>
        <time>2025-03-08T13:53:57Z</time>
      </trkpt>
      <trkpt lat="44.42664" lon="1.34143">
        <ele>191.6</ele>
        <time>2025-03-08T13:53:58Z</time>
      </trkpt>
      <trkpt lat="44.42666" lon="1.34142">
        <ele>191.7</ele>
        <time>2025-03-08T13:53:59Z</time>
      </trkpt>
      <trkpt lat="44.42667" lon="1.34142">
        <ele>191.7</ele>
        <time>2025-03-08T13:54:00Z</time>
      </trkpt>
      <trkpt lat="44.4267" lon="1.34142">
        <ele>191.9</ele>
        <time>2025-03-08T13:54:01Z</time>
      </trkpt>
      <trkpt lat="44.42671" lon="1.34142">
        <ele>191.9</ele>
        <time>2025-03-08T13:54:02Z</time>
      </trkpt>
      <trkpt lat="44.42674" lon="1.34142">
        <ele>192.1</ele>
        <time>2025-03-08T13:54:03Z</time>
      </trkpt>
      <trkpt lat="44.42675" lon="1.34141">
        <ele>192.2</ele>
        <time>2025-03-08T13:54:04Z</time>
      </trkpt>
      <trkpt lat="44.42676" lon="1.34141">
        <ele>192.3</ele>
        <time>2025-03-08T13:54:05Z</time>
      </trkpt>
      <trkpt lat="44.42678" lon="1.34142">
        <ele>192.4</ele>
        <time>2025-03-08T13:54:06Z</time>
      </trkpt>
      <trkpt lat="44.4268" lon="1.34142">
        <ele>192.5</ele>
        <time>2025-03-08T13:54:07Z</time>
      </trkpt>
      <trkpt lat="44.42681" lon="1.34142">
        <ele>192.6</ele>
        <time>2025-03-08T13:54:08Z</time>
      </trkpt>
      <trkpt lat="44.42685" lon="1.34143">
        <ele>192.9</ele>
        <time>2025-03-08T13:54:09Z</time>
      </trkpt>
      <trkpt lat="44.42686" lon="1.34143">
        <ele>193</ele>
        <time>2025-03-08T13:54:10Z</time>
      </trkpt>
      <trkpt lat="44.42689" lon="1.34144">
        <ele>193.3</ele>
        <time>2025-03-08T13:54:11Z</time>
      </trkpt>
      <trkpt lat="44.4269" lon="1.34144">
        <ele>193.4</ele>
        <time>2025-03-08T13:54:12Z</time>
      </trkpt>
      <trkpt lat="44.42693" lon="1.34144">
        <ele>193.8</ele>
        <time>2025-03-08T13:54:13Z</time>
      </trkpt>
      <trkpt lat="44.42694" lon="1.34144">
        <ele>193.9</ele>
        <time>2025-03-08T13:54:14Z</time>
      </trkpt>
      <trkpt lat="44.42696" lon="1.34144">
        <ele>194</ele>
        <time>2025-03-08T13:54:15Z</time>
      </trkpt>
      <trkpt lat="44.42697" lon="1.34143">
        <ele>194.2</ele>
        <time>2025-03-08T13:54:16Z</time>
      </trkpt>
      <trkpt lat="44.42699" lon="1.34143">
        <ele>194.5</ele>
        <time>2025-03-08T13:54:17Z</time>
      </trkpt>
      <trkpt lat="44.42701" lon="1.34142">
        <ele>194.7</ele>
        <time>2025-03-08T13:54:18Z</time>
      </trkpt>
      <trkpt lat="44.42702" lon="1.34142">
        <ele>194.9</ele>
        <time>2025-03-08T13:54:19Z</time>
      </trkpt>
      <trkpt lat="44.42703" lon="1.34142">
        <ele>195</ele>
        <time>2025-03-08T13:54:20Z</time>
      </trkpt>
      <trkpt lat="44.42705" lon="1.34142">
        <ele>195.2</ele>
        <time>2025-03-08T13:54:21Z</time>
      </trkpt>
      <trkpt lat="44.42706" lon="1.34141">
        <ele>195.4</ele>
        <time>2025-03-08T13:54:22Z</time>
      </trkpt>
      <trkpt lat="44.42708" lon="1.34141">
        <ele>195.7</ele>
        <time>2025-03-08T13:54:23Z</time>
      </trkpt>
      <trkpt lat="44.4271" lon="1.34141">
        <ele>195.9</ele>
        <time>2025-03-08T13:54:24Z</time>
      </trkpt>
      <trkpt lat="44.42713" lon="1.34142">
        <ele>196.3</ele>
        <time>2025-03-08T13:54:25Z</time>
      </trkpt>
      <trkpt lat="44.42714" lon="1.34142">
        <ele>196.5</ele>
        <time>2025-03-08T13:54:26Z</time>
      </trkpt>
      <trkpt lat="44.42715" lon="1.34143">
        <ele>196.7</ele>
        <time>2025-03-08T13:54:27Z</time>
      </trkpt>
      <trkpt lat="44.42717" lon="1.34143">
        <ele>197</ele>
        <time>2025-03-08T13:54:28Z</time>
      </trkpt>
      <trkpt lat="44.42721" lon="1.34143">
        <ele>197.5</ele>
        <time>2025-03-08T13:54:29Z</time>
      </trkpt>
      <trkpt lat="44.42722" lon="1.34143">
        <ele>197.6</ele>
        <time>2025-03-08T13:54:30Z</time>
      </trkpt>
      <trkpt lat="44.42724" lon="1.34143">
        <ele>197.9</ele>
        <time>2025-03-08T13:54:31Z</time>
      </trkpt>
      <trkpt lat="44.42725" lon="1.34143">
        <ele>198.2</ele>
        <time>2025-03-08T13:54:32Z</time>
      </trkpt>
      <trkpt lat="44.42727" lon="1.34143">
        <ele>198.5</ele>
        <time>2025-03-08T13:54:33Z</time>
      </trkpt>
      <trkpt lat="44.42728" lon="1.34143">
        <ele>198.7</ele>
        <time>2025-03-08T13:54:34Z</time>
      </trkpt>
      <trkpt lat="44.42732" lon="1.34144">
        <ele>199.4</ele>
        <time>2025-03-08T13:54:35Z</time>
      </trkpt>
      <trkpt lat="44.42733" lon="1.34144">
        <ele>199.6</ele>
        <time>2025-03-08T13:54:36Z</time>
      </trkpt>
      <trkpt lat="44.42736" lon="1.34143">
        <ele>200.1</ele>
        <time>2025-03-08T13:54:37Z</time>
      </trkpt>
      <trkpt lat="44.42737" lon="1.34143">
        <ele>200.2</ele>
        <time>2025-03-08T13:54:38Z</time>
      </trkpt>
      <trkpt lat="44.42739" lon="1.34142">
        <ele>200.5</ele>
        <time>2025-03-08T13:54:39Z</time>
      </trkpt>
      <trkpt lat="44.42741" lon="1.34142">
        <ele>200.7</ele>
        <time>2025-03-08T13:54:40Z</time>
      </trkpt>
      <trkpt lat="44.42742" lon="1.34142">
        <ele>201</ele>
        <time>2025-03-08T13:54:41Z</time>
      </trkpt>
      <trkpt lat="44.42743" lon="1.34141">
        <ele>201.2</ele>
        <time>2025-03-08T13:54:42Z</time>
      </trkpt>
      <trkpt lat="44.42745" lon="1.34142">
        <ele>201.4</ele>
        <time>2025-03-08T13:54:43Z</time>
      </trkpt>
      <trkpt lat="44.42746" lon="1.34142">
        <ele>201.7</ele>
        <time>2025-03-08T13:54:44Z</time>
      </trkpt>
      <trkpt lat="44.42748" lon="1.34142">
        <ele>201.9</ele>
        <time>2025-03-08T13:54:45Z</time>
      </trkpt>
      <trkpt lat="44.42749" lon="1.34142">
        <ele>202.1</ele>
        <time>2025-03-08T13:54:46Z</time>
      </trkpt>
      <trkpt lat="44.4275" lon="1.34142">
        <ele>202.3</ele>
        <time>2025-03-08T13:54:47Z</time>
      </trkpt>
      <trkpt lat="44.42752" lon="1.34143">
        <ele>202.6</ele>
        <time>2025-03-08T13:54:48Z</time>
      </trkpt>
      <trkpt lat="44.42753" lon="1.34144">
        <ele>202.8</ele>
        <time>2025-03-08T13:54:49Z</time>
      </trkpt>
      <trkpt lat="44.42754" lon="1.34144">
        <ele>203.1</ele>
        <time>2025-03-08T13:54:50Z</time>
      </trkpt>
      <trkpt lat="44.42756" lon="1.34144">
        <ele>203.3</ele>
        <time>2025-03-08T13:54:51Z</time>
      </trkpt>
      <trkpt lat="44.42758" lon="1.34145">
        <ele>203.6</ele>
        <time>2025-03-08T13:54:52Z</time>
      </trkpt>
      <trkpt lat="44.42759" lon="1.34144">
        <ele>203.8</ele>
        <time>2025-03-08T13:54:53Z</time>
      </trkpt>
      <trkpt lat="44.42761" lon="1.34144">
        <ele>204.1</ele>
        <time>2025-03-08T13:54:54Z</time>
      </trkpt>
      <trkpt lat="44.42762" lon="1.34144">
        <ele>204.3</ele>
        <time>2025-03-08T13:54:55Z</time>
      </trkpt>
      <trkpt lat="44.42763" lon="1.34144">
        <ele>204.5</ele>
        <time>2025-03-08T13:54:56Z</time>
      </trkpt>
      <trkpt lat="44.42765" lon="1.34144">
        <ele>204.8</ele>
        <time>2025-03-08T13:54:57Z</time>
      </trkpt>
      <trkpt lat="44.42767" lon="1.34144">
        <ele>205.1</ele>
        <time>2025-03-08T13:54:58Z</time>
      </trkpt>
      <trkpt lat="44.42768" lon="1.34144">
        <ele>205.3</ele>
        <time>2025-03-08T13:54:59Z</time>
      </trkpt>
      <trkpt lat="44.42769" lon="1.34145">
        <ele>205.5</ele>
        <time>2025-03-08T13:55:00Z</time>
      </trkpt>
      <trkpt lat="44.42772" lon="1.34145">
        <ele>206</ele>
        <time>2025-03-08T13:55:01Z</time>
      </trkpt>
      <trkpt lat="44.42773" lon="1.34145">
        <ele>206.2</ele>
        <time>2025-03-08T13:55:02Z</time>
      </trkpt>
      <trkpt lat="44.42775" lon="1.34145">
        <ele>206.4</ele>
        <time>2025-03-08T13:55:03Z</time>
      </trkpt>
      <trkpt lat="44.42776" lon="1.34145">
        <ele>206.6</ele>
        <time>2025-03-08T13:55:04Z</time>
      </trkpt>
      <trkpt lat="44.42777" lon="1.34146">
        <ele>206.8</ele>
        <time>2025-03-08T13:55:05Z</time>
      </trkpt>
      <trkpt lat="44.42779" lon="1.34146">
        <ele>207.1</ele>
        <time>2025-03-08T13:55:06Z</time>
      </trkpt>
      <trkpt lat="44.4278" lon="1.34147">
        <ele>207.3</ele>
        <time>2025-03-08T13:55:07Z</time>
      </trkpt>
      <trkpt lat="44.42782" lon="1.34147">
        <ele>207.6</ele>
        <time>2025-03-08T13:55:08Z</time>
      </trkpt>
      <trkpt lat="44.42783" lon="1.34147">
        <ele>207.8</ele>
        <time>2025-03-08T13:55:09Z</time>
      </trkpt>
      <trkpt lat="44.42784" lon="1.34148">
        <ele>207.9</ele>
        <time>2025-03-08T13:55:10Z</time>
      </trkpt>
      <trkpt lat="44.42784" lon="1.34148">
        <ele>208</ele>
        <time>2025-03-08T13:55:11Z</time>
      </trkpt>
      <trkpt lat="44.42785" lon="1.34149">
        <ele>208.2</ele>
        <time>2025-03-08T13:55:12Z</time>
      </trkpt>
      <trkpt lat="44.42787" lon="1.3415">
        <ele>208.4</ele>
        <time>2025-03-08T13:55:13Z</time>
      </trkpt>
      <trkpt lat="44.42788" lon="1.3415">
        <ele>208.6</ele>
        <time>2025-03-08T13:55:14Z</time>
      </trkpt>
      <trkpt lat="44.4279" lon="1.34151">
        <ele>209</ele>
        <time>2025-03-08T13:55:15Z</time>
      </trkpt>
      <trkpt lat="44.42791" lon="1.34152">
        <ele>209.1</ele>
        <time>2025-03-08T13:55:16Z</time>
      </trkpt>
      <trkpt lat="44.42792" lon="1.34153">
        <ele>209.3</ele>
        <time>2025-03-08T13:55:17Z</time>
      </trkpt>
      <trkpt lat="44.42793" lon="1.34153">
        <ele>209.5</ele>
        <time>2025-03-08T13:55:18Z</time>
      </trkpt>
      <trkpt lat="44.42793" lon="1.34154">
        <ele>209.6</ele>
        <time>2025-03-08T13:55:19Z</time>
      </trkpt>
      <trkpt lat="44.42795" lon="1.34154">
        <ele>209.8</ele>
        <time>2025-03-08T13:55:20Z</time>
      </trkpt>
      <trkpt lat="44.42797" lon="1.34155">
        <ele>210.2</ele>
        <time>2025-03-08T13:55:21Z</time>
      </trkpt>
      <trkpt lat="44.42798" lon="1.34156">
        <ele>210.3</ele>
        <time>2025-03-08T13:55:22Z</time>
      </trkpt>
      <trkpt lat="44.42799" lon="1.34156">
        <ele>210.5</ele>
        <time>2025-03-08T13:55:23Z</time>
      </trkpt>
      <trkpt lat="44.428" lon="1.34158">
        <ele>210.8</ele>
        <time>2025-03-08T13:55:24Z</time>
      </trkpt>
      <trkpt lat="44.42801" lon="1.34158">
        <ele>211</ele>
        <time>2025-03-08T13:55:25Z</time>
      </trkpt>
      <trkpt lat="44.42802" lon="1.34159">
        <ele>211.2</ele>
        <time>2025-03-08T13:55:26Z</time>
      </trkpt>
      <trkpt lat="44.42804" lon="1.34159">
        <ele>211.4</ele>
        <time>2025-03-08T13:55:27Z</time>
      </trkpt>
      <trkpt lat="44.42805" lon="1.3416">
        <ele>211.6</ele>
        <time>2025-03-08T13:55:28Z</time>
      </trkpt>
      <trkpt lat="44.42806" lon="1.34161">
        <ele>211.9</ele>
        <time>2025-03-08T13:55:29Z</time>
      </trkpt>
      <trkpt lat="44.42808" lon="1.34162">
        <ele>212.2</ele>
        <time>2025-03-08T13:55:30Z</time>
      </trkpt>
      <trkpt lat="44.4281" lon="1.34163">
        <ele>212.5</ele>
        <time>2025-03-08T13:55:31Z</time>
      </trkpt>
      <trkpt lat="44.42811" lon="1.34164">
        <ele>212.7</ele>
        <time>2025-03-08T13:55:32Z</time>
      </trkpt>
      <trkpt lat="44.42813" lon="1.34165">
        <ele>213.1</ele>
        <time>2025-03-08T13:55:33Z</time>
      </trkpt>
      <trkpt lat="44.42814" lon="1.34165">
        <ele>213.3</ele>
        <time>2025-03-08T13:55:34Z</time>
      </trkpt>
      <trkpt lat="44.42815" lon="1.34166">
        <ele>213.5</ele>
        <time>2025-03-08T13:55:35Z</time>
      </trkpt>
      <trkpt lat="44.42816" lon="1.34166">
        <ele>213.7</ele>
        <time>2025-03-08T13:55:36Z</time>
      </trkpt>
      <trkpt lat="44.42817" lon="1.34167">
        <ele>213.9</ele>
        <time>2025-03-08T13:55:37Z</time>
      </trkpt>
      <trkpt lat="44.42818" lon="1.34167">
        <ele>214.1</ele>
        <time>2025-03-08T13:55:38Z</time>
      </trkpt>
      <trkpt lat="44.4282" lon="1.34168">
        <ele>214.4</ele>
        <time>2025-03-08T13:55:39Z</time>
      </trkpt>
      <trkpt lat="44.4282" lon="1.34169">
        <ele>214.6</ele>
        <time>2025-03-08T13:55:40Z</time>
      </trkpt>
      <trkpt lat="44.42821" lon="1.3417">
        <ele>214.8</ele>
        <time>2025-03-08T13:55:41Z</time>
      </trkpt>
      <trkpt lat="44.42822" lon="1.34171">
        <ele>215</ele>
        <time>2025-03-08T13:55:42Z</time>
      </trkpt>
      <trkpt lat="44.42823" lon="1.34172">
        <ele>215.3</ele>
        <time>2025-03-08T13:55:43Z</time>
      </trkpt>
      <trkpt lat="44.42825" lon="1.34172">
        <ele>215.6</ele>
        <time>2025-03-08T13:55:44Z</time>
      </trkpt>
      <trkpt lat="44.42827" lon="1.34172">
        <ele>216</ele>
        <time>2025-03-08T13:55:45Z</time>
      </trkpt>
      <trkpt lat="44.42828" lon="1.34173">
        <ele>216.3</ele>
        <time>2025-03-08T13:55:46Z</time>
      </trkpt>
      <trkpt lat="44.4283" lon="1.34173">
        <ele>216.6</ele>
        <time>2025-03-08T13:55:47Z</time>
      </trkpt>
      <trkpt lat="44.42831" lon="1.34174">
        <ele>216.8</ele>
        <time>2025-03-08T13:55:48Z</time>
      </trkpt>
      <trkpt lat="44.42832" lon="1.34175">
        <ele>217.1</ele>
        <time>2025-03-08T13:55:49Z</time>
      </trkpt>
      <trkpt lat="44.42832" lon="1.34176">
        <ele>217.3</ele>
        <time>2025-03-08T13:55:50Z</time>
      </trkpt>
      <trkpt lat="44.42833" lon="1.34177">
        <ele>217.5</ele>
        <time>2025-03-08T13:55:51Z</time>
      </trkpt>
      <trkpt lat="44.42834" lon="1.34177">
        <ele>217.7</ele>
        <time>2025-03-08T13:55:52Z</time>
      </trkpt>
      <trkpt lat="44.42835" lon="1.34178">
        <ele>217.9</ele>
        <time>2025-03-08T13:55:53Z</time>
      </trkpt>
      <trkpt lat="44.42836" lon="1.34179">
        <ele>218.2</ele>
        <time>2025-03-08T13:55:54Z</time>
      </trkpt>
      <trkpt lat="44.42837" lon="1.34179">
        <ele>218.5</ele>
        <time>2025-03-08T13:55:55Z</time>
      </trkpt>
      <trkpt lat="44.42838" lon="1.3418">
        <ele>218.8</ele>
        <time>2025-03-08T13:55:56Z</time>
      </trkpt>
      <trkpt lat="44.4284" lon="1.34181">
        <ele>219.2</ele>
        <time>2025-03-08T13:55:57Z</time>
      </trkpt>
      <trkpt lat="44.42841" lon="1.34181">
        <ele>219.4</ele>
        <time>2025-03-08T13:55:58Z</time>
      </trkpt>
      <trkpt lat="44.42842" lon="1.34182">
        <ele>219.6</ele>
        <time>2025-03-08T13:55:59Z</time>
      </trkpt>
      <trkpt lat="44.42844" lon="1.34183">
        <ele>220.1</ele>
        <time>2025-03-08T13:56:00Z</time>
      </trkpt>
      <trkpt lat="44.42845" lon="1.34183">
        <ele>220.3</ele>
        <time>2025-03-08T13:56:01Z</time>
      </trkpt>
      <trkpt lat="44.42846" lon="1.34183">
        <ele>220.4</ele>
        <time>2025-03-08T13:56:02Z</time>
      </trkpt>
      <trkpt lat="44.42848" lon="1.34184">
        <ele>220.9</ele>
        <time>2025-03-08T13:56:03Z</time>
      </trkpt>
      <trkpt lat="44.42848" lon="1.34185">
        <ele>221.1</ele>
        <time>2025-03-08T13:56:04Z</time>
      </trkpt>
      <trkpt lat="44.42849" lon="1.34185">
        <ele>221.3</ele>
        <time>2025-03-08T13:56:05Z</time>
      </trkpt>
      <trkpt lat="44.4285" lon="1.34186">
        <ele>221.5</ele>
        <time>2025-03-08T13:56:06Z</time>
      </trkpt>
      <trkpt lat="44.42851" lon="1.34186">
        <ele>221.7</ele>
        <time>2025-03-08T13:56:07Z</time>
      </trkpt>
      <trkpt lat="44.42852" lon="1.34187">
        <ele>222</ele>
        <time>2025-03-08T13:56:08Z</time>
      </trkpt>
      <trkpt lat="44.42853" lon="1.34187">
        <ele>222.2</ele>
        <time>2025-03-08T13:56:09Z</time>
      </trkpt>
      <trkpt lat="44.42855" lon="1.34188">
        <ele>222.5</ele>
        <time>2025-03-08T13:56:10Z</time>
      </trkpt>
      <trkpt lat="44.42856" lon="1.34188">
        <ele>222.7</ele>
        <time>2025-03-08T13:56:11Z</time>
      </trkpt>
      <trkpt lat="44.42857" lon="1.34189">
        <ele>222.9</ele>
        <time>2025-03-08T13:56:12Z</time>
      </trkpt>
      <trkpt lat="44.42858" lon="1.34189">
        <ele>223.2</ele>
        <time>2025-03-08T13:56:13Z</time>
      </trkpt>
      <trkpt lat="44.42859" lon="1.34189">
        <ele>223.5</ele>
        <time>2025-03-08T13:56:14Z</time>
      </trkpt>
      <trkpt lat="44.42861" lon="1.3419">
        <ele>223.9</ele>
        <time>2025-03-08T13:56:15Z</time>
      </trkpt>
      <trkpt lat="44.42862" lon="1.3419">
        <ele>224</ele>
        <time>2025-03-08T13:56:16Z</time>
      </trkpt>
      <trkpt lat="44.42863" lon="1.3419">
        <ele>224.2</ele>
        <time>2025-03-08T13:56:17Z</time>
      </trkpt>
      <trkpt lat="44.42864" lon="1.34191">
        <ele>224.4</ele>
        <time>2025-03-08T13:56:18Z</time>
      </trkpt>
      <trkpt lat="44.42865" lon="1.34191">
        <ele>224.6</ele>
        <time>2025-03-08T13:56:19Z</time>
      </trkpt>
      <trkpt lat="44.42866" lon="1.34192">
        <ele>224.8</ele>
        <time>2025-03-08T13:56:20Z</time>
      </trkpt>
      <trkpt lat="44.42867" lon="1.34193">
        <ele>225</ele>
        <time>2025-03-08T13:56:21Z</time>
      </trkpt>
      <trkpt lat="44.42868" lon="1.34193">
        <ele>225.2</ele>
        <time>2025-03-08T13:56:22Z</time>
      </trkpt>
      <trkpt lat="44.42869" lon="1.34193">
        <ele>225.4</ele>
        <time>2025-03-08T13:56:23Z</time>
      </trkpt>
      <trkpt lat="44.42871" lon="1.34192">
        <ele>225.8</ele>
        <time>2025-03-08T13:56:24Z</time>
      </trkpt>
      <trkpt lat="44.42872" lon="1.34192">
        <ele>226</ele>
        <time>2025-03-08T13:56:25Z</time>
      </trkpt>
      <trkpt lat="44.42873" lon="1.34192">
        <ele>226.1</ele>
        <time>2025-03-08T13:56:26Z</time>
      </trkpt>
      <trkpt lat="44.42874" lon="1.34192">
        <ele>226.4</ele>
        <time>2025-03-08T13:56:27Z</time>
      </trkpt>
      <trkpt lat="44.42875" lon="1.34192">
        <ele>226.6</ele>
        <time>2025-03-08T13:56:28Z</time>
      </trkpt>
      <trkpt lat="44.42877" lon="1.34193">
        <ele>226.9</ele>
        <time>2025-03-08T13:56:29Z</time>
      </trkpt>
      <trkpt lat="44.42878" lon="1.34193">
        <ele>227.1</ele>
        <time>2025-03-08T13:56:30Z</time>
      </trkpt>
      <trkpt lat="44.42879" lon="1.34194">
        <ele>227.3</ele>
        <time>2025-03-08T13:56:31Z</time>
      </trkpt>
      <trkpt lat="44.42881" lon="1.34194">
        <ele>227.6</ele>
        <time>2025-03-08T13:56:32Z</time>
      </trkpt>
      <trkpt lat="44.42882" lon="1.34194">
        <ele>227.8</ele>
        <time>2025-03-08T13:56:33Z</time>
      </trkpt>
      <trkpt lat="44.42883" lon="1.34193">
        <ele>228</ele>
        <time>2025-03-08T13:56:34Z</time>
      </trkpt>
      <trkpt lat="44.42884" lon="1.34193">
        <ele>228.2</ele>
        <time>2025-03-08T13:56:35Z</time>
      </trkpt>
      <trkpt lat="44.42885" lon="1.34193">
        <ele>228.4</ele>
        <time>2025-03-08T13:56:36Z</time>
      </trkpt>
      <trkpt lat="44.42887" lon="1.34193">
        <ele>228.6</ele>
        <time>2025-03-08T13:56:37Z</time>
      </trkpt>
      <trkpt lat="44.42889" lon="1.34193">
        <ele>228.9</ele>
        <time>2025-03-08T13:56:38Z</time>
      </trkpt>
      <trkpt lat="44.4289" lon="1.34192">
        <ele>229.1</ele>
        <time>2025-03-08T13:56:39Z</time>
      </trkpt>
      <trkpt lat="44.42891" lon="1.34192">
        <ele>229.3</ele>
        <time>2025-03-08T13:56:40Z</time>
      </trkpt>
      <trkpt lat="44.42892" lon="1.34191">
        <ele>229.4</ele>
        <time>2025-03-08T13:56:41Z</time>
      </trkpt>
      <trkpt lat="44.42893" lon="1.34191">
        <ele>229.6</ele>
        <time>2025-03-08T13:56:42Z</time>
      </trkpt>
      <trkpt lat="44.42895" lon="1.34191">
        <ele>229.8</ele>
        <time>2025-03-08T13:56:43Z</time>
      </trkpt>
      <trkpt lat="44.42896" lon="1.3419">
        <ele>229.9</ele>
        <time>2025-03-08T13:56:44Z</time>
      </trkpt>
      <trkpt lat="44.42897" lon="1.34189">
        <ele>230.1</ele>
        <time>2025-03-08T13:56:45Z</time>
      </trkpt>
      <trkpt lat="44.42898" lon="1.34189">
        <ele>230.2</ele>
        <time>2025-03-08T13:56:46Z</time>
      </trkpt>
      <trkpt lat="44.42899" lon="1.34188">
        <ele>230.4</ele>
        <time>2025-03-08T13:56:47Z</time>
      </trkpt>
      <trkpt lat="44.429" lon="1.34187">
        <ele>230.6</ele>
        <time>2025-03-08T13:56:48Z</time>
      </trkpt>
      <trkpt lat="44.42902" lon="1.34186">
        <ele>230.8</ele>
        <time>2025-03-08T13:56:49Z</time>
      </trkpt>
      <trkpt lat="44.42903" lon="1.34185">
        <ele>231</ele>
        <time>2025-03-08T13:56:50Z</time>
      </trkpt>
      <trkpt lat="44.42904" lon="1.34185">
        <ele>231.1</ele>
        <time>2025-03-08T13:56:51Z</time>
      </trkpt>
      <trkpt lat="44.42905" lon="1.34183">
        <ele>231.4</ele>
        <time>2025-03-08T13:56:52Z</time>
      </trkpt>
      <trkpt lat="44.42906" lon="1.34182">
        <ele>231.5</ele>
        <time>2025-03-08T13:56:53Z</time>
      </trkpt>
      <trkpt lat="44.42907" lon="1.34181">
        <ele>231.6</ele>
        <time>2025-03-08T13:56:54Z</time>
      </trkpt>
      <trkpt lat="44.42908" lon="1.3418">
        <ele>231.8</ele>
        <time>2025-03-08T13:56:55Z</time>
      </trkpt>
      <trkpt lat="44.42909" lon="1.34178">
        <ele>232</ele>
        <time>2025-03-08T13:56:56Z</time>
      </trkpt>
      <trkpt lat="44.4291" lon="1.34175">
        <ele>232.4</ele>
        <time>2025-03-08T13:56:57Z</time>
      </trkpt>
      <trkpt lat="44.42911" lon="1.34174">
        <ele>232.5</ele>
        <time>2025-03-08T13:56:58Z</time>
      </trkpt>
      <trkpt lat="44.42911" lon="1.34173">
        <ele>232.6</ele>
        <time>2025-03-08T13:56:59Z</time>
      </trkpt>
      <trkpt lat="44.42912" lon="1.34171">
        <ele>232.8</ele>
        <time>2025-03-08T13:57:00Z</time>
      </trkpt>
      <trkpt lat="44.42913" lon="1.3417">
        <ele>233</ele>
        <time>2025-03-08T13:57:01Z</time>
      </trkpt>
      <trkpt lat="44.42914" lon="1.34168">
        <ele>233.2</ele>
        <time>2025-03-08T13:57:02Z</time>
      </trkpt>
      <trkpt lat="44.42914" lon="1.34165">
        <ele>233.5</ele>
        <time>2025-03-08T13:57:03Z</time>
      </trkpt>
      <trkpt lat="44.42915" lon="1.34164">
        <ele>233.7</ele>
        <time>2025-03-08T13:57:04Z</time>
      </trkpt>
      <trkpt lat="44.42916" lon="1.34162">
        <ele>233.8</ele>
        <time>2025-03-08T13:57:05Z</time>
      </trkpt>
      <trkpt lat="44.42917" lon="1.34161">
        <ele>234.1</ele>
        <time>2025-03-08T13:57:06Z</time>
      </trkpt>
      <trkpt lat="44.42918" lon="1.34159">
        <ele>234.3</ele>
        <time>2025-03-08T13:57:07Z</time>
      </trkpt>
      <trkpt lat="44.42918" lon="1.34158">
        <ele>234.4</ele>
        <time>2025-03-08T13:57:08Z</time>
      </trkpt>
      <trkpt lat="44.42919" lon="1.34156">
        <ele>234.6</ele>
        <time>2025-03-08T13:57:09Z</time>
      </trkpt>
      <trkpt lat="44.42919" lon="1.34155">
        <ele>234.7</ele>
        <time>2025-03-08T13:57:10Z</time>
      </trkpt>
      <trkpt lat="44.4292" lon="1.34154">
        <ele>234.9</ele>
        <time>2025-03-08T13:57:11Z</time>
      </trkpt>
      <trkpt lat="44.42921" lon="1.34152">
        <ele>235.1</ele>
        <time>2025-03-08T13:57:12Z</time>
      </trkpt>
      <trkpt lat="44.42921" lon="1.3415">
        <ele>235.4</ele>
        <time>2025-03-08T13:57:13Z</time>
      </trkpt>
      <trkpt lat="44.42922" lon="1.34148">
        <ele>235.6</ele>
        <time>2025-03-08T13:57:14Z</time>
      </trkpt>
      <trkpt lat="44.42923" lon="1.34146">
        <ele>235.9</ele>
        <time>2025-03-08T13:57:15Z</time>
      </trkpt>
      <trkpt lat="44.42923" lon="1.34145">
        <ele>236.1</ele>
        <time>2025-03-08T13:57:16Z</time>
      </trkpt>
      <trkpt lat="44.42924" lon="1.34144">
        <ele>236.2</ele>
        <time>2025-03-08T13:57:17Z</time>
      </trkpt>
      <trkpt lat="44.42925" lon="1.34142">
        <ele>236.4</ele>
        <time>2025-03-08T13:57:18Z</time>
      </trkpt>
      <trkpt lat="44.42925" lon="1.34141">
        <ele>236.5</ele>
        <time>2025-03-08T13:57:19Z</time>
      </trkpt>
      <trkpt lat="44.42926" lon="1.3414">
        <ele>236.7</ele>
        <time>2025-03-08T13:57:20Z</time>
      </trkpt>
      <trkpt lat="44.42927" lon="1.34138">
        <ele>236.9</ele>
        <time>2025-03-08T13:57:21Z</time>
      </trkpt>
      <trkpt lat="44.42927" lon="1.34137">
        <ele>237.1</ele>
        <time>2025-03-08T13:57:22Z</time>
      </trkpt>
      <trkpt lat="44.42928" lon="1.34136">
        <ele>237.2</ele>
        <time>2025-03-08T13:57:23Z</time>
      </trkpt>
      <trkpt lat="44.42929" lon="1.34134">
        <ele>237.5</ele>
        <time>2025-03-08T13:57:24Z</time>
      </trkpt>
      <trkpt lat="44.42929" lon="1.34133">
        <ele>237.7</ele>
        <time>2025-03-08T13:57:25Z</time>
      </trkpt>
      <trkpt lat="44.4293" lon="1.34131">
        <ele>238</ele>
        <time>2025-03-08T13:57:26Z</time>
      </trkpt>
      <trkpt lat="44.42931" lon="1.34129">
        <ele>238.2</ele>
        <time>2025-03-08T13:57:27Z</time>
      </trkpt>
      <trkpt lat="44.42932" lon="1.34127">
        <ele>238.6</ele>
        <time>2025-03-08T13:57:28Z</time>
      </trkpt>
      <trkpt lat="44.42933" lon="1.34126">
        <ele>238.7</ele>
        <time>2025-03-08T13:57:29Z</time>
      </trkpt>
      <trkpt lat="44.42934" lon="1.34125">
        <ele>238.8</ele>
        <time>2025-03-08T13:57:30Z</time>
      </trkpt>
      <trkpt lat="44.42934" lon="1.34124">
        <ele>239</ele>
        <time>2025-03-08T13:57:31Z</time>
      </trkpt>
      <trkpt lat="44.42934" lon="1.34123">
        <ele>239.2</ele>
        <time>2025-03-08T13:57:32Z</time>
      </trkpt>
      <trkpt lat="44.42934" lon="1.34121">
        <ele>239.3</ele>
        <time>2025-03-08T13:57:33Z</time>
      </trkpt>
      <trkpt lat="44.42935" lon="1.3412">
        <ele>239.5</ele>
        <time>2025-03-08T13:57:34Z</time>
      </trkpt>
      <trkpt lat="44.42935" lon="1.34119">
        <ele>239.6</ele>
        <time>2025-03-08T13:57:35Z</time>
      </trkpt>
      <trkpt lat="44.42936" lon="1.34119">
        <ele>239.8</ele>
        <time>2025-03-08T13:57:36Z</time>
      </trkpt>
      <trkpt lat="44.42937" lon="1.34117">
        <ele>240</ele>
        <time>2025-03-08T13:57:37Z</time>
      </trkpt>
      <trkpt lat="44.42937" lon="1.34116">
        <ele>240.1</ele>
        <time>2025-03-08T13:57:38Z</time>
      </trkpt>
      <trkpt lat="44.42938" lon="1.34115">
        <ele>240.3</ele>
        <time>2025-03-08T13:57:39Z</time>
      </trkpt>
      <trkpt lat="44.42939" lon="1.34113">
        <ele>240.6</ele>
        <time>2025-03-08T13:57:40Z</time>
      </trkpt>
      <trkpt lat="44.4294" lon="1.34112">
        <ele>240.7</ele>
        <time>2025-03-08T13:57:41Z</time>
      </trkpt>
      <trkpt lat="44.4294" lon="1.34111">
        <ele>240.9</ele>
        <time>2025-03-08T13:57:42Z</time>
      </trkpt>
      <trkpt lat="44.42941" lon="1.3411">
        <ele>241.1</ele>
        <time>2025-03-08T13:57:43Z</time>
      </trkpt>
      <trkpt lat="44.42942" lon="1.34107">
        <ele>241.4</ele>
        <time>2025-03-08T13:57:44Z</time>
      </trkpt>
      <trkpt lat="44.42943" lon="1.34106">
        <ele>241.6</ele>
        <time>2025-03-08T13:57:45Z</time>
      </trkpt>
      <trkpt lat="44.42943" lon="1.34104">
        <ele>241.8</ele>
        <time>2025-03-08T13:57:46Z</time>
      </trkpt>
      <trkpt lat="44.42944" lon="1.34103">
        <ele>242</ele>
        <time>2025-03-08T13:57:47Z</time>
      </trkpt>
      <trkpt lat="44.42945" lon="1.34102">
        <ele>242.1</ele>
        <time>2025-03-08T13:57:48Z</time>
      </trkpt>
      <trkpt lat="44.42945" lon="1.34101">
        <ele>242.2</ele>
        <time>2025-03-08T13:57:49Z</time>
      </trkpt>
      <trkpt lat="44.42946" lon="1.341">
        <ele>242.4</ele>
        <time>2025-03-08T13:57:50Z</time>
      </trkpt>
      <trkpt lat="44.42946" lon="1.34098">
        <ele>242.6</ele>
        <time>2025-03-08T13:57:51Z</time>
      </trkpt>
      <trkpt lat="44.42948" lon="1.34095">
        <ele>243</ele>
        <time>2025-03-08T13:57:52Z</time>
      </trkpt>
      <trkpt lat="44.42949" lon="1.34093">
        <ele>243.2</ele>
        <time>2025-03-08T13:57:53Z</time>
      </trkpt>
      <trkpt lat="44.42949" lon="1.34091">
        <ele>243.4</ele>
        <time>2025-03-08T13:57:54Z</time>
      </trkpt>
      <trkpt lat="44.4295" lon="1.3409">
        <ele>243.6</ele>
        <time>2025-03-08T13:57:55Z</time>
      </trkpt>
      <trkpt lat="44.42951" lon="1.34088">
        <ele>243.9</ele>
        <time>2025-03-08T13:57:56Z</time>
      </trkpt>
      <trkpt lat="44.42952" lon="1.34087">
        <ele>244</ele>
        <time>2025-03-08T13:57:57Z</time>
      </trkpt>
      <trkpt lat="44.42952" lon="1.34086">
        <ele>244.2</ele>
        <time>2025-03-08T13:57:58Z</time>
      </trkpt>
      <trkpt lat="44.42953" lon="1.34086">
        <ele>244.3</ele>
        <time>2025-03-08T13:57:59Z</time>
      </trkpt>
      <trkpt lat="44.42954" lon="1.34085">
        <ele>244.4</ele>
        <time>2025-03-08T13:58:00Z</time>
      </trkpt>
      <trkpt lat="44.42955" lon="1.34083">
        <ele>244.7</ele>
        <time>2025-03-08T13:58:01Z</time>
      </trkpt>
      <trkpt lat="44.42955" lon="1.34081">
        <ele>244.9</ele>
        <time>2025-03-08T13:58:02Z</time>
      </trkpt>
      <trkpt lat="44.42957" lon="1.34079">
        <ele>245.2</ele>
        <time>2025-03-08T13:58:03Z</time>
      </trkpt>
      <trkpt lat="44.42958" lon="1.34076">
        <ele>245.5</ele>
        <time>2025-03-08T13:58:04Z</time>
      </trkpt>
      <trkpt lat="44.42959" lon="1.34076">
        <ele>245.6</ele>
        <time>2025-03-08T13:58:05Z</time>
      </trkpt>
      <trkpt lat="44.42959" lon="1.34075">
        <ele>245.7</ele>
        <time>2025-03-08T13:58:06Z</time>
      </trkpt>
      <trkpt lat="44.4296" lon="1.34074">
        <ele>245.9</ele>
        <time>2025-03-08T13:58:07Z</time>
      </trkpt>
      <trkpt lat="44.4296" lon="1.34073">
        <ele>246</ele>
        <time>2025-03-08T13:58:08Z</time>
      </trkpt>
      <trkpt lat="44.42961" lon="1.34071">
        <ele>246.2</ele>
        <time>2025-03-08T13:58:09Z</time>
      </trkpt>
      <trkpt lat="44.42962" lon="1.34069">
        <ele>246.5</ele>
        <time>2025-03-08T13:58:10Z</time>
      </trkpt>
      <trkpt lat="44.42963" lon="1.34068">
        <ele>246.7</ele>
        <time>2025-03-08T13:58:11Z</time>
      </trkpt>
      <trkpt lat="44.42964" lon="1.34067">
        <ele>246.9</ele>
        <time>2025-03-08T13:58:12Z</time>
      </trkpt>
      <trkpt lat="44.42965" lon="1.34066">
        <ele>247.1</ele>
        <time>2025-03-08T13:58:13Z</time>
      </trkpt>
      <trkpt lat="44.42967" lon="1.34065">
        <ele>247.3</ele>
        <time>2025-03-08T13:58:14Z</time>
      </trkpt>
      <trkpt lat="44.42968" lon="1.34063">
        <ele>247.6</ele>
        <time>2025-03-08T13:58:15Z</time>
      </trkpt>
      <trkpt lat="44.42969" lon="1.34061">
        <ele>248</ele>
        <time>2025-03-08T13:58:16Z</time>
      </trkpt>
      <trkpt lat="44.4297" lon="1.3406">
        <ele>248.1</ele>
        <time>2025-03-08T13:58:17Z</time>
      </trkpt>
      <trkpt lat="44.42971" lon="1.34059">
        <ele>248.2</ele>
        <time>2025-03-08T13:58:18Z</time>
      </trkpt>
      <trkpt lat="44.42972" lon="1.34057">
        <ele>248.6</ele>
        <time>2025-03-08T13:58:19Z</time>
      </trkpt>
      <trkpt lat="44.42973" lon="1.34056">
        <ele>248.7</ele>
        <time>2025-03-08T13:58:20Z</time>
      </trkpt>
      <trkpt lat="44.42973" lon="1.34055">
        <ele>248.9</ele>
        <time>2025-03-08T13:58:21Z</time>
      </trkpt>
      <trkpt lat="44.42974" lon="1.34053">
        <ele>249.2</ele>
        <time>2025-03-08T13:58:22Z</time>
      </trkpt>
      <trkpt lat="44.42975" lon="1.34051">
        <ele>249.4</ele>
        <time>2025-03-08T13:58:23Z</time>
      </trkpt>
      <trkpt lat="44.42977" lon="1.34049">
        <ele>249.8</ele>
        <time>2025-03-08T13:58:24Z</time>
      </trkpt>
      <trkpt lat="44.42977" lon="1.34049">
        <ele>249.9</ele>
        <time>2025-03-08T13:58:25Z</time>
      </trkpt>
      <trkpt lat="44.42978" lon="1.34048">
        <ele>250.1</ele>
        <time>2025-03-08T13:58:26Z</time>
      </trkpt>
      <trkpt lat="44.4298" lon="1.34045">
        <ele>250.5</ele>
        <time>2025-03-08T13:58:27Z</time>
      </trkpt>
      <trkpt lat="44.4298" lon="1.34045">
        <ele>250.6</ele>
        <time>2025-03-08T13:58:28Z</time>
      </trkpt>
      <trkpt lat="44.42981" lon="1.34044">
        <ele>250.7</ele>
        <time>2025-03-08T13:58:29Z</time>
      </trkpt>
      <trkpt lat="44.42982" lon="1.34042">
        <ele>251</ele>
        <time>2025-03-08T13:58:30Z</time>
      </trkpt>
      <trkpt lat="44.42983" lon="1.34041">
        <ele>251.2</ele>
        <time>2025-03-08T13:58:31Z</time>
      </trkpt>
      <trkpt lat="44.42984" lon="1.3404">
        <ele>251.4</ele>
        <time>2025-03-08T13:58:32Z</time>
      </trkpt>
      <trkpt lat="44.42984" lon="1.34039">
        <ele>251.6</ele>
        <time>2025-03-08T13:58:33Z</time>
      </trkpt>
      <trkpt lat="44.42985" lon="1.34039">
        <ele>251.7</ele>
        <time>2025-03-08T13:58:34Z</time>
      </trkpt>
      <trkpt lat="44.42987" lon="1.34036">
        <ele>252.1</ele>
        <time>2025-03-08T13:58:35Z</time>
      </trkpt>
      <trkpt lat="44.42987" lon="1.34036">
        <ele>252.3</ele>
        <time>2025-03-08T13:58:36Z</time>
      </trkpt>
      <trkpt lat="44.42988" lon="1.34035">
        <ele>252.4</ele>
        <time>2025-03-08T13:58:37Z</time>
      </trkpt>
      <trkpt lat="44.42989" lon="1.34033">
        <ele>252.7</ele>
        <time>2025-03-08T13:58:38Z</time>
      </trkpt>
      <trkpt lat="44.4299" lon="1.34031">
        <ele>253</ele>
        <time>2025-03-08T13:58:39Z</time>
      </trkpt>
      <trkpt lat="44.42991" lon="1.34029">
        <ele>253.3</ele>
        <time>2025-03-08T13:58:40Z</time>
      </trkpt>
      <trkpt lat="44.42993" lon="1.34028">
        <ele>253.6</ele>
        <time>2025-03-08T13:58:41Z</time>
      </trkpt>
      <trkpt lat="44.42993" lon="1.34026">
        <ele>253.7</ele>
        <time>2025-03-08T13:58:42Z</time>
      </trkpt>
      <trkpt lat="44.42994" lon="1.34025">
        <ele>253.9</ele>
        <time>2025-03-08T13:58:43Z</time>
      </trkpt>
      <trkpt lat="44.42994" lon="1.34024">
        <ele>254.1</ele>
        <time>2025-03-08T13:58:44Z</time>
      </trkpt>
      <trkpt lat="44.42996" lon="1.34021">
        <ele>254.5</ele>
        <time>2025-03-08T13:58:45Z</time>
      </trkpt>
      <trkpt lat="44.42996" lon="1.34021">
        <ele>254.6</ele>
        <time>2025-03-08T13:58:46Z</time>
      </trkpt>
      <trkpt lat="44.42997" lon="1.3402">
        <ele>254.7</ele>
        <time>2025-03-08T13:58:47Z</time>
      </trkpt>
      <trkpt lat="44.42998" lon="1.34018">
        <ele>255</ele>
        <time>2025-03-08T13:58:48Z</time>
      </trkpt>
      <trkpt lat="44.42998" lon="1.34016">
        <ele>255.2</ele>
        <time>2025-03-08T13:58:49Z</time>
      </trkpt>
      <trkpt lat="44.43" lon="1.34014">
        <ele>255.5</ele>
        <time>2025-03-08T13:58:50Z</time>
      </trkpt>
      <trkpt lat="44.43" lon="1.34013">
        <ele>255.7</ele>
        <time>2025-03-08T13:58:51Z</time>
      </trkpt>
      <trkpt lat="44.43001" lon="1.34011">
        <ele>255.9</ele>
        <time>2025-03-08T13:58:52Z</time>
      </trkpt>
      <trkpt lat="44.43002" lon="1.3401">
        <ele>256</ele>
        <time>2025-03-08T13:58:53Z</time>
      </trkpt>
      <trkpt lat="44.43003" lon="1.34009">
        <ele>256.2</ele>
        <time>2025-03-08T13:58:54Z</time>
      </trkpt>
      <trkpt lat="44.43004" lon="1.34007">
        <ele>256.5</ele>
        <time>2025-03-08T13:58:55Z</time>
      </trkpt>
      <trkpt lat="44.43004" lon="1.34006">
        <ele>256.6</ele>
        <time>2025-03-08T13:58:56Z</time>
      </trkpt>
      <trkpt lat="44.43005" lon="1.34004">
        <ele>256.7</ele>
        <time>2025-03-08T13:58:57Z</time>
      </trkpt>
      <trkpt lat="44.43005" lon="1.34003">
        <ele>257</ele>
        <time>2025-03-08T13:58:58Z</time>
      </trkpt>
      <trkpt lat="44.43006" lon="1.34001">
        <ele>257.2</ele>
        <time>2025-03-08T13:58:59Z</time>
      </trkpt>
      <trkpt lat="44.43007" lon="1.33999">
        <ele>257.4</ele>
        <time>2025-03-08T13:59:00Z</time>
      </trkpt>
      <trkpt lat="44.43008" lon="1.33997">
        <ele>257.6</ele>
        <time>2025-03-08T13:59:01Z</time>
      </trkpt>
      <trkpt lat="44.43009" lon="1.33995">
        <ele>257.9</ele>
        <time>2025-03-08T13:59:02Z</time>
      </trkpt>
      <trkpt lat="44.4301" lon="1.33994">
        <ele>258</ele>
        <time>2025-03-08T13:59:03Z</time>
      </trkpt>
      <trkpt lat="44.4301" lon="1.33993">
        <ele>258.1</ele>
        <time>2025-03-08T13:59:04Z</time>
      </trkpt>
      <trkpt lat="44.43011" lon="1.33992">
        <ele>258.2</ele>
        <time>2025-03-08T13:59:05Z</time>
      </trkpt>
      <trkpt lat="44.43011" lon="1.33991">
        <ele>258.4</ele>
        <time>2025-03-08T13:59:06Z</time>
      </trkpt>
      <trkpt lat="44.43012" lon="1.33989">
        <ele>258.6</ele>
        <time>2025-03-08T13:59:07Z</time>
      </trkpt>
      <trkpt lat="44.43013" lon="1.33986">
        <ele>258.8</ele>
        <time>2025-03-08T13:59:08Z</time>
      </trkpt>
      <trkpt lat="44.43013" lon="1.33985">
        <ele>259</ele>
        <time>2025-03-08T13:59:09Z</time>
      </trkpt>
      <trkpt lat="44.43014" lon="1.33984">
        <ele>259.1</ele>
        <time>2025-03-08T13:59:10Z</time>
      </trkpt>
      <trkpt lat="44.43014" lon="1.33983">
        <ele>259.3</ele>
        <time>2025-03-08T13:59:11Z</time>
      </trkpt>
      <trkpt lat="44.43015" lon="1.33981">
        <ele>259.5</ele>
        <time>2025-03-08T13:59:12Z</time>
      </trkpt>
      <trkpt lat="44.43016" lon="1.33979">
        <ele>259.7</ele>
        <time>2025-03-08T13:59:13Z</time>
      </trkpt>
      <trkpt lat="44.43016" lon="1.33978">
        <ele>259.8</ele>
        <time>2025-03-08T13:59:14Z</time>
      </trkpt>
      <trkpt lat="44.43016" lon="1.33977">
        <ele>259.9</ele>
        <time>2025-03-08T13:59:15Z</time>
      </trkpt>
      <trkpt lat="44.43017" lon="1.33975">
        <ele>260.1</ele>
        <time>2025-03-08T13:59:16Z</time>
      </trkpt>
      <trkpt lat="44.43018" lon="1.33973">
        <ele>260.4</ele>
        <time>2025-03-08T13:59:17Z</time>
      </trkpt>
      <trkpt lat="44.43019" lon="1.33971">
        <ele>260.6</ele>
        <time>2025-03-08T13:59:18Z</time>
      </trkpt>
      <trkpt lat="44.43019" lon="1.33969">
        <ele>260.8</ele>
        <time>2025-03-08T13:59:19Z</time>
      </trkpt>
      <trkpt lat="44.4302" lon="1.33967">
        <ele>261</ele>
        <time>2025-03-08T13:59:20Z</time>
      </trkpt>
      <trkpt lat="44.43021" lon="1.33965">
        <ele>261.1</ele>
        <time>2025-03-08T13:59:21Z</time>
      </trkpt>
      <trkpt lat="44.43022" lon="1.33961">
        <ele>261.5</ele>
        <time>2025-03-08T13:59:22Z</time>
      </trkpt>
      <trkpt lat="44.43022" lon="1.3396">
        <ele>261.5</ele>
        <time>2025-03-08T13:59:23Z</time>
      </trkpt>
      <trkpt lat="44.43023" lon="1.33959">
        <ele>261.7</ele>
        <time>2025-03-08T13:59:24Z</time>
      </trkpt>
      <trkpt lat="44.43024" lon="1.33957">
        <ele>261.9</ele>
        <time>2025-03-08T13:59:25Z</time>
      </trkpt>
      <trkpt lat="44.43025" lon="1.33956">
        <ele>262</ele>
        <time>2025-03-08T13:59:26Z</time>
      </trkpt>
      <trkpt lat="44.43026" lon="1.33955">
        <ele>262</ele>
        <time>2025-03-08T13:59:27Z</time>
      </trkpt>
      <trkpt lat="44.43026" lon="1.33954">
        <ele>262.1</ele>
        <time>2025-03-08T13:59:28Z</time>
      </trkpt>
      <trkpt lat="44.43026" lon="1.33953">
        <ele>262.2</ele>
        <time>2025-03-08T13:59:29Z</time>
      </trkpt>
      <trkpt lat="44.43027" lon="1.33951">
        <ele>262.2</ele>
        <time>2025-03-08T13:59:30Z</time>
      </trkpt>
      <trkpt lat="44.43028" lon="1.33951">
        <ele>262.3</ele>
        <time>2025-03-08T13:59:31Z</time>
      </trkpt>
      <trkpt lat="44.43029" lon="1.33949">
        <ele>262.3</ele>
        <time>2025-03-08T13:59:32Z</time>
      </trkpt>
      <trkpt lat="44.4303" lon="1.33946">
        <ele>262.4</ele>
        <time>2025-03-08T13:59:33Z</time>
      </trkpt>
      <trkpt lat="44.43031" lon="1.33943">
        <ele>262.5</ele>
        <time>2025-03-08T13:59:34Z</time>
      </trkpt>
      <trkpt lat="44.43032" lon="1.33941">
        <ele>262.5</ele>
        <time>2025-03-08T13:59:35Z</time>
      </trkpt>
      <trkpt lat="44.43034" lon="1.33936">
        <ele>262.5</ele>
        <time>2025-03-08T13:59:36Z</time>
      </trkpt>
      <trkpt lat="44.43035" lon="1.33934">
        <ele>262.5</ele>
        <time>2025-03-08T13:59:37Z</time>
      </trkpt>
      <trkpt lat="44.43036" lon="1.3393">
        <ele>262.5</ele>
        <time>2025-03-08T13:59:38Z</time>
      </trkpt>
      <trkpt lat="44.43038" lon="1.33926">
        <ele>262.5</ele>
        <time>2025-03-08T13:59:39Z</time>
      </trkpt>
      <trkpt lat="44.43039" lon="1.33924">
        <ele>262.5</ele>
        <time>2025-03-08T13:59:40Z</time>
      </trkpt>
      <trkpt lat="44.4304" lon="1.3392">
        <ele>262.4</ele>
        <time>2025-03-08T13:59:41Z</time>
      </trkpt>
      <trkpt lat="44.43041" lon="1.33919">
        <ele>262.4</ele>
        <time>2025-03-08T13:59:42Z</time>
      </trkpt>
      <trkpt lat="44.43042" lon="1.33918">
        <ele>262.4</ele>
        <time>2025-03-08T13:59:43Z</time>
      </trkpt>
      <trkpt lat="44.43042" lon="1.33916">
        <ele>262.4</ele>
        <time>2025-03-08T13:59:44Z</time>
      </trkpt>
      <trkpt lat="44.43043" lon="1.33916">
        <ele>262.4</ele>
        <time>2025-03-08T13:59:45Z</time>
      </trkpt>
      <trkpt lat="44.43043" lon="1.33916">
        <ele>262.4</ele>
        <time>2025-03-08T13:59:46Z</time>
      </trkpt>
      <trkpt lat="44.43043" lon="1.33916">
        <ele>262.4</ele>
        <time>2025-03-08T13:59:47Z</time>
      </trkpt>
      <trkpt lat="44.43043" lon="1.33916">
        <ele>262.4</ele>
        <time>2025-03-08T13:59:48Z</time>
      </trkpt>
      <trkpt lat="44.43043" lon="1.33916">
        <ele>262.4</ele>
        <time>2025-03-08T13:59:49Z</time>
      </trkpt>
      <trkpt lat="44.43043" lon="1.33915">
        <ele>262.4</ele>
        <time>2025-03-08T13:59:50Z</time>
      </trkpt>
      <trkpt lat="44.43043" lon="1.33914">
        <ele>262.4</ele>
        <time>2025-03-08T13:59:51Z</time>
      </trkpt>
      <trkpt lat="44.43043" lon="1.33914">
        <ele>262.4</ele>
        <time>2025-03-08T13:59:52Z</time>
      </trkpt>
      <trkpt lat="44.43043" lon="1.33914">
        <ele>262.4</ele>
        <time>2025-03-08T13:59:53Z</time>
      </trkpt>
      <trkpt lat="44.43042" lon="1.33915">
        <ele>262.4</ele>
        <time>2025-03-08T13:59:54Z</time>
      </trkpt>
      <trkpt lat="44.43041" lon="1.33917">
        <ele>262.4</ele>
        <time>2025-03-08T13:59:55Z</time>
      </trkpt>
      <trkpt lat="44.4304" lon="1.33919">
        <ele>262.4</ele>
        <time>2025-03-08T13:59:56Z</time>
      </trkpt>
      <trkpt lat="44.4304" lon="1.33921">
        <ele>262.4</ele>
        <time>2025-03-08T13:59:57Z</time>
      </trkpt>
      <trkpt lat="44.43039" lon="1.33923">
        <ele>262.4</ele>
        <time>2025-03-08T13:59:58Z</time>
      </trkpt>
      <trkpt lat="44.43039" lon="1.33925">
        <ele>262.5</ele>
        <time>2025-03-08T13:59:59Z</time>
      </trkpt>
      <trkpt lat="44.43038" lon="1.33927">
        <ele>262.5</ele>
        <time>2025-03-08T14:00:00Z</time>
      </trkpt>
      <trkpt lat="44.43037" lon="1.33931">
        <ele>262.5</ele>
        <time>2025-03-08T14:00:01Z</time>
      </trkpt>
      <trkpt lat="44.43036" lon="1.33932">
        <ele>262.5</ele>
        <time>2025-03-08T14:00:02Z</time>
      </trkpt>
      <trkpt lat="44.43035" lon="1.33935">
        <ele>262.5</ele>
        <time>2025-03-08T14:00:03Z</time>
      </trkpt>
      <trkpt lat="44.43034" lon="1.33936">
        <ele>262.5</ele>
        <time>2025-03-08T14:00:04Z</time>
      </trkpt>
      <trkpt lat="44.43032" lon="1.3394">
        <ele>262.5</ele>
        <time>2025-03-08T14:00:05Z</time>
      </trkpt>
      <trkpt lat="44.43031" lon="1.33941">
        <ele>262.5</ele>
        <time>2025-03-08T14:00:06Z</time>
      </trkpt>
      <trkpt lat="44.43029" lon="1.33945">
        <ele>262.5</ele>
        <time>2025-03-08T14:00:07Z</time>
      </trkpt>
      <trkpt lat="44.43028" lon="1.33946">
        <ele>262.5</ele>
        <time>2025-03-08T14:00:08Z</time>
      </trkpt>
      <trkpt lat="44.43026" lon="1.33949">
        <ele>262.3</ele>
        <time>2025-03-08T14:00:09Z</time>
      </trkpt>
      <trkpt lat="44.43025" lon="1.3395">
        <ele>262.4</ele>
        <time>2025-03-08T14:00:10Z</time>
      </trkpt>
      <trkpt lat="44.43023" lon="1.33951">
        <ele>262.5</ele>
        <time>2025-03-08T14:00:11Z</time>
      </trkpt>
      <trkpt lat="44.43022" lon="1.33952">
        <ele>262.7</ele>
        <time>2025-03-08T14:00:12Z</time>
      </trkpt>
      <trkpt lat="44.4302" lon="1.33953">
        <ele>262.3</ele>
        <time>2025-03-08T14:00:13Z</time>
      </trkpt>
      <trkpt lat="44.43019" lon="1.33953">
        <ele>262.5</ele>
        <time>2025-03-08T14:00:14Z</time>
      </trkpt>
      <trkpt lat="44.43018" lon="1.33954">
        <ele>262.6</ele>
        <time>2025-03-08T14:00:15Z</time>
      </trkpt>
      <trkpt lat="44.43016" lon="1.33955">
        <ele>262.6</ele>
        <time>2025-03-08T14:00:16Z</time>
      </trkpt>
      <trkpt lat="44.43015" lon="1.33956">
        <ele>262.9</ele>
        <time>2025-03-08T14:00:17Z</time>
      </trkpt>
      <trkpt lat="44.43012" lon="1.33956">
        <ele>262.6</ele>
        <time>2025-03-08T14:00:18Z</time>
      </trkpt>
      <trkpt lat="44.43011" lon="1.33957">
        <ele>262.6</ele>
        <time>2025-03-08T14:00:19Z</time>
      </trkpt>
      <trkpt lat="44.43009" lon="1.33958">
        <ele>262.9</ele>
        <time>2025-03-08T14:00:20Z</time>
      </trkpt>
      <trkpt lat="44.43008" lon="1.3396">
        <ele>263</ele>
        <time>2025-03-08T14:00:21Z</time>
      </trkpt>
      <trkpt lat="44.43007" lon="1.33961">
        <ele>262.7</ele>
        <time>2025-03-08T14:00:22Z</time>
      </trkpt>
      <trkpt lat="44.43005" lon="1.33964">
        <ele>262.8</ele>
        <time>2025-03-08T14:00:23Z</time>
      </trkpt>
      <trkpt lat="44.43004" lon="1.33964">
        <ele>263.1</ele>
        <time>2025-03-08T14:00:24Z</time>
      </trkpt>
      <trkpt lat="44.43003" lon="1.33965">
        <ele>262.6</ele>
        <time>2025-03-08T14:00:25Z</time>
      </trkpt>
      <trkpt lat="44.43001" lon="1.33966">
        <ele>262.9</ele>
        <time>2025-03-08T14:00:26Z</time>
      </trkpt>
      <trkpt lat="44.42998" lon="1.33968">
        <ele>263.3</ele>
        <time>2025-03-08T14:00:27Z</time>
      </trkpt>
      <trkpt lat="44.42996" lon="1.33969">
        <ele>263.3</ele>
        <time>2025-03-08T14:00:28Z</time>
      </trkpt>
      <trkpt lat="44.42995" lon="1.3397">
        <ele>263.1</ele>
        <time>2025-03-08T14:00:29Z</time>
      </trkpt>
      <trkpt lat="44.42994" lon="1.33971">
        <ele>263.2</ele>
        <time>2025-03-08T14:00:30Z</time>
      </trkpt>
      <trkpt lat="44.42991" lon="1.33974">
        <ele>262.9</ele>
        <time>2025-03-08T14:00:31Z</time>
      </trkpt>
      <trkpt lat="44.42991" lon="1.33975">
        <ele>263</ele>
        <time>2025-03-08T14:00:32Z</time>
      </trkpt>
      <trkpt lat="44.42989" lon="1.33976">
        <ele>263.1</ele>
        <time>2025-03-08T14:00:33Z</time>
      </trkpt>
      <trkpt lat="44.42989" lon="1.33976">
        <ele>263.4</ele>
        <time>2025-03-08T14:00:34Z</time>
      </trkpt>
      <trkpt lat="44.42988" lon="1.33977">
        <ele>263.5</ele>
        <time>2025-03-08T14:00:35Z</time>
      </trkpt>
      <trkpt lat="44.42987" lon="1.33978">
        <ele>262.9</ele>
        <time>2025-03-08T14:00:36Z</time>
      </trkpt>
      <trkpt lat="44.42985" lon="1.3398">
        <ele>263.3</ele>
        <time>2025-03-08T14:00:37Z</time>
      </trkpt>
      <trkpt lat="44.42984" lon="1.33981">
        <ele>263.4</ele>
        <time>2025-03-08T14:00:38Z</time>
      </trkpt>
      <trkpt lat="44.42983" lon="1.33982">
        <ele>262.8</ele>
        <time>2025-03-08T14:00:39Z</time>
      </trkpt>
      <trkpt lat="44.42981" lon="1.33982">
        <ele>263.2</ele>
        <time>2025-03-08T14:00:40Z</time>
      </trkpt>
      <trkpt lat="44.4298" lon="1.33982">
        <ele>263.6</ele>
        <time>2025-03-08T14:00:41Z</time>
      </trkpt>
      <trkpt lat="44.42978" lon="1.33982">
        <ele>263.6</ele>
        <time>2025-03-08T14:00:42Z</time>
      </trkpt>
      <trkpt lat="44.42975" lon="1.33982">
        <ele>264</ele>
        <time>2025-03-08T14:00:43Z</time>
      </trkpt>
      <trkpt lat="44.42975" lon="1.33982">
        <ele>264.1</ele>
        <time>2025-03-08T14:00:44Z</time>
      </trkpt>
      <trkpt lat="44.42973" lon="1.33982">
        <ele>264.5</ele>
        <time>2025-03-08T14:00:45Z</time>
      </trkpt>
      <trkpt lat="44.42972" lon="1.33982">
        <ele>264.6</ele>
        <time>2025-03-08T14:00:46Z</time>
      </trkpt>
      <trkpt lat="44.42971" lon="1.33982">
        <ele>265.2</ele>
        <time>2025-03-08T14:00:47Z</time>
      </trkpt>
      <trkpt lat="44.42968" lon="1.33981">
        <ele>265.6</ele>
        <time>2025-03-08T14:00:48Z</time>
      </trkpt>
      <trkpt lat="44.42967" lon="1.33981">
        <ele>266</ele>
        <time>2025-03-08T14:00:49Z</time>
      </trkpt>
      <trkpt lat="44.42965" lon="1.33981">
        <ele>266.1</ele>
        <time>2025-03-08T14:00:50Z</time>
      </trkpt>
      <trkpt lat="44.42964" lon="1.33981">
        <ele>266.5</ele>
        <time>2025-03-08T14:00:51Z</time>
      </trkpt>
      <trkpt lat="44.42962" lon="1.33981">
        <ele>266.5</ele>
        <time>2025-03-08T14:00:52Z</time>
      </trkpt>
      <trkpt lat="44.4296" lon="1.33982">
        <ele>266.9</ele>
        <time>2025-03-08T14:00:53Z</time>
      </trkpt>
      <trkpt lat="44.42958" lon="1.33983">
        <ele>266.4</ele>
        <time>2025-03-08T14:00:54Z</time>
      </trkpt>
      <trkpt lat="44.42957" lon="1.33983">
        <ele>266.8</ele>
        <time>2025-03-08T14:00:55Z</time>
      </trkpt>
      <trkpt lat="44.42957" lon="1.33984">
        <ele>266.9</ele>
        <time>2025-03-08T14:00:56Z</time>
      </trkpt>
      <trkpt lat="44.42955" lon="1.33985">
        <ele>267.3</ele>
        <time>2025-03-08T14:00:57Z</time>
      </trkpt>
      <trkpt lat="44.42953" lon="1.33986">
        <ele>266.7</ele>
        <time>2025-03-08T14:00:58Z</time>
      </trkpt>
      <trkpt lat="44.42952" lon="1.33987">
        <ele>267.1</ele>
        <time>2025-03-08T14:00:59Z</time>
      </trkpt>
      <trkpt lat="44.4295" lon="1.33987">
        <ele>267.2</ele>
        <time>2025-03-08T14:01:00Z</time>
      </trkpt>
      <trkpt lat="44.42948" lon="1.33988">
        <ele>267.5</ele>
        <time>2025-03-08T14:01:01Z</time>
      </trkpt>
      <trkpt lat="44.42947" lon="1.33988">
        <ele>267.6</ele>
        <time>2025-03-08T14:01:02Z</time>
      </trkpt>
      <trkpt lat="44.42946" lon="1.33988">
        <ele>267.7</ele>
        <time>2025-03-08T14:01:03Z</time>
      </trkpt>
      <trkpt lat="44.42944" lon="1.33987">
        <ele>268</ele>
        <time>2025-03-08T14:01:04Z</time>
      </trkpt>
      <trkpt lat="44.42943" lon="1.33987">
        <ele>268.1</ele>
        <time>2025-03-08T14:01:05Z</time>
      </trkpt>
      <trkpt lat="44.42942" lon="1.33986">
        <ele>268.4</ele>
        <time>2025-03-08T14:01:06Z</time>
      </trkpt>
      <trkpt lat="44.42941" lon="1.33985">
        <ele>269.2</ele>
        <time>2025-03-08T14:01:07Z</time>
      </trkpt>
      <trkpt lat="44.42939" lon="1.33985">
        <ele>269.5</ele>
        <time>2025-03-08T14:01:08Z</time>
      </trkpt>
      <trkpt lat="44.42937" lon="1.33984">
        <ele>269.5</ele>
        <time>2025-03-08T14:01:09Z</time>
      </trkpt>
      <trkpt lat="44.42936" lon="1.33985">
        <ele>269.8</ele>
        <time>2025-03-08T14:01:10Z</time>
      </trkpt>
      <trkpt lat="44.42935" lon="1.33985">
        <ele>269.9</ele>
        <time>2025-03-08T14:01:11Z</time>
      </trkpt>
      <trkpt lat="44.42934" lon="1.33985">
        <ele>269.9</ele>
        <time>2025-03-08T14:01:12Z</time>
      </trkpt>
      <trkpt lat="44.42933" lon="1.33985">
        <ele>270.2</ele>
        <time>2025-03-08T14:01:13Z</time>
      </trkpt>
      <trkpt lat="44.42932" lon="1.33985">
        <ele>270.3</ele>
        <time>2025-03-08T14:01:14Z</time>
      </trkpt>
      <trkpt lat="44.42931" lon="1.33985">
        <ele>270.3</ele>
        <time>2025-03-08T14:01:15Z</time>
      </trkpt>
      <trkpt lat="44.4293" lon="1.33985">
        <ele>270.5</ele>
        <time>2025-03-08T14:01:16Z</time>
      </trkpt>
      <trkpt lat="44.42927" lon="1.33985">
        <ele>270.7</ele>
        <time>2025-03-08T14:01:17Z</time>
      </trkpt>
      <trkpt lat="44.42926" lon="1.33985">
        <ele>270.8</ele>
        <time>2025-03-08T14:01:18Z</time>
      </trkpt>
      <trkpt lat="44.42925" lon="1.33985">
        <ele>270.8</ele>
        <time>2025-03-08T14:01:19Z</time>
      </trkpt>
      <trkpt lat="44.42923" lon="1.33985">
        <ele>271</ele>
        <time>2025-03-08T14:01:20Z</time>
      </trkpt>
      <trkpt lat="44.42922" lon="1.33985">
        <ele>271</ele>
        <time>2025-03-08T14:01:21Z</time>
      </trkpt>
      <trkpt lat="44.4292" lon="1.33985">
        <ele>271.1</ele>
        <time>2025-03-08T14:01:22Z</time>
      </trkpt>
      <trkpt lat="44.42919" lon="1.33984">
        <ele>271.2</ele>
        <time>2025-03-08T14:01:23Z</time>
      </trkpt>
      <trkpt lat="44.42918" lon="1.33984">
        <ele>271.2</ele>
        <time>2025-03-08T14:01:24Z</time>
      </trkpt>
      <trkpt lat="44.42915" lon="1.33984">
        <ele>271.2</ele>
        <time>2025-03-08T14:01:25Z</time>
      </trkpt>
      <trkpt lat="44.42914" lon="1.33983">
        <ele>271.3</ele>
        <time>2025-03-08T14:01:26Z</time>
      </trkpt>
      <trkpt lat="44.42913" lon="1.33982">
        <ele>271.4</ele>
        <time>2025-03-08T14:01:27Z</time>
      </trkpt>
      <trkpt lat="44.42912" lon="1.33981">
        <ele>272</ele>
        <time>2025-03-08T14:01:28Z</time>
      </trkpt>
      <trkpt lat="44.42911" lon="1.33979">
        <ele>272</ele>
        <time>2025-03-08T14:01:29Z</time>
      </trkpt>
      <trkpt lat="44.42908" lon="1.33978">
        <ele>271.9</ele>
        <time>2025-03-08T14:01:30Z</time>
      </trkpt>
      <trkpt lat="44.42907" lon="1.33978">
        <ele>272</ele>
        <time>2025-03-08T14:01:31Z</time>
      </trkpt>
      <trkpt lat="44.42905" lon="1.33978">
        <ele>271.9</ele>
        <time>2025-03-08T14:01:32Z</time>
      </trkpt>
      <trkpt lat="44.42904" lon="1.33977">
        <ele>272.6</ele>
        <time>2025-03-08T14:01:33Z</time>
      </trkpt>
      <trkpt lat="44.42903" lon="1.33976">
        <ele>272.4</ele>
        <time>2025-03-08T14:01:34Z</time>
      </trkpt>
      <trkpt lat="44.42902" lon="1.33975">
        <ele>272.5</ele>
        <time>2025-03-08T14:01:35Z</time>
      </trkpt>
      <trkpt lat="44.42901" lon="1.33973">
        <ele>272.6</ele>
        <time>2025-03-08T14:01:36Z</time>
      </trkpt>
      <trkpt lat="44.42901" lon="1.33972">
        <ele>273.3</ele>
        <time>2025-03-08T14:01:37Z</time>
      </trkpt>
      <trkpt lat="44.42901" lon="1.3397">
        <ele>273.4</ele>
        <time>2025-03-08T14:01:38Z</time>
      </trkpt>
      <trkpt lat="44.42901" lon="1.33967">
        <ele>274.1</ele>
        <time>2025-03-08T14:01:39Z</time>
      </trkpt>
      <trkpt lat="44.42901" lon="1.33966">
        <ele>274.1</ele>
        <time>2025-03-08T14:01:40Z</time>
      </trkpt>
      <trkpt lat="44.42901" lon="1.33965">
        <ele>274.2</ele>
        <time>2025-03-08T14:01:41Z</time>
      </trkpt>
      <trkpt lat="44.42901" lon="1.33963">
        <ele>275</ele>
        <time>2025-03-08T14:01:42Z</time>
      </trkpt>
      <trkpt lat="44.42902" lon="1.3396">
        <ele>275</ele>
        <time>2025-03-08T14:01:43Z</time>
      </trkpt>
      <trkpt lat="44.42902" lon="1.33956">
        <ele>275.8</ele>
        <time>2025-03-08T14:01:44Z</time>
      </trkpt>
      <trkpt lat="44.42902" lon="1.33955">
        <ele>276.6</ele>
        <time>2025-03-08T14:01:45Z</time>
      </trkpt>
      <trkpt lat="44.429" lon="1.33951">
        <ele>277.4</ele>
        <time>2025-03-08T14:01:46Z</time>
      </trkpt>
      <trkpt lat="44.429" lon="1.3395">
        <ele>277.3</ele>
        <time>2025-03-08T14:01:47Z</time>
      </trkpt>
      <trkpt lat="44.42898" lon="1.33946">
        <ele>278.1</ele>
        <time>2025-03-08T14:01:48Z</time>
      </trkpt>
      <trkpt lat="44.42897" lon="1.33945">
        <ele>277.9</ele>
        <time>2025-03-08T14:01:49Z</time>
      </trkpt>
      <trkpt lat="44.42895" lon="1.33942">
        <ele>278.7</ele>
        <time>2025-03-08T14:01:50Z</time>
      </trkpt>
      <trkpt lat="44.42894" lon="1.33941">
        <ele>278.5</ele>
        <time>2025-03-08T14:01:51Z</time>
      </trkpt>
      <trkpt lat="44.42892" lon="1.33938">
        <ele>279.3</ele>
        <time>2025-03-08T14:01:52Z</time>
      </trkpt>
      <trkpt lat="44.42891" lon="1.33937">
        <ele>279.1</ele>
        <time>2025-03-08T14:01:53Z</time>
      </trkpt>
      <trkpt lat="44.42888" lon="1.33933">
        <ele>279.9</ele>
        <time>2025-03-08T14:01:54Z</time>
      </trkpt>
      <trkpt lat="44.42887" lon="1.33932">
        <ele>279.6</ele>
        <time>2025-03-08T14:01:55Z</time>
      </trkpt>
      <trkpt lat="44.42885" lon="1.33929">
        <ele>280.4</ele>
        <time>2025-03-08T14:01:56Z</time>
      </trkpt>
      <trkpt lat="44.42883" lon="1.33926">
        <ele>280.2</ele>
        <time>2025-03-08T14:01:57Z</time>
      </trkpt>
      <trkpt lat="44.42881" lon="1.33923">
        <ele>280.7</ele>
        <time>2025-03-08T14:01:58Z</time>
      </trkpt>
      <trkpt lat="44.42879" lon="1.3392">
        <ele>281.5</ele>
        <time>2025-03-08T14:01:59Z</time>
      </trkpt>
      <trkpt lat="44.42877" lon="1.33917">
        <ele>282.2</ele>
        <time>2025-03-08T14:02:00Z</time>
      </trkpt>
      <trkpt lat="44.42876" lon="1.33914">
        <ele>282.2</ele>
        <time>2025-03-08T14:02:01Z</time>
      </trkpt>
      <trkpt lat="44.42874" lon="1.33909">
        <ele>282.9</ele>
        <time>2025-03-08T14:02:02Z</time>
      </trkpt>
      <trkpt lat="44.42873" lon="1.33908">
        <ele>283.9</ele>
        <time>2025-03-08T14:02:03Z</time>
      </trkpt>
      <trkpt lat="44.42872" lon="1.33903">
        <ele>284.5</ele>
        <time>2025-03-08T14:02:04Z</time>
      </trkpt>
      <trkpt lat="44.42871" lon="1.33902">
        <ele>284.6</ele>
        <time>2025-03-08T14:02:05Z</time>
      </trkpt>
      <trkpt lat="44.42869" lon="1.33897">
        <ele>285.1</ele>
        <time>2025-03-08T14:02:06Z</time>
      </trkpt>
      <trkpt lat="44.42869" lon="1.33896">
        <ele>286.1</ele>
        <time>2025-03-08T14:02:07Z</time>
      </trkpt>
      <trkpt lat="44.42867" lon="1.33891">
        <ele>287</ele>
        <time>2025-03-08T14:02:08Z</time>
      </trkpt>
      <trkpt lat="44.42867" lon="1.33889">
        <ele>287</ele>
        <time>2025-03-08T14:02:09Z</time>
      </trkpt>
      <trkpt lat="44.42865" lon="1.33885">
        <ele>287.5</ele>
        <time>2025-03-08T14:02:10Z</time>
      </trkpt>
      <trkpt lat="44.42864" lon="1.33884">
        <ele>287.6</ele>
        <time>2025-03-08T14:02:11Z</time>
      </trkpt>
      <trkpt lat="44.42862" lon="1.33881">
        <ele>288</ele>
        <time>2025-03-08T14:02:12Z</time>
      </trkpt>
      <trkpt lat="44.42861" lon="1.33879">
        <ele>288</ele>
        <time>2025-03-08T14:02:13Z</time>
      </trkpt>
      <trkpt lat="44.42859" lon="1.33877">
        <ele>288.4</ele>
        <time>2025-03-08T14:02:14Z</time>
      </trkpt>
      <trkpt lat="44.42857" lon="1.33872">
        <ele>288.8</ele>
        <time>2025-03-08T14:02:15Z</time>
      </trkpt>
      <trkpt lat="44.42856" lon="1.33871">
        <ele>288.8</ele>
        <time>2025-03-08T14:02:16Z</time>
      </trkpt>
      <trkpt lat="44.42854" lon="1.33867">
        <ele>289.2</ele>
        <time>2025-03-08T14:02:17Z</time>
      </trkpt>
      <trkpt lat="44.42853" lon="1.33866">
        <ele>289.3</ele>
        <time>2025-03-08T14:02:18Z</time>
      </trkpt>
      <trkpt lat="44.42853" lon="1.33861">
        <ele>291</ele>
        <time>2025-03-08T14:02:19Z</time>
      </trkpt>
      <trkpt lat="44.42852" lon="1.3386">
        <ele>291.1</ele>
        <time>2025-03-08T14:02:20Z</time>
      </trkpt>
      <trkpt lat="44.42851" lon="1.33856">
        <ele>292</ele>
        <time>2025-03-08T14:02:21Z</time>
      </trkpt>
      <trkpt lat="44.42851" lon="1.33854">
        <ele>292</ele>
        <time>2025-03-08T14:02:22Z</time>
      </trkpt>
      <trkpt lat="44.42849" lon="1.33852">
        <ele>292.4</ele>
        <time>2025-03-08T14:02:23Z</time>
      </trkpt>
      <trkpt lat="44.42848" lon="1.33851">
        <ele>292.5</ele>
        <time>2025-03-08T14:02:24Z</time>
      </trkpt>
      <trkpt lat="44.42845" lon="1.3385">
        <ele>292.1</ele>
        <time>2025-03-08T14:02:25Z</time>
      </trkpt>
      <trkpt lat="44.42842" lon="1.33849">
        <ele>291.8</ele>
        <time>2025-03-08T14:02:26Z</time>
      </trkpt>
      <trkpt lat="44.42837" lon="1.33848">
        <ele>291.8</ele>
        <time>2025-03-08T14:02:27Z</time>
      </trkpt>
      <trkpt lat="44.42833" lon="1.33846">
        <ele>291.5</ele>
        <time>2025-03-08T14:02:28Z</time>
      </trkpt>
      <trkpt lat="44.42828" lon="1.33842">
        <ele>291.7</ele>
        <time>2025-03-08T14:02:29Z</time>
      </trkpt>
      <trkpt lat="44.42823" lon="1.33838">
        <ele>292.2</ele>
        <time>2025-03-08T14:02:30Z</time>
      </trkpt>
      <trkpt lat="44.42819" lon="1.33834">
        <ele>292.4</ele>
        <time>2025-03-08T14:02:31Z</time>
      </trkpt>
      <trkpt lat="44.42817" lon="1.3383">
        <ele>293</ele>
        <time>2025-03-08T14:02:32Z</time>
      </trkpt>
      <trkpt lat="44.42815" lon="1.33825">
        <ele>294</ele>
        <time>2025-03-08T14:02:33Z</time>
      </trkpt>
      <trkpt lat="44.42815" lon="1.3382">
        <ele>294.9</ele>
        <time>2025-03-08T14:02:34Z</time>
      </trkpt>
      <trkpt lat="44.42815" lon="1.33819">
        <ele>295</ele>
        <time>2025-03-08T14:02:35Z</time>
      </trkpt>
      <trkpt lat="44.42816" lon="1.33816">
        <ele>295.9</ele>
        <time>2025-03-08T14:02:36Z</time>
      </trkpt>
      <trkpt lat="44.42816" lon="1.33815">
        <ele>296</ele>
        <time>2025-03-08T14:02:37Z</time>
      </trkpt>
      <trkpt lat="44.42817" lon="1.33813">
        <ele>296.9</ele>
        <time>2025-03-08T14:02:38Z</time>
      </trkpt>
      <trkpt lat="44.42818" lon="1.33811">
        <ele>297.3</ele>
        <time>2025-03-08T14:02:39Z</time>
      </trkpt>
      <trkpt lat="44.4282" lon="1.33808">
        <ele>298.5</ele>
        <time>2025-03-08T14:02:40Z</time>
      </trkpt>
      <trkpt lat="44.42821" lon="1.33807">
        <ele>298.5</ele>
        <time>2025-03-08T14:02:41Z</time>
      </trkpt>
      <trkpt lat="44.4282" lon="1.33803">
        <ele>299.4</ele>
        <time>2025-03-08T14:02:42Z</time>
      </trkpt>
      <trkpt lat="44.4282" lon="1.33801">
        <ele>299.9</ele>
        <time>2025-03-08T14:02:43Z</time>
      </trkpt>
      <trkpt lat="44.42816" lon="1.338">
        <ele>299.7</ele>
        <time>2025-03-08T14:02:44Z</time>
      </trkpt>
      <trkpt lat="44.42815" lon="1.338">
        <ele>299.8</ele>
        <time>2025-03-08T14:02:45Z</time>
      </trkpt>
      <trkpt lat="44.42812" lon="1.33801">
        <ele>299.6</ele>
        <time>2025-03-08T14:02:46Z</time>
      </trkpt>
      <trkpt lat="44.42808" lon="1.33804">
        <ele>298.6</ele>
        <time>2025-03-08T14:02:47Z</time>
      </trkpt>
      <trkpt lat="44.42804" lon="1.33806">
        <ele>297.1</ele>
        <time>2025-03-08T14:02:48Z</time>
      </trkpt>
      <trkpt lat="44.42799" lon="1.33806">
        <ele>296.8</ele>
        <time>2025-03-08T14:02:49Z</time>
      </trkpt>
      <trkpt lat="44.42795" lon="1.33805">
        <ele>297</ele>
        <time>2025-03-08T14:02:50Z</time>
      </trkpt>
      <trkpt lat="44.42792" lon="1.33803">
        <ele>296.7</ele>
        <time>2025-03-08T14:02:51Z</time>
      </trkpt>
      <trkpt lat="44.4279" lon="1.338">
        <ele>297.6</ele>
        <time>2025-03-08T14:02:52Z</time>
      </trkpt>
      <trkpt lat="44.42789" lon="1.33796">
        <ele>298.1</ele>
        <time>2025-03-08T14:02:53Z</time>
      </trkpt>
      <trkpt lat="44.42786" lon="1.33792">
        <ele>298.5</ele>
        <time>2025-03-08T14:02:54Z</time>
      </trkpt>
      <trkpt lat="44.42785" lon="1.33791">
        <ele>298.6</ele>
        <time>2025-03-08T14:02:55Z</time>
      </trkpt>
      <trkpt lat="44.42782" lon="1.33791">
        <ele>298.2</ele>
        <time>2025-03-08T14:02:56Z</time>
      </trkpt>
      <trkpt lat="44.4278" lon="1.33793">
        <ele>297.7</ele>
        <time>2025-03-08T14:02:57Z</time>
      </trkpt>
      <trkpt lat="44.42776" lon="1.33795">
        <ele>296.4</ele>
        <time>2025-03-08T14:02:58Z</time>
      </trkpt>
      <trkpt lat="44.42771" lon="1.33797">
        <ele>295.9</ele>
        <time>2025-03-08T14:02:59Z</time>
      </trkpt>
      <trkpt lat="44.42767" lon="1.33797">
        <ele>294</ele>
        <time>2025-03-08T14:03:00Z</time>
      </trkpt>
      <trkpt lat="44.42762" lon="1.33796">
        <ele>294.3</ele>
        <time>2025-03-08T14:03:01Z</time>
      </trkpt>
      <trkpt lat="44.42759" lon="1.33792">
        <ele>293.9</ele>
        <time>2025-03-08T14:03:02Z</time>
      </trkpt>
      <trkpt lat="44.42756" lon="1.33787">
        <ele>294.7</ele>
        <time>2025-03-08T14:03:03Z</time>
      </trkpt>
      <trkpt lat="44.42756" lon="1.33784">
        <ele>295.5</ele>
        <time>2025-03-08T14:03:04Z</time>
      </trkpt>
      <trkpt lat="44.42756" lon="1.3378">
        <ele>295.6</ele>
        <time>2025-03-08T14:03:05Z</time>
      </trkpt>
      <trkpt lat="44.42755" lon="1.33776">
        <ele>295.7</ele>
        <time>2025-03-08T14:03:06Z</time>
      </trkpt>
      <trkpt lat="44.42754" lon="1.33772">
        <ele>296.5</ele>
        <time>2025-03-08T14:03:07Z</time>
      </trkpt>
      <trkpt lat="44.42753" lon="1.33767">
        <ele>298</ele>
        <time>2025-03-08T14:03:08Z</time>
      </trkpt>
      <trkpt lat="44.42753" lon="1.33765">
        <ele>298.1</ele>
        <time>2025-03-08T14:03:09Z</time>
      </trkpt>
      <trkpt lat="44.42752" lon="1.33761">
        <ele>298</ele>
        <time>2025-03-08T14:03:10Z</time>
      </trkpt>
      <trkpt lat="44.42751" lon="1.33759">
        <ele>298</ele>
        <time>2025-03-08T14:03:11Z</time>
      </trkpt>
      <trkpt lat="44.4275" lon="1.33756">
        <ele>298.7</ele>
        <time>2025-03-08T14:03:12Z</time>
      </trkpt>
      <trkpt lat="44.42747" lon="1.33751">
        <ele>298.6</ele>
        <time>2025-03-08T14:03:13Z</time>
      </trkpt>
      <trkpt lat="44.42746" lon="1.3375">
        <ele>298.4</ele>
        <time>2025-03-08T14:03:14Z</time>
      </trkpt>
      <trkpt lat="44.42743" lon="1.33747">
        <ele>297.7</ele>
        <time>2025-03-08T14:03:15Z</time>
      </trkpt>
      <trkpt lat="44.42738" lon="1.33744">
        <ele>297.6</ele>
        <time>2025-03-08T14:03:16Z</time>
      </trkpt>
      <trkpt lat="44.42733" lon="1.3374">
        <ele>296.5</ele>
        <time>2025-03-08T14:03:17Z</time>
      </trkpt>
      <trkpt lat="44.42728" lon="1.33733">
        <ele>295.2</ele>
        <time>2025-03-08T14:03:18Z</time>
      </trkpt>
      <trkpt lat="44.42723" lon="1.33725">
        <ele>295.4</ele>
        <time>2025-03-08T14:03:19Z</time>
      </trkpt>
      <trkpt lat="44.42719" lon="1.33718">
        <ele>294.4</ele>
        <time>2025-03-08T14:03:20Z</time>
      </trkpt>
      <trkpt lat="44.42715" lon="1.33711">
        <ele>294.2</ele>
        <time>2025-03-08T14:03:21Z</time>
      </trkpt>
      <trkpt lat="44.42711" lon="1.33707">
        <ele>293.1</ele>
        <time>2025-03-08T14:03:22Z</time>
      </trkpt>
      <trkpt lat="44.42709" lon="1.33704">
        <ele>292.5</ele>
        <time>2025-03-08T14:03:23Z</time>
      </trkpt>
      <trkpt lat="44.42708" lon="1.337">
        <ele>293</ele>
        <time>2025-03-08T14:03:24Z</time>
      </trkpt>
      <trkpt lat="44.42706" lon="1.33696">
        <ele>292.4</ele>
        <time>2025-03-08T14:03:25Z</time>
      </trkpt>
      <trkpt lat="44.42706" lon="1.33692">
        <ele>292.9</ele>
        <time>2025-03-08T14:03:26Z</time>
      </trkpt>
      <trkpt lat="44.42705" lon="1.33688">
        <ele>293.4</ele>
        <time>2025-03-08T14:03:27Z</time>
      </trkpt>
      <trkpt lat="44.42704" lon="1.33686">
        <ele>293.5</ele>
        <time>2025-03-08T14:03:28Z</time>
      </trkpt>
      <trkpt lat="44.42703" lon="1.33683">
        <ele>293</ele>
        <time>2025-03-08T14:03:29Z</time>
      </trkpt>
      <trkpt lat="44.42701" lon="1.33679">
        <ele>292.5</ele>
        <time>2025-03-08T14:03:30Z</time>
      </trkpt>
      <trkpt lat="44.427" lon="1.33677">
        <ele>292.6</ele>
        <time>2025-03-08T14:03:31Z</time>
      </trkpt>
      <trkpt lat="44.42698" lon="1.33673">
        <ele>293.2</ele>
        <time>2025-03-08T14:03:32Z</time>
      </trkpt>
      <trkpt lat="44.42697" lon="1.33672">
        <ele>292.7</ele>
        <time>2025-03-08T14:03:33Z</time>
      </trkpt>
      <trkpt lat="44.42698" lon="1.33667">
        <ele>293.1</ele>
        <time>2025-03-08T14:03:34Z</time>
      </trkpt>
      <trkpt lat="44.42698" lon="1.33666">
        <ele>293.3</ele>
        <time>2025-03-08T14:03:35Z</time>
      </trkpt>
      <trkpt lat="44.427" lon="1.33662">
        <ele>293.7</ele>
        <time>2025-03-08T14:03:36Z</time>
      </trkpt>
      <trkpt lat="44.42701" lon="1.3366">
        <ele>293.8</ele>
        <time>2025-03-08T14:03:37Z</time>
      </trkpt>
      <trkpt lat="44.42702" lon="1.33659">
        <ele>294</ele>
        <time>2025-03-08T14:03:38Z</time>
      </trkpt>
      <trkpt lat="44.42704" lon="1.33658">
        <ele>294.2</ele>
        <time>2025-03-08T14:03:39Z</time>
      </trkpt>
      <trkpt lat="44.42706" lon="1.33658">
        <ele>294.3</ele>
        <time>2025-03-08T14:03:40Z</time>
      </trkpt>
      <trkpt lat="44.42707" lon="1.33658">
        <ele>294.5</ele>
        <time>2025-03-08T14:03:41Z</time>
      </trkpt>
      <trkpt lat="44.42708" lon="1.33658">
        <ele>294.6</ele>
        <time>2025-03-08T14:03:42Z</time>
      </trkpt>
      <trkpt lat="44.4271" lon="1.33658">
        <ele>294.7</ele>
        <time>2025-03-08T14:03:43Z</time>
      </trkpt>
      <trkpt lat="44.42711" lon="1.33658">
        <ele>294.9</ele>
        <time>2025-03-08T14:03:44Z</time>
      </trkpt>
      <trkpt lat="44.42713" lon="1.33657">
        <ele>295.1</ele>
        <time>2025-03-08T14:03:45Z</time>
      </trkpt>
      <trkpt lat="44.42715" lon="1.33657">
        <ele>295.2</ele>
        <time>2025-03-08T14:03:46Z</time>
      </trkpt>
      <trkpt lat="44.42716" lon="1.33655">
        <ele>295.4</ele>
        <time>2025-03-08T14:03:47Z</time>
      </trkpt>
      <trkpt lat="44.42719" lon="1.33654">
        <ele>295.7</ele>
        <time>2025-03-08T14:03:48Z</time>
      </trkpt>
      <trkpt lat="44.4272" lon="1.33653">
        <ele>295.8</ele>
        <time>2025-03-08T14:03:49Z</time>
      </trkpt>
      <trkpt lat="44.42722" lon="1.33651">
        <ele>296.1</ele>
        <time>2025-03-08T14:03:50Z</time>
      </trkpt>
      <trkpt lat="44.42723" lon="1.3365">
        <ele>296.2</ele>
        <time>2025-03-08T14:03:51Z</time>
      </trkpt>
      <trkpt lat="44.42723" lon="1.33646">
        <ele>296.5</ele>
        <time>2025-03-08T14:03:52Z</time>
      </trkpt>
      <trkpt lat="44.42723" lon="1.33645">
        <ele>296.6</ele>
        <time>2025-03-08T14:03:53Z</time>
      </trkpt>
      <trkpt lat="44.42722" lon="1.33641">
        <ele>296.9</ele>
        <time>2025-03-08T14:03:54Z</time>
      </trkpt>
      <trkpt lat="44.42721" lon="1.3364">
        <ele>297</ele>
        <time>2025-03-08T14:03:55Z</time>
      </trkpt>
      <trkpt lat="44.4272" lon="1.33638">
        <ele>297.2</ele>
        <time>2025-03-08T14:03:56Z</time>
      </trkpt>
      <trkpt lat="44.4272" lon="1.33636">
        <ele>297.3</ele>
        <time>2025-03-08T14:03:57Z</time>
      </trkpt>
      <trkpt lat="44.42719" lon="1.33632">
        <ele>297.6</ele>
        <time>2025-03-08T14:03:58Z</time>
      </trkpt>
      <trkpt lat="44.42719" lon="1.33631">
        <ele>297.7</ele>
        <time>2025-03-08T14:03:59Z</time>
      </trkpt>
      <trkpt lat="44.42718" lon="1.33627">
        <ele>298</ele>
        <time>2025-03-08T14:04:00Z</time>
      </trkpt>
      <trkpt lat="44.42717" lon="1.33625">
        <ele>298.1</ele>
        <time>2025-03-08T14:04:01Z</time>
      </trkpt>
      <trkpt lat="44.42714" lon="1.33622">
        <ele>298.4</ele>
        <time>2025-03-08T14:04:02Z</time>
      </trkpt>
      <trkpt lat="44.42713" lon="1.3362">
        <ele>298.6</ele>
        <time>2025-03-08T14:04:03Z</time>
      </trkpt>
      <trkpt lat="44.42711" lon="1.33617">
        <ele>298.8</ele>
        <time>2025-03-08T14:04:04Z</time>
      </trkpt>
      <trkpt lat="44.42709" lon="1.33613">
        <ele>299.1</ele>
        <time>2025-03-08T14:04:05Z</time>
      </trkpt>
      <trkpt lat="44.42707" lon="1.33609">
        <ele>299.3</ele>
        <time>2025-03-08T14:04:06Z</time>
      </trkpt>
      <trkpt lat="44.42706" lon="1.33607">
        <ele>299.4</ele>
        <time>2025-03-08T14:04:07Z</time>
      </trkpt>
      <trkpt lat="44.42704" lon="1.33603">
        <ele>299.7</ele>
        <time>2025-03-08T14:04:08Z</time>
      </trkpt>
      <trkpt lat="44.42703" lon="1.33601">
        <ele>299.7</ele>
        <time>2025-03-08T14:04:09Z</time>
      </trkpt>
      <trkpt lat="44.42702" lon="1.33596">
        <ele>299.9</ele>
        <time>2025-03-08T14:04:10Z</time>
      </trkpt>
      <trkpt lat="44.42701" lon="1.33594">
        <ele>300</ele>
        <time>2025-03-08T14:04:11Z</time>
      </trkpt>
      <trkpt lat="44.427" lon="1.33588">
        <ele>300.1</ele>
        <time>2025-03-08T14:04:12Z</time>
      </trkpt>
      <trkpt lat="44.427" lon="1.33586">
        <ele>300.2</ele>
        <time>2025-03-08T14:04:13Z</time>
      </trkpt>
      <trkpt lat="44.42698" lon="1.33582">
        <ele>300.2</ele>
        <time>2025-03-08T14:04:14Z</time>
      </trkpt>
      <trkpt lat="44.42697" lon="1.3358">
        <ele>300.3</ele>
        <time>2025-03-08T14:04:15Z</time>
      </trkpt>
      <trkpt lat="44.42695" lon="1.33576">
        <ele>300.3</ele>
        <time>2025-03-08T14:04:16Z</time>
      </trkpt>
      <trkpt lat="44.42692" lon="1.33573">
        <ele>300.4</ele>
        <time>2025-03-08T14:04:17Z</time>
      </trkpt>
      <trkpt lat="44.4269" lon="1.3357">
        <ele>300.5</ele>
        <time>2025-03-08T14:04:18Z</time>
      </trkpt>
      <trkpt lat="44.42688" lon="1.33566">
        <ele>300.5</ele>
        <time>2025-03-08T14:04:19Z</time>
      </trkpt>
      <trkpt lat="44.42687" lon="1.33561">
        <ele>300.6</ele>
        <time>2025-03-08T14:04:20Z</time>
      </trkpt>
      <trkpt lat="44.42689" lon="1.33557">
        <ele>300.7</ele>
        <time>2025-03-08T14:04:21Z</time>
      </trkpt>
      <trkpt lat="44.42691" lon="1.33553">
        <ele>300.8</ele>
        <time>2025-03-08T14:04:22Z</time>
      </trkpt>
      <trkpt lat="44.42692" lon="1.33552">
        <ele>300.8</ele>
        <time>2025-03-08T14:04:23Z</time>
      </trkpt>
      <trkpt lat="44.42693" lon="1.33547">
        <ele>301</ele>
        <time>2025-03-08T14:04:24Z</time>
      </trkpt>
      <trkpt lat="44.42694" lon="1.33545">
        <ele>301</ele>
        <time>2025-03-08T14:04:25Z</time>
      </trkpt>
      <trkpt lat="44.42695" lon="1.33542">
        <ele>301.1</ele>
        <time>2025-03-08T14:04:26Z</time>
      </trkpt>
      <trkpt lat="44.42696" lon="1.33541">
        <ele>301.1</ele>
        <time>2025-03-08T14:04:27Z</time>
      </trkpt>
      <trkpt lat="44.42698" lon="1.33539">
        <ele>301.2</ele>
        <time>2025-03-08T14:04:28Z</time>
      </trkpt>
      <trkpt lat="44.42699" lon="1.33538">
        <ele>301.2</ele>
        <time>2025-03-08T14:04:29Z</time>
      </trkpt>
      <trkpt lat="44.427" lon="1.33535">
        <ele>301.3</ele>
        <time>2025-03-08T14:04:30Z</time>
      </trkpt>
      <trkpt lat="44.42701" lon="1.33533">
        <ele>301.3</ele>
        <time>2025-03-08T14:04:31Z</time>
      </trkpt>
      <trkpt lat="44.42703" lon="1.3353">
        <ele>301.3</ele>
        <time>2025-03-08T14:04:32Z</time>
      </trkpt>
      <trkpt lat="44.42703" lon="1.33529">
        <ele>301.4</ele>
        <time>2025-03-08T14:04:33Z</time>
      </trkpt>
      <trkpt lat="44.42706" lon="1.33528">
        <ele>301.4</ele>
        <time>2025-03-08T14:04:34Z</time>
      </trkpt>
      <trkpt lat="44.42707" lon="1.33528">
        <ele>301.4</ele>
        <time>2025-03-08T14:04:35Z</time>
      </trkpt>
      <trkpt lat="44.4271" lon="1.33527">
        <ele>301.5</ele>
        <time>2025-03-08T14:04:36Z</time>
      </trkpt>
      <trkpt lat="44.42711" lon="1.33526">
        <ele>301.5</ele>
        <time>2025-03-08T14:04:37Z</time>
      </trkpt>
      <trkpt lat="44.42713" lon="1.33523">
        <ele>301.6</ele>
        <time>2025-03-08T14:04:38Z</time>
      </trkpt>
      <trkpt lat="44.42713" lon="1.33522">
        <ele>301.6</ele>
        <time>2025-03-08T14:04:39Z</time>
      </trkpt>
      <trkpt lat="44.42714" lon="1.33518">
        <ele>301.7</ele>
        <time>2025-03-08T14:04:40Z</time>
      </trkpt>
      <trkpt lat="44.42714" lon="1.33516">
        <ele>301.8</ele>
        <time>2025-03-08T14:04:41Z</time>
      </trkpt>
      <trkpt lat="44.42715" lon="1.33514">
        <ele>301.9</ele>
        <time>2025-03-08T14:04:42Z</time>
      </trkpt>
      <trkpt lat="44.42716" lon="1.33512">
        <ele>302</ele>
        <time>2025-03-08T14:04:43Z</time>
      </trkpt>
      <trkpt lat="44.42716" lon="1.33511">
        <ele>302.1</ele>
        <time>2025-03-08T14:04:44Z</time>
      </trkpt>
      <trkpt lat="44.42717" lon="1.33509">
        <ele>302.2</ele>
        <time>2025-03-08T14:04:45Z</time>
      </trkpt>
      <trkpt lat="44.42718" lon="1.33504">
        <ele>302.4</ele>
        <time>2025-03-08T14:04:46Z</time>
      </trkpt>
      <trkpt lat="44.42718" lon="1.33503">
        <ele>302.5</ele>
        <time>2025-03-08T14:04:47Z</time>
      </trkpt>
      <trkpt lat="44.42718" lon="1.33499">
        <ele>302.7</ele>
        <time>2025-03-08T14:04:48Z</time>
      </trkpt>
      <trkpt lat="44.42719" lon="1.33498">
        <ele>302.7</ele>
        <time>2025-03-08T14:04:49Z</time>
      </trkpt>
      <trkpt lat="44.4272" lon="1.33496">
        <ele>302.9</ele>
        <time>2025-03-08T14:04:50Z</time>
      </trkpt>
      <trkpt lat="44.42721" lon="1.33494">
        <ele>303</ele>
        <time>2025-03-08T14:04:51Z</time>
      </trkpt>
      <trkpt lat="44.42722" lon="1.33489">
        <ele>303.3</ele>
        <time>2025-03-08T14:04:52Z</time>
      </trkpt>
      <trkpt lat="44.42722" lon="1.33488">
        <ele>303.4</ele>
        <time>2025-03-08T14:04:53Z</time>
      </trkpt>
      <trkpt lat="44.42723" lon="1.33483">
        <ele>303.7</ele>
        <time>2025-03-08T14:04:54Z</time>
      </trkpt>
      <trkpt lat="44.42724" lon="1.33482">
        <ele>303.7</ele>
        <time>2025-03-08T14:04:55Z</time>
      </trkpt>
      <trkpt lat="44.42727" lon="1.33478">
        <ele>304</ele>
        <time>2025-03-08T14:04:56Z</time>
      </trkpt>
      <trkpt lat="44.42728" lon="1.33478">
        <ele>304.1</ele>
        <time>2025-03-08T14:04:57Z</time>
      </trkpt>
      <trkpt lat="44.42731" lon="1.33475">
        <ele>304.4</ele>
        <time>2025-03-08T14:04:58Z</time>
      </trkpt>
      <trkpt lat="44.42732" lon="1.33474">
        <ele>304.5</ele>
        <time>2025-03-08T14:04:59Z</time>
      </trkpt>
      <trkpt lat="44.42735" lon="1.33471">
        <ele>304.7</ele>
        <time>2025-03-08T14:05:00Z</time>
      </trkpt>
      <trkpt lat="44.42736" lon="1.3347">
        <ele>304.8</ele>
        <time>2025-03-08T14:05:01Z</time>
      </trkpt>
      <trkpt lat="44.42739" lon="1.33467">
        <ele>305</ele>
        <time>2025-03-08T14:05:02Z</time>
      </trkpt>
      <trkpt lat="44.4274" lon="1.33466">
        <ele>305</ele>
        <time>2025-03-08T14:05:03Z</time>
      </trkpt>
      <trkpt lat="44.42742" lon="1.33463">
        <ele>305.1</ele>
        <time>2025-03-08T14:05:04Z</time>
      </trkpt>
      <trkpt lat="44.42743" lon="1.33462">
        <ele>305.2</ele>
        <time>2025-03-08T14:05:05Z</time>
      </trkpt>
      <trkpt lat="44.42745" lon="1.33458">
        <ele>305.3</ele>
        <time>2025-03-08T14:05:06Z</time>
      </trkpt>
      <trkpt lat="44.42746" lon="1.33457">
        <ele>305.3</ele>
        <time>2025-03-08T14:05:07Z</time>
      </trkpt>
      <trkpt lat="44.42748" lon="1.33453">
        <ele>305.4</ele>
        <time>2025-03-08T14:05:08Z</time>
      </trkpt>
      <trkpt lat="44.42749" lon="1.33452">
        <ele>305.4</ele>
        <time>2025-03-08T14:05:09Z</time>
      </trkpt>
      <trkpt lat="44.42752" lon="1.3345">
        <ele>305.5</ele>
        <time>2025-03-08T14:05:10Z</time>
      </trkpt>
      <trkpt lat="44.42752" lon="1.33449">
        <ele>305.6</ele>
        <time>2025-03-08T14:05:11Z</time>
      </trkpt>
      <trkpt lat="44.42755" lon="1.33446">
        <ele>305.6</ele>
        <time>2025-03-08T14:05:12Z</time>
      </trkpt>
      <trkpt lat="44.42755" lon="1.33445">
        <ele>305.7</ele>
        <time>2025-03-08T14:05:13Z</time>
      </trkpt>
      <trkpt lat="44.42756" lon="1.3344">
        <ele>305.8</ele>
        <time>2025-03-08T14:05:14Z</time>
      </trkpt>
      <trkpt lat="44.42756" lon="1.33438">
        <ele>305.8</ele>
        <time>2025-03-08T14:05:15Z</time>
      </trkpt>
      <trkpt lat="44.42756" lon="1.33435">
        <ele>305.9</ele>
        <time>2025-03-08T14:05:16Z</time>
      </trkpt>
      <trkpt lat="44.42758" lon="1.33429">
        <ele>306</ele>
        <time>2025-03-08T14:05:17Z</time>
      </trkpt>
      <trkpt lat="44.42759" lon="1.33428">
        <ele>306</ele>
        <time>2025-03-08T14:05:18Z</time>
      </trkpt>
      <trkpt lat="44.4276" lon="1.33424">
        <ele>306.1</ele>
        <time>2025-03-08T14:05:19Z</time>
      </trkpt>
      <trkpt lat="44.42761" lon="1.3342">
        <ele>306.2</ele>
        <time>2025-03-08T14:05:20Z</time>
      </trkpt>
      <trkpt lat="44.42763" lon="1.33415">
        <ele>306.3</ele>
        <time>2025-03-08T14:05:21Z</time>
      </trkpt>
      <trkpt lat="44.42764" lon="1.33413">
        <ele>306.3</ele>
        <time>2025-03-08T14:05:22Z</time>
      </trkpt>
      <trkpt lat="44.42765" lon="1.33408">
        <ele>306.4</ele>
        <time>2025-03-08T14:05:23Z</time>
      </trkpt>
      <trkpt lat="44.42765" lon="1.33407">
        <ele>306.4</ele>
        <time>2025-03-08T14:05:24Z</time>
      </trkpt>
      <trkpt lat="44.42766" lon="1.33402">
        <ele>306.5</ele>
        <time>2025-03-08T14:05:25Z</time>
      </trkpt>
      <trkpt lat="44.42767" lon="1.334">
        <ele>306.5</ele>
        <time>2025-03-08T14:05:26Z</time>
      </trkpt>
      <trkpt lat="44.42768" lon="1.33396">
        <ele>306.5</ele>
        <time>2025-03-08T14:05:27Z</time>
      </trkpt>
      <trkpt lat="44.42769" lon="1.33392">
        <ele>306.5</ele>
        <time>2025-03-08T14:05:28Z</time>
      </trkpt>
      <trkpt lat="44.42772" lon="1.33388">
        <ele>306.4</ele>
        <time>2025-03-08T14:05:29Z</time>
      </trkpt>
      <trkpt lat="44.42774" lon="1.33385">
        <ele>306.3</ele>
        <time>2025-03-08T14:05:30Z</time>
      </trkpt>
      <trkpt lat="44.42777" lon="1.33382">
        <ele>306.1</ele>
        <time>2025-03-08T14:05:31Z</time>
      </trkpt>
      <trkpt lat="44.42778" lon="1.33382">
        <ele>306.1</ele>
        <time>2025-03-08T14:05:32Z</time>
      </trkpt>
      <trkpt lat="44.4278" lon="1.3338">
        <ele>306</ele>
        <time>2025-03-08T14:05:33Z</time>
      </trkpt>
      <trkpt lat="44.42781" lon="1.3338">
        <ele>305.9</ele>
        <time>2025-03-08T14:05:34Z</time>
      </trkpt>
      <trkpt lat="44.42783" lon="1.33379">
        <ele>305.8</ele>
        <time>2025-03-08T14:05:35Z</time>
      </trkpt>
      <trkpt lat="44.42784" lon="1.33379">
        <ele>305.8</ele>
        <time>2025-03-08T14:05:36Z</time>
      </trkpt>
      <trkpt lat="44.42785" lon="1.33379">
        <ele>305.8</ele>
        <time>2025-03-08T14:05:37Z</time>
      </trkpt>
      <trkpt lat="44.42786" lon="1.3338">
        <ele>305.8</ele>
        <time>2025-03-08T14:05:38Z</time>
      </trkpt>
      <trkpt lat="44.42788" lon="1.33381">
        <ele>305.7</ele>
        <time>2025-03-08T14:05:39Z</time>
      </trkpt>
      <trkpt lat="44.42789" lon="1.33382">
        <ele>305.7</ele>
        <time>2025-03-08T14:05:40Z</time>
      </trkpt>
      <trkpt lat="44.4279" lon="1.33383">
        <ele>305.6</ele>
        <time>2025-03-08T14:05:41Z</time>
      </trkpt>
      <trkpt lat="44.42792" lon="1.33384">
        <ele>305.6</ele>
        <time>2025-03-08T14:05:42Z</time>
      </trkpt>
      <trkpt lat="44.42793" lon="1.33385">
        <ele>305.5</ele>
        <time>2025-03-08T14:05:43Z</time>
      </trkpt>
      <trkpt lat="44.42794" lon="1.33386">
        <ele>305.5</ele>
        <time>2025-03-08T14:05:44Z</time>
      </trkpt>
      <trkpt lat="44.42794" lon="1.33386">
        <ele>305.5</ele>
        <time>2025-03-08T14:05:45Z</time>
      </trkpt>
      <trkpt lat="44.42794" lon="1.33386">
        <ele>305.5</ele>
        <time>2025-03-08T14:05:46Z</time>
      </trkpt>
      <trkpt lat="44.42794" lon="1.33386">
        <ele>305.5</ele>
        <time>2025-03-08T14:05:47Z</time>
      </trkpt>
      <trkpt lat="44.42794" lon="1.33386">
        <ele>305.5</ele>
        <time>2025-03-08T14:05:48Z</time>
      </trkpt>
      <trkpt lat="44.42794" lon="1.33386">
        <ele>305.5</ele>
        <time>2025-03-08T14:05:49Z</time>
      </trkpt>
      <trkpt lat="44.42794" lon="1.33386">
        <ele>305.5</ele>
        <time>2025-03-08T14:05:50Z</time>
      </trkpt>
      <trkpt lat="44.42794" lon="1.33386">
        <ele>305.5</ele>
        <time>2025-03-08T14:05:51Z</time>
      </trkpt>
      <trkpt lat="44.42794" lon="1.33386">
        <ele>305.5</ele>
        <time>2025-03-08T14:05:52Z</time>
      </trkpt>
      <trkpt lat="44.42794" lon="1.33386">
        <ele>305.5</ele>
        <time>2025-03-08T14:05:53Z</time>
      </trkpt>
      <trkpt lat="44.42794" lon="1.33386">
        <ele>305.5</ele>
        <time>2025-03-08T14:05:54Z</time>
      </trkpt>
      <trkpt lat="44.42794" lon="1.33386">
        <ele>305.4</ele>
        <time>2025-03-08T14:05:55Z</time>
      </trkpt>
      <trkpt lat="44.42794" lon="1.33386">
        <ele>305.4</ele>
        <time>2025-03-08T14:05:56Z</time>
      </trkpt>
      <trkpt lat="44.42794" lon="1.33386">
        <ele>305.4</ele>
        <time>2025-03-08T14:05:57Z</time>
      </trkpt>
      <trkpt lat="44.42795" lon="1.33386">
        <ele>305.4</ele>
        <time>2025-03-08T14:05:58Z</time>
      </trkpt>
      <trkpt lat="44.42795" lon="1.33386">
        <ele>305.4</ele>
        <time>2025-03-08T14:05:59Z</time>
      </trkpt>
      <trkpt lat="44.42795" lon="1.33386">
        <ele>305.4</ele>
        <time>2025-03-08T14:06:00Z</time>
      </trkpt>
      <trkpt lat="44.42795" lon="1.33386">
        <ele>305.4</ele>
        <time>2025-03-08T14:06:01Z</time>
      </trkpt>
      <trkpt lat="44.42795" lon="1.33386">
        <ele>305.4</ele>
        <time>2025-03-08T14:06:02Z</time>
      </trkpt>
      <trkpt lat="44.42795" lon="1.33387">
        <ele>305.4</ele>
        <time>2025-03-08T14:06:03Z</time>
      </trkpt>
      <trkpt lat="44.42795" lon="1.33387">
        <ele>305.4</ele>
        <time>2025-03-08T14:06:04Z</time>
      </trkpt>
      <trkpt lat="44.42795" lon="1.33387">
        <ele>305.4</ele>
        <time>2025-03-08T14:06:05Z</time>
      </trkpt>
      <trkpt lat="44.42795" lon="1.33387">
        <ele>305.4</ele>
        <time>2025-03-08T14:06:06Z</time>
      </trkpt>
      <trkpt lat="44.42795" lon="1.33387">
        <ele>305.4</ele>
        <time>2025-03-08T14:06:07Z</time>
      </trkpt>
      <trkpt lat="44.42795" lon="1.33387">
        <ele>305.4</ele>
        <time>2025-03-08T14:06:08Z</time>
      </trkpt>
      <trkpt lat="44.42795" lon="1.33387">
        <ele>305.4</ele>
        <time>2025-03-08T14:06:09Z</time>
      </trkpt>
      <trkpt lat="44.42795" lon="1.33387">
        <ele>305.4</ele>
        <time>2025-03-08T14:06:10Z</time>
      </trkpt>
      <trkpt lat="44.42795" lon="1.33387">
        <ele>305.4</ele>
        <time>2025-03-08T14:06:11Z</time>
      </trkpt>
      <trkpt lat="44.42795" lon="1.33387">
        <ele>305.4</ele>
        <time>2025-03-08T14:06:12Z</time>
      </trkpt>
      <trkpt lat="44.42795" lon="1.33387">
        <ele>305.4</ele>
        <time>2025-03-08T14:06:13Z</time>
      </trkpt>
      <trkpt lat="44.42795" lon="1.33387">
        <ele>305.4</ele>
        <time>2025-03-08T14:06:14Z</time>
      </trkpt>
      <trkpt lat="44.42795" lon="1.33387">
        <ele>305.4</ele>
        <time>2025-03-08T14:06:15Z</time>
      </trkpt>
      <trkpt lat="44.42795" lon="1.33387">
        <ele>305.4</ele>
        <time>2025-03-08T14:06:16Z</time>
      </trkpt>
      <trkpt lat="44.42795" lon="1.33387">
        <ele>305.4</ele>
        <time>2025-03-08T14:06:17Z</time>
      </trkpt>
      <trkpt lat="44.42795" lon="1.33387">
        <ele>305.4</ele>
        <time>2025-03-08T14:06:18Z</time>
      </trkpt>
      <trkpt lat="44.42795" lon="1.33387">
        <ele>305.4</ele>
        <time>2025-03-08T14:06:19Z</time>
      </trkpt>
      <trkpt lat="44.42795" lon="1.33387">
        <ele>305.4</ele>
        <time>2025-03-08T14:06:20Z</time>
      </trkpt>
      <trkpt lat="44.42795" lon="1.33387">
        <ele>305.4</ele>
        <time>2025-03-08T14:06:21Z</time>
      </trkpt>
      <trkpt lat="44.42795" lon="1.33387">
        <ele>305.4</ele>
        <time>2025-03-08T14:06:22Z</time>
      </trkpt>
      <trkpt lat="44.42795" lon="1.33387">
        <ele>305.4</ele>
        <time>2025-03-08T14:06:23Z</time>
      </trkpt>
      <trkpt lat="44.42796" lon="1.33387">
        <ele>305.4</ele>
        <time>2025-03-08T14:06:24Z</time>
      </trkpt>
      <trkpt lat="44.42796" lon="1.33387">
        <ele>305.4</ele>
        <time>2025-03-08T14:06:25Z</time>
      </trkpt>
      <trkpt lat="44.42796" lon="1.33387">
        <ele>305.4</ele>
        <time>2025-03-08T14:06:26Z</time>
      </trkpt>
      <trkpt lat="44.42796" lon="1.33387">
        <ele>305.4</ele>
        <time>2025-03-08T14:06:27Z</time>
      </trkpt>
      <trkpt lat="44.42796" lon="1.33387">
        <ele>305.4</ele>
        <time>2025-03-08T14:06:28Z</time>
      </trkpt>
      <trkpt lat="44.42796" lon="1.33387">
        <ele>305.4</ele>
        <time>2025-03-08T14:06:29Z</time>
      </trkpt>
      <trkpt lat="44.42796" lon="1.33387">
        <ele>305.4</ele>
        <time>2025-03-08T14:06:30Z</time>
      </trkpt>
      <trkpt lat="44.42796" lon="1.33387">
        <ele>305.4</ele>
        <time>2025-03-08T14:06:31Z</time>
      </trkpt>
      <trkpt lat="44.42796" lon="1.33387">
        <ele>305.4</ele>
        <time>2025-03-08T14:06:32Z</time>
      </trkpt>
      <trkpt lat="44.42796" lon="1.33387">
        <ele>305.4</ele>
        <time>2025-03-08T14:06:33Z</time>
      </trkpt>
      <trkpt lat="44.42796" lon="1.33387">
        <ele>305.4</ele>
        <time>2025-03-08T14:06:34Z</time>
      </trkpt>
      <trkpt lat="44.42796" lon="1.33387">
        <ele>305.4</ele>
        <time>2025-03-08T14:06:35Z</time>
      </trkpt>
      <trkpt lat="44.42796" lon="1.33387">
        <ele>305.4</ele>
        <time>2025-03-08T14:06:36Z</time>
      </trkpt>
      <trkpt lat="44.42796" lon="1.33387">
        <ele>305.4</ele>
        <time>2025-03-08T14:06:37Z</time>
      </trkpt>
      <trkpt lat="44.42796" lon="1.33387">
        <ele>305.4</ele>
        <time>2025-03-08T14:06:38Z</time>
      </trkpt>
      <trkpt lat="44.42796" lon="1.33387">
        <ele>305.4</ele>
        <time>2025-03-08T14:06:39Z</time>
      </trkpt>
      <trkpt lat="44.42796" lon="1.33387">
        <ele>305.4</ele>
        <time>2025-03-08T14:06:40Z</time>
      </trkpt>
      <trkpt lat="44.42796" lon="1.33387">
        <ele>305.4</ele>
        <time>2025-03-08T14:06:41Z</time>
      </trkpt>
      <trkpt lat="44.42796" lon="1.33387">
        <ele>305.4</ele>
        <time>2025-03-08T14:06:42Z</time>
      </trkpt>
      <trkpt lat="44.42796" lon="1.33387">
        <ele>305.4</ele>
        <time>2025-03-08T14:06:43Z</time>
      </trkpt>
      <trkpt lat="44.42796" lon="1.33387">
        <ele>305.4</ele>
        <time>2025-03-08T14:06:44Z</time>
      </trkpt>
      <trkpt lat="44.42796" lon="1.33387">
        <ele>305.4</ele>
        <time>2025-03-08T14:06:45Z</time>
      </trkpt>
      <trkpt lat="44.42796" lon="1.33388">
        <ele>305.4</ele>
        <time>2025-03-08T14:06:46Z</time>
      </trkpt>
      <trkpt lat="44.42796" lon="1.33388">
        <ele>305.4</ele>
        <time>2025-03-08T14:06:47Z</time>
      </trkpt>
      <trkpt lat="44.42796" lon="1.33388">
        <ele>305.3</ele>
        <time>2025-03-08T14:06:48Z</time>
      </trkpt>
      <trkpt lat="44.42796" lon="1.33388">
        <ele>305.3</ele>
        <time>2025-03-08T14:06:49Z</time>
      </trkpt>
      <trkpt lat="44.42796" lon="1.33388">
        <ele>305.3</ele>
        <time>2025-03-08T14:06:50Z</time>
      </trkpt>
      <trkpt lat="44.42797" lon="1.33388">
        <ele>305.3</ele>
        <time>2025-03-08T14:06:51Z</time>
      </trkpt>
      <trkpt lat="44.42797" lon="1.33388">
        <ele>305.3</ele>
        <time>2025-03-08T14:06:52Z</time>
      </trkpt>
      <trkpt lat="44.42797" lon="1.33388">
        <ele>305.3</ele>
        <time>2025-03-08T14:06:53Z</time>
      </trkpt>
      <trkpt lat="44.42797" lon="1.33388">
        <ele>305.3</ele>
        <time>2025-03-08T14:06:54Z</time>
      </trkpt>
      <trkpt lat="44.42797" lon="1.33388">
        <ele>305.3</ele>
        <time>2025-03-08T14:06:55Z</time>
      </trkpt>
      <trkpt lat="44.42797" lon="1.33388">
        <ele>305.3</ele>
        <time>2025-03-08T14:06:56Z</time>
      </trkpt>
      <trkpt lat="44.42797" lon="1.33388">
        <ele>305.3</ele>
        <time>2025-03-08T14:06:57Z</time>
      </trkpt>
      <trkpt lat="44.42797" lon="1.33388">
        <ele>305.3</ele>
        <time>2025-03-08T14:06:58Z</time>
      </trkpt>
      <trkpt lat="44.42797" lon="1.33388">
        <ele>305.3</ele>
        <time>2025-03-08T14:06:59Z</time>
      </trkpt>
      <trkpt lat="44.42797" lon="1.33388">
        <ele>305.3</ele>
        <time>2025-03-08T14:07:00Z</time>
      </trkpt>
      <trkpt lat="44.42797" lon="1.33388">
        <ele>305.3</ele>
        <time>2025-03-08T14:07:01Z</time>
      </trkpt>
      <trkpt lat="44.42797" lon="1.33388">
        <ele>305.3</ele>
        <time>2025-03-08T14:07:02Z</time>
      </trkpt>
      <trkpt lat="44.42797" lon="1.33388">
        <ele>305.3</ele>
        <time>2025-03-08T14:07:03Z</time>
      </trkpt>
      <trkpt lat="44.42797" lon="1.33388">
        <ele>305.3</ele>
        <time>2025-03-08T14:07:04Z</time>
      </trkpt>
      <trkpt lat="44.42797" lon="1.33388">
        <ele>305.3</ele>
        <time>2025-03-08T14:07:05Z</time>
      </trkpt>
      <trkpt lat="44.428" lon="1.3339">
        <ele>305.2</ele>
        <time>2025-03-08T14:07:06Z</time>
      </trkpt>
      <trkpt lat="44.42803" lon="1.33392">
        <ele>305.1</ele>
        <time>2025-03-08T14:07:07Z</time>
      </trkpt>
      <trkpt lat="44.42806" lon="1.33392">
        <ele>305.2</ele>
        <time>2025-03-08T14:07:08Z</time>
      </trkpt>
      <trkpt lat="44.42807" lon="1.33392">
        <ele>305.2</ele>
        <time>2025-03-08T14:07:09Z</time>
      </trkpt>
      <trkpt lat="44.42808" lon="1.33388">
        <ele>304.9</ele>
        <time>2025-03-08T14:07:10Z</time>
      </trkpt>
      <trkpt lat="44.42809" lon="1.33387">
        <ele>304.8</ele>
        <time>2025-03-08T14:07:11Z</time>
      </trkpt>
      <trkpt lat="44.42812" lon="1.33386">
        <ele>304.5</ele>
        <time>2025-03-08T14:07:12Z</time>
      </trkpt>
      <trkpt lat="44.42814" lon="1.33387">
        <ele>304.4</ele>
        <time>2025-03-08T14:07:13Z</time>
      </trkpt>
      <trkpt lat="44.42818" lon="1.33389">
        <ele>304</ele>
        <time>2025-03-08T14:07:14Z</time>
      </trkpt>
      <trkpt lat="44.42822" lon="1.33392">
        <ele>303.6</ele>
        <time>2025-03-08T14:07:15Z</time>
      </trkpt>
      <trkpt lat="44.42828" lon="1.33396">
        <ele>303.2</ele>
        <time>2025-03-08T14:07:16Z</time>
      </trkpt>
      <trkpt lat="44.42833" lon="1.33399">
        <ele>302.8</ele>
        <time>2025-03-08T14:07:17Z</time>
      </trkpt>
      <trkpt lat="44.42839" lon="1.33405">
        <ele>302.5</ele>
        <time>2025-03-08T14:07:18Z</time>
      </trkpt>
      <trkpt lat="44.42844" lon="1.33411">
        <ele>302.4</ele>
        <time>2025-03-08T14:07:19Z</time>
      </trkpt>
      <trkpt lat="44.42849" lon="1.33416">
        <ele>302.2</ele>
        <time>2025-03-08T14:07:20Z</time>
      </trkpt>
      <trkpt lat="44.42852" lon="1.3342">
        <ele>302.1</ele>
        <time>2025-03-08T14:07:21Z</time>
      </trkpt>
      <trkpt lat="44.42856" lon="1.33422">
        <ele>302.1</ele>
        <time>2025-03-08T14:07:22Z</time>
      </trkpt>
      <trkpt lat="44.4286" lon="1.33422">
        <ele>301.9</ele>
        <time>2025-03-08T14:07:23Z</time>
      </trkpt>
      <trkpt lat="44.42865" lon="1.33421">
        <ele>301.8</ele>
        <time>2025-03-08T14:07:24Z</time>
      </trkpt>
      <trkpt lat="44.42869" lon="1.33425">
        <ele>301.8</ele>
        <time>2025-03-08T14:07:25Z</time>
      </trkpt>
      <trkpt lat="44.42872" lon="1.33429">
        <ele>301.8</ele>
        <time>2025-03-08T14:07:26Z</time>
      </trkpt>
      <trkpt lat="44.42875" lon="1.33432">
        <ele>301.8</ele>
        <time>2025-03-08T14:07:27Z</time>
      </trkpt>
      <trkpt lat="44.42878" lon="1.33435">
        <ele>301.8</ele>
        <time>2025-03-08T14:07:28Z</time>
      </trkpt>
      <trkpt lat="44.4288" lon="1.33438">
        <ele>301.8</ele>
        <time>2025-03-08T14:07:29Z</time>
      </trkpt>
      <trkpt lat="44.42882" lon="1.33441">
        <ele>301.8</ele>
        <time>2025-03-08T14:07:30Z</time>
      </trkpt>
      <trkpt lat="44.42885" lon="1.33444">
        <ele>301.9</ele>
        <time>2025-03-08T14:07:31Z</time>
      </trkpt>
      <trkpt lat="44.42888" lon="1.33446">
        <ele>301.9</ele>
        <time>2025-03-08T14:07:32Z</time>
      </trkpt>
      <trkpt lat="44.42891" lon="1.33448">
        <ele>302</ele>
        <time>2025-03-08T14:07:33Z</time>
      </trkpt>
      <trkpt lat="44.42894" lon="1.3345">
        <ele>302</ele>
        <time>2025-03-08T14:07:34Z</time>
      </trkpt>
      <trkpt lat="44.42896" lon="1.33453">
        <ele>302.1</ele>
        <time>2025-03-08T14:07:35Z</time>
      </trkpt>
      <trkpt lat="44.42899" lon="1.33455">
        <ele>302.1</ele>
        <time>2025-03-08T14:07:36Z</time>
      </trkpt>
      <trkpt lat="44.42902" lon="1.33457">
        <ele>302.2</ele>
        <time>2025-03-08T14:07:37Z</time>
      </trkpt>
      <trkpt lat="44.42905" lon="1.3346">
        <ele>302.2</ele>
        <time>2025-03-08T14:07:38Z</time>
      </trkpt>
      <trkpt lat="44.42907" lon="1.33461">
        <ele>302.3</ele>
        <time>2025-03-08T14:07:39Z</time>
      </trkpt>
      <trkpt lat="44.42909" lon="1.33463">
        <ele>302.3</ele>
        <time>2025-03-08T14:07:40Z</time>
      </trkpt>
      <trkpt lat="44.42913" lon="1.33467">
        <ele>302.3</ele>
        <time>2025-03-08T14:07:41Z</time>
      </trkpt>
      <trkpt lat="44.42914" lon="1.33468">
        <ele>302.3</ele>
        <time>2025-03-08T14:07:42Z</time>
      </trkpt>
      <trkpt lat="44.42917" lon="1.3347">
        <ele>302.3</ele>
        <time>2025-03-08T14:07:43Z</time>
      </trkpt>
      <trkpt lat="44.42918" lon="1.33471">
        <ele>302.3</ele>
        <time>2025-03-08T14:07:44Z</time>
      </trkpt>
      <trkpt lat="44.42922" lon="1.33474">
        <ele>302.3</ele>
        <time>2025-03-08T14:07:45Z</time>
      </trkpt>
      <trkpt lat="44.42923" lon="1.33475">
        <ele>302.3</ele>
        <time>2025-03-08T14:07:46Z</time>
      </trkpt>
      <trkpt lat="44.42925" lon="1.33478">
        <ele>302.3</ele>
        <time>2025-03-08T14:07:47Z</time>
      </trkpt>
      <trkpt lat="44.42928" lon="1.33481">
        <ele>302.3</ele>
        <time>2025-03-08T14:07:48Z</time>
      </trkpt>
      <trkpt lat="44.42931" lon="1.33481">
        <ele>302.3</ele>
        <time>2025-03-08T14:07:49Z</time>
      </trkpt>
      <trkpt lat="44.42935" lon="1.33479">
        <ele>301.7</ele>
        <time>2025-03-08T14:07:50Z</time>
      </trkpt>
      <trkpt lat="44.42936" lon="1.33477">
        <ele>301.6</ele>
        <time>2025-03-08T14:07:51Z</time>
      </trkpt>
      <trkpt lat="44.42938" lon="1.33474">
        <ele>301.3</ele>
        <time>2025-03-08T14:07:52Z</time>
      </trkpt>
      <trkpt lat="44.42939" lon="1.33469">
        <ele>300.9</ele>
        <time>2025-03-08T14:07:53Z</time>
      </trkpt>
      <trkpt lat="44.42942" lon="1.33464">
        <ele>300.4</ele>
        <time>2025-03-08T14:07:54Z</time>
      </trkpt>
      <trkpt lat="44.42944" lon="1.33459">
        <ele>299.9</ele>
        <time>2025-03-08T14:07:55Z</time>
      </trkpt>
      <trkpt lat="44.42946" lon="1.33454">
        <ele>299.5</ele>
        <time>2025-03-08T14:07:56Z</time>
      </trkpt>
      <trkpt lat="44.42948" lon="1.33448">
        <ele>299</ele>
        <time>2025-03-08T14:07:57Z</time>
      </trkpt>
      <trkpt lat="44.4295" lon="1.33442">
        <ele>298.5</ele>
        <time>2025-03-08T14:07:58Z</time>
      </trkpt>
      <trkpt lat="44.42953" lon="1.33436">
        <ele>298</ele>
        <time>2025-03-08T14:07:59Z</time>
      </trkpt>
      <trkpt lat="44.42955" lon="1.33429">
        <ele>297.4</ele>
        <time>2025-03-08T14:08:00Z</time>
      </trkpt>
      <trkpt lat="44.42957" lon="1.33422">
        <ele>296.9</ele>
        <time>2025-03-08T14:08:01Z</time>
      </trkpt>
      <trkpt lat="44.42959" lon="1.33415">
        <ele>296.3</ele>
        <time>2025-03-08T14:08:02Z</time>
      </trkpt>
      <trkpt lat="44.42961" lon="1.33407">
        <ele>295.8</ele>
        <time>2025-03-08T14:08:03Z</time>
      </trkpt>
      <trkpt lat="44.42963" lon="1.33399">
        <ele>295.3</ele>
        <time>2025-03-08T14:08:04Z</time>
      </trkpt>
      <trkpt lat="44.42967" lon="1.33393">
        <ele>294.8</ele>
        <time>2025-03-08T14:08:05Z</time>
      </trkpt>
      <trkpt lat="44.42971" lon="1.33387">
        <ele>294.3</ele>
        <time>2025-03-08T14:08:06Z</time>
      </trkpt>
      <trkpt lat="44.42975" lon="1.33382">
        <ele>293.8</ele>
        <time>2025-03-08T14:08:07Z</time>
      </trkpt>
      <trkpt lat="44.42979" lon="1.33378">
        <ele>293.7</ele>
        <time>2025-03-08T14:08:08Z</time>
      </trkpt>
      <trkpt lat="44.42983" lon="1.33374">
        <ele>293.8</ele>
        <time>2025-03-08T14:08:09Z</time>
      </trkpt>
      <trkpt lat="44.42987" lon="1.3337">
        <ele>293.8</ele>
        <time>2025-03-08T14:08:10Z</time>
      </trkpt>
      <trkpt lat="44.4299" lon="1.33367">
        <ele>293.8</ele>
        <time>2025-03-08T14:08:11Z</time>
      </trkpt>
      <trkpt lat="44.42991" lon="1.33367">
        <ele>293.8</ele>
        <time>2025-03-08T14:08:12Z</time>
      </trkpt>
      <trkpt lat="44.4299" lon="1.33368">
        <ele>293.8</ele>
        <time>2025-03-08T14:08:13Z</time>
      </trkpt>
      <trkpt lat="44.4299" lon="1.33368">
        <ele>293.8</ele>
        <time>2025-03-08T14:08:14Z</time>
      </trkpt>
      <trkpt lat="44.42989" lon="1.33369">
        <ele>293.8</ele>
        <time>2025-03-08T14:08:15Z</time>
      </trkpt>
      <trkpt lat="44.42988" lon="1.33369">
        <ele>293.8</ele>
        <time>2025-03-08T14:08:16Z</time>
      </trkpt>
      <trkpt lat="44.42988" lon="1.3337">
        <ele>293.8</ele>
        <time>2025-03-08T14:08:17Z</time>
      </trkpt>
      <trkpt lat="44.42987" lon="1.3337">
        <ele>293.8</ele>
        <time>2025-03-08T14:08:18Z</time>
      </trkpt>
      <trkpt lat="44.42986" lon="1.3337">
        <ele>293.8</ele>
        <time>2025-03-08T14:08:19Z</time>
      </trkpt>
      <trkpt lat="44.42983" lon="1.33373">
        <ele>293.8</ele>
        <time>2025-03-08T14:08:20Z</time>
      </trkpt>
      <trkpt lat="44.42981" lon="1.33375">
        <ele>293.8</ele>
        <time>2025-03-08T14:08:21Z</time>
      </trkpt>
      <trkpt lat="44.42978" lon="1.33378">
        <ele>293.7</ele>
        <time>2025-03-08T14:08:22Z</time>
      </trkpt>
      <trkpt lat="44.42979" lon="1.33383">
        <ele>293.6</ele>
        <time>2025-03-08T14:08:23Z</time>
      </trkpt>
      <trkpt lat="44.4298" lon="1.33384">
        <ele>293.6</ele>
        <time>2025-03-08T14:08:24Z</time>
      </trkpt>
      <trkpt lat="44.42984" lon="1.33386">
        <ele>293.5</ele>
        <time>2025-03-08T14:08:25Z</time>
      </trkpt>
      <trkpt lat="44.42987" lon="1.33389">
        <ele>293.4</ele>
        <time>2025-03-08T14:08:26Z</time>
      </trkpt>
      <trkpt lat="44.4299" lon="1.33393">
        <ele>293.3</ele>
        <time>2025-03-08T14:08:27Z</time>
      </trkpt>
      <trkpt lat="44.42992" lon="1.33397">
        <ele>293.1</ele>
        <time>2025-03-08T14:08:28Z</time>
      </trkpt>
      <trkpt lat="44.42994" lon="1.33402">
        <ele>292.9</ele>
        <time>2025-03-08T14:08:29Z</time>
      </trkpt>
      <trkpt lat="44.42996" lon="1.33406">
        <ele>292.6</ele>
        <time>2025-03-08T14:08:30Z</time>
      </trkpt>
      <trkpt lat="44.43" lon="1.3341">
        <ele>292.3</ele>
        <time>2025-03-08T14:08:31Z</time>
      </trkpt>
      <trkpt lat="44.43005" lon="1.33413">
        <ele>292</ele>
        <time>2025-03-08T14:08:32Z</time>
      </trkpt>
      <trkpt lat="44.4301" lon="1.33416">
        <ele>291.6</ele>
        <time>2025-03-08T14:08:33Z</time>
      </trkpt>
      <trkpt lat="44.43014" lon="1.3342">
        <ele>291.2</ele>
        <time>2025-03-08T14:08:34Z</time>
      </trkpt>
      <trkpt lat="44.43019" lon="1.33422">
        <ele>290.8</ele>
        <time>2025-03-08T14:08:35Z</time>
      </trkpt>
      <trkpt lat="44.43026" lon="1.3342">
        <ele>290.2</ele>
        <time>2025-03-08T14:08:36Z</time>
      </trkpt>
      <trkpt lat="44.43032" lon="1.33416">
        <ele>289.6</ele>
        <time>2025-03-08T14:08:37Z</time>
      </trkpt>
      <trkpt lat="44.43036" lon="1.3341">
        <ele>289.1</ele>
        <time>2025-03-08T14:08:38Z</time>
      </trkpt>
      <trkpt lat="44.4304" lon="1.33406">
        <ele>288.7</ele>
        <time>2025-03-08T14:08:39Z</time>
      </trkpt>
      <trkpt lat="44.43045" lon="1.33404">
        <ele>288.3</ele>
        <time>2025-03-08T14:08:40Z</time>
      </trkpt>
      <trkpt lat="44.4305" lon="1.33402">
        <ele>287.9</ele>
        <time>2025-03-08T14:08:41Z</time>
      </trkpt>
      <trkpt lat="44.43056" lon="1.33401">
        <ele>287.7</ele>
        <time>2025-03-08T14:08:42Z</time>
      </trkpt>
      <trkpt lat="44.4306" lon="1.33402">
        <ele>287.5</ele>
        <time>2025-03-08T14:08:43Z</time>
      </trkpt>
      <trkpt lat="44.43063" lon="1.33406">
        <ele>287.4</ele>
        <time>2025-03-08T14:08:44Z</time>
      </trkpt>
      <trkpt lat="44.43065" lon="1.33413">
        <ele>287.3</ele>
        <time>2025-03-08T14:08:45Z</time>
      </trkpt>
      <trkpt lat="44.43066" lon="1.33419">
        <ele>287.2</ele>
        <time>2025-03-08T14:08:46Z</time>
      </trkpt>
      <trkpt lat="44.43066" lon="1.33424">
        <ele>287.1</ele>
        <time>2025-03-08T14:08:47Z</time>
      </trkpt>
      <trkpt lat="44.43068" lon="1.33428">
        <ele>287</ele>
        <time>2025-03-08T14:08:48Z</time>
      </trkpt>
      <trkpt lat="44.43071" lon="1.33432">
        <ele>286.9</ele>
        <time>2025-03-08T14:08:49Z</time>
      </trkpt>
      <trkpt lat="44.43075" lon="1.33435">
        <ele>286.8</ele>
        <time>2025-03-08T14:08:50Z</time>
      </trkpt>
      <trkpt lat="44.4308" lon="1.33439">
        <ele>286.6</ele>
        <time>2025-03-08T14:08:51Z</time>
      </trkpt>
      <trkpt lat="44.43085" lon="1.33444">
        <ele>286.6</ele>
        <time>2025-03-08T14:08:52Z</time>
      </trkpt>
      <trkpt lat="44.4309" lon="1.33446">
        <ele>286.6</ele>
        <time>2025-03-08T14:08:53Z</time>
      </trkpt>
      <trkpt lat="44.43096" lon="1.33447">
        <ele>286.6</ele>
        <time>2025-03-08T14:08:54Z</time>
      </trkpt>
      <trkpt lat="44.43099" lon="1.3345">
        <ele>286.7</ele>
        <time>2025-03-08T14:08:55Z</time>
      </trkpt>
      <trkpt lat="44.43101" lon="1.33455">
        <ele>286.7</ele>
        <time>2025-03-08T14:08:56Z</time>
      </trkpt>
      <trkpt lat="44.43101" lon="1.33462">
        <ele>286.7</ele>
        <time>2025-03-08T14:08:57Z</time>
      </trkpt>
      <trkpt lat="44.431" lon="1.33469">
        <ele>286.6</ele>
        <time>2025-03-08T14:08:58Z</time>
      </trkpt>
      <trkpt lat="44.43098" lon="1.33475">
        <ele>286.5</ele>
        <time>2025-03-08T14:08:59Z</time>
      </trkpt>
      <trkpt lat="44.43095" lon="1.33478">
        <ele>286.3</ele>
        <time>2025-03-08T14:09:00Z</time>
      </trkpt>
      <trkpt lat="44.43091" lon="1.3348">
        <ele>285.9</ele>
        <time>2025-03-08T14:09:01Z</time>
      </trkpt>
      <trkpt lat="44.43088" lon="1.33481">
        <ele>285.5</ele>
        <time>2025-03-08T14:09:02Z</time>
      </trkpt>
      <trkpt lat="44.43085" lon="1.33484">
        <ele>285</ele>
        <time>2025-03-08T14:09:03Z</time>
      </trkpt>
      <trkpt lat="44.43085" lon="1.33488">
        <ele>284.6</ele>
        <time>2025-03-08T14:09:04Z</time>
      </trkpt>
      <trkpt lat="44.43089" lon="1.33494">
        <ele>283.9</ele>
        <time>2025-03-08T14:09:05Z</time>
      </trkpt>
      <trkpt lat="44.43094" lon="1.335">
        <ele>283</ele>
        <time>2025-03-08T14:09:06Z</time>
      </trkpt>
      <trkpt lat="44.43097" lon="1.33506">
        <ele>282.2</ele>
        <time>2025-03-08T14:09:07Z</time>
      </trkpt>
      <trkpt lat="44.431" lon="1.33513">
        <ele>281.5</ele>
        <time>2025-03-08T14:09:08Z</time>
      </trkpt>
      <trkpt lat="44.43101" lon="1.33519">
        <ele>280.9</ele>
        <time>2025-03-08T14:09:09Z</time>
      </trkpt>
      <trkpt lat="44.43104" lon="1.33524">
        <ele>280.3</ele>
        <time>2025-03-08T14:09:10Z</time>
      </trkpt>
      <trkpt lat="44.43108" lon="1.33529">
        <ele>279.6</ele>
        <time>2025-03-08T14:09:11Z</time>
      </trkpt>
      <trkpt lat="44.43111" lon="1.33534">
        <ele>279.1</ele>
        <time>2025-03-08T14:09:12Z</time>
      </trkpt>
      <trkpt lat="44.43114" lon="1.3354">
        <ele>278.6</ele>
        <time>2025-03-08T14:09:13Z</time>
      </trkpt>
      <trkpt lat="44.43115" lon="1.33547">
        <ele>278.2</ele>
        <time>2025-03-08T14:09:14Z</time>
      </trkpt>
      <trkpt lat="44.43116" lon="1.33555">
        <ele>277.9</ele>
        <time>2025-03-08T14:09:15Z</time>
      </trkpt>
      <trkpt lat="44.43117" lon="1.33561">
        <ele>277.6</ele>
        <time>2025-03-08T14:09:16Z</time>
      </trkpt>
      <trkpt lat="44.4312" lon="1.33567">
        <ele>277.5</ele>
        <time>2025-03-08T14:09:17Z</time>
      </trkpt>
      <trkpt lat="44.43124" lon="1.33572">
        <ele>277.3</ele>
        <time>2025-03-08T14:09:18Z</time>
      </trkpt>
      <trkpt lat="44.43128" lon="1.33577">
        <ele>277.1</ele>
        <time>2025-03-08T14:09:19Z</time>
      </trkpt>
      <trkpt lat="44.43133" lon="1.33582">
        <ele>277</ele>
        <time>2025-03-08T14:09:20Z</time>
      </trkpt>
      <trkpt lat="44.43138" lon="1.33585">
        <ele>276.8</ele>
        <time>2025-03-08T14:09:21Z</time>
      </trkpt>
      <trkpt lat="44.43144" lon="1.33588">
        <ele>276.6</ele>
        <time>2025-03-08T14:09:22Z</time>
      </trkpt>
      <trkpt lat="44.43149" lon="1.3359">
        <ele>276.4</ele>
        <time>2025-03-08T14:09:23Z</time>
      </trkpt>
      <trkpt lat="44.43153" lon="1.33591">
        <ele>276.1</ele>
        <time>2025-03-08T14:09:24Z</time>
      </trkpt>
      <trkpt lat="44.43158" lon="1.33592">
        <ele>275.8</ele>
        <time>2025-03-08T14:09:25Z</time>
      </trkpt>
      <trkpt lat="44.43161" lon="1.33594">
        <ele>275.6</ele>
        <time>2025-03-08T14:09:26Z</time>
      </trkpt>
      <trkpt lat="44.43165" lon="1.33597">
        <ele>275.3</ele>
        <time>2025-03-08T14:09:27Z</time>
      </trkpt>
      <trkpt lat="44.43169" lon="1.33599">
        <ele>275</ele>
        <time>2025-03-08T14:09:28Z</time>
      </trkpt>
      <trkpt lat="44.43174" lon="1.33602">
        <ele>274.8</ele>
        <time>2025-03-08T14:09:29Z</time>
      </trkpt>
      <trkpt lat="44.4318" lon="1.33603">
        <ele>274.6</ele>
        <time>2025-03-08T14:09:30Z</time>
      </trkpt>
      <trkpt lat="44.43186" lon="1.33603">
        <ele>274.4</ele>
        <time>2025-03-08T14:09:31Z</time>
      </trkpt>
      <trkpt lat="44.43191" lon="1.33602">
        <ele>274.3</ele>
        <time>2025-03-08T14:09:32Z</time>
      </trkpt>
      <trkpt lat="44.43194" lon="1.33603">
        <ele>274.2</ele>
        <time>2025-03-08T14:09:33Z</time>
      </trkpt>
      <trkpt lat="44.43199" lon="1.33604">
        <ele>274.1</ele>
        <time>2025-03-08T14:09:34Z</time>
      </trkpt>
      <trkpt lat="44.43205" lon="1.33604">
        <ele>274</ele>
        <time>2025-03-08T14:09:35Z</time>
      </trkpt>
      <trkpt lat="44.43211" lon="1.33604">
        <ele>274</ele>
        <time>2025-03-08T14:09:36Z</time>
      </trkpt>
      <trkpt lat="44.43218" lon="1.33603">
        <ele>274.1</ele>
        <time>2025-03-08T14:09:37Z</time>
      </trkpt>
      <trkpt lat="44.43224" lon="1.33601">
        <ele>274.3</ele>
        <time>2025-03-08T14:09:38Z</time>
      </trkpt>
      <trkpt lat="44.43229" lon="1.33598">
        <ele>274.6</ele>
        <time>2025-03-08T14:09:39Z</time>
      </trkpt>
      <trkpt lat="44.43234" lon="1.33595">
        <ele>274.9</ele>
        <time>2025-03-08T14:09:40Z</time>
      </trkpt>
      <trkpt lat="44.4324" lon="1.33593">
        <ele>275.2</ele>
        <time>2025-03-08T14:09:41Z</time>
      </trkpt>
      <trkpt lat="44.43245" lon="1.33593">
        <ele>275.5</ele>
        <time>2025-03-08T14:09:42Z</time>
      </trkpt>
      <trkpt lat="44.43249" lon="1.33595">
        <ele>275.7</ele>
        <time>2025-03-08T14:09:43Z</time>
      </trkpt>
      <trkpt lat="44.43252" lon="1.33598">
        <ele>276</ele>
        <time>2025-03-08T14:09:44Z</time>
      </trkpt>
      <trkpt lat="44.43254" lon="1.33601">
        <ele>276.2</ele>
        <time>2025-03-08T14:09:45Z</time>
      </trkpt>
      <trkpt lat="44.43257" lon="1.33604">
        <ele>276.4</ele>
        <time>2025-03-08T14:09:46Z</time>
      </trkpt>
      <trkpt lat="44.43259" lon="1.33607">
        <ele>276.7</ele>
        <time>2025-03-08T14:09:47Z</time>
      </trkpt>
      <trkpt lat="44.43261" lon="1.3361">
        <ele>277</ele>
        <time>2025-03-08T14:09:48Z</time>
      </trkpt>
      <trkpt lat="44.43262" lon="1.33614">
        <ele>277.3</ele>
        <time>2025-03-08T14:09:49Z</time>
      </trkpt>
      <trkpt lat="44.43264" lon="1.33618">
        <ele>277.6</ele>
        <time>2025-03-08T14:09:50Z</time>
      </trkpt>
      <trkpt lat="44.43266" lon="1.33622">
        <ele>278.1</ele>
        <time>2025-03-08T14:09:51Z</time>
      </trkpt>
      <trkpt lat="44.43267" lon="1.33623">
        <ele>278.2</ele>
        <time>2025-03-08T14:09:52Z</time>
      </trkpt>
      <trkpt lat="44.43268" lon="1.33625">
        <ele>278.4</ele>
        <time>2025-03-08T14:09:53Z</time>
      </trkpt>
      <trkpt lat="44.43269" lon="1.33627">
        <ele>278.6</ele>
        <time>2025-03-08T14:09:54Z</time>
      </trkpt>
      <trkpt lat="44.43269" lon="1.33628">
        <ele>278.8</ele>
        <time>2025-03-08T14:09:55Z</time>
      </trkpt>
      <trkpt lat="44.43269" lon="1.33629">
        <ele>278.9</ele>
        <time>2025-03-08T14:09:56Z</time>
      </trkpt>
      <trkpt lat="44.43269" lon="1.33629">
        <ele>278.9</ele>
        <time>2025-03-08T14:09:57Z</time>
      </trkpt>
      <trkpt lat="44.43269" lon="1.33629">
        <ele>278.9</ele>
        <time>2025-03-08T14:09:58Z</time>
      </trkpt>
      <trkpt lat="44.43269" lon="1.33629">
        <ele>278.9</ele>
        <time>2025-03-08T14:09:59Z</time>
      </trkpt>
      <trkpt lat="44.43269" lon="1.33629">
        <ele>278.9</ele>
        <time>2025-03-08T14:10:00Z</time>
      </trkpt>
      <trkpt lat="44.43269" lon="1.33629">
        <ele>278.9</ele>
        <time>2025-03-08T14:10:01Z</time>
      </trkpt>
      <trkpt lat="44.43269" lon="1.33629">
        <ele>278.9</ele>
        <time>2025-03-08T14:10:02Z</time>
      </trkpt>
      <trkpt lat="44.43269" lon="1.33629">
        <ele>278.9</ele>
        <time>2025-03-08T14:10:03Z</time>
      </trkpt>
      <trkpt lat="44.43269" lon="1.33629">
        <ele>278.9</ele>
        <time>2025-03-08T14:10:04Z</time>
      </trkpt>
      <trkpt lat="44.43269" lon="1.33629">
        <ele>278.9</ele>
        <time>2025-03-08T14:10:05Z</time>
      </trkpt>
      <trkpt lat="44.43269" lon="1.33629">
        <ele>278.9</ele>
        <time>2025-03-08T14:10:06Z</time>
      </trkpt>
      <trkpt lat="44.43269" lon="1.33629">
        <ele>278.9</ele>
        <time>2025-03-08T14:10:07Z</time>
      </trkpt>
      <trkpt lat="44.43269" lon="1.33629">
        <ele>278.9</ele>
        <time>2025-03-08T14:10:08Z</time>
      </trkpt>
      <trkpt lat="44.43269" lon="1.33629">
        <ele>278.9</ele>
        <time>2025-03-08T14:10:09Z</time>
      </trkpt>
      <trkpt lat="44.43269" lon="1.33629">
        <ele>278.9</ele>
        <time>2025-03-08T14:10:10Z</time>
      </trkpt>
      <trkpt lat="44.43269" lon="1.33629">
        <ele>278.9</ele>
        <time>2025-03-08T14:10:11Z</time>
      </trkpt>
      <trkpt lat="44.43269" lon="1.33629">
        <ele>278.9</ele>
        <time>2025-03-08T14:10:12Z</time>
      </trkpt>
      <trkpt lat="44.43269" lon="1.33629">
        <ele>278.9</ele>
        <time>2025-03-08T14:10:13Z</time>
      </trkpt>
      <trkpt lat="44.43269" lon="1.33629">
        <ele>278.9</ele>
        <time>2025-03-08T14:10:14Z</time>
      </trkpt>
      <trkpt lat="44.43269" lon="1.33629">
        <ele>278.9</ele>
        <time>2025-03-08T14:10:15Z</time>
      </trkpt>
      <trkpt lat="44.43269" lon="1.33629">
        <ele>278.9</ele>
        <time>2025-03-08T14:10:16Z</time>
      </trkpt>
      <trkpt lat="44.43269" lon="1.33629">
        <ele>278.9</ele>
        <time>2025-03-08T14:10:17Z</time>
      </trkpt>
      <trkpt lat="44.43269" lon="1.33629">
        <ele>278.9</ele>
        <time>2025-03-08T14:10:18Z</time>
      </trkpt>
      <trkpt lat="44.43269" lon="1.33629">
        <ele>278.9</ele>
        <time>2025-03-08T14:10:19Z</time>
      </trkpt>
      <trkpt lat="44.43269" lon="1.33629">
        <ele>278.9</ele>
        <time>2025-03-08T14:10:20Z</time>
      </trkpt>
      <trkpt lat="44.43269" lon="1.33629">
        <ele>278.9</ele>
        <time>2025-03-08T14:10:21Z</time>
      </trkpt>
      <trkpt lat="44.43269" lon="1.33629">
        <ele>278.9</ele>
        <time>2025-03-08T14:10:22Z</time>
      </trkpt>
      <trkpt lat="44.43269" lon="1.33629">
        <ele>278.9</ele>
        <time>2025-03-08T14:10:23Z</time>
      </trkpt>
      <trkpt lat="44.43269" lon="1.33629">
        <ele>278.9</ele>
        <time>2025-03-08T14:10:24Z</time>
      </trkpt>
      <trkpt lat="44.43269" lon="1.33629">
        <ele>278.9</ele>
        <time>2025-03-08T14:10:25Z</time>
      </trkpt>
      <trkpt lat="44.43269" lon="1.33629">
        <ele>278.9</ele>
        <time>2025-03-08T14:10:26Z</time>
      </trkpt>
      <trkpt lat="44.43269" lon="1.33629">
        <ele>278.9</ele>
        <time>2025-03-08T14:10:27Z</time>
      </trkpt>
      <trkpt lat="44.43269" lon="1.33629">
        <ele>278.9</ele>
        <time>2025-03-08T14:10:28Z</time>
      </trkpt>
      <trkpt lat="44.43269" lon="1.33629">
        <ele>278.9</ele>
        <time>2025-03-08T14:10:29Z</time>
      </trkpt>
      <trkpt lat="44.43269" lon="1.33629">
        <ele>278.9</ele>
        <time>2025-03-08T14:10:30Z</time>
      </trkpt>
      <trkpt lat="44.43269" lon="1.33629">
        <ele>278.9</ele>
        <time>2025-03-08T14:10:31Z</time>
      </trkpt>
      <trkpt lat="44.43269" lon="1.33629">
        <ele>278.9</ele>
        <time>2025-03-08T14:10:32Z</time>
      </trkpt>
      <trkpt lat="44.43269" lon="1.33629">
        <ele>278.9</ele>
        <time>2025-03-08T14:10:33Z</time>
      </trkpt>
      <trkpt lat="44.43269" lon="1.33629">
        <ele>278.9</ele>
        <time>2025-03-08T14:10:34Z</time>
      </trkpt>
      <trkpt lat="44.43269" lon="1.33629">
        <ele>278.9</ele>
        <time>2025-03-08T14:10:35Z</time>
      </trkpt>
      <trkpt lat="44.43269" lon="1.33629">
        <ele>278.9</ele>
        <time>2025-03-08T14:10:36Z</time>
      </trkpt>
      <trkpt lat="44.43269" lon="1.33629">
        <ele>278.9</ele>
        <time>2025-03-08T14:10:37Z</time>
      </trkpt>
      <trkpt lat="44.43269" lon="1.33629">
        <ele>278.9</ele>
        <time>2025-03-08T14:10:38Z</time>
      </trkpt>
      <trkpt lat="44.43269" lon="1.33629">
        <ele>278.9</ele>
        <time>2025-03-08T14:10:39Z</time>
      </trkpt>
      <trkpt lat="44.43269" lon="1.33629">
        <ele>278.9</ele>
        <time>2025-03-08T14:10:40Z</time>
      </trkpt>
      <trkpt lat="44.43269" lon="1.33629">
        <ele>278.9</ele>
        <time>2025-03-08T14:10:41Z</time>
      </trkpt>
      <trkpt lat="44.43269" lon="1.33629">
        <ele>278.9</ele>
        <time>2025-03-08T14:10:42Z</time>
      </trkpt>
      <trkpt lat="44.43269" lon="1.33629">
        <ele>278.9</ele>
        <time>2025-03-08T14:10:43Z</time>
      </trkpt>
      <trkpt lat="44.43269" lon="1.33629">
        <ele>278.9</ele>
        <time>2025-03-08T14:10:44Z</time>
      </trkpt>
      <trkpt lat="44.43269" lon="1.33629">
        <ele>278.9</ele>
        <time>2025-03-08T14:10:45Z</time>
      </trkpt>
      <trkpt lat="44.43269" lon="1.33629">
        <ele>278.9</ele>
        <time>2025-03-08T14:10:46Z</time>
      </trkpt>
      <trkpt lat="44.43269" lon="1.33629">
        <ele>278.9</ele>
        <time>2025-03-08T14:10:47Z</time>
      </trkpt>
      <trkpt lat="44.43269" lon="1.33629">
        <ele>278.9</ele>
        <time>2025-03-08T14:10:48Z</time>
      </trkpt>
      <trkpt lat="44.43269" lon="1.33629">
        <ele>278.9</ele>
        <time>2025-03-08T14:10:49Z</time>
      </trkpt>
      <trkpt lat="44.43269" lon="1.33629">
        <ele>278.9</ele>
        <time>2025-03-08T14:10:50Z</time>
      </trkpt>
      <trkpt lat="44.43269" lon="1.33629">
        <ele>278.9</ele>
        <time>2025-03-08T14:10:51Z</time>
      </trkpt>
      <trkpt lat="44.43269" lon="1.33629">
        <ele>278.9</ele>
        <time>2025-03-08T14:10:52Z</time>
      </trkpt>
      <trkpt lat="44.43269" lon="1.33629">
        <ele>278.9</ele>
        <time>2025-03-08T14:10:53Z</time>
      </trkpt>
      <trkpt lat="44.43269" lon="1.33629">
        <ele>278.9</ele>
        <time>2025-03-08T14:10:54Z</time>
      </trkpt>
      <trkpt lat="44.43269" lon="1.33629">
        <ele>278.9</ele>
        <time>2025-03-08T14:10:55Z</time>
      </trkpt>
      <trkpt lat="44.43269" lon="1.33629">
        <ele>278.9</ele>
        <time>2025-03-08T14:10:56Z</time>
      </trkpt>
      <trkpt lat="44.43269" lon="1.33629">
        <ele>278.9</ele>
        <time>2025-03-08T14:10:57Z</time>
      </trkpt>
      <trkpt lat="44.43269" lon="1.33629">
        <ele>278.9</ele>
        <time>2025-03-08T14:10:58Z</time>
      </trkpt>
      <trkpt lat="44.43269" lon="1.33629">
        <ele>278.9</ele>
        <time>2025-03-08T14:10:59Z</time>
      </trkpt>
      <trkpt lat="44.43269" lon="1.33629">
        <ele>278.9</ele>
        <time>2025-03-08T14:11:00Z</time>
      </trkpt>
      <trkpt lat="44.43269" lon="1.33629">
        <ele>278.9</ele>
        <time>2025-03-08T14:11:01Z</time>
      </trkpt>
      <trkpt lat="44.43269" lon="1.33629">
        <ele>278.9</ele>
        <time>2025-03-08T14:11:02Z</time>
      </trkpt>
      <trkpt lat="44.43269" lon="1.33629">
        <ele>278.9</ele>
        <time>2025-03-08T14:11:03Z</time>
      </trkpt>
      <trkpt lat="44.43269" lon="1.33629">
        <ele>278.9</ele>
        <time>2025-03-08T14:11:04Z</time>
      </trkpt>
      <trkpt lat="44.43269" lon="1.33629">
        <ele>278.9</ele>
        <time>2025-03-08T14:11:05Z</time>
      </trkpt>
      <trkpt lat="44.43269" lon="1.33629">
        <ele>278.9</ele>
        <time>2025-03-08T14:11:06Z</time>
      </trkpt>
      <trkpt lat="44.43269" lon="1.33629">
        <ele>278.9</ele>
        <time>2025-03-08T14:11:07Z</time>
      </trkpt>
      <trkpt lat="44.43269" lon="1.33629">
        <ele>278.9</ele>
        <time>2025-03-08T14:11:08Z</time>
      </trkpt>
      <trkpt lat="44.43269" lon="1.33629">
        <ele>278.9</ele>
        <time>2025-03-08T14:11:09Z</time>
      </trkpt>
      <trkpt lat="44.43269" lon="1.33629">
        <ele>278.9</ele>
        <time>2025-03-08T14:11:10Z</time>
      </trkpt>
      <trkpt lat="44.43269" lon="1.33629">
        <ele>278.9</ele>
        <time>2025-03-08T14:11:11Z</time>
      </trkpt>
      <trkpt lat="44.43269" lon="1.33629">
        <ele>278.9</ele>
        <time>2025-03-08T14:11:12Z</time>
      </trkpt>
      <trkpt lat="44.43269" lon="1.33629">
        <ele>278.9</ele>
        <time>2025-03-08T14:11:13Z</time>
      </trkpt>
      <trkpt lat="44.43269" lon="1.33629">
        <ele>278.9</ele>
        <time>2025-03-08T14:11:14Z</time>
      </trkpt>
      <trkpt lat="44.43269" lon="1.33629">
        <ele>278.9</ele>
        <time>2025-03-08T14:11:15Z</time>
      </trkpt>
      <trkpt lat="44.43269" lon="1.33629">
        <ele>278.9</ele>
        <time>2025-03-08T14:11:16Z</time>
      </trkpt>
      <trkpt lat="44.43269" lon="1.33629">
        <ele>278.9</ele>
        <time>2025-03-08T14:11:17Z</time>
      </trkpt>
      <trkpt lat="44.43269" lon="1.33629">
        <ele>278.9</ele>
        <time>2025-03-08T14:11:18Z</time>
      </trkpt>
      <trkpt lat="44.43269" lon="1.33629">
        <ele>278.9</ele>
        <time>2025-03-08T14:11:19Z</time>
      </trkpt>
      <trkpt lat="44.43269" lon="1.33629">
        <ele>278.9</ele>
        <time>2025-03-08T14:11:20Z</time>
      </trkpt>
      <trkpt lat="44.43269" lon="1.33629">
        <ele>278.9</ele>
        <time>2025-03-08T14:11:21Z</time>
      </trkpt>
      <trkpt lat="44.43269" lon="1.33629">
        <ele>278.9</ele>
        <time>2025-03-08T14:11:22Z</time>
      </trkpt>
      <trkpt lat="44.43269" lon="1.33629">
        <ele>278.9</ele>
        <time>2025-03-08T14:11:23Z</time>
      </trkpt>
      <trkpt lat="44.43269" lon="1.33629">
        <ele>278.9</ele>
        <time>2025-03-08T14:11:24Z</time>
      </trkpt>
      <trkpt lat="44.43269" lon="1.33629">
        <ele>278.9</ele>
        <time>2025-03-08T14:11:25Z</time>
      </trkpt>
      <trkpt lat="44.43269" lon="1.33629">
        <ele>278.9</ele>
        <time>2025-03-08T14:11:26Z</time>
      </trkpt>
      <trkpt lat="44.43269" lon="1.33629">
        <ele>278.9</ele>
        <time>2025-03-08T14:11:27Z</time>
      </trkpt>
      <trkpt lat="44.43269" lon="1.33629">
        <ele>278.9</ele>
        <time>2025-03-08T14:11:28Z</time>
      </trkpt>
      <trkpt lat="44.43269" lon="1.33629">
        <ele>278.9</ele>
        <time>2025-03-08T14:11:29Z</time>
      </trkpt>
      <trkpt lat="44.43269" lon="1.33629">
        <ele>278.9</ele>
        <time>2025-03-08T14:11:30Z</time>
      </trkpt>
      <trkpt lat="44.43269" lon="1.33629">
        <ele>278.9</ele>
        <time>2025-03-08T14:11:31Z</time>
      </trkpt>
      <trkpt lat="44.43269" lon="1.33629">
        <ele>278.9</ele>
        <time>2025-03-08T14:11:32Z</time>
      </trkpt>
      <trkpt lat="44.43269" lon="1.33629">
        <ele>278.9</ele>
        <time>2025-03-08T14:11:33Z</time>
      </trkpt>
      <trkpt lat="44.43269" lon="1.33629">
        <ele>278.9</ele>
        <time>2025-03-08T14:11:34Z</time>
      </trkpt>
      <trkpt lat="44.43269" lon="1.33629">
        <ele>278.9</ele>
        <time>2025-03-08T14:11:35Z</time>
      </trkpt>
      <trkpt lat="44.43269" lon="1.33629">
        <ele>278.9</ele>
        <time>2025-03-08T14:11:36Z</time>
      </trkpt>
      <trkpt lat="44.43269" lon="1.33629">
        <ele>278.9</ele>
        <time>2025-03-08T14:11:37Z</time>
      </trkpt>
      <trkpt lat="44.43269" lon="1.33629">
        <ele>278.9</ele>
        <time>2025-03-08T14:11:38Z</time>
      </trkpt>
      <trkpt lat="44.43269" lon="1.33629">
        <ele>278.9</ele>
        <time>2025-03-08T14:11:39Z</time>
      </trkpt>
      <trkpt lat="44.43269" lon="1.33629">
        <ele>278.9</ele>
        <time>2025-03-08T14:11:40Z</time>
      </trkpt>
      <trkpt lat="44.43269" lon="1.33629">
        <ele>278.9</ele>
        <time>2025-03-08T14:11:41Z</time>
      </trkpt>
      <trkpt lat="44.43269" lon="1.33629">
        <ele>278.9</ele>
        <time>2025-03-08T14:11:42Z</time>
      </trkpt>
      <trkpt lat="44.43269" lon="1.33629">
        <ele>278.9</ele>
        <time>2025-03-08T14:11:43Z</time>
      </trkpt>
      <trkpt lat="44.43269" lon="1.33629">
        <ele>278.9</ele>
        <time>2025-03-08T14:11:44Z</time>
      </trkpt>
      <trkpt lat="44.43269" lon="1.33629">
        <ele>278.9</ele>
        <time>2025-03-08T14:11:45Z</time>
      </trkpt>
      <trkpt lat="44.43269" lon="1.33629">
        <ele>278.9</ele>
        <time>2025-03-08T14:11:46Z</time>
      </trkpt>
      <trkpt lat="44.43269" lon="1.33629">
        <ele>278.9</ele>
        <time>2025-03-08T14:11:47Z</time>
      </trkpt>
      <trkpt lat="44.43269" lon="1.33629">
        <ele>278.9</ele>
        <time>2025-03-08T14:11:48Z</time>
      </trkpt>
      <trkpt lat="44.43269" lon="1.33629">
        <ele>278.9</ele>
        <time>2025-03-08T14:11:49Z</time>
      </trkpt>
      <trkpt lat="44.43269" lon="1.33629">
        <ele>278.9</ele>
        <time>2025-03-08T14:11:50Z</time>
      </trkpt>
      <trkpt lat="44.43269" lon="1.33629">
        <ele>278.9</ele>
        <time>2025-03-08T14:11:51Z</time>
      </trkpt>
      <trkpt lat="44.43269" lon="1.33629">
        <ele>278.9</ele>
        <time>2025-03-08T14:11:52Z</time>
      </trkpt>
      <trkpt lat="44.43269" lon="1.33629">
        <ele>278.9</ele>
        <time>2025-03-08T14:11:53Z</time>
      </trkpt>
      <trkpt lat="44.43269" lon="1.33629">
        <ele>278.9</ele>
        <time>2025-03-08T14:11:54Z</time>
      </trkpt>
      <trkpt lat="44.43269" lon="1.33629">
        <ele>278.9</ele>
        <time>2025-03-08T14:11:55Z</time>
      </trkpt>
      <trkpt lat="44.43269" lon="1.33629">
        <ele>278.9</ele>
        <time>2025-03-08T14:11:56Z</time>
      </trkpt>
      <trkpt lat="44.43269" lon="1.33628">
        <ele>278.8</ele>
        <time>2025-03-08T14:11:57Z</time>
      </trkpt>
      <trkpt lat="44.4327" lon="1.33626">
        <ele>278.7</ele>
        <time>2025-03-08T14:11:58Z</time>
      </trkpt>
      <trkpt lat="44.4327" lon="1.33623">
        <ele>278.6</ele>
        <time>2025-03-08T14:11:59Z</time>
      </trkpt>
      <trkpt lat="44.43271" lon="1.33618">
        <ele>278.4</ele>
        <time>2025-03-08T14:12:00Z</time>
      </trkpt>
      <trkpt lat="44.43274" lon="1.33615">
        <ele>278.2</ele>
        <time>2025-03-08T14:12:01Z</time>
      </trkpt>
      <trkpt lat="44.43276" lon="1.33611">
        <ele>277.9</ele>
        <time>2025-03-08T14:12:02Z</time>
      </trkpt>
      <trkpt lat="44.43278" lon="1.33607">
        <ele>277.7</ele>
        <time>2025-03-08T14:12:03Z</time>
      </trkpt>
      <trkpt lat="44.43276" lon="1.33601">
        <ele>277.3</ele>
        <time>2025-03-08T14:12:04Z</time>
      </trkpt>
      <trkpt lat="44.43276" lon="1.33595">
        <ele>276.9</ele>
        <time>2025-03-08T14:12:05Z</time>
      </trkpt>
      <trkpt lat="44.43278" lon="1.33589">
        <ele>276.5</ele>
        <time>2025-03-08T14:12:06Z</time>
      </trkpt>
      <trkpt lat="44.4328" lon="1.33583">
        <ele>276</ele>
        <time>2025-03-08T14:12:07Z</time>
      </trkpt>
      <trkpt lat="44.43281" lon="1.33577">
        <ele>275.5</ele>
        <time>2025-03-08T14:12:08Z</time>
      </trkpt>
      <trkpt lat="44.43284" lon="1.33571">
        <ele>274.9</ele>
        <time>2025-03-08T14:12:09Z</time>
      </trkpt>
      <trkpt lat="44.43287" lon="1.33566">
        <ele>274.3</ele>
        <time>2025-03-08T14:12:10Z</time>
      </trkpt>
      <trkpt lat="44.43291" lon="1.33562">
        <ele>273.6</ele>
        <time>2025-03-08T14:12:11Z</time>
      </trkpt>
      <trkpt lat="44.43294" lon="1.33557">
        <ele>273</ele>
        <time>2025-03-08T14:12:12Z</time>
      </trkpt>
      <trkpt lat="44.43296" lon="1.33553">
        <ele>272.4</ele>
        <time>2025-03-08T14:12:13Z</time>
      </trkpt>
      <trkpt lat="44.43299" lon="1.33548">
        <ele>271.7</ele>
        <time>2025-03-08T14:12:14Z</time>
      </trkpt>
      <trkpt lat="44.43302" lon="1.33544">
        <ele>271.1</ele>
        <time>2025-03-08T14:12:15Z</time>
      </trkpt>
      <trkpt lat="44.43305" lon="1.33541">
        <ele>270.5</ele>
        <time>2025-03-08T14:12:16Z</time>
      </trkpt>
      <trkpt lat="44.43307" lon="1.33538">
        <ele>270</ele>
        <time>2025-03-08T14:12:17Z</time>
      </trkpt>
      <trkpt lat="44.4331" lon="1.33535">
        <ele>269.4</ele>
        <time>2025-03-08T14:12:18Z</time>
      </trkpt>
      <trkpt lat="44.43313" lon="1.33532">
        <ele>268.8</ele>
        <time>2025-03-08T14:12:19Z</time>
      </trkpt>
      <trkpt lat="44.43316" lon="1.33529">
        <ele>268.2</ele>
        <time>2025-03-08T14:12:20Z</time>
      </trkpt>
      <trkpt lat="44.43319" lon="1.33526">
        <ele>267.6</ele>
        <time>2025-03-08T14:12:21Z</time>
      </trkpt>
      <trkpt lat="44.43322" lon="1.33523">
        <ele>267</ele>
        <time>2025-03-08T14:12:22Z</time>
      </trkpt>
      <trkpt lat="44.43325" lon="1.3352">
        <ele>266.5</ele>
        <time>2025-03-08T14:12:23Z</time>
      </trkpt>
      <trkpt lat="44.43328" lon="1.33518">
        <ele>265.9</ele>
        <time>2025-03-08T14:12:24Z</time>
      </trkpt>
      <trkpt lat="44.43331" lon="1.33515">
        <ele>265.4</ele>
        <time>2025-03-08T14:12:25Z</time>
      </trkpt>
      <trkpt lat="44.43333" lon="1.33513">
        <ele>264.8</ele>
        <time>2025-03-08T14:12:26Z</time>
      </trkpt>
      <trkpt lat="44.43336" lon="1.3351">
        <ele>264.3</ele>
        <time>2025-03-08T14:12:27Z</time>
      </trkpt>
      <trkpt lat="44.4334" lon="1.33508">
        <ele>263.5</ele>
        <time>2025-03-08T14:12:28Z</time>
      </trkpt>
      <trkpt lat="44.43341" lon="1.33507">
        <ele>263.3</ele>
        <time>2025-03-08T14:12:29Z</time>
      </trkpt>
      <trkpt lat="44.43344" lon="1.33506">
        <ele>262.8</ele>
        <time>2025-03-08T14:12:30Z</time>
      </trkpt>
      <trkpt lat="44.43347" lon="1.33504">
        <ele>262.2</ele>
        <time>2025-03-08T14:12:31Z</time>
      </trkpt>
      <trkpt lat="44.4335" lon="1.33502">
        <ele>261.5</ele>
        <time>2025-03-08T14:12:32Z</time>
      </trkpt>
      <trkpt lat="44.43353" lon="1.335">
        <ele>260.9</ele>
        <time>2025-03-08T14:12:33Z</time>
      </trkpt>
      <trkpt lat="44.43356" lon="1.33499">
        <ele>260.3</ele>
        <time>2025-03-08T14:12:34Z</time>
      </trkpt>
      <trkpt lat="44.43359" lon="1.33499">
        <ele>259.5</ele>
        <time>2025-03-08T14:12:35Z</time>
      </trkpt>
      <trkpt lat="44.43363" lon="1.33498">
        <ele>258.7</ele>
        <time>2025-03-08T14:12:36Z</time>
      </trkpt>
      <trkpt lat="44.43366" lon="1.33496">
        <ele>257.8</ele>
        <time>2025-03-08T14:12:37Z</time>
      </trkpt>
      <trkpt lat="44.43369" lon="1.33493">
        <ele>256.9</ele>
        <time>2025-03-08T14:12:38Z</time>
      </trkpt>
      <trkpt lat="44.43372" lon="1.3349">
        <ele>256.1</ele>
        <time>2025-03-08T14:12:39Z</time>
      </trkpt>
      <trkpt lat="44.43374" lon="1.33487">
        <ele>255.4</ele>
        <time>2025-03-08T14:12:40Z</time>
      </trkpt>
      <trkpt lat="44.43377" lon="1.33485">
        <ele>254.5</ele>
        <time>2025-03-08T14:12:41Z</time>
      </trkpt>
      <trkpt lat="44.43379" lon="1.33482">
        <ele>253.8</ele>
        <time>2025-03-08T14:12:42Z</time>
      </trkpt>
      <trkpt lat="44.43382" lon="1.33479">
        <ele>253.1</ele>
        <time>2025-03-08T14:12:43Z</time>
      </trkpt>
      <trkpt lat="44.43384" lon="1.33477">
        <ele>252.5</ele>
        <time>2025-03-08T14:12:44Z</time>
      </trkpt>
      <trkpt lat="44.43386" lon="1.33475">
        <ele>251.8</ele>
        <time>2025-03-08T14:12:45Z</time>
      </trkpt>
      <trkpt lat="44.43389" lon="1.33474">
        <ele>251.1</ele>
        <time>2025-03-08T14:12:46Z</time>
      </trkpt>
      <trkpt lat="44.43391" lon="1.33472">
        <ele>250.4</ele>
        <time>2025-03-08T14:12:47Z</time>
      </trkpt>
      <trkpt lat="44.43394" lon="1.3347">
        <ele>249.6</ele>
        <time>2025-03-08T14:12:48Z</time>
      </trkpt>
      <trkpt lat="44.43397" lon="1.33467">
        <ele>248.8</ele>
        <time>2025-03-08T14:12:49Z</time>
      </trkpt>
      <trkpt lat="44.434" lon="1.33464">
        <ele>247.8</ele>
        <time>2025-03-08T14:12:50Z</time>
      </trkpt>
      <trkpt lat="44.43403" lon="1.33462">
        <ele>246.9</ele>
        <time>2025-03-08T14:12:51Z</time>
      </trkpt>
      <trkpt lat="44.43407" lon="1.33459">
        <ele>246</ele>
        <time>2025-03-08T14:12:52Z</time>
      </trkpt>
      <trkpt lat="44.4341" lon="1.33457">
        <ele>245</ele>
        <time>2025-03-08T14:12:53Z</time>
      </trkpt>
      <trkpt lat="44.43413" lon="1.33455">
        <ele>244.1</ele>
        <time>2025-03-08T14:12:54Z</time>
      </trkpt>
      <trkpt lat="44.43417" lon="1.33452">
        <ele>243.2</ele>
        <time>2025-03-08T14:12:55Z</time>
      </trkpt>
      <trkpt lat="44.4342" lon="1.3345">
        <ele>242.4</ele>
        <time>2025-03-08T14:12:56Z</time>
      </trkpt>
      <trkpt lat="44.43423" lon="1.33448">
        <ele>241.5</ele>
        <time>2025-03-08T14:12:57Z</time>
      </trkpt>
      <trkpt lat="44.43426" lon="1.33445">
        <ele>240.7</ele>
        <time>2025-03-08T14:12:58Z</time>
      </trkpt>
      <trkpt lat="44.43429" lon="1.33443">
        <ele>239.8</ele>
        <time>2025-03-08T14:12:59Z</time>
      </trkpt>
      <trkpt lat="44.43433" lon="1.33441">
        <ele>238.9</ele>
        <time>2025-03-08T14:13:00Z</time>
      </trkpt>
      <trkpt lat="44.43436" lon="1.33439">
        <ele>238.1</ele>
        <time>2025-03-08T14:13:01Z</time>
      </trkpt>
      <trkpt lat="44.43439" lon="1.33437">
        <ele>237.4</ele>
        <time>2025-03-08T14:13:02Z</time>
      </trkpt>
      <trkpt lat="44.43442" lon="1.33434">
        <ele>236.7</ele>
        <time>2025-03-08T14:13:03Z</time>
      </trkpt>
      <trkpt lat="44.43443" lon="1.33434">
        <ele>236.5</ele>
        <time>2025-03-08T14:13:04Z</time>
      </trkpt>
      <trkpt lat="44.43447" lon="1.33432">
        <ele>235.9</ele>
        <time>2025-03-08T14:13:05Z</time>
      </trkpt>
      <trkpt lat="44.43448" lon="1.33432">
        <ele>235.6</ele>
        <time>2025-03-08T14:13:06Z</time>
      </trkpt>
      <trkpt lat="44.43451" lon="1.3343">
        <ele>235.1</ele>
        <time>2025-03-08T14:13:07Z</time>
      </trkpt>
      <trkpt lat="44.43452" lon="1.33429">
        <ele>234.9</ele>
        <time>2025-03-08T14:13:08Z</time>
      </trkpt>
      <trkpt lat="44.43455" lon="1.33428">
        <ele>234.6</ele>
        <time>2025-03-08T14:13:09Z</time>
      </trkpt>
      <trkpt lat="44.43459" lon="1.33425">
        <ele>234.2</ele>
        <time>2025-03-08T14:13:10Z</time>
      </trkpt>
      <trkpt lat="44.43462" lon="1.33423">
        <ele>233.9</ele>
        <time>2025-03-08T14:13:11Z</time>
      </trkpt>
      <trkpt lat="44.43465" lon="1.33421">
        <ele>233.7</ele>
        <time>2025-03-08T14:13:12Z</time>
      </trkpt>
      <trkpt lat="44.43467" lon="1.3342">
        <ele>233.6</ele>
        <time>2025-03-08T14:13:13Z</time>
      </trkpt>
      <trkpt lat="44.43468" lon="1.33419">
        <ele>233.5</ele>
        <time>2025-03-08T14:13:14Z</time>
      </trkpt>
      <trkpt lat="44.43469" lon="1.33418">
        <ele>233.5</ele>
        <time>2025-03-08T14:13:15Z</time>
      </trkpt>
      <trkpt lat="44.4347" lon="1.33416">
        <ele>233.6</ele>
        <time>2025-03-08T14:13:16Z</time>
      </trkpt>
      <trkpt lat="44.43472" lon="1.33413">
        <ele>233.9</ele>
        <time>2025-03-08T14:13:17Z</time>
      </trkpt>
      <trkpt lat="44.43473" lon="1.33411">
        <ele>234</ele>
        <time>2025-03-08T14:13:18Z</time>
      </trkpt>
      <trkpt lat="44.43474" lon="1.33407">
        <ele>234.2</ele>
        <time>2025-03-08T14:13:19Z</time>
      </trkpt>
      <trkpt lat="44.43474" lon="1.33406">
        <ele>234.3</ele>
        <time>2025-03-08T14:13:20Z</time>
      </trkpt>
      <trkpt lat="44.43474" lon="1.33401">
        <ele>234.7</ele>
        <time>2025-03-08T14:13:21Z</time>
      </trkpt>
      <trkpt lat="44.43474" lon="1.334">
        <ele>234.8</ele>
        <time>2025-03-08T14:13:22Z</time>
      </trkpt>
      <trkpt lat="44.43474" lon="1.33397">
        <ele>235</ele>
        <time>2025-03-08T14:13:23Z</time>
      </trkpt>
      <trkpt lat="44.43474" lon="1.33395">
        <ele>235.2</ele>
        <time>2025-03-08T14:13:24Z</time>
      </trkpt>
      <trkpt lat="44.43473" lon="1.33393">
        <ele>235.4</ele>
        <time>2025-03-08T14:13:25Z</time>
      </trkpt>
      <trkpt lat="44.43474" lon="1.3339">
        <ele>235.6</ele>
        <time>2025-03-08T14:13:26Z</time>
      </trkpt>
      <trkpt lat="44.43474" lon="1.33386">
        <ele>236</ele>
        <time>2025-03-08T14:13:27Z</time>
      </trkpt>
      <trkpt lat="44.43474" lon="1.33385">
        <ele>236.1</ele>
        <time>2025-03-08T14:13:28Z</time>
      </trkpt>
      <trkpt lat="44.43473" lon="1.33381">
        <ele>236.5</ele>
        <time>2025-03-08T14:13:29Z</time>
      </trkpt>
      <trkpt lat="44.43473" lon="1.33379">
        <ele>236.6</ele>
        <time>2025-03-08T14:13:30Z</time>
      </trkpt>
      <trkpt lat="44.43472" lon="1.33375">
        <ele>237.1</ele>
        <time>2025-03-08T14:13:31Z</time>
      </trkpt>
      <trkpt lat="44.43472" lon="1.33374">
        <ele>237.2</ele>
        <time>2025-03-08T14:13:32Z</time>
      </trkpt>
      <trkpt lat="44.43472" lon="1.33369">
        <ele>237.7</ele>
        <time>2025-03-08T14:13:33Z</time>
      </trkpt>
      <trkpt lat="44.43472" lon="1.33368">
        <ele>237.9</ele>
        <time>2025-03-08T14:13:34Z</time>
      </trkpt>
      <trkpt lat="44.43472" lon="1.33364">
        <ele>238.3</ele>
        <time>2025-03-08T14:13:35Z</time>
      </trkpt>
      <trkpt lat="44.43472" lon="1.33363">
        <ele>238.5</ele>
        <time>2025-03-08T14:13:36Z</time>
      </trkpt>
      <trkpt lat="44.43472" lon="1.3336">
        <ele>238.8</ele>
        <time>2025-03-08T14:13:37Z</time>
      </trkpt>
      <trkpt lat="44.43473" lon="1.33358">
        <ele>239.1</ele>
        <time>2025-03-08T14:13:38Z</time>
      </trkpt>
      <trkpt lat="44.43473" lon="1.33354">
        <ele>239.7</ele>
        <time>2025-03-08T14:13:39Z</time>
      </trkpt>
      <trkpt lat="44.43473" lon="1.33352">
        <ele>239.9</ele>
        <time>2025-03-08T14:13:40Z</time>
      </trkpt>
      <trkpt lat="44.43473" lon="1.33349">
        <ele>240.4</ele>
        <time>2025-03-08T14:13:41Z</time>
      </trkpt>
      <trkpt lat="44.43474" lon="1.33347">
        <ele>240.6</ele>
        <time>2025-03-08T14:13:42Z</time>
      </trkpt>
      <trkpt lat="44.43475" lon="1.33344">
        <ele>241.1</ele>
        <time>2025-03-08T14:13:43Z</time>
      </trkpt>
      <trkpt lat="44.43475" lon="1.33342">
        <ele>241.3</ele>
        <time>2025-03-08T14:13:44Z</time>
      </trkpt>
      <trkpt lat="44.43475" lon="1.3334">
        <ele>241.6</ele>
        <time>2025-03-08T14:13:45Z</time>
      </trkpt>
      <trkpt lat="44.43476" lon="1.33338">
        <ele>241.9</ele>
        <time>2025-03-08T14:13:46Z</time>
      </trkpt>
      <trkpt lat="44.43477" lon="1.33335">
        <ele>242.4</ele>
        <time>2025-03-08T14:13:47Z</time>
      </trkpt>
      <trkpt lat="44.43478" lon="1.33333">
        <ele>242.6</ele>
        <time>2025-03-08T14:13:48Z</time>
      </trkpt>
      <trkpt lat="44.43479" lon="1.3333">
        <ele>243.1</ele>
        <time>2025-03-08T14:13:49Z</time>
      </trkpt>
      <trkpt lat="44.4348" lon="1.33329">
        <ele>243.3</ele>
        <time>2025-03-08T14:13:50Z</time>
      </trkpt>
      <trkpt lat="44.43482" lon="1.33327">
        <ele>243.7</ele>
        <time>2025-03-08T14:13:51Z</time>
      </trkpt>
      <trkpt lat="44.43482" lon="1.33325">
        <ele>243.9</ele>
        <time>2025-03-08T14:13:52Z</time>
      </trkpt>
      <trkpt lat="44.43483" lon="1.33324">
        <ele>244</ele>
        <time>2025-03-08T14:13:53Z</time>
      </trkpt>
      <trkpt lat="44.43483" lon="1.33322">
        <ele>244.3</ele>
        <time>2025-03-08T14:13:54Z</time>
      </trkpt>
      <trkpt lat="44.43484" lon="1.33321">
        <ele>244.6</ele>
        <time>2025-03-08T14:13:55Z</time>
      </trkpt>
      <trkpt lat="44.43485" lon="1.33319">
        <ele>244.8</ele>
        <time>2025-03-08T14:13:56Z</time>
      </trkpt>
      <trkpt lat="44.43487" lon="1.33318">
        <ele>245.2</ele>
        <time>2025-03-08T14:13:57Z</time>
      </trkpt>
      <trkpt lat="44.43488" lon="1.33316">
        <ele>245.5</ele>
        <time>2025-03-08T14:13:58Z</time>
      </trkpt>
      <trkpt lat="44.43489" lon="1.33315">
        <ele>245.7</ele>
        <time>2025-03-08T14:13:59Z</time>
      </trkpt>
      <trkpt lat="44.43491" lon="1.33313">
        <ele>246.1</ele>
        <time>2025-03-08T14:14:00Z</time>
      </trkpt>
      <trkpt lat="44.43492" lon="1.33312">
        <ele>246.3</ele>
        <time>2025-03-08T14:14:01Z</time>
      </trkpt>
      <trkpt lat="44.43492" lon="1.33311">
        <ele>246.5</ele>
        <time>2025-03-08T14:14:02Z</time>
      </trkpt>
      <trkpt lat="44.43493" lon="1.33309">
        <ele>246.8</ele>
        <time>2025-03-08T14:14:03Z</time>
      </trkpt>
      <trkpt lat="44.43494" lon="1.33308">
        <ele>247</ele>
        <time>2025-03-08T14:14:04Z</time>
      </trkpt>
      <trkpt lat="44.43496" lon="1.33306">
        <ele>247.4</ele>
        <time>2025-03-08T14:14:05Z</time>
      </trkpt>
      <trkpt lat="44.43497" lon="1.33305">
        <ele>247.7</ele>
        <time>2025-03-08T14:14:06Z</time>
      </trkpt>
      <trkpt lat="44.435" lon="1.33302">
        <ele>248.3</ele>
        <time>2025-03-08T14:14:07Z</time>
      </trkpt>
      <trkpt lat="44.43501" lon="1.33301">
        <ele>248.5</ele>
        <time>2025-03-08T14:14:08Z</time>
      </trkpt>
      <trkpt lat="44.43503" lon="1.33299">
        <ele>248.9</ele>
        <time>2025-03-08T14:14:09Z</time>
      </trkpt>
      <trkpt lat="44.43503" lon="1.33298">
        <ele>249.1</ele>
        <time>2025-03-08T14:14:10Z</time>
      </trkpt>
      <trkpt lat="44.43504" lon="1.33297">
        <ele>249.3</ele>
        <time>2025-03-08T14:14:11Z</time>
      </trkpt>
      <trkpt lat="44.43505" lon="1.33294">
        <ele>249.5</ele>
        <time>2025-03-08T14:14:12Z</time>
      </trkpt>
      <trkpt lat="44.43506" lon="1.33292">
        <ele>249.6</ele>
        <time>2025-03-08T14:14:13Z</time>
      </trkpt>
      <trkpt lat="44.43507" lon="1.33289">
        <ele>249.7</ele>
        <time>2025-03-08T14:14:14Z</time>
      </trkpt>
      <trkpt lat="44.43507" lon="1.33288">
        <ele>249.8</ele>
        <time>2025-03-08T14:14:15Z</time>
      </trkpt>
      <trkpt lat="44.43508" lon="1.33285">
        <ele>249.9</ele>
        <time>2025-03-08T14:14:16Z</time>
      </trkpt>
      <trkpt lat="44.43508" lon="1.33283">
        <ele>250</ele>
        <time>2025-03-08T14:14:17Z</time>
      </trkpt>
      <trkpt lat="44.43508" lon="1.33281">
        <ele>250</ele>
        <time>2025-03-08T14:14:18Z</time>
      </trkpt>
      <trkpt lat="44.43508" lon="1.33278">
        <ele>250.1</ele>
        <time>2025-03-08T14:14:19Z</time>
      </trkpt>
      <trkpt lat="44.43508" lon="1.33277">
        <ele>250.2</ele>
        <time>2025-03-08T14:14:20Z</time>
      </trkpt>
      <trkpt lat="44.43508" lon="1.33275">
        <ele>250.2</ele>
        <time>2025-03-08T14:14:21Z</time>
      </trkpt>
      <trkpt lat="44.43508" lon="1.33274">
        <ele>250.3</ele>
        <time>2025-03-08T14:14:22Z</time>
      </trkpt>
      <trkpt lat="44.43507" lon="1.33272">
        <ele>250.3</ele>
        <time>2025-03-08T14:14:23Z</time>
      </trkpt>
      <trkpt lat="44.43506" lon="1.3327">
        <ele>250.4</ele>
        <time>2025-03-08T14:14:24Z</time>
      </trkpt>
      <trkpt lat="44.43506" lon="1.33268">
        <ele>250.5</ele>
        <time>2025-03-08T14:14:25Z</time>
      </trkpt>
      <trkpt lat="44.43505" lon="1.33266">
        <ele>250.5</ele>
        <time>2025-03-08T14:14:26Z</time>
      </trkpt>
      <trkpt lat="44.43505" lon="1.33265">
        <ele>250.6</ele>
        <time>2025-03-08T14:14:27Z</time>
      </trkpt>
      <trkpt lat="44.43505" lon="1.33265">
        <ele>250.6</ele>
        <time>2025-03-08T14:14:28Z</time>
      </trkpt>
      <trkpt lat="44.43505" lon="1.33265">
        <ele>250.6</ele>
        <time>2025-03-08T14:14:29Z</time>
      </trkpt>
      <trkpt lat="44.43505" lon="1.33265">
        <ele>250.6</ele>
        <time>2025-03-08T14:14:30Z</time>
      </trkpt>
      <trkpt lat="44.43505" lon="1.33265">
        <ele>250.6</ele>
        <time>2025-03-08T14:14:31Z</time>
      </trkpt>
      <trkpt lat="44.43505" lon="1.33265">
        <ele>250.6</ele>
        <time>2025-03-08T14:14:32Z</time>
      </trkpt>
      <trkpt lat="44.43505" lon="1.33266">
        <ele>250.6</ele>
        <time>2025-03-08T14:14:33Z</time>
      </trkpt>
      <trkpt lat="44.43505" lon="1.33265">
        <ele>250.6</ele>
        <time>2025-03-08T14:14:34Z</time>
      </trkpt>
      <trkpt lat="44.43505" lon="1.33265">
        <ele>250.6</ele>
        <time>2025-03-08T14:14:35Z</time>
      </trkpt>
      <trkpt lat="44.43505" lon="1.33265">
        <ele>250.6</ele>
        <time>2025-03-08T14:14:36Z</time>
      </trkpt>
      <trkpt lat="44.43505" lon="1.33265">
        <ele>250.6</ele>
        <time>2025-03-08T14:14:37Z</time>
      </trkpt>
      <trkpt lat="44.43505" lon="1.33265">
        <ele>250.6</ele>
        <time>2025-03-08T14:14:38Z</time>
      </trkpt>
      <trkpt lat="44.43505" lon="1.33264">
        <ele>250.6</ele>
        <time>2025-03-08T14:14:39Z</time>
      </trkpt>
      <trkpt lat="44.43505" lon="1.33262">
        <ele>250.6</ele>
        <time>2025-03-08T14:14:40Z</time>
      </trkpt>
      <trkpt lat="44.43505" lon="1.33261">
        <ele>250.7</ele>
        <time>2025-03-08T14:14:41Z</time>
      </trkpt>
      <trkpt lat="44.43506" lon="1.3326">
        <ele>250.7</ele>
        <time>2025-03-08T14:14:42Z</time>
      </trkpt>
      <trkpt lat="44.43506" lon="1.3326">
        <ele>250.7</ele>
        <time>2025-03-08T14:14:43Z</time>
      </trkpt>
      <trkpt lat="44.43505" lon="1.3326">
        <ele>250.7</ele>
        <time>2025-03-08T14:14:44Z</time>
      </trkpt>
      <trkpt lat="44.43505" lon="1.3326">
        <ele>250.7</ele>
        <time>2025-03-08T14:14:45Z</time>
      </trkpt>
      <trkpt lat="44.43505" lon="1.3326">
        <ele>250.7</ele>
        <time>2025-03-08T14:14:46Z</time>
      </trkpt>
      <trkpt lat="44.43505" lon="1.3326">
        <ele>250.7</ele>
        <time>2025-03-08T14:14:47Z</time>
      </trkpt>
      <trkpt lat="44.43505" lon="1.3326">
        <ele>250.7</ele>
        <time>2025-03-08T14:14:48Z</time>
      </trkpt>
      <trkpt lat="44.43505" lon="1.3326">
        <ele>250.7</ele>
        <time>2025-03-08T14:14:49Z</time>
      </trkpt>
      <trkpt lat="44.43505" lon="1.3326">
        <ele>250.7</ele>
        <time>2025-03-08T14:14:50Z</time>
      </trkpt>
      <trkpt lat="44.43505" lon="1.3326">
        <ele>250.7</ele>
        <time>2025-03-08T14:14:51Z</time>
      </trkpt>
      <trkpt lat="44.43505" lon="1.3326">
        <ele>250.7</ele>
        <time>2025-03-08T14:14:52Z</time>
      </trkpt>
      <trkpt lat="44.43505" lon="1.3326">
        <ele>250.7</ele>
        <time>2025-03-08T14:14:53Z</time>
      </trkpt>
      <trkpt lat="44.43505" lon="1.3326">
        <ele>250.7</ele>
        <time>2025-03-08T14:14:54Z</time>
      </trkpt>
      <trkpt lat="44.43505" lon="1.3326">
        <ele>250.7</ele>
        <time>2025-03-08T14:14:55Z</time>
      </trkpt>
      <trkpt lat="44.43505" lon="1.3326">
        <ele>250.7</ele>
        <time>2025-03-08T14:14:56Z</time>
      </trkpt>
      <trkpt lat="44.43505" lon="1.3326">
        <ele>250.7</ele>
        <time>2025-03-08T14:14:57Z</time>
      </trkpt>
      <trkpt lat="44.43505" lon="1.3326">
        <ele>250.7</ele>
        <time>2025-03-08T14:14:58Z</time>
      </trkpt>
      <trkpt lat="44.43505" lon="1.3326">
        <ele>250.7</ele>
        <time>2025-03-08T14:14:59Z</time>
      </trkpt>
      <trkpt lat="44.43505" lon="1.3326">
        <ele>250.7</ele>
        <time>2025-03-08T14:15:00Z</time>
      </trkpt>
      <trkpt lat="44.43505" lon="1.3326">
        <ele>250.7</ele>
        <time>2025-03-08T14:15:01Z</time>
      </trkpt>
      <trkpt lat="44.43505" lon="1.3326">
        <ele>250.7</ele>
        <time>2025-03-08T14:15:02Z</time>
      </trkpt>
      <trkpt lat="44.43504" lon="1.3326">
        <ele>250.7</ele>
        <time>2025-03-08T14:15:03Z</time>
      </trkpt>
      <trkpt lat="44.43504" lon="1.3326">
        <ele>250.7</ele>
        <time>2025-03-08T14:15:04Z</time>
      </trkpt>
      <trkpt lat="44.43504" lon="1.3326">
        <ele>250.7</ele>
        <time>2025-03-08T14:15:05Z</time>
      </trkpt>
      <trkpt lat="44.43504" lon="1.3326">
        <ele>250.7</ele>
        <time>2025-03-08T14:15:06Z</time>
      </trkpt>
      <trkpt lat="44.43504" lon="1.3326">
        <ele>250.7</ele>
        <time>2025-03-08T14:15:07Z</time>
      </trkpt>
      <trkpt lat="44.43504" lon="1.3326">
        <ele>250.7</ele>
        <time>2025-03-08T14:15:08Z</time>
      </trkpt>
      <trkpt lat="44.43504" lon="1.3326">
        <ele>250.7</ele>
        <time>2025-03-08T14:15:09Z</time>
      </trkpt>
      <trkpt lat="44.43504" lon="1.3326">
        <ele>250.7</ele>
        <time>2025-03-08T14:15:10Z</time>
      </trkpt>
      <trkpt lat="44.43504" lon="1.3326">
        <ele>250.7</ele>
        <time>2025-03-08T14:15:11Z</time>
      </trkpt>
      <trkpt lat="44.43504" lon="1.3326">
        <ele>250.7</ele>
        <time>2025-03-08T14:15:12Z</time>
      </trkpt>
      <trkpt lat="44.43504" lon="1.3326">
        <ele>250.7</ele>
        <time>2025-03-08T14:15:13Z</time>
      </trkpt>
      <trkpt lat="44.43504" lon="1.3326">
        <ele>250.7</ele>
        <time>2025-03-08T14:15:14Z</time>
      </trkpt>
      <trkpt lat="44.43504" lon="1.3326">
        <ele>250.7</ele>
        <time>2025-03-08T14:15:15Z</time>
      </trkpt>
      <trkpt lat="44.43504" lon="1.3326">
        <ele>250.7</ele>
        <time>2025-03-08T14:15:16Z</time>
      </trkpt>
      <trkpt lat="44.43504" lon="1.3326">
        <ele>250.7</ele>
        <time>2025-03-08T14:15:17Z</time>
      </trkpt>
      <trkpt lat="44.43504" lon="1.3326">
        <ele>250.7</ele>
        <time>2025-03-08T14:15:18Z</time>
      </trkpt>
      <trkpt lat="44.43504" lon="1.3326">
        <ele>250.7</ele>
        <time>2025-03-08T14:15:19Z</time>
      </trkpt>
      <trkpt lat="44.43504" lon="1.3326">
        <ele>250.7</ele>
        <time>2025-03-08T14:15:20Z</time>
      </trkpt>
      <trkpt lat="44.43504" lon="1.3326">
        <ele>250.7</ele>
        <time>2025-03-08T14:15:21Z</time>
      </trkpt>
      <trkpt lat="44.43503" lon="1.3326">
        <ele>250.7</ele>
        <time>2025-03-08T14:15:22Z</time>
      </trkpt>
      <trkpt lat="44.43503" lon="1.3326">
        <ele>250.7</ele>
        <time>2025-03-08T14:15:23Z</time>
      </trkpt>
      <trkpt lat="44.43503" lon="1.3326">
        <ele>250.7</ele>
        <time>2025-03-08T14:15:24Z</time>
      </trkpt>
      <trkpt lat="44.43503" lon="1.3326">
        <ele>250.7</ele>
        <time>2025-03-08T14:15:25Z</time>
      </trkpt>
      <trkpt lat="44.43503" lon="1.3326">
        <ele>250.7</ele>
        <time>2025-03-08T14:15:26Z</time>
      </trkpt>
      <trkpt lat="44.43503" lon="1.3326">
        <ele>250.7</ele>
        <time>2025-03-08T14:15:27Z</time>
      </trkpt>
      <trkpt lat="44.43503" lon="1.3326">
        <ele>250.7</ele>
        <time>2025-03-08T14:15:28Z</time>
      </trkpt>
      <trkpt lat="44.43503" lon="1.3326">
        <ele>250.7</ele>
        <time>2025-03-08T14:15:29Z</time>
      </trkpt>
      <trkpt lat="44.43503" lon="1.3326">
        <ele>250.7</ele>
        <time>2025-03-08T14:15:30Z</time>
      </trkpt>
      <trkpt lat="44.43503" lon="1.3326">
        <ele>250.7</ele>
        <time>2025-03-08T14:15:31Z</time>
      </trkpt>
      <trkpt lat="44.43503" lon="1.3326">
        <ele>250.7</ele>
        <time>2025-03-08T14:15:32Z</time>
      </trkpt>
      <trkpt lat="44.43503" lon="1.3326">
        <ele>250.7</ele>
        <time>2025-03-08T14:15:33Z</time>
      </trkpt>
      <trkpt lat="44.43503" lon="1.3326">
        <ele>250.7</ele>
        <time>2025-03-08T14:15:34Z</time>
      </trkpt>
      <trkpt lat="44.43503" lon="1.3326">
        <ele>250.7</ele>
        <time>2025-03-08T14:15:35Z</time>
      </trkpt>
      <trkpt lat="44.43503" lon="1.3326">
        <ele>250.7</ele>
        <time>2025-03-08T14:15:36Z</time>
      </trkpt>
      <trkpt lat="44.43503" lon="1.3326">
        <ele>250.7</ele>
        <time>2025-03-08T14:15:37Z</time>
      </trkpt>
      <trkpt lat="44.43503" lon="1.3326">
        <ele>250.7</ele>
        <time>2025-03-08T14:15:38Z</time>
      </trkpt>
      <trkpt lat="44.43503" lon="1.3326">
        <ele>250.7</ele>
        <time>2025-03-08T14:15:39Z</time>
      </trkpt>
      <trkpt lat="44.43503" lon="1.3326">
        <ele>250.7</ele>
        <time>2025-03-08T14:15:40Z</time>
      </trkpt>
      <trkpt lat="44.43502" lon="1.3326">
        <ele>250.7</ele>
        <time>2025-03-08T14:15:41Z</time>
      </trkpt>
      <trkpt lat="44.43502" lon="1.3326">
        <ele>250.7</ele>
        <time>2025-03-08T14:15:42Z</time>
      </trkpt>
      <trkpt lat="44.43502" lon="1.3326">
        <ele>250.7</ele>
        <time>2025-03-08T14:15:43Z</time>
      </trkpt>
      <trkpt lat="44.43502" lon="1.3326">
        <ele>250.7</ele>
        <time>2025-03-08T14:15:44Z</time>
      </trkpt>
      <trkpt lat="44.43502" lon="1.3326">
        <ele>250.7</ele>
        <time>2025-03-08T14:15:45Z</time>
      </trkpt>
      <trkpt lat="44.43502" lon="1.3326">
        <ele>250.7</ele>
        <time>2025-03-08T14:15:46Z</time>
      </trkpt>
      <trkpt lat="44.43502" lon="1.3326">
        <ele>250.7</ele>
        <time>2025-03-08T14:15:47Z</time>
      </trkpt>
      <trkpt lat="44.43502" lon="1.3326">
        <ele>250.7</ele>
        <time>2025-03-08T14:15:48Z</time>
      </trkpt>
      <trkpt lat="44.43502" lon="1.3326">
        <ele>250.7</ele>
        <time>2025-03-08T14:15:49Z</time>
      </trkpt>
      <trkpt lat="44.43502" lon="1.3326">
        <ele>250.7</ele>
        <time>2025-03-08T14:15:50Z</time>
      </trkpt>
      <trkpt lat="44.43502" lon="1.3326">
        <ele>250.7</ele>
        <time>2025-03-08T14:15:51Z</time>
      </trkpt>
      <trkpt lat="44.43502" lon="1.3326">
        <ele>250.7</ele>
        <time>2025-03-08T14:15:52Z</time>
      </trkpt>
      <trkpt lat="44.43502" lon="1.3326">
        <ele>250.7</ele>
        <time>2025-03-08T14:15:53Z</time>
      </trkpt>
      <trkpt lat="44.43502" lon="1.3326">
        <ele>250.7</ele>
        <time>2025-03-08T14:15:54Z</time>
      </trkpt>
      <trkpt lat="44.43502" lon="1.3326">
        <ele>250.7</ele>
        <time>2025-03-08T14:15:55Z</time>
      </trkpt>
      <trkpt lat="44.435" lon="1.33259">
        <ele>250.7</ele>
        <time>2025-03-08T14:15:56Z</time>
      </trkpt>
      <trkpt lat="44.435" lon="1.33259">
        <ele>250.6</ele>
        <time>2025-03-08T14:15:57Z</time>
      </trkpt>
      <trkpt lat="44.43499" lon="1.33259">
        <ele>250.6</ele>
        <time>2025-03-08T14:15:58Z</time>
      </trkpt>
      <trkpt lat="44.43497" lon="1.33258">
        <ele>250.6</ele>
        <time>2025-03-08T14:15:59Z</time>
      </trkpt>
      <trkpt lat="44.43496" lon="1.33257">
        <ele>250.5</ele>
        <time>2025-03-08T14:16:00Z</time>
      </trkpt>
      <trkpt lat="44.43495" lon="1.33257">
        <ele>250.5</ele>
        <time>2025-03-08T14:16:01Z</time>
      </trkpt>
      <trkpt lat="44.43494" lon="1.33257">
        <ele>250.5</ele>
        <time>2025-03-08T14:16:02Z</time>
      </trkpt>
      <trkpt lat="44.43492" lon="1.33257">
        <ele>250.4</ele>
        <time>2025-03-08T14:16:03Z</time>
      </trkpt>
      <trkpt lat="44.43491" lon="1.33257">
        <ele>250.3</ele>
        <time>2025-03-08T14:16:04Z</time>
      </trkpt>
      <trkpt lat="44.43489" lon="1.33257">
        <ele>250.2</ele>
        <time>2025-03-08T14:16:05Z</time>
      </trkpt>
      <trkpt lat="44.43486" lon="1.33257">
        <ele>249.8</ele>
        <time>2025-03-08T14:16:06Z</time>
      </trkpt>
      <trkpt lat="44.43484" lon="1.33257">
        <ele>249.7</ele>
        <time>2025-03-08T14:16:07Z</time>
      </trkpt>
      <trkpt lat="44.43482" lon="1.33258">
        <ele>249.4</ele>
        <time>2025-03-08T14:16:08Z</time>
      </trkpt>
      <trkpt lat="44.43481" lon="1.33258">
        <ele>249.2</ele>
        <time>2025-03-08T14:16:09Z</time>
      </trkpt>
      <trkpt lat="44.43477" lon="1.33258">
        <ele>248.7</ele>
        <time>2025-03-08T14:16:10Z</time>
      </trkpt>
      <trkpt lat="44.43476" lon="1.33258">
        <ele>248.6</ele>
        <time>2025-03-08T14:16:11Z</time>
      </trkpt>
      <trkpt lat="44.43473" lon="1.33259">
        <ele>248.1</ele>
        <time>2025-03-08T14:16:12Z</time>
      </trkpt>
      <trkpt lat="44.43472" lon="1.33259">
        <ele>247.9</ele>
        <time>2025-03-08T14:16:13Z</time>
      </trkpt>
      <trkpt lat="44.43469" lon="1.33259">
        <ele>247.3</ele>
        <time>2025-03-08T14:16:14Z</time>
      </trkpt>
      <trkpt lat="44.43465" lon="1.33259">
        <ele>246.7</ele>
        <time>2025-03-08T14:16:15Z</time>
      </trkpt>
      <trkpt lat="44.43461" lon="1.3326">
        <ele>245.9</ele>
        <time>2025-03-08T14:16:16Z</time>
      </trkpt>
      <trkpt lat="44.43458" lon="1.3326">
        <ele>245.3</ele>
        <time>2025-03-08T14:16:17Z</time>
      </trkpt>
      <trkpt lat="44.43454" lon="1.3326">
        <ele>244.6</ele>
        <time>2025-03-08T14:16:18Z</time>
      </trkpt>
      <trkpt lat="44.4345" lon="1.3326">
        <ele>244</ele>
        <time>2025-03-08T14:16:19Z</time>
      </trkpt>
      <trkpt lat="44.43447" lon="1.3326">
        <ele>243.5</ele>
        <time>2025-03-08T14:16:20Z</time>
      </trkpt>
      <trkpt lat="44.43443" lon="1.33261">
        <ele>243</ele>
        <time>2025-03-08T14:16:21Z</time>
      </trkpt>
      <trkpt lat="44.4344" lon="1.33261">
        <ele>242.6</ele>
        <time>2025-03-08T14:16:22Z</time>
      </trkpt>
      <trkpt lat="44.43439" lon="1.33261">
        <ele>242.5</ele>
        <time>2025-03-08T14:16:23Z</time>
      </trkpt>
      <trkpt lat="44.43436" lon="1.33262">
        <ele>242.1</ele>
        <time>2025-03-08T14:16:24Z</time>
      </trkpt>
      <trkpt lat="44.43435" lon="1.33262">
        <ele>242</ele>
        <time>2025-03-08T14:16:25Z</time>
      </trkpt>
      <trkpt lat="44.43432" lon="1.33263">
        <ele>241.7</ele>
        <time>2025-03-08T14:16:26Z</time>
      </trkpt>
      <trkpt lat="44.43431" lon="1.33263">
        <ele>241.5</ele>
        <time>2025-03-08T14:16:27Z</time>
      </trkpt>
      <trkpt lat="44.43427" lon="1.33264">
        <ele>241.2</ele>
        <time>2025-03-08T14:16:28Z</time>
      </trkpt>
      <trkpt lat="44.43426" lon="1.33265">
        <ele>241.1</ele>
        <time>2025-03-08T14:16:29Z</time>
      </trkpt>
      <trkpt lat="44.43423" lon="1.33266">
        <ele>240.8</ele>
        <time>2025-03-08T14:16:30Z</time>
      </trkpt>
      <trkpt lat="44.43421" lon="1.33267">
        <ele>240.6</ele>
        <time>2025-03-08T14:16:31Z</time>
      </trkpt>
      <trkpt lat="44.43418" lon="1.33267">
        <ele>240.3</ele>
        <time>2025-03-08T14:16:32Z</time>
      </trkpt>
      <trkpt lat="44.43415" lon="1.33268">
        <ele>240</ele>
        <time>2025-03-08T14:16:33Z</time>
      </trkpt>
      <trkpt lat="44.43411" lon="1.33268">
        <ele>239.7</ele>
        <time>2025-03-08T14:16:34Z</time>
      </trkpt>
      <trkpt lat="44.4341" lon="1.33268">
        <ele>239.6</ele>
        <time>2025-03-08T14:16:35Z</time>
      </trkpt>
      <trkpt lat="44.43406" lon="1.33268">
        <ele>239.2</ele>
        <time>2025-03-08T14:16:36Z</time>
      </trkpt>
      <trkpt lat="44.43405" lon="1.33268">
        <ele>239.1</ele>
        <time>2025-03-08T14:16:37Z</time>
      </trkpt>
      <trkpt lat="44.43401" lon="1.33269">
        <ele>238.7</ele>
        <time>2025-03-08T14:16:38Z</time>
      </trkpt>
      <trkpt lat="44.43396" lon="1.33272">
        <ele>238.3</ele>
        <time>2025-03-08T14:16:39Z</time>
      </trkpt>
      <trkpt lat="44.43391" lon="1.33275">
        <ele>238</ele>
        <time>2025-03-08T14:16:40Z</time>
      </trkpt>
      <trkpt lat="44.43387" lon="1.33276">
        <ele>238</ele>
        <time>2025-03-08T14:16:41Z</time>
      </trkpt>
      <trkpt lat="44.43383" lon="1.33274">
        <ele>238.1</ele>
        <time>2025-03-08T14:16:42Z</time>
      </trkpt>
      <trkpt lat="44.4338" lon="1.33271">
        <ele>238.2</ele>
        <time>2025-03-08T14:16:43Z</time>
      </trkpt>
      <trkpt lat="44.43379" lon="1.3327">
        <ele>238.3</ele>
        <time>2025-03-08T14:16:44Z</time>
      </trkpt>
      <trkpt lat="44.43377" lon="1.33266">
        <ele>238.4</ele>
        <time>2025-03-08T14:16:45Z</time>
      </trkpt>
      <trkpt lat="44.43376" lon="1.33265">
        <ele>238.5</ele>
        <time>2025-03-08T14:16:46Z</time>
      </trkpt>
      <trkpt lat="44.43374" lon="1.33262">
        <ele>238.7</ele>
        <time>2025-03-08T14:16:47Z</time>
      </trkpt>
      <trkpt lat="44.43373" lon="1.3326">
        <ele>238.8</ele>
        <time>2025-03-08T14:16:48Z</time>
      </trkpt>
      <trkpt lat="44.43371" lon="1.33257">
        <ele>239</ele>
        <time>2025-03-08T14:16:49Z</time>
      </trkpt>
      <trkpt lat="44.43369" lon="1.33254">
        <ele>239.3</ele>
        <time>2025-03-08T14:16:50Z</time>
      </trkpt>
      <trkpt lat="44.43367" lon="1.33251">
        <ele>239.5</ele>
        <time>2025-03-08T14:16:51Z</time>
      </trkpt>
      <trkpt lat="44.43364" lon="1.33249">
        <ele>239.8</ele>
        <time>2025-03-08T14:16:52Z</time>
      </trkpt>
      <trkpt lat="44.43362" lon="1.33246">
        <ele>240</ele>
        <time>2025-03-08T14:16:53Z</time>
      </trkpt>
      <trkpt lat="44.4336" lon="1.33243">
        <ele>240.3</ele>
        <time>2025-03-08T14:16:54Z</time>
      </trkpt>
      <trkpt lat="44.43358" lon="1.3324">
        <ele>240.6</ele>
        <time>2025-03-08T14:16:55Z</time>
      </trkpt>
      <trkpt lat="44.43356" lon="1.33238">
        <ele>240.9</ele>
        <time>2025-03-08T14:16:56Z</time>
      </trkpt>
      <trkpt lat="44.43353" lon="1.33235">
        <ele>241.2</ele>
        <time>2025-03-08T14:16:57Z</time>
      </trkpt>
      <trkpt lat="44.43351" lon="1.33233">
        <ele>241.4</ele>
        <time>2025-03-08T14:16:58Z</time>
      </trkpt>
      <trkpt lat="44.43349" lon="1.33231">
        <ele>241.7</ele>
        <time>2025-03-08T14:16:59Z</time>
      </trkpt>
      <trkpt lat="44.43347" lon="1.33228">
        <ele>242</ele>
        <time>2025-03-08T14:17:00Z</time>
      </trkpt>
      <trkpt lat="44.43345" lon="1.33225">
        <ele>242.3</ele>
        <time>2025-03-08T14:17:01Z</time>
      </trkpt>
      <trkpt lat="44.43343" lon="1.33222">
        <ele>242.6</ele>
        <time>2025-03-08T14:17:02Z</time>
      </trkpt>
      <trkpt lat="44.43341" lon="1.33219">
        <ele>242.9</ele>
        <time>2025-03-08T14:17:03Z</time>
      </trkpt>
      <trkpt lat="44.43339" lon="1.33216">
        <ele>243.3</ele>
        <time>2025-03-08T14:17:04Z</time>
      </trkpt>
      <trkpt lat="44.43336" lon="1.33213">
        <ele>243.6</ele>
        <time>2025-03-08T14:17:05Z</time>
      </trkpt>
      <trkpt lat="44.43334" lon="1.3321">
        <ele>244</ele>
        <time>2025-03-08T14:17:06Z</time>
      </trkpt>
      <trkpt lat="44.43332" lon="1.33206">
        <ele>244.4</ele>
        <time>2025-03-08T14:17:07Z</time>
      </trkpt>
      <trkpt lat="44.43331" lon="1.33205">
        <ele>244.6</ele>
        <time>2025-03-08T14:17:08Z</time>
      </trkpt>
      <trkpt lat="44.43329" lon="1.33202">
        <ele>244.9</ele>
        <time>2025-03-08T14:17:09Z</time>
      </trkpt>
      <trkpt lat="44.43326" lon="1.33198">
        <ele>245.3</ele>
        <time>2025-03-08T14:17:10Z</time>
      </trkpt>
      <trkpt lat="44.43325" lon="1.33197">
        <ele>245.5</ele>
        <time>2025-03-08T14:17:11Z</time>
      </trkpt>
      <trkpt lat="44.43323" lon="1.33194">
        <ele>245.8</ele>
        <time>2025-03-08T14:17:12Z</time>
      </trkpt>
      <trkpt lat="44.43321" lon="1.33191">
        <ele>246.1</ele>
        <time>2025-03-08T14:17:13Z</time>
      </trkpt>
      <trkpt lat="44.43319" lon="1.33189">
        <ele>246.5</ele>
        <time>2025-03-08T14:17:14Z</time>
      </trkpt>
      <trkpt lat="44.43317" lon="1.33186">
        <ele>246.8</ele>
        <time>2025-03-08T14:17:15Z</time>
      </trkpt>
      <trkpt lat="44.43315" lon="1.33182">
        <ele>247.2</ele>
        <time>2025-03-08T14:17:16Z</time>
      </trkpt>
      <trkpt lat="44.43313" lon="1.33179">
        <ele>247.5</ele>
        <time>2025-03-08T14:17:17Z</time>
      </trkpt>
      <trkpt lat="44.43311" lon="1.33176">
        <ele>247.8</ele>
        <time>2025-03-08T14:17:18Z</time>
      </trkpt>
      <trkpt lat="44.43309" lon="1.33172">
        <ele>248.2</ele>
        <time>2025-03-08T14:17:19Z</time>
      </trkpt>
      <trkpt lat="44.43308" lon="1.33171">
        <ele>248.4</ele>
        <time>2025-03-08T14:17:20Z</time>
      </trkpt>
      <trkpt lat="44.43306" lon="1.33168">
        <ele>248.7</ele>
        <time>2025-03-08T14:17:21Z</time>
      </trkpt>
      <trkpt lat="44.43304" lon="1.33166">
        <ele>249</ele>
        <time>2025-03-08T14:17:22Z</time>
      </trkpt>
      <trkpt lat="44.43301" lon="1.33162">
        <ele>249.4</ele>
        <time>2025-03-08T14:17:23Z</time>
      </trkpt>
      <trkpt lat="44.433" lon="1.3316">
        <ele>249.5</ele>
        <time>2025-03-08T14:17:24Z</time>
      </trkpt>
      <trkpt lat="44.43298" lon="1.33158">
        <ele>249.8</ele>
        <time>2025-03-08T14:17:25Z</time>
      </trkpt>
      <trkpt lat="44.43296" lon="1.33155">
        <ele>250.1</ele>
        <time>2025-03-08T14:17:26Z</time>
      </trkpt>
      <trkpt lat="44.43294" lon="1.33153">
        <ele>250.4</ele>
        <time>2025-03-08T14:17:27Z</time>
      </trkpt>
      <trkpt lat="44.43291" lon="1.3315">
        <ele>250.7</ele>
        <time>2025-03-08T14:17:28Z</time>
      </trkpt>
      <trkpt lat="44.43291" lon="1.33149">
        <ele>250.8</ele>
        <time>2025-03-08T14:17:29Z</time>
      </trkpt>
      <trkpt lat="44.43288" lon="1.33147">
        <ele>251.1</ele>
        <time>2025-03-08T14:17:30Z</time>
      </trkpt>
      <trkpt lat="44.43286" lon="1.33144">
        <ele>251.4</ele>
        <time>2025-03-08T14:17:31Z</time>
      </trkpt>
      <trkpt lat="44.43283" lon="1.33142">
        <ele>251.7</ele>
        <time>2025-03-08T14:17:32Z</time>
      </trkpt>
      <trkpt lat="44.4328" lon="1.33139">
        <ele>252.1</ele>
        <time>2025-03-08T14:17:33Z</time>
      </trkpt>
      <trkpt lat="44.43279" lon="1.33138">
        <ele>252.2</ele>
        <time>2025-03-08T14:17:34Z</time>
      </trkpt>
      <trkpt lat="44.43276" lon="1.33135">
        <ele>252.5</ele>
        <time>2025-03-08T14:17:35Z</time>
      </trkpt>
      <trkpt lat="44.43275" lon="1.33134">
        <ele>252.6</ele>
        <time>2025-03-08T14:17:36Z</time>
      </trkpt>
      <trkpt lat="44.43272" lon="1.3313">
        <ele>253</ele>
        <time>2025-03-08T14:17:37Z</time>
      </trkpt>
      <trkpt lat="44.4327" lon="1.33129">
        <ele>253.1</ele>
        <time>2025-03-08T14:17:38Z</time>
      </trkpt>
      <trkpt lat="44.43267" lon="1.33126">
        <ele>253.4</ele>
        <time>2025-03-08T14:17:39Z</time>
      </trkpt>
      <trkpt lat="44.43264" lon="1.33124">
        <ele>253.7</ele>
        <time>2025-03-08T14:17:40Z</time>
      </trkpt>
      <trkpt lat="44.43261" lon="1.33121">
        <ele>253.9</ele>
        <time>2025-03-08T14:17:41Z</time>
      </trkpt>
      <trkpt lat="44.43258" lon="1.33118">
        <ele>254.2</ele>
        <time>2025-03-08T14:17:42Z</time>
      </trkpt>
      <trkpt lat="44.43257" lon="1.33117">
        <ele>254.3</ele>
        <time>2025-03-08T14:17:43Z</time>
      </trkpt>
      <trkpt lat="44.43255" lon="1.33115">
        <ele>254.5</ele>
        <time>2025-03-08T14:17:44Z</time>
      </trkpt>
      <trkpt lat="44.43253" lon="1.33112">
        <ele>254.8</ele>
        <time>2025-03-08T14:17:45Z</time>
      </trkpt>
      <trkpt lat="44.43251" lon="1.3311">
        <ele>255</ele>
        <time>2025-03-08T14:17:46Z</time>
      </trkpt>
      <trkpt lat="44.43248" lon="1.33106">
        <ele>255.4</ele>
        <time>2025-03-08T14:17:47Z</time>
      </trkpt>
      <trkpt lat="44.43247" lon="1.33105">
        <ele>255.5</ele>
        <time>2025-03-08T14:17:48Z</time>
      </trkpt>
      <trkpt lat="44.43244" lon="1.33102">
        <ele>255.9</ele>
        <time>2025-03-08T14:17:49Z</time>
      </trkpt>
      <trkpt lat="44.43243" lon="1.33101">
        <ele>256</ele>
        <time>2025-03-08T14:17:50Z</time>
      </trkpt>
      <trkpt lat="44.43241" lon="1.33099">
        <ele>256.2</ele>
        <time>2025-03-08T14:17:51Z</time>
      </trkpt>
      <trkpt lat="44.43238" lon="1.33097">
        <ele>256.5</ele>
        <time>2025-03-08T14:17:52Z</time>
      </trkpt>
      <trkpt lat="44.43236" lon="1.33094">
        <ele>256.8</ele>
        <time>2025-03-08T14:17:53Z</time>
      </trkpt>
      <trkpt lat="44.43234" lon="1.33091">
        <ele>257.2</ele>
        <time>2025-03-08T14:17:54Z</time>
      </trkpt>
      <trkpt lat="44.43233" lon="1.3309">
        <ele>256.9</ele>
        <time>2025-03-08T14:17:55Z</time>
      </trkpt>
      <trkpt lat="44.43231" lon="1.33085">
        <ele>257.2</ele>
        <time>2025-03-08T14:17:56Z</time>
      </trkpt>
      <trkpt lat="44.4323" lon="1.33084">
        <ele>257.2</ele>
        <time>2025-03-08T14:17:57Z</time>
      </trkpt>
      <trkpt lat="44.43228" lon="1.33081">
        <ele>257.3</ele>
        <time>2025-03-08T14:17:58Z</time>
      </trkpt>
      <trkpt lat="44.43226" lon="1.33078">
        <ele>257.3</ele>
        <time>2025-03-08T14:17:59Z</time>
      </trkpt>
      <trkpt lat="44.43225" lon="1.33075">
        <ele>257.4</ele>
        <time>2025-03-08T14:18:00Z</time>
      </trkpt>
      <trkpt lat="44.43223" lon="1.33071">
        <ele>257.7</ele>
        <time>2025-03-08T14:18:01Z</time>
      </trkpt>
      <trkpt lat="44.4322" lon="1.33067">
        <ele>257.8</ele>
        <time>2025-03-08T14:18:02Z</time>
      </trkpt>
      <trkpt lat="44.43219" lon="1.33066">
        <ele>257.9</ele>
        <time>2025-03-08T14:18:03Z</time>
      </trkpt>
      <trkpt lat="44.43217" lon="1.33062">
        <ele>258</ele>
        <time>2025-03-08T14:18:04Z</time>
      </trkpt>
      <trkpt lat="44.43216" lon="1.33061">
        <ele>258</ele>
        <time>2025-03-08T14:18:05Z</time>
      </trkpt>
      <trkpt lat="44.43214" lon="1.33057">
        <ele>258.2</ele>
        <time>2025-03-08T14:18:06Z</time>
      </trkpt>
      <trkpt lat="44.43213" lon="1.33054">
        <ele>258.5</ele>
        <time>2025-03-08T14:18:07Z</time>
      </trkpt>
      <trkpt lat="44.4321" lon="1.3305">
        <ele>258.9</ele>
        <time>2025-03-08T14:18:08Z</time>
      </trkpt>
      <trkpt lat="44.4321" lon="1.33049">
        <ele>258.9</ele>
        <time>2025-03-08T14:18:09Z</time>
      </trkpt>
      <trkpt lat="44.43207" lon="1.33045">
        <ele>259.2</ele>
        <time>2025-03-08T14:18:10Z</time>
      </trkpt>
      <trkpt lat="44.43207" lon="1.33043">
        <ele>259.2</ele>
        <time>2025-03-08T14:18:11Z</time>
      </trkpt>
      <trkpt lat="44.43204" lon="1.33039">
        <ele>259.5</ele>
        <time>2025-03-08T14:18:12Z</time>
      </trkpt>
      <trkpt lat="44.43204" lon="1.33038">
        <ele>259.5</ele>
        <time>2025-03-08T14:18:13Z</time>
      </trkpt>
      <trkpt lat="44.43201" lon="1.33034">
        <ele>259.8</ele>
        <time>2025-03-08T14:18:14Z</time>
      </trkpt>
      <trkpt lat="44.43201" lon="1.33033">
        <ele>260.2</ele>
        <time>2025-03-08T14:18:15Z</time>
      </trkpt>
      <trkpt lat="44.43199" lon="1.33029">
        <ele>260.1</ele>
        <time>2025-03-08T14:18:16Z</time>
      </trkpt>
      <trkpt lat="44.43198" lon="1.33026">
        <ele>260.4</ele>
        <time>2025-03-08T14:18:17Z</time>
      </trkpt>
      <trkpt lat="44.43196" lon="1.33022">
        <ele>260.7</ele>
        <time>2025-03-08T14:18:18Z</time>
      </trkpt>
      <trkpt lat="44.43195" lon="1.3302">
        <ele>261</ele>
        <time>2025-03-08T14:18:19Z</time>
      </trkpt>
      <trkpt lat="44.43192" lon="1.33016">
        <ele>261.2</ele>
        <time>2025-03-08T14:18:20Z</time>
      </trkpt>
      <trkpt lat="44.43191" lon="1.33014">
        <ele>261.2</ele>
        <time>2025-03-08T14:18:21Z</time>
      </trkpt>
      <trkpt lat="44.43189" lon="1.33011">
        <ele>261.4</ele>
        <time>2025-03-08T14:18:22Z</time>
      </trkpt>
      <trkpt lat="44.43188" lon="1.3301">
        <ele>261.3</ele>
        <time>2025-03-08T14:18:23Z</time>
      </trkpt>
      <trkpt lat="44.43185" lon="1.33006">
        <ele>261.4</ele>
        <time>2025-03-08T14:18:24Z</time>
      </trkpt>
      <trkpt lat="44.43184" lon="1.33005">
        <ele>261.5</ele>
        <time>2025-03-08T14:18:25Z</time>
      </trkpt>
      <trkpt lat="44.43181" lon="1.33002">
        <ele>261.6</ele>
        <time>2025-03-08T14:18:26Z</time>
      </trkpt>
      <trkpt lat="44.43178" lon="1.32999">
        <ele>261.7</ele>
        <time>2025-03-08T14:18:27Z</time>
      </trkpt>
      <trkpt lat="44.43177" lon="1.32998">
        <ele>261.8</ele>
        <time>2025-03-08T14:18:28Z</time>
      </trkpt>
      <trkpt lat="44.43175" lon="1.32994">
        <ele>261.8</ele>
        <time>2025-03-08T14:18:29Z</time>
      </trkpt>
      <trkpt lat="44.43174" lon="1.32993">
        <ele>261.9</ele>
        <time>2025-03-08T14:18:30Z</time>
      </trkpt>
      <trkpt lat="44.43172" lon="1.32989">
        <ele>261.9</ele>
        <time>2025-03-08T14:18:31Z</time>
      </trkpt>
      <trkpt lat="44.43171" lon="1.32988">
        <ele>261.9</ele>
        <time>2025-03-08T14:18:32Z</time>
      </trkpt>
      <trkpt lat="44.43169" lon="1.32984">
        <ele>262</ele>
        <time>2025-03-08T14:18:33Z</time>
      </trkpt>
      <trkpt lat="44.43168" lon="1.32983">
        <ele>262</ele>
        <time>2025-03-08T14:18:34Z</time>
      </trkpt>
      <trkpt lat="44.43166" lon="1.32979">
        <ele>262.1</ele>
        <time>2025-03-08T14:18:35Z</time>
      </trkpt>
      <trkpt lat="44.43165" lon="1.32978">
        <ele>262.1</ele>
        <time>2025-03-08T14:18:36Z</time>
      </trkpt>
      <trkpt lat="44.43162" lon="1.32975">
        <ele>262.3</ele>
        <time>2025-03-08T14:18:37Z</time>
      </trkpt>
      <trkpt lat="44.43161" lon="1.32974">
        <ele>262.3</ele>
        <time>2025-03-08T14:18:38Z</time>
      </trkpt>
      <trkpt lat="44.43158" lon="1.32973">
        <ele>262.5</ele>
        <time>2025-03-08T14:18:39Z</time>
      </trkpt>
      <trkpt lat="44.43157" lon="1.32973">
        <ele>262.5</ele>
        <time>2025-03-08T14:18:40Z</time>
      </trkpt>
      <trkpt lat="44.43155" lon="1.3297">
        <ele>262.6</ele>
        <time>2025-03-08T14:18:41Z</time>
      </trkpt>
      <trkpt lat="44.43154" lon="1.3297">
        <ele>262.6</ele>
        <time>2025-03-08T14:18:42Z</time>
      </trkpt>
      <trkpt lat="44.43151" lon="1.32966">
        <ele>262.8</ele>
        <time>2025-03-08T14:18:43Z</time>
      </trkpt>
      <trkpt lat="44.43151" lon="1.32965">
        <ele>262.9</ele>
        <time>2025-03-08T14:18:44Z</time>
      </trkpt>
      <trkpt lat="44.4315" lon="1.32963">
        <ele>263.1</ele>
        <time>2025-03-08T14:18:45Z</time>
      </trkpt>
      <trkpt lat="44.4315" lon="1.32961">
        <ele>263.1</ele>
        <time>2025-03-08T14:18:46Z</time>
      </trkpt>
      <trkpt lat="44.4315" lon="1.32959">
        <ele>263.4</ele>
        <time>2025-03-08T14:18:47Z</time>
      </trkpt>
      <trkpt lat="44.43151" lon="1.32956">
        <ele>263.4</ele>
        <time>2025-03-08T14:18:48Z</time>
      </trkpt>
      <trkpt lat="44.43152" lon="1.32954">
        <ele>263.7</ele>
        <time>2025-03-08T14:18:49Z</time>
      </trkpt>
      <trkpt lat="44.43152" lon="1.32953">
        <ele>263.7</ele>
        <time>2025-03-08T14:18:50Z</time>
      </trkpt>
      <trkpt lat="44.43153" lon="1.32952">
        <ele>264</ele>
        <time>2025-03-08T14:18:51Z</time>
      </trkpt>
      <trkpt lat="44.43153" lon="1.32948">
        <ele>264</ele>
        <time>2025-03-08T14:18:52Z</time>
      </trkpt>
      <trkpt lat="44.43153" lon="1.32947">
        <ele>264.3</ele>
        <time>2025-03-08T14:18:53Z</time>
      </trkpt>
      <trkpt lat="44.43154" lon="1.32942">
        <ele>264.5</ele>
        <time>2025-03-08T14:18:54Z</time>
      </trkpt>
      <trkpt lat="44.43155" lon="1.32937">
        <ele>264.8</ele>
        <time>2025-03-08T14:18:55Z</time>
      </trkpt>
      <trkpt lat="44.43155" lon="1.32936">
        <ele>264.8</ele>
        <time>2025-03-08T14:18:56Z</time>
      </trkpt>
      <trkpt lat="44.43155" lon="1.32934">
        <ele>265.3</ele>
        <time>2025-03-08T14:18:57Z</time>
      </trkpt>
      <trkpt lat="44.43156" lon="1.32931">
        <ele>265.3</ele>
        <time>2025-03-08T14:18:58Z</time>
      </trkpt>
      <trkpt lat="44.43156" lon="1.32929">
        <ele>265.7</ele>
        <time>2025-03-08T14:18:59Z</time>
      </trkpt>
      <trkpt lat="44.43157" lon="1.32927">
        <ele>265.7</ele>
        <time>2025-03-08T14:19:00Z</time>
      </trkpt>
      <trkpt lat="44.43157" lon="1.32923">
        <ele>266.1</ele>
        <time>2025-03-08T14:19:01Z</time>
      </trkpt>
      <trkpt lat="44.43158" lon="1.32922">
        <ele>266.1</ele>
        <time>2025-03-08T14:19:02Z</time>
      </trkpt>
      <trkpt lat="44.43158" lon="1.3292">
        <ele>266.5</ele>
        <time>2025-03-08T14:19:03Z</time>
      </trkpt>
      <trkpt lat="44.43158" lon="1.32918">
        <ele>266.5</ele>
        <time>2025-03-08T14:19:04Z</time>
      </trkpt>
      <trkpt lat="44.4316" lon="1.32914">
        <ele>266.9</ele>
        <time>2025-03-08T14:19:05Z</time>
      </trkpt>
      <trkpt lat="44.43161" lon="1.32913">
        <ele>267.3</ele>
        <time>2025-03-08T14:19:06Z</time>
      </trkpt>
      <trkpt lat="44.43163" lon="1.32911">
        <ele>267.4</ele>
        <time>2025-03-08T14:19:07Z</time>
      </trkpt>
      <trkpt lat="44.43164" lon="1.3291">
        <ele>267.4</ele>
        <time>2025-03-08T14:19:08Z</time>
      </trkpt>
      <trkpt lat="44.43166" lon="1.32907">
        <ele>267.8</ele>
        <time>2025-03-08T14:19:09Z</time>
      </trkpt>
      <trkpt lat="44.43167" lon="1.32906">
        <ele>267.9</ele>
        <time>2025-03-08T14:19:10Z</time>
      </trkpt>
      <trkpt lat="44.43169" lon="1.32904">
        <ele>268.3</ele>
        <time>2025-03-08T14:19:11Z</time>
      </trkpt>
      <trkpt lat="44.4317" lon="1.32903">
        <ele>268.4</ele>
        <time>2025-03-08T14:19:12Z</time>
      </trkpt>
      <trkpt lat="44.43171" lon="1.32902">
        <ele>268.4</ele>
        <time>2025-03-08T14:19:13Z</time>
      </trkpt>
      <trkpt lat="44.43172" lon="1.329">
        <ele>268.4</ele>
        <time>2025-03-08T14:19:14Z</time>
      </trkpt>
      <trkpt lat="44.43175" lon="1.32898">
        <ele>268.9</ele>
        <time>2025-03-08T14:19:15Z</time>
      </trkpt>
      <trkpt lat="44.43176" lon="1.32897">
        <ele>268.9</ele>
        <time>2025-03-08T14:19:16Z</time>
      </trkpt>
      <trkpt lat="44.43177" lon="1.32896">
        <ele>269.4</ele>
        <time>2025-03-08T14:19:17Z</time>
      </trkpt>
      <trkpt lat="44.43178" lon="1.32894">
        <ele>269.4</ele>
        <time>2025-03-08T14:19:18Z</time>
      </trkpt>
      <trkpt lat="44.43179" lon="1.32893">
        <ele>269.5</ele>
        <time>2025-03-08T14:19:19Z</time>
      </trkpt>
      <trkpt lat="44.4318" lon="1.32891">
        <ele>269.9</ele>
        <time>2025-03-08T14:19:20Z</time>
      </trkpt>
      <trkpt lat="44.43183" lon="1.32887">
        <ele>270</ele>
        <time>2025-03-08T14:19:21Z</time>
      </trkpt>
      <trkpt lat="44.43183" lon="1.32886">
        <ele>270.4</ele>
        <time>2025-03-08T14:19:22Z</time>
      </trkpt>
      <trkpt lat="44.43185" lon="1.32883">
        <ele>270.5</ele>
        <time>2025-03-08T14:19:23Z</time>
      </trkpt>
      <trkpt lat="44.43186" lon="1.32882">
        <ele>271</ele>
        <time>2025-03-08T14:19:24Z</time>
      </trkpt>
      <trkpt lat="44.43187" lon="1.32878">
        <ele>271.5</ele>
        <time>2025-03-08T14:19:25Z</time>
      </trkpt>
      <trkpt lat="44.43188" lon="1.32877">
        <ele>271.5</ele>
        <time>2025-03-08T14:19:26Z</time>
      </trkpt>
      <trkpt lat="44.4319" lon="1.32873">
        <ele>272</ele>
        <time>2025-03-08T14:19:27Z</time>
      </trkpt>
      <trkpt lat="44.43191" lon="1.32872">
        <ele>272</ele>
        <time>2025-03-08T14:19:28Z</time>
      </trkpt>
      <trkpt lat="44.43192" lon="1.32871">
        <ele>272</ele>
        <time>2025-03-08T14:19:29Z</time>
      </trkpt>
      <trkpt lat="44.43194" lon="1.32871">
        <ele>272</ele>
        <time>2025-03-08T14:19:30Z</time>
      </trkpt>
      <trkpt lat="44.43196" lon="1.3287">
        <ele>272.5</ele>
        <time>2025-03-08T14:19:31Z</time>
      </trkpt>
      <trkpt lat="44.43197" lon="1.32871">
        <ele>271.9</ele>
        <time>2025-03-08T14:19:32Z</time>
      </trkpt>
      <trkpt lat="44.43199" lon="1.32871">
        <ele>272</ele>
        <time>2025-03-08T14:19:33Z</time>
      </trkpt>
      <trkpt lat="44.43201" lon="1.32873">
        <ele>272</ele>
        <time>2025-03-08T14:19:34Z</time>
      </trkpt>
      <trkpt lat="44.43203" lon="1.32875">
        <ele>271.5</ele>
        <time>2025-03-08T14:19:35Z</time>
      </trkpt>
      <trkpt lat="44.43204" lon="1.32875">
        <ele>271.6</ele>
        <time>2025-03-08T14:19:36Z</time>
      </trkpt>
      <trkpt lat="44.43208" lon="1.32876">
        <ele>271.6</ele>
        <time>2025-03-08T14:19:37Z</time>
      </trkpt>
      <trkpt lat="44.43209" lon="1.32877">
        <ele>271.6</ele>
        <time>2025-03-08T14:19:38Z</time>
      </trkpt>
      <trkpt lat="44.43212" lon="1.32876">
        <ele>271.7</ele>
        <time>2025-03-08T14:19:39Z</time>
      </trkpt>
      <trkpt lat="44.43214" lon="1.32875">
        <ele>271.7</ele>
        <time>2025-03-08T14:19:40Z</time>
      </trkpt>
      <trkpt lat="44.43217" lon="1.32875">
        <ele>271.8</ele>
        <time>2025-03-08T14:19:41Z</time>
      </trkpt>
      <trkpt lat="44.43218" lon="1.32875">
        <ele>271.9</ele>
        <time>2025-03-08T14:19:42Z</time>
      </trkpt>
      <trkpt lat="44.43221" lon="1.32875">
        <ele>272</ele>
        <time>2025-03-08T14:19:43Z</time>
      </trkpt>
      <trkpt lat="44.43222" lon="1.32875">
        <ele>272.1</ele>
        <time>2025-03-08T14:19:44Z</time>
      </trkpt>
      <trkpt lat="44.43225" lon="1.32873">
        <ele>272.6</ele>
        <time>2025-03-08T14:19:45Z</time>
      </trkpt>
      <trkpt lat="44.43226" lon="1.32872">
        <ele>272.6</ele>
        <time>2025-03-08T14:19:46Z</time>
      </trkpt>
      <trkpt lat="44.43228" lon="1.32871">
        <ele>272.6</ele>
        <time>2025-03-08T14:19:47Z</time>
      </trkpt>
      <trkpt lat="44.43229" lon="1.32871">
        <ele>272.8</ele>
        <time>2025-03-08T14:19:48Z</time>
      </trkpt>
      <trkpt lat="44.43232" lon="1.3287">
        <ele>273.2</ele>
        <time>2025-03-08T14:19:49Z</time>
      </trkpt>
      <trkpt lat="44.43233" lon="1.3287">
        <ele>273.3</ele>
        <time>2025-03-08T14:19:50Z</time>
      </trkpt>
      <trkpt lat="44.43235" lon="1.32869">
        <ele>273.4</ele>
        <time>2025-03-08T14:19:51Z</time>
      </trkpt>
      <trkpt lat="44.43236" lon="1.32868">
        <ele>273.4</ele>
        <time>2025-03-08T14:19:52Z</time>
      </trkpt>
      <trkpt lat="44.43238" lon="1.32867">
        <ele>273.6</ele>
        <time>2025-03-08T14:19:53Z</time>
      </trkpt>
      <trkpt lat="44.43239" lon="1.32867">
        <ele>273.6</ele>
        <time>2025-03-08T14:19:54Z</time>
      </trkpt>
      <trkpt lat="44.43241" lon="1.32866">
        <ele>273.8</ele>
        <time>2025-03-08T14:19:55Z</time>
      </trkpt>
      <trkpt lat="44.43243" lon="1.32866">
        <ele>274.1</ele>
        <time>2025-03-08T14:19:56Z</time>
      </trkpt>
      <trkpt lat="44.43244" lon="1.32865">
        <ele>274.3</ele>
        <time>2025-03-08T14:19:57Z</time>
      </trkpt>
      <trkpt lat="44.43246" lon="1.32865">
        <ele>274.3</ele>
        <time>2025-03-08T14:19:58Z</time>
      </trkpt>
      <trkpt lat="44.43247" lon="1.32864">
        <ele>274.5</ele>
        <time>2025-03-08T14:19:59Z</time>
      </trkpt>
      <trkpt lat="44.43249" lon="1.32863">
        <ele>274.5</ele>
        <time>2025-03-08T14:20:00Z</time>
      </trkpt>
      <trkpt lat="44.43251" lon="1.32862">
        <ele>274.8</ele>
        <time>2025-03-08T14:20:01Z</time>
      </trkpt>
      <trkpt lat="44.43252" lon="1.32862">
        <ele>274.8</ele>
        <time>2025-03-08T14:20:02Z</time>
      </trkpt>
      <trkpt lat="44.43255" lon="1.32861">
        <ele>275.2</ele>
        <time>2025-03-08T14:20:03Z</time>
      </trkpt>
      <trkpt lat="44.43256" lon="1.32861">
        <ele>275.5</ele>
        <time>2025-03-08T14:20:04Z</time>
      </trkpt>
      <trkpt lat="44.43257" lon="1.3286">
        <ele>275.5</ele>
        <time>2025-03-08T14:20:05Z</time>
      </trkpt>
      <trkpt lat="44.43259" lon="1.32859">
        <ele>275.8</ele>
        <time>2025-03-08T14:20:06Z</time>
      </trkpt>
      <trkpt lat="44.43261" lon="1.32859">
        <ele>275.8</ele>
        <time>2025-03-08T14:20:07Z</time>
      </trkpt>
      <trkpt lat="44.43262" lon="1.32858">
        <ele>276.1</ele>
        <time>2025-03-08T14:20:08Z</time>
      </trkpt>
      <trkpt lat="44.43264" lon="1.32858">
        <ele>276.1</ele>
        <time>2025-03-08T14:20:09Z</time>
      </trkpt>
      <trkpt lat="44.43265" lon="1.32858">
        <ele>276.4</ele>
        <time>2025-03-08T14:20:10Z</time>
      </trkpt>
      <trkpt lat="44.43267" lon="1.32857">
        <ele>276.4</ele>
        <time>2025-03-08T14:20:11Z</time>
      </trkpt>
      <trkpt lat="44.43268" lon="1.32857">
        <ele>276.8</ele>
        <time>2025-03-08T14:20:12Z</time>
      </trkpt>
      <trkpt lat="44.43271" lon="1.32856">
        <ele>277</ele>
        <time>2025-03-08T14:20:13Z</time>
      </trkpt>
      <trkpt lat="44.43272" lon="1.32855">
        <ele>277.1</ele>
        <time>2025-03-08T14:20:14Z</time>
      </trkpt>
      <trkpt lat="44.43274" lon="1.32854">
        <ele>277.4</ele>
        <time>2025-03-08T14:20:15Z</time>
      </trkpt>
      <trkpt lat="44.43275" lon="1.32854">
        <ele>277.4</ele>
        <time>2025-03-08T14:20:16Z</time>
      </trkpt>
      <trkpt lat="44.43278" lon="1.32853">
        <ele>277.8</ele>
        <time>2025-03-08T14:20:17Z</time>
      </trkpt>
      <trkpt lat="44.43279" lon="1.32852">
        <ele>277.9</ele>
        <time>2025-03-08T14:20:18Z</time>
      </trkpt>
      <trkpt lat="44.4328" lon="1.32852">
        <ele>278.2</ele>
        <time>2025-03-08T14:20:19Z</time>
      </trkpt>
      <trkpt lat="44.43282" lon="1.32851">
        <ele>278.3</ele>
        <time>2025-03-08T14:20:20Z</time>
      </trkpt>
      <trkpt lat="44.43284" lon="1.32851">
        <ele>278.7</ele>
        <time>2025-03-08T14:20:21Z</time>
      </trkpt>
      <trkpt lat="44.43285" lon="1.3285">
        <ele>278.7</ele>
        <time>2025-03-08T14:20:22Z</time>
      </trkpt>
      <trkpt lat="44.43287" lon="1.32849">
        <ele>279.1</ele>
        <time>2025-03-08T14:20:23Z</time>
      </trkpt>
      <trkpt lat="44.43289" lon="1.32848">
        <ele>279.1</ele>
        <time>2025-03-08T14:20:24Z</time>
      </trkpt>
      <trkpt lat="44.4329" lon="1.32847">
        <ele>279.5</ele>
        <time>2025-03-08T14:20:25Z</time>
      </trkpt>
      <trkpt lat="44.43292" lon="1.32847">
        <ele>279.5</ele>
        <time>2025-03-08T14:20:26Z</time>
      </trkpt>
      <trkpt lat="44.43294" lon="1.32846">
        <ele>279.9</ele>
        <time>2025-03-08T14:20:27Z</time>
      </trkpt>
      <trkpt lat="44.43295" lon="1.32845">
        <ele>280.3</ele>
        <time>2025-03-08T14:20:28Z</time>
      </trkpt>
      <trkpt lat="44.43298" lon="1.32844">
        <ele>280.4</ele>
        <time>2025-03-08T14:20:29Z</time>
      </trkpt>
      <trkpt lat="44.43299" lon="1.32844">
        <ele>280.8</ele>
        <time>2025-03-08T14:20:30Z</time>
      </trkpt>
      <trkpt lat="44.433" lon="1.32843">
        <ele>280.9</ele>
        <time>2025-03-08T14:20:31Z</time>
      </trkpt>
      <trkpt lat="44.43302" lon="1.32842">
        <ele>281.4</ele>
        <time>2025-03-08T14:20:32Z</time>
      </trkpt>
      <trkpt lat="44.43304" lon="1.32841">
        <ele>281.4</ele>
        <time>2025-03-08T14:20:33Z</time>
      </trkpt>
      <trkpt lat="44.43305" lon="1.3284">
        <ele>282</ele>
        <time>2025-03-08T14:20:34Z</time>
      </trkpt>
      <trkpt lat="44.43307" lon="1.32839">
        <ele>282</ele>
        <time>2025-03-08T14:20:35Z</time>
      </trkpt>
      <trkpt lat="44.43309" lon="1.32838">
        <ele>282.5</ele>
        <time>2025-03-08T14:20:36Z</time>
      </trkpt>
      <trkpt lat="44.4331" lon="1.32838">
        <ele>282.5</ele>
        <time>2025-03-08T14:20:37Z</time>
      </trkpt>
      <trkpt lat="44.43312" lon="1.32836">
        <ele>283.1</ele>
        <time>2025-03-08T14:20:38Z</time>
      </trkpt>
      <trkpt lat="44.43313" lon="1.32836">
        <ele>283.1</ele>
        <time>2025-03-08T14:20:39Z</time>
      </trkpt>
      <trkpt lat="44.43315" lon="1.32835">
        <ele>283.6</ele>
        <time>2025-03-08T14:20:40Z</time>
      </trkpt>
      <trkpt lat="44.43317" lon="1.32834">
        <ele>283.6</ele>
        <time>2025-03-08T14:20:41Z</time>
      </trkpt>
      <trkpt lat="44.43318" lon="1.32833">
        <ele>284.1</ele>
        <time>2025-03-08T14:20:42Z</time>
      </trkpt>
      <trkpt lat="44.43321" lon="1.32831">
        <ele>284.6</ele>
        <time>2025-03-08T14:20:43Z</time>
      </trkpt>
      <trkpt lat="44.43322" lon="1.32831">
        <ele>284.6</ele>
        <time>2025-03-08T14:20:44Z</time>
      </trkpt>
      <trkpt lat="44.43323" lon="1.3283">
        <ele>285.1</ele>
        <time>2025-03-08T14:20:45Z</time>
      </trkpt>
      <trkpt lat="44.43325" lon="1.32829">
        <ele>285.1</ele>
        <time>2025-03-08T14:20:46Z</time>
      </trkpt>
      <trkpt lat="44.43326" lon="1.32829">
        <ele>285.7</ele>
        <time>2025-03-08T14:20:47Z</time>
      </trkpt>
      <trkpt lat="44.43328" lon="1.32827">
        <ele>285.7</ele>
        <time>2025-03-08T14:20:48Z</time>
      </trkpt>
      <trkpt lat="44.43329" lon="1.32827">
        <ele>285.7</ele>
        <time>2025-03-08T14:20:49Z</time>
      </trkpt>
      <trkpt lat="44.4333" lon="1.32826">
        <ele>286.2</ele>
        <time>2025-03-08T14:20:50Z</time>
      </trkpt>
      <trkpt lat="44.43333" lon="1.32824">
        <ele>286.8</ele>
        <time>2025-03-08T14:20:51Z</time>
      </trkpt>
      <trkpt lat="44.43334" lon="1.32824">
        <ele>286.8</ele>
        <time>2025-03-08T14:20:52Z</time>
      </trkpt>
      <trkpt lat="44.43336" lon="1.32823">
        <ele>287.3</ele>
        <time>2025-03-08T14:20:53Z</time>
      </trkpt>
      <trkpt lat="44.43337" lon="1.32822">
        <ele>287.3</ele>
        <time>2025-03-08T14:20:54Z</time>
      </trkpt>
      <trkpt lat="44.43339" lon="1.32821">
        <ele>287.8</ele>
        <time>2025-03-08T14:20:55Z</time>
      </trkpt>
      <trkpt lat="44.4334" lon="1.3282">
        <ele>287.9</ele>
        <time>2025-03-08T14:20:56Z</time>
      </trkpt>
      <trkpt lat="44.43341" lon="1.32819">
        <ele>288.4</ele>
        <time>2025-03-08T14:20:57Z</time>
      </trkpt>
      <trkpt lat="44.43343" lon="1.32818">
        <ele>288.4</ele>
        <time>2025-03-08T14:20:58Z</time>
      </trkpt>
      <trkpt lat="44.43344" lon="1.32817">
        <ele>288.9</ele>
        <time>2025-03-08T14:20:59Z</time>
      </trkpt>
      <trkpt lat="44.43346" lon="1.32816">
        <ele>288.9</ele>
        <time>2025-03-08T14:21:00Z</time>
      </trkpt>
      <trkpt lat="44.43348" lon="1.32815">
        <ele>289.4</ele>
        <time>2025-03-08T14:21:01Z</time>
      </trkpt>
      <trkpt lat="44.43349" lon="1.32814">
        <ele>289.4</ele>
        <time>2025-03-08T14:21:02Z</time>
      </trkpt>
      <trkpt lat="44.4335" lon="1.32813">
        <ele>289.4</ele>
        <time>2025-03-08T14:21:03Z</time>
      </trkpt>
      <trkpt lat="44.43352" lon="1.32812">
        <ele>290</ele>
        <time>2025-03-08T14:21:04Z</time>
      </trkpt>
      <trkpt lat="44.43354" lon="1.3281">
        <ele>290.5</ele>
        <time>2025-03-08T14:21:05Z</time>
      </trkpt>
      <trkpt lat="44.43355" lon="1.3281">
        <ele>290.5</ele>
        <time>2025-03-08T14:21:06Z</time>
      </trkpt>
      <trkpt lat="44.43357" lon="1.32809">
        <ele>291</ele>
        <time>2025-03-08T14:21:07Z</time>
      </trkpt>
      <trkpt lat="44.43358" lon="1.32807">
        <ele>291</ele>
        <time>2025-03-08T14:21:08Z</time>
      </trkpt>
      <trkpt lat="44.43359" lon="1.32806">
        <ele>291</ele>
        <time>2025-03-08T14:21:09Z</time>
      </trkpt>
      <trkpt lat="44.4336" lon="1.32804">
        <ele>291.5</ele>
        <time>2025-03-08T14:21:10Z</time>
      </trkpt>
      <trkpt lat="44.43361" lon="1.32803">
        <ele>291.5</ele>
        <time>2025-03-08T14:21:11Z</time>
      </trkpt>
      <trkpt lat="44.43363" lon="1.32801">
        <ele>292</ele>
        <time>2025-03-08T14:21:12Z</time>
      </trkpt>
      <trkpt lat="44.43364" lon="1.328">
        <ele>292</ele>
        <time>2025-03-08T14:21:13Z</time>
      </trkpt>
      <trkpt lat="44.43366" lon="1.32798">
        <ele>292.1</ele>
        <time>2025-03-08T14:21:14Z</time>
      </trkpt>
      <trkpt lat="44.43366" lon="1.32797">
        <ele>292.5</ele>
        <time>2025-03-08T14:21:15Z</time>
      </trkpt>
      <trkpt lat="44.43367" lon="1.32795">
        <ele>292.6</ele>
        <time>2025-03-08T14:21:16Z</time>
      </trkpt>
      <trkpt lat="44.43369" lon="1.32794">
        <ele>292.6</ele>
        <time>2025-03-08T14:21:17Z</time>
      </trkpt>
      <trkpt lat="44.4337" lon="1.32792">
        <ele>293</ele>
        <time>2025-03-08T14:21:18Z</time>
      </trkpt>
      <trkpt lat="44.43371" lon="1.32791">
        <ele>293.1</ele>
        <time>2025-03-08T14:21:19Z</time>
      </trkpt>
      <trkpt lat="44.43372" lon="1.32789">
        <ele>293.1</ele>
        <time>2025-03-08T14:21:20Z</time>
      </trkpt>
      <trkpt lat="44.43373" lon="1.32788">
        <ele>293.5</ele>
        <time>2025-03-08T14:21:21Z</time>
      </trkpt>
      <trkpt lat="44.43374" lon="1.32786">
        <ele>293.5</ele>
        <time>2025-03-08T14:21:22Z</time>
      </trkpt>
      <trkpt lat="44.43376" lon="1.32783">
        <ele>294</ele>
        <time>2025-03-08T14:21:23Z</time>
      </trkpt>
      <trkpt lat="44.43376" lon="1.32783">
        <ele>294</ele>
        <time>2025-03-08T14:21:24Z</time>
      </trkpt>
      <trkpt lat="44.43379" lon="1.3278">
        <ele>294.7</ele>
        <time>2025-03-08T14:21:25Z</time>
      </trkpt>
      <trkpt lat="44.43379" lon="1.32779">
        <ele>294.8</ele>
        <time>2025-03-08T14:21:26Z</time>
      </trkpt>
      <trkpt lat="44.43382" lon="1.32776">
        <ele>295.3</ele>
        <time>2025-03-08T14:21:27Z</time>
      </trkpt>
      <trkpt lat="44.43382" lon="1.32775">
        <ele>295.3</ele>
        <time>2025-03-08T14:21:28Z</time>
      </trkpt>
      <trkpt lat="44.43383" lon="1.32774">
        <ele>295.3</ele>
        <time>2025-03-08T14:21:29Z</time>
      </trkpt>
      <trkpt lat="44.43384" lon="1.32772">
        <ele>295.9</ele>
        <time>2025-03-08T14:21:30Z</time>
      </trkpt>
      <trkpt lat="44.43386" lon="1.32771">
        <ele>295.9</ele>
        <time>2025-03-08T14:21:31Z</time>
      </trkpt>
      <trkpt lat="44.43387" lon="1.3277">
        <ele>295.9</ele>
        <time>2025-03-08T14:21:32Z</time>
      </trkpt>
      <trkpt lat="44.43388" lon="1.32767">
        <ele>296.5</ele>
        <time>2025-03-08T14:21:33Z</time>
      </trkpt>
      <trkpt lat="44.43388" lon="1.32766">
        <ele>296.5</ele>
        <time>2025-03-08T14:21:34Z</time>
      </trkpt>
      <trkpt lat="44.43388" lon="1.32765">
        <ele>296.6</ele>
        <time>2025-03-08T14:21:35Z</time>
      </trkpt>
      <trkpt lat="44.4339" lon="1.3276">
        <ele>296.6</ele>
        <time>2025-03-08T14:21:36Z</time>
      </trkpt>
      <trkpt lat="44.4339" lon="1.32758">
        <ele>296.7</ele>
        <time>2025-03-08T14:21:37Z</time>
      </trkpt>
      <trkpt lat="44.4339" lon="1.32754">
        <ele>296.8</ele>
        <time>2025-03-08T14:21:38Z</time>
      </trkpt>
      <trkpt lat="44.43389" lon="1.32751">
        <ele>296.8</ele>
        <time>2025-03-08T14:21:39Z</time>
      </trkpt>
      <trkpt lat="44.43386" lon="1.32748">
        <ele>296.4</ele>
        <time>2025-03-08T14:21:40Z</time>
      </trkpt>
      <trkpt lat="44.43383" lon="1.32746">
        <ele>295.9</ele>
        <time>2025-03-08T14:21:41Z</time>
      </trkpt>
      <trkpt lat="44.43379" lon="1.32744">
        <ele>295.4</ele>
        <time>2025-03-08T14:21:42Z</time>
      </trkpt>
      <trkpt lat="44.43376" lon="1.32742">
        <ele>294.5</ele>
        <time>2025-03-08T14:21:43Z</time>
      </trkpt>
      <trkpt lat="44.43373" lon="1.32741">
        <ele>294</ele>
        <time>2025-03-08T14:21:44Z</time>
      </trkpt>
      <trkpt lat="44.4337" lon="1.32739">
        <ele>293.5</ele>
        <time>2025-03-08T14:21:45Z</time>
      </trkpt>
      <trkpt lat="44.43366" lon="1.32738">
        <ele>292.9</ele>
        <time>2025-03-08T14:21:46Z</time>
      </trkpt>
      <trkpt lat="44.43365" lon="1.32738">
        <ele>292.3</ele>
        <time>2025-03-08T14:21:47Z</time>
      </trkpt>
      <trkpt lat="44.43362" lon="1.32737">
        <ele>291.8</ele>
        <time>2025-03-08T14:21:48Z</time>
      </trkpt>
      <trkpt lat="44.43361" lon="1.32737">
        <ele>291.8</ele>
        <time>2025-03-08T14:21:49Z</time>
      </trkpt>
      <trkpt lat="44.43358" lon="1.32735">
        <ele>291.3</ele>
        <time>2025-03-08T14:21:50Z</time>
      </trkpt>
      <trkpt lat="44.43357" lon="1.32735">
        <ele>291.3</ele>
        <time>2025-03-08T14:21:51Z</time>
      </trkpt>
      <trkpt lat="44.43354" lon="1.32734">
        <ele>290.8</ele>
        <time>2025-03-08T14:21:52Z</time>
      </trkpt>
      <trkpt lat="44.43353" lon="1.32733">
        <ele>290.4</ele>
        <time>2025-03-08T14:21:53Z</time>
      </trkpt>
      <trkpt lat="44.4335" lon="1.32732">
        <ele>290.1</ele>
        <time>2025-03-08T14:21:54Z</time>
      </trkpt>
      <trkpt lat="44.43349" lon="1.32732">
        <ele>290.1</ele>
        <time>2025-03-08T14:21:55Z</time>
      </trkpt>
      <trkpt lat="44.43346" lon="1.32731">
        <ele>289.8</ele>
        <time>2025-03-08T14:21:56Z</time>
      </trkpt>
      <trkpt lat="44.43345" lon="1.3273">
        <ele>289.8</ele>
        <time>2025-03-08T14:21:57Z</time>
      </trkpt>
      <trkpt lat="44.43342" lon="1.3273">
        <ele>289.5</ele>
        <time>2025-03-08T14:21:58Z</time>
      </trkpt>
      <trkpt lat="44.43341" lon="1.32729">
        <ele>289.3</ele>
        <time>2025-03-08T14:21:59Z</time>
      </trkpt>
      <trkpt lat="44.43338" lon="1.32729">
        <ele>289.1</ele>
        <time>2025-03-08T14:22:00Z</time>
      </trkpt>
      <trkpt lat="44.43337" lon="1.32729">
        <ele>289.2</ele>
        <time>2025-03-08T14:22:01Z</time>
      </trkpt>
      <trkpt lat="44.43333" lon="1.3273">
        <ele>289.1</ele>
        <time>2025-03-08T14:22:02Z</time>
      </trkpt>
      <trkpt lat="44.43331" lon="1.3273">
        <ele>289.1</ele>
        <time>2025-03-08T14:22:03Z</time>
      </trkpt>
      <trkpt lat="44.43328" lon="1.32731">
        <ele>289.1</ele>
        <time>2025-03-08T14:22:04Z</time>
      </trkpt>
      <trkpt lat="44.43327" lon="1.32732">
        <ele>289.1</ele>
        <time>2025-03-08T14:22:05Z</time>
      </trkpt>
      <trkpt lat="44.43324" lon="1.32735">
        <ele>289.2</ele>
        <time>2025-03-08T14:22:06Z</time>
      </trkpt>
      <trkpt lat="44.43322" lon="1.32736">
        <ele>289.2</ele>
        <time>2025-03-08T14:22:07Z</time>
      </trkpt>
      <trkpt lat="44.4332" lon="1.32738">
        <ele>289.2</ele>
        <time>2025-03-08T14:22:08Z</time>
      </trkpt>
      <trkpt lat="44.43317" lon="1.3274">
        <ele>289.2</ele>
        <time>2025-03-08T14:22:09Z</time>
      </trkpt>
      <trkpt lat="44.43314" lon="1.32742">
        <ele>289.3</ele>
        <time>2025-03-08T14:22:10Z</time>
      </trkpt>
      <trkpt lat="44.43312" lon="1.32743">
        <ele>289.3</ele>
        <time>2025-03-08T14:22:11Z</time>
      </trkpt>
      <trkpt lat="44.43308" lon="1.32744">
        <ele>289.4</ele>
        <time>2025-03-08T14:22:12Z</time>
      </trkpt>
      <trkpt lat="44.43307" lon="1.32745">
        <ele>289.4</ele>
        <time>2025-03-08T14:22:13Z</time>
      </trkpt>
      <trkpt lat="44.43303" lon="1.32745">
        <ele>289.4</ele>
        <time>2025-03-08T14:22:14Z</time>
      </trkpt>
      <trkpt lat="44.43302" lon="1.32745">
        <ele>289.5</ele>
        <time>2025-03-08T14:22:15Z</time>
      </trkpt>
      <trkpt lat="44.43299" lon="1.32745">
        <ele>289.5</ele>
        <time>2025-03-08T14:22:16Z</time>
      </trkpt>
      <trkpt lat="44.43298" lon="1.32745">
        <ele>289.6</ele>
        <time>2025-03-08T14:22:17Z</time>
      </trkpt>
      <trkpt lat="44.43294" lon="1.32744">
        <ele>289.6</ele>
        <time>2025-03-08T14:22:18Z</time>
      </trkpt>
      <trkpt lat="44.43293" lon="1.32744">
        <ele>289.7</ele>
        <time>2025-03-08T14:22:19Z</time>
      </trkpt>
      <trkpt lat="44.4329" lon="1.32744">
        <ele>289.7</ele>
        <time>2025-03-08T14:22:20Z</time>
      </trkpt>
      <trkpt lat="44.43289" lon="1.32744">
        <ele>289.8</ele>
        <time>2025-03-08T14:22:21Z</time>
      </trkpt>
      <trkpt lat="44.43287" lon="1.32743">
        <ele>289.8</ele>
        <time>2025-03-08T14:22:22Z</time>
      </trkpt>
      <trkpt lat="44.43286" lon="1.32741">
        <ele>289.8</ele>
        <time>2025-03-08T14:22:23Z</time>
      </trkpt>
      <trkpt lat="44.43286" lon="1.32739">
        <ele>289.9</ele>
        <time>2025-03-08T14:22:24Z</time>
      </trkpt>
      <trkpt lat="44.43286" lon="1.32737">
        <ele>289.9</ele>
        <time>2025-03-08T14:22:25Z</time>
      </trkpt>
      <trkpt lat="44.43287" lon="1.32735">
        <ele>289.9</ele>
        <time>2025-03-08T14:22:26Z</time>
      </trkpt>
      <trkpt lat="44.43288" lon="1.32734">
        <ele>289.9</ele>
        <time>2025-03-08T14:22:27Z</time>
      </trkpt>
      <trkpt lat="44.43289" lon="1.32734">
        <ele>290</ele>
        <time>2025-03-08T14:22:28Z</time>
      </trkpt>
      <trkpt lat="44.43291" lon="1.32733">
        <ele>290</ele>
        <time>2025-03-08T14:22:29Z</time>
      </trkpt>
      <trkpt lat="44.4329" lon="1.32732">
        <ele>290</ele>
        <time>2025-03-08T14:22:30Z</time>
      </trkpt>
      <trkpt lat="44.43289" lon="1.3273">
        <ele>290</ele>
        <time>2025-03-08T14:22:31Z</time>
      </trkpt>
      <trkpt lat="44.43287" lon="1.32729">
        <ele>290</ele>
        <time>2025-03-08T14:22:32Z</time>
      </trkpt>
      <trkpt lat="44.43286" lon="1.32728">
        <ele>290.1</ele>
        <time>2025-03-08T14:22:33Z</time>
      </trkpt>
      <trkpt lat="44.43285" lon="1.32726">
        <ele>290.1</ele>
        <time>2025-03-08T14:22:34Z</time>
      </trkpt>
      <trkpt lat="44.43284" lon="1.32724">
        <ele>290.1</ele>
        <time>2025-03-08T14:22:35Z</time>
      </trkpt>
      <trkpt lat="44.43284" lon="1.32722">
        <ele>290.1</ele>
        <time>2025-03-08T14:22:36Z</time>
      </trkpt>
      <trkpt lat="44.43288" lon="1.32718">
        <ele>289.9</ele>
        <time>2025-03-08T14:22:37Z</time>
      </trkpt>
      <trkpt lat="44.4329" lon="1.32717">
        <ele>289.8</ele>
        <time>2025-03-08T14:22:38Z</time>
      </trkpt>
      <trkpt lat="44.43295" lon="1.32715">
        <ele>289.4</ele>
        <time>2025-03-08T14:22:39Z</time>
      </trkpt>
      <trkpt lat="44.43302" lon="1.32713">
        <ele>289</ele>
        <time>2025-03-08T14:22:40Z</time>
      </trkpt>
      <trkpt lat="44.43309" lon="1.32712">
        <ele>288.7</ele>
        <time>2025-03-08T14:22:41Z</time>
      </trkpt>
      <trkpt lat="44.43315" lon="1.3271">
        <ele>288.6</ele>
        <time>2025-03-08T14:22:42Z</time>
      </trkpt>
      <trkpt lat="44.4332" lon="1.32709">
        <ele>288.6</ele>
        <time>2025-03-08T14:22:43Z</time>
      </trkpt>
      <trkpt lat="44.43324" lon="1.32707">
        <ele>288.6</ele>
        <time>2025-03-08T14:22:44Z</time>
      </trkpt>
      <trkpt lat="44.43328" lon="1.32703">
        <ele>288.6</ele>
        <time>2025-03-08T14:22:45Z</time>
      </trkpt>
      <trkpt lat="44.43331" lon="1.32701">
        <ele>288.8</ele>
        <time>2025-03-08T14:22:46Z</time>
      </trkpt>
      <trkpt lat="44.43335" lon="1.32699">
        <ele>288.9</ele>
        <time>2025-03-08T14:22:47Z</time>
      </trkpt>
      <trkpt lat="44.43339" lon="1.32698">
        <ele>289</ele>
        <time>2025-03-08T14:22:48Z</time>
      </trkpt>
      <trkpt lat="44.43342" lon="1.32696">
        <ele>289.2</ele>
        <time>2025-03-08T14:22:49Z</time>
      </trkpt>
      <trkpt lat="44.43345" lon="1.32694">
        <ele>289.4</ele>
        <time>2025-03-08T14:22:50Z</time>
      </trkpt>
      <trkpt lat="44.43348" lon="1.32691">
        <ele>289.6</ele>
        <time>2025-03-08T14:22:51Z</time>
      </trkpt>
      <trkpt lat="44.43351" lon="1.32689">
        <ele>289.7</ele>
        <time>2025-03-08T14:22:52Z</time>
      </trkpt>
      <trkpt lat="44.43354" lon="1.32687">
        <ele>289.9</ele>
        <time>2025-03-08T14:22:53Z</time>
      </trkpt>
      <trkpt lat="44.43356" lon="1.32685">
        <ele>290.1</ele>
        <time>2025-03-08T14:22:54Z</time>
      </trkpt>
      <trkpt lat="44.4336" lon="1.32682">
        <ele>290.4</ele>
        <time>2025-03-08T14:22:55Z</time>
      </trkpt>
      <trkpt lat="44.43361" lon="1.32682">
        <ele>290.4</ele>
        <time>2025-03-08T14:22:56Z</time>
      </trkpt>
      <trkpt lat="44.43364" lon="1.3268">
        <ele>290.7</ele>
        <time>2025-03-08T14:22:57Z</time>
      </trkpt>
      <trkpt lat="44.43366" lon="1.32679">
        <ele>290.8</ele>
        <time>2025-03-08T14:22:58Z</time>
      </trkpt>
      <trkpt lat="44.43369" lon="1.32677">
        <ele>291</ele>
        <time>2025-03-08T14:22:59Z</time>
      </trkpt>
      <trkpt lat="44.43371" lon="1.32676">
        <ele>291.1</ele>
        <time>2025-03-08T14:23:00Z</time>
      </trkpt>
      <trkpt lat="44.43373" lon="1.32674">
        <ele>291.3</ele>
        <time>2025-03-08T14:23:01Z</time>
      </trkpt>
      <trkpt lat="44.43376" lon="1.32672">
        <ele>291.4</ele>
        <time>2025-03-08T14:23:02Z</time>
      </trkpt>
      <trkpt lat="44.43379" lon="1.32671">
        <ele>291.6</ele>
        <time>2025-03-08T14:23:03Z</time>
      </trkpt>
      <trkpt lat="44.43381" lon="1.32669">
        <ele>291.8</ele>
        <time>2025-03-08T14:23:04Z</time>
      </trkpt>
      <trkpt lat="44.43384" lon="1.32667">
        <ele>291.9</ele>
        <time>2025-03-08T14:23:05Z</time>
      </trkpt>
      <trkpt lat="44.43385" lon="1.32666">
        <ele>292</ele>
        <time>2025-03-08T14:23:06Z</time>
      </trkpt>
      <trkpt lat="44.43388" lon="1.32664">
        <ele>292.2</ele>
        <time>2025-03-08T14:23:07Z</time>
      </trkpt>
      <trkpt lat="44.43389" lon="1.32663">
        <ele>292.3</ele>
        <time>2025-03-08T14:23:08Z</time>
      </trkpt>
      <trkpt lat="44.43393" lon="1.3266">
        <ele>292.5</ele>
        <time>2025-03-08T14:23:09Z</time>
      </trkpt>
      <trkpt lat="44.43395" lon="1.3266">
        <ele>292.6</ele>
        <time>2025-03-08T14:23:10Z</time>
      </trkpt>
      <trkpt lat="44.43397" lon="1.32658">
        <ele>292.9</ele>
        <time>2025-03-08T14:23:11Z</time>
      </trkpt>
      <trkpt lat="44.434" lon="1.32658">
        <ele>293.1</ele>
        <time>2025-03-08T14:23:12Z</time>
      </trkpt>
      <trkpt lat="44.43404" lon="1.32658">
        <ele>293.4</ele>
        <time>2025-03-08T14:23:13Z</time>
      </trkpt>
      <trkpt lat="44.43405" lon="1.32658">
        <ele>293.5</ele>
        <time>2025-03-08T14:23:14Z</time>
      </trkpt>
      <trkpt lat="44.43409" lon="1.32658">
        <ele>293.8</ele>
        <time>2025-03-08T14:23:15Z</time>
      </trkpt>
      <trkpt lat="44.4341" lon="1.32658">
        <ele>293.9</ele>
        <time>2025-03-08T14:23:16Z</time>
      </trkpt>
      <trkpt lat="44.43414" lon="1.32657">
        <ele>294.3</ele>
        <time>2025-03-08T14:23:17Z</time>
      </trkpt>
      <trkpt lat="44.43415" lon="1.32656">
        <ele>294.4</ele>
        <time>2025-03-08T14:23:18Z</time>
      </trkpt>
      <trkpt lat="44.43419" lon="1.32654">
        <ele>294.8</ele>
        <time>2025-03-08T14:23:19Z</time>
      </trkpt>
      <trkpt lat="44.4342" lon="1.32654">
        <ele>294.9</ele>
        <time>2025-03-08T14:23:20Z</time>
      </trkpt>
      <trkpt lat="44.43423" lon="1.32654">
        <ele>295.2</ele>
        <time>2025-03-08T14:23:21Z</time>
      </trkpt>
      <trkpt lat="44.43424" lon="1.32653">
        <ele>295.3</ele>
        <time>2025-03-08T14:23:22Z</time>
      </trkpt>
      <trkpt lat="44.43428" lon="1.32652">
        <ele>295.7</ele>
        <time>2025-03-08T14:23:23Z</time>
      </trkpt>
      <trkpt lat="44.43429" lon="1.32652">
        <ele>295.8</ele>
        <time>2025-03-08T14:23:24Z</time>
      </trkpt>
      <trkpt lat="44.43432" lon="1.32649">
        <ele>296.2</ele>
        <time>2025-03-08T14:23:25Z</time>
      </trkpt>
      <trkpt lat="44.43433" lon="1.32648">
        <ele>296.3</ele>
        <time>2025-03-08T14:23:26Z</time>
      </trkpt>
      <trkpt lat="44.43436" lon="1.32646">
        <ele>296.6</ele>
        <time>2025-03-08T14:23:27Z</time>
      </trkpt>
      <trkpt lat="44.43437" lon="1.32645">
        <ele>296.7</ele>
        <time>2025-03-08T14:23:28Z</time>
      </trkpt>
      <trkpt lat="44.4344" lon="1.32644">
        <ele>297</ele>
        <time>2025-03-08T14:23:29Z</time>
      </trkpt>
      <trkpt lat="44.43441" lon="1.32643">
        <ele>297.1</ele>
        <time>2025-03-08T14:23:30Z</time>
      </trkpt>
      <trkpt lat="44.43444" lon="1.32642">
        <ele>297.4</ele>
        <time>2025-03-08T14:23:31Z</time>
      </trkpt>
      <trkpt lat="44.43446" lon="1.32642">
        <ele>297.5</ele>
        <time>2025-03-08T14:23:32Z</time>
      </trkpt>
      <trkpt lat="44.43449" lon="1.3264">
        <ele>297.9</ele>
        <time>2025-03-08T14:23:33Z</time>
      </trkpt>
      <trkpt lat="44.4345" lon="1.32639">
        <ele>298</ele>
        <time>2025-03-08T14:23:34Z</time>
      </trkpt>
      <trkpt lat="44.43453" lon="1.32636">
        <ele>298.3</ele>
        <time>2025-03-08T14:23:35Z</time>
      </trkpt>
      <trkpt lat="44.43454" lon="1.32635">
        <ele>298.5</ele>
        <time>2025-03-08T14:23:36Z</time>
      </trkpt>
      <trkpt lat="44.43456" lon="1.32631">
        <ele>298.8</ele>
        <time>2025-03-08T14:23:37Z</time>
      </trkpt>
      <trkpt lat="44.43457" lon="1.3263">
        <ele>298.9</ele>
        <time>2025-03-08T14:23:38Z</time>
      </trkpt>
      <trkpt lat="44.43459" lon="1.32626">
        <ele>299.3</ele>
        <time>2025-03-08T14:23:39Z</time>
      </trkpt>
      <trkpt lat="44.4346" lon="1.32625">
        <ele>299.4</ele>
        <time>2025-03-08T14:23:40Z</time>
      </trkpt>
      <trkpt lat="44.43463" lon="1.32622">
        <ele>299.8</ele>
        <time>2025-03-08T14:23:41Z</time>
      </trkpt>
      <trkpt lat="44.43464" lon="1.32621">
        <ele>299.9</ele>
        <time>2025-03-08T14:23:42Z</time>
      </trkpt>
      <trkpt lat="44.43467" lon="1.32618">
        <ele>300.3</ele>
        <time>2025-03-08T14:23:43Z</time>
      </trkpt>
      <trkpt lat="44.43468" lon="1.32617">
        <ele>300.4</ele>
        <time>2025-03-08T14:23:44Z</time>
      </trkpt>
      <trkpt lat="44.4347" lon="1.32613">
        <ele>300.8</ele>
        <time>2025-03-08T14:23:45Z</time>
      </trkpt>
      <trkpt lat="44.4347" lon="1.32612">
        <ele>300.9</ele>
        <time>2025-03-08T14:23:46Z</time>
      </trkpt>
      <trkpt lat="44.43472" lon="1.32609">
        <ele>301.3</ele>
        <time>2025-03-08T14:23:47Z</time>
      </trkpt>
      <trkpt lat="44.43473" lon="1.32607">
        <ele>301.4</ele>
        <time>2025-03-08T14:23:48Z</time>
      </trkpt>
      <trkpt lat="44.43475" lon="1.32604">
        <ele>301.8</ele>
        <time>2025-03-08T14:23:49Z</time>
      </trkpt>
      <trkpt lat="44.43475" lon="1.32603">
        <ele>301.9</ele>
        <time>2025-03-08T14:23:50Z</time>
      </trkpt>
      <trkpt lat="44.43477" lon="1.326">
        <ele>302.3</ele>
        <time>2025-03-08T14:23:51Z</time>
      </trkpt>
      <trkpt lat="44.43478" lon="1.32599">
        <ele>302.4</ele>
        <time>2025-03-08T14:23:52Z</time>
      </trkpt>
      <trkpt lat="44.4348" lon="1.32595">
        <ele>302.9</ele>
        <time>2025-03-08T14:23:53Z</time>
      </trkpt>
      <trkpt lat="44.43481" lon="1.32594">
        <ele>303</ele>
        <time>2025-03-08T14:23:54Z</time>
      </trkpt>
      <trkpt lat="44.43483" lon="1.3259">
        <ele>303.5</ele>
        <time>2025-03-08T14:23:55Z</time>
      </trkpt>
      <trkpt lat="44.43484" lon="1.32589">
        <ele>303.6</ele>
        <time>2025-03-08T14:23:56Z</time>
      </trkpt>
      <trkpt lat="44.43486" lon="1.32585">
        <ele>304</ele>
        <time>2025-03-08T14:23:57Z</time>
      </trkpt>
      <trkpt lat="44.43486" lon="1.32584">
        <ele>304.2</ele>
        <time>2025-03-08T14:23:58Z</time>
      </trkpt>
      <trkpt lat="44.43487" lon="1.32579">
        <ele>304.6</ele>
        <time>2025-03-08T14:23:59Z</time>
      </trkpt>
      <trkpt lat="44.43487" lon="1.32578">
        <ele>304.7</ele>
        <time>2025-03-08T14:24:00Z</time>
      </trkpt>
      <trkpt lat="44.43488" lon="1.32574">
        <ele>305</ele>
        <time>2025-03-08T14:24:01Z</time>
      </trkpt>
      <trkpt lat="44.43488" lon="1.32572">
        <ele>305.1</ele>
        <time>2025-03-08T14:24:02Z</time>
      </trkpt>
      <trkpt lat="44.43489" lon="1.32568">
        <ele>305.4</ele>
        <time>2025-03-08T14:24:03Z</time>
      </trkpt>
      <trkpt lat="44.4349" lon="1.32566">
        <ele>305.5</ele>
        <time>2025-03-08T14:24:04Z</time>
      </trkpt>
      <trkpt lat="44.43491" lon="1.32562">
        <ele>305.8</ele>
        <time>2025-03-08T14:24:05Z</time>
      </trkpt>
      <trkpt lat="44.43493" lon="1.32559">
        <ele>306</ele>
        <time>2025-03-08T14:24:06Z</time>
      </trkpt>
      <trkpt lat="44.43494" lon="1.32554">
        <ele>306.2</ele>
        <time>2025-03-08T14:24:07Z</time>
      </trkpt>
      <trkpt lat="44.43495" lon="1.32552">
        <ele>306.3</ele>
        <time>2025-03-08T14:24:08Z</time>
      </trkpt>
      <trkpt lat="44.43496" lon="1.32547">
        <ele>306.6</ele>
        <time>2025-03-08T14:24:09Z</time>
      </trkpt>
      <trkpt lat="44.43496" lon="1.32546">
        <ele>306.6</ele>
        <time>2025-03-08T14:24:10Z</time>
      </trkpt>
      <trkpt lat="44.43497" lon="1.3254">
        <ele>306.9</ele>
        <time>2025-03-08T14:24:11Z</time>
      </trkpt>
      <trkpt lat="44.43498" lon="1.32539">
        <ele>307</ele>
        <time>2025-03-08T14:24:12Z</time>
      </trkpt>
      <trkpt lat="44.43499" lon="1.32534">
        <ele>307.2</ele>
        <time>2025-03-08T14:24:13Z</time>
      </trkpt>
      <trkpt lat="44.43499" lon="1.32532">
        <ele>307.3</ele>
        <time>2025-03-08T14:24:14Z</time>
      </trkpt>
      <trkpt lat="44.435" lon="1.32528">
        <ele>307.4</ele>
        <time>2025-03-08T14:24:15Z</time>
      </trkpt>
      <trkpt lat="44.43501" lon="1.32523">
        <ele>307.6</ele>
        <time>2025-03-08T14:24:16Z</time>
      </trkpt>
      <trkpt lat="44.43501" lon="1.32521">
        <ele>307.7</ele>
        <time>2025-03-08T14:24:17Z</time>
      </trkpt>
      <trkpt lat="44.43502" lon="1.32516">
        <ele>307.8</ele>
        <time>2025-03-08T14:24:18Z</time>
      </trkpt>
      <trkpt lat="44.43502" lon="1.32515">
        <ele>307.9</ele>
        <time>2025-03-08T14:24:19Z</time>
      </trkpt>
      <trkpt lat="44.43502" lon="1.32509">
        <ele>308.1</ele>
        <time>2025-03-08T14:24:20Z</time>
      </trkpt>
      <trkpt lat="44.43502" lon="1.32508">
        <ele>308.1</ele>
        <time>2025-03-08T14:24:21Z</time>
      </trkpt>
      <trkpt lat="44.43503" lon="1.32504">
        <ele>308.3</ele>
        <time>2025-03-08T14:24:22Z</time>
      </trkpt>
      <trkpt lat="44.43503" lon="1.325">
        <ele>308.4</ele>
        <time>2025-03-08T14:24:23Z</time>
      </trkpt>
      <trkpt lat="44.43504" lon="1.32495">
        <ele>308.5</ele>
        <time>2025-03-08T14:24:24Z</time>
      </trkpt>
      <trkpt lat="44.43504" lon="1.32493">
        <ele>308.6</ele>
        <time>2025-03-08T14:24:25Z</time>
      </trkpt>
      <trkpt lat="44.43505" lon="1.32488">
        <ele>308.7</ele>
        <time>2025-03-08T14:24:26Z</time>
      </trkpt>
      <trkpt lat="44.43505" lon="1.32487">
        <ele>308.7</ele>
        <time>2025-03-08T14:24:27Z</time>
      </trkpt>
      <trkpt lat="44.43507" lon="1.32483">
        <ele>308.8</ele>
        <time>2025-03-08T14:24:28Z</time>
      </trkpt>
      <trkpt lat="44.43507" lon="1.32482">
        <ele>308.9</ele>
        <time>2025-03-08T14:24:29Z</time>
      </trkpt>
      <trkpt lat="44.43508" lon="1.3248">
        <ele>308.9</ele>
        <time>2025-03-08T14:24:30Z</time>
      </trkpt>
      <trkpt lat="44.43509" lon="1.3248">
        <ele>309</ele>
        <time>2025-03-08T14:24:31Z</time>
      </trkpt>
      <trkpt lat="44.43509" lon="1.3248">
        <ele>309</ele>
        <time>2025-03-08T14:24:32Z</time>
      </trkpt>
      <trkpt lat="44.43509" lon="1.32478">
        <ele>309</ele>
        <time>2025-03-08T14:24:33Z</time>
      </trkpt>
      <trkpt lat="44.43509" lon="1.32478">
        <ele>309</ele>
        <time>2025-03-08T14:24:34Z</time>
      </trkpt>
      <trkpt lat="44.43509" lon="1.32478">
        <ele>309</ele>
        <time>2025-03-08T14:24:35Z</time>
      </trkpt>
      <trkpt lat="44.43509" lon="1.32478">
        <ele>309</ele>
        <time>2025-03-08T14:24:36Z</time>
      </trkpt>
      <trkpt lat="44.43509" lon="1.32478">
        <ele>309</ele>
        <time>2025-03-08T14:24:37Z</time>
      </trkpt>
      <trkpt lat="44.43509" lon="1.32477">
        <ele>309</ele>
        <time>2025-03-08T14:24:38Z</time>
      </trkpt>
      <trkpt lat="44.43509" lon="1.32477">
        <ele>309</ele>
        <time>2025-03-08T14:24:39Z</time>
      </trkpt>
      <trkpt lat="44.43509" lon="1.32477">
        <ele>309.1</ele>
        <time>2025-03-08T14:24:40Z</time>
      </trkpt>
      <trkpt lat="44.43509" lon="1.32477">
        <ele>309.1</ele>
        <time>2025-03-08T14:24:41Z</time>
      </trkpt>
      <trkpt lat="44.43509" lon="1.32476">
        <ele>309.1</ele>
        <time>2025-03-08T14:24:42Z</time>
      </trkpt>
      <trkpt lat="44.43509" lon="1.32476">
        <ele>309.1</ele>
        <time>2025-03-08T14:24:43Z</time>
      </trkpt>
      <trkpt lat="44.43509" lon="1.32476">
        <ele>309.1</ele>
        <time>2025-03-08T14:24:44Z</time>
      </trkpt>
      <trkpt lat="44.43509" lon="1.32476">
        <ele>309.1</ele>
        <time>2025-03-08T14:24:45Z</time>
      </trkpt>
      <trkpt lat="44.43509" lon="1.32476">
        <ele>309.1</ele>
        <time>2025-03-08T14:24:46Z</time>
      </trkpt>
      <trkpt lat="44.43509" lon="1.32475">
        <ele>309.1</ele>
        <time>2025-03-08T14:24:47Z</time>
      </trkpt>
      <trkpt lat="44.43509" lon="1.32475">
        <ele>309.1</ele>
        <time>2025-03-08T14:24:48Z</time>
      </trkpt>
      <trkpt lat="44.43509" lon="1.32475">
        <ele>309.1</ele>
        <time>2025-03-08T14:24:49Z</time>
      </trkpt>
      <trkpt lat="44.43509" lon="1.32475">
        <ele>309.1</ele>
        <time>2025-03-08T14:24:50Z</time>
      </trkpt>
      <trkpt lat="44.43509" lon="1.32475">
        <ele>309.1</ele>
        <time>2025-03-08T14:24:51Z</time>
      </trkpt>
      <trkpt lat="44.43509" lon="1.32474">
        <ele>309.1</ele>
        <time>2025-03-08T14:24:52Z</time>
      </trkpt>
      <trkpt lat="44.43509" lon="1.32474">
        <ele>309.1</ele>
        <time>2025-03-08T14:24:53Z</time>
      </trkpt>
      <trkpt lat="44.43509" lon="1.32474">
        <ele>309.1</ele>
        <time>2025-03-08T14:24:54Z</time>
      </trkpt>
      <trkpt lat="44.43509" lon="1.32474">
        <ele>309.1</ele>
        <time>2025-03-08T14:24:55Z</time>
      </trkpt>
      <trkpt lat="44.4351" lon="1.32471">
        <ele>309.2</ele>
        <time>2025-03-08T14:24:56Z</time>
      </trkpt>
      <trkpt lat="44.43511" lon="1.32469">
        <ele>309.3</ele>
        <time>2025-03-08T14:24:57Z</time>
      </trkpt>
      <trkpt lat="44.43513" lon="1.32466">
        <ele>309.4</ele>
        <time>2025-03-08T14:24:58Z</time>
      </trkpt>
      <trkpt lat="44.43516" lon="1.32463">
        <ele>309.5</ele>
        <time>2025-03-08T14:24:59Z</time>
      </trkpt>
      <trkpt lat="44.43517" lon="1.3246">
        <ele>309.6</ele>
        <time>2025-03-08T14:25:00Z</time>
      </trkpt>
      <trkpt lat="44.43518" lon="1.32459">
        <ele>309.6</ele>
        <time>2025-03-08T14:25:01Z</time>
      </trkpt>
      <trkpt lat="44.43518" lon="1.32455">
        <ele>309.7</ele>
        <time>2025-03-08T14:25:02Z</time>
      </trkpt>
      <trkpt lat="44.43518" lon="1.32454">
        <ele>309.7</ele>
        <time>2025-03-08T14:25:03Z</time>
      </trkpt>
      <trkpt lat="44.43518" lon="1.32452">
        <ele>309.7</ele>
        <time>2025-03-08T14:25:04Z</time>
      </trkpt>
      <trkpt lat="44.43519" lon="1.32449">
        <ele>309.8</ele>
        <time>2025-03-08T14:25:05Z</time>
      </trkpt>
      <trkpt lat="44.43519" lon="1.32444">
        <ele>309.9</ele>
        <time>2025-03-08T14:25:06Z</time>
      </trkpt>
      <trkpt lat="44.43518" lon="1.32441">
        <ele>309.8</ele>
        <time>2025-03-08T14:25:07Z</time>
      </trkpt>
      <trkpt lat="44.43518" lon="1.32437">
        <ele>309.5</ele>
        <time>2025-03-08T14:25:08Z</time>
      </trkpt>
      <trkpt lat="44.43516" lon="1.32432">
        <ele>309.2</ele>
        <time>2025-03-08T14:25:09Z</time>
      </trkpt>
      <trkpt lat="44.43514" lon="1.32428">
        <ele>308.8</ele>
        <time>2025-03-08T14:25:10Z</time>
      </trkpt>
      <trkpt lat="44.43512" lon="1.32423">
        <ele>308.4</ele>
        <time>2025-03-08T14:25:11Z</time>
      </trkpt>
      <trkpt lat="44.4351" lon="1.32419">
        <ele>307.9</ele>
        <time>2025-03-08T14:25:12Z</time>
      </trkpt>
      <trkpt lat="44.43508" lon="1.32415">
        <ele>307.6</ele>
        <time>2025-03-08T14:25:13Z</time>
      </trkpt>
      <trkpt lat="44.43507" lon="1.32413">
        <ele>307.3</ele>
        <time>2025-03-08T14:25:14Z</time>
      </trkpt>
      <trkpt lat="44.43507" lon="1.32413">
        <ele>307.2</ele>
        <time>2025-03-08T14:25:15Z</time>
      </trkpt>
      <trkpt lat="44.43506" lon="1.32414">
        <ele>307.1</ele>
        <time>2025-03-08T14:25:16Z</time>
      </trkpt>
      <trkpt lat="44.43506" lon="1.32414">
        <ele>307</ele>
        <time>2025-03-08T14:25:17Z</time>
      </trkpt>
      <trkpt lat="44.43506" lon="1.32414">
        <ele>307</ele>
        <time>2025-03-08T14:25:18Z</time>
      </trkpt>
      <trkpt lat="44.43506" lon="1.32414">
        <ele>307</ele>
        <time>2025-03-08T14:25:19Z</time>
      </trkpt>
      <trkpt lat="44.43506" lon="1.32414">
        <ele>307</ele>
        <time>2025-03-08T14:25:20Z</time>
      </trkpt>
      <trkpt lat="44.43506" lon="1.32414">
        <ele>307</ele>
        <time>2025-03-08T14:25:21Z</time>
      </trkpt>
      <trkpt lat="44.43506" lon="1.32415">
        <ele>306.9</ele>
        <time>2025-03-08T14:25:22Z</time>
      </trkpt>
      <trkpt lat="44.43506" lon="1.32415">
        <ele>306.9</ele>
        <time>2025-03-08T14:25:23Z</time>
      </trkpt>
      <trkpt lat="44.43506" lon="1.32415">
        <ele>306.9</ele>
        <time>2025-03-08T14:25:24Z</time>
      </trkpt>
      <trkpt lat="44.43506" lon="1.32415">
        <ele>306.9</ele>
        <time>2025-03-08T14:25:25Z</time>
      </trkpt>
      <trkpt lat="44.43506" lon="1.32415">
        <ele>306.9</ele>
        <time>2025-03-08T14:25:26Z</time>
      </trkpt>
      <trkpt lat="44.43505" lon="1.32415">
        <ele>306.9</ele>
        <time>2025-03-08T14:25:27Z</time>
      </trkpt>
      <trkpt lat="44.43505" lon="1.32415">
        <ele>306.9</ele>
        <time>2025-03-08T14:25:28Z</time>
      </trkpt>
      <trkpt lat="44.43505" lon="1.32415">
        <ele>306.9</ele>
        <time>2025-03-08T14:25:29Z</time>
      </trkpt>
      <trkpt lat="44.43505" lon="1.32415">
        <ele>306.9</ele>
        <time>2025-03-08T14:25:30Z</time>
      </trkpt>
      <trkpt lat="44.43505" lon="1.32415">
        <ele>306.9</ele>
        <time>2025-03-08T14:25:31Z</time>
      </trkpt>
      <trkpt lat="44.43505" lon="1.32415">
        <ele>306.9</ele>
        <time>2025-03-08T14:25:32Z</time>
      </trkpt>
      <trkpt lat="44.43505" lon="1.32415">
        <ele>306.9</ele>
        <time>2025-03-08T14:25:33Z</time>
      </trkpt>
      <trkpt lat="44.43505" lon="1.32415">
        <ele>306.9</ele>
        <time>2025-03-08T14:25:34Z</time>
      </trkpt>
      <trkpt lat="44.43506" lon="1.32415">
        <ele>306.8</ele>
        <time>2025-03-08T14:25:35Z</time>
      </trkpt>
      <trkpt lat="44.43506" lon="1.32414">
        <ele>306.8</ele>
        <time>2025-03-08T14:25:36Z</time>
      </trkpt>
      <trkpt lat="44.43506" lon="1.32414">
        <ele>306.8</ele>
        <time>2025-03-08T14:25:37Z</time>
      </trkpt>
      <trkpt lat="44.43506" lon="1.32415">
        <ele>306.8</ele>
        <time>2025-03-08T14:25:38Z</time>
      </trkpt>
      <trkpt lat="44.43506" lon="1.32415">
        <ele>306.7</ele>
        <time>2025-03-08T14:25:39Z</time>
      </trkpt>
      <trkpt lat="44.43505" lon="1.32414">
        <ele>306.6</ele>
        <time>2025-03-08T14:25:40Z</time>
      </trkpt>
      <trkpt lat="44.43503" lon="1.32411">
        <ele>306.2</ele>
        <time>2025-03-08T14:25:41Z</time>
      </trkpt>
      <trkpt lat="44.435" lon="1.32408">
        <ele>305.5</ele>
        <time>2025-03-08T14:25:42Z</time>
      </trkpt>
      <trkpt lat="44.43497" lon="1.32405">
        <ele>304.9</ele>
        <time>2025-03-08T14:25:43Z</time>
      </trkpt>
      <trkpt lat="44.43495" lon="1.32402">
        <ele>304.3</ele>
        <time>2025-03-08T14:25:44Z</time>
      </trkpt>
      <trkpt lat="44.43492" lon="1.32399">
        <ele>303.6</ele>
        <time>2025-03-08T14:25:45Z</time>
      </trkpt>
      <trkpt lat="44.43491" lon="1.32398">
        <ele>303.5</ele>
        <time>2025-03-08T14:25:46Z</time>
      </trkpt>
      <trkpt lat="44.43488" lon="1.32396">
        <ele>302.9</ele>
        <time>2025-03-08T14:25:47Z</time>
      </trkpt>
      <trkpt lat="44.43487" lon="1.32395">
        <ele>302.6</ele>
        <time>2025-03-08T14:25:48Z</time>
      </trkpt>
      <trkpt lat="44.43485" lon="1.32393">
        <ele>302</ele>
        <time>2025-03-08T14:25:49Z</time>
      </trkpt>
      <trkpt lat="44.43484" lon="1.32392">
        <ele>301.8</ele>
        <time>2025-03-08T14:25:50Z</time>
      </trkpt>
      <trkpt lat="44.43482" lon="1.32389">
        <ele>301.2</ele>
        <time>2025-03-08T14:25:51Z</time>
      </trkpt>
      <trkpt lat="44.43481" lon="1.32388">
        <ele>301</ele>
        <time>2025-03-08T14:25:52Z</time>
      </trkpt>
      <trkpt lat="44.4348" lon="1.32386">
        <ele>300.5</ele>
        <time>2025-03-08T14:25:53Z</time>
      </trkpt>
      <trkpt lat="44.43481" lon="1.32383">
        <ele>300</ele>
        <time>2025-03-08T14:25:54Z</time>
      </trkpt>
      <trkpt lat="44.43483" lon="1.32381">
        <ele>299.3</ele>
        <time>2025-03-08T14:25:55Z</time>
      </trkpt>
      <trkpt lat="44.43485" lon="1.32377">
        <ele>298.4</ele>
        <time>2025-03-08T14:25:56Z</time>
      </trkpt>
      <trkpt lat="44.43489" lon="1.32373">
        <ele>297.6</ele>
        <time>2025-03-08T14:25:57Z</time>
      </trkpt>
      <trkpt lat="44.43492" lon="1.32368">
        <ele>296.9</ele>
        <time>2025-03-08T14:25:58Z</time>
      </trkpt>
      <trkpt lat="44.43496" lon="1.32363">
        <ele>296.3</ele>
        <time>2025-03-08T14:25:59Z</time>
      </trkpt>
      <trkpt lat="44.435" lon="1.32358">
        <ele>295.8</ele>
        <time>2025-03-08T14:26:00Z</time>
      </trkpt>
      <trkpt lat="44.43504" lon="1.32352">
        <ele>295.3</ele>
        <time>2025-03-08T14:26:01Z</time>
      </trkpt>
      <trkpt lat="44.43508" lon="1.32347">
        <ele>295</ele>
        <time>2025-03-08T14:26:02Z</time>
      </trkpt>
      <trkpt lat="44.43512" lon="1.32341">
        <ele>294.8</ele>
        <time>2025-03-08T14:26:03Z</time>
      </trkpt>
      <trkpt lat="44.43515" lon="1.32337">
        <ele>294.7</ele>
        <time>2025-03-08T14:26:04Z</time>
      </trkpt>
      <trkpt lat="44.43517" lon="1.32333">
        <ele>294.6</ele>
        <time>2025-03-08T14:26:05Z</time>
      </trkpt>
      <trkpt lat="44.43519" lon="1.32328">
        <ele>294.6</ele>
        <time>2025-03-08T14:26:06Z</time>
      </trkpt>
      <trkpt lat="44.43522" lon="1.32322">
        <ele>294.7</ele>
        <time>2025-03-08T14:26:07Z</time>
      </trkpt>
      <trkpt lat="44.43524" lon="1.32317">
        <ele>294.7</ele>
        <time>2025-03-08T14:26:08Z</time>
      </trkpt>
      <trkpt lat="44.43528" lon="1.32313">
        <ele>294.9</ele>
        <time>2025-03-08T14:26:09Z</time>
      </trkpt>
      <trkpt lat="44.43531" lon="1.3231">
        <ele>295</ele>
        <time>2025-03-08T14:26:10Z</time>
      </trkpt>
      <trkpt lat="44.43532" lon="1.32308">
        <ele>295.1</ele>
        <time>2025-03-08T14:26:11Z</time>
      </trkpt>
      <trkpt lat="44.43533" lon="1.32303">
        <ele>295.2</ele>
        <time>2025-03-08T14:26:12Z</time>
      </trkpt>
      <trkpt lat="44.43534" lon="1.32298">
        <ele>295.3</ele>
        <time>2025-03-08T14:26:13Z</time>
      </trkpt>
      <trkpt lat="44.43534" lon="1.32294">
        <ele>295.5</ele>
        <time>2025-03-08T14:26:14Z</time>
      </trkpt>
      <trkpt lat="44.43535" lon="1.32289">
        <ele>295.6</ele>
        <time>2025-03-08T14:26:15Z</time>
      </trkpt>
      <trkpt lat="44.43537" lon="1.32285">
        <ele>295.6</ele>
        <time>2025-03-08T14:26:16Z</time>
      </trkpt>
      <trkpt lat="44.43538" lon="1.3228">
        <ele>295.7</ele>
        <time>2025-03-08T14:26:17Z</time>
      </trkpt>
      <trkpt lat="44.43539" lon="1.32275">
        <ele>295.7</ele>
        <time>2025-03-08T14:26:18Z</time>
      </trkpt>
      <trkpt lat="44.43539" lon="1.3227">
        <ele>295.6</ele>
        <time>2025-03-08T14:26:19Z</time>
      </trkpt>
      <trkpt lat="44.43539" lon="1.32265">
        <ele>295.5</ele>
        <time>2025-03-08T14:26:20Z</time>
      </trkpt>
      <trkpt lat="44.43537" lon="1.32259">
        <ele>295.3</ele>
        <time>2025-03-08T14:26:21Z</time>
      </trkpt>
      <trkpt lat="44.43537" lon="1.32251">
        <ele>294.9</ele>
        <time>2025-03-08T14:26:22Z</time>
      </trkpt>
      <trkpt lat="44.43538" lon="1.32244">
        <ele>294.5</ele>
        <time>2025-03-08T14:26:23Z</time>
      </trkpt>
      <trkpt lat="44.43536" lon="1.3224">
        <ele>294.2</ele>
        <time>2025-03-08T14:26:24Z</time>
      </trkpt>
      <trkpt lat="44.43534" lon="1.32237">
        <ele>293.9</ele>
        <time>2025-03-08T14:26:25Z</time>
      </trkpt>
      <trkpt lat="44.43531" lon="1.32233">
        <ele>293.4</ele>
        <time>2025-03-08T14:26:26Z</time>
      </trkpt>
      <trkpt lat="44.4353" lon="1.32227">
        <ele>293</ele>
        <time>2025-03-08T14:26:27Z</time>
      </trkpt>
      <trkpt lat="44.43531" lon="1.32222">
        <ele>292.5</ele>
        <time>2025-03-08T14:26:28Z</time>
      </trkpt>
      <trkpt lat="44.43533" lon="1.32217">
        <ele>292.2</ele>
        <time>2025-03-08T14:26:29Z</time>
      </trkpt>
      <trkpt lat="44.43536" lon="1.32213">
        <ele>291.9</ele>
        <time>2025-03-08T14:26:30Z</time>
      </trkpt>
      <trkpt lat="44.43538" lon="1.3221">
        <ele>291.7</ele>
        <time>2025-03-08T14:26:31Z</time>
      </trkpt>
      <trkpt lat="44.43539" lon="1.32206">
        <ele>291.6</ele>
        <time>2025-03-08T14:26:32Z</time>
      </trkpt>
      <trkpt lat="44.4354" lon="1.32202">
        <ele>291.5</ele>
        <time>2025-03-08T14:26:33Z</time>
      </trkpt>
      <trkpt lat="44.4354" lon="1.32197">
        <ele>291.4</ele>
        <time>2025-03-08T14:26:34Z</time>
      </trkpt>
      <trkpt lat="44.4354" lon="1.32191">
        <ele>291.3</ele>
        <time>2025-03-08T14:26:35Z</time>
      </trkpt>
      <trkpt lat="44.43539" lon="1.32186">
        <ele>291.1</ele>
        <time>2025-03-08T14:26:36Z</time>
      </trkpt>
      <trkpt lat="44.43537" lon="1.3218">
        <ele>291</ele>
        <time>2025-03-08T14:26:37Z</time>
      </trkpt>
      <trkpt lat="44.43537" lon="1.32174">
        <ele>290.9</ele>
        <time>2025-03-08T14:26:38Z</time>
      </trkpt>
      <trkpt lat="44.43538" lon="1.32168">
        <ele>290.7</ele>
        <time>2025-03-08T14:26:39Z</time>
      </trkpt>
      <trkpt lat="44.43538" lon="1.32162">
        <ele>290.6</ele>
        <time>2025-03-08T14:26:40Z</time>
      </trkpt>
      <trkpt lat="44.43538" lon="1.32156">
        <ele>290.4</ele>
        <time>2025-03-08T14:26:41Z</time>
      </trkpt>
      <trkpt lat="44.43539" lon="1.32151">
        <ele>290.2</ele>
        <time>2025-03-08T14:26:42Z</time>
      </trkpt>
      <trkpt lat="44.4354" lon="1.32146">
        <ele>290</ele>
        <time>2025-03-08T14:26:43Z</time>
      </trkpt>
      <trkpt lat="44.4354" lon="1.32141">
        <ele>289.8</ele>
        <time>2025-03-08T14:26:44Z</time>
      </trkpt>
      <trkpt lat="44.43539" lon="1.32135">
        <ele>289.6</ele>
        <time>2025-03-08T14:26:45Z</time>
      </trkpt>
      <trkpt lat="44.43539" lon="1.32128">
        <ele>289.2</ele>
        <time>2025-03-08T14:26:46Z</time>
      </trkpt>
      <trkpt lat="44.43537" lon="1.32123">
        <ele>288.9</ele>
        <time>2025-03-08T14:26:47Z</time>
      </trkpt>
      <trkpt lat="44.43534" lon="1.32119">
        <ele>288.5</ele>
        <time>2025-03-08T14:26:48Z</time>
      </trkpt>
      <trkpt lat="44.4353" lon="1.32117">
        <ele>288.1</ele>
        <time>2025-03-08T14:26:49Z</time>
      </trkpt>
      <trkpt lat="44.43527" lon="1.32114">
        <ele>287.7</ele>
        <time>2025-03-08T14:26:50Z</time>
      </trkpt>
      <trkpt lat="44.43525" lon="1.32108">
        <ele>287.2</ele>
        <time>2025-03-08T14:26:51Z</time>
      </trkpt>
      <trkpt lat="44.43525" lon="1.32103">
        <ele>286.7</ele>
        <time>2025-03-08T14:26:52Z</time>
      </trkpt>
      <trkpt lat="44.43527" lon="1.32098">
        <ele>286.2</ele>
        <time>2025-03-08T14:26:53Z</time>
      </trkpt>
      <trkpt lat="44.43529" lon="1.32095">
        <ele>285.8</ele>
        <time>2025-03-08T14:26:54Z</time>
      </trkpt>
      <trkpt lat="44.43531" lon="1.3209">
        <ele>285.4</ele>
        <time>2025-03-08T14:26:55Z</time>
      </trkpt>
      <trkpt lat="44.43531" lon="1.32088">
        <ele>285.3</ele>
        <time>2025-03-08T14:26:56Z</time>
      </trkpt>
      <trkpt lat="44.43532" lon="1.32085">
        <ele>285.1</ele>
        <time>2025-03-08T14:26:57Z</time>
      </trkpt>
      <trkpt lat="44.43533" lon="1.3208">
        <ele>285</ele>
        <time>2025-03-08T14:26:58Z</time>
      </trkpt>
      <trkpt lat="44.43534" lon="1.32076">
        <ele>284.9</ele>
        <time>2025-03-08T14:26:59Z</time>
      </trkpt>
      <trkpt lat="44.43534" lon="1.32071">
        <ele>284.8</ele>
        <time>2025-03-08T14:27:00Z</time>
      </trkpt>
      <trkpt lat="44.43535" lon="1.32066">
        <ele>284.8</ele>
        <time>2025-03-08T14:27:01Z</time>
      </trkpt>
      <trkpt lat="44.43536" lon="1.32062">
        <ele>284.8</ele>
        <time>2025-03-08T14:27:02Z</time>
      </trkpt>
      <trkpt lat="44.43538" lon="1.32059">
        <ele>284.8</ele>
        <time>2025-03-08T14:27:03Z</time>
      </trkpt>
      <trkpt lat="44.43541" lon="1.32057">
        <ele>284.9</ele>
        <time>2025-03-08T14:27:04Z</time>
      </trkpt>
      <trkpt lat="44.43545" lon="1.32055">
        <ele>285.1</ele>
        <time>2025-03-08T14:27:05Z</time>
      </trkpt>
      <trkpt lat="44.43548" lon="1.32054">
        <ele>285.4</ele>
        <time>2025-03-08T14:27:06Z</time>
      </trkpt>
      <trkpt lat="44.43551" lon="1.32054">
        <ele>285.7</ele>
        <time>2025-03-08T14:27:07Z</time>
      </trkpt>
      <trkpt lat="44.43554" lon="1.32054">
        <ele>286</ele>
        <time>2025-03-08T14:27:08Z</time>
      </trkpt>
      <trkpt lat="44.43558" lon="1.32054">
        <ele>286.4</ele>
        <time>2025-03-08T14:27:09Z</time>
      </trkpt>
      <trkpt lat="44.43559" lon="1.32053">
        <ele>286.5</ele>
        <time>2025-03-08T14:27:10Z</time>
      </trkpt>
      <trkpt lat="44.43562" lon="1.32052">
        <ele>286.9</ele>
        <time>2025-03-08T14:27:11Z</time>
      </trkpt>
      <trkpt lat="44.43563" lon="1.32051">
        <ele>287.1</ele>
        <time>2025-03-08T14:27:12Z</time>
      </trkpt>
      <trkpt lat="44.43566" lon="1.32051">
        <ele>287.5</ele>
        <time>2025-03-08T14:27:13Z</time>
      </trkpt>
      <trkpt lat="44.43567" lon="1.32051">
        <ele>287.6</ele>
        <time>2025-03-08T14:27:14Z</time>
      </trkpt>
      <trkpt lat="44.43569" lon="1.32053">
        <ele>288</ele>
        <time>2025-03-08T14:27:15Z</time>
      </trkpt>
      <trkpt lat="44.4357" lon="1.32053">
        <ele>288.2</ele>
        <time>2025-03-08T14:27:16Z</time>
      </trkpt>
      <trkpt lat="44.43573" lon="1.32057">
        <ele>288.7</ele>
        <time>2025-03-08T14:27:17Z</time>
      </trkpt>
      <trkpt lat="44.43573" lon="1.32058">
        <ele>288.9</ele>
        <time>2025-03-08T14:27:18Z</time>
      </trkpt>
      <trkpt lat="44.43575" lon="1.3206">
        <ele>289.2</ele>
        <time>2025-03-08T14:27:19Z</time>
      </trkpt>
      <trkpt lat="44.43576" lon="1.3206">
        <ele>289.4</ele>
        <time>2025-03-08T14:27:20Z</time>
      </trkpt>
      <trkpt lat="44.43577" lon="1.32061">
        <ele>289.6</ele>
        <time>2025-03-08T14:27:21Z</time>
      </trkpt>
      <trkpt lat="44.43579" lon="1.32063">
        <ele>289.9</ele>
        <time>2025-03-08T14:27:22Z</time>
      </trkpt>
      <trkpt lat="44.43581" lon="1.32065">
        <ele>290.3</ele>
        <time>2025-03-08T14:27:23Z</time>
      </trkpt>
      <trkpt lat="44.43582" lon="1.32066">
        <ele>290.5</ele>
        <time>2025-03-08T14:27:24Z</time>
      </trkpt>
      <trkpt lat="44.43585" lon="1.32068">
        <ele>291</ele>
        <time>2025-03-08T14:27:25Z</time>
      </trkpt>
      <trkpt lat="44.43586" lon="1.32068">
        <ele>291.2</ele>
        <time>2025-03-08T14:27:26Z</time>
      </trkpt>
      <trkpt lat="44.43588" lon="1.32069">
        <ele>291.5</ele>
        <time>2025-03-08T14:27:27Z</time>
      </trkpt>
      <trkpt lat="44.43589" lon="1.32069">
        <ele>291.6</ele>
        <time>2025-03-08T14:27:28Z</time>
      </trkpt>
      <trkpt lat="44.4359" lon="1.3207">
        <ele>291.8</ele>
        <time>2025-03-08T14:27:29Z</time>
      </trkpt>
      <trkpt lat="44.43593" lon="1.32072">
        <ele>292.2</ele>
        <time>2025-03-08T14:27:30Z</time>
      </trkpt>
      <trkpt lat="44.43594" lon="1.32073">
        <ele>292.3</ele>
        <time>2025-03-08T14:27:31Z</time>
      </trkpt>
      <trkpt lat="44.43597" lon="1.32074">
        <ele>292.7</ele>
        <time>2025-03-08T14:27:32Z</time>
      </trkpt>
      <trkpt lat="44.43598" lon="1.32074">
        <ele>292.8</ele>
        <time>2025-03-08T14:27:33Z</time>
      </trkpt>
      <trkpt lat="44.43601" lon="1.32074">
        <ele>293.1</ele>
        <time>2025-03-08T14:27:34Z</time>
      </trkpt>
      <trkpt lat="44.43602" lon="1.32074">
        <ele>293.2</ele>
        <time>2025-03-08T14:27:35Z</time>
      </trkpt>
      <trkpt lat="44.43605" lon="1.32075">
        <ele>293.4</ele>
        <time>2025-03-08T14:27:36Z</time>
      </trkpt>
      <trkpt lat="44.43606" lon="1.32075">
        <ele>293.5</ele>
        <time>2025-03-08T14:27:37Z</time>
      </trkpt>
      <trkpt lat="44.43609" lon="1.32075">
        <ele>293.7</ele>
        <time>2025-03-08T14:27:38Z</time>
      </trkpt>
      <trkpt lat="44.43611" lon="1.32075">
        <ele>293.7</ele>
        <time>2025-03-08T14:27:39Z</time>
      </trkpt>
      <trkpt lat="44.43614" lon="1.32075">
        <ele>293.8</ele>
        <time>2025-03-08T14:27:40Z</time>
      </trkpt>
      <trkpt lat="44.43615" lon="1.32075">
        <ele>293.8</ele>
        <time>2025-03-08T14:27:41Z</time>
      </trkpt>
      <trkpt lat="44.43618" lon="1.32074">
        <ele>293.8</ele>
        <time>2025-03-08T14:27:42Z</time>
      </trkpt>
      <trkpt lat="44.4362" lon="1.32072">
        <ele>293.8</ele>
        <time>2025-03-08T14:27:43Z</time>
      </trkpt>
      <trkpt lat="44.43623" lon="1.3207">
        <ele>293.8</ele>
        <time>2025-03-08T14:27:44Z</time>
      </trkpt>
      <trkpt lat="44.43628" lon="1.32067">
        <ele>293.7</ele>
        <time>2025-03-08T14:27:45Z</time>
      </trkpt>
      <trkpt lat="44.43632" lon="1.32067">
        <ele>293.6</ele>
        <time>2025-03-08T14:27:46Z</time>
      </trkpt>
      <trkpt lat="44.43636" lon="1.32066">
        <ele>293.5</ele>
        <time>2025-03-08T14:27:47Z</time>
      </trkpt>
      <trkpt lat="44.4364" lon="1.32065">
        <ele>293.4</ele>
        <time>2025-03-08T14:27:48Z</time>
      </trkpt>
      <trkpt lat="44.43644" lon="1.32062">
        <ele>293.3</ele>
        <time>2025-03-08T14:27:49Z</time>
      </trkpt>
      <trkpt lat="44.43648" lon="1.32061">
        <ele>293.3</ele>
        <time>2025-03-08T14:27:50Z</time>
      </trkpt>
      <trkpt lat="44.43651" lon="1.32062">
        <ele>293.3</ele>
        <time>2025-03-08T14:27:51Z</time>
      </trkpt>
      <trkpt lat="44.43654" lon="1.32063">
        <ele>293.3</ele>
        <time>2025-03-08T14:27:52Z</time>
      </trkpt>
      <trkpt lat="44.43657" lon="1.32065">
        <ele>293.3</ele>
        <time>2025-03-08T14:27:53Z</time>
      </trkpt>
      <trkpt lat="44.4366" lon="1.32066">
        <ele>293.4</ele>
        <time>2025-03-08T14:27:54Z</time>
      </trkpt>
      <trkpt lat="44.43662" lon="1.32066">
        <ele>293.5</ele>
        <time>2025-03-08T14:27:55Z</time>
      </trkpt>
      <trkpt lat="44.43666" lon="1.32066">
        <ele>293.6</ele>
        <time>2025-03-08T14:27:56Z</time>
      </trkpt>
      <trkpt lat="44.43667" lon="1.32066">
        <ele>293.6</ele>
        <time>2025-03-08T14:27:57Z</time>
      </trkpt>
      <trkpt lat="44.43671" lon="1.32064">
        <ele>293.7</ele>
        <time>2025-03-08T14:27:58Z</time>
      </trkpt>
      <trkpt lat="44.43672" lon="1.32063">
        <ele>293.7</ele>
        <time>2025-03-08T14:27:59Z</time>
      </trkpt>
      <trkpt lat="44.43674" lon="1.3206">
        <ele>293.8</ele>
        <time>2025-03-08T14:28:00Z</time>
      </trkpt>
      <trkpt lat="44.43676" lon="1.32057">
        <ele>293.8</ele>
        <time>2025-03-08T14:28:01Z</time>
      </trkpt>
      <trkpt lat="44.43678" lon="1.32054">
        <ele>293.8</ele>
        <time>2025-03-08T14:28:02Z</time>
      </trkpt>
      <trkpt lat="44.43681" lon="1.32051">
        <ele>293.8</ele>
        <time>2025-03-08T14:28:03Z</time>
      </trkpt>
      <trkpt lat="44.43684" lon="1.32048">
        <ele>293.8</ele>
        <time>2025-03-08T14:28:04Z</time>
      </trkpt>
      <trkpt lat="44.43686" lon="1.32045">
        <ele>293.8</ele>
        <time>2025-03-08T14:28:05Z</time>
      </trkpt>
      <trkpt lat="44.43688" lon="1.32041">
        <ele>293.7</ele>
        <time>2025-03-08T14:28:06Z</time>
      </trkpt>
      <trkpt lat="44.43689" lon="1.32037">
        <ele>293.7</ele>
        <time>2025-03-08T14:28:07Z</time>
      </trkpt>
      <trkpt lat="44.43691" lon="1.32031">
        <ele>293.6</ele>
        <time>2025-03-08T14:28:08Z</time>
      </trkpt>
      <trkpt lat="44.43693" lon="1.32024">
        <ele>293.4</ele>
        <time>2025-03-08T14:28:09Z</time>
      </trkpt>
      <trkpt lat="44.43695" lon="1.32016">
        <ele>293.2</ele>
        <time>2025-03-08T14:28:10Z</time>
      </trkpt>
      <trkpt lat="44.43697" lon="1.32009">
        <ele>293</ele>
        <time>2025-03-08T14:28:11Z</time>
      </trkpt>
      <trkpt lat="44.43699" lon="1.32002">
        <ele>292.8</ele>
        <time>2025-03-08T14:28:12Z</time>
      </trkpt>
      <trkpt lat="44.437" lon="1.31994">
        <ele>292.6</ele>
        <time>2025-03-08T14:28:13Z</time>
      </trkpt>
      <trkpt lat="44.43703" lon="1.31987">
        <ele>292.3</ele>
        <time>2025-03-08T14:28:14Z</time>
      </trkpt>
      <trkpt lat="44.43705" lon="1.3198">
        <ele>292</ele>
        <time>2025-03-08T14:28:15Z</time>
      </trkpt>
      <trkpt lat="44.43708" lon="1.31973">
        <ele>291.8</ele>
        <time>2025-03-08T14:28:16Z</time>
      </trkpt>
      <trkpt lat="44.4371" lon="1.31966">
        <ele>291.6</ele>
        <time>2025-03-08T14:28:17Z</time>
      </trkpt>
      <trkpt lat="44.43712" lon="1.31959">
        <ele>291.4</ele>
        <time>2025-03-08T14:28:18Z</time>
      </trkpt>
      <trkpt lat="44.43712" lon="1.31953">
        <ele>291.2</ele>
        <time>2025-03-08T14:28:19Z</time>
      </trkpt>
      <trkpt lat="44.4371" lon="1.31947">
        <ele>291.1</ele>
        <time>2025-03-08T14:28:20Z</time>
      </trkpt>
      <trkpt lat="44.4371" lon="1.31942">
        <ele>290.9</ele>
        <time>2025-03-08T14:28:21Z</time>
      </trkpt>
      <trkpt lat="44.43711" lon="1.31938">
        <ele>290.8</ele>
        <time>2025-03-08T14:28:22Z</time>
      </trkpt>
      <trkpt lat="44.43714" lon="1.31935">
        <ele>290.6</ele>
        <time>2025-03-08T14:28:23Z</time>
      </trkpt>
      <trkpt lat="44.43716" lon="1.31932">
        <ele>290.5</ele>
        <time>2025-03-08T14:28:24Z</time>
      </trkpt>
      <trkpt lat="44.43719" lon="1.31928">
        <ele>290.3</ele>
        <time>2025-03-08T14:28:25Z</time>
      </trkpt>
      <trkpt lat="44.43722" lon="1.31925">
        <ele>290.2</ele>
        <time>2025-03-08T14:28:26Z</time>
      </trkpt>
      <trkpt lat="44.43725" lon="1.31922">
        <ele>290.1</ele>
        <time>2025-03-08T14:28:27Z</time>
      </trkpt>
      <trkpt lat="44.43727" lon="1.31918">
        <ele>290</ele>
        <time>2025-03-08T14:28:28Z</time>
      </trkpt>
      <trkpt lat="44.43729" lon="1.31915">
        <ele>290</ele>
        <time>2025-03-08T14:28:29Z</time>
      </trkpt>
      <trkpt lat="44.4373" lon="1.31911">
        <ele>289.9</ele>
        <time>2025-03-08T14:28:30Z</time>
      </trkpt>
      <trkpt lat="44.43731" lon="1.31907">
        <ele>289.8</ele>
        <time>2025-03-08T14:28:31Z</time>
      </trkpt>
      <trkpt lat="44.43732" lon="1.31903">
        <ele>289.8</ele>
        <time>2025-03-08T14:28:32Z</time>
      </trkpt>
      <trkpt lat="44.43734" lon="1.31898">
        <ele>289.7</ele>
        <time>2025-03-08T14:28:33Z</time>
      </trkpt>
      <trkpt lat="44.43736" lon="1.31892">
        <ele>289.6</ele>
        <time>2025-03-08T14:28:34Z</time>
      </trkpt>
      <trkpt lat="44.43736" lon="1.31886">
        <ele>289.5</ele>
        <time>2025-03-08T14:28:35Z</time>
      </trkpt>
      <trkpt lat="44.43736" lon="1.31879">
        <ele>289.4</ele>
        <time>2025-03-08T14:28:36Z</time>
      </trkpt>
      <trkpt lat="44.43736" lon="1.31872">
        <ele>289.2</ele>
        <time>2025-03-08T14:28:37Z</time>
      </trkpt>
      <trkpt lat="44.43738" lon="1.31865">
        <ele>289.1</ele>
        <time>2025-03-08T14:28:38Z</time>
      </trkpt>
      <trkpt lat="44.43742" lon="1.31858">
        <ele>288.9</ele>
        <time>2025-03-08T14:28:39Z</time>
      </trkpt>
      <trkpt lat="44.43746" lon="1.31853">
        <ele>288.9</ele>
        <time>2025-03-08T14:28:40Z</time>
      </trkpt>
      <trkpt lat="44.4375" lon="1.3185">
        <ele>288.8</ele>
        <time>2025-03-08T14:28:41Z</time>
      </trkpt>
      <trkpt lat="44.43754" lon="1.31851">
        <ele>288.8</ele>
        <time>2025-03-08T14:28:42Z</time>
      </trkpt>
      <trkpt lat="44.43759" lon="1.31853">
        <ele>288.8</ele>
        <time>2025-03-08T14:28:43Z</time>
      </trkpt>
      <trkpt lat="44.43762" lon="1.3185">
        <ele>288.8</ele>
        <time>2025-03-08T14:28:44Z</time>
      </trkpt>
      <trkpt lat="44.43764" lon="1.31844">
        <ele>288.8</ele>
        <time>2025-03-08T14:28:45Z</time>
      </trkpt>
      <trkpt lat="44.43765" lon="1.31837">
        <ele>288.6</ele>
        <time>2025-03-08T14:28:46Z</time>
      </trkpt>
      <trkpt lat="44.43765" lon="1.31828">
        <ele>288.4</ele>
        <time>2025-03-08T14:28:47Z</time>
      </trkpt>
      <trkpt lat="44.43766" lon="1.31819">
        <ele>288.2</ele>
        <time>2025-03-08T14:28:48Z</time>
      </trkpt>
      <trkpt lat="44.43767" lon="1.31811">
        <ele>287.9</ele>
        <time>2025-03-08T14:28:49Z</time>
      </trkpt>
      <trkpt lat="44.43768" lon="1.31803">
        <ele>287.6</ele>
        <time>2025-03-08T14:28:50Z</time>
      </trkpt>
      <trkpt lat="44.43771" lon="1.31798">
        <ele>287.4</ele>
        <time>2025-03-08T14:28:51Z</time>
      </trkpt>
      <trkpt lat="44.43774" lon="1.31793">
        <ele>287.1</ele>
        <time>2025-03-08T14:28:52Z</time>
      </trkpt>
      <trkpt lat="44.43777" lon="1.31786">
        <ele>286.8</ele>
        <time>2025-03-08T14:28:53Z</time>
      </trkpt>
      <trkpt lat="44.43778" lon="1.31777">
        <ele>286.5</ele>
        <time>2025-03-08T14:28:54Z</time>
      </trkpt>
      <trkpt lat="44.43777" lon="1.31768">
        <ele>286.1</ele>
        <time>2025-03-08T14:28:55Z</time>
      </trkpt>
      <trkpt lat="44.43779" lon="1.31761">
        <ele>285.8</ele>
        <time>2025-03-08T14:28:56Z</time>
      </trkpt>
      <trkpt lat="44.43782" lon="1.31755">
        <ele>285.6</ele>
        <time>2025-03-08T14:28:57Z</time>
      </trkpt>
      <trkpt lat="44.43787" lon="1.31752">
        <ele>285.4</ele>
        <time>2025-03-08T14:28:58Z</time>
      </trkpt>
      <trkpt lat="44.43793" lon="1.3175">
        <ele>285.3</ele>
        <time>2025-03-08T14:28:59Z</time>
      </trkpt>
      <trkpt lat="44.43798" lon="1.31749">
        <ele>285.3</ele>
        <time>2025-03-08T14:29:00Z</time>
      </trkpt>
      <trkpt lat="44.43803" lon="1.31748">
        <ele>285.4</ele>
        <time>2025-03-08T14:29:01Z</time>
      </trkpt>
      <trkpt lat="44.43807" lon="1.31746">
        <ele>285.5</ele>
        <time>2025-03-08T14:29:02Z</time>
      </trkpt>
      <trkpt lat="44.43811" lon="1.31744">
        <ele>285.6</ele>
        <time>2025-03-08T14:29:03Z</time>
      </trkpt>
      <trkpt lat="44.43814" lon="1.31742">
        <ele>285.7</ele>
        <time>2025-03-08T14:29:04Z</time>
      </trkpt>
      <trkpt lat="44.43818" lon="1.31742">
        <ele>285.9</ele>
        <time>2025-03-08T14:29:05Z</time>
      </trkpt>
      <trkpt lat="44.43821" lon="1.31742">
        <ele>286</ele>
        <time>2025-03-08T14:29:06Z</time>
      </trkpt>
      <trkpt lat="44.43824" lon="1.31744">
        <ele>286.1</ele>
        <time>2025-03-08T14:29:07Z</time>
      </trkpt>
      <trkpt lat="44.43827" lon="1.31746">
        <ele>286.3</ele>
        <time>2025-03-08T14:29:08Z</time>
      </trkpt>
      <trkpt lat="44.43831" lon="1.31746">
        <ele>286.4</ele>
        <time>2025-03-08T14:29:09Z</time>
      </trkpt>
      <trkpt lat="44.43834" lon="1.31744">
        <ele>286.5</ele>
        <time>2025-03-08T14:29:10Z</time>
      </trkpt>
      <trkpt lat="44.43837" lon="1.31739">
        <ele>286.5</ele>
        <time>2025-03-08T14:29:11Z</time>
      </trkpt>
      <trkpt lat="44.4384" lon="1.31733">
        <ele>286.5</ele>
        <time>2025-03-08T14:29:12Z</time>
      </trkpt>
      <trkpt lat="44.43842" lon="1.31727">
        <ele>286.5</ele>
        <time>2025-03-08T14:29:13Z</time>
      </trkpt>
      <trkpt lat="44.43846" lon="1.31723">
        <ele>286.4</ele>
        <time>2025-03-08T14:29:14Z</time>
      </trkpt>
      <trkpt lat="44.4385" lon="1.31719">
        <ele>286.3</ele>
        <time>2025-03-08T14:29:15Z</time>
      </trkpt>
      <trkpt lat="44.43854" lon="1.31714">
        <ele>286.2</ele>
        <time>2025-03-08T14:29:16Z</time>
      </trkpt>
      <trkpt lat="44.43857" lon="1.31709">
        <ele>286.1</ele>
        <time>2025-03-08T14:29:17Z</time>
      </trkpt>
      <trkpt lat="44.43859" lon="1.31703">
        <ele>285.9</ele>
        <time>2025-03-08T14:29:18Z</time>
      </trkpt>
      <trkpt lat="44.4386" lon="1.31696">
        <ele>285.8</ele>
        <time>2025-03-08T14:29:19Z</time>
      </trkpt>
      <trkpt lat="44.43862" lon="1.31689">
        <ele>285.6</ele>
        <time>2025-03-08T14:29:20Z</time>
      </trkpt>
      <trkpt lat="44.43865" lon="1.31683">
        <ele>285.4</ele>
        <time>2025-03-08T14:29:21Z</time>
      </trkpt>
      <trkpt lat="44.43868" lon="1.31677">
        <ele>285.2</ele>
        <time>2025-03-08T14:29:22Z</time>
      </trkpt>
      <trkpt lat="44.4387" lon="1.31671">
        <ele>285</ele>
        <time>2025-03-08T14:29:23Z</time>
      </trkpt>
      <trkpt lat="44.43869" lon="1.31665">
        <ele>284.8</ele>
        <time>2025-03-08T14:29:24Z</time>
      </trkpt>
      <trkpt lat="44.4387" lon="1.31661">
        <ele>284.6</ele>
        <time>2025-03-08T14:29:25Z</time>
      </trkpt>
      <trkpt lat="44.43874" lon="1.31658">
        <ele>284.4</ele>
        <time>2025-03-08T14:29:26Z</time>
      </trkpt>
      <trkpt lat="44.43879" lon="1.31655">
        <ele>284.1</ele>
        <time>2025-03-08T14:29:27Z</time>
      </trkpt>
      <trkpt lat="44.43884" lon="1.31651">
        <ele>283.8</ele>
        <time>2025-03-08T14:29:28Z</time>
      </trkpt>
      <trkpt lat="44.43888" lon="1.31647">
        <ele>283.6</ele>
        <time>2025-03-08T14:29:29Z</time>
      </trkpt>
      <trkpt lat="44.43893" lon="1.31641">
        <ele>283.4</ele>
        <time>2025-03-08T14:29:30Z</time>
      </trkpt>
      <trkpt lat="44.43897" lon="1.31636">
        <ele>283.3</ele>
        <time>2025-03-08T14:29:31Z</time>
      </trkpt>
      <trkpt lat="44.43902" lon="1.31633">
        <ele>283.2</ele>
        <time>2025-03-08T14:29:32Z</time>
      </trkpt>
      <trkpt lat="44.43905" lon="1.31629">
        <ele>283.1</ele>
        <time>2025-03-08T14:29:33Z</time>
      </trkpt>
      <trkpt lat="44.43909" lon="1.31627">
        <ele>283.1</ele>
        <time>2025-03-08T14:29:34Z</time>
      </trkpt>
      <trkpt lat="44.43913" lon="1.31625">
        <ele>283.1</ele>
        <time>2025-03-08T14:29:35Z</time>
      </trkpt>
      <trkpt lat="44.43917" lon="1.31622">
        <ele>283</ele>
        <time>2025-03-08T14:29:36Z</time>
      </trkpt>
      <trkpt lat="44.43919" lon="1.31618">
        <ele>283</ele>
        <time>2025-03-08T14:29:37Z</time>
      </trkpt>
      <trkpt lat="44.43919" lon="1.31612">
        <ele>282.9</ele>
        <time>2025-03-08T14:29:38Z</time>
      </trkpt>
      <trkpt lat="44.4392" lon="1.31606">
        <ele>282.8</ele>
        <time>2025-03-08T14:29:39Z</time>
      </trkpt>
      <trkpt lat="44.43921" lon="1.31601">
        <ele>282.7</ele>
        <time>2025-03-08T14:29:40Z</time>
      </trkpt>
      <trkpt lat="44.43924" lon="1.31595">
        <ele>282.5</ele>
        <time>2025-03-08T14:29:41Z</time>
      </trkpt>
      <trkpt lat="44.43925" lon="1.31588">
        <ele>282.2</ele>
        <time>2025-03-08T14:29:42Z</time>
      </trkpt>
      <trkpt lat="44.43925" lon="1.31581">
        <ele>282</ele>
        <time>2025-03-08T14:29:43Z</time>
      </trkpt>
      <trkpt lat="44.43925" lon="1.31575">
        <ele>281.7</ele>
        <time>2025-03-08T14:29:44Z</time>
      </trkpt>
      <trkpt lat="44.43926" lon="1.3157">
        <ele>281.5</ele>
        <time>2025-03-08T14:29:45Z</time>
      </trkpt>
      <trkpt lat="44.43927" lon="1.31565">
        <ele>281.2</ele>
        <time>2025-03-08T14:29:46Z</time>
      </trkpt>
      <trkpt lat="44.43927" lon="1.31562">
        <ele>281.1</ele>
        <time>2025-03-08T14:29:47Z</time>
      </trkpt>
      <trkpt lat="44.43929" lon="1.31557">
        <ele>280.9</ele>
        <time>2025-03-08T14:29:48Z</time>
      </trkpt>
      <trkpt lat="44.4393" lon="1.3155">
        <ele>280.6</ele>
        <time>2025-03-08T14:29:49Z</time>
      </trkpt>
      <trkpt lat="44.43932" lon="1.31544">
        <ele>280.3</ele>
        <time>2025-03-08T14:29:50Z</time>
      </trkpt>
      <trkpt lat="44.43934" lon="1.31537">
        <ele>279.9</ele>
        <time>2025-03-08T14:29:51Z</time>
      </trkpt>
      <trkpt lat="44.43936" lon="1.3153">
        <ele>279.5</ele>
        <time>2025-03-08T14:29:52Z</time>
      </trkpt>
      <trkpt lat="44.4394" lon="1.31524">
        <ele>279.1</ele>
        <time>2025-03-08T14:29:53Z</time>
      </trkpt>
      <trkpt lat="44.43943" lon="1.3152">
        <ele>278.8</ele>
        <time>2025-03-08T14:29:54Z</time>
      </trkpt>
      <trkpt lat="44.43946" lon="1.31516">
        <ele>278.5</ele>
        <time>2025-03-08T14:29:55Z</time>
      </trkpt>
      <trkpt lat="44.43948" lon="1.31511">
        <ele>278.1</ele>
        <time>2025-03-08T14:29:56Z</time>
      </trkpt>
      <trkpt lat="44.43951" lon="1.31504">
        <ele>277.7</ele>
        <time>2025-03-08T14:29:57Z</time>
      </trkpt>
      <trkpt lat="44.43954" lon="1.31497">
        <ele>277.3</ele>
        <time>2025-03-08T14:29:58Z</time>
      </trkpt>
      <trkpt lat="44.43956" lon="1.31493">
        <ele>276.9</ele>
        <time>2025-03-08T14:29:59Z</time>
      </trkpt>
      <trkpt lat="44.43956" lon="1.31488">
        <ele>276.7</ele>
        <time>2025-03-08T14:30:00Z</time>
      </trkpt>
      <trkpt lat="44.43956" lon="1.31483">
        <ele>276.3</ele>
        <time>2025-03-08T14:30:01Z</time>
      </trkpt>
      <trkpt lat="44.43956" lon="1.31477">
        <ele>275.9</ele>
        <time>2025-03-08T14:30:02Z</time>
      </trkpt>
      <trkpt lat="44.43957" lon="1.31471">
        <ele>275.4</ele>
        <time>2025-03-08T14:30:03Z</time>
      </trkpt>
      <trkpt lat="44.43959" lon="1.31464">
        <ele>274.9</ele>
        <time>2025-03-08T14:30:04Z</time>
      </trkpt>
      <trkpt lat="44.43961" lon="1.31458">
        <ele>274.3</ele>
        <time>2025-03-08T14:30:05Z</time>
      </trkpt>
      <trkpt lat="44.43963" lon="1.31452">
        <ele>273.8</ele>
        <time>2025-03-08T14:30:06Z</time>
      </trkpt>
      <trkpt lat="44.43964" lon="1.31445">
        <ele>273.4</ele>
        <time>2025-03-08T14:30:07Z</time>
      </trkpt>
      <trkpt lat="44.43967" lon="1.31438">
        <ele>272.9</ele>
        <time>2025-03-08T14:30:08Z</time>
      </trkpt>
      <trkpt lat="44.4397" lon="1.3143">
        <ele>272.5</ele>
        <time>2025-03-08T14:30:09Z</time>
      </trkpt>
      <trkpt lat="44.43973" lon="1.31424">
        <ele>272.2</ele>
        <time>2025-03-08T14:30:10Z</time>
      </trkpt>
      <trkpt lat="44.43976" lon="1.31419">
        <ele>272.1</ele>
        <time>2025-03-08T14:30:11Z</time>
      </trkpt>
      <trkpt lat="44.43979" lon="1.31415">
        <ele>272.1</ele>
        <time>2025-03-08T14:30:12Z</time>
      </trkpt>
      <trkpt lat="44.43981" lon="1.31412">
        <ele>272.1</ele>
        <time>2025-03-08T14:30:13Z</time>
      </trkpt>
      <trkpt lat="44.43983" lon="1.3141">
        <ele>272.1</ele>
        <time>2025-03-08T14:30:14Z</time>
      </trkpt>
      <trkpt lat="44.43986" lon="1.31407">
        <ele>272.3</ele>
        <time>2025-03-08T14:30:15Z</time>
      </trkpt>
      <trkpt lat="44.43987" lon="1.31406">
        <ele>272.3</ele>
        <time>2025-03-08T14:30:16Z</time>
      </trkpt>
      <trkpt lat="44.43989" lon="1.31404">
        <ele>272.5</ele>
        <time>2025-03-08T14:30:17Z</time>
      </trkpt>
      <trkpt lat="44.43992" lon="1.31402">
        <ele>272.7</ele>
        <time>2025-03-08T14:30:18Z</time>
      </trkpt>
      <trkpt lat="44.43993" lon="1.31402">
        <ele>272.7</ele>
        <time>2025-03-08T14:30:19Z</time>
      </trkpt>
      <trkpt lat="44.43993" lon="1.31402">
        <ele>272.8</ele>
        <time>2025-03-08T14:30:20Z</time>
      </trkpt>
      <trkpt lat="44.43994" lon="1.31402">
        <ele>272.8</ele>
        <time>2025-03-08T14:30:21Z</time>
      </trkpt>
      <trkpt lat="44.43994" lon="1.31402">
        <ele>272.8</ele>
        <time>2025-03-08T14:30:22Z</time>
      </trkpt>
      <trkpt lat="44.43994" lon="1.31402">
        <ele>272.9</ele>
        <time>2025-03-08T14:30:23Z</time>
      </trkpt>
      <trkpt lat="44.43995" lon="1.31401">
        <ele>272.9</ele>
        <time>2025-03-08T14:30:24Z</time>
      </trkpt>
      <trkpt lat="44.43995" lon="1.31401">
        <ele>272.9</ele>
        <time>2025-03-08T14:30:25Z</time>
      </trkpt>
      <trkpt lat="44.43995" lon="1.31401">
        <ele>272.9</ele>
        <time>2025-03-08T14:30:26Z</time>
      </trkpt>
      <trkpt lat="44.43995" lon="1.31401">
        <ele>272.9</ele>
        <time>2025-03-08T14:30:27Z</time>
      </trkpt>
      <trkpt lat="44.43995" lon="1.31401">
        <ele>272.9</ele>
        <time>2025-03-08T14:30:28Z</time>
      </trkpt>
      <trkpt lat="44.43995" lon="1.31401">
        <ele>272.9</ele>
        <time>2025-03-08T14:30:29Z</time>
      </trkpt>
      <trkpt lat="44.43995" lon="1.31401">
        <ele>272.9</ele>
        <time>2025-03-08T14:30:30Z</time>
      </trkpt>
      <trkpt lat="44.43995" lon="1.31401">
        <ele>272.9</ele>
        <time>2025-03-08T14:30:31Z</time>
      </trkpt>
      <trkpt lat="44.43995" lon="1.31401">
        <ele>272.9</ele>
        <time>2025-03-08T14:30:32Z</time>
      </trkpt>
      <trkpt lat="44.43995" lon="1.31401">
        <ele>272.9</ele>
        <time>2025-03-08T14:30:33Z</time>
      </trkpt>
      <trkpt lat="44.43995" lon="1.31401">
        <ele>272.9</ele>
        <time>2025-03-08T14:30:34Z</time>
      </trkpt>
      <trkpt lat="44.43995" lon="1.31401">
        <ele>272.9</ele>
        <time>2025-03-08T14:30:35Z</time>
      </trkpt>
      <trkpt lat="44.43995" lon="1.31401">
        <ele>272.9</ele>
        <time>2025-03-08T14:30:36Z</time>
      </trkpt>
      <trkpt lat="44.43995" lon="1.31401">
        <ele>272.9</ele>
        <time>2025-03-08T14:30:37Z</time>
      </trkpt>
      <trkpt lat="44.43995" lon="1.31401">
        <ele>272.9</ele>
        <time>2025-03-08T14:30:38Z</time>
      </trkpt>
      <trkpt lat="44.43995" lon="1.31401">
        <ele>272.9</ele>
        <time>2025-03-08T14:30:39Z</time>
      </trkpt>
      <trkpt lat="44.43995" lon="1.314">
        <ele>273</ele>
        <time>2025-03-08T14:30:40Z</time>
      </trkpt>
      <trkpt lat="44.43996" lon="1.31399">
        <ele>273.1</ele>
        <time>2025-03-08T14:30:41Z</time>
      </trkpt>
      <trkpt lat="44.43997" lon="1.31398">
        <ele>273.2</ele>
        <time>2025-03-08T14:30:42Z</time>
      </trkpt>
      <trkpt lat="44.43998" lon="1.31399">
        <ele>273.2</ele>
        <time>2025-03-08T14:30:43Z</time>
      </trkpt>
      <trkpt lat="44.43998" lon="1.31399">
        <ele>273.2</ele>
        <time>2025-03-08T14:30:44Z</time>
      </trkpt>
      <trkpt lat="44.43998" lon="1.31399">
        <ele>273.2</ele>
        <time>2025-03-08T14:30:45Z</time>
      </trkpt>
      <trkpt lat="44.43998" lon="1.31399">
        <ele>273.2</ele>
        <time>2025-03-08T14:30:46Z</time>
      </trkpt>
      <trkpt lat="44.43998" lon="1.31399">
        <ele>273.2</ele>
        <time>2025-03-08T14:30:47Z</time>
      </trkpt>
      <trkpt lat="44.43998" lon="1.31399">
        <ele>273.2</ele>
        <time>2025-03-08T14:30:48Z</time>
      </trkpt>
      <trkpt lat="44.43997" lon="1.31399">
        <ele>273.3</ele>
        <time>2025-03-08T14:30:49Z</time>
      </trkpt>
      <trkpt lat="44.43998" lon="1.31398">
        <ele>273.3</ele>
        <time>2025-03-08T14:30:50Z</time>
      </trkpt>
      <trkpt lat="44.43998" lon="1.31396">
        <ele>273.5</ele>
        <time>2025-03-08T14:30:51Z</time>
      </trkpt>
      <trkpt lat="44.44" lon="1.31394">
        <ele>273.6</ele>
        <time>2025-03-08T14:30:52Z</time>
      </trkpt>
      <trkpt lat="44.44002" lon="1.31389">
        <ele>273.9</ele>
        <time>2025-03-08T14:30:53Z</time>
      </trkpt>
      <trkpt lat="44.44002" lon="1.31386">
        <ele>274.1</ele>
        <time>2025-03-08T14:30:54Z</time>
      </trkpt>
      <trkpt lat="44.44004" lon="1.31381">
        <ele>274.3</ele>
        <time>2025-03-08T14:30:55Z</time>
      </trkpt>
      <trkpt lat="44.44006" lon="1.31376">
        <ele>274.6</ele>
        <time>2025-03-08T14:30:56Z</time>
      </trkpt>
      <trkpt lat="44.44009" lon="1.31372">
        <ele>274.7</ele>
        <time>2025-03-08T14:30:57Z</time>
      </trkpt>
      <trkpt lat="44.44011" lon="1.31367">
        <ele>274.9</ele>
        <time>2025-03-08T14:30:58Z</time>
      </trkpt>
      <trkpt lat="44.44014" lon="1.31362">
        <ele>275</ele>
        <time>2025-03-08T14:30:59Z</time>
      </trkpt>
      <trkpt lat="44.44016" lon="1.31358">
        <ele>275</ele>
        <time>2025-03-08T14:31:00Z</time>
      </trkpt>
      <trkpt lat="44.44018" lon="1.31353">
        <ele>275.1</ele>
        <time>2025-03-08T14:31:01Z</time>
      </trkpt>
      <trkpt lat="44.4402" lon="1.31348">
        <ele>275.1</ele>
        <time>2025-03-08T14:31:02Z</time>
      </trkpt>
      <trkpt lat="44.44022" lon="1.31343">
        <ele>275.1</ele>
        <time>2025-03-08T14:31:03Z</time>
      </trkpt>
      <trkpt lat="44.44025" lon="1.31338">
        <ele>275.1</ele>
        <time>2025-03-08T14:31:04Z</time>
      </trkpt>
      <trkpt lat="44.44027" lon="1.31334">
        <ele>275.1</ele>
        <time>2025-03-08T14:31:05Z</time>
      </trkpt>
      <trkpt lat="44.4403" lon="1.31329">
        <ele>275</ele>
        <time>2025-03-08T14:31:06Z</time>
      </trkpt>
      <trkpt lat="44.44032" lon="1.31326">
        <ele>275</ele>
        <time>2025-03-08T14:31:07Z</time>
      </trkpt>
      <trkpt lat="44.44034" lon="1.31323">
        <ele>275</ele>
        <time>2025-03-08T14:31:08Z</time>
      </trkpt>
      <trkpt lat="44.44037" lon="1.3132">
        <ele>274.9</ele>
        <time>2025-03-08T14:31:09Z</time>
      </trkpt>
      <trkpt lat="44.4404" lon="1.31317">
        <ele>274.9</ele>
        <time>2025-03-08T14:31:10Z</time>
      </trkpt>
      <trkpt lat="44.44041" lon="1.31315">
        <ele>274.8</ele>
        <time>2025-03-08T14:31:11Z</time>
      </trkpt>
      <trkpt lat="44.44043" lon="1.31312">
        <ele>274.8</ele>
        <time>2025-03-08T14:31:12Z</time>
      </trkpt>
      <trkpt lat="44.44044" lon="1.3131">
        <ele>274.8</ele>
        <time>2025-03-08T14:31:13Z</time>
      </trkpt>
      <trkpt lat="44.44046" lon="1.31307">
        <ele>274.7</ele>
        <time>2025-03-08T14:31:14Z</time>
      </trkpt>
      <trkpt lat="44.44048" lon="1.31305">
        <ele>274.7</ele>
        <time>2025-03-08T14:31:15Z</time>
      </trkpt>
      <trkpt lat="44.44051" lon="1.31302">
        <ele>274.6</ele>
        <time>2025-03-08T14:31:16Z</time>
      </trkpt>
      <trkpt lat="44.44055" lon="1.31299">
        <ele>274.6</ele>
        <time>2025-03-08T14:31:17Z</time>
      </trkpt>
      <trkpt lat="44.44058" lon="1.31296">
        <ele>274.5</ele>
        <time>2025-03-08T14:31:18Z</time>
      </trkpt>
      <trkpt lat="44.4406" lon="1.31295">
        <ele>274.5</ele>
        <time>2025-03-08T14:31:19Z</time>
      </trkpt>
      <trkpt lat="44.44061" lon="1.31295">
        <ele>274.4</ele>
        <time>2025-03-08T14:31:20Z</time>
      </trkpt>
      <trkpt lat="44.4406" lon="1.31296">
        <ele>274.4</ele>
        <time>2025-03-08T14:31:21Z</time>
      </trkpt>
      <trkpt lat="44.4406" lon="1.31296">
        <ele>274.4</ele>
        <time>2025-03-08T14:31:22Z</time>
      </trkpt>
      <trkpt lat="44.4406" lon="1.31296">
        <ele>274.4</ele>
        <time>2025-03-08T14:31:23Z</time>
      </trkpt>
      <trkpt lat="44.4406" lon="1.31296">
        <ele>274.4</ele>
        <time>2025-03-08T14:31:24Z</time>
      </trkpt>
      <trkpt lat="44.4406" lon="1.31296">
        <ele>274.4</ele>
        <time>2025-03-08T14:31:25Z</time>
      </trkpt>
      <trkpt lat="44.4406" lon="1.31296">
        <ele>274.4</ele>
        <time>2025-03-08T14:31:26Z</time>
      </trkpt>
      <trkpt lat="44.4406" lon="1.31296">
        <ele>274.4</ele>
        <time>2025-03-08T14:31:27Z</time>
      </trkpt>
      <trkpt lat="44.4406" lon="1.31296">
        <ele>274.4</ele>
        <time>2025-03-08T14:31:28Z</time>
      </trkpt>
      <trkpt lat="44.4406" lon="1.31296">
        <ele>274.4</ele>
        <time>2025-03-08T14:31:29Z</time>
      </trkpt>
      <trkpt lat="44.4406" lon="1.31296">
        <ele>274.4</ele>
        <time>2025-03-08T14:31:30Z</time>
      </trkpt>
      <trkpt lat="44.4406" lon="1.31296">
        <ele>274.4</ele>
        <time>2025-03-08T14:31:31Z</time>
      </trkpt>
      <trkpt lat="44.4406" lon="1.31296">
        <ele>274.4</ele>
        <time>2025-03-08T14:31:32Z</time>
      </trkpt>
      <trkpt lat="44.4406" lon="1.31296">
        <ele>274.4</ele>
        <time>2025-03-08T14:31:33Z</time>
      </trkpt>
      <trkpt lat="44.4406" lon="1.31296">
        <ele>274.4</ele>
        <time>2025-03-08T14:31:34Z</time>
      </trkpt>
      <trkpt lat="44.4406" lon="1.31296">
        <ele>274.4</ele>
        <time>2025-03-08T14:31:35Z</time>
      </trkpt>
      <trkpt lat="44.4406" lon="1.31296">
        <ele>274.4</ele>
        <time>2025-03-08T14:31:36Z</time>
      </trkpt>
      <trkpt lat="44.4406" lon="1.31296">
        <ele>274.4</ele>
        <time>2025-03-08T14:31:37Z</time>
      </trkpt>
      <trkpt lat="44.4406" lon="1.31296">
        <ele>274.4</ele>
        <time>2025-03-08T14:31:38Z</time>
      </trkpt>
      <trkpt lat="44.4406" lon="1.31296">
        <ele>274.4</ele>
        <time>2025-03-08T14:31:39Z</time>
      </trkpt>
      <trkpt lat="44.4406" lon="1.31296">
        <ele>274.4</ele>
        <time>2025-03-08T14:31:40Z</time>
      </trkpt>
      <trkpt lat="44.4406" lon="1.31296">
        <ele>274.4</ele>
        <time>2025-03-08T14:31:41Z</time>
      </trkpt>
      <trkpt lat="44.4406" lon="1.31296">
        <ele>274.4</ele>
        <time>2025-03-08T14:31:42Z</time>
      </trkpt>
      <trkpt lat="44.4406" lon="1.31296">
        <ele>274.4</ele>
        <time>2025-03-08T14:31:43Z</time>
      </trkpt>
      <trkpt lat="44.4406" lon="1.31296">
        <ele>274.4</ele>
        <time>2025-03-08T14:31:44Z</time>
      </trkpt>
      <trkpt lat="44.4406" lon="1.31296">
        <ele>274.4</ele>
        <time>2025-03-08T14:31:45Z</time>
      </trkpt>
      <trkpt lat="44.4406" lon="1.31296">
        <ele>274.4</ele>
        <time>2025-03-08T14:31:46Z</time>
      </trkpt>
      <trkpt lat="44.4406" lon="1.31296">
        <ele>274.4</ele>
        <time>2025-03-08T14:31:47Z</time>
      </trkpt>
      <trkpt lat="44.4406" lon="1.31296">
        <ele>274.4</ele>
        <time>2025-03-08T14:31:48Z</time>
      </trkpt>
      <trkpt lat="44.4406" lon="1.31296">
        <ele>274.4</ele>
        <time>2025-03-08T14:31:49Z</time>
      </trkpt>
      <trkpt lat="44.4406" lon="1.31296">
        <ele>274.4</ele>
        <time>2025-03-08T14:31:50Z</time>
      </trkpt>
      <trkpt lat="44.4406" lon="1.31296">
        <ele>274.4</ele>
        <time>2025-03-08T14:31:51Z</time>
      </trkpt>
      <trkpt lat="44.4406" lon="1.31296">
        <ele>274.4</ele>
        <time>2025-03-08T14:31:52Z</time>
      </trkpt>
      <trkpt lat="44.4406" lon="1.31296">
        <ele>274.4</ele>
        <time>2025-03-08T14:31:53Z</time>
      </trkpt>
      <trkpt lat="44.4406" lon="1.31296">
        <ele>274.4</ele>
        <time>2025-03-08T14:31:54Z</time>
      </trkpt>
      <trkpt lat="44.4406" lon="1.31296">
        <ele>274.4</ele>
        <time>2025-03-08T14:31:55Z</time>
      </trkpt>
      <trkpt lat="44.4406" lon="1.31296">
        <ele>274.4</ele>
        <time>2025-03-08T14:31:56Z</time>
      </trkpt>
      <trkpt lat="44.4406" lon="1.31296">
        <ele>274.4</ele>
        <time>2025-03-08T14:31:57Z</time>
      </trkpt>
      <trkpt lat="44.4406" lon="1.31296">
        <ele>274.4</ele>
        <time>2025-03-08T14:31:58Z</time>
      </trkpt>
      <trkpt lat="44.4406" lon="1.31296">
        <ele>274.4</ele>
        <time>2025-03-08T14:31:59Z</time>
      </trkpt>
      <trkpt lat="44.4406" lon="1.31296">
        <ele>274.4</ele>
        <time>2025-03-08T14:32:00Z</time>
      </trkpt>
      <trkpt lat="44.4406" lon="1.31296">
        <ele>274.4</ele>
        <time>2025-03-08T14:32:01Z</time>
      </trkpt>
      <trkpt lat="44.4406" lon="1.31296">
        <ele>274.4</ele>
        <time>2025-03-08T14:32:02Z</time>
      </trkpt>
      <trkpt lat="44.4406" lon="1.31296">
        <ele>274.4</ele>
        <time>2025-03-08T14:32:03Z</time>
      </trkpt>
      <trkpt lat="44.4406" lon="1.31296">
        <ele>274.4</ele>
        <time>2025-03-08T14:32:04Z</time>
      </trkpt>
      <trkpt lat="44.4406" lon="1.31296">
        <ele>274.4</ele>
        <time>2025-03-08T14:32:05Z</time>
      </trkpt>
      <trkpt lat="44.4406" lon="1.31296">
        <ele>274.4</ele>
        <time>2025-03-08T14:32:06Z</time>
      </trkpt>
      <trkpt lat="44.4406" lon="1.31296">
        <ele>274.4</ele>
        <time>2025-03-08T14:32:07Z</time>
      </trkpt>
      <trkpt lat="44.4406" lon="1.31296">
        <ele>274.4</ele>
        <time>2025-03-08T14:32:08Z</time>
      </trkpt>
      <trkpt lat="44.4406" lon="1.31296">
        <ele>274.4</ele>
        <time>2025-03-08T14:32:09Z</time>
      </trkpt>
      <trkpt lat="44.4406" lon="1.31296">
        <ele>274.4</ele>
        <time>2025-03-08T14:32:10Z</time>
      </trkpt>
      <trkpt lat="44.4406" lon="1.31296">
        <ele>274.4</ele>
        <time>2025-03-08T14:32:11Z</time>
      </trkpt>
      <trkpt lat="44.4406" lon="1.31296">
        <ele>274.4</ele>
        <time>2025-03-08T14:32:12Z</time>
      </trkpt>
      <trkpt lat="44.4406" lon="1.31296">
        <ele>274.4</ele>
        <time>2025-03-08T14:32:13Z</time>
      </trkpt>
      <trkpt lat="44.4406" lon="1.31296">
        <ele>274.4</ele>
        <time>2025-03-08T14:32:14Z</time>
      </trkpt>
      <trkpt lat="44.4406" lon="1.31296">
        <ele>274.4</ele>
        <time>2025-03-08T14:32:15Z</time>
      </trkpt>
      <trkpt lat="44.4406" lon="1.31296">
        <ele>274.4</ele>
        <time>2025-03-08T14:32:16Z</time>
      </trkpt>
      <trkpt lat="44.4406" lon="1.31296">
        <ele>274.4</ele>
        <time>2025-03-08T14:32:17Z</time>
      </trkpt>
      <trkpt lat="44.4406" lon="1.31296">
        <ele>274.4</ele>
        <time>2025-03-08T14:32:18Z</time>
      </trkpt>
      <trkpt lat="44.4406" lon="1.31296">
        <ele>274.4</ele>
        <time>2025-03-08T14:32:19Z</time>
      </trkpt>
      <trkpt lat="44.4406" lon="1.31296">
        <ele>274.4</ele>
        <time>2025-03-08T14:32:20Z</time>
      </trkpt>
      <trkpt lat="44.4406" lon="1.31296">
        <ele>274.4</ele>
        <time>2025-03-08T14:32:21Z</time>
      </trkpt>
      <trkpt lat="44.4406" lon="1.31296">
        <ele>274.4</ele>
        <time>2025-03-08T14:32:22Z</time>
      </trkpt>
      <trkpt lat="44.4406" lon="1.31296">
        <ele>274.4</ele>
        <time>2025-03-08T14:32:23Z</time>
      </trkpt>
      <trkpt lat="44.4406" lon="1.31296">
        <ele>274.4</ele>
        <time>2025-03-08T14:32:24Z</time>
      </trkpt>
      <trkpt lat="44.4406" lon="1.31296">
        <ele>274.4</ele>
        <time>2025-03-08T14:32:25Z</time>
      </trkpt>
      <trkpt lat="44.4406" lon="1.31296">
        <ele>274.4</ele>
        <time>2025-03-08T14:32:26Z</time>
      </trkpt>
      <trkpt lat="44.4406" lon="1.31296">
        <ele>274.4</ele>
        <time>2025-03-08T14:32:27Z</time>
      </trkpt>
      <trkpt lat="44.4406" lon="1.31296">
        <ele>274.4</ele>
        <time>2025-03-08T14:32:28Z</time>
      </trkpt>
      <trkpt lat="44.4406" lon="1.31296">
        <ele>274.4</ele>
        <time>2025-03-08T14:32:29Z</time>
      </trkpt>
      <trkpt lat="44.4406" lon="1.31296">
        <ele>274.4</ele>
        <time>2025-03-08T14:32:30Z</time>
      </trkpt>
      <trkpt lat="44.4406" lon="1.31296">
        <ele>274.4</ele>
        <time>2025-03-08T14:32:31Z</time>
      </trkpt>
      <trkpt lat="44.4406" lon="1.31296">
        <ele>274.4</ele>
        <time>2025-03-08T14:32:32Z</time>
      </trkpt>
      <trkpt lat="44.4406" lon="1.31296">
        <ele>274.4</ele>
        <time>2025-03-08T14:32:33Z</time>
      </trkpt>
      <trkpt lat="44.4406" lon="1.31296">
        <ele>274.4</ele>
        <time>2025-03-08T14:32:34Z</time>
      </trkpt>
      <trkpt lat="44.4406" lon="1.31296">
        <ele>274.4</ele>
        <time>2025-03-08T14:32:35Z</time>
      </trkpt>
      <trkpt lat="44.4406" lon="1.31296">
        <ele>274.4</ele>
        <time>2025-03-08T14:32:36Z</time>
      </trkpt>
      <trkpt lat="44.4406" lon="1.31297">
        <ele>274.4</ele>
        <time>2025-03-08T14:32:37Z</time>
      </trkpt>
      <trkpt lat="44.4406" lon="1.31295">
        <ele>274.4</ele>
        <time>2025-03-08T14:32:38Z</time>
      </trkpt>
      <trkpt lat="44.44058" lon="1.31294">
        <ele>274.4</ele>
        <time>2025-03-08T14:32:39Z</time>
      </trkpt>
      <trkpt lat="44.44058" lon="1.31294">
        <ele>274.4</ele>
        <time>2025-03-08T14:32:40Z</time>
      </trkpt>
      <trkpt lat="44.44058" lon="1.31294">
        <ele>274.4</ele>
        <time>2025-03-08T14:32:41Z</time>
      </trkpt>
      <trkpt lat="44.44059" lon="1.31294">
        <ele>274.4</ele>
        <time>2025-03-08T14:32:42Z</time>
      </trkpt>
      <trkpt lat="44.44059" lon="1.31294">
        <ele>274.3</ele>
        <time>2025-03-08T14:32:43Z</time>
      </trkpt>
      <trkpt lat="44.44059" lon="1.31294">
        <ele>274.3</ele>
        <time>2025-03-08T14:32:44Z</time>
      </trkpt>
      <trkpt lat="44.44059" lon="1.31294">
        <ele>274.3</ele>
        <time>2025-03-08T14:32:45Z</time>
      </trkpt>
      <trkpt lat="44.44059" lon="1.31294">
        <ele>274.3</ele>
        <time>2025-03-08T14:32:46Z</time>
      </trkpt>
      <trkpt lat="44.44059" lon="1.31294">
        <ele>274.3</ele>
        <time>2025-03-08T14:32:47Z</time>
      </trkpt>
      <trkpt lat="44.44059" lon="1.31294">
        <ele>274.3</ele>
        <time>2025-03-08T14:32:48Z</time>
      </trkpt>
      <trkpt lat="44.44059" lon="1.31294">
        <ele>274.3</ele>
        <time>2025-03-08T14:32:49Z</time>
      </trkpt>
      <trkpt lat="44.44059" lon="1.31294">
        <ele>274.3</ele>
        <time>2025-03-08T14:32:50Z</time>
      </trkpt>
      <trkpt lat="44.44059" lon="1.31294">
        <ele>274.3</ele>
        <time>2025-03-08T14:32:51Z</time>
      </trkpt>
      <trkpt lat="44.44059" lon="1.31294">
        <ele>274.3</ele>
        <time>2025-03-08T14:32:52Z</time>
      </trkpt>
      <trkpt lat="44.44059" lon="1.31294">
        <ele>274.3</ele>
        <time>2025-03-08T14:32:53Z</time>
      </trkpt>
      <trkpt lat="44.44059" lon="1.31294">
        <ele>274.3</ele>
        <time>2025-03-08T14:32:54Z</time>
      </trkpt>
      <trkpt lat="44.44059" lon="1.31294">
        <ele>274.3</ele>
        <time>2025-03-08T14:32:55Z</time>
      </trkpt>
      <trkpt lat="44.44059" lon="1.31294">
        <ele>274.3</ele>
        <time>2025-03-08T14:32:56Z</time>
      </trkpt>
      <trkpt lat="44.44059" lon="1.31294">
        <ele>274.3</ele>
        <time>2025-03-08T14:32:57Z</time>
      </trkpt>
      <trkpt lat="44.44059" lon="1.31294">
        <ele>274.3</ele>
        <time>2025-03-08T14:32:58Z</time>
      </trkpt>
      <trkpt lat="44.44059" lon="1.31294">
        <ele>274.3</ele>
        <time>2025-03-08T14:32:59Z</time>
      </trkpt>
      <trkpt lat="44.44059" lon="1.31294">
        <ele>274.3</ele>
        <time>2025-03-08T14:33:00Z</time>
      </trkpt>
      <trkpt lat="44.44059" lon="1.31294">
        <ele>274.3</ele>
        <time>2025-03-08T14:33:01Z</time>
      </trkpt>
      <trkpt lat="44.44059" lon="1.31294">
        <ele>274.3</ele>
        <time>2025-03-08T14:33:02Z</time>
      </trkpt>
      <trkpt lat="44.44059" lon="1.31294">
        <ele>274.3</ele>
        <time>2025-03-08T14:33:03Z</time>
      </trkpt>
      <trkpt lat="44.44059" lon="1.31294">
        <ele>274.3</ele>
        <time>2025-03-08T14:33:04Z</time>
      </trkpt>
      <trkpt lat="44.44059" lon="1.31294">
        <ele>274.3</ele>
        <time>2025-03-08T14:33:05Z</time>
      </trkpt>
      <trkpt lat="44.44059" lon="1.31294">
        <ele>274.3</ele>
        <time>2025-03-08T14:33:06Z</time>
      </trkpt>
      <trkpt lat="44.44059" lon="1.31294">
        <ele>274.3</ele>
        <time>2025-03-08T14:33:07Z</time>
      </trkpt>
      <trkpt lat="44.44059" lon="1.31294">
        <ele>274.3</ele>
        <time>2025-03-08T14:33:08Z</time>
      </trkpt>
      <trkpt lat="44.44059" lon="1.31294">
        <ele>274.3</ele>
        <time>2025-03-08T14:33:09Z</time>
      </trkpt>
      <trkpt lat="44.44059" lon="1.31294">
        <ele>274.3</ele>
        <time>2025-03-08T14:33:10Z</time>
      </trkpt>
      <trkpt lat="44.44059" lon="1.31294">
        <ele>274.3</ele>
        <time>2025-03-08T14:33:11Z</time>
      </trkpt>
      <trkpt lat="44.44059" lon="1.31294">
        <ele>274.3</ele>
        <time>2025-03-08T14:33:12Z</time>
      </trkpt>
      <trkpt lat="44.44059" lon="1.31294">
        <ele>274.3</ele>
        <time>2025-03-08T14:33:13Z</time>
      </trkpt>
      <trkpt lat="44.44059" lon="1.31294">
        <ele>274.3</ele>
        <time>2025-03-08T14:33:14Z</time>
      </trkpt>
      <trkpt lat="44.44059" lon="1.31294">
        <ele>274.3</ele>
        <time>2025-03-08T14:33:15Z</time>
      </trkpt>
      <trkpt lat="44.44059" lon="1.31294">
        <ele>274.3</ele>
        <time>2025-03-08T14:33:16Z</time>
      </trkpt>
      <trkpt lat="44.44059" lon="1.31294">
        <ele>274.3</ele>
        <time>2025-03-08T14:33:17Z</time>
      </trkpt>
      <trkpt lat="44.44059" lon="1.31294">
        <ele>274.3</ele>
        <time>2025-03-08T14:33:18Z</time>
      </trkpt>
      <trkpt lat="44.44059" lon="1.31294">
        <ele>274.3</ele>
        <time>2025-03-08T14:33:19Z</time>
      </trkpt>
      <trkpt lat="44.44059" lon="1.31294">
        <ele>274.3</ele>
        <time>2025-03-08T14:33:20Z</time>
      </trkpt>
      <trkpt lat="44.44059" lon="1.31294">
        <ele>274.3</ele>
        <time>2025-03-08T14:33:21Z</time>
      </trkpt>
      <trkpt lat="44.44059" lon="1.31294">
        <ele>274.3</ele>
        <time>2025-03-08T14:33:22Z</time>
      </trkpt>
      <trkpt lat="44.44059" lon="1.31294">
        <ele>274.3</ele>
        <time>2025-03-08T14:33:23Z</time>
      </trkpt>
      <trkpt lat="44.44059" lon="1.31294">
        <ele>274.3</ele>
        <time>2025-03-08T14:33:24Z</time>
      </trkpt>
      <trkpt lat="44.44059" lon="1.31294">
        <ele>274.3</ele>
        <time>2025-03-08T14:33:25Z</time>
      </trkpt>
      <trkpt lat="44.44059" lon="1.31294">
        <ele>274.3</ele>
        <time>2025-03-08T14:33:26Z</time>
      </trkpt>
      <trkpt lat="44.44059" lon="1.31294">
        <ele>274.3</ele>
        <time>2025-03-08T14:33:27Z</time>
      </trkpt>
      <trkpt lat="44.44059" lon="1.31294">
        <ele>274.3</ele>
        <time>2025-03-08T14:33:28Z</time>
      </trkpt>
      <trkpt lat="44.44059" lon="1.31294">
        <ele>274.3</ele>
        <time>2025-03-08T14:33:29Z</time>
      </trkpt>
      <trkpt lat="44.44059" lon="1.31294">
        <ele>274.3</ele>
        <time>2025-03-08T14:33:30Z</time>
      </trkpt>
      <trkpt lat="44.44059" lon="1.31294">
        <ele>274.3</ele>
        <time>2025-03-08T14:33:31Z</time>
      </trkpt>
      <trkpt lat="44.44059" lon="1.31294">
        <ele>274.3</ele>
        <time>2025-03-08T14:33:32Z</time>
      </trkpt>
      <trkpt lat="44.44059" lon="1.31294">
        <ele>274.3</ele>
        <time>2025-03-08T14:33:33Z</time>
      </trkpt>
      <trkpt lat="44.44059" lon="1.31294">
        <ele>274.3</ele>
        <time>2025-03-08T14:33:34Z</time>
      </trkpt>
      <trkpt lat="44.44059" lon="1.31294">
        <ele>274.3</ele>
        <time>2025-03-08T14:33:35Z</time>
      </trkpt>
      <trkpt lat="44.44059" lon="1.31294">
        <ele>274.3</ele>
        <time>2025-03-08T14:33:36Z</time>
      </trkpt>
      <trkpt lat="44.44059" lon="1.31294">
        <ele>274.3</ele>
        <time>2025-03-08T14:33:37Z</time>
      </trkpt>
      <trkpt lat="44.44059" lon="1.31294">
        <ele>274.3</ele>
        <time>2025-03-08T14:33:38Z</time>
      </trkpt>
      <trkpt lat="44.44059" lon="1.31294">
        <ele>274.3</ele>
        <time>2025-03-08T14:33:39Z</time>
      </trkpt>
      <trkpt lat="44.44059" lon="1.31294">
        <ele>274.3</ele>
        <time>2025-03-08T14:33:40Z</time>
      </trkpt>
      <trkpt lat="44.44059" lon="1.31294">
        <ele>274.3</ele>
        <time>2025-03-08T14:33:41Z</time>
      </trkpt>
      <trkpt lat="44.44059" lon="1.31294">
        <ele>274.3</ele>
        <time>2025-03-08T14:33:42Z</time>
      </trkpt>
      <trkpt lat="44.44059" lon="1.31294">
        <ele>274.3</ele>
        <time>2025-03-08T14:33:43Z</time>
      </trkpt>
      <trkpt lat="44.44059" lon="1.31294">
        <ele>274.3</ele>
        <time>2025-03-08T14:33:44Z</time>
      </trkpt>
      <trkpt lat="44.44059" lon="1.31294">
        <ele>274.3</ele>
        <time>2025-03-08T14:33:45Z</time>
      </trkpt>
      <trkpt lat="44.44059" lon="1.31294">
        <ele>274.3</ele>
        <time>2025-03-08T14:33:46Z</time>
      </trkpt>
      <trkpt lat="44.44059" lon="1.31294">
        <ele>274.3</ele>
        <time>2025-03-08T14:33:47Z</time>
      </trkpt>
      <trkpt lat="44.44059" lon="1.31294">
        <ele>274.3</ele>
        <time>2025-03-08T14:33:48Z</time>
      </trkpt>
      <trkpt lat="44.44059" lon="1.31294">
        <ele>274.3</ele>
        <time>2025-03-08T14:33:49Z</time>
      </trkpt>
      <trkpt lat="44.44059" lon="1.31294">
        <ele>274.3</ele>
        <time>2025-03-08T14:33:50Z</time>
      </trkpt>
      <trkpt lat="44.44059" lon="1.31294">
        <ele>274.3</ele>
        <time>2025-03-08T14:33:51Z</time>
      </trkpt>
      <trkpt lat="44.44059" lon="1.31294">
        <ele>274.3</ele>
        <time>2025-03-08T14:33:52Z</time>
      </trkpt>
      <trkpt lat="44.44059" lon="1.31294">
        <ele>274.3</ele>
        <time>2025-03-08T14:33:53Z</time>
      </trkpt>
      <trkpt lat="44.44059" lon="1.31294">
        <ele>274.3</ele>
        <time>2025-03-08T14:33:54Z</time>
      </trkpt>
      <trkpt lat="44.44059" lon="1.31294">
        <ele>274.3</ele>
        <time>2025-03-08T14:33:55Z</time>
      </trkpt>
      <trkpt lat="44.44059" lon="1.31294">
        <ele>274.3</ele>
        <time>2025-03-08T14:33:56Z</time>
      </trkpt>
      <trkpt lat="44.44059" lon="1.31294">
        <ele>274.3</ele>
        <time>2025-03-08T14:33:57Z</time>
      </trkpt>
      <trkpt lat="44.44059" lon="1.31294">
        <ele>274.3</ele>
        <time>2025-03-08T14:33:58Z</time>
      </trkpt>
      <trkpt lat="44.44059" lon="1.31294">
        <ele>274.3</ele>
        <time>2025-03-08T14:33:59Z</time>
      </trkpt>
      <trkpt lat="44.44059" lon="1.31294">
        <ele>274.3</ele>
        <time>2025-03-08T14:34:00Z</time>
      </trkpt>
      <trkpt lat="44.44059" lon="1.31294">
        <ele>274.3</ele>
        <time>2025-03-08T14:34:01Z</time>
      </trkpt>
      <trkpt lat="44.44059" lon="1.31294">
        <ele>274.3</ele>
        <time>2025-03-08T14:34:02Z</time>
      </trkpt>
      <trkpt lat="44.44059" lon="1.31294">
        <ele>274.3</ele>
        <time>2025-03-08T14:34:03Z</time>
      </trkpt>
      <trkpt lat="44.44059" lon="1.31294">
        <ele>274.3</ele>
        <time>2025-03-08T14:34:04Z</time>
      </trkpt>
      <trkpt lat="44.44059" lon="1.31294">
        <ele>274.3</ele>
        <time>2025-03-08T14:34:05Z</time>
      </trkpt>
      <trkpt lat="44.44059" lon="1.31294">
        <ele>274.3</ele>
        <time>2025-03-08T14:34:06Z</time>
      </trkpt>
      <trkpt lat="44.44059" lon="1.31294">
        <ele>274.3</ele>
        <time>2025-03-08T14:34:07Z</time>
      </trkpt>
      <trkpt lat="44.44059" lon="1.31294">
        <ele>274.3</ele>
        <time>2025-03-08T14:34:08Z</time>
      </trkpt>
      <trkpt lat="44.44059" lon="1.31294">
        <ele>274.3</ele>
        <time>2025-03-08T14:34:09Z</time>
      </trkpt>
      <trkpt lat="44.44059" lon="1.31294">
        <ele>274.3</ele>
        <time>2025-03-08T14:34:10Z</time>
      </trkpt>
      <trkpt lat="44.44059" lon="1.31294">
        <ele>274.3</ele>
        <time>2025-03-08T14:34:11Z</time>
      </trkpt>
      <trkpt lat="44.44059" lon="1.31294">
        <ele>274.3</ele>
        <time>2025-03-08T14:34:12Z</time>
      </trkpt>
      <trkpt lat="44.44059" lon="1.31294">
        <ele>274.3</ele>
        <time>2025-03-08T14:34:13Z</time>
      </trkpt>
      <trkpt lat="44.44059" lon="1.31294">
        <ele>274.3</ele>
        <time>2025-03-08T14:34:14Z</time>
      </trkpt>
      <trkpt lat="44.44059" lon="1.31294">
        <ele>274.3</ele>
        <time>2025-03-08T14:34:15Z</time>
      </trkpt>
      <trkpt lat="44.44059" lon="1.31294">
        <ele>274.3</ele>
        <time>2025-03-08T14:34:16Z</time>
      </trkpt>
      <trkpt lat="44.44059" lon="1.31294">
        <ele>274.3</ele>
        <time>2025-03-08T14:34:17Z</time>
      </trkpt>
      <trkpt lat="44.44059" lon="1.31294">
        <ele>274.3</ele>
        <time>2025-03-08T14:34:18Z</time>
      </trkpt>
      <trkpt lat="44.44059" lon="1.31294">
        <ele>274.3</ele>
        <time>2025-03-08T14:34:19Z</time>
      </trkpt>
      <trkpt lat="44.44059" lon="1.31294">
        <ele>274.3</ele>
        <time>2025-03-08T14:34:20Z</time>
      </trkpt>
      <trkpt lat="44.44059" lon="1.31294">
        <ele>274.3</ele>
        <time>2025-03-08T14:34:21Z</time>
      </trkpt>
      <trkpt lat="44.44059" lon="1.31294">
        <ele>274.3</ele>
        <time>2025-03-08T14:34:22Z</time>
      </trkpt>
      <trkpt lat="44.44059" lon="1.31294">
        <ele>274.3</ele>
        <time>2025-03-08T14:34:23Z</time>
      </trkpt>
      <trkpt lat="44.44059" lon="1.31294">
        <ele>274.3</ele>
        <time>2025-03-08T14:34:24Z</time>
      </trkpt>
      <trkpt lat="44.44059" lon="1.31294">
        <ele>274.3</ele>
        <time>2025-03-08T14:34:25Z</time>
      </trkpt>
      <trkpt lat="44.44059" lon="1.31294">
        <ele>274.3</ele>
        <time>2025-03-08T14:34:26Z</time>
      </trkpt>
      <trkpt lat="44.44059" lon="1.31294">
        <ele>274.3</ele>
        <time>2025-03-08T14:34:27Z</time>
      </trkpt>
      <trkpt lat="44.44059" lon="1.31294">
        <ele>274.3</ele>
        <time>2025-03-08T14:34:28Z</time>
      </trkpt>
      <trkpt lat="44.44059" lon="1.31294">
        <ele>274.3</ele>
        <time>2025-03-08T14:34:29Z</time>
      </trkpt>
      <trkpt lat="44.44059" lon="1.31294">
        <ele>274.3</ele>
        <time>2025-03-08T14:34:30Z</time>
      </trkpt>
      <trkpt lat="44.44059" lon="1.31294">
        <ele>274.3</ele>
        <time>2025-03-08T14:34:31Z</time>
      </trkpt>
      <trkpt lat="44.44059" lon="1.31294">
        <ele>274.3</ele>
        <time>2025-03-08T14:34:32Z</time>
      </trkpt>
      <trkpt lat="44.44059" lon="1.31294">
        <ele>274.3</ele>
        <time>2025-03-08T14:34:33Z</time>
      </trkpt>
      <trkpt lat="44.44059" lon="1.31294">
        <ele>274.3</ele>
        <time>2025-03-08T14:34:34Z</time>
      </trkpt>
      <trkpt lat="44.44059" lon="1.31294">
        <ele>274.3</ele>
        <time>2025-03-08T14:34:35Z</time>
      </trkpt>
      <trkpt lat="44.44059" lon="1.31294">
        <ele>274.3</ele>
        <time>2025-03-08T14:34:36Z</time>
      </trkpt>
      <trkpt lat="44.44059" lon="1.31294">
        <ele>274.3</ele>
        <time>2025-03-08T14:34:37Z</time>
      </trkpt>
      <trkpt lat="44.44059" lon="1.31294">
        <ele>274.3</ele>
        <time>2025-03-08T14:34:38Z</time>
      </trkpt>
      <trkpt lat="44.44059" lon="1.31294">
        <ele>274.3</ele>
        <time>2025-03-08T14:34:39Z</time>
      </trkpt>
      <trkpt lat="44.44059" lon="1.31294">
        <ele>274.3</ele>
        <time>2025-03-08T14:34:40Z</time>
      </trkpt>
      <trkpt lat="44.44059" lon="1.31294">
        <ele>274.3</ele>
        <time>2025-03-08T14:34:41Z</time>
      </trkpt>
      <trkpt lat="44.44059" lon="1.31294">
        <ele>274.3</ele>
        <time>2025-03-08T14:34:42Z</time>
      </trkpt>
      <trkpt lat="44.44059" lon="1.31294">
        <ele>274.3</ele>
        <time>2025-03-08T14:34:43Z</time>
      </trkpt>
      <trkpt lat="44.44059" lon="1.31294">
        <ele>274.3</ele>
        <time>2025-03-08T14:34:44Z</time>
      </trkpt>
      <trkpt lat="44.44059" lon="1.31294">
        <ele>274.3</ele>
        <time>2025-03-08T14:34:45Z</time>
      </trkpt>
      <trkpt lat="44.44059" lon="1.31294">
        <ele>274.3</ele>
        <time>2025-03-08T14:34:46Z</time>
      </trkpt>
      <trkpt lat="44.44059" lon="1.31294">
        <ele>274.3</ele>
        <time>2025-03-08T14:34:47Z</time>
      </trkpt>
      <trkpt lat="44.44059" lon="1.31294">
        <ele>274.3</ele>
        <time>2025-03-08T14:34:48Z</time>
      </trkpt>
      <trkpt lat="44.44059" lon="1.31294">
        <ele>274.3</ele>
        <time>2025-03-08T14:34:49Z</time>
      </trkpt>
      <trkpt lat="44.44059" lon="1.31294">
        <ele>274.3</ele>
        <time>2025-03-08T14:34:50Z</time>
      </trkpt>
      <trkpt lat="44.44059" lon="1.31294">
        <ele>274.3</ele>
        <time>2025-03-08T14:34:51Z</time>
      </trkpt>
      <trkpt lat="44.44059" lon="1.31294">
        <ele>274.3</ele>
        <time>2025-03-08T14:34:52Z</time>
      </trkpt>
      <trkpt lat="44.44059" lon="1.31294">
        <ele>274.3</ele>
        <time>2025-03-08T14:34:53Z</time>
      </trkpt>
      <trkpt lat="44.44059" lon="1.31294">
        <ele>274.3</ele>
        <time>2025-03-08T14:34:54Z</time>
      </trkpt>
      <trkpt lat="44.44059" lon="1.31294">
        <ele>274.3</ele>
        <time>2025-03-08T14:34:55Z</time>
      </trkpt>
      <trkpt lat="44.44059" lon="1.31294">
        <ele>274.3</ele>
        <time>2025-03-08T14:34:56Z</time>
      </trkpt>
      <trkpt lat="44.44059" lon="1.31294">
        <ele>274.3</ele>
        <time>2025-03-08T14:34:57Z</time>
      </trkpt>
      <trkpt lat="44.44059" lon="1.31294">
        <ele>274.3</ele>
        <time>2025-03-08T14:34:58Z</time>
      </trkpt>
      <trkpt lat="44.44059" lon="1.31294">
        <ele>274.3</ele>
        <time>2025-03-08T14:34:59Z</time>
      </trkpt>
      <trkpt lat="44.44059" lon="1.31294">
        <ele>274.3</ele>
        <time>2025-03-08T14:35:00Z</time>
      </trkpt>
      <trkpt lat="44.44059" lon="1.31294">
        <ele>274.3</ele>
        <time>2025-03-08T14:35:01Z</time>
      </trkpt>
      <trkpt lat="44.44059" lon="1.31294">
        <ele>274.3</ele>
        <time>2025-03-08T14:35:02Z</time>
      </trkpt>
      <trkpt lat="44.44059" lon="1.31294">
        <ele>274.3</ele>
        <time>2025-03-08T14:35:03Z</time>
      </trkpt>
      <trkpt lat="44.44059" lon="1.31294">
        <ele>274.3</ele>
        <time>2025-03-08T14:35:04Z</time>
      </trkpt>
      <trkpt lat="44.44059" lon="1.31294">
        <ele>274.3</ele>
        <time>2025-03-08T14:35:05Z</time>
      </trkpt>
      <trkpt lat="44.44059" lon="1.31294">
        <ele>274.3</ele>
        <time>2025-03-08T14:35:06Z</time>
      </trkpt>
      <trkpt lat="44.44059" lon="1.31294">
        <ele>274.3</ele>
        <time>2025-03-08T14:35:07Z</time>
      </trkpt>
      <trkpt lat="44.44059" lon="1.31294">
        <ele>274.3</ele>
        <time>2025-03-08T14:35:08Z</time>
      </trkpt>
      <trkpt lat="44.44059" lon="1.31294">
        <ele>274.3</ele>
        <time>2025-03-08T14:35:09Z</time>
      </trkpt>
      <trkpt lat="44.44059" lon="1.31294">
        <ele>274.3</ele>
        <time>2025-03-08T14:35:10Z</time>
      </trkpt>
      <trkpt lat="44.44059" lon="1.31294">
        <ele>274.3</ele>
        <time>2025-03-08T14:35:11Z</time>
      </trkpt>
      <trkpt lat="44.44059" lon="1.31294">
        <ele>274.3</ele>
        <time>2025-03-08T14:35:12Z</time>
      </trkpt>
      <trkpt lat="44.44059" lon="1.31294">
        <ele>274.3</ele>
        <time>2025-03-08T14:35:13Z</time>
      </trkpt>
      <trkpt lat="44.44059" lon="1.31294">
        <ele>274.3</ele>
        <time>2025-03-08T14:35:14Z</time>
      </trkpt>
      <trkpt lat="44.44059" lon="1.31294">
        <ele>274.3</ele>
        <time>2025-03-08T14:35:15Z</time>
      </trkpt>
      <trkpt lat="44.44059" lon="1.31294">
        <ele>274.3</ele>
        <time>2025-03-08T14:35:16Z</time>
      </trkpt>
      <trkpt lat="44.44059" lon="1.31294">
        <ele>274.3</ele>
        <time>2025-03-08T14:35:17Z</time>
      </trkpt>
      <trkpt lat="44.44059" lon="1.31294">
        <ele>274.3</ele>
        <time>2025-03-08T14:35:18Z</time>
      </trkpt>
      <trkpt lat="44.44059" lon="1.31294">
        <ele>274.3</ele>
        <time>2025-03-08T14:35:19Z</time>
      </trkpt>
      <trkpt lat="44.44059" lon="1.31294">
        <ele>274.3</ele>
        <time>2025-03-08T14:35:20Z</time>
      </trkpt>
      <trkpt lat="44.44059" lon="1.31294">
        <ele>274.3</ele>
        <time>2025-03-08T14:35:21Z</time>
      </trkpt>
      <trkpt lat="44.44059" lon="1.31294">
        <ele>274.3</ele>
        <time>2025-03-08T14:35:22Z</time>
      </trkpt>
      <trkpt lat="44.44059" lon="1.31294">
        <ele>274.3</ele>
        <time>2025-03-08T14:35:23Z</time>
      </trkpt>
      <trkpt lat="44.44059" lon="1.31294">
        <ele>274.3</ele>
        <time>2025-03-08T14:35:24Z</time>
      </trkpt>
      <trkpt lat="44.44059" lon="1.31294">
        <ele>274.3</ele>
        <time>2025-03-08T14:35:25Z</time>
      </trkpt>
      <trkpt lat="44.44059" lon="1.31294">
        <ele>274.3</ele>
        <time>2025-03-08T14:35:26Z</time>
      </trkpt>
      <trkpt lat="44.44059" lon="1.31294">
        <ele>274.3</ele>
        <time>2025-03-08T14:35:27Z</time>
      </trkpt>
      <trkpt lat="44.44059" lon="1.31294">
        <ele>274.3</ele>
        <time>2025-03-08T14:35:28Z</time>
      </trkpt>
      <trkpt lat="44.44059" lon="1.31294">
        <ele>274.3</ele>
        <time>2025-03-08T14:35:29Z</time>
      </trkpt>
      <trkpt lat="44.44059" lon="1.31294">
        <ele>274.3</ele>
        <time>2025-03-08T14:35:30Z</time>
      </trkpt>
      <trkpt lat="44.44059" lon="1.31294">
        <ele>274.3</ele>
        <time>2025-03-08T14:35:31Z</time>
      </trkpt>
      <trkpt lat="44.44059" lon="1.31294">
        <ele>274.3</ele>
        <time>2025-03-08T14:35:32Z</time>
      </trkpt>
      <trkpt lat="44.44059" lon="1.31294">
        <ele>274.3</ele>
        <time>2025-03-08T14:35:33Z</time>
      </trkpt>
      <trkpt lat="44.44059" lon="1.31294">
        <ele>274.3</ele>
        <time>2025-03-08T14:35:34Z</time>
      </trkpt>
      <trkpt lat="44.44059" lon="1.31294">
        <ele>274.3</ele>
        <time>2025-03-08T14:35:35Z</time>
      </trkpt>
      <trkpt lat="44.44059" lon="1.31294">
        <ele>274.3</ele>
        <time>2025-03-08T14:35:36Z</time>
      </trkpt>
      <trkpt lat="44.44059" lon="1.31294">
        <ele>274.3</ele>
        <time>2025-03-08T14:35:37Z</time>
      </trkpt>
      <trkpt lat="44.44059" lon="1.31294">
        <ele>274.3</ele>
        <time>2025-03-08T14:35:38Z</time>
      </trkpt>
      <trkpt lat="44.44059" lon="1.31294">
        <ele>274.3</ele>
        <time>2025-03-08T14:35:39Z</time>
      </trkpt>
      <trkpt lat="44.44059" lon="1.31294">
        <ele>274.3</ele>
        <time>2025-03-08T14:35:40Z</time>
      </trkpt>
      <trkpt lat="44.44059" lon="1.31294">
        <ele>274.3</ele>
        <time>2025-03-08T14:35:41Z</time>
      </trkpt>
      <trkpt lat="44.44059" lon="1.31294">
        <ele>274.3</ele>
        <time>2025-03-08T14:35:42Z</time>
      </trkpt>
      <trkpt lat="44.44059" lon="1.31294">
        <ele>274.3</ele>
        <time>2025-03-08T14:35:43Z</time>
      </trkpt>
      <trkpt lat="44.44059" lon="1.31294">
        <ele>274.3</ele>
        <time>2025-03-08T14:35:44Z</time>
      </trkpt>
      <trkpt lat="44.44059" lon="1.31294">
        <ele>274.3</ele>
        <time>2025-03-08T14:35:45Z</time>
      </trkpt>
      <trkpt lat="44.44059" lon="1.31294">
        <ele>274.3</ele>
        <time>2025-03-08T14:35:46Z</time>
      </trkpt>
      <trkpt lat="44.44059" lon="1.31294">
        <ele>274.3</ele>
        <time>2025-03-08T14:35:47Z</time>
      </trkpt>
      <trkpt lat="44.44059" lon="1.31294">
        <ele>274.3</ele>
        <time>2025-03-08T14:35:48Z</time>
      </trkpt>
      <trkpt lat="44.44059" lon="1.31294">
        <ele>274.3</ele>
        <time>2025-03-08T14:35:49Z</time>
      </trkpt>
      <trkpt lat="44.44059" lon="1.31294">
        <ele>274.3</ele>
        <time>2025-03-08T14:35:50Z</time>
      </trkpt>
      <trkpt lat="44.44059" lon="1.31294">
        <ele>274.3</ele>
        <time>2025-03-08T14:35:51Z</time>
      </trkpt>
      <trkpt lat="44.44059" lon="1.31294">
        <ele>274.3</ele>
        <time>2025-03-08T14:35:52Z</time>
      </trkpt>
      <trkpt lat="44.44059" lon="1.31294">
        <ele>274.3</ele>
        <time>2025-03-08T14:35:53Z</time>
      </trkpt>
      <trkpt lat="44.44059" lon="1.31294">
        <ele>274.3</ele>
        <time>2025-03-08T14:35:54Z</time>
      </trkpt>
      <trkpt lat="44.44059" lon="1.31294">
        <ele>274.3</ele>
        <time>2025-03-08T14:35:55Z</time>
      </trkpt>
      <trkpt lat="44.44059" lon="1.31294">
        <ele>274.3</ele>
        <time>2025-03-08T14:35:56Z</time>
      </trkpt>
      <trkpt lat="44.44059" lon="1.31294">
        <ele>274.3</ele>
        <time>2025-03-08T14:35:57Z</time>
      </trkpt>
      <trkpt lat="44.44059" lon="1.31294">
        <ele>274.3</ele>
        <time>2025-03-08T14:35:58Z</time>
      </trkpt>
      <trkpt lat="44.44059" lon="1.31294">
        <ele>274.3</ele>
        <time>2025-03-08T14:35:59Z</time>
      </trkpt>
      <trkpt lat="44.44059" lon="1.31294">
        <ele>274.3</ele>
        <time>2025-03-08T14:36:00Z</time>
      </trkpt>
      <trkpt lat="44.44059" lon="1.31294">
        <ele>274.3</ele>
        <time>2025-03-08T14:36:01Z</time>
      </trkpt>
      <trkpt lat="44.44059" lon="1.31294">
        <ele>274.3</ele>
        <time>2025-03-08T14:36:02Z</time>
      </trkpt>
      <trkpt lat="44.44059" lon="1.31294">
        <ele>274.3</ele>
        <time>2025-03-08T14:36:03Z</time>
      </trkpt>
      <trkpt lat="44.44059" lon="1.31294">
        <ele>274.3</ele>
        <time>2025-03-08T14:36:04Z</time>
      </trkpt>
      <trkpt lat="44.44059" lon="1.31294">
        <ele>274.3</ele>
        <time>2025-03-08T14:36:05Z</time>
      </trkpt>
      <trkpt lat="44.44059" lon="1.31294">
        <ele>274.3</ele>
        <time>2025-03-08T14:36:06Z</time>
      </trkpt>
      <trkpt lat="44.44059" lon="1.31294">
        <ele>274.3</ele>
        <time>2025-03-08T14:36:07Z</time>
      </trkpt>
      <trkpt lat="44.44059" lon="1.31294">
        <ele>274.3</ele>
        <time>2025-03-08T14:36:08Z</time>
      </trkpt>
      <trkpt lat="44.44059" lon="1.31294">
        <ele>274.3</ele>
        <time>2025-03-08T14:36:09Z</time>
      </trkpt>
      <trkpt lat="44.44059" lon="1.31294">
        <ele>274.3</ele>
        <time>2025-03-08T14:36:10Z</time>
      </trkpt>
      <trkpt lat="44.44059" lon="1.31294">
        <ele>274.3</ele>
        <time>2025-03-08T14:36:11Z</time>
      </trkpt>
      <trkpt lat="44.44059" lon="1.31294">
        <ele>274.3</ele>
        <time>2025-03-08T14:36:12Z</time>
      </trkpt>
      <trkpt lat="44.44059" lon="1.31294">
        <ele>274.3</ele>
        <time>2025-03-08T14:36:13Z</time>
      </trkpt>
      <trkpt lat="44.44059" lon="1.31294">
        <ele>274.3</ele>
        <time>2025-03-08T14:36:14Z</time>
      </trkpt>
      <trkpt lat="44.44059" lon="1.31294">
        <ele>274.3</ele>
        <time>2025-03-08T14:36:15Z</time>
      </trkpt>
      <trkpt lat="44.44059" lon="1.31294">
        <ele>274.3</ele>
        <time>2025-03-08T14:36:16Z</time>
      </trkpt>
      <trkpt lat="44.44059" lon="1.31294">
        <ele>274.3</ele>
        <time>2025-03-08T14:36:17Z</time>
      </trkpt>
      <trkpt lat="44.44059" lon="1.31294">
        <ele>274.3</ele>
        <time>2025-03-08T14:36:18Z</time>
      </trkpt>
      <trkpt lat="44.44059" lon="1.31294">
        <ele>274.3</ele>
        <time>2025-03-08T14:36:19Z</time>
      </trkpt>
      <trkpt lat="44.44059" lon="1.31294">
        <ele>274.3</ele>
        <time>2025-03-08T14:36:20Z</time>
      </trkpt>
      <trkpt lat="44.44059" lon="1.31294">
        <ele>274.3</ele>
        <time>2025-03-08T14:36:21Z</time>
      </trkpt>
      <trkpt lat="44.44059" lon="1.31294">
        <ele>274.3</ele>
        <time>2025-03-08T14:36:22Z</time>
      </trkpt>
      <trkpt lat="44.44059" lon="1.31294">
        <ele>274.3</ele>
        <time>2025-03-08T14:36:23Z</time>
      </trkpt>
      <trkpt lat="44.44059" lon="1.31294">
        <ele>274.3</ele>
        <time>2025-03-08T14:36:24Z</time>
      </trkpt>
      <trkpt lat="44.44059" lon="1.31294">
        <ele>274.3</ele>
        <time>2025-03-08T14:36:25Z</time>
      </trkpt>
      <trkpt lat="44.44059" lon="1.31294">
        <ele>274.3</ele>
        <time>2025-03-08T14:36:26Z</time>
      </trkpt>
      <trkpt lat="44.44059" lon="1.31294">
        <ele>274.3</ele>
        <time>2025-03-08T14:36:27Z</time>
      </trkpt>
      <trkpt lat="44.44059" lon="1.31294">
        <ele>274.3</ele>
        <time>2025-03-08T14:36:28Z</time>
      </trkpt>
      <trkpt lat="44.44059" lon="1.31294">
        <ele>274.3</ele>
        <time>2025-03-08T14:36:29Z</time>
      </trkpt>
      <trkpt lat="44.44059" lon="1.31294">
        <ele>274.3</ele>
        <time>2025-03-08T14:36:30Z</time>
      </trkpt>
      <trkpt lat="44.44059" lon="1.31294">
        <ele>274.3</ele>
        <time>2025-03-08T14:36:31Z</time>
      </trkpt>
      <trkpt lat="44.44059" lon="1.31294">
        <ele>274.3</ele>
        <time>2025-03-08T14:36:32Z</time>
      </trkpt>
      <trkpt lat="44.44059" lon="1.31294">
        <ele>274.3</ele>
        <time>2025-03-08T14:36:33Z</time>
      </trkpt>
      <trkpt lat="44.44059" lon="1.31294">
        <ele>274.3</ele>
        <time>2025-03-08T14:36:34Z</time>
      </trkpt>
      <trkpt lat="44.44059" lon="1.31294">
        <ele>274.3</ele>
        <time>2025-03-08T14:36:35Z</time>
      </trkpt>
      <trkpt lat="44.44059" lon="1.31294">
        <ele>274.3</ele>
        <time>2025-03-08T14:36:36Z</time>
      </trkpt>
      <trkpt lat="44.44059" lon="1.31294">
        <ele>274.3</ele>
        <time>2025-03-08T14:36:37Z</time>
      </trkpt>
      <trkpt lat="44.44059" lon="1.31294">
        <ele>274.3</ele>
        <time>2025-03-08T14:36:38Z</time>
      </trkpt>
      <trkpt lat="44.44059" lon="1.31294">
        <ele>274.3</ele>
        <time>2025-03-08T14:36:39Z</time>
      </trkpt>
      <trkpt lat="44.44059" lon="1.31294">
        <ele>274.3</ele>
        <time>2025-03-08T14:36:40Z</time>
      </trkpt>
      <trkpt lat="44.44059" lon="1.31294">
        <ele>274.3</ele>
        <time>2025-03-08T14:36:41Z</time>
      </trkpt>
      <trkpt lat="44.44059" lon="1.31294">
        <ele>274.3</ele>
        <time>2025-03-08T14:36:42Z</time>
      </trkpt>
      <trkpt lat="44.44059" lon="1.31294">
        <ele>274.3</ele>
        <time>2025-03-08T14:36:43Z</time>
      </trkpt>
      <trkpt lat="44.44059" lon="1.31294">
        <ele>274.3</ele>
        <time>2025-03-08T14:36:44Z</time>
      </trkpt>
      <trkpt lat="44.44059" lon="1.31294">
        <ele>274.3</ele>
        <time>2025-03-08T14:36:45Z</time>
      </trkpt>
      <trkpt lat="44.44059" lon="1.31294">
        <ele>274.3</ele>
        <time>2025-03-08T14:36:46Z</time>
      </trkpt>
      <trkpt lat="44.44059" lon="1.31294">
        <ele>274.3</ele>
        <time>2025-03-08T14:36:47Z</time>
      </trkpt>
      <trkpt lat="44.44059" lon="1.31294">
        <ele>274.3</ele>
        <time>2025-03-08T14:36:48Z</time>
      </trkpt>
      <trkpt lat="44.44059" lon="1.31294">
        <ele>274.3</ele>
        <time>2025-03-08T14:36:49Z</time>
      </trkpt>
      <trkpt lat="44.44059" lon="1.31294">
        <ele>274.3</ele>
        <time>2025-03-08T14:36:50Z</time>
      </trkpt>
      <trkpt lat="44.44059" lon="1.31294">
        <ele>274.3</ele>
        <time>2025-03-08T14:36:51Z</time>
      </trkpt>
      <trkpt lat="44.44059" lon="1.31294">
        <ele>274.3</ele>
        <time>2025-03-08T14:36:52Z</time>
      </trkpt>
      <trkpt lat="44.44059" lon="1.31294">
        <ele>274.3</ele>
        <time>2025-03-08T14:36:53Z</time>
      </trkpt>
      <trkpt lat="44.44059" lon="1.31294">
        <ele>274.3</ele>
        <time>2025-03-08T14:36:54Z</time>
      </trkpt>
      <trkpt lat="44.44059" lon="1.31294">
        <ele>274.3</ele>
        <time>2025-03-08T14:36:55Z</time>
      </trkpt>
      <trkpt lat="44.44059" lon="1.31294">
        <ele>274.3</ele>
        <time>2025-03-08T14:36:56Z</time>
      </trkpt>
      <trkpt lat="44.44059" lon="1.31294">
        <ele>274.3</ele>
        <time>2025-03-08T14:36:57Z</time>
      </trkpt>
      <trkpt lat="44.44059" lon="1.31294">
        <ele>274.3</ele>
        <time>2025-03-08T14:36:58Z</time>
      </trkpt>
      <trkpt lat="44.44059" lon="1.31294">
        <ele>274.3</ele>
        <time>2025-03-08T14:36:59Z</time>
      </trkpt>
      <trkpt lat="44.44059" lon="1.31294">
        <ele>274.3</ele>
        <time>2025-03-08T14:37:00Z</time>
      </trkpt>
      <trkpt lat="44.44059" lon="1.31294">
        <ele>274.3</ele>
        <time>2025-03-08T14:37:01Z</time>
      </trkpt>
      <trkpt lat="44.44059" lon="1.31294">
        <ele>274.3</ele>
        <time>2025-03-08T14:37:02Z</time>
      </trkpt>
      <trkpt lat="44.44059" lon="1.31294">
        <ele>274.3</ele>
        <time>2025-03-08T14:37:03Z</time>
      </trkpt>
      <trkpt lat="44.44059" lon="1.31294">
        <ele>274.3</ele>
        <time>2025-03-08T14:37:04Z</time>
      </trkpt>
      <trkpt lat="44.44059" lon="1.31294">
        <ele>274.3</ele>
        <time>2025-03-08T14:37:05Z</time>
      </trkpt>
      <trkpt lat="44.44059" lon="1.31294">
        <ele>274.3</ele>
        <time>2025-03-08T14:37:06Z</time>
      </trkpt>
      <trkpt lat="44.44059" lon="1.31294">
        <ele>274.3</ele>
        <time>2025-03-08T14:37:07Z</time>
      </trkpt>
      <trkpt lat="44.44059" lon="1.31294">
        <ele>274.3</ele>
        <time>2025-03-08T14:37:08Z</time>
      </trkpt>
      <trkpt lat="44.44059" lon="1.31294">
        <ele>274.3</ele>
        <time>2025-03-08T14:37:09Z</time>
      </trkpt>
      <trkpt lat="44.44059" lon="1.31294">
        <ele>274.3</ele>
        <time>2025-03-08T14:37:10Z</time>
      </trkpt>
      <trkpt lat="44.44059" lon="1.31294">
        <ele>274.3</ele>
        <time>2025-03-08T14:37:11Z</time>
      </trkpt>
      <trkpt lat="44.44059" lon="1.31294">
        <ele>274.3</ele>
        <time>2025-03-08T14:37:12Z</time>
      </trkpt>
      <trkpt lat="44.44059" lon="1.31294">
        <ele>274.3</ele>
        <time>2025-03-08T14:37:13Z</time>
      </trkpt>
      <trkpt lat="44.44059" lon="1.31294">
        <ele>274.3</ele>
        <time>2025-03-08T14:37:14Z</time>
      </trkpt>
      <trkpt lat="44.44059" lon="1.31294">
        <ele>274.3</ele>
        <time>2025-03-08T14:37:15Z</time>
      </trkpt>
      <trkpt lat="44.44059" lon="1.31294">
        <ele>274.3</ele>
        <time>2025-03-08T14:37:16Z</time>
      </trkpt>
      <trkpt lat="44.44059" lon="1.31294">
        <ele>274.3</ele>
        <time>2025-03-08T14:37:17Z</time>
      </trkpt>
      <trkpt lat="44.44059" lon="1.31294">
        <ele>274.3</ele>
        <time>2025-03-08T14:37:18Z</time>
      </trkpt>
      <trkpt lat="44.44059" lon="1.31294">
        <ele>274.3</ele>
        <time>2025-03-08T14:37:19Z</time>
      </trkpt>
      <trkpt lat="44.44059" lon="1.31294">
        <ele>274.3</ele>
        <time>2025-03-08T14:37:20Z</time>
      </trkpt>
      <trkpt lat="44.44059" lon="1.31294">
        <ele>274.3</ele>
        <time>2025-03-08T14:37:21Z</time>
      </trkpt>
      <trkpt lat="44.44059" lon="1.31294">
        <ele>274.3</ele>
        <time>2025-03-08T14:37:22Z</time>
      </trkpt>
      <trkpt lat="44.44059" lon="1.31294">
        <ele>274.3</ele>
        <time>2025-03-08T14:37:23Z</time>
      </trkpt>
      <trkpt lat="44.44059" lon="1.31294">
        <ele>274.3</ele>
        <time>2025-03-08T14:37:24Z</time>
      </trkpt>
      <trkpt lat="44.44059" lon="1.31294">
        <ele>274.3</ele>
        <time>2025-03-08T14:37:25Z</time>
      </trkpt>
      <trkpt lat="44.44059" lon="1.31294">
        <ele>274.3</ele>
        <time>2025-03-08T14:37:26Z</time>
      </trkpt>
      <trkpt lat="44.44059" lon="1.31294">
        <ele>274.3</ele>
        <time>2025-03-08T14:37:27Z</time>
      </trkpt>
      <trkpt lat="44.44059" lon="1.31294">
        <ele>274.3</ele>
        <time>2025-03-08T14:37:28Z</time>
      </trkpt>
      <trkpt lat="44.44059" lon="1.31294">
        <ele>274.3</ele>
        <time>2025-03-08T14:37:29Z</time>
      </trkpt>
      <trkpt lat="44.44059" lon="1.31294">
        <ele>274.3</ele>
        <time>2025-03-08T14:37:30Z</time>
      </trkpt>
      <trkpt lat="44.44059" lon="1.31294">
        <ele>274.3</ele>
        <time>2025-03-08T14:37:31Z</time>
      </trkpt>
      <trkpt lat="44.44059" lon="1.31294">
        <ele>274.3</ele>
        <time>2025-03-08T14:37:32Z</time>
      </trkpt>
      <trkpt lat="44.44059" lon="1.31294">
        <ele>274.3</ele>
        <time>2025-03-08T14:37:33Z</time>
      </trkpt>
      <trkpt lat="44.44059" lon="1.31294">
        <ele>274.3</ele>
        <time>2025-03-08T14:37:34Z</time>
      </trkpt>
      <trkpt lat="44.44059" lon="1.31294">
        <ele>274.3</ele>
        <time>2025-03-08T14:37:35Z</time>
      </trkpt>
      <trkpt lat="44.44059" lon="1.31294">
        <ele>274.3</ele>
        <time>2025-03-08T14:37:36Z</time>
      </trkpt>
      <trkpt lat="44.44059" lon="1.31294">
        <ele>274.3</ele>
        <time>2025-03-08T14:37:37Z</time>
      </trkpt>
      <trkpt lat="44.44059" lon="1.31294">
        <ele>274.3</ele>
        <time>2025-03-08T14:37:38Z</time>
      </trkpt>
      <trkpt lat="44.44059" lon="1.31294">
        <ele>274.3</ele>
        <time>2025-03-08T14:37:39Z</time>
      </trkpt>
      <trkpt lat="44.44059" lon="1.31294">
        <ele>274.3</ele>
        <time>2025-03-08T14:37:40Z</time>
      </trkpt>
      <trkpt lat="44.44059" lon="1.31294">
        <ele>274.3</ele>
        <time>2025-03-08T14:37:41Z</time>
      </trkpt>
      <trkpt lat="44.44059" lon="1.31294">
        <ele>274.3</ele>
        <time>2025-03-08T14:37:42Z</time>
      </trkpt>
      <trkpt lat="44.44059" lon="1.31294">
        <ele>274.3</ele>
        <time>2025-03-08T14:37:43Z</time>
      </trkpt>
      <trkpt lat="44.44059" lon="1.31294">
        <ele>274.3</ele>
        <time>2025-03-08T14:37:44Z</time>
      </trkpt>
      <trkpt lat="44.44059" lon="1.31294">
        <ele>274.3</ele>
        <time>2025-03-08T14:37:45Z</time>
      </trkpt>
      <trkpt lat="44.44059" lon="1.31294">
        <ele>274.3</ele>
        <time>2025-03-08T14:37:46Z</time>
      </trkpt>
      <trkpt lat="44.44059" lon="1.31294">
        <ele>274.3</ele>
        <time>2025-03-08T14:37:47Z</time>
      </trkpt>
      <trkpt lat="44.44059" lon="1.31294">
        <ele>274.3</ele>
        <time>2025-03-08T14:37:48Z</time>
      </trkpt>
      <trkpt lat="44.44059" lon="1.31294">
        <ele>274.3</ele>
        <time>2025-03-08T14:37:49Z</time>
      </trkpt>
      <trkpt lat="44.44059" lon="1.31294">
        <ele>274.3</ele>
        <time>2025-03-08T14:37:50Z</time>
      </trkpt>
      <trkpt lat="44.44059" lon="1.31294">
        <ele>274.3</ele>
        <time>2025-03-08T14:37:51Z</time>
      </trkpt>
      <trkpt lat="44.44059" lon="1.31294">
        <ele>274.3</ele>
        <time>2025-03-08T14:37:52Z</time>
      </trkpt>
      <trkpt lat="44.44059" lon="1.31294">
        <ele>274.3</ele>
        <time>2025-03-08T14:37:53Z</time>
      </trkpt>
      <trkpt lat="44.44059" lon="1.31294">
        <ele>274.3</ele>
        <time>2025-03-08T14:37:54Z</time>
      </trkpt>
      <trkpt lat="44.44059" lon="1.31294">
        <ele>274.3</ele>
        <time>2025-03-08T14:37:55Z</time>
      </trkpt>
      <trkpt lat="44.44059" lon="1.31294">
        <ele>274.3</ele>
        <time>2025-03-08T14:37:56Z</time>
      </trkpt>
      <trkpt lat="44.44059" lon="1.31294">
        <ele>274.3</ele>
        <time>2025-03-08T14:37:57Z</time>
      </trkpt>
      <trkpt lat="44.44059" lon="1.31294">
        <ele>274.3</ele>
        <time>2025-03-08T14:37:58Z</time>
      </trkpt>
      <trkpt lat="44.44059" lon="1.31294">
        <ele>274.3</ele>
        <time>2025-03-08T14:37:59Z</time>
      </trkpt>
      <trkpt lat="44.44059" lon="1.31294">
        <ele>274.3</ele>
        <time>2025-03-08T14:38:00Z</time>
      </trkpt>
      <trkpt lat="44.44059" lon="1.31294">
        <ele>274.3</ele>
        <time>2025-03-08T14:38:01Z</time>
      </trkpt>
      <trkpt lat="44.44059" lon="1.31294">
        <ele>274.3</ele>
        <time>2025-03-08T14:38:02Z</time>
      </trkpt>
      <trkpt lat="44.44059" lon="1.31294">
        <ele>274.3</ele>
        <time>2025-03-08T14:38:03Z</time>
      </trkpt>
      <trkpt lat="44.44059" lon="1.31294">
        <ele>274.3</ele>
        <time>2025-03-08T14:38:04Z</time>
      </trkpt>
      <trkpt lat="44.44059" lon="1.31294">
        <ele>274.3</ele>
        <time>2025-03-08T14:38:05Z</time>
      </trkpt>
      <trkpt lat="44.44059" lon="1.31294">
        <ele>274.3</ele>
        <time>2025-03-08T14:38:06Z</time>
      </trkpt>
      <trkpt lat="44.44059" lon="1.31294">
        <ele>274.3</ele>
        <time>2025-03-08T14:38:07Z</time>
      </trkpt>
      <trkpt lat="44.44059" lon="1.31294">
        <ele>274.3</ele>
        <time>2025-03-08T14:38:08Z</time>
      </trkpt>
      <trkpt lat="44.44059" lon="1.31294">
        <ele>274.3</ele>
        <time>2025-03-08T14:38:09Z</time>
      </trkpt>
      <trkpt lat="44.44059" lon="1.31294">
        <ele>274.3</ele>
        <time>2025-03-08T14:38:10Z</time>
      </trkpt>
      <trkpt lat="44.44059" lon="1.31294">
        <ele>274.3</ele>
        <time>2025-03-08T14:38:11Z</time>
      </trkpt>
      <trkpt lat="44.44059" lon="1.31294">
        <ele>274.3</ele>
        <time>2025-03-08T14:38:12Z</time>
      </trkpt>
      <trkpt lat="44.44059" lon="1.31294">
        <ele>274.3</ele>
        <time>2025-03-08T14:38:13Z</time>
      </trkpt>
      <trkpt lat="44.44059" lon="1.31294">
        <ele>274.3</ele>
        <time>2025-03-08T14:38:14Z</time>
      </trkpt>
      <trkpt lat="44.44059" lon="1.31294">
        <ele>274.3</ele>
        <time>2025-03-08T14:38:15Z</time>
      </trkpt>
      <trkpt lat="44.44059" lon="1.31294">
        <ele>274.3</ele>
        <time>2025-03-08T14:38:16Z</time>
      </trkpt>
      <trkpt lat="44.44059" lon="1.31294">
        <ele>274.3</ele>
        <time>2025-03-08T14:38:17Z</time>
      </trkpt>
      <trkpt lat="44.44059" lon="1.31294">
        <ele>274.3</ele>
        <time>2025-03-08T14:38:18Z</time>
      </trkpt>
      <trkpt lat="44.44059" lon="1.31294">
        <ele>274.3</ele>
        <time>2025-03-08T14:38:19Z</time>
      </trkpt>
      <trkpt lat="44.44059" lon="1.31294">
        <ele>274.3</ele>
        <time>2025-03-08T14:38:20Z</time>
      </trkpt>
      <trkpt lat="44.44059" lon="1.31294">
        <ele>274.3</ele>
        <time>2025-03-08T14:38:21Z</time>
      </trkpt>
      <trkpt lat="44.44059" lon="1.31294">
        <ele>274.3</ele>
        <time>2025-03-08T14:38:22Z</time>
      </trkpt>
      <trkpt lat="44.44059" lon="1.31294">
        <ele>274.3</ele>
        <time>2025-03-08T14:38:23Z</time>
      </trkpt>
      <trkpt lat="44.44059" lon="1.31294">
        <ele>274.3</ele>
        <time>2025-03-08T14:38:24Z</time>
      </trkpt>
      <trkpt lat="44.44059" lon="1.31294">
        <ele>274.3</ele>
        <time>2025-03-08T14:38:25Z</time>
      </trkpt>
      <trkpt lat="44.44059" lon="1.31294">
        <ele>274.3</ele>
        <time>2025-03-08T14:38:26Z</time>
      </trkpt>
      <trkpt lat="44.44059" lon="1.31294">
        <ele>274.3</ele>
        <time>2025-03-08T14:38:27Z</time>
      </trkpt>
      <trkpt lat="44.44059" lon="1.31294">
        <ele>274.3</ele>
        <time>2025-03-08T14:38:28Z</time>
      </trkpt>
      <trkpt lat="44.44059" lon="1.31294">
        <ele>274.3</ele>
        <time>2025-03-08T14:38:29Z</time>
      </trkpt>
      <trkpt lat="44.44059" lon="1.31294">
        <ele>274.3</ele>
        <time>2025-03-08T14:38:30Z</time>
      </trkpt>
      <trkpt lat="44.44059" lon="1.31294">
        <ele>274.3</ele>
        <time>2025-03-08T14:38:31Z</time>
      </trkpt>
      <trkpt lat="44.44059" lon="1.31294">
        <ele>274.3</ele>
        <time>2025-03-08T14:38:32Z</time>
      </trkpt>
      <trkpt lat="44.44059" lon="1.31294">
        <ele>274.3</ele>
        <time>2025-03-08T14:38:33Z</time>
      </trkpt>
      <trkpt lat="44.44059" lon="1.31294">
        <ele>274.3</ele>
        <time>2025-03-08T14:38:34Z</time>
      </trkpt>
      <trkpt lat="44.44059" lon="1.31294">
        <ele>274.3</ele>
        <time>2025-03-08T14:38:35Z</time>
      </trkpt>
      <trkpt lat="44.44059" lon="1.31294">
        <ele>274.3</ele>
        <time>2025-03-08T14:38:36Z</time>
      </trkpt>
      <trkpt lat="44.44059" lon="1.31294">
        <ele>274.3</ele>
        <time>2025-03-08T14:38:37Z</time>
      </trkpt>
      <trkpt lat="44.44059" lon="1.31294">
        <ele>274.3</ele>
        <time>2025-03-08T14:38:38Z</time>
      </trkpt>
      <trkpt lat="44.44059" lon="1.31294">
        <ele>274.3</ele>
        <time>2025-03-08T14:38:39Z</time>
      </trkpt>
      <trkpt lat="44.44059" lon="1.31294">
        <ele>274.3</ele>
        <time>2025-03-08T14:38:40Z</time>
      </trkpt>
      <trkpt lat="44.44059" lon="1.31294">
        <ele>274.3</ele>
        <time>2025-03-08T14:38:41Z</time>
      </trkpt>
      <trkpt lat="44.44059" lon="1.31294">
        <ele>274.3</ele>
        <time>2025-03-08T14:38:42Z</time>
      </trkpt>
      <trkpt lat="44.44059" lon="1.31294">
        <ele>274.3</ele>
        <time>2025-03-08T14:38:43Z</time>
      </trkpt>
      <trkpt lat="44.44059" lon="1.31294">
        <ele>274.3</ele>
        <time>2025-03-08T14:38:44Z</time>
      </trkpt>
      <trkpt lat="44.44059" lon="1.31294">
        <ele>274.3</ele>
        <time>2025-03-08T14:38:45Z</time>
      </trkpt>
      <trkpt lat="44.44059" lon="1.31294">
        <ele>274.3</ele>
        <time>2025-03-08T14:38:46Z</time>
      </trkpt>
      <trkpt lat="44.44059" lon="1.31294">
        <ele>274.3</ele>
        <time>2025-03-08T14:38:47Z</time>
      </trkpt>
      <trkpt lat="44.44059" lon="1.31294">
        <ele>274.3</ele>
        <time>2025-03-08T14:38:48Z</time>
      </trkpt>
      <trkpt lat="44.44059" lon="1.31294">
        <ele>274.3</ele>
        <time>2025-03-08T14:38:49Z</time>
      </trkpt>
      <trkpt lat="44.44059" lon="1.31294">
        <ele>274.3</ele>
        <time>2025-03-08T14:38:50Z</time>
      </trkpt>
      <trkpt lat="44.44059" lon="1.31294">
        <ele>274.3</ele>
        <time>2025-03-08T14:38:51Z</time>
      </trkpt>
      <trkpt lat="44.44059" lon="1.31294">
        <ele>274.3</ele>
        <time>2025-03-08T14:38:52Z</time>
      </trkpt>
      <trkpt lat="44.44059" lon="1.31294">
        <ele>274.3</ele>
        <time>2025-03-08T14:38:53Z</time>
      </trkpt>
      <trkpt lat="44.44059" lon="1.31294">
        <ele>274.3</ele>
        <time>2025-03-08T14:38:54Z</time>
      </trkpt>
      <trkpt lat="44.44059" lon="1.31294">
        <ele>274.3</ele>
        <time>2025-03-08T14:38:55Z</time>
      </trkpt>
      <trkpt lat="44.44059" lon="1.31294">
        <ele>274.3</ele>
        <time>2025-03-08T14:38:56Z</time>
      </trkpt>
      <trkpt lat="44.44059" lon="1.31294">
        <ele>274.3</ele>
        <time>2025-03-08T14:38:57Z</time>
      </trkpt>
      <trkpt lat="44.44059" lon="1.31294">
        <ele>274.3</ele>
        <time>2025-03-08T14:38:58Z</time>
      </trkpt>
      <trkpt lat="44.44059" lon="1.31294">
        <ele>274.3</ele>
        <time>2025-03-08T14:38:59Z</time>
      </trkpt>
      <trkpt lat="44.44059" lon="1.31294">
        <ele>274.3</ele>
        <time>2025-03-08T14:39:00Z</time>
      </trkpt>
      <trkpt lat="44.44059" lon="1.31294">
        <ele>274.3</ele>
        <time>2025-03-08T14:39:01Z</time>
      </trkpt>
      <trkpt lat="44.44059" lon="1.31294">
        <ele>274.3</ele>
        <time>2025-03-08T14:39:02Z</time>
      </trkpt>
      <trkpt lat="44.44059" lon="1.31294">
        <ele>274.3</ele>
        <time>2025-03-08T14:39:03Z</time>
      </trkpt>
      <trkpt lat="44.44059" lon="1.31294">
        <ele>274.3</ele>
        <time>2025-03-08T14:39:04Z</time>
      </trkpt>
      <trkpt lat="44.44059" lon="1.31294">
        <ele>274.3</ele>
        <time>2025-03-08T14:39:05Z</time>
      </trkpt>
      <trkpt lat="44.4406" lon="1.31294">
        <ele>274.3</ele>
        <time>2025-03-08T14:39:06Z</time>
      </trkpt>
      <trkpt lat="44.44061" lon="1.31294">
        <ele>274.2</ele>
        <time>2025-03-08T14:39:07Z</time>
      </trkpt>
      <trkpt lat="44.44061" lon="1.31294">
        <ele>274.2</ele>
        <time>2025-03-08T14:39:08Z</time>
      </trkpt>
      <trkpt lat="44.44061" lon="1.31295">
        <ele>274.2</ele>
        <time>2025-03-08T14:39:09Z</time>
      </trkpt>
      <trkpt lat="44.44061" lon="1.31295">
        <ele>274.1</ele>
        <time>2025-03-08T14:39:10Z</time>
      </trkpt>
      <trkpt lat="44.44062" lon="1.31295">
        <ele>274.1</ele>
        <time>2025-03-08T14:39:11Z</time>
      </trkpt>
      <trkpt lat="44.44062" lon="1.31294">
        <ele>274.1</ele>
        <time>2025-03-08T14:39:12Z</time>
      </trkpt>
      <trkpt lat="44.44062" lon="1.31294">
        <ele>274.1</ele>
        <time>2025-03-08T14:39:13Z</time>
      </trkpt>
      <trkpt lat="44.44062" lon="1.31294">
        <ele>274.1</ele>
        <time>2025-03-08T14:39:14Z</time>
      </trkpt>
      <trkpt lat="44.44062" lon="1.31294">
        <ele>274.1</ele>
        <time>2025-03-08T14:39:15Z</time>
      </trkpt>
      <trkpt lat="44.44062" lon="1.31294">
        <ele>274.1</ele>
        <time>2025-03-08T14:39:16Z</time>
      </trkpt>
      <trkpt lat="44.44062" lon="1.31295">
        <ele>274</ele>
        <time>2025-03-08T14:39:17Z</time>
      </trkpt>
      <trkpt lat="44.44064" lon="1.31294">
        <ele>273.9</ele>
        <time>2025-03-08T14:39:18Z</time>
      </trkpt>
      <trkpt lat="44.44066" lon="1.31291">
        <ele>273.7</ele>
        <time>2025-03-08T14:39:19Z</time>
      </trkpt>
      <trkpt lat="44.4407" lon="1.31291">
        <ele>273.6</ele>
        <time>2025-03-08T14:39:20Z</time>
      </trkpt>
      <trkpt lat="44.44071" lon="1.31291">
        <ele>273.5</ele>
        <time>2025-03-08T14:39:21Z</time>
      </trkpt>
      <trkpt lat="44.44073" lon="1.31292">
        <ele>273.4</ele>
        <time>2025-03-08T14:39:22Z</time>
      </trkpt>
      <trkpt lat="44.44075" lon="1.31292">
        <ele>273.4</ele>
        <time>2025-03-08T14:39:23Z</time>
      </trkpt>
      <trkpt lat="44.44078" lon="1.31293">
        <ele>273.3</ele>
        <time>2025-03-08T14:39:24Z</time>
      </trkpt>
      <trkpt lat="44.44082" lon="1.31294">
        <ele>273.2</ele>
        <time>2025-03-08T14:39:25Z</time>
      </trkpt>
      <trkpt lat="44.44092" lon="1.31298">
        <ele>273</ele>
        <time>2025-03-08T14:39:27Z</time>
      </trkpt>
      <trkpt lat="44.44095" lon="1.31299">
        <ele>273</ele>
        <time>2025-03-08T14:39:28Z</time>
      </trkpt>
      <trkpt lat="44.44097" lon="1.313">
        <ele>272.9</ele>
        <time>2025-03-08T14:39:29Z</time>
      </trkpt>
      <trkpt lat="44.441" lon="1.31301">
        <ele>272.8</ele>
        <time>2025-03-08T14:39:30Z</time>
      </trkpt>
      <trkpt lat="44.44103" lon="1.31301">
        <ele>272.7</ele>
        <time>2025-03-08T14:39:31Z</time>
      </trkpt>
      <trkpt lat="44.44106" lon="1.31302">
        <ele>272.6</ele>
        <time>2025-03-08T14:39:32Z</time>
      </trkpt>
      <trkpt lat="44.4411" lon="1.31303">
        <ele>272.4</ele>
        <time>2025-03-08T14:39:33Z</time>
      </trkpt>
      <trkpt lat="44.44113" lon="1.31305">
        <ele>272.2</ele>
        <time>2025-03-08T14:39:34Z</time>
      </trkpt>
      <trkpt lat="44.44116" lon="1.31306">
        <ele>272</ele>
        <time>2025-03-08T14:39:35Z</time>
      </trkpt>
      <trkpt lat="44.44119" lon="1.31307">
        <ele>271.8</ele>
        <time>2025-03-08T14:39:36Z</time>
      </trkpt>
      <trkpt lat="44.44123" lon="1.31308">
        <ele>271.5</ele>
        <time>2025-03-08T14:39:37Z</time>
      </trkpt>
      <trkpt lat="44.44127" lon="1.31308">
        <ele>271.2</ele>
        <time>2025-03-08T14:39:38Z</time>
      </trkpt>
      <trkpt lat="44.44131" lon="1.31307">
        <ele>270.8</ele>
        <time>2025-03-08T14:39:39Z</time>
      </trkpt>
      <trkpt lat="44.44135" lon="1.31308">
        <ele>270.5</ele>
        <time>2025-03-08T14:39:40Z</time>
      </trkpt>
      <trkpt lat="44.44138" lon="1.3131">
        <ele>270.2</ele>
        <time>2025-03-08T14:39:41Z</time>
      </trkpt>
      <trkpt lat="44.4414" lon="1.31314">
        <ele>269.9</ele>
        <time>2025-03-08T14:39:42Z</time>
      </trkpt>
      <trkpt lat="44.44141" lon="1.31319">
        <ele>269.6</ele>
        <time>2025-03-08T14:39:43Z</time>
      </trkpt>
      <trkpt lat="44.44143" lon="1.31323">
        <ele>269.3</ele>
        <time>2025-03-08T14:39:44Z</time>
      </trkpt>
      <trkpt lat="44.44144" lon="1.31327">
        <ele>269.1</ele>
        <time>2025-03-08T14:39:45Z</time>
      </trkpt>
      <trkpt lat="44.44144" lon="1.31329">
        <ele>269</ele>
        <time>2025-03-08T14:39:46Z</time>
      </trkpt>
      <trkpt lat="44.44144" lon="1.31334">
        <ele>268.7</ele>
        <time>2025-03-08T14:39:47Z</time>
      </trkpt>
      <trkpt lat="44.44143" lon="1.31336">
        <ele>268.5</ele>
        <time>2025-03-08T14:39:48Z</time>
      </trkpt>
      <trkpt lat="44.44143" lon="1.31341">
        <ele>268.3</ele>
        <time>2025-03-08T14:39:49Z</time>
      </trkpt>
      <trkpt lat="44.44144" lon="1.31345">
        <ele>268.4</ele>
        <time>2025-03-08T14:39:50Z</time>
      </trkpt>
      <trkpt lat="44.44144" lon="1.31349">
        <ele>268.8</ele>
        <time>2025-03-08T14:39:51Z</time>
      </trkpt>
      <trkpt lat="44.44143" lon="1.3135">
        <ele>269</ele>
        <time>2025-03-08T14:39:52Z</time>
      </trkpt>
      <trkpt lat="44.44142" lon="1.31351">
        <ele>269.2</ele>
        <time>2025-03-08T14:39:53Z</time>
      </trkpt>
      <trkpt lat="44.4414" lon="1.31351">
        <ele>269.5</ele>
        <time>2025-03-08T14:39:54Z</time>
      </trkpt>
      <trkpt lat="44.44138" lon="1.31352">
        <ele>269.8</ele>
        <time>2025-03-08T14:39:55Z</time>
      </trkpt>
      <trkpt lat="44.44137" lon="1.31352">
        <ele>270.1</ele>
        <time>2025-03-08T14:39:56Z</time>
      </trkpt>
      <trkpt lat="44.44135" lon="1.31351">
        <ele>270.5</ele>
        <time>2025-03-08T14:39:57Z</time>
      </trkpt>
      <trkpt lat="44.44134" lon="1.31351">
        <ele>270.7</ele>
        <time>2025-03-08T14:39:58Z</time>
      </trkpt>
      <trkpt lat="44.44132" lon="1.31352">
        <ele>271.1</ele>
        <time>2025-03-08T14:39:59Z</time>
      </trkpt>
      <trkpt lat="44.44131" lon="1.31354">
        <ele>271.5</ele>
        <time>2025-03-08T14:40:00Z</time>
      </trkpt>
      <trkpt lat="44.44129" lon="1.31355">
        <ele>271.9</ele>
        <time>2025-03-08T14:40:01Z</time>
      </trkpt>
      <trkpt lat="44.44128" lon="1.31356">
        <ele>272.3</ele>
        <time>2025-03-08T14:40:02Z</time>
      </trkpt>
      <trkpt lat="44.44125" lon="1.31356">
        <ele>272.9</ele>
        <time>2025-03-08T14:40:03Z</time>
      </trkpt>
      <trkpt lat="44.44124" lon="1.31357">
        <ele>273.1</ele>
        <time>2025-03-08T14:40:04Z</time>
      </trkpt>
      <trkpt lat="44.44122" lon="1.31356">
        <ele>273.5</ele>
        <time>2025-03-08T14:40:05Z</time>
      </trkpt>
      <trkpt lat="44.44121" lon="1.31357">
        <ele>273.8</ele>
        <time>2025-03-08T14:40:06Z</time>
      </trkpt>
      <trkpt lat="44.44119" lon="1.3136">
        <ele>274.4</ele>
        <time>2025-03-08T14:40:07Z</time>
      </trkpt>
      <trkpt lat="44.44118" lon="1.31361">
        <ele>274.6</ele>
        <time>2025-03-08T14:40:08Z</time>
      </trkpt>
      <trkpt lat="44.44118" lon="1.31363">
        <ele>274.9</ele>
        <time>2025-03-08T14:40:09Z</time>
      </trkpt>
      <trkpt lat="44.44117" lon="1.31364">
        <ele>275.2</ele>
        <time>2025-03-08T14:40:10Z</time>
      </trkpt>
      <trkpt lat="44.44115" lon="1.31367">
        <ele>275.6</ele>
        <time>2025-03-08T14:40:11Z</time>
      </trkpt>
      <trkpt lat="44.44114" lon="1.31368">
        <ele>275.9</ele>
        <time>2025-03-08T14:40:12Z</time>
      </trkpt>
      <trkpt lat="44.44112" lon="1.31371">
        <ele>276.4</ele>
        <time>2025-03-08T14:40:13Z</time>
      </trkpt>
      <trkpt lat="44.44111" lon="1.31372">
        <ele>276.6</ele>
        <time>2025-03-08T14:40:14Z</time>
      </trkpt>
      <trkpt lat="44.44108" lon="1.31374">
        <ele>277.1</ele>
        <time>2025-03-08T14:40:15Z</time>
      </trkpt>
      <trkpt lat="44.44108" lon="1.31374">
        <ele>277.3</ele>
        <time>2025-03-08T14:40:16Z</time>
      </trkpt>
      <trkpt lat="44.44106" lon="1.31374">
        <ele>277.6</ele>
        <time>2025-03-08T14:40:17Z</time>
      </trkpt>
      <trkpt lat="44.44104" lon="1.31374">
        <ele>277.9</ele>
        <time>2025-03-08T14:40:18Z</time>
      </trkpt>
      <trkpt lat="44.44102" lon="1.31374">
        <ele>278.2</ele>
        <time>2025-03-08T14:40:19Z</time>
      </trkpt>
      <trkpt lat="44.44101" lon="1.31374">
        <ele>278.5</ele>
        <time>2025-03-08T14:40:20Z</time>
      </trkpt>
      <trkpt lat="44.44099" lon="1.31374">
        <ele>278.8</ele>
        <time>2025-03-08T14:40:21Z</time>
      </trkpt>
      <trkpt lat="44.44098" lon="1.31375">
        <ele>279</ele>
        <time>2025-03-08T14:40:22Z</time>
      </trkpt>
      <trkpt lat="44.44096" lon="1.31375">
        <ele>279.3</ele>
        <time>2025-03-08T14:40:23Z</time>
      </trkpt>
      <trkpt lat="44.44095" lon="1.31374">
        <ele>279.6</ele>
        <time>2025-03-08T14:40:24Z</time>
      </trkpt>
      <trkpt lat="44.44093" lon="1.31374">
        <ele>279.9</ele>
        <time>2025-03-08T14:40:25Z</time>
      </trkpt>
      <trkpt lat="44.44092" lon="1.31374">
        <ele>280.1</ele>
        <time>2025-03-08T14:40:26Z</time>
      </trkpt>
      <trkpt lat="44.44091" lon="1.31376">
        <ele>280.4</ele>
        <time>2025-03-08T14:40:27Z</time>
      </trkpt>
      <trkpt lat="44.4409" lon="1.31377">
        <ele>280.7</ele>
        <time>2025-03-08T14:40:28Z</time>
      </trkpt>
      <trkpt lat="44.44089" lon="1.31379">
        <ele>280.8</ele>
        <time>2025-03-08T14:40:29Z</time>
      </trkpt>
      <trkpt lat="44.44086" lon="1.31381">
        <ele>281.4</ele>
        <time>2025-03-08T14:40:30Z</time>
      </trkpt>
      <trkpt lat="44.44085" lon="1.31382">
        <ele>281.5</ele>
        <time>2025-03-08T14:40:31Z</time>
      </trkpt>
      <trkpt lat="44.44082" lon="1.31383">
        <ele>282</ele>
        <time>2025-03-08T14:40:32Z</time>
      </trkpt>
      <trkpt lat="44.44082" lon="1.31383">
        <ele>282.1</ele>
        <time>2025-03-08T14:40:33Z</time>
      </trkpt>
      <trkpt lat="44.44079" lon="1.31385">
        <ele>282.4</ele>
        <time>2025-03-08T14:40:34Z</time>
      </trkpt>
      <trkpt lat="44.44079" lon="1.31386">
        <ele>282.6</ele>
        <time>2025-03-08T14:40:35Z</time>
      </trkpt>
      <trkpt lat="44.44078" lon="1.31387">
        <ele>282.7</ele>
        <time>2025-03-08T14:40:36Z</time>
      </trkpt>
      <trkpt lat="44.44076" lon="1.3139">
        <ele>283.1</ele>
        <time>2025-03-08T14:40:37Z</time>
      </trkpt>
      <trkpt lat="44.44075" lon="1.31391">
        <ele>283.2</ele>
        <time>2025-03-08T14:40:38Z</time>
      </trkpt>
      <trkpt lat="44.44074" lon="1.31392">
        <ele>283.4</ele>
        <time>2025-03-08T14:40:39Z</time>
      </trkpt>
      <trkpt lat="44.44073" lon="1.31394">
        <ele>283.5</ele>
        <time>2025-03-08T14:40:40Z</time>
      </trkpt>
      <trkpt lat="44.44072" lon="1.31395">
        <ele>283.7</ele>
        <time>2025-03-08T14:40:41Z</time>
      </trkpt>
      <trkpt lat="44.44071" lon="1.31397">
        <ele>283.8</ele>
        <time>2025-03-08T14:40:42Z</time>
      </trkpt>
      <trkpt lat="44.44069" lon="1.314">
        <ele>284.1</ele>
        <time>2025-03-08T14:40:43Z</time>
      </trkpt>
      <trkpt lat="44.44068" lon="1.31401">
        <ele>284.2</ele>
        <time>2025-03-08T14:40:44Z</time>
      </trkpt>
      <trkpt lat="44.44066" lon="1.31405">
        <ele>284.5</ele>
        <time>2025-03-08T14:40:45Z</time>
      </trkpt>
      <trkpt lat="44.44065" lon="1.31406">
        <ele>284.5</ele>
        <time>2025-03-08T14:40:46Z</time>
      </trkpt>
      <trkpt lat="44.44063" lon="1.31409">
        <ele>284.7</ele>
        <time>2025-03-08T14:40:47Z</time>
      </trkpt>
      <trkpt lat="44.44063" lon="1.3141">
        <ele>284.8</ele>
        <time>2025-03-08T14:40:48Z</time>
      </trkpt>
      <trkpt lat="44.44061" lon="1.31414">
        <ele>285</ele>
        <time>2025-03-08T14:40:49Z</time>
      </trkpt>
      <trkpt lat="44.4406" lon="1.31415">
        <ele>285</ele>
        <time>2025-03-08T14:40:50Z</time>
      </trkpt>
      <trkpt lat="44.44058" lon="1.31419">
        <ele>285.2</ele>
        <time>2025-03-08T14:40:51Z</time>
      </trkpt>
      <trkpt lat="44.44058" lon="1.3142">
        <ele>285.2</ele>
        <time>2025-03-08T14:40:52Z</time>
      </trkpt>
      <trkpt lat="44.44056" lon="1.31424">
        <ele>285.3</ele>
        <time>2025-03-08T14:40:53Z</time>
      </trkpt>
      <trkpt lat="44.44055" lon="1.31425">
        <ele>285.4</ele>
        <time>2025-03-08T14:40:54Z</time>
      </trkpt>
      <trkpt lat="44.44053" lon="1.31428">
        <ele>285.5</ele>
        <time>2025-03-08T14:40:55Z</time>
      </trkpt>
      <trkpt lat="44.44052" lon="1.31429">
        <ele>285.5</ele>
        <time>2025-03-08T14:40:56Z</time>
      </trkpt>
      <trkpt lat="44.44051" lon="1.31431">
        <ele>285.6</ele>
        <time>2025-03-08T14:40:57Z</time>
      </trkpt>
      <trkpt lat="44.4405" lon="1.31433">
        <ele>285.6</ele>
        <time>2025-03-08T14:40:58Z</time>
      </trkpt>
      <trkpt lat="44.44048" lon="1.31436">
        <ele>285.7</ele>
        <time>2025-03-08T14:40:59Z</time>
      </trkpt>
      <trkpt lat="44.44047" lon="1.31437">
        <ele>285.7</ele>
        <time>2025-03-08T14:41:00Z</time>
      </trkpt>
      <trkpt lat="44.44046" lon="1.31441">
        <ele>285.8</ele>
        <time>2025-03-08T14:41:01Z</time>
      </trkpt>
      <trkpt lat="44.44045" lon="1.31442">
        <ele>285.8</ele>
        <time>2025-03-08T14:41:02Z</time>
      </trkpt>
      <trkpt lat="44.44043" lon="1.31446">
        <ele>285.8</ele>
        <time>2025-03-08T14:41:03Z</time>
      </trkpt>
      <trkpt lat="44.44043" lon="1.31448">
        <ele>285.8</ele>
        <time>2025-03-08T14:41:04Z</time>
      </trkpt>
      <trkpt lat="44.44042" lon="1.31453">
        <ele>285.9</ele>
        <time>2025-03-08T14:41:05Z</time>
      </trkpt>
      <trkpt lat="44.44042" lon="1.31455">
        <ele>285.9</ele>
        <time>2025-03-08T14:41:06Z</time>
      </trkpt>
      <trkpt lat="44.44042" lon="1.3146">
        <ele>285.9</ele>
        <time>2025-03-08T14:41:07Z</time>
      </trkpt>
      <trkpt lat="44.44042" lon="1.31462">
        <ele>285.9</ele>
        <time>2025-03-08T14:41:08Z</time>
      </trkpt>
      <trkpt lat="44.44039" lon="1.31465">
        <ele>285.9</ele>
        <time>2025-03-08T14:41:09Z</time>
      </trkpt>
      <trkpt lat="44.44039" lon="1.31466">
        <ele>286</ele>
        <time>2025-03-08T14:41:10Z</time>
      </trkpt>
      <trkpt lat="44.44037" lon="1.31469">
        <ele>286</ele>
        <time>2025-03-08T14:41:11Z</time>
      </trkpt>
      <trkpt lat="44.44035" lon="1.31473">
        <ele>286</ele>
        <time>2025-03-08T14:41:12Z</time>
      </trkpt>
      <trkpt lat="44.44034" lon="1.31474">
        <ele>286</ele>
        <time>2025-03-08T14:41:13Z</time>
      </trkpt>
      <trkpt lat="44.4403" lon="1.31476">
        <ele>286.1</ele>
        <time>2025-03-08T14:41:14Z</time>
      </trkpt>
      <trkpt lat="44.44029" lon="1.31478">
        <ele>286.1</ele>
        <time>2025-03-08T14:41:15Z</time>
      </trkpt>
      <trkpt lat="44.44027" lon="1.31481">
        <ele>286.2</ele>
        <time>2025-03-08T14:41:16Z</time>
      </trkpt>
      <trkpt lat="44.44026" lon="1.31486">
        <ele>286.3</ele>
        <time>2025-03-08T14:41:17Z</time>
      </trkpt>
      <trkpt lat="44.44026" lon="1.31491">
        <ele>286.4</ele>
        <time>2025-03-08T14:41:18Z</time>
      </trkpt>
      <trkpt lat="44.44024" lon="1.31494">
        <ele>286.5</ele>
        <time>2025-03-08T14:41:19Z</time>
      </trkpt>
      <trkpt lat="44.44023" lon="1.31494">
        <ele>286.5</ele>
        <time>2025-03-08T14:41:20Z</time>
      </trkpt>
      <trkpt lat="44.44021" lon="1.31496">
        <ele>286.6</ele>
        <time>2025-03-08T14:41:21Z</time>
      </trkpt>
      <trkpt lat="44.4402" lon="1.31497">
        <ele>286.6</ele>
        <time>2025-03-08T14:41:22Z</time>
      </trkpt>
      <trkpt lat="44.44018" lon="1.315">
        <ele>286.7</ele>
        <time>2025-03-08T14:41:23Z</time>
      </trkpt>
      <trkpt lat="44.44017" lon="1.31501">
        <ele>286.7</ele>
        <time>2025-03-08T14:41:24Z</time>
      </trkpt>
      <trkpt lat="44.44016" lon="1.31506">
        <ele>286.7</ele>
        <time>2025-03-08T14:41:25Z</time>
      </trkpt>
      <trkpt lat="44.44016" lon="1.31512">
        <ele>286.7</ele>
        <time>2025-03-08T14:41:26Z</time>
      </trkpt>
      <trkpt lat="44.44016" lon="1.31517">
        <ele>286.8</ele>
        <time>2025-03-08T14:41:27Z</time>
      </trkpt>
      <trkpt lat="44.44015" lon="1.3152">
        <ele>286.8</ele>
        <time>2025-03-08T14:41:28Z</time>
      </trkpt>
      <trkpt lat="44.44014" lon="1.31524">
        <ele>286.8</ele>
        <time>2025-03-08T14:41:29Z</time>
      </trkpt>
      <trkpt lat="44.44013" lon="1.31528">
        <ele>286.8</ele>
        <time>2025-03-08T14:41:30Z</time>
      </trkpt>
      <trkpt lat="44.44011" lon="1.31531">
        <ele>286.8</ele>
        <time>2025-03-08T14:41:31Z</time>
      </trkpt>
      <trkpt lat="44.44011" lon="1.31532">
        <ele>286.8</ele>
        <time>2025-03-08T14:41:32Z</time>
      </trkpt>
      <trkpt lat="44.4401" lon="1.31534">
        <ele>286.8</ele>
        <time>2025-03-08T14:41:33Z</time>
      </trkpt>
      <trkpt lat="44.44008" lon="1.31536">
        <ele>286.8</ele>
        <time>2025-03-08T14:41:34Z</time>
      </trkpt>
      <trkpt lat="44.44008" lon="1.31536">
        <ele>286.8</ele>
        <time>2025-03-08T14:41:35Z</time>
      </trkpt>
      <trkpt lat="44.44006" lon="1.31536">
        <ele>286.8</ele>
        <time>2025-03-08T14:41:36Z</time>
      </trkpt>
      <trkpt lat="44.44005" lon="1.31535">
        <ele>286.8</ele>
        <time>2025-03-08T14:41:37Z</time>
      </trkpt>
      <trkpt lat="44.44002" lon="1.31535">
        <ele>286.8</ele>
        <time>2025-03-08T14:41:38Z</time>
      </trkpt>
      <trkpt lat="44.44001" lon="1.31535">
        <ele>286.8</ele>
        <time>2025-03-08T14:41:39Z</time>
      </trkpt>
      <trkpt lat="44.43998" lon="1.31537">
        <ele>286.8</ele>
        <time>2025-03-08T14:41:40Z</time>
      </trkpt>
      <trkpt lat="44.43997" lon="1.31539">
        <ele>286.8</ele>
        <time>2025-03-08T14:41:41Z</time>
      </trkpt>
      <trkpt lat="44.43995" lon="1.31542">
        <ele>286.8</ele>
        <time>2025-03-08T14:41:42Z</time>
      </trkpt>
      <trkpt lat="44.43993" lon="1.31545">
        <ele>286.8</ele>
        <time>2025-03-08T14:41:43Z</time>
      </trkpt>
      <trkpt lat="44.43992" lon="1.3155">
        <ele>286.8</ele>
        <time>2025-03-08T14:41:44Z</time>
      </trkpt>
      <trkpt lat="44.43991" lon="1.31552">
        <ele>286.8</ele>
        <time>2025-03-08T14:41:45Z</time>
      </trkpt>
      <trkpt lat="44.4399" lon="1.31556">
        <ele>286.8</ele>
        <time>2025-03-08T14:41:46Z</time>
      </trkpt>
      <trkpt lat="44.43989" lon="1.31558">
        <ele>286.8</ele>
        <time>2025-03-08T14:41:47Z</time>
      </trkpt>
      <trkpt lat="44.43987" lon="1.31562">
        <ele>286.8</ele>
        <time>2025-03-08T14:41:48Z</time>
      </trkpt>
      <trkpt lat="44.43986" lon="1.31563">
        <ele>286.8</ele>
        <time>2025-03-08T14:41:49Z</time>
      </trkpt>
      <trkpt lat="44.43985" lon="1.31567">
        <ele>286.9</ele>
        <time>2025-03-08T14:41:50Z</time>
      </trkpt>
      <trkpt lat="44.43984" lon="1.31569">
        <ele>286.9</ele>
        <time>2025-03-08T14:41:51Z</time>
      </trkpt>
      <trkpt lat="44.43982" lon="1.31572">
        <ele>287</ele>
        <time>2025-03-08T14:41:52Z</time>
      </trkpt>
      <trkpt lat="44.43981" lon="1.31576">
        <ele>287</ele>
        <time>2025-03-08T14:41:53Z</time>
      </trkpt>
      <trkpt lat="44.43979" lon="1.3158">
        <ele>287.1</ele>
        <time>2025-03-08T14:41:54Z</time>
      </trkpt>
      <trkpt lat="44.43978" lon="1.31584">
        <ele>287.1</ele>
        <time>2025-03-08T14:41:55Z</time>
      </trkpt>
      <trkpt lat="44.43975" lon="1.31588">
        <ele>287.2</ele>
        <time>2025-03-08T14:41:56Z</time>
      </trkpt>
      <trkpt lat="44.43974" lon="1.31589">
        <ele>287.2</ele>
        <time>2025-03-08T14:41:57Z</time>
      </trkpt>
      <trkpt lat="44.4397" lon="1.3159">
        <ele>287.2</ele>
        <time>2025-03-08T14:41:58Z</time>
      </trkpt>
      <trkpt lat="44.43969" lon="1.3159">
        <ele>287.2</ele>
        <time>2025-03-08T14:41:59Z</time>
      </trkpt>
      <trkpt lat="44.43966" lon="1.31592">
        <ele>287.2</ele>
        <time>2025-03-08T14:42:00Z</time>
      </trkpt>
      <trkpt lat="44.43964" lon="1.31597">
        <ele>287.1</ele>
        <time>2025-03-08T14:42:01Z</time>
      </trkpt>
      <trkpt lat="44.43962" lon="1.31602">
        <ele>287</ele>
        <time>2025-03-08T14:42:02Z</time>
      </trkpt>
      <trkpt lat="44.43962" lon="1.31606">
        <ele>286.9</ele>
        <time>2025-03-08T14:42:03Z</time>
      </trkpt>
      <trkpt lat="44.43958" lon="1.31609">
        <ele>286.8</ele>
        <time>2025-03-08T14:42:04Z</time>
      </trkpt>
      <trkpt lat="44.43957" lon="1.3161">
        <ele>286.7</ele>
        <time>2025-03-08T14:42:05Z</time>
      </trkpt>
      <trkpt lat="44.43954" lon="1.31614">
        <ele>286.6</ele>
        <time>2025-03-08T14:42:06Z</time>
      </trkpt>
      <trkpt lat="44.43951" lon="1.31618">
        <ele>286.5</ele>
        <time>2025-03-08T14:42:07Z</time>
      </trkpt>
      <trkpt lat="44.43947" lon="1.31621">
        <ele>286.4</ele>
        <time>2025-03-08T14:42:08Z</time>
      </trkpt>
      <trkpt lat="44.43944" lon="1.31623">
        <ele>286.4</ele>
        <time>2025-03-08T14:42:09Z</time>
      </trkpt>
      <trkpt lat="44.4394" lon="1.31627">
        <ele>286.4</ele>
        <time>2025-03-08T14:42:10Z</time>
      </trkpt>
      <trkpt lat="44.43937" lon="1.31631">
        <ele>286.4</ele>
        <time>2025-03-08T14:42:11Z</time>
      </trkpt>
      <trkpt lat="44.43934" lon="1.31634">
        <ele>286.4</ele>
        <time>2025-03-08T14:42:12Z</time>
      </trkpt>
      <trkpt lat="44.4393" lon="1.31638">
        <ele>286.5</ele>
        <time>2025-03-08T14:42:13Z</time>
      </trkpt>
      <trkpt lat="44.43927" lon="1.31641">
        <ele>286.5</ele>
        <time>2025-03-08T14:42:14Z</time>
      </trkpt>
      <trkpt lat="44.43925" lon="1.31643">
        <ele>286.5</ele>
        <time>2025-03-08T14:42:15Z</time>
      </trkpt>
      <trkpt lat="44.43922" lon="1.31647">
        <ele>286.5</ele>
        <time>2025-03-08T14:42:16Z</time>
      </trkpt>
      <trkpt lat="44.43921" lon="1.31648">
        <ele>286.6</ele>
        <time>2025-03-08T14:42:17Z</time>
      </trkpt>
      <trkpt lat="44.4392" lon="1.31654">
        <ele>286.6</ele>
        <time>2025-03-08T14:42:18Z</time>
      </trkpt>
      <trkpt lat="44.43919" lon="1.3166">
        <ele>286.6</ele>
        <time>2025-03-08T14:42:19Z</time>
      </trkpt>
      <trkpt lat="44.4392" lon="1.31666">
        <ele>286.5</ele>
        <time>2025-03-08T14:42:20Z</time>
      </trkpt>
      <trkpt lat="44.4392" lon="1.31672">
        <ele>286.4</ele>
        <time>2025-03-08T14:42:21Z</time>
      </trkpt>
      <trkpt lat="44.43919" lon="1.31676">
        <ele>286.4</ele>
        <time>2025-03-08T14:42:22Z</time>
      </trkpt>
      <trkpt lat="44.43917" lon="1.31678">
        <ele>286.3</ele>
        <time>2025-03-08T14:42:23Z</time>
      </trkpt>
      <trkpt lat="44.43914" lon="1.31682">
        <ele>286.3</ele>
        <time>2025-03-08T14:42:24Z</time>
      </trkpt>
      <trkpt lat="44.43913" lon="1.31683">
        <ele>286.3</ele>
        <time>2025-03-08T14:42:25Z</time>
      </trkpt>
      <trkpt lat="44.43911" lon="1.31686">
        <ele>286.3</ele>
        <time>2025-03-08T14:42:26Z</time>
      </trkpt>
      <trkpt lat="44.43908" lon="1.31689">
        <ele>286.3</ele>
        <time>2025-03-08T14:42:27Z</time>
      </trkpt>
      <trkpt lat="44.43907" lon="1.3169">
        <ele>286.3</ele>
        <time>2025-03-08T14:42:28Z</time>
      </trkpt>
      <trkpt lat="44.43904" lon="1.31692">
        <ele>286.3</ele>
        <time>2025-03-08T14:42:29Z</time>
      </trkpt>
      <trkpt lat="44.43901" lon="1.31695">
        <ele>286.4</ele>
        <time>2025-03-08T14:42:30Z</time>
      </trkpt>
      <trkpt lat="44.439" lon="1.31696">
        <ele>286.5</ele>
        <time>2025-03-08T14:42:31Z</time>
      </trkpt>
      <trkpt lat="44.43897" lon="1.31697">
        <ele>286.6</ele>
        <time>2025-03-08T14:42:32Z</time>
      </trkpt>
      <trkpt lat="44.43894" lon="1.31699">
        <ele>286.8</ele>
        <time>2025-03-08T14:42:33Z</time>
      </trkpt>
      <trkpt lat="44.43891" lon="1.31701">
        <ele>286.9</ele>
        <time>2025-03-08T14:42:34Z</time>
      </trkpt>
      <trkpt lat="44.43887" lon="1.31703">
        <ele>287.3</ele>
        <time>2025-03-08T14:42:35Z</time>
      </trkpt>
      <trkpt lat="44.43885" lon="1.31704">
        <ele>287.5</ele>
        <time>2025-03-08T14:42:36Z</time>
      </trkpt>
      <trkpt lat="44.43882" lon="1.31708">
        <ele>287.9</ele>
        <time>2025-03-08T14:42:37Z</time>
      </trkpt>
      <trkpt lat="44.4388" lon="1.31712">
        <ele>288.3</ele>
        <time>2025-03-08T14:42:38Z</time>
      </trkpt>
      <trkpt lat="44.43878" lon="1.31717">
        <ele>288.8</ele>
        <time>2025-03-08T14:42:39Z</time>
      </trkpt>
      <trkpt lat="44.43877" lon="1.31718">
        <ele>288.9</ele>
        <time>2025-03-08T14:42:40Z</time>
      </trkpt>
      <trkpt lat="44.43875" lon="1.31723">
        <ele>289.3</ele>
        <time>2025-03-08T14:42:41Z</time>
      </trkpt>
      <trkpt lat="44.43873" lon="1.31727">
        <ele>289.6</ele>
        <time>2025-03-08T14:42:42Z</time>
      </trkpt>
      <trkpt lat="44.43871" lon="1.31729">
        <ele>289.8</ele>
        <time>2025-03-08T14:42:43Z</time>
      </trkpt>
      <trkpt lat="44.4387" lon="1.3173">
        <ele>289.9</ele>
        <time>2025-03-08T14:42:44Z</time>
      </trkpt>
      <trkpt lat="44.43867" lon="1.3173">
        <ele>290.1</ele>
        <time>2025-03-08T14:42:45Z</time>
      </trkpt>
      <trkpt lat="44.43864" lon="1.31732">
        <ele>290.3</ele>
        <time>2025-03-08T14:42:46Z</time>
      </trkpt>
      <trkpt lat="44.43862" lon="1.31735">
        <ele>290.5</ele>
        <time>2025-03-08T14:42:47Z</time>
      </trkpt>
      <trkpt lat="44.4386" lon="1.31739">
        <ele>290.7</ele>
        <time>2025-03-08T14:42:48Z</time>
      </trkpt>
      <trkpt lat="44.43859" lon="1.31743">
        <ele>290.8</ele>
        <time>2025-03-08T14:42:49Z</time>
      </trkpt>
      <trkpt lat="44.43857" lon="1.31746">
        <ele>291</ele>
        <time>2025-03-08T14:42:50Z</time>
      </trkpt>
      <trkpt lat="44.43855" lon="1.3175">
        <ele>291.2</ele>
        <time>2025-03-08T14:42:51Z</time>
      </trkpt>
      <trkpt lat="44.43854" lon="1.31754">
        <ele>291.3</ele>
        <time>2025-03-08T14:42:52Z</time>
      </trkpt>
      <trkpt lat="44.43853" lon="1.31758">
        <ele>291.5</ele>
        <time>2025-03-08T14:42:53Z</time>
      </trkpt>
      <trkpt lat="44.4385" lon="1.31761">
        <ele>291.7</ele>
        <time>2025-03-08T14:42:54Z</time>
      </trkpt>
      <trkpt lat="44.43849" lon="1.31762">
        <ele>291.8</ele>
        <time>2025-03-08T14:42:55Z</time>
      </trkpt>
      <trkpt lat="44.43846" lon="1.31766">
        <ele>292</ele>
        <time>2025-03-08T14:42:56Z</time>
      </trkpt>
      <trkpt lat="44.43845" lon="1.31767">
        <ele>292</ele>
        <time>2025-03-08T14:42:57Z</time>
      </trkpt>
      <trkpt lat="44.43842" lon="1.31771">
        <ele>292.3</ele>
        <time>2025-03-08T14:42:58Z</time>
      </trkpt>
      <trkpt lat="44.43841" lon="1.31772">
        <ele>292.4</ele>
        <time>2025-03-08T14:42:59Z</time>
      </trkpt>
      <trkpt lat="44.4384" lon="1.31776">
        <ele>292.6</ele>
        <time>2025-03-08T14:43:00Z</time>
      </trkpt>
      <trkpt lat="44.43839" lon="1.31779">
        <ele>292.7</ele>
        <time>2025-03-08T14:43:01Z</time>
      </trkpt>
      <trkpt lat="44.43837" lon="1.31783">
        <ele>292.9</ele>
        <time>2025-03-08T14:43:02Z</time>
      </trkpt>
      <trkpt lat="44.43836" lon="1.31787">
        <ele>293.1</ele>
        <time>2025-03-08T14:43:03Z</time>
      </trkpt>
      <trkpt lat="44.43834" lon="1.31791">
        <ele>293.3</ele>
        <time>2025-03-08T14:43:04Z</time>
      </trkpt>
      <trkpt lat="44.43832" lon="1.31794">
        <ele>293.5</ele>
        <time>2025-03-08T14:43:05Z</time>
      </trkpt>
      <trkpt lat="44.4383" lon="1.31798">
        <ele>293.7</ele>
        <time>2025-03-08T14:43:06Z</time>
      </trkpt>
      <trkpt lat="44.43829" lon="1.318">
        <ele>293.8</ele>
        <time>2025-03-08T14:43:07Z</time>
      </trkpt>
      <trkpt lat="44.43828" lon="1.31803">
        <ele>294</ele>
        <time>2025-03-08T14:43:08Z</time>
      </trkpt>
      <trkpt lat="44.43827" lon="1.31807">
        <ele>294.1</ele>
        <time>2025-03-08T14:43:09Z</time>
      </trkpt>
      <trkpt lat="44.43825" lon="1.3181">
        <ele>294.3</ele>
        <time>2025-03-08T14:43:10Z</time>
      </trkpt>
      <trkpt lat="44.43823" lon="1.31813">
        <ele>294.5</ele>
        <time>2025-03-08T14:43:11Z</time>
      </trkpt>
      <trkpt lat="44.4382" lon="1.31815">
        <ele>294.6</ele>
        <time>2025-03-08T14:43:12Z</time>
      </trkpt>
      <trkpt lat="44.43818" lon="1.31817">
        <ele>294.8</ele>
        <time>2025-03-08T14:43:13Z</time>
      </trkpt>
      <trkpt lat="44.43815" lon="1.31819">
        <ele>295</ele>
        <time>2025-03-08T14:43:14Z</time>
      </trkpt>
      <trkpt lat="44.43813" lon="1.31821">
        <ele>295.1</ele>
        <time>2025-03-08T14:43:15Z</time>
      </trkpt>
      <trkpt lat="44.43811" lon="1.31825">
        <ele>295.3</ele>
        <time>2025-03-08T14:43:16Z</time>
      </trkpt>
      <trkpt lat="44.43811" lon="1.31826">
        <ele>295.3</ele>
        <time>2025-03-08T14:43:17Z</time>
      </trkpt>
      <trkpt lat="44.43812" lon="1.3183">
        <ele>295.5</ele>
        <time>2025-03-08T14:43:18Z</time>
      </trkpt>
      <trkpt lat="44.43813" lon="1.31834">
        <ele>295.6</ele>
        <time>2025-03-08T14:43:19Z</time>
      </trkpt>
      <trkpt lat="44.43814" lon="1.31839">
        <ele>295.7</ele>
        <time>2025-03-08T14:43:20Z</time>
      </trkpt>
      <trkpt lat="44.43815" lon="1.31844">
        <ele>295.8</ele>
        <time>2025-03-08T14:43:21Z</time>
      </trkpt>
      <trkpt lat="44.43815" lon="1.31849">
        <ele>295.9</ele>
        <time>2025-03-08T14:43:22Z</time>
      </trkpt>
      <trkpt lat="44.43816" lon="1.31855">
        <ele>296</ele>
        <time>2025-03-08T14:43:23Z</time>
      </trkpt>
      <trkpt lat="44.43815" lon="1.31859">
        <ele>296.1</ele>
        <time>2025-03-08T14:43:24Z</time>
      </trkpt>
      <trkpt lat="44.43815" lon="1.31864">
        <ele>296.2</ele>
        <time>2025-03-08T14:43:25Z</time>
      </trkpt>
      <trkpt lat="44.43814" lon="1.31868">
        <ele>296.3</ele>
        <time>2025-03-08T14:43:26Z</time>
      </trkpt>
      <trkpt lat="44.43814" lon="1.31873">
        <ele>296.5</ele>
        <time>2025-03-08T14:43:27Z</time>
      </trkpt>
      <trkpt lat="44.43814" lon="1.31878">
        <ele>296.6</ele>
        <time>2025-03-08T14:43:28Z</time>
      </trkpt>
      <trkpt lat="44.43813" lon="1.31882">
        <ele>296.7</ele>
        <time>2025-03-08T14:43:29Z</time>
      </trkpt>
      <trkpt lat="44.43811" lon="1.31886">
        <ele>296.9</ele>
        <time>2025-03-08T14:43:30Z</time>
      </trkpt>
      <trkpt lat="44.43809" lon="1.31889">
        <ele>297</ele>
        <time>2025-03-08T14:43:31Z</time>
      </trkpt>
      <trkpt lat="44.43809" lon="1.3189">
        <ele>297.1</ele>
        <time>2025-03-08T14:43:32Z</time>
      </trkpt>
      <trkpt lat="44.43806" lon="1.31891">
        <ele>297.2</ele>
        <time>2025-03-08T14:43:33Z</time>
      </trkpt>
      <trkpt lat="44.43805" lon="1.31891">
        <ele>297.3</ele>
        <time>2025-03-08T14:43:34Z</time>
      </trkpt>
      <trkpt lat="44.43802" lon="1.31892">
        <ele>297.5</ele>
        <time>2025-03-08T14:43:35Z</time>
      </trkpt>
      <trkpt lat="44.43802" lon="1.31893">
        <ele>297.6</ele>
        <time>2025-03-08T14:43:36Z</time>
      </trkpt>
      <trkpt lat="44.43799" lon="1.31895">
        <ele>297.9</ele>
        <time>2025-03-08T14:43:37Z</time>
      </trkpt>
      <trkpt lat="44.43798" lon="1.31899">
        <ele>298.2</ele>
        <time>2025-03-08T14:43:38Z</time>
      </trkpt>
      <trkpt lat="44.43798" lon="1.31903">
        <ele>298.6</ele>
        <time>2025-03-08T14:43:39Z</time>
      </trkpt>
      <trkpt lat="44.43798" lon="1.31908">
        <ele>299</ele>
        <time>2025-03-08T14:43:40Z</time>
      </trkpt>
      <trkpt lat="44.43797" lon="1.3191">
        <ele>299.2</ele>
        <time>2025-03-08T14:43:41Z</time>
      </trkpt>
      <trkpt lat="44.43795" lon="1.31914">
        <ele>299.6</ele>
        <time>2025-03-08T14:43:42Z</time>
      </trkpt>
      <trkpt lat="44.43794" lon="1.31914">
        <ele>299.8</ele>
        <time>2025-03-08T14:43:43Z</time>
      </trkpt>
      <trkpt lat="44.43792" lon="1.31916">
        <ele>300.1</ele>
        <time>2025-03-08T14:43:44Z</time>
      </trkpt>
      <trkpt lat="44.43791" lon="1.31917">
        <ele>300.3</ele>
        <time>2025-03-08T14:43:45Z</time>
      </trkpt>
      <trkpt lat="44.43788" lon="1.31919">
        <ele>300.6</ele>
        <time>2025-03-08T14:43:46Z</time>
      </trkpt>
      <trkpt lat="44.43787" lon="1.31919">
        <ele>300.8</ele>
        <time>2025-03-08T14:43:47Z</time>
      </trkpt>
      <trkpt lat="44.43784" lon="1.31922">
        <ele>301.2</ele>
        <time>2025-03-08T14:43:48Z</time>
      </trkpt>
      <trkpt lat="44.43783" lon="1.31923">
        <ele>301.3</ele>
        <time>2025-03-08T14:43:49Z</time>
      </trkpt>
      <trkpt lat="44.43781" lon="1.31927">
        <ele>301.8</ele>
        <time>2025-03-08T14:43:50Z</time>
      </trkpt>
      <trkpt lat="44.4378" lon="1.31928">
        <ele>301.9</ele>
        <time>2025-03-08T14:43:51Z</time>
      </trkpt>
      <trkpt lat="44.43778" lon="1.31932">
        <ele>302.4</ele>
        <time>2025-03-08T14:43:52Z</time>
      </trkpt>
      <trkpt lat="44.43777" lon="1.31934">
        <ele>302.5</ele>
        <time>2025-03-08T14:43:53Z</time>
      </trkpt>
      <trkpt lat="44.43776" lon="1.31937">
        <ele>302.9</ele>
        <time>2025-03-08T14:43:54Z</time>
      </trkpt>
      <trkpt lat="44.43775" lon="1.31939">
        <ele>303.1</ele>
        <time>2025-03-08T14:43:55Z</time>
      </trkpt>
      <trkpt lat="44.43773" lon="1.31942">
        <ele>303.5</ele>
        <time>2025-03-08T14:43:56Z</time>
      </trkpt>
      <trkpt lat="44.43772" lon="1.31943">
        <ele>303.7</ele>
        <time>2025-03-08T14:43:57Z</time>
      </trkpt>
      <trkpt lat="44.43771" lon="1.31948">
        <ele>304.2</ele>
        <time>2025-03-08T14:43:58Z</time>
      </trkpt>
      <trkpt lat="44.43771" lon="1.31949">
        <ele>304.3</ele>
        <time>2025-03-08T14:43:59Z</time>
      </trkpt>
      <trkpt lat="44.43772" lon="1.31953">
        <ele>304.6</ele>
        <time>2025-03-08T14:44:00Z</time>
      </trkpt>
      <trkpt lat="44.43773" lon="1.31957">
        <ele>304.9</ele>
        <time>2025-03-08T14:44:01Z</time>
      </trkpt>
      <trkpt lat="44.43773" lon="1.31959">
        <ele>305</ele>
        <time>2025-03-08T14:44:02Z</time>
      </trkpt>
      <trkpt lat="44.4377" lon="1.3196">
        <ele>305.3</ele>
        <time>2025-03-08T14:44:03Z</time>
      </trkpt>
      <trkpt lat="44.43769" lon="1.31961">
        <ele>305.3</ele>
        <time>2025-03-08T14:44:04Z</time>
      </trkpt>
      <trkpt lat="44.43766" lon="1.31959">
        <ele>305.6</ele>
        <time>2025-03-08T14:44:05Z</time>
      </trkpt>
      <trkpt lat="44.43765" lon="1.31958">
        <ele>305.6</ele>
        <time>2025-03-08T14:44:06Z</time>
      </trkpt>
      <trkpt lat="44.43762" lon="1.31957">
        <ele>305.8</ele>
        <time>2025-03-08T14:44:07Z</time>
      </trkpt>
      <trkpt lat="44.43761" lon="1.31957">
        <ele>305.9</ele>
        <time>2025-03-08T14:44:08Z</time>
      </trkpt>
      <trkpt lat="44.43757" lon="1.31957">
        <ele>306</ele>
        <time>2025-03-08T14:44:09Z</time>
      </trkpt>
      <trkpt lat="44.43756" lon="1.31958">
        <ele>306.1</ele>
        <time>2025-03-08T14:44:10Z</time>
      </trkpt>
      <trkpt lat="44.43754" lon="1.31961">
        <ele>306.2</ele>
        <time>2025-03-08T14:44:11Z</time>
      </trkpt>
      <trkpt lat="44.43753" lon="1.31965">
        <ele>306.3</ele>
        <time>2025-03-08T14:44:12Z</time>
      </trkpt>
      <trkpt lat="44.43752" lon="1.31968">
        <ele>306.3</ele>
        <time>2025-03-08T14:44:13Z</time>
      </trkpt>
      <trkpt lat="44.43751" lon="1.31973">
        <ele>306.4</ele>
        <time>2025-03-08T14:44:14Z</time>
      </trkpt>
      <trkpt lat="44.43751" lon="1.31974">
        <ele>306.4</ele>
        <time>2025-03-08T14:44:15Z</time>
      </trkpt>
      <trkpt lat="44.43749" lon="1.31978">
        <ele>306.5</ele>
        <time>2025-03-08T14:44:16Z</time>
      </trkpt>
      <trkpt lat="44.43749" lon="1.3198">
        <ele>306.6</ele>
        <time>2025-03-08T14:44:17Z</time>
      </trkpt>
      <trkpt lat="44.43747" lon="1.31985">
        <ele>306.7</ele>
        <time>2025-03-08T14:44:18Z</time>
      </trkpt>
      <trkpt lat="44.43747" lon="1.31987">
        <ele>306.8</ele>
        <time>2025-03-08T14:44:19Z</time>
      </trkpt>
      <trkpt lat="44.43746" lon="1.3199">
        <ele>306.9</ele>
        <time>2025-03-08T14:44:20Z</time>
      </trkpt>
      <trkpt lat="44.43745" lon="1.31995">
        <ele>307</ele>
        <time>2025-03-08T14:44:21Z</time>
      </trkpt>
      <trkpt lat="44.43745" lon="1.31997">
        <ele>307.1</ele>
        <time>2025-03-08T14:44:22Z</time>
      </trkpt>
      <trkpt lat="44.43744" lon="1.32001">
        <ele>307.2</ele>
        <time>2025-03-08T14:44:23Z</time>
      </trkpt>
      <trkpt lat="44.43744" lon="1.32003">
        <ele>307.3</ele>
        <time>2025-03-08T14:44:24Z</time>
      </trkpt>
      <trkpt lat="44.43743" lon="1.32007">
        <ele>307.4</ele>
        <time>2025-03-08T14:44:25Z</time>
      </trkpt>
      <trkpt lat="44.43743" lon="1.32009">
        <ele>307.5</ele>
        <time>2025-03-08T14:44:26Z</time>
      </trkpt>
      <trkpt lat="44.43741" lon="1.32012">
        <ele>307.6</ele>
        <time>2025-03-08T14:44:27Z</time>
      </trkpt>
      <trkpt lat="44.43741" lon="1.32014">
        <ele>307.7</ele>
        <time>2025-03-08T14:44:28Z</time>
      </trkpt>
      <trkpt lat="44.4374" lon="1.32019">
        <ele>307.8</ele>
        <time>2025-03-08T14:44:29Z</time>
      </trkpt>
      <trkpt lat="44.43739" lon="1.3202">
        <ele>307.9</ele>
        <time>2025-03-08T14:44:30Z</time>
      </trkpt>
      <trkpt lat="44.43739" lon="1.32024">
        <ele>308</ele>
        <time>2025-03-08T14:44:31Z</time>
      </trkpt>
      <trkpt lat="44.43738" lon="1.32026">
        <ele>308.1</ele>
        <time>2025-03-08T14:44:32Z</time>
      </trkpt>
      <trkpt lat="44.43737" lon="1.3203">
        <ele>308.2</ele>
        <time>2025-03-08T14:44:33Z</time>
      </trkpt>
      <trkpt lat="44.43737" lon="1.32031">
        <ele>308.3</ele>
        <time>2025-03-08T14:44:34Z</time>
      </trkpt>
      <trkpt lat="44.43736" lon="1.32035">
        <ele>308.4</ele>
        <time>2025-03-08T14:44:35Z</time>
      </trkpt>
      <trkpt lat="44.43735" lon="1.32036">
        <ele>308.5</ele>
        <time>2025-03-08T14:44:36Z</time>
      </trkpt>
      <trkpt lat="44.43734" lon="1.3204">
        <ele>308.6</ele>
        <time>2025-03-08T14:44:37Z</time>
      </trkpt>
      <trkpt lat="44.43733" lon="1.32041">
        <ele>308.7</ele>
        <time>2025-03-08T14:44:38Z</time>
      </trkpt>
      <trkpt lat="44.43732" lon="1.32045">
        <ele>308.8</ele>
        <time>2025-03-08T14:44:39Z</time>
      </trkpt>
      <trkpt lat="44.43732" lon="1.32046">
        <ele>308.9</ele>
        <time>2025-03-08T14:44:40Z</time>
      </trkpt>
      <trkpt lat="44.43731" lon="1.3205">
        <ele>309</ele>
        <time>2025-03-08T14:44:41Z</time>
      </trkpt>
      <trkpt lat="44.43731" lon="1.32051">
        <ele>309</ele>
        <time>2025-03-08T14:44:42Z</time>
      </trkpt>
      <trkpt lat="44.43729" lon="1.32056">
        <ele>309.2</ele>
        <time>2025-03-08T14:44:43Z</time>
      </trkpt>
      <trkpt lat="44.43729" lon="1.32058">
        <ele>309.3</ele>
        <time>2025-03-08T14:44:44Z</time>
      </trkpt>
      <trkpt lat="44.43727" lon="1.32063">
        <ele>309.4</ele>
        <time>2025-03-08T14:44:45Z</time>
      </trkpt>
      <trkpt lat="44.43727" lon="1.32064">
        <ele>309.5</ele>
        <time>2025-03-08T14:44:46Z</time>
      </trkpt>
      <trkpt lat="44.43725" lon="1.32068">
        <ele>309.6</ele>
        <time>2025-03-08T14:44:47Z</time>
      </trkpt>
      <trkpt lat="44.43725" lon="1.3207">
        <ele>309.7</ele>
        <time>2025-03-08T14:44:48Z</time>
      </trkpt>
      <trkpt lat="44.43724" lon="1.32074">
        <ele>309.8</ele>
        <time>2025-03-08T14:44:49Z</time>
      </trkpt>
      <trkpt lat="44.43723" lon="1.32075">
        <ele>309.9</ele>
        <time>2025-03-08T14:44:50Z</time>
      </trkpt>
      <trkpt lat="44.43722" lon="1.3208">
        <ele>310</ele>
        <time>2025-03-08T14:44:51Z</time>
      </trkpt>
      <trkpt lat="44.43721" lon="1.32082">
        <ele>310</ele>
        <time>2025-03-08T14:44:52Z</time>
      </trkpt>
      <trkpt lat="44.4372" lon="1.32086">
        <ele>310.1</ele>
        <time>2025-03-08T14:44:53Z</time>
      </trkpt>
      <trkpt lat="44.43719" lon="1.32087">
        <ele>310.2</ele>
        <time>2025-03-08T14:44:54Z</time>
      </trkpt>
      <trkpt lat="44.43718" lon="1.32091">
        <ele>310.2</ele>
        <time>2025-03-08T14:44:55Z</time>
      </trkpt>
      <trkpt lat="44.43718" lon="1.32092">
        <ele>310.2</ele>
        <time>2025-03-08T14:44:56Z</time>
      </trkpt>
      <trkpt lat="44.43716" lon="1.32096">
        <ele>310.3</ele>
        <time>2025-03-08T14:44:57Z</time>
      </trkpt>
      <trkpt lat="44.43716" lon="1.32098">
        <ele>310.3</ele>
        <time>2025-03-08T14:44:58Z</time>
      </trkpt>
      <trkpt lat="44.43714" lon="1.32102">
        <ele>310.3</ele>
        <time>2025-03-08T14:44:59Z</time>
      </trkpt>
      <trkpt lat="44.43714" lon="1.32104">
        <ele>310.3</ele>
        <time>2025-03-08T14:45:00Z</time>
      </trkpt>
      <trkpt lat="44.43712" lon="1.32108">
        <ele>310.4</ele>
        <time>2025-03-08T14:45:01Z</time>
      </trkpt>
      <trkpt lat="44.43712" lon="1.32109">
        <ele>310.4</ele>
        <time>2025-03-08T14:45:02Z</time>
      </trkpt>
      <trkpt lat="44.4371" lon="1.32113">
        <ele>310.3</ele>
        <time>2025-03-08T14:45:03Z</time>
      </trkpt>
      <trkpt lat="44.43709" lon="1.32116">
        <ele>310.3</ele>
        <time>2025-03-08T14:45:04Z</time>
      </trkpt>
      <trkpt lat="44.43708" lon="1.3212">
        <ele>310.3</ele>
        <time>2025-03-08T14:45:05Z</time>
      </trkpt>
      <trkpt lat="44.43706" lon="1.32125">
        <ele>310.2</ele>
        <time>2025-03-08T14:45:06Z</time>
      </trkpt>
      <trkpt lat="44.43706" lon="1.32126">
        <ele>310.2</ele>
        <time>2025-03-08T14:45:07Z</time>
      </trkpt>
      <trkpt lat="44.43704" lon="1.3213">
        <ele>310.1</ele>
        <time>2025-03-08T14:45:08Z</time>
      </trkpt>
      <trkpt lat="44.43703" lon="1.32132">
        <ele>310.1</ele>
        <time>2025-03-08T14:45:09Z</time>
      </trkpt>
      <trkpt lat="44.43701" lon="1.32136">
        <ele>310</ele>
        <time>2025-03-08T14:45:10Z</time>
      </trkpt>
      <trkpt lat="44.437" lon="1.32138">
        <ele>310</ele>
        <time>2025-03-08T14:45:11Z</time>
      </trkpt>
      <trkpt lat="44.43699" lon="1.32143">
        <ele>309.9</ele>
        <time>2025-03-08T14:45:12Z</time>
      </trkpt>
      <trkpt lat="44.43697" lon="1.32147">
        <ele>309.8</ele>
        <time>2025-03-08T14:45:13Z</time>
      </trkpt>
      <trkpt lat="44.43695" lon="1.32151">
        <ele>309.8</ele>
        <time>2025-03-08T14:45:14Z</time>
      </trkpt>
      <trkpt lat="44.43694" lon="1.32155">
        <ele>309.8</ele>
        <time>2025-03-08T14:45:15Z</time>
      </trkpt>
      <trkpt lat="44.43692" lon="1.32159">
        <ele>309.7</ele>
        <time>2025-03-08T14:45:16Z</time>
      </trkpt>
      <trkpt lat="44.43691" lon="1.32163">
        <ele>309.7</ele>
        <time>2025-03-08T14:45:17Z</time>
      </trkpt>
      <trkpt lat="44.4369" lon="1.32167">
        <ele>309.7</ele>
        <time>2025-03-08T14:45:18Z</time>
      </trkpt>
      <trkpt lat="44.43688" lon="1.32171">
        <ele>309.7</ele>
        <time>2025-03-08T14:45:19Z</time>
      </trkpt>
      <trkpt lat="44.43687" lon="1.32175">
        <ele>309.7</ele>
        <time>2025-03-08T14:45:20Z</time>
      </trkpt>
      <trkpt lat="44.43685" lon="1.32178">
        <ele>309.6</ele>
        <time>2025-03-08T14:45:21Z</time>
      </trkpt>
      <trkpt lat="44.43684" lon="1.32182">
        <ele>309.6</ele>
        <time>2025-03-08T14:45:22Z</time>
      </trkpt>
      <trkpt lat="44.43682" lon="1.32186">
        <ele>309.6</ele>
        <time>2025-03-08T14:45:23Z</time>
      </trkpt>
      <trkpt lat="44.4368" lon="1.3219">
        <ele>309.5</ele>
        <time>2025-03-08T14:45:24Z</time>
      </trkpt>
      <trkpt lat="44.43679" lon="1.32194">
        <ele>309.5</ele>
        <time>2025-03-08T14:45:25Z</time>
      </trkpt>
      <trkpt lat="44.43677" lon="1.32198">
        <ele>309.4</ele>
        <time>2025-03-08T14:45:26Z</time>
      </trkpt>
      <trkpt lat="44.43675" lon="1.32203">
        <ele>309.3</ele>
        <time>2025-03-08T14:45:27Z</time>
      </trkpt>
      <trkpt lat="44.43674" lon="1.32207">
        <ele>309.3</ele>
        <time>2025-03-08T14:45:28Z</time>
      </trkpt>
      <trkpt lat="44.43673" lon="1.32212">
        <ele>309.2</ele>
        <time>2025-03-08T14:45:29Z</time>
      </trkpt>
      <trkpt lat="44.43671" lon="1.32218">
        <ele>309.2</ele>
        <time>2025-03-08T14:45:30Z</time>
      </trkpt>
      <trkpt lat="44.43669" lon="1.32223">
        <ele>309.1</ele>
        <time>2025-03-08T14:45:31Z</time>
      </trkpt>
      <trkpt lat="44.43667" lon="1.32227">
        <ele>309</ele>
        <time>2025-03-08T14:45:32Z</time>
      </trkpt>
      <trkpt lat="44.43665" lon="1.32232">
        <ele>309</ele>
        <time>2025-03-08T14:45:33Z</time>
      </trkpt>
      <trkpt lat="44.43662" lon="1.32235">
        <ele>308.9</ele>
        <time>2025-03-08T14:45:34Z</time>
      </trkpt>
      <trkpt lat="44.4366" lon="1.32238">
        <ele>308.8</ele>
        <time>2025-03-08T14:45:35Z</time>
      </trkpt>
      <trkpt lat="44.43658" lon="1.32241">
        <ele>308.7</ele>
        <time>2025-03-08T14:45:36Z</time>
      </trkpt>
      <trkpt lat="44.43656" lon="1.32244">
        <ele>308.6</ele>
        <time>2025-03-08T14:45:37Z</time>
      </trkpt>
      <trkpt lat="44.43654" lon="1.32248">
        <ele>308.5</ele>
        <time>2025-03-08T14:45:38Z</time>
      </trkpt>
      <trkpt lat="44.43653" lon="1.3225">
        <ele>308.4</ele>
        <time>2025-03-08T14:45:39Z</time>
      </trkpt>
      <trkpt lat="44.43651" lon="1.32253">
        <ele>308.3</ele>
        <time>2025-03-08T14:45:40Z</time>
      </trkpt>
      <trkpt lat="44.43649" lon="1.32257">
        <ele>308.2</ele>
        <time>2025-03-08T14:45:41Z</time>
      </trkpt>
      <trkpt lat="44.43647" lon="1.32261">
        <ele>308.1</ele>
        <time>2025-03-08T14:45:42Z</time>
      </trkpt>
      <trkpt lat="44.43645" lon="1.32266">
        <ele>308</ele>
        <time>2025-03-08T14:45:43Z</time>
      </trkpt>
      <trkpt lat="44.43643" lon="1.3227">
        <ele>307.9</ele>
        <time>2025-03-08T14:45:44Z</time>
      </trkpt>
      <trkpt lat="44.43641" lon="1.32274">
        <ele>307.7</ele>
        <time>2025-03-08T14:45:45Z</time>
      </trkpt>
      <trkpt lat="44.43639" lon="1.32278">
        <ele>307.6</ele>
        <time>2025-03-08T14:45:46Z</time>
      </trkpt>
      <trkpt lat="44.43637" lon="1.32282">
        <ele>307.5</ele>
        <time>2025-03-08T14:45:47Z</time>
      </trkpt>
      <trkpt lat="44.43635" lon="1.32286">
        <ele>307.4</ele>
        <time>2025-03-08T14:45:48Z</time>
      </trkpt>
      <trkpt lat="44.43633" lon="1.32289">
        <ele>307.3</ele>
        <time>2025-03-08T14:45:49Z</time>
      </trkpt>
      <trkpt lat="44.43631" lon="1.32293">
        <ele>307.2</ele>
        <time>2025-03-08T14:45:50Z</time>
      </trkpt>
      <trkpt lat="44.43629" lon="1.32297">
        <ele>307.1</ele>
        <time>2025-03-08T14:45:51Z</time>
      </trkpt>
      <trkpt lat="44.43628" lon="1.32302">
        <ele>307</ele>
        <time>2025-03-08T14:45:52Z</time>
      </trkpt>
      <trkpt lat="44.43626" lon="1.32306">
        <ele>307</ele>
        <time>2025-03-08T14:45:53Z</time>
      </trkpt>
      <trkpt lat="44.43625" lon="1.32311">
        <ele>306.9</ele>
        <time>2025-03-08T14:45:54Z</time>
      </trkpt>
      <trkpt lat="44.43624" lon="1.32315">
        <ele>306.9</ele>
        <time>2025-03-08T14:45:55Z</time>
      </trkpt>
      <trkpt lat="44.43622" lon="1.3232">
        <ele>306.8</ele>
        <time>2025-03-08T14:45:56Z</time>
      </trkpt>
      <trkpt lat="44.43621" lon="1.32324">
        <ele>306.7</ele>
        <time>2025-03-08T14:45:57Z</time>
      </trkpt>
      <trkpt lat="44.43619" lon="1.32328">
        <ele>306.6</ele>
        <time>2025-03-08T14:45:58Z</time>
      </trkpt>
      <trkpt lat="44.43618" lon="1.32333">
        <ele>306.5</ele>
        <time>2025-03-08T14:45:59Z</time>
      </trkpt>
      <trkpt lat="44.43617" lon="1.32337">
        <ele>306.4</ele>
        <time>2025-03-08T14:46:00Z</time>
      </trkpt>
      <trkpt lat="44.43615" lon="1.32342">
        <ele>306.4</ele>
        <time>2025-03-08T14:46:01Z</time>
      </trkpt>
      <trkpt lat="44.43614" lon="1.32346">
        <ele>306.4</ele>
        <time>2025-03-08T14:46:02Z</time>
      </trkpt>
      <trkpt lat="44.43613" lon="1.32351">
        <ele>306.4</ele>
        <time>2025-03-08T14:46:03Z</time>
      </trkpt>
      <trkpt lat="44.43611" lon="1.32355">
        <ele>306.5</ele>
        <time>2025-03-08T14:46:04Z</time>
      </trkpt>
      <trkpt lat="44.4361" lon="1.32359">
        <ele>306.5</ele>
        <time>2025-03-08T14:46:05Z</time>
      </trkpt>
      <trkpt lat="44.43609" lon="1.32363">
        <ele>306.6</ele>
        <time>2025-03-08T14:46:06Z</time>
      </trkpt>
      <trkpt lat="44.43607" lon="1.32367">
        <ele>306.6</ele>
        <time>2025-03-08T14:46:07Z</time>
      </trkpt>
      <trkpt lat="44.43606" lon="1.32371">
        <ele>306.7</ele>
        <time>2025-03-08T14:46:08Z</time>
      </trkpt>
      <trkpt lat="44.43605" lon="1.32376">
        <ele>306.7</ele>
        <time>2025-03-08T14:46:09Z</time>
      </trkpt>
      <trkpt lat="44.43603" lon="1.3238">
        <ele>306.8</ele>
        <time>2025-03-08T14:46:10Z</time>
      </trkpt>
      <trkpt lat="44.43602" lon="1.32385">
        <ele>306.9</ele>
        <time>2025-03-08T14:46:11Z</time>
      </trkpt>
      <trkpt lat="44.43601" lon="1.32389">
        <ele>306.9</ele>
        <time>2025-03-08T14:46:12Z</time>
      </trkpt>
      <trkpt lat="44.436" lon="1.32393">
        <ele>307</ele>
        <time>2025-03-08T14:46:13Z</time>
      </trkpt>
      <trkpt lat="44.43599" lon="1.32398">
        <ele>307</ele>
        <time>2025-03-08T14:46:14Z</time>
      </trkpt>
      <trkpt lat="44.43597" lon="1.32402">
        <ele>307.1</ele>
        <time>2025-03-08T14:46:15Z</time>
      </trkpt>
      <trkpt lat="44.43596" lon="1.32406">
        <ele>307.2</ele>
        <time>2025-03-08T14:46:16Z</time>
      </trkpt>
      <trkpt lat="44.43595" lon="1.3241">
        <ele>307.2</ele>
        <time>2025-03-08T14:46:17Z</time>
      </trkpt>
      <trkpt lat="44.43594" lon="1.32414">
        <ele>307.3</ele>
        <time>2025-03-08T14:46:18Z</time>
      </trkpt>
      <trkpt lat="44.43593" lon="1.32419">
        <ele>307.4</ele>
        <time>2025-03-08T14:46:19Z</time>
      </trkpt>
      <trkpt lat="44.43592" lon="1.32424">
        <ele>307.5</ele>
        <time>2025-03-08T14:46:20Z</time>
      </trkpt>
      <trkpt lat="44.4359" lon="1.32428">
        <ele>307.6</ele>
        <time>2025-03-08T14:46:21Z</time>
      </trkpt>
      <trkpt lat="44.43589" lon="1.32432">
        <ele>307.7</ele>
        <time>2025-03-08T14:46:22Z</time>
      </trkpt>
      <trkpt lat="44.43587" lon="1.32437">
        <ele>307.8</ele>
        <time>2025-03-08T14:46:23Z</time>
      </trkpt>
      <trkpt lat="44.43585" lon="1.3244">
        <ele>307.9</ele>
        <time>2025-03-08T14:46:24Z</time>
      </trkpt>
      <trkpt lat="44.43583" lon="1.32442">
        <ele>308</ele>
        <time>2025-03-08T14:46:25Z</time>
      </trkpt>
      <trkpt lat="44.4358" lon="1.32444">
        <ele>308.1</ele>
        <time>2025-03-08T14:46:26Z</time>
      </trkpt>
      <trkpt lat="44.43576" lon="1.32445">
        <ele>308.2</ele>
        <time>2025-03-08T14:46:27Z</time>
      </trkpt>
      <trkpt lat="44.43572" lon="1.32445">
        <ele>308.3</ele>
        <time>2025-03-08T14:46:28Z</time>
      </trkpt>
      <trkpt lat="44.43569" lon="1.32447">
        <ele>308.4</ele>
        <time>2025-03-08T14:46:29Z</time>
      </trkpt>
      <trkpt lat="44.43566" lon="1.32449">
        <ele>308.5</ele>
        <time>2025-03-08T14:46:30Z</time>
      </trkpt>
      <trkpt lat="44.43564" lon="1.32453">
        <ele>308.6</ele>
        <time>2025-03-08T14:46:31Z</time>
      </trkpt>
      <trkpt lat="44.43562" lon="1.32457">
        <ele>308.7</ele>
        <time>2025-03-08T14:46:32Z</time>
      </trkpt>
      <trkpt lat="44.43561" lon="1.32462">
        <ele>308.7</ele>
        <time>2025-03-08T14:46:33Z</time>
      </trkpt>
      <trkpt lat="44.43561" lon="1.32467">
        <ele>308.8</ele>
        <time>2025-03-08T14:46:34Z</time>
      </trkpt>
      <trkpt lat="44.4356" lon="1.32471">
        <ele>308.8</ele>
        <time>2025-03-08T14:46:35Z</time>
      </trkpt>
      <trkpt lat="44.43559" lon="1.32475">
        <ele>308.9</ele>
        <time>2025-03-08T14:46:36Z</time>
      </trkpt>
      <trkpt lat="44.43558" lon="1.32479">
        <ele>308.9</ele>
        <time>2025-03-08T14:46:37Z</time>
      </trkpt>
      <trkpt lat="44.43556" lon="1.32483">
        <ele>309</ele>
        <time>2025-03-08T14:46:38Z</time>
      </trkpt>
      <trkpt lat="44.43555" lon="1.32487">
        <ele>309</ele>
        <time>2025-03-08T14:46:39Z</time>
      </trkpt>
      <trkpt lat="44.43554" lon="1.32491">
        <ele>309.1</ele>
        <time>2025-03-08T14:46:40Z</time>
      </trkpt>
      <trkpt lat="44.43553" lon="1.32496">
        <ele>309.1</ele>
        <time>2025-03-08T14:46:41Z</time>
      </trkpt>
      <trkpt lat="44.43551" lon="1.325">
        <ele>309.2</ele>
        <time>2025-03-08T14:46:42Z</time>
      </trkpt>
      <trkpt lat="44.43551" lon="1.32504">
        <ele>309.3</ele>
        <time>2025-03-08T14:46:43Z</time>
      </trkpt>
      <trkpt lat="44.43551" lon="1.32509">
        <ele>309.3</ele>
        <time>2025-03-08T14:46:44Z</time>
      </trkpt>
      <trkpt lat="44.43551" lon="1.32513">
        <ele>309.4</ele>
        <time>2025-03-08T14:46:45Z</time>
      </trkpt>
      <trkpt lat="44.43552" lon="1.32518">
        <ele>309.4</ele>
        <time>2025-03-08T14:46:46Z</time>
      </trkpt>
      <trkpt lat="44.43554" lon="1.32522">
        <ele>309.5</ele>
        <time>2025-03-08T14:46:47Z</time>
      </trkpt>
      <trkpt lat="44.43557" lon="1.32526">
        <ele>309.5</ele>
        <time>2025-03-08T14:46:48Z</time>
      </trkpt>
      <trkpt lat="44.43559" lon="1.32529">
        <ele>309.5</ele>
        <time>2025-03-08T14:46:49Z</time>
      </trkpt>
      <trkpt lat="44.4356" lon="1.32533">
        <ele>309.6</ele>
        <time>2025-03-08T14:46:50Z</time>
      </trkpt>
      <trkpt lat="44.43562" lon="1.32538">
        <ele>309.6</ele>
        <time>2025-03-08T14:46:51Z</time>
      </trkpt>
      <trkpt lat="44.43563" lon="1.32542">
        <ele>309.6</ele>
        <time>2025-03-08T14:46:52Z</time>
      </trkpt>
      <trkpt lat="44.43565" lon="1.32546">
        <ele>309.6</ele>
        <time>2025-03-08T14:46:53Z</time>
      </trkpt>
      <trkpt lat="44.43567" lon="1.3255">
        <ele>309.6</ele>
        <time>2025-03-08T14:46:54Z</time>
      </trkpt>
      <trkpt lat="44.43569" lon="1.32553">
        <ele>309.6</ele>
        <time>2025-03-08T14:46:55Z</time>
      </trkpt>
      <trkpt lat="44.43571" lon="1.32557">
        <ele>309.7</ele>
        <time>2025-03-08T14:46:56Z</time>
      </trkpt>
      <trkpt lat="44.43573" lon="1.32561">
        <ele>309.7</ele>
        <time>2025-03-08T14:46:57Z</time>
      </trkpt>
      <trkpt lat="44.43574" lon="1.32566">
        <ele>309.7</ele>
        <time>2025-03-08T14:46:58Z</time>
      </trkpt>
      <trkpt lat="44.43575" lon="1.3257">
        <ele>309.7</ele>
        <time>2025-03-08T14:46:59Z</time>
      </trkpt>
      <trkpt lat="44.43577" lon="1.32574">
        <ele>309.7</ele>
        <time>2025-03-08T14:47:00Z</time>
      </trkpt>
      <trkpt lat="44.43578" lon="1.32578">
        <ele>309.7</ele>
        <time>2025-03-08T14:47:01Z</time>
      </trkpt>
      <trkpt lat="44.43579" lon="1.32583">
        <ele>309.8</ele>
        <time>2025-03-08T14:47:02Z</time>
      </trkpt>
      <trkpt lat="44.43581" lon="1.32587">
        <ele>309.8</ele>
        <time>2025-03-08T14:47:03Z</time>
      </trkpt>
      <trkpt lat="44.43582" lon="1.32591">
        <ele>309.8</ele>
        <time>2025-03-08T14:47:04Z</time>
      </trkpt>
      <trkpt lat="44.43583" lon="1.32596">
        <ele>309.8</ele>
        <time>2025-03-08T14:47:05Z</time>
      </trkpt>
      <trkpt lat="44.43584" lon="1.326">
        <ele>309.8</ele>
        <time>2025-03-08T14:47:06Z</time>
      </trkpt>
      <trkpt lat="44.43584" lon="1.32605">
        <ele>309.9</ele>
        <time>2025-03-08T14:47:07Z</time>
      </trkpt>
      <trkpt lat="44.43585" lon="1.3261">
        <ele>309.9</ele>
        <time>2025-03-08T14:47:08Z</time>
      </trkpt>
      <trkpt lat="44.43585" lon="1.32614">
        <ele>309.9</ele>
        <time>2025-03-08T14:47:09Z</time>
      </trkpt>
      <trkpt lat="44.43586" lon="1.32619">
        <ele>309.9</ele>
        <time>2025-03-08T14:47:10Z</time>
      </trkpt>
      <trkpt lat="44.43586" lon="1.32623">
        <ele>309.9</ele>
        <time>2025-03-08T14:47:11Z</time>
      </trkpt>
      <trkpt lat="44.43587" lon="1.32628">
        <ele>310</ele>
        <time>2025-03-08T14:47:12Z</time>
      </trkpt>
      <trkpt lat="44.43588" lon="1.32633">
        <ele>310</ele>
        <time>2025-03-08T14:47:13Z</time>
      </trkpt>
      <trkpt lat="44.43589" lon="1.32638">
        <ele>310</ele>
        <time>2025-03-08T14:47:14Z</time>
      </trkpt>
      <trkpt lat="44.43591" lon="1.32642">
        <ele>310</ele>
        <time>2025-03-08T14:47:15Z</time>
      </trkpt>
      <trkpt lat="44.43591" lon="1.32647">
        <ele>310</ele>
        <time>2025-03-08T14:47:16Z</time>
      </trkpt>
      <trkpt lat="44.43591" lon="1.32652">
        <ele>310.1</ele>
        <time>2025-03-08T14:47:17Z</time>
      </trkpt>
      <trkpt lat="44.43591" lon="1.32656">
        <ele>310.1</ele>
        <time>2025-03-08T14:47:18Z</time>
      </trkpt>
      <trkpt lat="44.43592" lon="1.32659">
        <ele>310.1</ele>
        <time>2025-03-08T14:47:19Z</time>
      </trkpt>
      <trkpt lat="44.43593" lon="1.32663">
        <ele>310.1</ele>
        <time>2025-03-08T14:47:20Z</time>
      </trkpt>
      <trkpt lat="44.43593" lon="1.32668">
        <ele>310.1</ele>
        <time>2025-03-08T14:47:21Z</time>
      </trkpt>
      <trkpt lat="44.43593" lon="1.3267">
        <ele>310.1</ele>
        <time>2025-03-08T14:47:22Z</time>
      </trkpt>
      <trkpt lat="44.43595" lon="1.32673">
        <ele>310.1</ele>
        <time>2025-03-08T14:47:23Z</time>
      </trkpt>
      <trkpt lat="44.43596" lon="1.32674">
        <ele>310.1</ele>
        <time>2025-03-08T14:47:24Z</time>
      </trkpt>
      <trkpt lat="44.43596" lon="1.32676">
        <ele>310.1</ele>
        <time>2025-03-08T14:47:25Z</time>
      </trkpt>
      <trkpt lat="44.43596" lon="1.32676">
        <ele>310.1</ele>
        <time>2025-03-08T14:47:26Z</time>
      </trkpt>
      <trkpt lat="44.43596" lon="1.32676">
        <ele>310.1</ele>
        <time>2025-03-08T14:47:27Z</time>
      </trkpt>
      <trkpt lat="44.43596" lon="1.32676">
        <ele>310.1</ele>
        <time>2025-03-08T14:47:28Z</time>
      </trkpt>
      <trkpt lat="44.43596" lon="1.32676">
        <ele>310.1</ele>
        <time>2025-03-08T14:47:29Z</time>
      </trkpt>
      <trkpt lat="44.43596" lon="1.32676">
        <ele>310.1</ele>
        <time>2025-03-08T14:47:30Z</time>
      </trkpt>
      <trkpt lat="44.43596" lon="1.32676">
        <ele>310.1</ele>
        <time>2025-03-08T14:47:31Z</time>
      </trkpt>
      <trkpt lat="44.43596" lon="1.32676">
        <ele>310.1</ele>
        <time>2025-03-08T14:47:32Z</time>
      </trkpt>
      <trkpt lat="44.43596" lon="1.32676">
        <ele>310.1</ele>
        <time>2025-03-08T14:47:33Z</time>
      </trkpt>
      <trkpt lat="44.43596" lon="1.32676">
        <ele>310.1</ele>
        <time>2025-03-08T14:47:34Z</time>
      </trkpt>
      <trkpt lat="44.43596" lon="1.32676">
        <ele>310.1</ele>
        <time>2025-03-08T14:47:35Z</time>
      </trkpt>
      <trkpt lat="44.43596" lon="1.32676">
        <ele>310.1</ele>
        <time>2025-03-08T14:47:36Z</time>
      </trkpt>
      <trkpt lat="44.43596" lon="1.32676">
        <ele>310.1</ele>
        <time>2025-03-08T14:47:37Z</time>
      </trkpt>
      <trkpt lat="44.43596" lon="1.32676">
        <ele>310.1</ele>
        <time>2025-03-08T14:47:38Z</time>
      </trkpt>
      <trkpt lat="44.43596" lon="1.32676">
        <ele>310.1</ele>
        <time>2025-03-08T14:47:39Z</time>
      </trkpt>
      <trkpt lat="44.43596" lon="1.32676">
        <ele>310.1</ele>
        <time>2025-03-08T14:47:40Z</time>
      </trkpt>
      <trkpt lat="44.43596" lon="1.32676">
        <ele>310.1</ele>
        <time>2025-03-08T14:47:41Z</time>
      </trkpt>
      <trkpt lat="44.43596" lon="1.32676">
        <ele>310.1</ele>
        <time>2025-03-08T14:47:42Z</time>
      </trkpt>
      <trkpt lat="44.43596" lon="1.32676">
        <ele>310.1</ele>
        <time>2025-03-08T14:47:43Z</time>
      </trkpt>
      <trkpt lat="44.43596" lon="1.32676">
        <ele>310.1</ele>
        <time>2025-03-08T14:47:44Z</time>
      </trkpt>
      <trkpt lat="44.43596" lon="1.32676">
        <ele>310.1</ele>
        <time>2025-03-08T14:47:45Z</time>
      </trkpt>
      <trkpt lat="44.43596" lon="1.32676">
        <ele>310.1</ele>
        <time>2025-03-08T14:47:46Z</time>
      </trkpt>
      <trkpt lat="44.43596" lon="1.32676">
        <ele>310.1</ele>
        <time>2025-03-08T14:47:47Z</time>
      </trkpt>
      <trkpt lat="44.43596" lon="1.32676">
        <ele>310.1</ele>
        <time>2025-03-08T14:47:48Z</time>
      </trkpt>
      <trkpt lat="44.43596" lon="1.32676">
        <ele>310.1</ele>
        <time>2025-03-08T14:47:49Z</time>
      </trkpt>
      <trkpt lat="44.43596" lon="1.32676">
        <ele>310.1</ele>
        <time>2025-03-08T14:47:50Z</time>
      </trkpt>
      <trkpt lat="44.43596" lon="1.32676">
        <ele>310.1</ele>
        <time>2025-03-08T14:47:51Z</time>
      </trkpt>
      <trkpt lat="44.43596" lon="1.32676">
        <ele>310.1</ele>
        <time>2025-03-08T14:47:52Z</time>
      </trkpt>
      <trkpt lat="44.43596" lon="1.32676">
        <ele>310.1</ele>
        <time>2025-03-08T14:47:53Z</time>
      </trkpt>
      <trkpt lat="44.43596" lon="1.32676">
        <ele>310.1</ele>
        <time>2025-03-08T14:47:54Z</time>
      </trkpt>
      <trkpt lat="44.43596" lon="1.32676">
        <ele>310.1</ele>
        <time>2025-03-08T14:47:55Z</time>
      </trkpt>
      <trkpt lat="44.43596" lon="1.32676">
        <ele>310.1</ele>
        <time>2025-03-08T14:47:56Z</time>
      </trkpt>
      <trkpt lat="44.43596" lon="1.32676">
        <ele>310.1</ele>
        <time>2025-03-08T14:47:57Z</time>
      </trkpt>
      <trkpt lat="44.43596" lon="1.32676">
        <ele>310.1</ele>
        <time>2025-03-08T14:47:58Z</time>
      </trkpt>
      <trkpt lat="44.43596" lon="1.32676">
        <ele>310.1</ele>
        <time>2025-03-08T14:47:59Z</time>
      </trkpt>
      <trkpt lat="44.43596" lon="1.32676">
        <ele>310.1</ele>
        <time>2025-03-08T14:48:00Z</time>
      </trkpt>
      <trkpt lat="44.43596" lon="1.32676">
        <ele>310.1</ele>
        <time>2025-03-08T14:48:01Z</time>
      </trkpt>
      <trkpt lat="44.43596" lon="1.32676">
        <ele>310.1</ele>
        <time>2025-03-08T14:48:02Z</time>
      </trkpt>
      <trkpt lat="44.43596" lon="1.32676">
        <ele>310.1</ele>
        <time>2025-03-08T14:48:03Z</time>
      </trkpt>
      <trkpt lat="44.43596" lon="1.32676">
        <ele>310.1</ele>
        <time>2025-03-08T14:48:04Z</time>
      </trkpt>
      <trkpt lat="44.43596" lon="1.32676">
        <ele>310.1</ele>
        <time>2025-03-08T14:48:05Z</time>
      </trkpt>
      <trkpt lat="44.43596" lon="1.32676">
        <ele>310.1</ele>
        <time>2025-03-08T14:48:06Z</time>
      </trkpt>
      <trkpt lat="44.43596" lon="1.32676">
        <ele>310.1</ele>
        <time>2025-03-08T14:48:07Z</time>
      </trkpt>
      <trkpt lat="44.43596" lon="1.32676">
        <ele>310.1</ele>
        <time>2025-03-08T14:48:08Z</time>
      </trkpt>
      <trkpt lat="44.43596" lon="1.32676">
        <ele>310.1</ele>
        <time>2025-03-08T14:48:09Z</time>
      </trkpt>
      <trkpt lat="44.43596" lon="1.32676">
        <ele>310.1</ele>
        <time>2025-03-08T14:48:10Z</time>
      </trkpt>
      <trkpt lat="44.43596" lon="1.32676">
        <ele>310.1</ele>
        <time>2025-03-08T14:48:11Z</time>
      </trkpt>
      <trkpt lat="44.43596" lon="1.32676">
        <ele>310.1</ele>
        <time>2025-03-08T14:48:12Z</time>
      </trkpt>
      <trkpt lat="44.43596" lon="1.32676">
        <ele>310.1</ele>
        <time>2025-03-08T14:48:13Z</time>
      </trkpt>
      <trkpt lat="44.43596" lon="1.32676">
        <ele>310.1</ele>
        <time>2025-03-08T14:48:14Z</time>
      </trkpt>
      <trkpt lat="44.43596" lon="1.32676">
        <ele>310.1</ele>
        <time>2025-03-08T14:48:15Z</time>
      </trkpt>
      <trkpt lat="44.43596" lon="1.32676">
        <ele>310.1</ele>
        <time>2025-03-08T14:48:16Z</time>
      </trkpt>
      <trkpt lat="44.43596" lon="1.32676">
        <ele>310.1</ele>
        <time>2025-03-08T14:48:17Z</time>
      </trkpt>
      <trkpt lat="44.43596" lon="1.32676">
        <ele>310.1</ele>
        <time>2025-03-08T14:48:18Z</time>
      </trkpt>
      <trkpt lat="44.43596" lon="1.32676">
        <ele>310.1</ele>
        <time>2025-03-08T14:48:19Z</time>
      </trkpt>
      <trkpt lat="44.43596" lon="1.32676">
        <ele>310.1</ele>
        <time>2025-03-08T14:48:20Z</time>
      </trkpt>
      <trkpt lat="44.43596" lon="1.32676">
        <ele>310.1</ele>
        <time>2025-03-08T14:48:21Z</time>
      </trkpt>
      <trkpt lat="44.43596" lon="1.32676">
        <ele>310.1</ele>
        <time>2025-03-08T14:48:22Z</time>
      </trkpt>
      <trkpt lat="44.43596" lon="1.32676">
        <ele>310.1</ele>
        <time>2025-03-08T14:48:23Z</time>
      </trkpt>
      <trkpt lat="44.43596" lon="1.32676">
        <ele>310.1</ele>
        <time>2025-03-08T14:48:24Z</time>
      </trkpt>
      <trkpt lat="44.43596" lon="1.32676">
        <ele>310.1</ele>
        <time>2025-03-08T14:48:25Z</time>
      </trkpt>
      <trkpt lat="44.43596" lon="1.32676">
        <ele>310.1</ele>
        <time>2025-03-08T14:48:26Z</time>
      </trkpt>
      <trkpt lat="44.43596" lon="1.32676">
        <ele>310.1</ele>
        <time>2025-03-08T14:48:27Z</time>
      </trkpt>
      <trkpt lat="44.43596" lon="1.32676">
        <ele>310.1</ele>
        <time>2025-03-08T14:48:28Z</time>
      </trkpt>
      <trkpt lat="44.43596" lon="1.32676">
        <ele>310.1</ele>
        <time>2025-03-08T14:48:29Z</time>
      </trkpt>
      <trkpt lat="44.43596" lon="1.32676">
        <ele>310.1</ele>
        <time>2025-03-08T14:48:30Z</time>
      </trkpt>
      <trkpt lat="44.43596" lon="1.32676">
        <ele>310.1</ele>
        <time>2025-03-08T14:48:31Z</time>
      </trkpt>
      <trkpt lat="44.43596" lon="1.32676">
        <ele>310.1</ele>
        <time>2025-03-08T14:48:32Z</time>
      </trkpt>
      <trkpt lat="44.43596" lon="1.32676">
        <ele>310.1</ele>
        <time>2025-03-08T14:48:33Z</time>
      </trkpt>
      <trkpt lat="44.43596" lon="1.32676">
        <ele>310.1</ele>
        <time>2025-03-08T14:48:34Z</time>
      </trkpt>
      <trkpt lat="44.43596" lon="1.32676">
        <ele>310.1</ele>
        <time>2025-03-08T14:48:35Z</time>
      </trkpt>
      <trkpt lat="44.43596" lon="1.32676">
        <ele>310.1</ele>
        <time>2025-03-08T14:48:36Z</time>
      </trkpt>
      <trkpt lat="44.43596" lon="1.32676">
        <ele>310.1</ele>
        <time>2025-03-08T14:48:37Z</time>
      </trkpt>
      <trkpt lat="44.43596" lon="1.32676">
        <ele>310.1</ele>
        <time>2025-03-08T14:48:38Z</time>
      </trkpt>
      <trkpt lat="44.43596" lon="1.32676">
        <ele>310.1</ele>
        <time>2025-03-08T14:48:39Z</time>
      </trkpt>
      <trkpt lat="44.43596" lon="1.32676">
        <ele>310.1</ele>
        <time>2025-03-08T14:48:40Z</time>
      </trkpt>
      <trkpt lat="44.43596" lon="1.32676">
        <ele>310.1</ele>
        <time>2025-03-08T14:48:41Z</time>
      </trkpt>
      <trkpt lat="44.43596" lon="1.32676">
        <ele>310.1</ele>
        <time>2025-03-08T14:48:42Z</time>
      </trkpt>
      <trkpt lat="44.43596" lon="1.32677">
        <ele>310.1</ele>
        <time>2025-03-08T14:48:43Z</time>
      </trkpt>
      <trkpt lat="44.43596" lon="1.32677">
        <ele>310.1</ele>
        <time>2025-03-08T14:48:44Z</time>
      </trkpt>
      <trkpt lat="44.43594" lon="1.32678">
        <ele>310</ele>
        <time>2025-03-08T14:48:45Z</time>
      </trkpt>
      <trkpt lat="44.4359" lon="1.32679">
        <ele>309.9</ele>
        <time>2025-03-08T14:48:46Z</time>
      </trkpt>
      <trkpt lat="44.43588" lon="1.32679">
        <ele>309.8</ele>
        <time>2025-03-08T14:48:47Z</time>
      </trkpt>
      <trkpt lat="44.43583" lon="1.32679">
        <ele>309.7</ele>
        <time>2025-03-08T14:48:48Z</time>
      </trkpt>
      <trkpt lat="44.43579" lon="1.32678">
        <ele>309.5</ele>
        <time>2025-03-08T14:48:49Z</time>
      </trkpt>
      <trkpt lat="44.43576" lon="1.32678">
        <ele>309.3</ele>
        <time>2025-03-08T14:48:50Z</time>
      </trkpt>
      <trkpt lat="44.43572" lon="1.32678">
        <ele>309.1</ele>
        <time>2025-03-08T14:48:51Z</time>
      </trkpt>
      <trkpt lat="44.43568" lon="1.32679">
        <ele>308.8</ele>
        <time>2025-03-08T14:48:52Z</time>
      </trkpt>
      <trkpt lat="44.43564" lon="1.3268">
        <ele>308.6</ele>
        <time>2025-03-08T14:48:53Z</time>
      </trkpt>
      <trkpt lat="44.43559" lon="1.32679">
        <ele>308.3</ele>
        <time>2025-03-08T14:48:54Z</time>
      </trkpt>
      <trkpt lat="44.43545" lon="1.32676">
        <ele>307.1</ele>
        <time>2025-03-08T14:48:56Z</time>
      </trkpt>
      <trkpt lat="44.43539" lon="1.32675">
        <ele>306.6</ele>
        <time>2025-03-08T14:48:57Z</time>
      </trkpt>
      <trkpt lat="44.43534" lon="1.32673">
        <ele>306.1</ele>
        <time>2025-03-08T14:48:58Z</time>
      </trkpt>
      <trkpt lat="44.4353" lon="1.32671">
        <ele>305.7</ele>
        <time>2025-03-08T14:48:59Z</time>
      </trkpt>
      <trkpt lat="44.43527" lon="1.3267">
        <ele>305.4</ele>
        <time>2025-03-08T14:49:00Z</time>
      </trkpt>
      <trkpt lat="44.43526" lon="1.3267">
        <ele>305.3</ele>
        <time>2025-03-08T14:49:01Z</time>
      </trkpt>
      <trkpt lat="44.43522" lon="1.32667">
        <ele>304.9</ele>
        <time>2025-03-08T14:49:02Z</time>
      </trkpt>
      <trkpt lat="44.43521" lon="1.32666">
        <ele>304.7</ele>
        <time>2025-03-08T14:49:03Z</time>
      </trkpt>
      <trkpt lat="44.43517" lon="1.32664">
        <ele>304.4</ele>
        <time>2025-03-08T14:49:04Z</time>
      </trkpt>
      <trkpt lat="44.43513" lon="1.32662">
        <ele>303.9</ele>
        <time>2025-03-08T14:49:05Z</time>
      </trkpt>
      <trkpt lat="44.43509" lon="1.3266">
        <ele>303.5</ele>
        <time>2025-03-08T14:49:06Z</time>
      </trkpt>
      <trkpt lat="44.43505" lon="1.32658">
        <ele>303</ele>
        <time>2025-03-08T14:49:07Z</time>
      </trkpt>
      <trkpt lat="44.43501" lon="1.32658">
        <ele>302.6</ele>
        <time>2025-03-08T14:49:08Z</time>
      </trkpt>
      <trkpt lat="44.43497" lon="1.32661">
        <ele>302.4</ele>
        <time>2025-03-08T14:49:09Z</time>
      </trkpt>
      <trkpt lat="44.43494" lon="1.32666">
        <ele>302.5</ele>
        <time>2025-03-08T14:49:10Z</time>
      </trkpt>
      <trkpt lat="44.43492" lon="1.32672">
        <ele>302.5</ele>
        <time>2025-03-08T14:49:11Z</time>
      </trkpt>
      <trkpt lat="44.43492" lon="1.32677">
        <ele>302.6</ele>
        <time>2025-03-08T14:49:12Z</time>
      </trkpt>
      <trkpt lat="44.43491" lon="1.32681">
        <ele>302.6</ele>
        <time>2025-03-08T14:49:13Z</time>
      </trkpt>
      <trkpt lat="44.43489" lon="1.32686">
        <ele>302.6</ele>
        <time>2025-03-08T14:49:14Z</time>
      </trkpt>
      <trkpt lat="44.43487" lon="1.3269">
        <ele>302.6</ele>
        <time>2025-03-08T14:49:15Z</time>
      </trkpt>
      <trkpt lat="44.43486" lon="1.32695">
        <ele>302.6</ele>
        <time>2025-03-08T14:49:16Z</time>
      </trkpt>
      <trkpt lat="44.43484" lon="1.32699">
        <ele>302.7</ele>
        <time>2025-03-08T14:49:17Z</time>
      </trkpt>
      <trkpt lat="44.43482" lon="1.32704">
        <ele>302.7</ele>
        <time>2025-03-08T14:49:18Z</time>
      </trkpt>
      <trkpt lat="44.43481" lon="1.32708">
        <ele>302.7</ele>
        <time>2025-03-08T14:49:19Z</time>
      </trkpt>
      <trkpt lat="44.43479" lon="1.32713">
        <ele>302.8</ele>
        <time>2025-03-08T14:49:20Z</time>
      </trkpt>
      <trkpt lat="44.43477" lon="1.32718">
        <ele>302.8</ele>
        <time>2025-03-08T14:49:21Z</time>
      </trkpt>
      <trkpt lat="44.43475" lon="1.32723">
        <ele>302.9</ele>
        <time>2025-03-08T14:49:22Z</time>
      </trkpt>
      <trkpt lat="44.43473" lon="1.32728">
        <ele>302.9</ele>
        <time>2025-03-08T14:49:23Z</time>
      </trkpt>
      <trkpt lat="44.43471" lon="1.32733">
        <ele>303</ele>
        <time>2025-03-08T14:49:24Z</time>
      </trkpt>
      <trkpt lat="44.43469" lon="1.32738">
        <ele>303</ele>
        <time>2025-03-08T14:49:25Z</time>
      </trkpt>
      <trkpt lat="44.43468" lon="1.32744">
        <ele>303</ele>
        <time>2025-03-08T14:49:26Z</time>
      </trkpt>
      <trkpt lat="44.43467" lon="1.3275">
        <ele>303</ele>
        <time>2025-03-08T14:49:27Z</time>
      </trkpt>
      <trkpt lat="44.43465" lon="1.32755">
        <ele>302.9</ele>
        <time>2025-03-08T14:49:28Z</time>
      </trkpt>
      <trkpt lat="44.43463" lon="1.32761">
        <ele>302.9</ele>
        <time>2025-03-08T14:49:29Z</time>
      </trkpt>
      <trkpt lat="44.43461" lon="1.32766">
        <ele>302.8</ele>
        <time>2025-03-08T14:49:30Z</time>
      </trkpt>
      <trkpt lat="44.43459" lon="1.32771">
        <ele>302.8</ele>
        <time>2025-03-08T14:49:31Z</time>
      </trkpt>
      <trkpt lat="44.43456" lon="1.32777">
        <ele>302.7</ele>
        <time>2025-03-08T14:49:32Z</time>
      </trkpt>
      <trkpt lat="44.43454" lon="1.32782">
        <ele>302.6</ele>
        <time>2025-03-08T14:49:33Z</time>
      </trkpt>
      <trkpt lat="44.43451" lon="1.32788">
        <ele>302.5</ele>
        <time>2025-03-08T14:49:34Z</time>
      </trkpt>
      <trkpt lat="44.43449" lon="1.32794">
        <ele>302.4</ele>
        <time>2025-03-08T14:49:35Z</time>
      </trkpt>
      <trkpt lat="44.43447" lon="1.32799">
        <ele>302.3</ele>
        <time>2025-03-08T14:49:36Z</time>
      </trkpt>
      <trkpt lat="44.43444" lon="1.32805">
        <ele>302.2</ele>
        <time>2025-03-08T14:49:37Z</time>
      </trkpt>
      <trkpt lat="44.43442" lon="1.32811">
        <ele>302.2</ele>
        <time>2025-03-08T14:49:38Z</time>
      </trkpt>
      <trkpt lat="44.43439" lon="1.32816">
        <ele>302.1</ele>
        <time>2025-03-08T14:49:39Z</time>
      </trkpt>
      <trkpt lat="44.43436" lon="1.32822">
        <ele>302</ele>
        <time>2025-03-08T14:49:40Z</time>
      </trkpt>
      <trkpt lat="44.43434" lon="1.32827">
        <ele>301.9</ele>
        <time>2025-03-08T14:49:41Z</time>
      </trkpt>
      <trkpt lat="44.43431" lon="1.32833">
        <ele>301.7</ele>
        <time>2025-03-08T14:49:42Z</time>
      </trkpt>
      <trkpt lat="44.43428" lon="1.32839">
        <ele>301.6</ele>
        <time>2025-03-08T14:49:43Z</time>
      </trkpt>
      <trkpt lat="44.43426" lon="1.32845">
        <ele>301.4</ele>
        <time>2025-03-08T14:49:44Z</time>
      </trkpt>
      <trkpt lat="44.43423" lon="1.32851">
        <ele>301.2</ele>
        <time>2025-03-08T14:49:45Z</time>
      </trkpt>
      <trkpt lat="44.4342" lon="1.32857">
        <ele>301</ele>
        <time>2025-03-08T14:49:46Z</time>
      </trkpt>
      <trkpt lat="44.43417" lon="1.32862">
        <ele>300.8</ele>
        <time>2025-03-08T14:49:47Z</time>
      </trkpt>
      <trkpt lat="44.43415" lon="1.32867">
        <ele>300.6</ele>
        <time>2025-03-08T14:49:48Z</time>
      </trkpt>
      <trkpt lat="44.43413" lon="1.32873">
        <ele>300.4</ele>
        <time>2025-03-08T14:49:49Z</time>
      </trkpt>
      <trkpt lat="44.4341" lon="1.32878">
        <ele>300.2</ele>
        <time>2025-03-08T14:49:50Z</time>
      </trkpt>
      <trkpt lat="44.43407" lon="1.32882">
        <ele>300</ele>
        <time>2025-03-08T14:49:51Z</time>
      </trkpt>
      <trkpt lat="44.43404" lon="1.32887">
        <ele>299.7</ele>
        <time>2025-03-08T14:49:52Z</time>
      </trkpt>
      <trkpt lat="44.43402" lon="1.32892">
        <ele>299.5</ele>
        <time>2025-03-08T14:49:53Z</time>
      </trkpt>
      <trkpt lat="44.43399" lon="1.32898">
        <ele>299.2</ele>
        <time>2025-03-08T14:49:54Z</time>
      </trkpt>
      <trkpt lat="44.43397" lon="1.32903">
        <ele>298.9</ele>
        <time>2025-03-08T14:49:55Z</time>
      </trkpt>
      <trkpt lat="44.43394" lon="1.32909">
        <ele>298.6</ele>
        <time>2025-03-08T14:49:56Z</time>
      </trkpt>
      <trkpt lat="44.43392" lon="1.32915">
        <ele>298.2</ele>
        <time>2025-03-08T14:49:57Z</time>
      </trkpt>
      <trkpt lat="44.43389" lon="1.32921">
        <ele>297.9</ele>
        <time>2025-03-08T14:49:58Z</time>
      </trkpt>
      <trkpt lat="44.43386" lon="1.32926">
        <ele>297.6</ele>
        <time>2025-03-08T14:49:59Z</time>
      </trkpt>
      <trkpt lat="44.43384" lon="1.32931">
        <ele>297.3</ele>
        <time>2025-03-08T14:50:00Z</time>
      </trkpt>
      <trkpt lat="44.43381" lon="1.32936">
        <ele>297</ele>
        <time>2025-03-08T14:50:01Z</time>
      </trkpt>
      <trkpt lat="44.43379" lon="1.32941">
        <ele>296.6</ele>
        <time>2025-03-08T14:50:02Z</time>
      </trkpt>
      <trkpt lat="44.43377" lon="1.32946">
        <ele>296.3</ele>
        <time>2025-03-08T14:50:03Z</time>
      </trkpt>
      <trkpt lat="44.43374" lon="1.32951">
        <ele>295.9</ele>
        <time>2025-03-08T14:50:04Z</time>
      </trkpt>
      <trkpt lat="44.43371" lon="1.32955">
        <ele>295.6</ele>
        <time>2025-03-08T14:50:05Z</time>
      </trkpt>
      <trkpt lat="44.43369" lon="1.3296">
        <ele>295.2</ele>
        <time>2025-03-08T14:50:06Z</time>
      </trkpt>
      <trkpt lat="44.43366" lon="1.32964">
        <ele>294.8</ele>
        <time>2025-03-08T14:50:07Z</time>
      </trkpt>
      <trkpt lat="44.43364" lon="1.32968">
        <ele>294.5</ele>
        <time>2025-03-08T14:50:08Z</time>
      </trkpt>
      <trkpt lat="44.43362" lon="1.32973">
        <ele>294.1</ele>
        <time>2025-03-08T14:50:09Z</time>
      </trkpt>
      <trkpt lat="44.43362" lon="1.32978">
        <ele>293.8</ele>
        <time>2025-03-08T14:50:10Z</time>
      </trkpt>
      <trkpt lat="44.43362" lon="1.32984">
        <ele>293.5</ele>
        <time>2025-03-08T14:50:11Z</time>
      </trkpt>
      <trkpt lat="44.43364" lon="1.32989">
        <ele>293.1</ele>
        <time>2025-03-08T14:50:12Z</time>
      </trkpt>
      <trkpt lat="44.43368" lon="1.32994">
        <ele>292.7</ele>
        <time>2025-03-08T14:50:13Z</time>
      </trkpt>
      <trkpt lat="44.43372" lon="1.32997">
        <ele>292.4</ele>
        <time>2025-03-08T14:50:14Z</time>
      </trkpt>
      <trkpt lat="44.43375" lon="1.33">
        <ele>292.2</ele>
        <time>2025-03-08T14:50:15Z</time>
      </trkpt>
      <trkpt lat="44.43379" lon="1.33003">
        <ele>292</ele>
        <time>2025-03-08T14:50:16Z</time>
      </trkpt>
      <trkpt lat="44.43383" lon="1.33006">
        <ele>291.8</ele>
        <time>2025-03-08T14:50:17Z</time>
      </trkpt>
      <trkpt lat="44.43387" lon="1.33009">
        <ele>291.7</ele>
        <time>2025-03-08T14:50:18Z</time>
      </trkpt>
      <trkpt lat="44.43392" lon="1.33012">
        <ele>291.6</ele>
        <time>2025-03-08T14:50:19Z</time>
      </trkpt>
      <trkpt lat="44.43398" lon="1.33016">
        <ele>291.5</ele>
        <time>2025-03-08T14:50:20Z</time>
      </trkpt>
      <trkpt lat="44.43404" lon="1.33018">
        <ele>291.5</ele>
        <time>2025-03-08T14:50:21Z</time>
      </trkpt>
      <trkpt lat="44.4341" lon="1.33021">
        <ele>291.6</ele>
        <time>2025-03-08T14:50:22Z</time>
      </trkpt>
      <trkpt lat="44.43417" lon="1.33022">
        <ele>291.6</ele>
        <time>2025-03-08T14:50:23Z</time>
      </trkpt>
      <trkpt lat="44.43424" lon="1.33024">
        <ele>291.7</ele>
        <time>2025-03-08T14:50:24Z</time>
      </trkpt>
      <trkpt lat="44.43431" lon="1.33026">
        <ele>291.8</ele>
        <time>2025-03-08T14:50:25Z</time>
      </trkpt>
      <trkpt lat="44.43438" lon="1.33029">
        <ele>292</ele>
        <time>2025-03-08T14:50:26Z</time>
      </trkpt>
      <trkpt lat="44.43446" lon="1.33032">
        <ele>292.2</ele>
        <time>2025-03-08T14:50:27Z</time>
      </trkpt>
      <trkpt lat="44.43454" lon="1.33036">
        <ele>292.4</ele>
        <time>2025-03-08T14:50:28Z</time>
      </trkpt>
      <trkpt lat="44.43463" lon="1.3304">
        <ele>292.6</ele>
        <time>2025-03-08T14:50:29Z</time>
      </trkpt>
      <trkpt lat="44.43471" lon="1.33045">
        <ele>292.7</ele>
        <time>2025-03-08T14:50:30Z</time>
      </trkpt>
      <trkpt lat="44.43479" lon="1.33051">
        <ele>292.8</ele>
        <time>2025-03-08T14:50:31Z</time>
      </trkpt>
      <trkpt lat="44.43486" lon="1.33058">
        <ele>292.8</ele>
        <time>2025-03-08T14:50:32Z</time>
      </trkpt>
      <trkpt lat="44.43491" lon="1.33066">
        <ele>292.8</ele>
        <time>2025-03-08T14:50:33Z</time>
      </trkpt>
      <trkpt lat="44.43496" lon="1.33073">
        <ele>292.7</ele>
        <time>2025-03-08T14:50:34Z</time>
      </trkpt>
      <trkpt lat="44.43501" lon="1.33078">
        <ele>292.6</ele>
        <time>2025-03-08T14:50:35Z</time>
      </trkpt>
      <trkpt lat="44.43506" lon="1.33083">
        <ele>292.5</ele>
        <time>2025-03-08T14:50:36Z</time>
      </trkpt>
      <trkpt lat="44.4351" lon="1.33088">
        <ele>292.4</ele>
        <time>2025-03-08T14:50:37Z</time>
      </trkpt>
      <trkpt lat="44.43515" lon="1.33092">
        <ele>292.3</ele>
        <time>2025-03-08T14:50:38Z</time>
      </trkpt>
      <trkpt lat="44.43519" lon="1.33095">
        <ele>292.1</ele>
        <time>2025-03-08T14:50:39Z</time>
      </trkpt>
      <trkpt lat="44.43523" lon="1.33099">
        <ele>292</ele>
        <time>2025-03-08T14:50:40Z</time>
      </trkpt>
      <trkpt lat="44.43528" lon="1.33102">
        <ele>291.8</ele>
        <time>2025-03-08T14:50:41Z</time>
      </trkpt>
      <trkpt lat="44.43532" lon="1.33105">
        <ele>291.7</ele>
        <time>2025-03-08T14:50:42Z</time>
      </trkpt>
      <trkpt lat="44.43536" lon="1.33108">
        <ele>291.6</ele>
        <time>2025-03-08T14:50:43Z</time>
      </trkpt>
      <trkpt lat="44.4354" lon="1.33111">
        <ele>291.4</ele>
        <time>2025-03-08T14:50:44Z</time>
      </trkpt>
      <trkpt lat="44.43544" lon="1.33114">
        <ele>291.3</ele>
        <time>2025-03-08T14:50:45Z</time>
      </trkpt>
      <trkpt lat="44.43549" lon="1.33116">
        <ele>291.2</ele>
        <time>2025-03-08T14:50:46Z</time>
      </trkpt>
      <trkpt lat="44.43553" lon="1.33118">
        <ele>291.1</ele>
        <time>2025-03-08T14:50:47Z</time>
      </trkpt>
      <trkpt lat="44.43558" lon="1.3312">
        <ele>291</ele>
        <time>2025-03-08T14:50:48Z</time>
      </trkpt>
      <trkpt lat="44.43563" lon="1.33122">
        <ele>290.9</ele>
        <time>2025-03-08T14:50:49Z</time>
      </trkpt>
      <trkpt lat="44.43567" lon="1.33124">
        <ele>290.9</ele>
        <time>2025-03-08T14:50:50Z</time>
      </trkpt>
      <trkpt lat="44.43572" lon="1.33127">
        <ele>290.8</ele>
        <time>2025-03-08T14:50:51Z</time>
      </trkpt>
      <trkpt lat="44.43577" lon="1.33129">
        <ele>290.8</ele>
        <time>2025-03-08T14:50:52Z</time>
      </trkpt>
      <trkpt lat="44.43581" lon="1.33131">
        <ele>290.7</ele>
        <time>2025-03-08T14:50:53Z</time>
      </trkpt>
      <trkpt lat="44.43585" lon="1.33132">
        <ele>290.7</ele>
        <time>2025-03-08T14:50:54Z</time>
      </trkpt>
      <trkpt lat="44.4359" lon="1.33134">
        <ele>290.6</ele>
        <time>2025-03-08T14:50:55Z</time>
      </trkpt>
      <trkpt lat="44.43595" lon="1.33137">
        <ele>290.6</ele>
        <time>2025-03-08T14:50:56Z</time>
      </trkpt>
      <trkpt lat="44.436" lon="1.3314">
        <ele>290.5</ele>
        <time>2025-03-08T14:50:57Z</time>
      </trkpt>
      <trkpt lat="44.43604" lon="1.33145">
        <ele>290.5</ele>
        <time>2025-03-08T14:50:58Z</time>
      </trkpt>
      <trkpt lat="44.43607" lon="1.3315">
        <ele>290.4</ele>
        <time>2025-03-08T14:50:59Z</time>
      </trkpt>
      <trkpt lat="44.43609" lon="1.33157">
        <ele>290.3</ele>
        <time>2025-03-08T14:51:00Z</time>
      </trkpt>
      <trkpt lat="44.4361" lon="1.33164">
        <ele>290.3</ele>
        <time>2025-03-08T14:51:01Z</time>
      </trkpt>
      <trkpt lat="44.43611" lon="1.33171">
        <ele>290.2</ele>
        <time>2025-03-08T14:51:02Z</time>
      </trkpt>
      <trkpt lat="44.43612" lon="1.33177">
        <ele>290.1</ele>
        <time>2025-03-08T14:51:03Z</time>
      </trkpt>
      <trkpt lat="44.43613" lon="1.33183">
        <ele>290</ele>
        <time>2025-03-08T14:51:04Z</time>
      </trkpt>
      <trkpt lat="44.43614" lon="1.33189">
        <ele>289.9</ele>
        <time>2025-03-08T14:51:05Z</time>
      </trkpt>
      <trkpt lat="44.43615" lon="1.33195">
        <ele>289.8</ele>
        <time>2025-03-08T14:51:06Z</time>
      </trkpt>
      <trkpt lat="44.43615" lon="1.33198">
        <ele>289.8</ele>
        <time>2025-03-08T14:51:07Z</time>
      </trkpt>
      <trkpt lat="44.43616" lon="1.33204">
        <ele>289.6</ele>
        <time>2025-03-08T14:51:08Z</time>
      </trkpt>
      <trkpt lat="44.43617" lon="1.33206">
        <ele>289.5</ele>
        <time>2025-03-08T14:51:09Z</time>
      </trkpt>
      <trkpt lat="44.43617" lon="1.33212">
        <ele>289.3</ele>
        <time>2025-03-08T14:51:10Z</time>
      </trkpt>
      <trkpt lat="44.43617" lon="1.33218">
        <ele>289.1</ele>
        <time>2025-03-08T14:51:11Z</time>
      </trkpt>
      <trkpt lat="44.43618" lon="1.33225">
        <ele>289</ele>
        <time>2025-03-08T14:51:12Z</time>
      </trkpt>
      <trkpt lat="44.43619" lon="1.33231">
        <ele>288.9</ele>
        <time>2025-03-08T14:51:13Z</time>
      </trkpt>
      <trkpt lat="44.4362" lon="1.33236">
        <ele>288.8</ele>
        <time>2025-03-08T14:51:14Z</time>
      </trkpt>
      <trkpt lat="44.43621" lon="1.33243">
        <ele>288.7</ele>
        <time>2025-03-08T14:51:15Z</time>
      </trkpt>
      <trkpt lat="44.43622" lon="1.33249">
        <ele>288.6</ele>
        <time>2025-03-08T14:51:16Z</time>
      </trkpt>
      <trkpt lat="44.43623" lon="1.33255">
        <ele>288.5</ele>
        <time>2025-03-08T14:51:17Z</time>
      </trkpt>
      <trkpt lat="44.43624" lon="1.33261">
        <ele>288.5</ele>
        <time>2025-03-08T14:51:18Z</time>
      </trkpt>
      <trkpt lat="44.43625" lon="1.33266">
        <ele>288.4</ele>
        <time>2025-03-08T14:51:19Z</time>
      </trkpt>
      <trkpt lat="44.43626" lon="1.33272">
        <ele>288.4</ele>
        <time>2025-03-08T14:51:20Z</time>
      </trkpt>
      <trkpt lat="44.43627" lon="1.33277">
        <ele>288.3</ele>
        <time>2025-03-08T14:51:21Z</time>
      </trkpt>
      <trkpt lat="44.43628" lon="1.33283">
        <ele>288.3</ele>
        <time>2025-03-08T14:51:22Z</time>
      </trkpt>
      <trkpt lat="44.43629" lon="1.33289">
        <ele>288.2</ele>
        <time>2025-03-08T14:51:23Z</time>
      </trkpt>
      <trkpt lat="44.43631" lon="1.33294">
        <ele>288.1</ele>
        <time>2025-03-08T14:51:24Z</time>
      </trkpt>
      <trkpt lat="44.43632" lon="1.333">
        <ele>288</ele>
        <time>2025-03-08T14:51:25Z</time>
      </trkpt>
      <trkpt lat="44.43632" lon="1.33305">
        <ele>287.9</ele>
        <time>2025-03-08T14:51:26Z</time>
      </trkpt>
      <trkpt lat="44.43633" lon="1.3331">
        <ele>287.8</ele>
        <time>2025-03-08T14:51:27Z</time>
      </trkpt>
      <trkpt lat="44.43634" lon="1.33316">
        <ele>287.6</ele>
        <time>2025-03-08T14:51:28Z</time>
      </trkpt>
      <trkpt lat="44.43633" lon="1.33323">
        <ele>287.5</ele>
        <time>2025-03-08T14:51:29Z</time>
      </trkpt>
      <trkpt lat="44.43632" lon="1.33329">
        <ele>287.3</ele>
        <time>2025-03-08T14:51:30Z</time>
      </trkpt>
      <trkpt lat="44.43631" lon="1.33336">
        <ele>287.1</ele>
        <time>2025-03-08T14:51:31Z</time>
      </trkpt>
      <trkpt lat="44.43628" lon="1.33342">
        <ele>286.8</ele>
        <time>2025-03-08T14:51:32Z</time>
      </trkpt>
      <trkpt lat="44.43626" lon="1.33347">
        <ele>286.6</ele>
        <time>2025-03-08T14:51:33Z</time>
      </trkpt>
      <trkpt lat="44.43624" lon="1.33352">
        <ele>286.3</ele>
        <time>2025-03-08T14:51:34Z</time>
      </trkpt>
      <trkpt lat="44.43622" lon="1.33357">
        <ele>286</ele>
        <time>2025-03-08T14:51:35Z</time>
      </trkpt>
      <trkpt lat="44.4362" lon="1.33363">
        <ele>285.8</ele>
        <time>2025-03-08T14:51:36Z</time>
      </trkpt>
      <trkpt lat="44.4362" lon="1.33369">
        <ele>285.4</ele>
        <time>2025-03-08T14:51:37Z</time>
      </trkpt>
      <trkpt lat="44.43619" lon="1.33376">
        <ele>285</ele>
        <time>2025-03-08T14:51:38Z</time>
      </trkpt>
      <trkpt lat="44.4362" lon="1.33384">
        <ele>284.6</ele>
        <time>2025-03-08T14:51:39Z</time>
      </trkpt>
      <trkpt lat="44.43621" lon="1.3339">
        <ele>284.2</ele>
        <time>2025-03-08T14:51:40Z</time>
      </trkpt>
      <trkpt lat="44.43621" lon="1.33396">
        <ele>283.9</ele>
        <time>2025-03-08T14:51:41Z</time>
      </trkpt>
      <trkpt lat="44.43621" lon="1.33404">
        <ele>283.4</ele>
        <time>2025-03-08T14:51:42Z</time>
      </trkpt>
      <trkpt lat="44.43622" lon="1.33411">
        <ele>283</ele>
        <time>2025-03-08T14:51:43Z</time>
      </trkpt>
      <trkpt lat="44.43622" lon="1.33418">
        <ele>282.6</ele>
        <time>2025-03-08T14:51:44Z</time>
      </trkpt>
      <trkpt lat="44.43623" lon="1.33426">
        <ele>282.2</ele>
        <time>2025-03-08T14:51:45Z</time>
      </trkpt>
      <trkpt lat="44.43624" lon="1.33434">
        <ele>281.8</ele>
        <time>2025-03-08T14:51:46Z</time>
      </trkpt>
      <trkpt lat="44.43625" lon="1.33441">
        <ele>281.5</ele>
        <time>2025-03-08T14:51:47Z</time>
      </trkpt>
      <trkpt lat="44.43626" lon="1.33449">
        <ele>281.1</ele>
        <time>2025-03-08T14:51:48Z</time>
      </trkpt>
      <trkpt lat="44.43627" lon="1.33456">
        <ele>280.8</ele>
        <time>2025-03-08T14:51:49Z</time>
      </trkpt>
      <trkpt lat="44.43627" lon="1.33462">
        <ele>280.5</ele>
        <time>2025-03-08T14:51:50Z</time>
      </trkpt>
      <trkpt lat="44.43628" lon="1.33468">
        <ele>280.2</ele>
        <time>2025-03-08T14:51:51Z</time>
      </trkpt>
      <trkpt lat="44.43629" lon="1.33475">
        <ele>280</ele>
        <time>2025-03-08T14:51:52Z</time>
      </trkpt>
      <trkpt lat="44.4363" lon="1.33481">
        <ele>279.7</ele>
        <time>2025-03-08T14:51:53Z</time>
      </trkpt>
      <trkpt lat="44.43631" lon="1.33487">
        <ele>279.4</ele>
        <time>2025-03-08T14:51:54Z</time>
      </trkpt>
      <trkpt lat="44.43632" lon="1.33495">
        <ele>279.1</ele>
        <time>2025-03-08T14:51:55Z</time>
      </trkpt>
      <trkpt lat="44.43634" lon="1.33503">
        <ele>278.7</ele>
        <time>2025-03-08T14:51:56Z</time>
      </trkpt>
      <trkpt lat="44.43635" lon="1.3351">
        <ele>278.4</ele>
        <time>2025-03-08T14:51:57Z</time>
      </trkpt>
      <trkpt lat="44.43636" lon="1.33517">
        <ele>278.2</ele>
        <time>2025-03-08T14:51:58Z</time>
      </trkpt>
      <trkpt lat="44.43637" lon="1.33523">
        <ele>278</ele>
        <time>2025-03-08T14:51:59Z</time>
      </trkpt>
      <trkpt lat="44.43638" lon="1.33529">
        <ele>277.8</ele>
        <time>2025-03-08T14:52:00Z</time>
      </trkpt>
      <trkpt lat="44.43639" lon="1.33534">
        <ele>277.6</ele>
        <time>2025-03-08T14:52:01Z</time>
      </trkpt>
      <trkpt lat="44.4364" lon="1.33538">
        <ele>277.5</ele>
        <time>2025-03-08T14:52:02Z</time>
      </trkpt>
      <trkpt lat="44.43641" lon="1.3354">
        <ele>277.5</ele>
        <time>2025-03-08T14:52:03Z</time>
      </trkpt>
      <trkpt lat="44.43641" lon="1.33544">
        <ele>277.4</ele>
        <time>2025-03-08T14:52:04Z</time>
      </trkpt>
      <trkpt lat="44.43642" lon="1.33551">
        <ele>277.2</ele>
        <time>2025-03-08T14:52:05Z</time>
      </trkpt>
      <trkpt lat="44.43643" lon="1.33558">
        <ele>277</ele>
        <time>2025-03-08T14:52:06Z</time>
      </trkpt>
      <trkpt lat="44.43644" lon="1.33564">
        <ele>276.8</ele>
        <time>2025-03-08T14:52:07Z</time>
      </trkpt>
      <trkpt lat="44.43645" lon="1.3357">
        <ele>276.5</ele>
        <time>2025-03-08T14:52:08Z</time>
      </trkpt>
      <trkpt lat="44.43646" lon="1.33575">
        <ele>276.3</ele>
        <time>2025-03-08T14:52:09Z</time>
      </trkpt>
      <trkpt lat="44.43646" lon="1.33576">
        <ele>276.2</ele>
        <time>2025-03-08T14:52:10Z</time>
      </trkpt>
      <trkpt lat="44.43647" lon="1.3358">
        <ele>275.9</ele>
        <time>2025-03-08T14:52:11Z</time>
      </trkpt>
      <trkpt lat="44.43646" lon="1.33581">
        <ele>275.7</ele>
        <time>2025-03-08T14:52:12Z</time>
      </trkpt>
      <trkpt lat="44.43643" lon="1.33584">
        <ele>275.2</ele>
        <time>2025-03-08T14:52:13Z</time>
      </trkpt>
      <trkpt lat="44.43642" lon="1.33584">
        <ele>275</ele>
        <time>2025-03-08T14:52:14Z</time>
      </trkpt>
      <trkpt lat="44.43639" lon="1.33583">
        <ele>274.6</ele>
        <time>2025-03-08T14:52:15Z</time>
      </trkpt>
      <trkpt lat="44.43636" lon="1.33581">
        <ele>274.1</ele>
        <time>2025-03-08T14:52:16Z</time>
      </trkpt>
      <trkpt lat="44.43633" lon="1.33579">
        <ele>273.6</ele>
        <time>2025-03-08T14:52:17Z</time>
      </trkpt>
      <trkpt lat="44.43629" lon="1.33576">
        <ele>273.2</ele>
        <time>2025-03-08T14:52:18Z</time>
      </trkpt>
      <trkpt lat="44.43625" lon="1.33574">
        <ele>272.8</ele>
        <time>2025-03-08T14:52:19Z</time>
      </trkpt>
      <trkpt lat="44.43621" lon="1.33571">
        <ele>272.4</ele>
        <time>2025-03-08T14:52:20Z</time>
      </trkpt>
      <trkpt lat="44.43618" lon="1.33568">
        <ele>272</ele>
        <time>2025-03-08T14:52:21Z</time>
      </trkpt>
      <trkpt lat="44.43613" lon="1.33565">
        <ele>271.7</ele>
        <time>2025-03-08T14:52:22Z</time>
      </trkpt>
      <trkpt lat="44.43609" lon="1.33562">
        <ele>271.4</ele>
        <time>2025-03-08T14:52:23Z</time>
      </trkpt>
      <trkpt lat="44.43605" lon="1.33559">
        <ele>271.1</ele>
        <time>2025-03-08T14:52:24Z</time>
      </trkpt>
      <trkpt lat="44.43601" lon="1.33556">
        <ele>270.8</ele>
        <time>2025-03-08T14:52:25Z</time>
      </trkpt>
      <trkpt lat="44.43598" lon="1.33552">
        <ele>270.5</ele>
        <time>2025-03-08T14:52:26Z</time>
      </trkpt>
      <trkpt lat="44.43594" lon="1.33548">
        <ele>270.2</ele>
        <time>2025-03-08T14:52:27Z</time>
      </trkpt>
      <trkpt lat="44.43591" lon="1.33544">
        <ele>270</ele>
        <time>2025-03-08T14:52:28Z</time>
      </trkpt>
      <trkpt lat="44.43588" lon="1.3354">
        <ele>269.8</ele>
        <time>2025-03-08T14:52:29Z</time>
      </trkpt>
      <trkpt lat="44.43585" lon="1.33535">
        <ele>269.5</ele>
        <time>2025-03-08T14:52:30Z</time>
      </trkpt>
      <trkpt lat="44.43583" lon="1.3353">
        <ele>269.3</ele>
        <time>2025-03-08T14:52:31Z</time>
      </trkpt>
      <trkpt lat="44.43581" lon="1.33524">
        <ele>269</ele>
        <time>2025-03-08T14:52:32Z</time>
      </trkpt>
      <trkpt lat="44.43578" lon="1.33518">
        <ele>268.8</ele>
        <time>2025-03-08T14:52:33Z</time>
      </trkpt>
      <trkpt lat="44.43575" lon="1.33513">
        <ele>268.5</ele>
        <time>2025-03-08T14:52:34Z</time>
      </trkpt>
      <trkpt lat="44.43572" lon="1.33507">
        <ele>268.2</ele>
        <time>2025-03-08T14:52:35Z</time>
      </trkpt>
      <trkpt lat="44.4357" lon="1.33501">
        <ele>267.9</ele>
        <time>2025-03-08T14:52:36Z</time>
      </trkpt>
      <trkpt lat="44.43568" lon="1.33496">
        <ele>267.6</ele>
        <time>2025-03-08T14:52:37Z</time>
      </trkpt>
      <trkpt lat="44.43567" lon="1.33492">
        <ele>267.4</ele>
        <time>2025-03-08T14:52:38Z</time>
      </trkpt>
      <trkpt lat="44.43565" lon="1.33486">
        <ele>267.1</ele>
        <time>2025-03-08T14:52:39Z</time>
      </trkpt>
      <trkpt lat="44.43563" lon="1.3348">
        <ele>266.8</ele>
        <time>2025-03-08T14:52:40Z</time>
      </trkpt>
      <trkpt lat="44.43561" lon="1.33473">
        <ele>266.4</ele>
        <time>2025-03-08T14:52:41Z</time>
      </trkpt>
      <trkpt lat="44.43558" lon="1.33466">
        <ele>266</ele>
        <time>2025-03-08T14:52:42Z</time>
      </trkpt>
      <trkpt lat="44.43556" lon="1.33458">
        <ele>265.5</ele>
        <time>2025-03-08T14:52:43Z</time>
      </trkpt>
      <trkpt lat="44.43553" lon="1.33449">
        <ele>264.9</ele>
        <time>2025-03-08T14:52:44Z</time>
      </trkpt>
      <trkpt lat="44.4355" lon="1.33441">
        <ele>264.3</ele>
        <time>2025-03-08T14:52:45Z</time>
      </trkpt>
      <trkpt lat="44.43547" lon="1.33432">
        <ele>263.6</ele>
        <time>2025-03-08T14:52:46Z</time>
      </trkpt>
      <trkpt lat="44.43543" lon="1.33423">
        <ele>262.8</ele>
        <time>2025-03-08T14:52:47Z</time>
      </trkpt>
      <trkpt lat="44.4354" lon="1.33414">
        <ele>262</ele>
        <time>2025-03-08T14:52:48Z</time>
      </trkpt>
      <trkpt lat="44.43536" lon="1.33406">
        <ele>261.1</ele>
        <time>2025-03-08T14:52:49Z</time>
      </trkpt>
      <trkpt lat="44.43531" lon="1.33397">
        <ele>260.2</ele>
        <time>2025-03-08T14:52:50Z</time>
      </trkpt>
      <trkpt lat="44.43526" lon="1.33389">
        <ele>259.4</ele>
        <time>2025-03-08T14:52:51Z</time>
      </trkpt>
      <trkpt lat="44.43522" lon="1.33381">
        <ele>258.6</ele>
        <time>2025-03-08T14:52:52Z</time>
      </trkpt>
      <trkpt lat="44.43517" lon="1.33374">
        <ele>257.9</ele>
        <time>2025-03-08T14:52:53Z</time>
      </trkpt>
      <trkpt lat="44.43514" lon="1.33367">
        <ele>257.3</ele>
        <time>2025-03-08T14:52:54Z</time>
      </trkpt>
      <trkpt lat="44.43511" lon="1.3336">
        <ele>256.7</ele>
        <time>2025-03-08T14:52:55Z</time>
      </trkpt>
      <trkpt lat="44.43508" lon="1.33354">
        <ele>256.1</ele>
        <time>2025-03-08T14:52:56Z</time>
      </trkpt>
      <trkpt lat="44.43505" lon="1.33347">
        <ele>255.5</ele>
        <time>2025-03-08T14:52:57Z</time>
      </trkpt>
      <trkpt lat="44.43503" lon="1.3334">
        <ele>254.8</ele>
        <time>2025-03-08T14:52:58Z</time>
      </trkpt>
      <trkpt lat="44.43502" lon="1.33333">
        <ele>254.1</ele>
        <time>2025-03-08T14:52:59Z</time>
      </trkpt>
      <trkpt lat="44.43502" lon="1.33326">
        <ele>253.3</ele>
        <time>2025-03-08T14:53:00Z</time>
      </trkpt>
      <trkpt lat="44.43503" lon="1.3332">
        <ele>252.6</ele>
        <time>2025-03-08T14:53:01Z</time>
      </trkpt>
      <trkpt lat="44.43505" lon="1.33315">
        <ele>251.9</ele>
        <time>2025-03-08T14:53:02Z</time>
      </trkpt>
      <trkpt lat="44.43506" lon="1.3331">
        <ele>251.2</ele>
        <time>2025-03-08T14:53:03Z</time>
      </trkpt>
      <trkpt lat="44.43507" lon="1.33305">
        <ele>250.5</ele>
        <time>2025-03-08T14:53:04Z</time>
      </trkpt>
      <trkpt lat="44.43507" lon="1.33301">
        <ele>250</ele>
        <time>2025-03-08T14:53:05Z</time>
      </trkpt>
      <trkpt lat="44.43505" lon="1.33298">
        <ele>249.4</ele>
        <time>2025-03-08T14:53:06Z</time>
      </trkpt>
      <trkpt lat="44.43502" lon="1.33296">
        <ele>248.9</ele>
        <time>2025-03-08T14:53:07Z</time>
      </trkpt>
      <trkpt lat="44.43498" lon="1.33298">
        <ele>248.2</ele>
        <time>2025-03-08T14:53:08Z</time>
      </trkpt>
      <trkpt lat="44.43495" lon="1.33303">
        <ele>247.3</ele>
        <time>2025-03-08T14:53:09Z</time>
      </trkpt>
      <trkpt lat="44.43493" lon="1.33308">
        <ele>246.6</ele>
        <time>2025-03-08T14:53:10Z</time>
      </trkpt>
      <trkpt lat="44.4349" lon="1.33313">
        <ele>245.8</ele>
        <time>2025-03-08T14:53:11Z</time>
      </trkpt>
      <trkpt lat="44.43487" lon="1.33318">
        <ele>245</ele>
        <time>2025-03-08T14:53:12Z</time>
      </trkpt>
      <trkpt lat="44.43483" lon="1.33323">
        <ele>244</ele>
        <time>2025-03-08T14:53:13Z</time>
      </trkpt>
      <trkpt lat="44.43479" lon="1.33328">
        <ele>243</ele>
        <time>2025-03-08T14:53:14Z</time>
      </trkpt>
      <trkpt lat="44.43477" lon="1.33335">
        <ele>242.1</ele>
        <time>2025-03-08T14:53:15Z</time>
      </trkpt>
      <trkpt lat="44.43474" lon="1.33341">
        <ele>241.1</ele>
        <time>2025-03-08T14:53:16Z</time>
      </trkpt>
      <trkpt lat="44.43472" lon="1.33349">
        <ele>240</ele>
        <time>2025-03-08T14:53:17Z</time>
      </trkpt>
      <trkpt lat="44.43471" lon="1.33358">
        <ele>238.8</ele>
        <time>2025-03-08T14:53:18Z</time>
      </trkpt>
      <trkpt lat="44.43471" lon="1.33368">
        <ele>237.6</ele>
        <time>2025-03-08T14:53:19Z</time>
      </trkpt>
      <trkpt lat="44.43471" lon="1.33377">
        <ele>236.6</ele>
        <time>2025-03-08T14:53:20Z</time>
      </trkpt>
      <trkpt lat="44.43472" lon="1.33385">
        <ele>235.9</ele>
        <time>2025-03-08T14:53:21Z</time>
      </trkpt>
      <trkpt lat="44.43473" lon="1.33392">
        <ele>235.2</ele>
        <time>2025-03-08T14:53:22Z</time>
      </trkpt>
      <trkpt lat="44.43474" lon="1.33399">
        <ele>234.6</ele>
        <time>2025-03-08T14:53:23Z</time>
      </trkpt>
      <trkpt lat="44.43475" lon="1.33406">
        <ele>234.2</ele>
        <time>2025-03-08T14:53:24Z</time>
      </trkpt>
      <trkpt lat="44.43474" lon="1.33413">
        <ele>233.7</ele>
        <time>2025-03-08T14:53:25Z</time>
      </trkpt>
      <trkpt lat="44.43472" lon="1.3342">
        <ele>233.4</ele>
        <time>2025-03-08T14:53:26Z</time>
      </trkpt>
      <trkpt lat="44.4347" lon="1.33426">
        <ele>233.3</ele>
        <time>2025-03-08T14:53:27Z</time>
      </trkpt>
      <trkpt lat="44.43469" lon="1.33433">
        <ele>233.2</ele>
        <time>2025-03-08T14:53:28Z</time>
      </trkpt>
      <trkpt lat="44.43471" lon="1.33439">
        <ele>233</ele>
        <time>2025-03-08T14:53:29Z</time>
      </trkpt>
      <trkpt lat="44.43472" lon="1.33446">
        <ele>232.9</ele>
        <time>2025-03-08T14:53:30Z</time>
      </trkpt>
      <trkpt lat="44.43474" lon="1.33452">
        <ele>232.7</ele>
        <time>2025-03-08T14:53:31Z</time>
      </trkpt>
      <trkpt lat="44.43475" lon="1.33459">
        <ele>232.6</ele>
        <time>2025-03-08T14:53:32Z</time>
      </trkpt>
      <trkpt lat="44.43476" lon="1.33467">
        <ele>232.5</ele>
        <time>2025-03-08T14:53:33Z</time>
      </trkpt>
      <trkpt lat="44.43477" lon="1.33475">
        <ele>232.4</ele>
        <time>2025-03-08T14:53:34Z</time>
      </trkpt>
      <trkpt lat="44.43478" lon="1.33483">
        <ele>232.3</ele>
        <time>2025-03-08T14:53:35Z</time>
      </trkpt>
      <trkpt lat="44.43479" lon="1.33491">
        <ele>232.3</ele>
        <time>2025-03-08T14:53:36Z</time>
      </trkpt>
      <trkpt lat="44.4348" lon="1.33498">
        <ele>232.3</ele>
        <time>2025-03-08T14:53:37Z</time>
      </trkpt>
      <trkpt lat="44.43481" lon="1.33506">
        <ele>232.3</ele>
        <time>2025-03-08T14:53:38Z</time>
      </trkpt>
      <trkpt lat="44.43482" lon="1.33514">
        <ele>232.2</ele>
        <time>2025-03-08T14:53:39Z</time>
      </trkpt>
      <trkpt lat="44.43484" lon="1.33522">
        <ele>232.2</ele>
        <time>2025-03-08T14:53:40Z</time>
      </trkpt>
      <trkpt lat="44.43486" lon="1.33531">
        <ele>232.2</ele>
        <time>2025-03-08T14:53:41Z</time>
      </trkpt>
      <trkpt lat="44.43487" lon="1.33538">
        <ele>232.1</ele>
        <time>2025-03-08T14:53:42Z</time>
      </trkpt>
      <trkpt lat="44.43488" lon="1.33546">
        <ele>232.1</ele>
        <time>2025-03-08T14:53:43Z</time>
      </trkpt>
      <trkpt lat="44.4349" lon="1.33554">
        <ele>232</ele>
        <time>2025-03-08T14:53:44Z</time>
      </trkpt>
      <trkpt lat="44.43491" lon="1.33562">
        <ele>231.9</ele>
        <time>2025-03-08T14:53:45Z</time>
      </trkpt>
      <trkpt lat="44.43492" lon="1.33571">
        <ele>231.9</ele>
        <time>2025-03-08T14:53:46Z</time>
      </trkpt>
      <trkpt lat="44.43494" lon="1.33579">
        <ele>231.8</ele>
        <time>2025-03-08T14:53:47Z</time>
      </trkpt>
      <trkpt lat="44.43496" lon="1.33587">
        <ele>231.8</ele>
        <time>2025-03-08T14:53:48Z</time>
      </trkpt>
      <trkpt lat="44.43498" lon="1.33595">
        <ele>231.8</ele>
        <time>2025-03-08T14:53:49Z</time>
      </trkpt>
      <trkpt lat="44.43501" lon="1.33603">
        <ele>231.8</ele>
        <time>2025-03-08T14:53:50Z</time>
      </trkpt>
      <trkpt lat="44.43503" lon="1.33611">
        <ele>231.8</ele>
        <time>2025-03-08T14:53:51Z</time>
      </trkpt>
      <trkpt lat="44.43506" lon="1.33618">
        <ele>231.9</ele>
        <time>2025-03-08T14:53:52Z</time>
      </trkpt>
      <trkpt lat="44.43508" lon="1.33625">
        <ele>231.9</ele>
        <time>2025-03-08T14:53:53Z</time>
      </trkpt>
      <trkpt lat="44.43512" lon="1.33632">
        <ele>231.9</ele>
        <time>2025-03-08T14:53:54Z</time>
      </trkpt>
      <trkpt lat="44.43515" lon="1.33638">
        <ele>231.9</ele>
        <time>2025-03-08T14:53:55Z</time>
      </trkpt>
      <trkpt lat="44.43519" lon="1.33645">
        <ele>231.9</ele>
        <time>2025-03-08T14:53:56Z</time>
      </trkpt>
      <trkpt lat="44.43522" lon="1.3365">
        <ele>231.8</ele>
        <time>2025-03-08T14:53:57Z</time>
      </trkpt>
      <trkpt lat="44.43525" lon="1.33656">
        <ele>231.8</ele>
        <time>2025-03-08T14:53:58Z</time>
      </trkpt>
      <trkpt lat="44.43529" lon="1.33663">
        <ele>231.8</ele>
        <time>2025-03-08T14:53:59Z</time>
      </trkpt>
      <trkpt lat="44.43533" lon="1.33669">
        <ele>231.8</ele>
        <time>2025-03-08T14:54:00Z</time>
      </trkpt>
      <trkpt lat="44.43537" lon="1.33674">
        <ele>231.8</ele>
        <time>2025-03-08T14:54:01Z</time>
      </trkpt>
      <trkpt lat="44.4354" lon="1.33678">
        <ele>231.9</ele>
        <time>2025-03-08T14:54:02Z</time>
      </trkpt>
      <trkpt lat="44.43544" lon="1.33682">
        <ele>231.9</ele>
        <time>2025-03-08T14:54:03Z</time>
      </trkpt>
      <trkpt lat="44.4355" lon="1.33686">
        <ele>232</ele>
        <time>2025-03-08T14:54:04Z</time>
      </trkpt>
      <trkpt lat="44.43554" lon="1.33691">
        <ele>232.1</ele>
        <time>2025-03-08T14:54:05Z</time>
      </trkpt>
      <trkpt lat="44.43559" lon="1.33697">
        <ele>232.2</ele>
        <time>2025-03-08T14:54:06Z</time>
      </trkpt>
      <trkpt lat="44.43563" lon="1.33702">
        <ele>232.3</ele>
        <time>2025-03-08T14:54:07Z</time>
      </trkpt>
      <trkpt lat="44.43568" lon="1.33706">
        <ele>232.4</ele>
        <time>2025-03-08T14:54:08Z</time>
      </trkpt>
      <trkpt lat="44.43572" lon="1.3371">
        <ele>232.5</ele>
        <time>2025-03-08T14:54:09Z</time>
      </trkpt>
      <trkpt lat="44.43576" lon="1.33715">
        <ele>232.5</ele>
        <time>2025-03-08T14:54:10Z</time>
      </trkpt>
      <trkpt lat="44.43579" lon="1.33718">
        <ele>232.6</ele>
        <time>2025-03-08T14:54:11Z</time>
      </trkpt>
      <trkpt lat="44.43582" lon="1.33722">
        <ele>232.7</ele>
        <time>2025-03-08T14:54:12Z</time>
      </trkpt>
      <trkpt lat="44.43585" lon="1.33727">
        <ele>232.7</ele>
        <time>2025-03-08T14:54:13Z</time>
      </trkpt>
      <trkpt lat="44.43588" lon="1.33732">
        <ele>232.7</ele>
        <time>2025-03-08T14:54:14Z</time>
      </trkpt>
      <trkpt lat="44.43592" lon="1.33738">
        <ele>232.7</ele>
        <time>2025-03-08T14:54:15Z</time>
      </trkpt>
      <trkpt lat="44.43595" lon="1.33743">
        <ele>232.7</ele>
        <time>2025-03-08T14:54:16Z</time>
      </trkpt>
      <trkpt lat="44.43599" lon="1.33748">
        <ele>232.7</ele>
        <time>2025-03-08T14:54:17Z</time>
      </trkpt>
      <trkpt lat="44.43602" lon="1.33752">
        <ele>232.7</ele>
        <time>2025-03-08T14:54:18Z</time>
      </trkpt>
      <trkpt lat="44.43605" lon="1.33756">
        <ele>232.6</ele>
        <time>2025-03-08T14:54:19Z</time>
      </trkpt>
      <trkpt lat="44.43608" lon="1.33759">
        <ele>232.6</ele>
        <time>2025-03-08T14:54:20Z</time>
      </trkpt>
      <trkpt lat="44.43609" lon="1.3376">
        <ele>232.6</ele>
        <time>2025-03-08T14:54:21Z</time>
      </trkpt>
      <trkpt lat="44.43611" lon="1.33763">
        <ele>232.6</ele>
        <time>2025-03-08T14:54:22Z</time>
      </trkpt>
      <trkpt lat="44.43612" lon="1.33764">
        <ele>232.5</ele>
        <time>2025-03-08T14:54:23Z</time>
      </trkpt>
      <trkpt lat="44.43614" lon="1.33768">
        <ele>232.5</ele>
        <time>2025-03-08T14:54:24Z</time>
      </trkpt>
      <trkpt lat="44.43615" lon="1.33769">
        <ele>232.5</ele>
        <time>2025-03-08T14:54:25Z</time>
      </trkpt>
      <trkpt lat="44.43618" lon="1.33773">
        <ele>232.5</ele>
        <time>2025-03-08T14:54:26Z</time>
      </trkpt>
      <trkpt lat="44.4362" lon="1.33776">
        <ele>232.5</ele>
        <time>2025-03-08T14:54:27Z</time>
      </trkpt>
      <trkpt lat="44.43622" lon="1.33779">
        <ele>232.5</ele>
        <time>2025-03-08T14:54:28Z</time>
      </trkpt>
      <trkpt lat="44.43623" lon="1.3378">
        <ele>232.5</ele>
        <time>2025-03-08T14:54:29Z</time>
      </trkpt>
      <trkpt lat="44.43624" lon="1.33783">
        <ele>232.5</ele>
        <time>2025-03-08T14:54:30Z</time>
      </trkpt>
      <trkpt lat="44.43625" lon="1.33785">
        <ele>232.4</ele>
        <time>2025-03-08T14:54:31Z</time>
      </trkpt>
      <trkpt lat="44.43626" lon="1.33787">
        <ele>232.4</ele>
        <time>2025-03-08T14:54:32Z</time>
      </trkpt>
      <trkpt lat="44.43627" lon="1.33789">
        <ele>232.4</ele>
        <time>2025-03-08T14:54:33Z</time>
      </trkpt>
      <trkpt lat="44.43628" lon="1.33794">
        <ele>232.4</ele>
        <time>2025-03-08T14:54:34Z</time>
      </trkpt>
      <trkpt lat="44.43628" lon="1.33796">
        <ele>232.3</ele>
        <time>2025-03-08T14:54:35Z</time>
      </trkpt>
      <trkpt lat="44.43629" lon="1.33801">
        <ele>232.3</ele>
        <time>2025-03-08T14:54:36Z</time>
      </trkpt>
      <trkpt lat="44.43629" lon="1.33805">
        <ele>232.2</ele>
        <time>2025-03-08T14:54:37Z</time>
      </trkpt>
      <trkpt lat="44.4363" lon="1.3381">
        <ele>232.1</ele>
        <time>2025-03-08T14:54:38Z</time>
      </trkpt>
      <trkpt lat="44.4363" lon="1.33812">
        <ele>232.1</ele>
        <time>2025-03-08T14:54:39Z</time>
      </trkpt>
      <trkpt lat="44.43631" lon="1.33816">
        <ele>232</ele>
        <time>2025-03-08T14:54:40Z</time>
      </trkpt>
      <trkpt lat="44.43631" lon="1.33817">
        <ele>232</ele>
        <time>2025-03-08T14:54:41Z</time>
      </trkpt>
      <trkpt lat="44.43631" lon="1.3382">
        <ele>232</ele>
        <time>2025-03-08T14:54:42Z</time>
      </trkpt>
      <trkpt lat="44.43631" lon="1.33822">
        <ele>231.9</ele>
        <time>2025-03-08T14:54:43Z</time>
      </trkpt>
      <trkpt lat="44.43631" lon="1.33823">
        <ele>231.9</ele>
        <time>2025-03-08T14:54:44Z</time>
      </trkpt>
      <trkpt lat="44.43631" lon="1.33827">
        <ele>231.9</ele>
        <time>2025-03-08T14:54:45Z</time>
      </trkpt>
      <trkpt lat="44.43631" lon="1.33828">
        <ele>231.8</ele>
        <time>2025-03-08T14:54:46Z</time>
      </trkpt>
      <trkpt lat="44.43632" lon="1.3383">
        <ele>231.8</ele>
        <time>2025-03-08T14:54:47Z</time>
      </trkpt>
      <trkpt lat="44.43633" lon="1.33831">
        <ele>231.8</ele>
        <time>2025-03-08T14:54:48Z</time>
      </trkpt>
      <trkpt lat="44.43633" lon="1.33831">
        <ele>231.8</ele>
        <time>2025-03-08T14:54:49Z</time>
      </trkpt>
      <trkpt lat="44.43634" lon="1.33831">
        <ele>231.8</ele>
        <time>2025-03-08T14:54:50Z</time>
      </trkpt>
      <trkpt lat="44.43634" lon="1.33831">
        <ele>231.8</ele>
        <time>2025-03-08T14:54:51Z</time>
      </trkpt>
      <trkpt lat="44.43634" lon="1.33829">
        <ele>231.8</ele>
        <time>2025-03-08T14:54:52Z</time>
      </trkpt>
      <trkpt lat="44.43634" lon="1.33829">
        <ele>231.7</ele>
        <time>2025-03-08T14:54:53Z</time>
      </trkpt>
      <trkpt lat="44.43634" lon="1.33829">
        <ele>231.7</ele>
        <time>2025-03-08T14:54:54Z</time>
      </trkpt>
      <trkpt lat="44.43635" lon="1.33829">
        <ele>231.7</ele>
        <time>2025-03-08T14:54:55Z</time>
      </trkpt>
      <trkpt lat="44.43635" lon="1.33829">
        <ele>231.7</ele>
        <time>2025-03-08T14:54:56Z</time>
      </trkpt>
      <trkpt lat="44.43635" lon="1.33829">
        <ele>231.7</ele>
        <time>2025-03-08T14:54:57Z</time>
      </trkpt>
      <trkpt lat="44.43635" lon="1.33829">
        <ele>231.7</ele>
        <time>2025-03-08T14:54:58Z</time>
      </trkpt>
      <trkpt lat="44.43634" lon="1.33829">
        <ele>231.7</ele>
        <time>2025-03-08T14:54:59Z</time>
      </trkpt>
      <trkpt lat="44.43634" lon="1.33828">
        <ele>231.7</ele>
        <time>2025-03-08T14:55:00Z</time>
      </trkpt>
      <trkpt lat="44.43634" lon="1.33828">
        <ele>231.7</ele>
        <time>2025-03-08T14:55:01Z</time>
      </trkpt>
      <trkpt lat="44.43634" lon="1.33827">
        <ele>231.7</ele>
        <time>2025-03-08T14:55:02Z</time>
      </trkpt>
      <trkpt lat="44.43634" lon="1.33827">
        <ele>231.7</ele>
        <time>2025-03-08T14:55:03Z</time>
      </trkpt>
      <trkpt lat="44.43634" lon="1.33827">
        <ele>231.7</ele>
        <time>2025-03-08T14:55:04Z</time>
      </trkpt>
      <trkpt lat="44.43634" lon="1.33827">
        <ele>231.7</ele>
        <time>2025-03-08T14:55:05Z</time>
      </trkpt>
      <trkpt lat="44.43634" lon="1.33827">
        <ele>231.7</ele>
        <time>2025-03-08T14:55:06Z</time>
      </trkpt>
      <trkpt lat="44.43634" lon="1.33827">
        <ele>231.7</ele>
        <time>2025-03-08T14:55:07Z</time>
      </trkpt>
      <trkpt lat="44.43633" lon="1.33824">
        <ele>231.7</ele>
        <time>2025-03-08T14:55:08Z</time>
      </trkpt>
      <trkpt lat="44.43633" lon="1.33825">
        <ele>231.7</ele>
        <time>2025-03-08T14:55:09Z</time>
      </trkpt>
      <trkpt lat="44.43633" lon="1.33826">
        <ele>231.7</ele>
        <time>2025-03-08T14:55:10Z</time>
      </trkpt>
      <trkpt lat="44.43633" lon="1.33826">
        <ele>231.7</ele>
        <time>2025-03-08T14:55:11Z</time>
      </trkpt>
      <trkpt lat="44.43633" lon="1.33826">
        <ele>231.7</ele>
        <time>2025-03-08T14:55:12Z</time>
      </trkpt>
      <trkpt lat="44.43633" lon="1.33827">
        <ele>231.6</ele>
        <time>2025-03-08T14:55:13Z</time>
      </trkpt>
      <trkpt lat="44.43633" lon="1.33828">
        <ele>231.6</ele>
        <time>2025-03-08T14:55:14Z</time>
      </trkpt>
      <trkpt lat="44.43634" lon="1.3383">
        <ele>231.6</ele>
        <time>2025-03-08T14:55:15Z</time>
      </trkpt>
      <trkpt lat="44.43634" lon="1.33831">
        <ele>231.6</ele>
        <time>2025-03-08T14:55:16Z</time>
      </trkpt>
      <trkpt lat="44.43633" lon="1.33832">
        <ele>231.6</ele>
        <time>2025-03-08T14:55:17Z</time>
      </trkpt>
      <trkpt lat="44.43633" lon="1.33834">
        <ele>231.6</ele>
        <time>2025-03-08T14:55:18Z</time>
      </trkpt>
      <trkpt lat="44.43633" lon="1.33836">
        <ele>231.6</ele>
        <time>2025-03-08T14:55:19Z</time>
      </trkpt>
      <trkpt lat="44.43633" lon="1.33838">
        <ele>231.6</ele>
        <time>2025-03-08T14:55:20Z</time>
      </trkpt>
      <trkpt lat="44.43634" lon="1.33839">
        <ele>231.5</ele>
        <time>2025-03-08T14:55:21Z</time>
      </trkpt>
      <trkpt lat="44.43634" lon="1.3384">
        <ele>231.5</ele>
        <time>2025-03-08T14:55:22Z</time>
      </trkpt>
      <trkpt lat="44.43634" lon="1.33841">
        <ele>231.5</ele>
        <time>2025-03-08T14:55:23Z</time>
      </trkpt>
      <trkpt lat="44.43635" lon="1.33842">
        <ele>231.5</ele>
        <time>2025-03-08T14:55:24Z</time>
      </trkpt>
      <trkpt lat="44.43635" lon="1.33844">
        <ele>231.5</ele>
        <time>2025-03-08T14:55:25Z</time>
      </trkpt>
      <trkpt lat="44.43636" lon="1.33846">
        <ele>231.5</ele>
        <time>2025-03-08T14:55:26Z</time>
      </trkpt>
      <trkpt lat="44.43636" lon="1.33848">
        <ele>231.5</ele>
        <time>2025-03-08T14:55:27Z</time>
      </trkpt>
      <trkpt lat="44.43637" lon="1.33849">
        <ele>231.5</ele>
        <time>2025-03-08T14:55:28Z</time>
      </trkpt>
      <trkpt lat="44.43637" lon="1.33851">
        <ele>231.5</ele>
        <time>2025-03-08T14:55:29Z</time>
      </trkpt>
      <trkpt lat="44.43638" lon="1.33852">
        <ele>231.5</ele>
        <time>2025-03-08T14:55:30Z</time>
      </trkpt>
      <trkpt lat="44.43638" lon="1.33853">
        <ele>231.5</ele>
        <time>2025-03-08T14:55:31Z</time>
      </trkpt>
      <trkpt lat="44.43638" lon="1.33854">
        <ele>231.5</ele>
        <time>2025-03-08T14:55:32Z</time>
      </trkpt>
      <trkpt lat="44.43638" lon="1.33855">
        <ele>231.5</ele>
        <time>2025-03-08T14:55:33Z</time>
      </trkpt>
      <trkpt lat="44.43637" lon="1.33856">
        <ele>231.5</ele>
        <time>2025-03-08T14:55:34Z</time>
      </trkpt>
      <trkpt lat="44.43638" lon="1.33859">
        <ele>231.5</ele>
        <time>2025-03-08T14:55:35Z</time>
      </trkpt>
      <trkpt lat="44.43638" lon="1.33861">
        <ele>231.5</ele>
        <time>2025-03-08T14:55:36Z</time>
      </trkpt>
      <trkpt lat="44.43638" lon="1.33862">
        <ele>231.6</ele>
        <time>2025-03-08T14:55:37Z</time>
      </trkpt>
      <trkpt lat="44.43638" lon="1.33864">
        <ele>231.6</ele>
        <time>2025-03-08T14:55:38Z</time>
      </trkpt>
      <trkpt lat="44.43639" lon="1.33866">
        <ele>231.6</ele>
        <time>2025-03-08T14:55:39Z</time>
      </trkpt>
      <trkpt lat="44.4364" lon="1.33867">
        <ele>231.6</ele>
        <time>2025-03-08T14:55:40Z</time>
      </trkpt>
      <trkpt lat="44.43641" lon="1.33868">
        <ele>231.6</ele>
        <time>2025-03-08T14:55:41Z</time>
      </trkpt>
      <trkpt lat="44.43641" lon="1.33869">
        <ele>231.6</ele>
        <time>2025-03-08T14:55:42Z</time>
      </trkpt>
      <trkpt lat="44.43642" lon="1.3387">
        <ele>231.6</ele>
        <time>2025-03-08T14:55:43Z</time>
      </trkpt>
      <trkpt lat="44.43642" lon="1.33872">
        <ele>231.7</ele>
        <time>2025-03-08T14:55:44Z</time>
      </trkpt>
      <trkpt lat="44.43642" lon="1.33874">
        <ele>231.7</ele>
        <time>2025-03-08T14:55:45Z</time>
      </trkpt>
      <trkpt lat="44.43643" lon="1.33876">
        <ele>231.7</ele>
        <time>2025-03-08T14:55:46Z</time>
      </trkpt>
      <trkpt lat="44.43644" lon="1.33876">
        <ele>231.7</ele>
        <time>2025-03-08T14:55:47Z</time>
      </trkpt>
      <trkpt lat="44.43644" lon="1.33877">
        <ele>231.7</ele>
        <time>2025-03-08T14:55:48Z</time>
      </trkpt>
      <trkpt lat="44.43645" lon="1.3388">
        <ele>231.7</ele>
        <time>2025-03-08T14:55:49Z</time>
      </trkpt>
      <trkpt lat="44.43645" lon="1.33882">
        <ele>231.7</ele>
        <time>2025-03-08T14:55:50Z</time>
      </trkpt>
      <trkpt lat="44.43645" lon="1.33883">
        <ele>231.7</ele>
        <time>2025-03-08T14:55:51Z</time>
      </trkpt>
      <trkpt lat="44.43645" lon="1.33885">
        <ele>231.7</ele>
        <time>2025-03-08T14:55:52Z</time>
      </trkpt>
      <trkpt lat="44.43646" lon="1.33887">
        <ele>231.7</ele>
        <time>2025-03-08T14:55:53Z</time>
      </trkpt>
      <trkpt lat="44.43647" lon="1.3389">
        <ele>231.7</ele>
        <time>2025-03-08T14:55:54Z</time>
      </trkpt>
      <trkpt lat="44.43647" lon="1.33891">
        <ele>231.7</ele>
        <time>2025-03-08T14:55:55Z</time>
      </trkpt>
      <trkpt lat="44.43648" lon="1.33892">
        <ele>231.7</ele>
        <time>2025-03-08T14:55:56Z</time>
      </trkpt>
      <trkpt lat="44.43648" lon="1.33894">
        <ele>231.7</ele>
        <time>2025-03-08T14:55:57Z</time>
      </trkpt>
      <trkpt lat="44.43649" lon="1.33895">
        <ele>231.7</ele>
        <time>2025-03-08T14:55:58Z</time>
      </trkpt>
      <trkpt lat="44.43649" lon="1.33897">
        <ele>231.7</ele>
        <time>2025-03-08T14:55:59Z</time>
      </trkpt>
      <trkpt lat="44.43649" lon="1.33901">
        <ele>231.6</ele>
        <time>2025-03-08T14:56:00Z</time>
      </trkpt>
      <trkpt lat="44.4365" lon="1.33903">
        <ele>231.6</ele>
        <time>2025-03-08T14:56:01Z</time>
      </trkpt>
      <trkpt lat="44.4365" lon="1.33905">
        <ele>231.6</ele>
        <time>2025-03-08T14:56:02Z</time>
      </trkpt>
      <trkpt lat="44.4365" lon="1.33907">
        <ele>231.6</ele>
        <time>2025-03-08T14:56:03Z</time>
      </trkpt>
      <trkpt lat="44.43651" lon="1.33909">
        <ele>231.6</ele>
        <time>2025-03-08T14:56:04Z</time>
      </trkpt>
      <trkpt lat="44.43651" lon="1.33912">
        <ele>231.6</ele>
        <time>2025-03-08T14:56:05Z</time>
      </trkpt>
      <trkpt lat="44.43652" lon="1.33917">
        <ele>231.6</ele>
        <time>2025-03-08T14:56:06Z</time>
      </trkpt>
      <trkpt lat="44.43653" lon="1.33918">
        <ele>231.5</ele>
        <time>2025-03-08T14:56:07Z</time>
      </trkpt>
      <trkpt lat="44.43655" lon="1.33922">
        <ele>231.5</ele>
        <time>2025-03-08T14:56:08Z</time>
      </trkpt>
      <trkpt lat="44.43655" lon="1.33924">
        <ele>231.5</ele>
        <time>2025-03-08T14:56:09Z</time>
      </trkpt>
      <trkpt lat="44.43657" lon="1.33927">
        <ele>231.5</ele>
        <time>2025-03-08T14:56:10Z</time>
      </trkpt>
      <trkpt lat="44.43658" lon="1.33928">
        <ele>231.5</ele>
        <time>2025-03-08T14:56:11Z</time>
      </trkpt>
      <trkpt lat="44.43659" lon="1.33932">
        <ele>231.5</ele>
        <time>2025-03-08T14:56:12Z</time>
      </trkpt>
      <trkpt lat="44.4366" lon="1.33936">
        <ele>231.5</ele>
        <time>2025-03-08T14:56:13Z</time>
      </trkpt>
      <trkpt lat="44.4366" lon="1.33937">
        <ele>231.5</ele>
        <time>2025-03-08T14:56:14Z</time>
      </trkpt>
      <trkpt lat="44.43661" lon="1.33938">
        <ele>231.5</ele>
        <time>2025-03-08T14:56:15Z</time>
      </trkpt>
      <trkpt lat="44.43662" lon="1.3394">
        <ele>231.5</ele>
        <time>2025-03-08T14:56:16Z</time>
      </trkpt>
      <trkpt lat="44.43663" lon="1.33944">
        <ele>231.5</ele>
        <time>2025-03-08T14:56:17Z</time>
      </trkpt>
      <trkpt lat="44.43664" lon="1.33945">
        <ele>231.5</ele>
        <time>2025-03-08T14:56:18Z</time>
      </trkpt>
      <trkpt lat="44.43665" lon="1.33947">
        <ele>231.5</ele>
        <time>2025-03-08T14:56:19Z</time>
      </trkpt>
      <trkpt lat="44.43665" lon="1.33948">
        <ele>231.5</ele>
        <time>2025-03-08T14:56:20Z</time>
      </trkpt>
      <trkpt lat="44.43667" lon="1.33951">
        <ele>231.5</ele>
        <time>2025-03-08T14:56:21Z</time>
      </trkpt>
      <trkpt lat="44.43668" lon="1.33952">
        <ele>231.5</ele>
        <time>2025-03-08T14:56:22Z</time>
      </trkpt>
      <trkpt lat="44.4367" lon="1.33955">
        <ele>231.5</ele>
        <time>2025-03-08T14:56:23Z</time>
      </trkpt>
      <trkpt lat="44.43672" lon="1.33958">
        <ele>231.5</ele>
        <time>2025-03-08T14:56:24Z</time>
      </trkpt>
      <trkpt lat="44.43675" lon="1.33961">
        <ele>231.6</ele>
        <time>2025-03-08T14:56:25Z</time>
      </trkpt>
      <trkpt lat="44.43675" lon="1.33962">
        <ele>231.6</ele>
        <time>2025-03-08T14:56:26Z</time>
      </trkpt>
      <trkpt lat="44.43676" lon="1.33964">
        <ele>231.6</ele>
        <time>2025-03-08T14:56:27Z</time>
      </trkpt>
      <trkpt lat="44.43677" lon="1.33965">
        <ele>231.6</ele>
        <time>2025-03-08T14:56:28Z</time>
      </trkpt>
      <trkpt lat="44.43679" lon="1.33967">
        <ele>231.5</ele>
        <time>2025-03-08T14:56:29Z</time>
      </trkpt>
      <trkpt lat="44.4368" lon="1.33969">
        <ele>231.5</ele>
        <time>2025-03-08T14:56:30Z</time>
      </trkpt>
      <trkpt lat="44.43681" lon="1.33972">
        <ele>231.5</ele>
        <time>2025-03-08T14:56:31Z</time>
      </trkpt>
      <trkpt lat="44.43682" lon="1.33974">
        <ele>231.5</ele>
        <time>2025-03-08T14:56:32Z</time>
      </trkpt>
      <trkpt lat="44.43684" lon="1.33977">
        <ele>231.5</ele>
        <time>2025-03-08T14:56:33Z</time>
      </trkpt>
      <trkpt lat="44.43686" lon="1.33982">
        <ele>231.5</ele>
        <time>2025-03-08T14:56:34Z</time>
      </trkpt>
      <trkpt lat="44.43687" lon="1.33983">
        <ele>231.5</ele>
        <time>2025-03-08T14:56:35Z</time>
      </trkpt>
      <trkpt lat="44.43689" lon="1.33986">
        <ele>231.5</ele>
        <time>2025-03-08T14:56:36Z</time>
      </trkpt>
      <trkpt lat="44.43689" lon="1.33987">
        <ele>231.5</ele>
        <time>2025-03-08T14:56:37Z</time>
      </trkpt>
      <trkpt lat="44.43691" lon="1.33989">
        <ele>231.5</ele>
        <time>2025-03-08T14:56:38Z</time>
      </trkpt>
      <trkpt lat="44.43691" lon="1.33991">
        <ele>231.5</ele>
        <time>2025-03-08T14:56:39Z</time>
      </trkpt>
      <trkpt lat="44.43692" lon="1.33992">
        <ele>231.5</ele>
        <time>2025-03-08T14:56:40Z</time>
      </trkpt>
      <trkpt lat="44.43693" lon="1.33995">
        <ele>231.5</ele>
        <time>2025-03-08T14:56:41Z</time>
      </trkpt>
      <trkpt lat="44.43695" lon="1.33997">
        <ele>231.5</ele>
        <time>2025-03-08T14:56:42Z</time>
      </trkpt>
      <trkpt lat="44.43696" lon="1.33998">
        <ele>231.5</ele>
        <time>2025-03-08T14:56:43Z</time>
      </trkpt>
      <trkpt lat="44.43698" lon="1.34001">
        <ele>231.5</ele>
        <time>2025-03-08T14:56:44Z</time>
      </trkpt>
      <trkpt lat="44.43699" lon="1.34002">
        <ele>231.5</ele>
        <time>2025-03-08T14:56:45Z</time>
      </trkpt>
      <trkpt lat="44.43701" lon="1.34005">
        <ele>231.5</ele>
        <time>2025-03-08T14:56:46Z</time>
      </trkpt>
      <trkpt lat="44.43703" lon="1.34009">
        <ele>231.5</ele>
        <time>2025-03-08T14:56:47Z</time>
      </trkpt>
      <trkpt lat="44.43703" lon="1.3401">
        <ele>231.5</ele>
        <time>2025-03-08T14:56:48Z</time>
      </trkpt>
      <trkpt lat="44.43705" lon="1.34014">
        <ele>231.4</ele>
        <time>2025-03-08T14:56:49Z</time>
      </trkpt>
      <trkpt lat="44.43706" lon="1.34015">
        <ele>231.4</ele>
        <time>2025-03-08T14:56:50Z</time>
      </trkpt>
      <trkpt lat="44.43707" lon="1.34017">
        <ele>231.4</ele>
        <time>2025-03-08T14:56:51Z</time>
      </trkpt>
      <trkpt lat="44.43708" lon="1.34019">
        <ele>231.4</ele>
        <time>2025-03-08T14:56:52Z</time>
      </trkpt>
      <trkpt lat="44.4371" lon="1.34023">
        <ele>231.3</ele>
        <time>2025-03-08T14:56:53Z</time>
      </trkpt>
      <trkpt lat="44.43711" lon="1.34025">
        <ele>231.3</ele>
        <time>2025-03-08T14:56:54Z</time>
      </trkpt>
      <trkpt lat="44.43713" lon="1.34028">
        <ele>231.3</ele>
        <time>2025-03-08T14:56:55Z</time>
      </trkpt>
      <trkpt lat="44.43714" lon="1.34031">
        <ele>231.3</ele>
        <time>2025-03-08T14:56:56Z</time>
      </trkpt>
      <trkpt lat="44.43717" lon="1.34036">
        <ele>231.2</ele>
        <time>2025-03-08T14:56:57Z</time>
      </trkpt>
      <trkpt lat="44.43717" lon="1.34037">
        <ele>231.2</ele>
        <time>2025-03-08T14:56:58Z</time>
      </trkpt>
      <trkpt lat="44.43719" lon="1.34041">
        <ele>231.3</ele>
        <time>2025-03-08T14:56:59Z</time>
      </trkpt>
      <trkpt lat="44.43721" lon="1.34044">
        <ele>231.3</ele>
        <time>2025-03-08T14:57:00Z</time>
      </trkpt>
      <trkpt lat="44.43724" lon="1.34047">
        <ele>231.3</ele>
        <time>2025-03-08T14:57:01Z</time>
      </trkpt>
      <trkpt lat="44.43726" lon="1.34048">
        <ele>231.4</ele>
        <time>2025-03-08T14:57:02Z</time>
      </trkpt>
      <trkpt lat="44.4373" lon="1.3405">
        <ele>231.4</ele>
        <time>2025-03-08T14:57:03Z</time>
      </trkpt>
      <trkpt lat="44.43731" lon="1.34051">
        <ele>231.4</ele>
        <time>2025-03-08T14:57:04Z</time>
      </trkpt>
      <trkpt lat="44.43734" lon="1.34054">
        <ele>231.4</ele>
        <time>2025-03-08T14:57:05Z</time>
      </trkpt>
      <trkpt lat="44.43735" lon="1.34054">
        <ele>231.4</ele>
        <time>2025-03-08T14:57:06Z</time>
      </trkpt>
      <trkpt lat="44.43736" lon="1.34056">
        <ele>231.3</ele>
        <time>2025-03-08T14:57:07Z</time>
      </trkpt>
      <trkpt lat="44.43736" lon="1.34058">
        <ele>231.3</ele>
        <time>2025-03-08T14:57:08Z</time>
      </trkpt>
      <trkpt lat="44.43737" lon="1.3406">
        <ele>231.2</ele>
        <time>2025-03-08T14:57:09Z</time>
      </trkpt>
      <trkpt lat="44.43738" lon="1.34062">
        <ele>231.1</ele>
        <time>2025-03-08T14:57:10Z</time>
      </trkpt>
      <trkpt lat="44.4374" lon="1.34067">
        <ele>231</ele>
        <time>2025-03-08T14:57:11Z</time>
      </trkpt>
      <trkpt lat="44.4374" lon="1.34068">
        <ele>230.9</ele>
        <time>2025-03-08T14:57:12Z</time>
      </trkpt>
      <trkpt lat="44.43743" lon="1.34072">
        <ele>230.7</ele>
        <time>2025-03-08T14:57:13Z</time>
      </trkpt>
      <trkpt lat="44.43743" lon="1.34073">
        <ele>230.6</ele>
        <time>2025-03-08T14:57:14Z</time>
      </trkpt>
      <trkpt lat="44.43744" lon="1.34074">
        <ele>230.5</ele>
        <time>2025-03-08T14:57:15Z</time>
      </trkpt>
      <trkpt lat="44.43745" lon="1.34076">
        <ele>230.5</ele>
        <time>2025-03-08T14:57:16Z</time>
      </trkpt>
      <trkpt lat="44.43746" lon="1.34077">
        <ele>230.4</ele>
        <time>2025-03-08T14:57:17Z</time>
      </trkpt>
      <trkpt lat="44.43746" lon="1.34079">
        <ele>230.4</ele>
        <time>2025-03-08T14:57:18Z</time>
      </trkpt>
      <trkpt lat="44.43745" lon="1.34079">
        <ele>230.4</ele>
        <time>2025-03-08T14:57:19Z</time>
      </trkpt>
      <trkpt lat="44.43745" lon="1.3408">
        <ele>230.3</ele>
        <time>2025-03-08T14:57:20Z</time>
      </trkpt>
      <trkpt lat="44.43745" lon="1.3408">
        <ele>230.3</ele>
        <time>2025-03-08T14:57:21Z</time>
      </trkpt>
      <trkpt lat="44.43744" lon="1.34081">
        <ele>230.3</ele>
        <time>2025-03-08T14:57:22Z</time>
      </trkpt>
      <trkpt lat="44.43744" lon="1.34081">
        <ele>230.3</ele>
        <time>2025-03-08T14:57:23Z</time>
      </trkpt>
      <trkpt lat="44.43743" lon="1.34082">
        <ele>230.3</ele>
        <time>2025-03-08T14:57:24Z</time>
      </trkpt>
      <trkpt lat="44.43741" lon="1.34086">
        <ele>230.2</ele>
        <time>2025-03-08T14:57:25Z</time>
      </trkpt>
      <trkpt lat="44.43741" lon="1.34087">
        <ele>230.2</ele>
        <time>2025-03-08T14:57:26Z</time>
      </trkpt>
      <trkpt lat="44.43739" lon="1.34091">
        <ele>230.1</ele>
        <time>2025-03-08T14:57:27Z</time>
      </trkpt>
      <trkpt lat="44.43739" lon="1.34092">
        <ele>230.1</ele>
        <time>2025-03-08T14:57:28Z</time>
      </trkpt>
      <trkpt lat="44.43737" lon="1.34093">
        <ele>230.1</ele>
        <time>2025-03-08T14:57:29Z</time>
      </trkpt>
      <trkpt lat="44.43737" lon="1.34094">
        <ele>230</ele>
        <time>2025-03-08T14:57:30Z</time>
      </trkpt>
      <trkpt lat="44.43736" lon="1.34094">
        <ele>230</ele>
        <time>2025-03-08T14:57:31Z</time>
      </trkpt>
      <trkpt lat="44.43736" lon="1.34094">
        <ele>230</ele>
        <time>2025-03-08T14:57:32Z</time>
      </trkpt>
      <trkpt lat="44.43736" lon="1.34094">
        <ele>230</ele>
        <time>2025-03-08T14:57:33Z</time>
      </trkpt>
      <trkpt lat="44.43736" lon="1.34095">
        <ele>230</ele>
        <time>2025-03-08T14:57:34Z</time>
      </trkpt>
      <trkpt lat="44.43736" lon="1.34096">
        <ele>230</ele>
        <time>2025-03-08T14:57:35Z</time>
      </trkpt>
      <trkpt lat="44.43736" lon="1.34096">
        <ele>230</ele>
        <time>2025-03-08T14:57:36Z</time>
      </trkpt>
      <trkpt lat="44.43736" lon="1.34097">
        <ele>230</ele>
        <time>2025-03-08T14:57:37Z</time>
      </trkpt>
      <trkpt lat="44.43737" lon="1.34098">
        <ele>230</ele>
        <time>2025-03-08T14:57:38Z</time>
      </trkpt>
      <trkpt lat="44.43737" lon="1.34098">
        <ele>230</ele>
        <time>2025-03-08T14:57:39Z</time>
      </trkpt>
      <trkpt lat="44.43737" lon="1.34098">
        <ele>229.9</ele>
        <time>2025-03-08T14:57:40Z</time>
      </trkpt>
      <trkpt lat="44.43738" lon="1.34098">
        <ele>229.9</ele>
        <time>2025-03-08T14:57:41Z</time>
      </trkpt>
      <trkpt lat="44.43738" lon="1.34099">
        <ele>229.9</ele>
        <time>2025-03-08T14:57:42Z</time>
      </trkpt>
      <trkpt lat="44.43738" lon="1.34099">
        <ele>229.9</ele>
        <time>2025-03-08T14:57:43Z</time>
      </trkpt>
      <trkpt lat="44.43738" lon="1.34099">
        <ele>229.9</ele>
        <time>2025-03-08T14:57:44Z</time>
      </trkpt>
      <trkpt lat="44.43738" lon="1.341">
        <ele>229.9</ele>
        <time>2025-03-08T14:57:45Z</time>
      </trkpt>
      <trkpt lat="44.43738" lon="1.341">
        <ele>229.9</ele>
        <time>2025-03-08T14:57:46Z</time>
      </trkpt>
      <trkpt lat="44.43738" lon="1.341">
        <ele>229.9</ele>
        <time>2025-03-08T14:57:47Z</time>
      </trkpt>
      <trkpt lat="44.43738" lon="1.341">
        <ele>229.9</ele>
        <time>2025-03-08T14:57:48Z</time>
      </trkpt>
      <trkpt lat="44.43738" lon="1.341">
        <ele>229.9</ele>
        <time>2025-03-08T14:57:49Z</time>
      </trkpt>
      <trkpt lat="44.43738" lon="1.341">
        <ele>229.9</ele>
        <time>2025-03-08T14:57:50Z</time>
      </trkpt>
      <trkpt lat="44.43738" lon="1.341">
        <ele>229.9</ele>
        <time>2025-03-08T14:57:51Z</time>
      </trkpt>
      <trkpt lat="44.43738" lon="1.341">
        <ele>229.9</ele>
        <time>2025-03-08T14:57:52Z</time>
      </trkpt>
      <trkpt lat="44.43739" lon="1.341">
        <ele>229.9</ele>
        <time>2025-03-08T14:57:53Z</time>
      </trkpt>
      <trkpt lat="44.43739" lon="1.341">
        <ele>229.9</ele>
        <time>2025-03-08T14:57:54Z</time>
      </trkpt>
      <trkpt lat="44.43739" lon="1.341">
        <ele>229.9</ele>
        <time>2025-03-08T14:57:55Z</time>
      </trkpt>
      <trkpt lat="44.43739" lon="1.341">
        <ele>229.9</ele>
        <time>2025-03-08T14:57:56Z</time>
      </trkpt>
      <trkpt lat="44.43739" lon="1.341">
        <ele>229.9</ele>
        <time>2025-03-08T14:57:57Z</time>
      </trkpt>
      <trkpt lat="44.43739" lon="1.34101">
        <ele>229.9</ele>
        <time>2025-03-08T14:57:58Z</time>
      </trkpt>
      <trkpt lat="44.43739" lon="1.34101">
        <ele>229.9</ele>
        <time>2025-03-08T14:57:59Z</time>
      </trkpt>
      <trkpt lat="44.43739" lon="1.34101">
        <ele>229.9</ele>
        <time>2025-03-08T14:58:00Z</time>
      </trkpt>
      <trkpt lat="44.43738" lon="1.34104">
        <ele>229.8</ele>
        <time>2025-03-08T14:58:01Z</time>
      </trkpt>
      <trkpt lat="44.43738" lon="1.34105">
        <ele>229.8</ele>
        <time>2025-03-08T14:58:02Z</time>
      </trkpt>
      <trkpt lat="44.43738" lon="1.34107">
        <ele>229.8</ele>
        <time>2025-03-08T14:58:03Z</time>
      </trkpt>
      <trkpt lat="44.43738" lon="1.34109">
        <ele>229.8</ele>
        <time>2025-03-08T14:58:04Z</time>
      </trkpt>
      <trkpt lat="44.43737" lon="1.34111">
        <ele>229.7</ele>
        <time>2025-03-08T14:58:05Z</time>
      </trkpt>
      <trkpt lat="44.43736" lon="1.34112">
        <ele>229.7</ele>
        <time>2025-03-08T14:58:06Z</time>
      </trkpt>
      <trkpt lat="44.43735" lon="1.34113">
        <ele>229.7</ele>
        <time>2025-03-08T14:58:07Z</time>
      </trkpt>
      <trkpt lat="44.43735" lon="1.34115">
        <ele>229.6</ele>
        <time>2025-03-08T14:58:08Z</time>
      </trkpt>
      <trkpt lat="44.43735" lon="1.34115">
        <ele>229.6</ele>
        <time>2025-03-08T14:58:09Z</time>
      </trkpt>
      <trkpt lat="44.43734" lon="1.34116">
        <ele>229.6</ele>
        <time>2025-03-08T14:58:10Z</time>
      </trkpt>
      <trkpt lat="44.43734" lon="1.34118">
        <ele>229.6</ele>
        <time>2025-03-08T14:58:11Z</time>
      </trkpt>
      <trkpt lat="44.43734" lon="1.34119">
        <ele>229.6</ele>
        <time>2025-03-08T14:58:12Z</time>
      </trkpt>
      <trkpt lat="44.43734" lon="1.3412">
        <ele>229.6</ele>
        <time>2025-03-08T14:58:13Z</time>
      </trkpt>
      <trkpt lat="44.43734" lon="1.3412">
        <ele>229.5</ele>
        <time>2025-03-08T14:58:14Z</time>
      </trkpt>
      <trkpt lat="44.43734" lon="1.34121">
        <ele>229.5</ele>
        <time>2025-03-08T14:58:15Z</time>
      </trkpt>
      <trkpt lat="44.43734" lon="1.34121">
        <ele>229.5</ele>
        <time>2025-03-08T14:58:16Z</time>
      </trkpt>
      <trkpt lat="44.43734" lon="1.34122">
        <ele>229.5</ele>
        <time>2025-03-08T14:58:17Z</time>
      </trkpt>
      <trkpt lat="44.43734" lon="1.34123">
        <ele>229.5</ele>
        <time>2025-03-08T14:58:18Z</time>
      </trkpt>
      <trkpt lat="44.43734" lon="1.34124">
        <ele>229.5</ele>
        <time>2025-03-08T14:58:19Z</time>
      </trkpt>
      <trkpt lat="44.43734" lon="1.34125">
        <ele>229.5</ele>
        <time>2025-03-08T14:58:20Z</time>
      </trkpt>
      <trkpt lat="44.43733" lon="1.34126">
        <ele>229.4</ele>
        <time>2025-03-08T14:58:21Z</time>
      </trkpt>
      <trkpt lat="44.43734" lon="1.34127">
        <ele>229.4</ele>
        <time>2025-03-08T14:58:22Z</time>
      </trkpt>
      <trkpt lat="44.43734" lon="1.34128">
        <ele>229.4</ele>
        <time>2025-03-08T14:58:23Z</time>
      </trkpt>
      <trkpt lat="44.43734" lon="1.34129">
        <ele>229.4</ele>
        <time>2025-03-08T14:58:24Z</time>
      </trkpt>
      <trkpt lat="44.43734" lon="1.3413">
        <ele>229.4</ele>
        <time>2025-03-08T14:58:25Z</time>
      </trkpt>
      <trkpt lat="44.43735" lon="1.34131">
        <ele>229.4</ele>
        <time>2025-03-08T14:58:26Z</time>
      </trkpt>
      <trkpt lat="44.43735" lon="1.34132">
        <ele>229.4</ele>
        <time>2025-03-08T14:58:27Z</time>
      </trkpt>
      <trkpt lat="44.43735" lon="1.34133">
        <ele>229.3</ele>
        <time>2025-03-08T14:58:28Z</time>
      </trkpt>
      <trkpt lat="44.43735" lon="1.34134">
        <ele>229.3</ele>
        <time>2025-03-08T14:58:29Z</time>
      </trkpt>
      <trkpt lat="44.43735" lon="1.34134">
        <ele>229.3</ele>
        <time>2025-03-08T14:58:30Z</time>
      </trkpt>
      <trkpt lat="44.43735" lon="1.34134">
        <ele>229.3</ele>
        <time>2025-03-08T14:58:31Z</time>
      </trkpt>
      <trkpt lat="44.43735" lon="1.34135">
        <ele>229.3</ele>
        <time>2025-03-08T14:58:32Z</time>
      </trkpt>
      <trkpt lat="44.43735" lon="1.34137">
        <ele>229.3</ele>
        <time>2025-03-08T14:58:33Z</time>
      </trkpt>
      <trkpt lat="44.43735" lon="1.34138">
        <ele>229.3</ele>
        <time>2025-03-08T14:58:34Z</time>
      </trkpt>
      <trkpt lat="44.43735" lon="1.34139">
        <ele>229.2</ele>
        <time>2025-03-08T14:58:35Z</time>
      </trkpt>
      <trkpt lat="44.43735" lon="1.34139">
        <ele>229.2</ele>
        <time>2025-03-08T14:58:36Z</time>
      </trkpt>
      <trkpt lat="44.43735" lon="1.3414">
        <ele>229.2</ele>
        <time>2025-03-08T14:58:37Z</time>
      </trkpt>
      <trkpt lat="44.43735" lon="1.34141">
        <ele>229.2</ele>
        <time>2025-03-08T14:58:38Z</time>
      </trkpt>
      <trkpt lat="44.43735" lon="1.34142">
        <ele>229.2</ele>
        <time>2025-03-08T14:58:39Z</time>
      </trkpt>
      <trkpt lat="44.43736" lon="1.34142">
        <ele>229.2</ele>
        <time>2025-03-08T14:58:40Z</time>
      </trkpt>
      <trkpt lat="44.43736" lon="1.34143">
        <ele>229.2</ele>
        <time>2025-03-08T14:58:41Z</time>
      </trkpt>
      <trkpt lat="44.43736" lon="1.34144">
        <ele>229.2</ele>
        <time>2025-03-08T14:58:42Z</time>
      </trkpt>
      <trkpt lat="44.43735" lon="1.34145">
        <ele>229.1</ele>
        <time>2025-03-08T14:58:43Z</time>
      </trkpt>
      <trkpt lat="44.43735" lon="1.34145">
        <ele>229.1</ele>
        <time>2025-03-08T14:58:44Z</time>
      </trkpt>
      <trkpt lat="44.43736" lon="1.34146">
        <ele>229.1</ele>
        <time>2025-03-08T14:58:45Z</time>
      </trkpt>
      <trkpt lat="44.43736" lon="1.34146">
        <ele>229.1</ele>
        <time>2025-03-08T14:58:46Z</time>
      </trkpt>
      <trkpt lat="44.43736" lon="1.34147">
        <ele>229.1</ele>
        <time>2025-03-08T14:58:47Z</time>
      </trkpt>
      <trkpt lat="44.43736" lon="1.34148">
        <ele>229.1</ele>
        <time>2025-03-08T14:58:48Z</time>
      </trkpt>
      <trkpt lat="44.43737" lon="1.34149">
        <ele>229.1</ele>
        <time>2025-03-08T14:58:49Z</time>
      </trkpt>
      <trkpt lat="44.43737" lon="1.34149">
        <ele>229.1</ele>
        <time>2025-03-08T14:58:50Z</time>
      </trkpt>
      <trkpt lat="44.43738" lon="1.34149">
        <ele>229</ele>
        <time>2025-03-08T14:58:51Z</time>
      </trkpt>
      <trkpt lat="44.43738" lon="1.34149">
        <ele>229</ele>
        <time>2025-03-08T14:58:52Z</time>
      </trkpt>
      <trkpt lat="44.43738" lon="1.34149">
        <ele>229</ele>
        <time>2025-03-08T14:58:53Z</time>
      </trkpt>
      <trkpt lat="44.43738" lon="1.34149">
        <ele>229</ele>
        <time>2025-03-08T14:58:54Z</time>
      </trkpt>
      <trkpt lat="44.43737" lon="1.34149">
        <ele>229</ele>
        <time>2025-03-08T14:58:55Z</time>
      </trkpt>
      <trkpt lat="44.43737" lon="1.34149">
        <ele>229</ele>
        <time>2025-03-08T14:58:56Z</time>
      </trkpt>
      <trkpt lat="44.43737" lon="1.34149">
        <ele>229</ele>
        <time>2025-03-08T14:58:57Z</time>
      </trkpt>
      <trkpt lat="44.43737" lon="1.34149">
        <ele>229</ele>
        <time>2025-03-08T14:58:58Z</time>
      </trkpt>
      <trkpt lat="44.43737" lon="1.34149">
        <ele>229</ele>
        <time>2025-03-08T14:58:59Z</time>
      </trkpt>
      <trkpt lat="44.43737" lon="1.34147">
        <ele>229</ele>
        <time>2025-03-08T14:59:00Z</time>
      </trkpt>
      <trkpt lat="44.43736" lon="1.34145">
        <ele>229</ele>
        <time>2025-03-08T14:59:01Z</time>
      </trkpt>
      <trkpt lat="44.43736" lon="1.34144">
        <ele>228.9</ele>
        <time>2025-03-08T14:59:02Z</time>
      </trkpt>
      <trkpt lat="44.43736" lon="1.34144">
        <ele>228.9</ele>
        <time>2025-03-08T14:59:03Z</time>
      </trkpt>
      <trkpt lat="44.43736" lon="1.34143">
        <ele>228.9</ele>
        <time>2025-03-08T14:59:04Z</time>
      </trkpt>
      <trkpt lat="44.43736" lon="1.34142">
        <ele>228.9</ele>
        <time>2025-03-08T14:59:05Z</time>
      </trkpt>
      <trkpt lat="44.43736" lon="1.34142">
        <ele>228.9</ele>
        <time>2025-03-08T14:59:06Z</time>
      </trkpt>
      <trkpt lat="44.43735" lon="1.34141">
        <ele>228.9</ele>
        <time>2025-03-08T14:59:07Z</time>
      </trkpt>
      <trkpt lat="44.43735" lon="1.3414">
        <ele>228.9</ele>
        <time>2025-03-08T14:59:08Z</time>
      </trkpt>
      <trkpt lat="44.43735" lon="1.3414">
        <ele>228.9</ele>
        <time>2025-03-08T14:59:09Z</time>
      </trkpt>
      <trkpt lat="44.43735" lon="1.34138">
        <ele>228.9</ele>
        <time>2025-03-08T14:59:10Z</time>
      </trkpt>
      <trkpt lat="44.43735" lon="1.34137">
        <ele>228.8</ele>
        <time>2025-03-08T14:59:11Z</time>
      </trkpt>
      <trkpt lat="44.43735" lon="1.34136">
        <ele>228.8</ele>
        <time>2025-03-08T14:59:12Z</time>
      </trkpt>
      <trkpt lat="44.43734" lon="1.34134">
        <ele>228.8</ele>
        <time>2025-03-08T14:59:13Z</time>
      </trkpt>
      <trkpt lat="44.43734" lon="1.34133">
        <ele>228.8</ele>
        <time>2025-03-08T14:59:14Z</time>
      </trkpt>
      <trkpt lat="44.43734" lon="1.34131">
        <ele>228.7</ele>
        <time>2025-03-08T14:59:15Z</time>
      </trkpt>
      <trkpt lat="44.43734" lon="1.3413">
        <ele>228.7</ele>
        <time>2025-03-08T14:59:16Z</time>
      </trkpt>
      <trkpt lat="44.43734" lon="1.34129">
        <ele>228.7</ele>
        <time>2025-03-08T14:59:17Z</time>
      </trkpt>
      <trkpt lat="44.43733" lon="1.34128">
        <ele>228.7</ele>
        <time>2025-03-08T14:59:18Z</time>
      </trkpt>
      <trkpt lat="44.43733" lon="1.34126">
        <ele>228.7</ele>
        <time>2025-03-08T14:59:19Z</time>
      </trkpt>
      <trkpt lat="44.43733" lon="1.34125">
        <ele>228.6</ele>
        <time>2025-03-08T14:59:20Z</time>
      </trkpt>
      <trkpt lat="44.43733" lon="1.34124">
        <ele>228.7</ele>
        <time>2025-03-08T14:59:21Z</time>
      </trkpt>
      <trkpt lat="44.43733" lon="1.34122">
        <ele>228.7</ele>
        <time>2025-03-08T14:59:22Z</time>
      </trkpt>
      <trkpt lat="44.43734" lon="1.34121">
        <ele>228.8</ele>
        <time>2025-03-08T14:59:23Z</time>
      </trkpt>
      <trkpt lat="44.43734" lon="1.3412">
        <ele>228.8</ele>
        <time>2025-03-08T14:59:24Z</time>
      </trkpt>
      <trkpt lat="44.43734" lon="1.34119">
        <ele>228.8</ele>
        <time>2025-03-08T14:59:25Z</time>
      </trkpt>
      <trkpt lat="44.43734" lon="1.34117">
        <ele>228.9</ele>
        <time>2025-03-08T14:59:26Z</time>
      </trkpt>
      <trkpt lat="44.43735" lon="1.34116">
        <ele>229</ele>
        <time>2025-03-08T14:59:27Z</time>
      </trkpt>
      <trkpt lat="44.43735" lon="1.34114">
        <ele>229</ele>
        <time>2025-03-08T14:59:28Z</time>
      </trkpt>
      <trkpt lat="44.43735" lon="1.34112">
        <ele>229.1</ele>
        <time>2025-03-08T14:59:29Z</time>
      </trkpt>
      <trkpt lat="44.43735" lon="1.34111">
        <ele>229.1</ele>
        <time>2025-03-08T14:59:30Z</time>
      </trkpt>
      <trkpt lat="44.43736" lon="1.34109">
        <ele>229.2</ele>
        <time>2025-03-08T14:59:31Z</time>
      </trkpt>
      <trkpt lat="44.43736" lon="1.34107">
        <ele>229.3</ele>
        <time>2025-03-08T14:59:32Z</time>
      </trkpt>
      <trkpt lat="44.43737" lon="1.34106">
        <ele>229.3</ele>
        <time>2025-03-08T14:59:33Z</time>
      </trkpt>
      <trkpt lat="44.43737" lon="1.34104">
        <ele>229.4</ele>
        <time>2025-03-08T14:59:34Z</time>
      </trkpt>
      <trkpt lat="44.43738" lon="1.34102">
        <ele>229.5</ele>
        <time>2025-03-08T14:59:35Z</time>
      </trkpt>
      <trkpt lat="44.43739" lon="1.34101">
        <ele>229.5</ele>
        <time>2025-03-08T14:59:36Z</time>
      </trkpt>
      <trkpt lat="44.43739" lon="1.34099">
        <ele>229.6</ele>
        <time>2025-03-08T14:59:37Z</time>
      </trkpt>
      <trkpt lat="44.43739" lon="1.34098">
        <ele>229.6</ele>
        <time>2025-03-08T14:59:38Z</time>
      </trkpt>
      <trkpt lat="44.43739" lon="1.34098">
        <ele>229.6</ele>
        <time>2025-03-08T14:59:39Z</time>
      </trkpt>
      <trkpt lat="44.4374" lon="1.34097">
        <ele>229.7</ele>
        <time>2025-03-08T14:59:40Z</time>
      </trkpt>
      <trkpt lat="44.4374" lon="1.34097">
        <ele>229.7</ele>
        <time>2025-03-08T14:59:41Z</time>
      </trkpt>
      <trkpt lat="44.4374" lon="1.34097">
        <ele>229.7</ele>
        <time>2025-03-08T14:59:42Z</time>
      </trkpt>
      <trkpt lat="44.4374" lon="1.34096">
        <ele>229.7</ele>
        <time>2025-03-08T14:59:43Z</time>
      </trkpt>
      <trkpt lat="44.43741" lon="1.34096">
        <ele>229.7</ele>
        <time>2025-03-08T14:59:44Z</time>
      </trkpt>
      <trkpt lat="44.43741" lon="1.34093">
        <ele>229.8</ele>
        <time>2025-03-08T14:59:45Z</time>
      </trkpt>
      <trkpt lat="44.43742" lon="1.34091">
        <ele>229.9</ele>
        <time>2025-03-08T14:59:46Z</time>
      </trkpt>
      <trkpt lat="44.43742" lon="1.34089">
        <ele>230</ele>
        <time>2025-03-08T14:59:47Z</time>
      </trkpt>
      <trkpt lat="44.43744" lon="1.34087">
        <ele>230.1</ele>
        <time>2025-03-08T14:59:48Z</time>
      </trkpt>
      <trkpt lat="44.43747" lon="1.34087">
        <ele>230.4</ele>
        <time>2025-03-08T14:59:49Z</time>
      </trkpt>
      <trkpt lat="44.43748" lon="1.34087">
        <ele>230.3</ele>
        <time>2025-03-08T14:59:50Z</time>
      </trkpt>
      <trkpt lat="44.4375" lon="1.34087">
        <ele>230.1</ele>
        <time>2025-03-08T14:59:51Z</time>
      </trkpt>
      <trkpt lat="44.43751" lon="1.34088">
        <ele>230</ele>
        <time>2025-03-08T14:59:52Z</time>
      </trkpt>
      <trkpt lat="44.43753" lon="1.3409">
        <ele>229.8</ele>
        <time>2025-03-08T14:59:53Z</time>
      </trkpt>
      <trkpt lat="44.43753" lon="1.34091">
        <ele>229.7</ele>
        <time>2025-03-08T14:59:54Z</time>
      </trkpt>
      <trkpt lat="44.43754" lon="1.34093">
        <ele>229.6</ele>
        <time>2025-03-08T14:59:55Z</time>
      </trkpt>
      <trkpt lat="44.43756" lon="1.34096">
        <ele>229.3</ele>
        <time>2025-03-08T14:59:56Z</time>
      </trkpt>
      <trkpt lat="44.43759" lon="1.341">
        <ele>229</ele>
        <time>2025-03-08T14:59:57Z</time>
      </trkpt>
      <trkpt lat="44.43762" lon="1.34103">
        <ele>228.7</ele>
        <time>2025-03-08T14:59:58Z</time>
      </trkpt>
      <trkpt lat="44.43765" lon="1.34106">
        <ele>228.4</ele>
        <time>2025-03-08T14:59:59Z</time>
      </trkpt>
      <trkpt lat="44.43768" lon="1.34108">
        <ele>228.1</ele>
        <time>2025-03-08T15:00:00Z</time>
      </trkpt>
      <trkpt lat="44.43771" lon="1.34109">
        <ele>227.8</ele>
        <time>2025-03-08T15:00:01Z</time>
      </trkpt>
      <trkpt lat="44.43774" lon="1.3411">
        <ele>227.6</ele>
        <time>2025-03-08T15:00:02Z</time>
      </trkpt>
      <trkpt lat="44.43777" lon="1.34113">
        <ele>227.3</ele>
        <time>2025-03-08T15:00:03Z</time>
      </trkpt>
      <trkpt lat="44.43778" lon="1.34113">
        <ele>227.2</ele>
        <time>2025-03-08T15:00:04Z</time>
      </trkpt>
      <trkpt lat="44.43781" lon="1.34115">
        <ele>226.9</ele>
        <time>2025-03-08T15:00:05Z</time>
      </trkpt>
      <trkpt lat="44.43784" lon="1.34116">
        <ele>226.7</ele>
        <time>2025-03-08T15:00:06Z</time>
      </trkpt>
      <trkpt lat="44.43787" lon="1.34118">
        <ele>226.4</ele>
        <time>2025-03-08T15:00:07Z</time>
      </trkpt>
      <trkpt lat="44.43788" lon="1.34118">
        <ele>226.3</ele>
        <time>2025-03-08T15:00:08Z</time>
      </trkpt>
      <trkpt lat="44.43791" lon="1.3412">
        <ele>226.1</ele>
        <time>2025-03-08T15:00:09Z</time>
      </trkpt>
      <trkpt lat="44.43792" lon="1.3412">
        <ele>226</ele>
        <time>2025-03-08T15:00:10Z</time>
      </trkpt>
      <trkpt lat="44.43795" lon="1.34122">
        <ele>225.8</ele>
        <time>2025-03-08T15:00:11Z</time>
      </trkpt>
      <trkpt lat="44.43796" lon="1.34122">
        <ele>225.8</ele>
        <time>2025-03-08T15:00:12Z</time>
      </trkpt>
      <trkpt lat="44.43798" lon="1.34123">
        <ele>225.6</ele>
        <time>2025-03-08T15:00:13Z</time>
      </trkpt>
      <trkpt lat="44.43799" lon="1.34123">
        <ele>225.6</ele>
        <time>2025-03-08T15:00:14Z</time>
      </trkpt>
      <trkpt lat="44.43802" lon="1.34125">
        <ele>225.4</ele>
        <time>2025-03-08T15:00:15Z</time>
      </trkpt>
      <trkpt lat="44.43803" lon="1.34125">
        <ele>225.3</ele>
        <time>2025-03-08T15:00:16Z</time>
      </trkpt>
      <trkpt lat="44.43806" lon="1.34127">
        <ele>225.1</ele>
        <time>2025-03-08T15:00:17Z</time>
      </trkpt>
      <trkpt lat="44.43807" lon="1.34127">
        <ele>225.1</ele>
        <time>2025-03-08T15:00:18Z</time>
      </trkpt>
      <trkpt lat="44.4381" lon="1.34129">
        <ele>225</ele>
        <time>2025-03-08T15:00:19Z</time>
      </trkpt>
      <trkpt lat="44.43811" lon="1.34129">
        <ele>224.9</ele>
        <time>2025-03-08T15:00:20Z</time>
      </trkpt>
      <trkpt lat="44.43814" lon="1.34131">
        <ele>224.8</ele>
        <time>2025-03-08T15:00:21Z</time>
      </trkpt>
      <trkpt lat="44.43815" lon="1.34132">
        <ele>224.7</ele>
        <time>2025-03-08T15:00:22Z</time>
      </trkpt>
      <trkpt lat="44.43818" lon="1.34133">
        <ele>224.6</ele>
        <time>2025-03-08T15:00:23Z</time>
      </trkpt>
      <trkpt lat="44.43819" lon="1.34133">
        <ele>224.6</ele>
        <time>2025-03-08T15:00:24Z</time>
      </trkpt>
      <trkpt lat="44.43822" lon="1.34135">
        <ele>224.5</ele>
        <time>2025-03-08T15:00:25Z</time>
      </trkpt>
      <trkpt lat="44.43822" lon="1.34135">
        <ele>224.4</ele>
        <time>2025-03-08T15:00:26Z</time>
      </trkpt>
      <trkpt lat="44.43825" lon="1.34137">
        <ele>224.3</ele>
        <time>2025-03-08T15:00:27Z</time>
      </trkpt>
      <trkpt lat="44.43826" lon="1.34137">
        <ele>224.3</ele>
        <time>2025-03-08T15:00:28Z</time>
      </trkpt>
      <trkpt lat="44.43827" lon="1.34138">
        <ele>224.2</ele>
        <time>2025-03-08T15:00:29Z</time>
      </trkpt>
      <trkpt lat="44.43829" lon="1.34139">
        <ele>224.2</ele>
        <time>2025-03-08T15:00:30Z</time>
      </trkpt>
      <trkpt lat="44.4383" lon="1.34139">
        <ele>224.1</ele>
        <time>2025-03-08T15:00:31Z</time>
      </trkpt>
      <trkpt lat="44.43832" lon="1.3414">
        <ele>224</ele>
        <time>2025-03-08T15:00:32Z</time>
      </trkpt>
      <trkpt lat="44.43833" lon="1.3414">
        <ele>224</ele>
        <time>2025-03-08T15:00:33Z</time>
      </trkpt>
      <trkpt lat="44.43835" lon="1.34142">
        <ele>223.9</ele>
        <time>2025-03-08T15:00:34Z</time>
      </trkpt>
      <trkpt lat="44.43836" lon="1.34143">
        <ele>223.8</ele>
        <time>2025-03-08T15:00:35Z</time>
      </trkpt>
      <trkpt lat="44.43837" lon="1.34143">
        <ele>223.8</ele>
        <time>2025-03-08T15:00:36Z</time>
      </trkpt>
      <trkpt lat="44.43838" lon="1.34143">
        <ele>223.7</ele>
        <time>2025-03-08T15:00:37Z</time>
      </trkpt>
      <trkpt lat="44.43839" lon="1.34144">
        <ele>223.7</ele>
        <time>2025-03-08T15:00:38Z</time>
      </trkpt>
      <trkpt lat="44.4384" lon="1.34144">
        <ele>223.6</ele>
        <time>2025-03-08T15:00:39Z</time>
      </trkpt>
      <trkpt lat="44.43843" lon="1.34144">
        <ele>223.4</ele>
        <time>2025-03-08T15:00:40Z</time>
      </trkpt>
      <trkpt lat="44.43844" lon="1.34145">
        <ele>223.4</ele>
        <time>2025-03-08T15:00:41Z</time>
      </trkpt>
      <trkpt lat="44.43846" lon="1.34145">
        <ele>223.3</ele>
        <time>2025-03-08T15:00:42Z</time>
      </trkpt>
      <trkpt lat="44.43847" lon="1.34146">
        <ele>223.2</ele>
        <time>2025-03-08T15:00:43Z</time>
      </trkpt>
      <trkpt lat="44.43849" lon="1.34146">
        <ele>223.1</ele>
        <time>2025-03-08T15:00:44Z</time>
      </trkpt>
      <trkpt lat="44.43849" lon="1.34146">
        <ele>223.1</ele>
        <time>2025-03-08T15:00:45Z</time>
      </trkpt>
      <trkpt lat="44.43849" lon="1.34145">
        <ele>223.1</ele>
        <time>2025-03-08T15:00:46Z</time>
      </trkpt>
      <trkpt lat="44.43849" lon="1.34145">
        <ele>223</ele>
        <time>2025-03-08T15:00:47Z</time>
      </trkpt>
      <trkpt lat="44.43849" lon="1.34145">
        <ele>223</ele>
        <time>2025-03-08T15:00:48Z</time>
      </trkpt>
      <trkpt lat="44.43849" lon="1.34145">
        <ele>223</ele>
        <time>2025-03-08T15:00:49Z</time>
      </trkpt>
      <trkpt lat="44.4385" lon="1.34145">
        <ele>223</ele>
        <time>2025-03-08T15:00:50Z</time>
      </trkpt>
      <trkpt lat="44.4385" lon="1.34144">
        <ele>223</ele>
        <time>2025-03-08T15:00:51Z</time>
      </trkpt>
      <trkpt lat="44.4385" lon="1.34144">
        <ele>223</ele>
        <time>2025-03-08T15:00:52Z</time>
      </trkpt>
      <trkpt lat="44.4385" lon="1.34144">
        <ele>222.9</ele>
        <time>2025-03-08T15:00:53Z</time>
      </trkpt>
      <trkpt lat="44.4385" lon="1.34144">
        <ele>222.9</ele>
        <time>2025-03-08T15:00:54Z</time>
      </trkpt>
      <trkpt lat="44.4385" lon="1.34144">
        <ele>222.9</ele>
        <time>2025-03-08T15:00:55Z</time>
      </trkpt>
      <trkpt lat="44.43851" lon="1.34143">
        <ele>222.9</ele>
        <time>2025-03-08T15:00:56Z</time>
      </trkpt>
      <trkpt lat="44.43851" lon="1.34143">
        <ele>222.9</ele>
        <time>2025-03-08T15:00:57Z</time>
      </trkpt>
      <trkpt lat="44.43851" lon="1.34143">
        <ele>222.9</ele>
        <time>2025-03-08T15:00:58Z</time>
      </trkpt>
      <trkpt lat="44.43851" lon="1.34141">
        <ele>222.9</ele>
        <time>2025-03-08T15:00:59Z</time>
      </trkpt>
      <trkpt lat="44.43851" lon="1.3414">
        <ele>222.9</ele>
        <time>2025-03-08T15:01:00Z</time>
      </trkpt>
      <trkpt lat="44.4385" lon="1.3414">
        <ele>222.9</ele>
        <time>2025-03-08T15:01:01Z</time>
      </trkpt>
      <trkpt lat="44.4385" lon="1.34139">
        <ele>222.9</ele>
        <time>2025-03-08T15:01:02Z</time>
      </trkpt>
      <trkpt lat="44.4385" lon="1.34138">
        <ele>222.9</ele>
        <time>2025-03-08T15:01:03Z</time>
      </trkpt>
      <trkpt lat="44.4385" lon="1.34138">
        <ele>223</ele>
        <time>2025-03-08T15:01:04Z</time>
      </trkpt>
      <trkpt lat="44.43849" lon="1.34137">
        <ele>223</ele>
        <time>2025-03-08T15:01:05Z</time>
      </trkpt>
      <trkpt lat="44.43848" lon="1.34136">
        <ele>223</ele>
        <time>2025-03-08T15:01:06Z</time>
      </trkpt>
      <trkpt lat="44.43848" lon="1.34135">
        <ele>223.1</ele>
        <time>2025-03-08T15:01:07Z</time>
      </trkpt>
      <trkpt lat="44.43848" lon="1.34134">
        <ele>223.1</ele>
        <time>2025-03-08T15:01:08Z</time>
      </trkpt>
      <trkpt lat="44.43848" lon="1.34134">
        <ele>223.1</ele>
        <time>2025-03-08T15:01:09Z</time>
      </trkpt>
      <trkpt lat="44.43848" lon="1.34134">
        <ele>223.1</ele>
        <time>2025-03-08T15:01:10Z</time>
      </trkpt>
      <trkpt lat="44.43847" lon="1.34134">
        <ele>223.1</ele>
        <time>2025-03-08T15:01:11Z</time>
      </trkpt>
      <trkpt lat="44.43847" lon="1.34133">
        <ele>223.1</ele>
        <time>2025-03-08T15:01:12Z</time>
      </trkpt>
      <trkpt lat="44.43846" lon="1.34132">
        <ele>223.2</ele>
        <time>2025-03-08T15:01:13Z</time>
      </trkpt>
      <trkpt lat="44.43846" lon="1.34131">
        <ele>223.2</ele>
        <time>2025-03-08T15:01:14Z</time>
      </trkpt>
      <trkpt lat="44.43846" lon="1.3413">
        <ele>223.2</ele>
        <time>2025-03-08T15:01:15Z</time>
      </trkpt>
      <trkpt lat="44.43846" lon="1.3413">
        <ele>223.2</ele>
        <time>2025-03-08T15:01:16Z</time>
      </trkpt>
      <trkpt lat="44.43845" lon="1.34129">
        <ele>223.2</ele>
        <time>2025-03-08T15:01:17Z</time>
      </trkpt>
      <trkpt lat="44.43846" lon="1.34128">
        <ele>223.3</ele>
        <time>2025-03-08T15:01:18Z</time>
      </trkpt>
      <trkpt lat="44.43845" lon="1.34127">
        <ele>223.3</ele>
        <time>2025-03-08T15:01:19Z</time>
      </trkpt>
      <trkpt lat="44.43845" lon="1.34127">
        <ele>223.3</ele>
        <time>2025-03-08T15:01:20Z</time>
      </trkpt>
      <trkpt lat="44.43845" lon="1.34127">
        <ele>223.3</ele>
        <time>2025-03-08T15:01:21Z</time>
      </trkpt>
      <trkpt lat="44.43845" lon="1.34127">
        <ele>223.3</ele>
        <time>2025-03-08T15:01:22Z</time>
      </trkpt>
      <trkpt lat="44.43846" lon="1.34127">
        <ele>223.4</ele>
        <time>2025-03-08T15:01:23Z</time>
      </trkpt>
      <trkpt lat="44.43847" lon="1.34127">
        <ele>223.4</ele>
        <time>2025-03-08T15:01:24Z</time>
      </trkpt>
      <trkpt lat="44.43847" lon="1.34127">
        <ele>223.4</ele>
        <time>2025-03-08T15:01:25Z</time>
      </trkpt>
      <trkpt lat="44.43848" lon="1.34127">
        <ele>223.4</ele>
        <time>2025-03-08T15:01:26Z</time>
      </trkpt>
      <trkpt lat="44.43849" lon="1.34127">
        <ele>223.4</ele>
        <time>2025-03-08T15:01:27Z</time>
      </trkpt>
      <trkpt lat="44.43849" lon="1.34128">
        <ele>223.5</ele>
        <time>2025-03-08T15:01:28Z</time>
      </trkpt>
      <trkpt lat="44.4385" lon="1.34128">
        <ele>223.5</ele>
        <time>2025-03-08T15:01:29Z</time>
      </trkpt>
      <trkpt lat="44.43851" lon="1.34127">
        <ele>223.5</ele>
        <time>2025-03-08T15:01:30Z</time>
      </trkpt>
      <trkpt lat="44.43851" lon="1.34127">
        <ele>223.5</ele>
        <time>2025-03-08T15:01:31Z</time>
      </trkpt>
      <trkpt lat="44.43851" lon="1.34126">
        <ele>223.5</ele>
        <time>2025-03-08T15:01:32Z</time>
      </trkpt>
      <trkpt lat="44.43851" lon="1.34125">
        <ele>223.5</ele>
        <time>2025-03-08T15:01:33Z</time>
      </trkpt>
      <trkpt lat="44.43852" lon="1.34124">
        <ele>223.6</ele>
        <time>2025-03-08T15:01:34Z</time>
      </trkpt>
      <trkpt lat="44.43852" lon="1.34122">
        <ele>223.6</ele>
        <time>2025-03-08T15:01:35Z</time>
      </trkpt>
      <trkpt lat="44.43852" lon="1.3412">
        <ele>223.6</ele>
        <time>2025-03-08T15:01:36Z</time>
      </trkpt>
      <trkpt lat="44.43852" lon="1.3412">
        <ele>223.7</ele>
        <time>2025-03-08T15:01:37Z</time>
      </trkpt>
      <trkpt lat="44.43851" lon="1.34119">
        <ele>223.7</ele>
        <time>2025-03-08T15:01:38Z</time>
      </trkpt>
      <trkpt lat="44.43851" lon="1.34119">
        <ele>223.7</ele>
        <time>2025-03-08T15:01:39Z</time>
      </trkpt>
      <trkpt lat="44.43851" lon="1.34119">
        <ele>223.7</ele>
        <time>2025-03-08T15:01:40Z</time>
      </trkpt>
      <trkpt lat="44.43851" lon="1.3412">
        <ele>223.7</ele>
        <time>2025-03-08T15:01:41Z</time>
      </trkpt>
      <trkpt lat="44.4385" lon="1.3412">
        <ele>223.7</ele>
        <time>2025-03-08T15:01:42Z</time>
      </trkpt>
      <trkpt lat="44.4385" lon="1.34121">
        <ele>223.7</ele>
        <time>2025-03-08T15:01:43Z</time>
      </trkpt>
      <trkpt lat="44.4385" lon="1.34121">
        <ele>223.8</ele>
        <time>2025-03-08T15:01:44Z</time>
      </trkpt>
      <trkpt lat="44.4385" lon="1.34122">
        <ele>223.8</ele>
        <time>2025-03-08T15:01:45Z</time>
      </trkpt>
      <trkpt lat="44.4385" lon="1.34121">
        <ele>223.8</ele>
        <time>2025-03-08T15:01:46Z</time>
      </trkpt>
      <trkpt lat="44.43851" lon="1.34121">
        <ele>223.8</ele>
        <time>2025-03-08T15:01:47Z</time>
      </trkpt>
      <trkpt lat="44.43851" lon="1.34121">
        <ele>223.8</ele>
        <time>2025-03-08T15:01:48Z</time>
      </trkpt>
      <trkpt lat="44.43852" lon="1.34121">
        <ele>223.8</ele>
        <time>2025-03-08T15:01:49Z</time>
      </trkpt>
      <trkpt lat="44.43852" lon="1.34121">
        <ele>223.8</ele>
        <time>2025-03-08T15:01:50Z</time>
      </trkpt>
      <trkpt lat="44.43852" lon="1.34121">
        <ele>223.8</ele>
        <time>2025-03-08T15:01:51Z</time>
      </trkpt>
      <trkpt lat="44.43853" lon="1.34121">
        <ele>223.8</ele>
        <time>2025-03-08T15:01:52Z</time>
      </trkpt>
      <trkpt lat="44.43853" lon="1.34121">
        <ele>223.9</ele>
        <time>2025-03-08T15:01:53Z</time>
      </trkpt>
      <trkpt lat="44.43854" lon="1.34121">
        <ele>223.9</ele>
        <time>2025-03-08T15:01:54Z</time>
      </trkpt>
      <trkpt lat="44.43854" lon="1.3412">
        <ele>223.9</ele>
        <time>2025-03-08T15:01:55Z</time>
      </trkpt>
      <trkpt lat="44.43854" lon="1.34119">
        <ele>223.9</ele>
        <time>2025-03-08T15:01:56Z</time>
      </trkpt>
      <trkpt lat="44.43855" lon="1.34118">
        <ele>223.9</ele>
        <time>2025-03-08T15:01:57Z</time>
      </trkpt>
      <trkpt lat="44.43855" lon="1.34115">
        <ele>224</ele>
        <time>2025-03-08T15:01:58Z</time>
      </trkpt>
      <trkpt lat="44.43855" lon="1.34113">
        <ele>224</ele>
        <time>2025-03-08T15:01:59Z</time>
      </trkpt>
      <trkpt lat="44.43854" lon="1.34112">
        <ele>224</ele>
        <time>2025-03-08T15:02:00Z</time>
      </trkpt>
      <trkpt lat="44.43853" lon="1.34112">
        <ele>224.1</ele>
        <time>2025-03-08T15:02:01Z</time>
      </trkpt>
      <trkpt lat="44.43852" lon="1.34112">
        <ele>224.1</ele>
        <time>2025-03-08T15:02:02Z</time>
      </trkpt>
      <trkpt lat="44.43851" lon="1.34112">
        <ele>224.1</ele>
        <time>2025-03-08T15:02:03Z</time>
      </trkpt>
      <trkpt lat="44.43851" lon="1.34112">
        <ele>224.1</ele>
        <time>2025-03-08T15:02:04Z</time>
      </trkpt>
      <trkpt lat="44.4385" lon="1.34112">
        <ele>224.1</ele>
        <time>2025-03-08T15:02:05Z</time>
      </trkpt>
      <trkpt lat="44.43849" lon="1.34111">
        <ele>224.2</ele>
        <time>2025-03-08T15:02:06Z</time>
      </trkpt>
      <trkpt lat="44.43848" lon="1.34111">
        <ele>224.2</ele>
        <time>2025-03-08T15:02:07Z</time>
      </trkpt>
      <trkpt lat="44.43847" lon="1.34111">
        <ele>224.2</ele>
        <time>2025-03-08T15:02:08Z</time>
      </trkpt>
      <trkpt lat="44.43846" lon="1.3411">
        <ele>224.2</ele>
        <time>2025-03-08T15:02:09Z</time>
      </trkpt>
      <trkpt lat="44.43845" lon="1.3411">
        <ele>224.3</ele>
        <time>2025-03-08T15:02:10Z</time>
      </trkpt>
      <trkpt lat="44.43844" lon="1.34109">
        <ele>224.3</ele>
        <time>2025-03-08T15:02:11Z</time>
      </trkpt>
      <trkpt lat="44.43843" lon="1.34108">
        <ele>224.3</ele>
        <time>2025-03-08T15:02:12Z</time>
      </trkpt>
      <trkpt lat="44.43842" lon="1.34108">
        <ele>224.3</ele>
        <time>2025-03-08T15:02:13Z</time>
      </trkpt>
      <trkpt lat="44.43841" lon="1.34107">
        <ele>224.3</ele>
        <time>2025-03-08T15:02:14Z</time>
      </trkpt>
      <trkpt lat="44.43841" lon="1.34107">
        <ele>224.4</ele>
        <time>2025-03-08T15:02:15Z</time>
      </trkpt>
      <trkpt lat="44.4384" lon="1.34106">
        <ele>224.4</ele>
        <time>2025-03-08T15:02:16Z</time>
      </trkpt>
      <trkpt lat="44.43839" lon="1.34106">
        <ele>224.4</ele>
        <time>2025-03-08T15:02:17Z</time>
      </trkpt>
      <trkpt lat="44.43839" lon="1.34105">
        <ele>224.4</ele>
        <time>2025-03-08T15:02:18Z</time>
      </trkpt>
      <trkpt lat="44.43838" lon="1.34105">
        <ele>224.4</ele>
        <time>2025-03-08T15:02:19Z</time>
      </trkpt>
      <trkpt lat="44.43838" lon="1.34105">
        <ele>224.4</ele>
        <time>2025-03-08T15:02:20Z</time>
      </trkpt>
      <trkpt lat="44.43837" lon="1.34105">
        <ele>224.4</ele>
        <time>2025-03-08T15:02:21Z</time>
      </trkpt>
      <trkpt lat="44.43837" lon="1.34105">
        <ele>224.5</ele>
        <time>2025-03-08T15:02:22Z</time>
      </trkpt>
      <trkpt lat="44.43836" lon="1.34104">
        <ele>224.5</ele>
        <time>2025-03-08T15:02:23Z</time>
      </trkpt>
      <trkpt lat="44.43835" lon="1.34103">
        <ele>224.5</ele>
        <time>2025-03-08T15:02:24Z</time>
      </trkpt>
      <trkpt lat="44.43834" lon="1.34101">
        <ele>224.5</ele>
        <time>2025-03-08T15:02:25Z</time>
      </trkpt>
      <trkpt lat="44.43832" lon="1.34101">
        <ele>224.6</ele>
        <time>2025-03-08T15:02:26Z</time>
      </trkpt>
      <trkpt lat="44.43832" lon="1.341">
        <ele>224.6</ele>
        <time>2025-03-08T15:02:27Z</time>
      </trkpt>
      <trkpt lat="44.43831" lon="1.341">
        <ele>224.6</ele>
        <time>2025-03-08T15:02:28Z</time>
      </trkpt>
      <trkpt lat="44.4383" lon="1.34099">
        <ele>224.6</ele>
        <time>2025-03-08T15:02:29Z</time>
      </trkpt>
      <trkpt lat="44.43829" lon="1.34099">
        <ele>224.6</ele>
        <time>2025-03-08T15:02:30Z</time>
      </trkpt>
      <trkpt lat="44.43828" lon="1.34099">
        <ele>224.7</ele>
        <time>2025-03-08T15:02:31Z</time>
      </trkpt>
      <trkpt lat="44.43827" lon="1.34098">
        <ele>224.7</ele>
        <time>2025-03-08T15:02:32Z</time>
      </trkpt>
      <trkpt lat="44.43826" lon="1.34097">
        <ele>224.7</ele>
        <time>2025-03-08T15:02:33Z</time>
      </trkpt>
      <trkpt lat="44.43825" lon="1.34096">
        <ele>224.7</ele>
        <time>2025-03-08T15:02:34Z</time>
      </trkpt>
      <trkpt lat="44.43824" lon="1.34095">
        <ele>224.8</ele>
        <time>2025-03-08T15:02:35Z</time>
      </trkpt>
      <trkpt lat="44.43823" lon="1.34095">
        <ele>224.8</ele>
        <time>2025-03-08T15:02:36Z</time>
      </trkpt>
      <trkpt lat="44.43822" lon="1.34095">
        <ele>224.8</ele>
        <time>2025-03-08T15:02:37Z</time>
      </trkpt>
      <trkpt lat="44.4382" lon="1.34095">
        <ele>224.8</ele>
        <time>2025-03-08T15:02:38Z</time>
      </trkpt>
      <trkpt lat="44.43819" lon="1.34095">
        <ele>224.9</ele>
        <time>2025-03-08T15:02:39Z</time>
      </trkpt>
      <trkpt lat="44.43818" lon="1.34095">
        <ele>224.9</ele>
        <time>2025-03-08T15:02:40Z</time>
      </trkpt>
      <trkpt lat="44.43817" lon="1.34095">
        <ele>224.9</ele>
        <time>2025-03-08T15:02:41Z</time>
      </trkpt>
      <trkpt lat="44.43815" lon="1.34095">
        <ele>225</ele>
        <time>2025-03-08T15:02:42Z</time>
      </trkpt>
      <trkpt lat="44.43814" lon="1.34095">
        <ele>225</ele>
        <time>2025-03-08T15:02:43Z</time>
      </trkpt>
      <trkpt lat="44.43813" lon="1.34094">
        <ele>225</ele>
        <time>2025-03-08T15:02:44Z</time>
      </trkpt>
      <trkpt lat="44.43812" lon="1.34094">
        <ele>225</ele>
        <time>2025-03-08T15:02:45Z</time>
      </trkpt>
      <trkpt lat="44.43811" lon="1.34095">
        <ele>225.1</ele>
        <time>2025-03-08T15:02:46Z</time>
      </trkpt>
      <trkpt lat="44.4381" lon="1.34094">
        <ele>225.1</ele>
        <time>2025-03-08T15:02:47Z</time>
      </trkpt>
      <trkpt lat="44.43809" lon="1.34094">
        <ele>225.1</ele>
        <time>2025-03-08T15:02:48Z</time>
      </trkpt>
      <trkpt lat="44.43807" lon="1.34094">
        <ele>225.1</ele>
        <time>2025-03-08T15:02:49Z</time>
      </trkpt>
      <trkpt lat="44.43806" lon="1.34094">
        <ele>225.2</ele>
        <time>2025-03-08T15:02:50Z</time>
      </trkpt>
      <trkpt lat="44.43805" lon="1.34094">
        <ele>225.2</ele>
        <time>2025-03-08T15:02:51Z</time>
      </trkpt>
      <trkpt lat="44.43804" lon="1.34093">
        <ele>225.2</ele>
        <time>2025-03-08T15:02:52Z</time>
      </trkpt>
      <trkpt lat="44.43803" lon="1.34093">
        <ele>225.3</ele>
        <time>2025-03-08T15:02:53Z</time>
      </trkpt>
      <trkpt lat="44.43802" lon="1.34093">
        <ele>225.3</ele>
        <time>2025-03-08T15:02:54Z</time>
      </trkpt>
      <trkpt lat="44.43802" lon="1.34093">
        <ele>225.3</ele>
        <time>2025-03-08T15:02:55Z</time>
      </trkpt>
      <trkpt lat="44.43801" lon="1.34094">
        <ele>225.3</ele>
        <time>2025-03-08T15:02:56Z</time>
      </trkpt>
      <trkpt lat="44.43801" lon="1.34095">
        <ele>225.3</ele>
        <time>2025-03-08T15:02:57Z</time>
      </trkpt>
      <trkpt lat="44.43801" lon="1.34095">
        <ele>225.3</ele>
        <time>2025-03-08T15:02:58Z</time>
      </trkpt>
      <trkpt lat="44.43801" lon="1.34095">
        <ele>225.3</ele>
        <time>2025-03-08T15:02:59Z</time>
      </trkpt>
      <trkpt lat="44.43802" lon="1.34095">
        <ele>225.3</ele>
        <time>2025-03-08T15:03:00Z</time>
      </trkpt>
      <trkpt lat="44.43803" lon="1.34095">
        <ele>225.4</ele>
        <time>2025-03-08T15:03:01Z</time>
      </trkpt>
      <trkpt lat="44.43804" lon="1.34096">
        <ele>225.4</ele>
        <time>2025-03-08T15:03:02Z</time>
      </trkpt>
      <trkpt lat="44.43804" lon="1.34095">
        <ele>225.4</ele>
        <time>2025-03-08T15:03:03Z</time>
      </trkpt>
      <trkpt lat="44.43804" lon="1.34095">
        <ele>225.5</ele>
        <time>2025-03-08T15:03:04Z</time>
      </trkpt>
      <trkpt lat="44.43804" lon="1.34094">
        <ele>225.5</ele>
        <time>2025-03-08T15:03:05Z</time>
      </trkpt>
      <trkpt lat="44.43803" lon="1.34093">
        <ele>225.5</ele>
        <time>2025-03-08T15:03:06Z</time>
      </trkpt>
      <trkpt lat="44.43804" lon="1.34094">
        <ele>225.5</ele>
        <time>2025-03-08T15:03:07Z</time>
      </trkpt>
      <trkpt lat="44.43803" lon="1.34094">
        <ele>225.5</ele>
        <time>2025-03-08T15:03:08Z</time>
      </trkpt>
      <trkpt lat="44.43803" lon="1.34096">
        <ele>225.6</ele>
        <time>2025-03-08T15:03:09Z</time>
      </trkpt>
      <trkpt lat="44.43803" lon="1.34097">
        <ele>225.6</ele>
        <time>2025-03-08T15:03:10Z</time>
      </trkpt>
      <trkpt lat="44.43802" lon="1.34097">
        <ele>225.6</ele>
        <time>2025-03-08T15:03:11Z</time>
      </trkpt>
      <trkpt lat="44.43801" lon="1.34097">
        <ele>225.7</ele>
        <time>2025-03-08T15:03:12Z</time>
      </trkpt>
      <trkpt lat="44.438" lon="1.34098">
        <ele>225.7</ele>
        <time>2025-03-08T15:03:13Z</time>
      </trkpt>
      <trkpt lat="44.438" lon="1.34099">
        <ele>225.7</ele>
        <time>2025-03-08T15:03:14Z</time>
      </trkpt>
      <trkpt lat="44.438" lon="1.34099">
        <ele>225.7</ele>
        <time>2025-03-08T15:03:15Z</time>
      </trkpt>
      <trkpt lat="44.438" lon="1.34098">
        <ele>225.7</ele>
        <time>2025-03-08T15:03:16Z</time>
      </trkpt>
      <trkpt lat="44.43799" lon="1.34098">
        <ele>225.7</ele>
        <time>2025-03-08T15:03:17Z</time>
      </trkpt>
      <trkpt lat="44.43799" lon="1.34099">
        <ele>225.8</ele>
        <time>2025-03-08T15:03:18Z</time>
      </trkpt>
      <trkpt lat="44.43798" lon="1.341">
        <ele>225.8</ele>
        <time>2025-03-08T15:03:19Z</time>
      </trkpt>
      <trkpt lat="44.43797" lon="1.341">
        <ele>225.8</ele>
        <time>2025-03-08T15:03:20Z</time>
      </trkpt>
      <trkpt lat="44.43797" lon="1.34101">
        <ele>225.8</ele>
        <time>2025-03-08T15:03:21Z</time>
      </trkpt>
      <trkpt lat="44.43797" lon="1.34101">
        <ele>225.8</ele>
        <time>2025-03-08T15:03:22Z</time>
      </trkpt>
      <trkpt lat="44.43797" lon="1.34101">
        <ele>225.9</ele>
        <time>2025-03-08T15:03:23Z</time>
      </trkpt>
      <trkpt lat="44.43797" lon="1.34101">
        <ele>225.9</ele>
        <time>2025-03-08T15:03:24Z</time>
      </trkpt>
      <trkpt lat="44.43796" lon="1.34101">
        <ele>225.9</ele>
        <time>2025-03-08T15:03:25Z</time>
      </trkpt>
      <trkpt lat="44.43796" lon="1.34101">
        <ele>225.9</ele>
        <time>2025-03-08T15:03:26Z</time>
      </trkpt>
      <trkpt lat="44.43796" lon="1.34101">
        <ele>225.9</ele>
        <time>2025-03-08T15:03:27Z</time>
      </trkpt>
      <trkpt lat="44.43796" lon="1.34101">
        <ele>225.9</ele>
        <time>2025-03-08T15:03:28Z</time>
      </trkpt>
      <trkpt lat="44.43795" lon="1.341">
        <ele>225.9</ele>
        <time>2025-03-08T15:03:29Z</time>
      </trkpt>
      <trkpt lat="44.43795" lon="1.341">
        <ele>225.9</ele>
        <time>2025-03-08T15:03:30Z</time>
      </trkpt>
      <trkpt lat="44.43795" lon="1.341">
        <ele>225.9</ele>
        <time>2025-03-08T15:03:31Z</time>
      </trkpt>
      <trkpt lat="44.43795" lon="1.341">
        <ele>225.9</ele>
        <time>2025-03-08T15:03:32Z</time>
      </trkpt>
      <trkpt lat="44.43795" lon="1.341">
        <ele>225.9</ele>
        <time>2025-03-08T15:03:33Z</time>
      </trkpt>
      <trkpt lat="44.43794" lon="1.341">
        <ele>225.9</ele>
        <time>2025-03-08T15:03:34Z</time>
      </trkpt>
      <trkpt lat="44.43794" lon="1.341">
        <ele>225.9</ele>
        <time>2025-03-08T15:03:35Z</time>
      </trkpt>
      <trkpt lat="44.43794" lon="1.341">
        <ele>226</ele>
        <time>2025-03-08T15:03:36Z</time>
      </trkpt>
      <trkpt lat="44.43794" lon="1.341">
        <ele>226</ele>
        <time>2025-03-08T15:03:37Z</time>
      </trkpt>
      <trkpt lat="44.43793" lon="1.34099">
        <ele>226</ele>
        <time>2025-03-08T15:03:38Z</time>
      </trkpt>
      <trkpt lat="44.43791" lon="1.34099">
        <ele>226.1</ele>
        <time>2025-03-08T15:03:39Z</time>
      </trkpt>
      <trkpt lat="44.4379" lon="1.34099">
        <ele>226.1</ele>
        <time>2025-03-08T15:03:40Z</time>
      </trkpt>
      <trkpt lat="44.4379" lon="1.341">
        <ele>226.1</ele>
        <time>2025-03-08T15:03:41Z</time>
      </trkpt>
      <trkpt lat="44.4379" lon="1.34101">
        <ele>226.1</ele>
        <time>2025-03-08T15:03:42Z</time>
      </trkpt>
      <trkpt lat="44.43789" lon="1.34101">
        <ele>226.2</ele>
        <time>2025-03-08T15:03:43Z</time>
      </trkpt>
      <trkpt lat="44.43788" lon="1.34101">
        <ele>226.2</ele>
        <time>2025-03-08T15:03:44Z</time>
      </trkpt>
      <trkpt lat="44.43786" lon="1.34102">
        <ele>226.3</ele>
        <time>2025-03-08T15:03:45Z</time>
      </trkpt>
      <trkpt lat="44.43785" lon="1.34104">
        <ele>226.4</ele>
        <time>2025-03-08T15:03:46Z</time>
      </trkpt>
      <trkpt lat="44.43785" lon="1.34106">
        <ele>226.4</ele>
        <time>2025-03-08T15:03:47Z</time>
      </trkpt>
      <trkpt lat="44.43785" lon="1.34108">
        <ele>226.3</ele>
        <time>2025-03-08T15:03:48Z</time>
      </trkpt>
      <trkpt lat="44.43786" lon="1.3411">
        <ele>226.2</ele>
        <time>2025-03-08T15:03:49Z</time>
      </trkpt>
      <trkpt lat="44.43786" lon="1.3411">
        <ele>226.2</ele>
        <time>2025-03-08T15:03:50Z</time>
      </trkpt>
      <trkpt lat="44.43787" lon="1.3411">
        <ele>226.2</ele>
        <time>2025-03-08T15:03:51Z</time>
      </trkpt>
      <trkpt lat="44.43787" lon="1.3411">
        <ele>226.1</ele>
        <time>2025-03-08T15:03:52Z</time>
      </trkpt>
      <trkpt lat="44.43787" lon="1.34112">
        <ele>226</ele>
        <time>2025-03-08T15:03:53Z</time>
      </trkpt>
      <trkpt lat="44.43788" lon="1.34114">
        <ele>225.9</ele>
        <time>2025-03-08T15:03:54Z</time>
      </trkpt>
      <trkpt lat="44.43788" lon="1.34116">
        <ele>225.8</ele>
        <time>2025-03-08T15:03:55Z</time>
      </trkpt>
      <trkpt lat="44.4379" lon="1.34118">
        <ele>225.7</ele>
        <time>2025-03-08T15:03:56Z</time>
      </trkpt>
      <trkpt lat="44.4379" lon="1.34119">
        <ele>225.6</ele>
        <time>2025-03-08T15:03:57Z</time>
      </trkpt>
      <trkpt lat="44.43791" lon="1.3412">
        <ele>225.6</ele>
        <time>2025-03-08T15:03:58Z</time>
      </trkpt>
      <trkpt lat="44.43792" lon="1.34121">
        <ele>225.5</ele>
        <time>2025-03-08T15:03:59Z</time>
      </trkpt>
      <trkpt lat="44.43794" lon="1.34122">
        <ele>225.4</ele>
        <time>2025-03-08T15:04:00Z</time>
      </trkpt>
      <trkpt lat="44.43796" lon="1.34122">
        <ele>225.3</ele>
        <time>2025-03-08T15:04:01Z</time>
      </trkpt>
      <trkpt lat="44.43797" lon="1.34123">
        <ele>225.2</ele>
        <time>2025-03-08T15:04:02Z</time>
      </trkpt>
      <trkpt lat="44.43799" lon="1.34123">
        <ele>225.1</ele>
        <time>2025-03-08T15:04:03Z</time>
      </trkpt>
      <trkpt lat="44.438" lon="1.34124">
        <ele>225.1</ele>
        <time>2025-03-08T15:04:04Z</time>
      </trkpt>
      <trkpt lat="44.43802" lon="1.34124">
        <ele>225</ele>
        <time>2025-03-08T15:04:05Z</time>
      </trkpt>
      <trkpt lat="44.43803" lon="1.34125">
        <ele>225</ele>
        <time>2025-03-08T15:04:06Z</time>
      </trkpt>
      <trkpt lat="44.43804" lon="1.34125">
        <ele>224.9</ele>
        <time>2025-03-08T15:04:07Z</time>
      </trkpt>
      <trkpt lat="44.43806" lon="1.34126">
        <ele>224.8</ele>
        <time>2025-03-08T15:04:08Z</time>
      </trkpt>
      <trkpt lat="44.43807" lon="1.34126">
        <ele>224.8</ele>
        <time>2025-03-08T15:04:09Z</time>
      </trkpt>
      <trkpt lat="44.43808" lon="1.34127">
        <ele>224.7</ele>
        <time>2025-03-08T15:04:10Z</time>
      </trkpt>
      <trkpt lat="44.43809" lon="1.34128">
        <ele>224.7</ele>
        <time>2025-03-08T15:04:11Z</time>
      </trkpt>
      <trkpt lat="44.43811" lon="1.34128">
        <ele>224.6</ele>
        <time>2025-03-08T15:04:12Z</time>
      </trkpt>
      <trkpt lat="44.43812" lon="1.34129">
        <ele>224.6</ele>
        <time>2025-03-08T15:04:13Z</time>
      </trkpt>
      <trkpt lat="44.43813" lon="1.3413">
        <ele>224.5</ele>
        <time>2025-03-08T15:04:14Z</time>
      </trkpt>
      <trkpt lat="44.43815" lon="1.34131">
        <ele>224.5</ele>
        <time>2025-03-08T15:04:15Z</time>
      </trkpt>
      <trkpt lat="44.43816" lon="1.34132">
        <ele>224.4</ele>
        <time>2025-03-08T15:04:16Z</time>
      </trkpt>
      <trkpt lat="44.43818" lon="1.34132">
        <ele>224.3</ele>
        <time>2025-03-08T15:04:17Z</time>
      </trkpt>
      <trkpt lat="44.4382" lon="1.34133">
        <ele>224.3</ele>
        <time>2025-03-08T15:04:18Z</time>
      </trkpt>
      <trkpt lat="44.43821" lon="1.34134">
        <ele>224.2</ele>
        <time>2025-03-08T15:04:19Z</time>
      </trkpt>
      <trkpt lat="44.43822" lon="1.34134">
        <ele>224.2</ele>
        <time>2025-03-08T15:04:20Z</time>
      </trkpt>
      <trkpt lat="44.43822" lon="1.34134">
        <ele>224.1</ele>
        <time>2025-03-08T15:04:21Z</time>
      </trkpt>
      <trkpt lat="44.43822" lon="1.34135">
        <ele>224.1</ele>
        <time>2025-03-08T15:04:22Z</time>
      </trkpt>
      <trkpt lat="44.43823" lon="1.34136">
        <ele>224.1</ele>
        <time>2025-03-08T15:04:23Z</time>
      </trkpt>
      <trkpt lat="44.43825" lon="1.34136">
        <ele>224</ele>
        <time>2025-03-08T15:04:24Z</time>
      </trkpt>
      <trkpt lat="44.43827" lon="1.34137">
        <ele>223.9</ele>
        <time>2025-03-08T15:04:25Z</time>
      </trkpt>
      <trkpt lat="44.43828" lon="1.34138">
        <ele>223.8</ele>
        <time>2025-03-08T15:04:26Z</time>
      </trkpt>
      <trkpt lat="44.43831" lon="1.34139">
        <ele>223.7</ele>
        <time>2025-03-08T15:04:27Z</time>
      </trkpt>
      <trkpt lat="44.43832" lon="1.34139">
        <ele>223.6</ele>
        <time>2025-03-08T15:04:28Z</time>
      </trkpt>
      <trkpt lat="44.43835" lon="1.34141">
        <ele>223.5</ele>
        <time>2025-03-08T15:04:29Z</time>
      </trkpt>
      <trkpt lat="44.43836" lon="1.34141">
        <ele>223.4</ele>
        <time>2025-03-08T15:04:30Z</time>
      </trkpt>
      <trkpt lat="44.43837" lon="1.34142">
        <ele>223.3</ele>
        <time>2025-03-08T15:04:31Z</time>
      </trkpt>
      <trkpt lat="44.43838" lon="1.34142">
        <ele>223.3</ele>
        <time>2025-03-08T15:04:32Z</time>
      </trkpt>
      <trkpt lat="44.4384" lon="1.34142">
        <ele>223.1</ele>
        <time>2025-03-08T15:04:33Z</time>
      </trkpt>
      <trkpt lat="44.43841" lon="1.34142">
        <ele>223.1</ele>
        <time>2025-03-08T15:04:34Z</time>
      </trkpt>
      <trkpt lat="44.43842" lon="1.34142">
        <ele>223</ele>
        <time>2025-03-08T15:04:35Z</time>
      </trkpt>
      <trkpt lat="44.43845" lon="1.34144">
        <ele>222.8</ele>
        <time>2025-03-08T15:04:36Z</time>
      </trkpt>
      <trkpt lat="44.43846" lon="1.34144">
        <ele>222.7</ele>
        <time>2025-03-08T15:04:37Z</time>
      </trkpt>
      <trkpt lat="44.43847" lon="1.34145">
        <ele>222.6</ele>
        <time>2025-03-08T15:04:38Z</time>
      </trkpt>
      <trkpt lat="44.43848" lon="1.34145">
        <ele>222.5</ele>
        <time>2025-03-08T15:04:39Z</time>
      </trkpt>
      <trkpt lat="44.43849" lon="1.34145">
        <ele>222.5</ele>
        <time>2025-03-08T15:04:40Z</time>
      </trkpt>
      <trkpt lat="44.43849" lon="1.34144">
        <ele>222.4</ele>
        <time>2025-03-08T15:04:41Z</time>
      </trkpt>
      <trkpt lat="44.4385" lon="1.34143">
        <ele>222.4</ele>
        <time>2025-03-08T15:04:42Z</time>
      </trkpt>
      <trkpt lat="44.4385" lon="1.34142">
        <ele>222.3</ele>
        <time>2025-03-08T15:04:43Z</time>
      </trkpt>
      <trkpt lat="44.4385" lon="1.34143">
        <ele>222.3</ele>
        <time>2025-03-08T15:04:44Z</time>
      </trkpt>
      <trkpt lat="44.4385" lon="1.34144">
        <ele>222.2</ele>
        <time>2025-03-08T15:04:45Z</time>
      </trkpt>
      <trkpt lat="44.43851" lon="1.34146">
        <ele>222.1</ele>
        <time>2025-03-08T15:04:46Z</time>
      </trkpt>
      <trkpt lat="44.43851" lon="1.34146">
        <ele>222.1</ele>
        <time>2025-03-08T15:04:47Z</time>
      </trkpt>
      <trkpt lat="44.43852" lon="1.34146">
        <ele>222</ele>
        <time>2025-03-08T15:04:48Z</time>
      </trkpt>
      <trkpt lat="44.43853" lon="1.34146">
        <ele>221.9</ele>
        <time>2025-03-08T15:04:49Z</time>
      </trkpt>
      <trkpt lat="44.43855" lon="1.34147">
        <ele>221.8</ele>
        <time>2025-03-08T15:04:50Z</time>
      </trkpt>
      <trkpt lat="44.43859" lon="1.34147">
        <ele>221.5</ele>
        <time>2025-03-08T15:04:51Z</time>
      </trkpt>
      <trkpt lat="44.4386" lon="1.34148">
        <ele>221.4</ele>
        <time>2025-03-08T15:04:52Z</time>
      </trkpt>
      <trkpt lat="44.43863" lon="1.34149">
        <ele>221.1</ele>
        <time>2025-03-08T15:04:53Z</time>
      </trkpt>
      <trkpt lat="44.43864" lon="1.34149">
        <ele>221</ele>
        <time>2025-03-08T15:04:54Z</time>
      </trkpt>
      <trkpt lat="44.43866" lon="1.3415">
        <ele>220.9</ele>
        <time>2025-03-08T15:04:55Z</time>
      </trkpt>
      <trkpt lat="44.43868" lon="1.3415">
        <ele>220.8</ele>
        <time>2025-03-08T15:04:56Z</time>
      </trkpt>
      <trkpt lat="44.4387" lon="1.34152">
        <ele>220.5</ele>
        <time>2025-03-08T15:04:57Z</time>
      </trkpt>
      <trkpt lat="44.43871" lon="1.34152">
        <ele>220.5</ele>
        <time>2025-03-08T15:04:58Z</time>
      </trkpt>
      <trkpt lat="44.43874" lon="1.34153">
        <ele>220.2</ele>
        <time>2025-03-08T15:04:59Z</time>
      </trkpt>
      <trkpt lat="44.43877" lon="1.34154">
        <ele>220</ele>
        <time>2025-03-08T15:05:00Z</time>
      </trkpt>
      <trkpt lat="44.4388" lon="1.34154">
        <ele>219.8</ele>
        <time>2025-03-08T15:05:01Z</time>
      </trkpt>
      <trkpt lat="44.43884" lon="1.34155">
        <ele>219.5</ele>
        <time>2025-03-08T15:05:02Z</time>
      </trkpt>
      <trkpt lat="44.43886" lon="1.34156">
        <ele>219.3</ele>
        <time>2025-03-08T15:05:03Z</time>
      </trkpt>
      <trkpt lat="44.4389" lon="1.34157">
        <ele>219</ele>
        <time>2025-03-08T15:05:04Z</time>
      </trkpt>
      <trkpt lat="44.43893" lon="1.34158">
        <ele>218.7</ele>
        <time>2025-03-08T15:05:05Z</time>
      </trkpt>
      <trkpt lat="44.43896" lon="1.34159">
        <ele>218.4</ele>
        <time>2025-03-08T15:05:06Z</time>
      </trkpt>
      <trkpt lat="44.43899" lon="1.3416">
        <ele>218.2</ele>
        <time>2025-03-08T15:05:07Z</time>
      </trkpt>
      <trkpt lat="44.43903" lon="1.34161">
        <ele>217.9</ele>
        <time>2025-03-08T15:05:08Z</time>
      </trkpt>
      <trkpt lat="44.43904" lon="1.34161">
        <ele>217.8</ele>
        <time>2025-03-08T15:05:09Z</time>
      </trkpt>
      <trkpt lat="44.43906" lon="1.34163">
        <ele>217.5</ele>
        <time>2025-03-08T15:05:10Z</time>
      </trkpt>
      <trkpt lat="44.43907" lon="1.34164">
        <ele>217.4</ele>
        <time>2025-03-08T15:05:11Z</time>
      </trkpt>
      <trkpt lat="44.4391" lon="1.34166">
        <ele>217.1</ele>
        <time>2025-03-08T15:05:12Z</time>
      </trkpt>
      <trkpt lat="44.43911" lon="1.34166">
        <ele>217.1</ele>
        <time>2025-03-08T15:05:13Z</time>
      </trkpt>
      <trkpt lat="44.43913" lon="1.3417">
        <ele>216.8</ele>
        <time>2025-03-08T15:05:14Z</time>
      </trkpt>
      <trkpt lat="44.43914" lon="1.34171">
        <ele>216.7</ele>
        <time>2025-03-08T15:05:15Z</time>
      </trkpt>
      <trkpt lat="44.43916" lon="1.34175">
        <ele>216.4</ele>
        <time>2025-03-08T15:05:16Z</time>
      </trkpt>
      <trkpt lat="44.43918" lon="1.34179">
        <ele>216.1</ele>
        <time>2025-03-08T15:05:17Z</time>
      </trkpt>
      <trkpt lat="44.43918" lon="1.34185">
        <ele>215.8</ele>
        <time>2025-03-08T15:05:18Z</time>
      </trkpt>
      <trkpt lat="44.43918" lon="1.34186">
        <ele>215.7</ele>
        <time>2025-03-08T15:05:19Z</time>
      </trkpt>
      <trkpt lat="44.43918" lon="1.34191">
        <ele>215.4</ele>
        <time>2025-03-08T15:05:20Z</time>
      </trkpt>
      <trkpt lat="44.43918" lon="1.34193">
        <ele>215.4</ele>
        <time>2025-03-08T15:05:21Z</time>
      </trkpt>
      <trkpt lat="44.43919" lon="1.34195">
        <ele>215.2</ele>
        <time>2025-03-08T15:05:22Z</time>
      </trkpt>
      <trkpt lat="44.43919" lon="1.34196">
        <ele>215.1</ele>
        <time>2025-03-08T15:05:23Z</time>
      </trkpt>
      <trkpt lat="44.43919" lon="1.34197">
        <ele>215.1</ele>
        <time>2025-03-08T15:05:24Z</time>
      </trkpt>
      <trkpt lat="44.43919" lon="1.34197">
        <ele>215.1</ele>
        <time>2025-03-08T15:05:25Z</time>
      </trkpt>
      <trkpt lat="44.4392" lon="1.34197">
        <ele>215.1</ele>
        <time>2025-03-08T15:05:26Z</time>
      </trkpt>
      <trkpt lat="44.4392" lon="1.34197">
        <ele>215</ele>
        <time>2025-03-08T15:05:27Z</time>
      </trkpt>
      <trkpt lat="44.4392" lon="1.34197">
        <ele>215</ele>
        <time>2025-03-08T15:05:28Z</time>
      </trkpt>
      <trkpt lat="44.43919" lon="1.34196">
        <ele>215</ele>
        <time>2025-03-08T15:05:29Z</time>
      </trkpt>
      <trkpt lat="44.43919" lon="1.34196">
        <ele>215</ele>
        <time>2025-03-08T15:05:30Z</time>
      </trkpt>
      <trkpt lat="44.43918" lon="1.34195">
        <ele>214.9</ele>
        <time>2025-03-08T15:05:31Z</time>
      </trkpt>
      <trkpt lat="44.43918" lon="1.34197">
        <ele>214.8</ele>
        <time>2025-03-08T15:05:32Z</time>
      </trkpt>
      <trkpt lat="44.43918" lon="1.34199">
        <ele>214.7</ele>
        <time>2025-03-08T15:05:33Z</time>
      </trkpt>
      <trkpt lat="44.43918" lon="1.34201">
        <ele>214.5</ele>
        <time>2025-03-08T15:05:34Z</time>
      </trkpt>
      <trkpt lat="44.4392" lon="1.34204">
        <ele>214.3</ele>
        <time>2025-03-08T15:05:35Z</time>
      </trkpt>
      <trkpt lat="44.43921" lon="1.34206">
        <ele>214.3</ele>
        <time>2025-03-08T15:05:36Z</time>
      </trkpt>
      <trkpt lat="44.43922" lon="1.34209">
        <ele>214</ele>
        <time>2025-03-08T15:05:37Z</time>
      </trkpt>
      <trkpt lat="44.43923" lon="1.3421">
        <ele>214</ele>
        <time>2025-03-08T15:05:38Z</time>
      </trkpt>
      <trkpt lat="44.43925" lon="1.34214">
        <ele>213.7</ele>
        <time>2025-03-08T15:05:39Z</time>
      </trkpt>
      <trkpt lat="44.43926" lon="1.34215">
        <ele>213.7</ele>
        <time>2025-03-08T15:05:40Z</time>
      </trkpt>
      <trkpt lat="44.43928" lon="1.34218">
        <ele>213.5</ele>
        <time>2025-03-08T15:05:41Z</time>
      </trkpt>
      <trkpt lat="44.43928" lon="1.34219">
        <ele>213.4</ele>
        <time>2025-03-08T15:05:42Z</time>
      </trkpt>
      <trkpt lat="44.4393" lon="1.3422">
        <ele>213.3</ele>
        <time>2025-03-08T15:05:43Z</time>
      </trkpt>
      <trkpt lat="44.43931" lon="1.34222">
        <ele>213.2</ele>
        <time>2025-03-08T15:05:44Z</time>
      </trkpt>
      <trkpt lat="44.43933" lon="1.34225">
        <ele>213</ele>
        <time>2025-03-08T15:05:45Z</time>
      </trkpt>
      <trkpt lat="44.43933" lon="1.34225">
        <ele>212.9</ele>
        <time>2025-03-08T15:05:46Z</time>
      </trkpt>
      <trkpt lat="44.43934" lon="1.34226">
        <ele>212.9</ele>
        <time>2025-03-08T15:05:47Z</time>
      </trkpt>
      <trkpt lat="44.43936" lon="1.3423">
        <ele>212.7</ele>
        <time>2025-03-08T15:05:48Z</time>
      </trkpt>
      <trkpt lat="44.43936" lon="1.34231">
        <ele>212.6</ele>
        <time>2025-03-08T15:05:49Z</time>
      </trkpt>
      <trkpt lat="44.43938" lon="1.34235">
        <ele>212.4</ele>
        <time>2025-03-08T15:05:50Z</time>
      </trkpt>
      <trkpt lat="44.43938" lon="1.34236">
        <ele>212.3</ele>
        <time>2025-03-08T15:05:51Z</time>
      </trkpt>
      <trkpt lat="44.4394" lon="1.34241">
        <ele>212.1</ele>
        <time>2025-03-08T15:05:52Z</time>
      </trkpt>
      <trkpt lat="44.43941" lon="1.34242">
        <ele>212</ele>
        <time>2025-03-08T15:05:53Z</time>
      </trkpt>
      <trkpt lat="44.43942" lon="1.34246">
        <ele>211.8</ele>
        <time>2025-03-08T15:05:54Z</time>
      </trkpt>
      <trkpt lat="44.43942" lon="1.34248">
        <ele>211.7</ele>
        <time>2025-03-08T15:05:55Z</time>
      </trkpt>
      <trkpt lat="44.43943" lon="1.34252">
        <ele>211.4</ele>
        <time>2025-03-08T15:05:56Z</time>
      </trkpt>
      <trkpt lat="44.43943" lon="1.34254">
        <ele>211.4</ele>
        <time>2025-03-08T15:05:57Z</time>
      </trkpt>
      <trkpt lat="44.43944" lon="1.34259">
        <ele>211.1</ele>
        <time>2025-03-08T15:05:58Z</time>
      </trkpt>
      <trkpt lat="44.43944" lon="1.34261">
        <ele>211</ele>
        <time>2025-03-08T15:05:59Z</time>
      </trkpt>
      <trkpt lat="44.43946" lon="1.34266">
        <ele>210.7</ele>
        <time>2025-03-08T15:06:00Z</time>
      </trkpt>
      <trkpt lat="44.43947" lon="1.34271">
        <ele>210.4</ele>
        <time>2025-03-08T15:06:01Z</time>
      </trkpt>
      <trkpt lat="44.43948" lon="1.34275">
        <ele>210.2</ele>
        <time>2025-03-08T15:06:02Z</time>
      </trkpt>
      <trkpt lat="44.43949" lon="1.3428">
        <ele>209.9</ele>
        <time>2025-03-08T15:06:03Z</time>
      </trkpt>
      <trkpt lat="44.43951" lon="1.34284">
        <ele>209.6</ele>
        <time>2025-03-08T15:06:04Z</time>
      </trkpt>
      <trkpt lat="44.43953" lon="1.34289">
        <ele>209.3</ele>
        <time>2025-03-08T15:06:05Z</time>
      </trkpt>
      <trkpt lat="44.43955" lon="1.34293">
        <ele>209</ele>
        <time>2025-03-08T15:06:06Z</time>
      </trkpt>
      <trkpt lat="44.43958" lon="1.34297">
        <ele>208.7</ele>
        <time>2025-03-08T15:06:07Z</time>
      </trkpt>
      <trkpt lat="44.43961" lon="1.34299">
        <ele>208.4</ele>
        <time>2025-03-08T15:06:08Z</time>
      </trkpt>
      <trkpt lat="44.43963" lon="1.34302">
        <ele>208.2</ele>
        <time>2025-03-08T15:06:09Z</time>
      </trkpt>
      <trkpt lat="44.43965" lon="1.34305">
        <ele>207.9</ele>
        <time>2025-03-08T15:06:10Z</time>
      </trkpt>
      <trkpt lat="44.43967" lon="1.34308">
        <ele>207.7</ele>
        <time>2025-03-08T15:06:11Z</time>
      </trkpt>
      <trkpt lat="44.43969" lon="1.34311">
        <ele>207.5</ele>
        <time>2025-03-08T15:06:12Z</time>
      </trkpt>
      <trkpt lat="44.43971" lon="1.34315">
        <ele>207.3</ele>
        <time>2025-03-08T15:06:13Z</time>
      </trkpt>
      <trkpt lat="44.43972" lon="1.34317">
        <ele>207.2</ele>
        <time>2025-03-08T15:06:14Z</time>
      </trkpt>
      <trkpt lat="44.43975" lon="1.3432">
        <ele>207</ele>
        <time>2025-03-08T15:06:15Z</time>
      </trkpt>
      <trkpt lat="44.43977" lon="1.34323">
        <ele>206.9</ele>
        <time>2025-03-08T15:06:16Z</time>
      </trkpt>
      <trkpt lat="44.4398" lon="1.34326">
        <ele>206.7</ele>
        <time>2025-03-08T15:06:17Z</time>
      </trkpt>
      <trkpt lat="44.43983" lon="1.34329">
        <ele>206.5</ele>
        <time>2025-03-08T15:06:18Z</time>
      </trkpt>
      <trkpt lat="44.43985" lon="1.34333">
        <ele>206.3</ele>
        <time>2025-03-08T15:06:19Z</time>
      </trkpt>
      <trkpt lat="44.43986" lon="1.34334">
        <ele>206.3</ele>
        <time>2025-03-08T15:06:20Z</time>
      </trkpt>
      <trkpt lat="44.43988" lon="1.34336">
        <ele>206.2</ele>
        <time>2025-03-08T15:06:21Z</time>
      </trkpt>
      <trkpt lat="44.43988" lon="1.34336">
        <ele>206.1</ele>
        <time>2025-03-08T15:06:22Z</time>
      </trkpt>
      <trkpt lat="44.43989" lon="1.34338">
        <ele>206</ele>
        <time>2025-03-08T15:06:23Z</time>
      </trkpt>
      <trkpt lat="44.4399" lon="1.34339">
        <ele>206</ele>
        <time>2025-03-08T15:06:24Z</time>
      </trkpt>
      <trkpt lat="44.4399" lon="1.3434">
        <ele>206</ele>
        <time>2025-03-08T15:06:25Z</time>
      </trkpt>
      <trkpt lat="44.43991" lon="1.34341">
        <ele>205.9</ele>
        <time>2025-03-08T15:06:26Z</time>
      </trkpt>
      <trkpt lat="44.43991" lon="1.34342">
        <ele>205.9</ele>
        <time>2025-03-08T15:06:27Z</time>
      </trkpt>
      <trkpt lat="44.43992" lon="1.34343">
        <ele>205.8</ele>
        <time>2025-03-08T15:06:28Z</time>
      </trkpt>
      <trkpt lat="44.43993" lon="1.34345">
        <ele>205.8</ele>
        <time>2025-03-08T15:06:29Z</time>
      </trkpt>
      <trkpt lat="44.43994" lon="1.34346">
        <ele>205.7</ele>
        <time>2025-03-08T15:06:30Z</time>
      </trkpt>
      <trkpt lat="44.43995" lon="1.34347">
        <ele>205.6</ele>
        <time>2025-03-08T15:06:31Z</time>
      </trkpt>
      <trkpt lat="44.43996" lon="1.34348">
        <ele>205.6</ele>
        <time>2025-03-08T15:06:32Z</time>
      </trkpt>
      <trkpt lat="44.43998" lon="1.34351">
        <ele>205.4</ele>
        <time>2025-03-08T15:06:33Z</time>
      </trkpt>
      <trkpt lat="44.43999" lon="1.34352">
        <ele>205.4</ele>
        <time>2025-03-08T15:06:34Z</time>
      </trkpt>
      <trkpt lat="44.44" lon="1.34353">
        <ele>205.3</ele>
        <time>2025-03-08T15:06:35Z</time>
      </trkpt>
      <trkpt lat="44.44001" lon="1.34355">
        <ele>205.2</ele>
        <time>2025-03-08T15:06:36Z</time>
      </trkpt>
      <trkpt lat="44.44002" lon="1.34357">
        <ele>205.1</ele>
        <time>2025-03-08T15:06:37Z</time>
      </trkpt>
      <trkpt lat="44.44004" lon="1.34358">
        <ele>205.1</ele>
        <time>2025-03-08T15:06:38Z</time>
      </trkpt>
      <trkpt lat="44.44006" lon="1.34362">
        <ele>204.9</ele>
        <time>2025-03-08T15:06:39Z</time>
      </trkpt>
      <trkpt lat="44.44007" lon="1.34363">
        <ele>204.8</ele>
        <time>2025-03-08T15:06:40Z</time>
      </trkpt>
      <trkpt lat="44.44008" lon="1.34365">
        <ele>204.8</ele>
        <time>2025-03-08T15:06:41Z</time>
      </trkpt>
      <trkpt lat="44.44009" lon="1.34366">
        <ele>204.7</ele>
        <time>2025-03-08T15:06:42Z</time>
      </trkpt>
      <trkpt lat="44.44011" lon="1.34369">
        <ele>204.6</ele>
        <time>2025-03-08T15:06:43Z</time>
      </trkpt>
      <trkpt lat="44.44012" lon="1.3437">
        <ele>204.5</ele>
        <time>2025-03-08T15:06:44Z</time>
      </trkpt>
      <trkpt lat="44.44015" lon="1.34374">
        <ele>204.3</ele>
        <time>2025-03-08T15:06:45Z</time>
      </trkpt>
      <trkpt lat="44.44016" lon="1.34375">
        <ele>204.3</ele>
        <time>2025-03-08T15:06:46Z</time>
      </trkpt>
      <trkpt lat="44.44019" lon="1.34377">
        <ele>204.2</ele>
        <time>2025-03-08T15:06:47Z</time>
      </trkpt>
      <trkpt lat="44.44021" lon="1.3438">
        <ele>204</ele>
        <time>2025-03-08T15:06:48Z</time>
      </trkpt>
      <trkpt lat="44.44023" lon="1.34384">
        <ele>203.9</ele>
        <time>2025-03-08T15:06:49Z</time>
      </trkpt>
      <trkpt lat="44.44026" lon="1.34387">
        <ele>203.8</ele>
        <time>2025-03-08T15:06:50Z</time>
      </trkpt>
      <trkpt lat="44.44028" lon="1.3439">
        <ele>203.7</ele>
        <time>2025-03-08T15:06:51Z</time>
      </trkpt>
      <trkpt lat="44.44031" lon="1.34393">
        <ele>203.5</ele>
        <time>2025-03-08T15:06:52Z</time>
      </trkpt>
      <trkpt lat="44.44034" lon="1.34396">
        <ele>203.4</ele>
        <time>2025-03-08T15:06:53Z</time>
      </trkpt>
      <trkpt lat="44.44036" lon="1.344">
        <ele>203.3</ele>
        <time>2025-03-08T15:06:54Z</time>
      </trkpt>
      <trkpt lat="44.44039" lon="1.34403">
        <ele>203.2</ele>
        <time>2025-03-08T15:06:55Z</time>
      </trkpt>
      <trkpt lat="44.44042" lon="1.34407">
        <ele>203.1</ele>
        <time>2025-03-08T15:06:56Z</time>
      </trkpt>
      <trkpt lat="44.44044" lon="1.34409">
        <ele>202.9</ele>
        <time>2025-03-08T15:06:57Z</time>
      </trkpt>
      <trkpt lat="44.44047" lon="1.34412">
        <ele>202.8</ele>
        <time>2025-03-08T15:06:58Z</time>
      </trkpt>
      <trkpt lat="44.4405" lon="1.34415">
        <ele>202.7</ele>
        <time>2025-03-08T15:06:59Z</time>
      </trkpt>
      <trkpt lat="44.44053" lon="1.34417">
        <ele>202.6</ele>
        <time>2025-03-08T15:07:00Z</time>
      </trkpt>
      <trkpt lat="44.44054" lon="1.3442">
        <ele>202.4</ele>
        <time>2025-03-08T15:07:01Z</time>
      </trkpt>
      <trkpt lat="44.44056" lon="1.34423">
        <ele>202.3</ele>
        <time>2025-03-08T15:07:02Z</time>
      </trkpt>
      <trkpt lat="44.44058" lon="1.34426">
        <ele>202.2</ele>
        <time>2025-03-08T15:07:03Z</time>
      </trkpt>
      <trkpt lat="44.4406" lon="1.3443">
        <ele>202</ele>
        <time>2025-03-08T15:07:04Z</time>
      </trkpt>
      <trkpt lat="44.44061" lon="1.34432">
        <ele>201.9</ele>
        <time>2025-03-08T15:07:05Z</time>
      </trkpt>
      <trkpt lat="44.44064" lon="1.34436">
        <ele>201.7</ele>
        <time>2025-03-08T15:07:06Z</time>
      </trkpt>
      <trkpt lat="44.44065" lon="1.34437">
        <ele>201.7</ele>
        <time>2025-03-08T15:07:07Z</time>
      </trkpt>
      <trkpt lat="44.44066" lon="1.3444">
        <ele>201.5</ele>
        <time>2025-03-08T15:07:08Z</time>
      </trkpt>
      <trkpt lat="44.44069" lon="1.34443">
        <ele>201.3</ele>
        <time>2025-03-08T15:07:09Z</time>
      </trkpt>
      <trkpt lat="44.44072" lon="1.34446">
        <ele>201.1</ele>
        <time>2025-03-08T15:07:10Z</time>
      </trkpt>
      <trkpt lat="44.44075" lon="1.34449">
        <ele>200.9</ele>
        <time>2025-03-08T15:07:11Z</time>
      </trkpt>
      <trkpt lat="44.44077" lon="1.34452">
        <ele>200.7</ele>
        <time>2025-03-08T15:07:12Z</time>
      </trkpt>
      <trkpt lat="44.4408" lon="1.34454">
        <ele>200.6</ele>
        <time>2025-03-08T15:07:13Z</time>
      </trkpt>
      <trkpt lat="44.44083" lon="1.34457">
        <ele>200.4</ele>
        <time>2025-03-08T15:07:14Z</time>
      </trkpt>
      <trkpt lat="44.44086" lon="1.34461">
        <ele>200.2</ele>
        <time>2025-03-08T15:07:15Z</time>
      </trkpt>
      <trkpt lat="44.44088" lon="1.34465">
        <ele>200</ele>
        <time>2025-03-08T15:07:16Z</time>
      </trkpt>
      <trkpt lat="44.44091" lon="1.3447">
        <ele>199.7</ele>
        <time>2025-03-08T15:07:17Z</time>
      </trkpt>
      <trkpt lat="44.44094" lon="1.34475">
        <ele>199.5</ele>
        <time>2025-03-08T15:07:18Z</time>
      </trkpt>
      <trkpt lat="44.44098" lon="1.34479">
        <ele>199.3</ele>
        <time>2025-03-08T15:07:19Z</time>
      </trkpt>
      <trkpt lat="44.44101" lon="1.34482">
        <ele>199.1</ele>
        <time>2025-03-08T15:07:20Z</time>
      </trkpt>
      <trkpt lat="44.44104" lon="1.34485">
        <ele>198.9</ele>
        <time>2025-03-08T15:07:21Z</time>
      </trkpt>
      <trkpt lat="44.44106" lon="1.34487">
        <ele>198.8</ele>
        <time>2025-03-08T15:07:22Z</time>
      </trkpt>
      <trkpt lat="44.44108" lon="1.34491">
        <ele>198.6</ele>
        <time>2025-03-08T15:07:23Z</time>
      </trkpt>
      <trkpt lat="44.4411" lon="1.34494">
        <ele>198.4</ele>
        <time>2025-03-08T15:07:24Z</time>
      </trkpt>
      <trkpt lat="44.44112" lon="1.34498">
        <ele>198.2</ele>
        <time>2025-03-08T15:07:25Z</time>
      </trkpt>
      <trkpt lat="44.44115" lon="1.34502">
        <ele>198</ele>
        <time>2025-03-08T15:07:26Z</time>
      </trkpt>
      <trkpt lat="44.44117" lon="1.34506">
        <ele>197.8</ele>
        <time>2025-03-08T15:07:27Z</time>
      </trkpt>
      <trkpt lat="44.44119" lon="1.3451">
        <ele>197.6</ele>
        <time>2025-03-08T15:07:28Z</time>
      </trkpt>
      <trkpt lat="44.4412" lon="1.34515">
        <ele>197.4</ele>
        <time>2025-03-08T15:07:29Z</time>
      </trkpt>
      <trkpt lat="44.44122" lon="1.34519">
        <ele>197.2</ele>
        <time>2025-03-08T15:07:30Z</time>
      </trkpt>
      <trkpt lat="44.44123" lon="1.34523">
        <ele>197</ele>
        <time>2025-03-08T15:07:31Z</time>
      </trkpt>
      <trkpt lat="44.44126" lon="1.34527">
        <ele>196.7</ele>
        <time>2025-03-08T15:07:32Z</time>
      </trkpt>
      <trkpt lat="44.44128" lon="1.34532">
        <ele>196.5</ele>
        <time>2025-03-08T15:07:33Z</time>
      </trkpt>
      <trkpt lat="44.4413" lon="1.34535">
        <ele>196.3</ele>
        <time>2025-03-08T15:07:34Z</time>
      </trkpt>
      <trkpt lat="44.44132" lon="1.34539">
        <ele>196.1</ele>
        <time>2025-03-08T15:07:35Z</time>
      </trkpt>
      <trkpt lat="44.44135" lon="1.34543">
        <ele>195.9</ele>
        <time>2025-03-08T15:07:36Z</time>
      </trkpt>
      <trkpt lat="44.44137" lon="1.34548">
        <ele>195.7</ele>
        <time>2025-03-08T15:07:37Z</time>
      </trkpt>
      <trkpt lat="44.44139" lon="1.34552">
        <ele>195.5</ele>
        <time>2025-03-08T15:07:38Z</time>
      </trkpt>
      <trkpt lat="44.44141" lon="1.34558">
        <ele>195.3</ele>
        <time>2025-03-08T15:07:39Z</time>
      </trkpt>
      <trkpt lat="44.44142" lon="1.34564">
        <ele>195.1</ele>
        <time>2025-03-08T15:07:40Z</time>
      </trkpt>
      <trkpt lat="44.44143" lon="1.3457">
        <ele>194.9</ele>
        <time>2025-03-08T15:07:41Z</time>
      </trkpt>
      <trkpt lat="44.44144" lon="1.34577">
        <ele>194.6</ele>
        <time>2025-03-08T15:07:42Z</time>
      </trkpt>
      <trkpt lat="44.44146" lon="1.34582">
        <ele>194.4</ele>
        <time>2025-03-08T15:07:43Z</time>
      </trkpt>
      <trkpt lat="44.44148" lon="1.34587">
        <ele>194.2</ele>
        <time>2025-03-08T15:07:44Z</time>
      </trkpt>
      <trkpt lat="44.4415" lon="1.34592">
        <ele>194.1</ele>
        <time>2025-03-08T15:07:45Z</time>
      </trkpt>
      <trkpt lat="44.44152" lon="1.34596">
        <ele>193.9</ele>
        <time>2025-03-08T15:07:46Z</time>
      </trkpt>
      <trkpt lat="44.44155" lon="1.346">
        <ele>193.7</ele>
        <time>2025-03-08T15:07:47Z</time>
      </trkpt>
      <trkpt lat="44.44159" lon="1.34603">
        <ele>193.5</ele>
        <time>2025-03-08T15:07:48Z</time>
      </trkpt>
      <trkpt lat="44.44163" lon="1.34607">
        <ele>193.3</ele>
        <time>2025-03-08T15:07:49Z</time>
      </trkpt>
      <trkpt lat="44.44167" lon="1.3461">
        <ele>193.1</ele>
        <time>2025-03-08T15:07:50Z</time>
      </trkpt>
      <trkpt lat="44.44171" lon="1.34613">
        <ele>192.9</ele>
        <time>2025-03-08T15:07:51Z</time>
      </trkpt>
      <trkpt lat="44.44175" lon="1.34617">
        <ele>192.7</ele>
        <time>2025-03-08T15:07:52Z</time>
      </trkpt>
      <trkpt lat="44.44178" lon="1.3462">
        <ele>192.5</ele>
        <time>2025-03-08T15:07:53Z</time>
      </trkpt>
      <trkpt lat="44.44182" lon="1.34623">
        <ele>192.4</ele>
        <time>2025-03-08T15:07:54Z</time>
      </trkpt>
      <trkpt lat="44.44185" lon="1.34626">
        <ele>192.2</ele>
        <time>2025-03-08T15:07:55Z</time>
      </trkpt>
      <trkpt lat="44.44188" lon="1.34629">
        <ele>192.1</ele>
        <time>2025-03-08T15:07:56Z</time>
      </trkpt>
      <trkpt lat="44.4419" lon="1.34632">
        <ele>192</ele>
        <time>2025-03-08T15:07:57Z</time>
      </trkpt>
      <trkpt lat="44.44193" lon="1.34636">
        <ele>191.8</ele>
        <time>2025-03-08T15:07:58Z</time>
      </trkpt>
      <trkpt lat="44.44196" lon="1.34639">
        <ele>191.7</ele>
        <time>2025-03-08T15:07:59Z</time>
      </trkpt>
      <trkpt lat="44.44199" lon="1.34641">
        <ele>191.5</ele>
        <time>2025-03-08T15:08:00Z</time>
      </trkpt>
      <trkpt lat="44.44202" lon="1.34643">
        <ele>191.3</ele>
        <time>2025-03-08T15:08:01Z</time>
      </trkpt>
      <trkpt lat="44.44206" lon="1.34646">
        <ele>191.1</ele>
        <time>2025-03-08T15:08:02Z</time>
      </trkpt>
      <trkpt lat="44.44209" lon="1.34648">
        <ele>190.9</ele>
        <time>2025-03-08T15:08:03Z</time>
      </trkpt>
      <trkpt lat="44.44213" lon="1.34651">
        <ele>190.7</ele>
        <time>2025-03-08T15:08:04Z</time>
      </trkpt>
      <trkpt lat="44.44218" lon="1.34655">
        <ele>190.4</ele>
        <time>2025-03-08T15:08:05Z</time>
      </trkpt>
      <trkpt lat="44.44223" lon="1.34658">
        <ele>190.2</ele>
        <time>2025-03-08T15:08:06Z</time>
      </trkpt>
      <trkpt lat="44.44226" lon="1.3466">
        <ele>190.1</ele>
        <time>2025-03-08T15:08:07Z</time>
      </trkpt>
      <trkpt lat="44.4423" lon="1.34663">
        <ele>189.9</ele>
        <time>2025-03-08T15:08:08Z</time>
      </trkpt>
      <trkpt lat="44.44234" lon="1.34665">
        <ele>189.8</ele>
        <time>2025-03-08T15:08:09Z</time>
      </trkpt>
      <trkpt lat="44.44238" lon="1.34668">
        <ele>189.6</ele>
        <time>2025-03-08T15:08:10Z</time>
      </trkpt>
      <trkpt lat="44.44243" lon="1.34671">
        <ele>189.5</ele>
        <time>2025-03-08T15:08:11Z</time>
      </trkpt>
      <trkpt lat="44.44247" lon="1.34673">
        <ele>189.3</ele>
        <time>2025-03-08T15:08:12Z</time>
      </trkpt>
      <trkpt lat="44.4425" lon="1.34676">
        <ele>189.2</ele>
        <time>2025-03-08T15:08:13Z</time>
      </trkpt>
      <trkpt lat="44.44254" lon="1.34679">
        <ele>189</ele>
        <time>2025-03-08T15:08:14Z</time>
      </trkpt>
      <trkpt lat="44.44258" lon="1.34683">
        <ele>188.9</ele>
        <time>2025-03-08T15:08:15Z</time>
      </trkpt>
      <trkpt lat="44.44261" lon="1.34686">
        <ele>188.7</ele>
        <time>2025-03-08T15:08:16Z</time>
      </trkpt>
      <trkpt lat="44.44264" lon="1.34688">
        <ele>188.6</ele>
        <time>2025-03-08T15:08:17Z</time>
      </trkpt>
      <trkpt lat="44.44267" lon="1.34691">
        <ele>188.5</ele>
        <time>2025-03-08T15:08:18Z</time>
      </trkpt>
      <trkpt lat="44.4427" lon="1.34693">
        <ele>188.3</ele>
        <time>2025-03-08T15:08:19Z</time>
      </trkpt>
      <trkpt lat="44.44274" lon="1.34695">
        <ele>188.2</ele>
        <time>2025-03-08T15:08:20Z</time>
      </trkpt>
      <trkpt lat="44.44277" lon="1.34697">
        <ele>188</ele>
        <time>2025-03-08T15:08:21Z</time>
      </trkpt>
      <trkpt lat="44.4428" lon="1.347">
        <ele>187.9</ele>
        <time>2025-03-08T15:08:22Z</time>
      </trkpt>
      <trkpt lat="44.44281" lon="1.347">
        <ele>187.8</ele>
        <time>2025-03-08T15:08:23Z</time>
      </trkpt>
      <trkpt lat="44.44284" lon="1.34703">
        <ele>187.7</ele>
        <time>2025-03-08T15:08:24Z</time>
      </trkpt>
      <trkpt lat="44.44285" lon="1.34704">
        <ele>187.6</ele>
        <time>2025-03-08T15:08:25Z</time>
      </trkpt>
      <trkpt lat="44.44288" lon="1.34706">
        <ele>187.5</ele>
        <time>2025-03-08T15:08:26Z</time>
      </trkpt>
      <trkpt lat="44.44291" lon="1.34708">
        <ele>187.4</ele>
        <time>2025-03-08T15:08:27Z</time>
      </trkpt>
      <trkpt lat="44.44294" lon="1.3471">
        <ele>187.2</ele>
        <time>2025-03-08T15:08:28Z</time>
      </trkpt>
      <trkpt lat="44.44296" lon="1.34711">
        <ele>187.2</ele>
        <time>2025-03-08T15:08:29Z</time>
      </trkpt>
      <trkpt lat="44.44296" lon="1.3471">
        <ele>187.2</ele>
        <time>2025-03-08T15:08:30Z</time>
      </trkpt>
      <trkpt lat="44.44295" lon="1.3471">
        <ele>187.2</ele>
        <time>2025-03-08T15:08:31Z</time>
      </trkpt>
      <trkpt lat="44.44295" lon="1.3471">
        <ele>187.2</ele>
        <time>2025-03-08T15:08:32Z</time>
      </trkpt>
      <trkpt lat="44.44295" lon="1.3471">
        <ele>187.2</ele>
        <time>2025-03-08T15:08:33Z</time>
      </trkpt>
      <trkpt lat="44.44295" lon="1.3471">
        <ele>187.2</ele>
        <time>2025-03-08T15:08:34Z</time>
      </trkpt>
      <trkpt lat="44.44295" lon="1.3471">
        <ele>187.2</ele>
        <time>2025-03-08T15:08:35Z</time>
      </trkpt>
      <trkpt lat="44.44295" lon="1.3471">
        <ele>187.2</ele>
        <time>2025-03-08T15:08:36Z</time>
      </trkpt>
      <trkpt lat="44.44295" lon="1.3471">
        <ele>187.2</ele>
        <time>2025-03-08T15:08:37Z</time>
      </trkpt>
      <trkpt lat="44.44295" lon="1.3471">
        <ele>187.2</ele>
        <time>2025-03-08T15:08:38Z</time>
      </trkpt>
      <trkpt lat="44.44295" lon="1.3471">
        <ele>187.2</ele>
        <time>2025-03-08T15:08:39Z</time>
      </trkpt>
      <trkpt lat="44.44295" lon="1.3471">
        <ele>187.2</ele>
        <time>2025-03-08T15:08:40Z</time>
      </trkpt>
      <trkpt lat="44.44295" lon="1.3471">
        <ele>187.2</ele>
        <time>2025-03-08T15:08:41Z</time>
      </trkpt>
      <trkpt lat="44.44297" lon="1.3471">
        <ele>187.1</ele>
        <time>2025-03-08T15:08:42Z</time>
      </trkpt>
      <trkpt lat="44.44298" lon="1.34711">
        <ele>187.1</ele>
        <time>2025-03-08T15:08:43Z</time>
      </trkpt>
      <trkpt lat="44.44299" lon="1.34712">
        <ele>187</ele>
        <time>2025-03-08T15:08:44Z</time>
      </trkpt>
      <trkpt lat="44.443" lon="1.34712">
        <ele>187</ele>
        <time>2025-03-08T15:08:45Z</time>
      </trkpt>
      <trkpt lat="44.443" lon="1.34713">
        <ele>187</ele>
        <time>2025-03-08T15:08:46Z</time>
      </trkpt>
      <trkpt lat="44.44301" lon="1.34713">
        <ele>186.9</ele>
        <time>2025-03-08T15:08:47Z</time>
      </trkpt>
      <trkpt lat="44.44303" lon="1.34715">
        <ele>186.8</ele>
        <time>2025-03-08T15:08:48Z</time>
      </trkpt>
      <trkpt lat="44.44304" lon="1.34716">
        <ele>186.8</ele>
        <time>2025-03-08T15:08:49Z</time>
      </trkpt>
      <trkpt lat="44.44307" lon="1.3472">
        <ele>186.6</ele>
        <time>2025-03-08T15:08:50Z</time>
      </trkpt>
      <trkpt lat="44.44309" lon="1.34721">
        <ele>186.6</ele>
        <time>2025-03-08T15:08:51Z</time>
      </trkpt>
      <trkpt lat="44.44312" lon="1.34725">
        <ele>186.4</ele>
        <time>2025-03-08T15:08:52Z</time>
      </trkpt>
      <trkpt lat="44.44316" lon="1.34728">
        <ele>186.3</ele>
        <time>2025-03-08T15:08:53Z</time>
      </trkpt>
      <trkpt lat="44.44319" lon="1.3473">
        <ele>186.1</ele>
        <time>2025-03-08T15:08:54Z</time>
      </trkpt>
      <trkpt lat="44.44322" lon="1.34732">
        <ele>186</ele>
        <time>2025-03-08T15:08:55Z</time>
      </trkpt>
      <trkpt lat="44.44325" lon="1.34735">
        <ele>185.9</ele>
        <time>2025-03-08T15:08:56Z</time>
      </trkpt>
      <trkpt lat="44.44328" lon="1.34737">
        <ele>185.8</ele>
        <time>2025-03-08T15:08:57Z</time>
      </trkpt>
      <trkpt lat="44.44331" lon="1.34739">
        <ele>185.6</ele>
        <time>2025-03-08T15:08:58Z</time>
      </trkpt>
      <trkpt lat="44.44334" lon="1.34741">
        <ele>185.5</ele>
        <time>2025-03-08T15:08:59Z</time>
      </trkpt>
      <trkpt lat="44.44338" lon="1.34743">
        <ele>185.3</ele>
        <time>2025-03-08T15:09:00Z</time>
      </trkpt>
      <trkpt lat="44.44341" lon="1.34746">
        <ele>185.2</ele>
        <time>2025-03-08T15:09:01Z</time>
      </trkpt>
      <trkpt lat="44.44345" lon="1.34749">
        <ele>185</ele>
        <time>2025-03-08T15:09:02Z</time>
      </trkpt>
      <trkpt lat="44.44349" lon="1.3475">
        <ele>184.8</ele>
        <time>2025-03-08T15:09:03Z</time>
      </trkpt>
      <trkpt lat="44.44352" lon="1.34752">
        <ele>184.7</ele>
        <time>2025-03-08T15:09:04Z</time>
      </trkpt>
      <trkpt lat="44.44356" lon="1.34753">
        <ele>184.5</ele>
        <time>2025-03-08T15:09:05Z</time>
      </trkpt>
      <trkpt lat="44.44359" lon="1.34755">
        <ele>184.4</ele>
        <time>2025-03-08T15:09:06Z</time>
      </trkpt>
      <trkpt lat="44.44362" lon="1.34756">
        <ele>184.2</ele>
        <time>2025-03-08T15:09:07Z</time>
      </trkpt>
      <trkpt lat="44.44365" lon="1.34758">
        <ele>184.1</ele>
        <time>2025-03-08T15:09:08Z</time>
      </trkpt>
      <trkpt lat="44.44369" lon="1.34761">
        <ele>183.9</ele>
        <time>2025-03-08T15:09:09Z</time>
      </trkpt>
      <trkpt lat="44.44372" lon="1.34762">
        <ele>183.8</ele>
        <time>2025-03-08T15:09:10Z</time>
      </trkpt>
      <trkpt lat="44.44375" lon="1.34764">
        <ele>183.6</ele>
        <time>2025-03-08T15:09:11Z</time>
      </trkpt>
      <trkpt lat="44.44378" lon="1.34766">
        <ele>183.5</ele>
        <time>2025-03-08T15:09:12Z</time>
      </trkpt>
      <trkpt lat="44.44381" lon="1.34768">
        <ele>183.4</ele>
        <time>2025-03-08T15:09:13Z</time>
      </trkpt>
      <trkpt lat="44.44383" lon="1.34769">
        <ele>183.3</ele>
        <time>2025-03-08T15:09:14Z</time>
      </trkpt>
      <trkpt lat="44.44386" lon="1.34771">
        <ele>183.2</ele>
        <time>2025-03-08T15:09:15Z</time>
      </trkpt>
      <trkpt lat="44.44389" lon="1.34772">
        <ele>183.1</ele>
        <time>2025-03-08T15:09:16Z</time>
      </trkpt>
      <trkpt lat="44.44392" lon="1.34774">
        <ele>182.9</ele>
        <time>2025-03-08T15:09:17Z</time>
      </trkpt>
      <trkpt lat="44.44396" lon="1.34776">
        <ele>182.5</ele>
        <time>2025-03-08T15:09:18Z</time>
      </trkpt>
      <trkpt lat="44.444" lon="1.34779">
        <ele>182</ele>
        <time>2025-03-08T15:09:19Z</time>
      </trkpt>
      <trkpt lat="44.44405" lon="1.34782">
        <ele>181.6</ele>
        <time>2025-03-08T15:09:20Z</time>
      </trkpt>
      <trkpt lat="44.44408" lon="1.34784">
        <ele>181.2</ele>
        <time>2025-03-08T15:09:21Z</time>
      </trkpt>
      <trkpt lat="44.44412" lon="1.34786">
        <ele>180.9</ele>
        <time>2025-03-08T15:09:22Z</time>
      </trkpt>
      <trkpt lat="44.44415" lon="1.34788">
        <ele>180.6</ele>
        <time>2025-03-08T15:09:23Z</time>
      </trkpt>
      <trkpt lat="44.44418" lon="1.3479">
        <ele>180.3</ele>
        <time>2025-03-08T15:09:24Z</time>
      </trkpt>
      <trkpt lat="44.44421" lon="1.34792">
        <ele>180</ele>
        <time>2025-03-08T15:09:25Z</time>
      </trkpt>
      <trkpt lat="44.44424" lon="1.34794">
        <ele>179.7</ele>
        <time>2025-03-08T15:09:26Z</time>
      </trkpt>
      <trkpt lat="44.44427" lon="1.34796">
        <ele>179.4</ele>
        <time>2025-03-08T15:09:27Z</time>
      </trkpt>
      <trkpt lat="44.4443" lon="1.34799">
        <ele>179.1</ele>
        <time>2025-03-08T15:09:28Z</time>
      </trkpt>
      <trkpt lat="44.44434" lon="1.34801">
        <ele>178.7</ele>
        <time>2025-03-08T15:09:29Z</time>
      </trkpt>
      <trkpt lat="44.44437" lon="1.34802">
        <ele>178.4</ele>
        <time>2025-03-08T15:09:30Z</time>
      </trkpt>
      <trkpt lat="44.44441" lon="1.34803">
        <ele>178.1</ele>
        <time>2025-03-08T15:09:31Z</time>
      </trkpt>
      <trkpt lat="44.44444" lon="1.34804">
        <ele>177.8</ele>
        <time>2025-03-08T15:09:32Z</time>
      </trkpt>
      <trkpt lat="44.44447" lon="1.34805">
        <ele>177.5</ele>
        <time>2025-03-08T15:09:33Z</time>
      </trkpt>
      <trkpt lat="44.4445" lon="1.34807">
        <ele>177.3</ele>
        <time>2025-03-08T15:09:34Z</time>
      </trkpt>
      <trkpt lat="44.44452" lon="1.34808">
        <ele>177</ele>
        <time>2025-03-08T15:09:35Z</time>
      </trkpt>
      <trkpt lat="44.44455" lon="1.3481">
        <ele>176.8</ele>
        <time>2025-03-08T15:09:36Z</time>
      </trkpt>
      <trkpt lat="44.44459" lon="1.34812">
        <ele>176.4</ele>
        <time>2025-03-08T15:09:37Z</time>
      </trkpt>
      <trkpt lat="44.44461" lon="1.34814">
        <ele>176.2</ele>
        <time>2025-03-08T15:09:38Z</time>
      </trkpt>
      <trkpt lat="44.44464" lon="1.34816">
        <ele>175.9</ele>
        <time>2025-03-08T15:09:39Z</time>
      </trkpt>
      <trkpt lat="44.44467" lon="1.34817">
        <ele>175.6</ele>
        <time>2025-03-08T15:09:40Z</time>
      </trkpt>
      <trkpt lat="44.4447" lon="1.34819">
        <ele>175.4</ele>
        <time>2025-03-08T15:09:41Z</time>
      </trkpt>
      <trkpt lat="44.44472" lon="1.34821">
        <ele>175.1</ele>
        <time>2025-03-08T15:09:42Z</time>
      </trkpt>
      <trkpt lat="44.44475" lon="1.34823">
        <ele>174.8</ele>
        <time>2025-03-08T15:09:43Z</time>
      </trkpt>
      <trkpt lat="44.44478" lon="1.34825">
        <ele>174.5</ele>
        <time>2025-03-08T15:09:44Z</time>
      </trkpt>
      <trkpt lat="44.44482" lon="1.34827">
        <ele>174.1</ele>
        <time>2025-03-08T15:09:45Z</time>
      </trkpt>
      <trkpt lat="44.44487" lon="1.3483">
        <ele>173.7</ele>
        <time>2025-03-08T15:09:46Z</time>
      </trkpt>
      <trkpt lat="44.44492" lon="1.34833">
        <ele>173.2</ele>
        <time>2025-03-08T15:09:47Z</time>
      </trkpt>
      <trkpt lat="44.44496" lon="1.34836">
        <ele>172.7</ele>
        <time>2025-03-08T15:09:48Z</time>
      </trkpt>
      <trkpt lat="44.44501" lon="1.34838">
        <ele>172.2</ele>
        <time>2025-03-08T15:09:49Z</time>
      </trkpt>
      <trkpt lat="44.44506" lon="1.34841">
        <ele>171.7</ele>
        <time>2025-03-08T15:09:50Z</time>
      </trkpt>
      <trkpt lat="44.4451" lon="1.34843">
        <ele>171.2</ele>
        <time>2025-03-08T15:09:51Z</time>
      </trkpt>
      <trkpt lat="44.44515" lon="1.34845">
        <ele>170.7</ele>
        <time>2025-03-08T15:09:52Z</time>
      </trkpt>
      <trkpt lat="44.44519" lon="1.34848">
        <ele>170.2</ele>
        <time>2025-03-08T15:09:53Z</time>
      </trkpt>
      <trkpt lat="44.44523" lon="1.34851">
        <ele>169.8</ele>
        <time>2025-03-08T15:09:54Z</time>
      </trkpt>
      <trkpt lat="44.44527" lon="1.34854">
        <ele>169.3</ele>
        <time>2025-03-08T15:09:55Z</time>
      </trkpt>
      <trkpt lat="44.4453" lon="1.34858">
        <ele>168.9</ele>
        <time>2025-03-08T15:09:56Z</time>
      </trkpt>
      <trkpt lat="44.44534" lon="1.34862">
        <ele>168.5</ele>
        <time>2025-03-08T15:09:57Z</time>
      </trkpt>
      <trkpt lat="44.44537" lon="1.34866">
        <ele>168.1</ele>
        <time>2025-03-08T15:09:58Z</time>
      </trkpt>
      <trkpt lat="44.4454" lon="1.34869">
        <ele>167.7</ele>
        <time>2025-03-08T15:09:59Z</time>
      </trkpt>
      <trkpt lat="44.44543" lon="1.34871">
        <ele>167.4</ele>
        <time>2025-03-08T15:10:00Z</time>
      </trkpt>
      <trkpt lat="44.44546" lon="1.34874">
        <ele>167.1</ele>
        <time>2025-03-08T15:10:01Z</time>
      </trkpt>
      <trkpt lat="44.44549" lon="1.34875">
        <ele>166.8</ele>
        <time>2025-03-08T15:10:02Z</time>
      </trkpt>
      <trkpt lat="44.44551" lon="1.34877">
        <ele>166.6</ele>
        <time>2025-03-08T15:10:03Z</time>
      </trkpt>
      <trkpt lat="44.44555" lon="1.34881">
        <ele>166.3</ele>
        <time>2025-03-08T15:10:04Z</time>
      </trkpt>
      <trkpt lat="44.44555" lon="1.34882">
        <ele>166.2</ele>
        <time>2025-03-08T15:10:05Z</time>
      </trkpt>
      <trkpt lat="44.44558" lon="1.34884">
        <ele>165.9</ele>
        <time>2025-03-08T15:10:06Z</time>
      </trkpt>
      <trkpt lat="44.44559" lon="1.34884">
        <ele>165.8</ele>
        <time>2025-03-08T15:10:07Z</time>
      </trkpt>
      <trkpt lat="44.4456" lon="1.34886">
        <ele>165.7</ele>
        <time>2025-03-08T15:10:08Z</time>
      </trkpt>
      <trkpt lat="44.44561" lon="1.34887">
        <ele>165.6</ele>
        <time>2025-03-08T15:10:09Z</time>
      </trkpt>
      <trkpt lat="44.44565" lon="1.34886">
        <ele>165.3</ele>
        <time>2025-03-08T15:10:10Z</time>
      </trkpt>
      <trkpt lat="44.44566" lon="1.34884">
        <ele>165.2</ele>
        <time>2025-03-08T15:10:11Z</time>
      </trkpt>
      <trkpt lat="44.44565" lon="1.3488">
        <ele>164.9</ele>
        <time>2025-03-08T15:10:12Z</time>
      </trkpt>
      <trkpt lat="44.44562" lon="1.34878">
        <ele>164.6</ele>
        <time>2025-03-08T15:10:13Z</time>
      </trkpt>
      <trkpt lat="44.4456" lon="1.34878">
        <ele>164.5</ele>
        <time>2025-03-08T15:10:14Z</time>
      </trkpt>
      <trkpt lat="44.44557" lon="1.34876">
        <ele>164.1</ele>
        <time>2025-03-08T15:10:15Z</time>
      </trkpt>
      <trkpt lat="44.44556" lon="1.34875">
        <ele>164</ele>
        <time>2025-03-08T15:10:16Z</time>
      </trkpt>
      <trkpt lat="44.44553" lon="1.34871">
        <ele>163.7</ele>
        <time>2025-03-08T15:10:17Z</time>
      </trkpt>
      <trkpt lat="44.44552" lon="1.3487">
        <ele>163.5</ele>
        <time>2025-03-08T15:10:18Z</time>
      </trkpt>
      <trkpt lat="44.44549" lon="1.34868">
        <ele>163.2</ele>
        <time>2025-03-08T15:10:19Z</time>
      </trkpt>
      <trkpt lat="44.44546" lon="1.34865">
        <ele>162.9</ele>
        <time>2025-03-08T15:10:20Z</time>
      </trkpt>
      <trkpt lat="44.44545" lon="1.34864">
        <ele>162.8</ele>
        <time>2025-03-08T15:10:21Z</time>
      </trkpt>
      <trkpt lat="44.44544" lon="1.34863">
        <ele>162.6</ele>
        <time>2025-03-08T15:10:22Z</time>
      </trkpt>
      <trkpt lat="44.44542" lon="1.34863">
        <ele>162.4</ele>
        <time>2025-03-08T15:10:23Z</time>
      </trkpt>
      <trkpt lat="44.44539" lon="1.34865">
        <ele>162.1</ele>
        <time>2025-03-08T15:10:24Z</time>
      </trkpt>
      <trkpt lat="44.44538" lon="1.34867">
        <ele>161.9</ele>
        <time>2025-03-08T15:10:25Z</time>
      </trkpt>
      <trkpt lat="44.44536" lon="1.3487">
        <ele>161.6</ele>
        <time>2025-03-08T15:10:26Z</time>
      </trkpt>
      <trkpt lat="44.44536" lon="1.34874">
        <ele>161.3</ele>
        <time>2025-03-08T15:10:27Z</time>
      </trkpt>
      <trkpt lat="44.44537" lon="1.34875">
        <ele>161.2</ele>
        <time>2025-03-08T15:10:28Z</time>
      </trkpt>
      <trkpt lat="44.44539" lon="1.34879">
        <ele>160.8</ele>
        <time>2025-03-08T15:10:29Z</time>
      </trkpt>
      <trkpt lat="44.44542" lon="1.34884">
        <ele>160.4</ele>
        <time>2025-03-08T15:10:30Z</time>
      </trkpt>
      <trkpt lat="44.44545" lon="1.34889">
        <ele>159.9</ele>
        <time>2025-03-08T15:10:31Z</time>
      </trkpt>
      <trkpt lat="44.44547" lon="1.34894">
        <ele>159.5</ele>
        <time>2025-03-08T15:10:32Z</time>
      </trkpt>
      <trkpt lat="44.44549" lon="1.34899">
        <ele>159.3</ele>
        <time>2025-03-08T15:10:33Z</time>
      </trkpt>
      <trkpt lat="44.44549" lon="1.34904">
        <ele>159.2</ele>
        <time>2025-03-08T15:10:34Z</time>
      </trkpt>
      <trkpt lat="44.4455" lon="1.34909">
        <ele>159</ele>
        <time>2025-03-08T15:10:35Z</time>
      </trkpt>
      <trkpt lat="44.4455" lon="1.34914">
        <ele>158.9</ele>
        <time>2025-03-08T15:10:36Z</time>
      </trkpt>
      <trkpt lat="44.44551" lon="1.34918">
        <ele>158.8</ele>
        <time>2025-03-08T15:10:37Z</time>
      </trkpt>
      <trkpt lat="44.44551" lon="1.34923">
        <ele>158.7</ele>
        <time>2025-03-08T15:10:38Z</time>
      </trkpt>
      <trkpt lat="44.44552" lon="1.34927">
        <ele>158.5</ele>
        <time>2025-03-08T15:10:39Z</time>
      </trkpt>
      <trkpt lat="44.44554" lon="1.34932">
        <ele>158.4</ele>
        <time>2025-03-08T15:10:40Z</time>
      </trkpt>
      <trkpt lat="44.44555" lon="1.34937">
        <ele>158.3</ele>
        <time>2025-03-08T15:10:41Z</time>
      </trkpt>
      <trkpt lat="44.44556" lon="1.34942">
        <ele>158.1</ele>
        <time>2025-03-08T15:10:42Z</time>
      </trkpt>
      <trkpt lat="44.44557" lon="1.34948">
        <ele>158</ele>
        <time>2025-03-08T15:10:43Z</time>
      </trkpt>
      <trkpt lat="44.44558" lon="1.34952">
        <ele>157.8</ele>
        <time>2025-03-08T15:10:44Z</time>
      </trkpt>
      <trkpt lat="44.4456" lon="1.34955">
        <ele>157.7</ele>
        <time>2025-03-08T15:10:45Z</time>
      </trkpt>
      <trkpt lat="44.44563" lon="1.3496">
        <ele>157.6</ele>
        <time>2025-03-08T15:10:46Z</time>
      </trkpt>
      <trkpt lat="44.44565" lon="1.34965">
        <ele>157.4</ele>
        <time>2025-03-08T15:10:47Z</time>
      </trkpt>
      <trkpt lat="44.44567" lon="1.34969">
        <ele>157.3</ele>
        <time>2025-03-08T15:10:48Z</time>
      </trkpt>
      <trkpt lat="44.44569" lon="1.34974">
        <ele>157.2</ele>
        <time>2025-03-08T15:10:49Z</time>
      </trkpt>
      <trkpt lat="44.44571" lon="1.3498">
        <ele>157.1</ele>
        <time>2025-03-08T15:10:50Z</time>
      </trkpt>
      <trkpt lat="44.44573" lon="1.34985">
        <ele>156.9</ele>
        <time>2025-03-08T15:10:51Z</time>
      </trkpt>
      <trkpt lat="44.44576" lon="1.3499">
        <ele>156.8</ele>
        <time>2025-03-08T15:10:52Z</time>
      </trkpt>
      <trkpt lat="44.44578" lon="1.34993">
        <ele>156.7</ele>
        <time>2025-03-08T15:10:53Z</time>
      </trkpt>
      <trkpt lat="44.44578" lon="1.34996">
        <ele>156.7</ele>
        <time>2025-03-08T15:10:54Z</time>
      </trkpt>
      <trkpt lat="44.44579" lon="1.34997">
        <ele>156.6</ele>
        <time>2025-03-08T15:10:55Z</time>
      </trkpt>
      <trkpt lat="44.4458" lon="1.34998">
        <ele>156.6</ele>
        <time>2025-03-08T15:10:56Z</time>
      </trkpt>
      <trkpt lat="44.44581" lon="1.35">
        <ele>156.6</ele>
        <time>2025-03-08T15:10:57Z</time>
      </trkpt>
      <trkpt lat="44.44582" lon="1.35001">
        <ele>156.5</ele>
        <time>2025-03-08T15:10:58Z</time>
      </trkpt>
      <trkpt lat="44.44582" lon="1.35004">
        <ele>156.5</ele>
        <time>2025-03-08T15:10:59Z</time>
      </trkpt>
      <trkpt lat="44.44583" lon="1.35007">
        <ele>156.4</ele>
        <time>2025-03-08T15:11:00Z</time>
      </trkpt>
      <trkpt lat="44.44584" lon="1.35009">
        <ele>156.4</ele>
        <time>2025-03-08T15:11:01Z</time>
      </trkpt>
      <trkpt lat="44.44586" lon="1.35014">
        <ele>156.3</ele>
        <time>2025-03-08T15:11:02Z</time>
      </trkpt>
      <trkpt lat="44.44586" lon="1.35015">
        <ele>156.3</ele>
        <time>2025-03-08T15:11:03Z</time>
      </trkpt>
      <trkpt lat="44.44588" lon="1.3502">
        <ele>156.2</ele>
        <time>2025-03-08T15:11:04Z</time>
      </trkpt>
      <trkpt lat="44.44589" lon="1.35021">
        <ele>156.1</ele>
        <time>2025-03-08T15:11:05Z</time>
      </trkpt>
      <trkpt lat="44.44591" lon="1.35025">
        <ele>156</ele>
        <time>2025-03-08T15:11:06Z</time>
      </trkpt>
      <trkpt lat="44.44592" lon="1.35026">
        <ele>156</ele>
        <time>2025-03-08T15:11:07Z</time>
      </trkpt>
      <trkpt lat="44.44593" lon="1.3503">
        <ele>155.9</ele>
        <time>2025-03-08T15:11:08Z</time>
      </trkpt>
      <trkpt lat="44.44596" lon="1.35034">
        <ele>155.8</ele>
        <time>2025-03-08T15:11:09Z</time>
      </trkpt>
      <trkpt lat="44.44598" lon="1.35037">
        <ele>155.8</ele>
        <time>2025-03-08T15:11:10Z</time>
      </trkpt>
      <trkpt lat="44.446" lon="1.35038">
        <ele>155.7</ele>
        <time>2025-03-08T15:11:11Z</time>
      </trkpt>
      <trkpt lat="44.44601" lon="1.35039">
        <ele>155.7</ele>
        <time>2025-03-08T15:11:12Z</time>
      </trkpt>
      <trkpt lat="44.44603" lon="1.3504">
        <ele>155.6</ele>
        <time>2025-03-08T15:11:13Z</time>
      </trkpt>
      <trkpt lat="44.44604" lon="1.35041">
        <ele>155.6</ele>
        <time>2025-03-08T15:11:14Z</time>
      </trkpt>
      <trkpt lat="44.44605" lon="1.35045">
        <ele>155.5</ele>
        <time>2025-03-08T15:11:15Z</time>
      </trkpt>
      <trkpt lat="44.44606" lon="1.35047">
        <ele>155.4</ele>
        <time>2025-03-08T15:11:16Z</time>
      </trkpt>
      <trkpt lat="44.44609" lon="1.35048">
        <ele>155.3</ele>
        <time>2025-03-08T15:11:17Z</time>
      </trkpt>
      <trkpt lat="44.4461" lon="1.35049">
        <ele>155.3</ele>
        <time>2025-03-08T15:11:18Z</time>
      </trkpt>
      <trkpt lat="44.44612" lon="1.35048">
        <ele>155.2</ele>
        <time>2025-03-08T15:11:19Z</time>
      </trkpt>
      <trkpt lat="44.44612" lon="1.35048">
        <ele>155.2</ele>
        <time>2025-03-08T15:11:20Z</time>
      </trkpt>
      <trkpt lat="44.44613" lon="1.35049">
        <ele>155.2</ele>
        <time>2025-03-08T15:11:21Z</time>
      </trkpt>
      <trkpt lat="44.44613" lon="1.35049">
        <ele>155.2</ele>
        <time>2025-03-08T15:11:22Z</time>
      </trkpt>
      <trkpt lat="44.44614" lon="1.35049">
        <ele>155.2</ele>
        <time>2025-03-08T15:11:23Z</time>
      </trkpt>
      <trkpt lat="44.44614" lon="1.35049">
        <ele>155.2</ele>
        <time>2025-03-08T15:11:24Z</time>
      </trkpt>
      <trkpt lat="44.44614" lon="1.35049">
        <ele>155.1</ele>
        <time>2025-03-08T15:11:25Z</time>
      </trkpt>
      <trkpt lat="44.44615" lon="1.35049">
        <ele>155.1</ele>
        <time>2025-03-08T15:11:26Z</time>
      </trkpt>
      <trkpt lat="44.44618" lon="1.3505">
        <ele>155</ele>
        <time>2025-03-08T15:11:27Z</time>
      </trkpt>
      <trkpt lat="44.44621" lon="1.35051">
        <ele>154.9</ele>
        <time>2025-03-08T15:11:28Z</time>
      </trkpt>
      <trkpt lat="44.44624" lon="1.35052">
        <ele>154.8</ele>
        <time>2025-03-08T15:11:29Z</time>
      </trkpt>
      <trkpt lat="44.44625" lon="1.35053">
        <ele>154.8</ele>
        <time>2025-03-08T15:11:30Z</time>
      </trkpt>
      <trkpt lat="44.44628" lon="1.35055">
        <ele>154.7</ele>
        <time>2025-03-08T15:11:31Z</time>
      </trkpt>
      <trkpt lat="44.4463" lon="1.35055">
        <ele>154.6</ele>
        <time>2025-03-08T15:11:32Z</time>
      </trkpt>
      <trkpt lat="44.44635" lon="1.35055">
        <ele>154.5</ele>
        <time>2025-03-08T15:11:33Z</time>
      </trkpt>
      <trkpt lat="44.44638" lon="1.35056">
        <ele>154.3</ele>
        <time>2025-03-08T15:11:34Z</time>
      </trkpt>
      <trkpt lat="44.44641" lon="1.35059">
        <ele>154.2</ele>
        <time>2025-03-08T15:11:35Z</time>
      </trkpt>
      <trkpt lat="44.44644" lon="1.35063">
        <ele>154.1</ele>
        <time>2025-03-08T15:11:36Z</time>
      </trkpt>
      <trkpt lat="44.44647" lon="1.35065">
        <ele>154</ele>
        <time>2025-03-08T15:11:37Z</time>
      </trkpt>
      <trkpt lat="44.4465" lon="1.35068">
        <ele>153.9</ele>
        <time>2025-03-08T15:11:38Z</time>
      </trkpt>
      <trkpt lat="44.44653" lon="1.3507">
        <ele>153.8</ele>
        <time>2025-03-08T15:11:39Z</time>
      </trkpt>
      <trkpt lat="44.44654" lon="1.35071">
        <ele>153.7</ele>
        <time>2025-03-08T15:11:40Z</time>
      </trkpt>
      <trkpt lat="44.44658" lon="1.35073">
        <ele>153.6</ele>
        <time>2025-03-08T15:11:41Z</time>
      </trkpt>
      <trkpt lat="44.44659" lon="1.35074">
        <ele>153.6</ele>
        <time>2025-03-08T15:11:42Z</time>
      </trkpt>
      <trkpt lat="44.44662" lon="1.35077">
        <ele>153.4</ele>
        <time>2025-03-08T15:11:43Z</time>
      </trkpt>
      <trkpt lat="44.44666" lon="1.35081">
        <ele>153.3</ele>
        <time>2025-03-08T15:11:44Z</time>
      </trkpt>
      <trkpt lat="44.44669" lon="1.35082">
        <ele>153.2</ele>
        <time>2025-03-08T15:11:45Z</time>
      </trkpt>
      <trkpt lat="44.44671" lon="1.35084">
        <ele>153.1</ele>
        <time>2025-03-08T15:11:46Z</time>
      </trkpt>
      <trkpt lat="44.44672" lon="1.35085">
        <ele>153.1</ele>
        <time>2025-03-08T15:11:47Z</time>
      </trkpt>
      <trkpt lat="44.44674" lon="1.35088">
        <ele>153</ele>
        <time>2025-03-08T15:11:48Z</time>
      </trkpt>
      <trkpt lat="44.44678" lon="1.35089">
        <ele>152.9</ele>
        <time>2025-03-08T15:11:49Z</time>
      </trkpt>
      <trkpt lat="44.44682" lon="1.3509">
        <ele>152.7</ele>
        <time>2025-03-08T15:11:50Z</time>
      </trkpt>
      <trkpt lat="44.44686" lon="1.35091">
        <ele>152.6</ele>
        <time>2025-03-08T15:11:51Z</time>
      </trkpt>
      <trkpt lat="44.44689" lon="1.35093">
        <ele>152.5</ele>
        <time>2025-03-08T15:11:52Z</time>
      </trkpt>
      <trkpt lat="44.44691" lon="1.35095">
        <ele>152.4</ele>
        <time>2025-03-08T15:11:53Z</time>
      </trkpt>
      <trkpt lat="44.44694" lon="1.35099">
        <ele>152.3</ele>
        <time>2025-03-08T15:11:54Z</time>
      </trkpt>
      <trkpt lat="44.44695" lon="1.351">
        <ele>152.3</ele>
        <time>2025-03-08T15:11:55Z</time>
      </trkpt>
      <trkpt lat="44.44698" lon="1.35103">
        <ele>152.2</ele>
        <time>2025-03-08T15:11:56Z</time>
      </trkpt>
      <trkpt lat="44.44699" lon="1.35104">
        <ele>152.2</ele>
        <time>2025-03-08T15:11:57Z</time>
      </trkpt>
      <trkpt lat="44.44701" lon="1.35107">
        <ele>152.1</ele>
        <time>2025-03-08T15:11:58Z</time>
      </trkpt>
      <trkpt lat="44.44704" lon="1.35109">
        <ele>152</ele>
        <time>2025-03-08T15:11:59Z</time>
      </trkpt>
      <trkpt lat="44.44707" lon="1.3511">
        <ele>151.9</ele>
        <time>2025-03-08T15:12:00Z</time>
      </trkpt>
      <trkpt lat="44.44712" lon="1.35112">
        <ele>151.8</ele>
        <time>2025-03-08T15:12:01Z</time>
      </trkpt>
      <trkpt lat="44.44716" lon="1.35112">
        <ele>151.7</ele>
        <time>2025-03-08T15:12:02Z</time>
      </trkpt>
      <trkpt lat="44.44719" lon="1.35114">
        <ele>151.6</ele>
        <time>2025-03-08T15:12:03Z</time>
      </trkpt>
      <trkpt lat="44.4472" lon="1.35115">
        <ele>151.6</ele>
        <time>2025-03-08T15:12:04Z</time>
      </trkpt>
      <trkpt lat="44.44723" lon="1.35117">
        <ele>151.5</ele>
        <time>2025-03-08T15:12:05Z</time>
      </trkpt>
      <trkpt lat="44.44727" lon="1.3512">
        <ele>151.4</ele>
        <time>2025-03-08T15:12:06Z</time>
      </trkpt>
      <trkpt lat="44.4473" lon="1.35121">
        <ele>151.3</ele>
        <time>2025-03-08T15:12:07Z</time>
      </trkpt>
      <trkpt lat="44.44733" lon="1.35123">
        <ele>151.2</ele>
        <time>2025-03-08T15:12:08Z</time>
      </trkpt>
      <trkpt lat="44.44735" lon="1.35125">
        <ele>151.1</ele>
        <time>2025-03-08T15:12:09Z</time>
      </trkpt>
      <trkpt lat="44.44737" lon="1.35128">
        <ele>151.1</ele>
        <time>2025-03-08T15:12:10Z</time>
      </trkpt>
      <trkpt lat="44.44741" lon="1.3513">
        <ele>151</ele>
        <time>2025-03-08T15:12:11Z</time>
      </trkpt>
      <trkpt lat="44.44745" lon="1.35129">
        <ele>150.9</ele>
        <time>2025-03-08T15:12:12Z</time>
      </trkpt>
      <trkpt lat="44.4475" lon="1.35129">
        <ele>150.8</ele>
        <time>2025-03-08T15:12:13Z</time>
      </trkpt>
      <trkpt lat="44.44752" lon="1.35127">
        <ele>150.7</ele>
        <time>2025-03-08T15:12:14Z</time>
      </trkpt>
      <trkpt lat="44.44755" lon="1.35128">
        <ele>150.6</ele>
        <time>2025-03-08T15:12:15Z</time>
      </trkpt>
      <trkpt lat="44.44756" lon="1.35128">
        <ele>150.6</ele>
        <time>2025-03-08T15:12:16Z</time>
      </trkpt>
      <trkpt lat="44.44759" lon="1.35129">
        <ele>150.5</ele>
        <time>2025-03-08T15:12:17Z</time>
      </trkpt>
      <trkpt lat="44.44762" lon="1.35131">
        <ele>150.4</ele>
        <time>2025-03-08T15:12:18Z</time>
      </trkpt>
      <trkpt lat="44.44766" lon="1.35132">
        <ele>150.3</ele>
        <time>2025-03-08T15:12:19Z</time>
      </trkpt>
      <trkpt lat="44.44769" lon="1.35134">
        <ele>150.3</ele>
        <time>2025-03-08T15:12:20Z</time>
      </trkpt>
      <trkpt lat="44.44773" lon="1.35135">
        <ele>150.2</ele>
        <time>2025-03-08T15:12:21Z</time>
      </trkpt>
      <trkpt lat="44.44776" lon="1.35136">
        <ele>150.1</ele>
        <time>2025-03-08T15:12:22Z</time>
      </trkpt>
      <trkpt lat="44.44779" lon="1.35137">
        <ele>150.1</ele>
        <time>2025-03-08T15:12:23Z</time>
      </trkpt>
      <trkpt lat="44.44782" lon="1.35138">
        <ele>150</ele>
        <time>2025-03-08T15:12:24Z</time>
      </trkpt>
      <trkpt lat="44.44785" lon="1.35139">
        <ele>149.9</ele>
        <time>2025-03-08T15:12:25Z</time>
      </trkpt>
      <trkpt lat="44.44787" lon="1.35141">
        <ele>149.9</ele>
        <time>2025-03-08T15:12:26Z</time>
      </trkpt>
      <trkpt lat="44.44788" lon="1.35143">
        <ele>149.8</ele>
        <time>2025-03-08T15:12:27Z</time>
      </trkpt>
      <trkpt lat="44.44788" lon="1.35144">
        <ele>149.8</ele>
        <time>2025-03-08T15:12:28Z</time>
      </trkpt>
      <trkpt lat="44.44788" lon="1.35143">
        <ele>149.8</ele>
        <time>2025-03-08T15:12:29Z</time>
      </trkpt>
      <trkpt lat="44.44789" lon="1.35143">
        <ele>149.8</ele>
        <time>2025-03-08T15:12:30Z</time>
      </trkpt>
      <trkpt lat="44.44789" lon="1.35141">
        <ele>149.8</ele>
        <time>2025-03-08T15:12:31Z</time>
      </trkpt>
      <trkpt lat="44.44789" lon="1.35139">
        <ele>149.7</ele>
        <time>2025-03-08T15:12:32Z</time>
      </trkpt>
      <trkpt lat="44.44789" lon="1.35137">
        <ele>149.7</ele>
        <time>2025-03-08T15:12:33Z</time>
      </trkpt>
      <trkpt lat="44.44789" lon="1.35136">
        <ele>149.7</ele>
        <time>2025-03-08T15:12:34Z</time>
      </trkpt>
      <trkpt lat="44.44789" lon="1.35136">
        <ele>149.7</ele>
        <time>2025-03-08T15:12:35Z</time>
      </trkpt>
      <trkpt lat="44.44789" lon="1.35135">
        <ele>149.7</ele>
        <time>2025-03-08T15:12:36Z</time>
      </trkpt>
      <trkpt lat="44.44789" lon="1.35135">
        <ele>149.7</ele>
        <time>2025-03-08T15:12:37Z</time>
      </trkpt>
      <trkpt lat="44.4479" lon="1.35135">
        <ele>149.7</ele>
        <time>2025-03-08T15:12:38Z</time>
      </trkpt>
      <trkpt lat="44.44791" lon="1.35135">
        <ele>149.6</ele>
        <time>2025-03-08T15:12:39Z</time>
      </trkpt>
      <trkpt lat="44.44792" lon="1.35135">
        <ele>149.6</ele>
        <time>2025-03-08T15:12:40Z</time>
      </trkpt>
      <trkpt lat="44.44793" lon="1.35135">
        <ele>149.6</ele>
        <time>2025-03-08T15:12:41Z</time>
      </trkpt>
      <trkpt lat="44.44794" lon="1.35136">
        <ele>149.6</ele>
        <time>2025-03-08T15:12:42Z</time>
      </trkpt>
      <trkpt lat="44.44796" lon="1.35136">
        <ele>149.5</ele>
        <time>2025-03-08T15:12:43Z</time>
      </trkpt>
      <trkpt lat="44.44799" lon="1.35138">
        <ele>149.4</ele>
        <time>2025-03-08T15:12:44Z</time>
      </trkpt>
      <trkpt lat="44.448" lon="1.35138">
        <ele>149.4</ele>
        <time>2025-03-08T15:12:45Z</time>
      </trkpt>
      <trkpt lat="44.44804" lon="1.3514">
        <ele>149.3</ele>
        <time>2025-03-08T15:12:46Z</time>
      </trkpt>
      <trkpt lat="44.44805" lon="1.3514">
        <ele>149.3</ele>
        <time>2025-03-08T15:12:47Z</time>
      </trkpt>
      <trkpt lat="44.44808" lon="1.35142">
        <ele>149.2</ele>
        <time>2025-03-08T15:12:48Z</time>
      </trkpt>
      <trkpt lat="44.44811" lon="1.35143">
        <ele>149.1</ele>
        <time>2025-03-08T15:12:49Z</time>
      </trkpt>
      <trkpt lat="44.44815" lon="1.35144">
        <ele>149</ele>
        <time>2025-03-08T15:12:50Z</time>
      </trkpt>
      <trkpt lat="44.44818" lon="1.35147">
        <ele>148.9</ele>
        <time>2025-03-08T15:12:51Z</time>
      </trkpt>
      <trkpt lat="44.44822" lon="1.35148">
        <ele>148.8</ele>
        <time>2025-03-08T15:12:52Z</time>
      </trkpt>
      <trkpt lat="44.44826" lon="1.3515">
        <ele>148.7</ele>
        <time>2025-03-08T15:12:53Z</time>
      </trkpt>
      <trkpt lat="44.4483" lon="1.35152">
        <ele>148.5</ele>
        <time>2025-03-08T15:12:54Z</time>
      </trkpt>
      <trkpt lat="44.44834" lon="1.35154">
        <ele>148.4</ele>
        <time>2025-03-08T15:12:55Z</time>
      </trkpt>
      <trkpt lat="44.44838" lon="1.35156">
        <ele>148.3</ele>
        <time>2025-03-08T15:12:56Z</time>
      </trkpt>
      <trkpt lat="44.44842" lon="1.35158">
        <ele>148.2</ele>
        <time>2025-03-08T15:12:57Z</time>
      </trkpt>
      <trkpt lat="44.44847" lon="1.35161">
        <ele>148.1</ele>
        <time>2025-03-08T15:12:58Z</time>
      </trkpt>
      <trkpt lat="44.44851" lon="1.35163">
        <ele>148</ele>
        <time>2025-03-08T15:12:59Z</time>
      </trkpt>
      <trkpt lat="44.44856" lon="1.35165">
        <ele>147.8</ele>
        <time>2025-03-08T15:13:00Z</time>
      </trkpt>
      <trkpt lat="44.44861" lon="1.35168">
        <ele>147.7</ele>
        <time>2025-03-08T15:13:01Z</time>
      </trkpt>
      <trkpt lat="44.44865" lon="1.3517">
        <ele>147.6</ele>
        <time>2025-03-08T15:13:02Z</time>
      </trkpt>
      <trkpt lat="44.44869" lon="1.35173">
        <ele>147.4</ele>
        <time>2025-03-08T15:13:03Z</time>
      </trkpt>
      <trkpt lat="44.44874" lon="1.35175">
        <ele>147.3</ele>
        <time>2025-03-08T15:13:04Z</time>
      </trkpt>
      <trkpt lat="44.44879" lon="1.35178">
        <ele>147.1</ele>
        <time>2025-03-08T15:13:05Z</time>
      </trkpt>
      <trkpt lat="44.44885" lon="1.35181">
        <ele>147</ele>
        <time>2025-03-08T15:13:06Z</time>
      </trkpt>
      <trkpt lat="44.4489" lon="1.35184">
        <ele>146.8</ele>
        <time>2025-03-08T15:13:07Z</time>
      </trkpt>
      <trkpt lat="44.44895" lon="1.35186">
        <ele>146.7</ele>
        <time>2025-03-08T15:13:08Z</time>
      </trkpt>
      <trkpt lat="44.449" lon="1.35189">
        <ele>146.5</ele>
        <time>2025-03-08T15:13:09Z</time>
      </trkpt>
      <trkpt lat="44.44905" lon="1.35192">
        <ele>146.4</ele>
        <time>2025-03-08T15:13:10Z</time>
      </trkpt>
      <trkpt lat="44.4491" lon="1.35196">
        <ele>146.2</ele>
        <time>2025-03-08T15:13:11Z</time>
      </trkpt>
      <trkpt lat="44.44915" lon="1.35199">
        <ele>146.1</ele>
        <time>2025-03-08T15:13:12Z</time>
      </trkpt>
      <trkpt lat="44.4492" lon="1.35203">
        <ele>145.9</ele>
        <time>2025-03-08T15:13:13Z</time>
      </trkpt>
      <trkpt lat="44.44925" lon="1.35206">
        <ele>145.8</ele>
        <time>2025-03-08T15:13:14Z</time>
      </trkpt>
      <trkpt lat="44.4493" lon="1.3521">
        <ele>145.6</ele>
        <time>2025-03-08T15:13:15Z</time>
      </trkpt>
      <trkpt lat="44.44935" lon="1.35214">
        <ele>145.5</ele>
        <time>2025-03-08T15:13:16Z</time>
      </trkpt>
      <trkpt lat="44.4494" lon="1.35217">
        <ele>145.4</ele>
        <time>2025-03-08T15:13:17Z</time>
      </trkpt>
      <trkpt lat="44.44945" lon="1.3522">
        <ele>145.2</ele>
        <time>2025-03-08T15:13:18Z</time>
      </trkpt>
      <trkpt lat="44.4495" lon="1.35224">
        <ele>145.1</ele>
        <time>2025-03-08T15:13:19Z</time>
      </trkpt>
      <trkpt lat="44.44955" lon="1.35227">
        <ele>145</ele>
        <time>2025-03-08T15:13:20Z</time>
      </trkpt>
      <trkpt lat="44.4496" lon="1.3523">
        <ele>144.9</ele>
        <time>2025-03-08T15:13:21Z</time>
      </trkpt>
      <trkpt lat="44.44965" lon="1.35233">
        <ele>144.7</ele>
        <time>2025-03-08T15:13:22Z</time>
      </trkpt>
      <trkpt lat="44.4497" lon="1.35236">
        <ele>144.6</ele>
        <time>2025-03-08T15:13:23Z</time>
      </trkpt>
      <trkpt lat="44.44975" lon="1.3524">
        <ele>144.5</ele>
        <time>2025-03-08T15:13:24Z</time>
      </trkpt>
      <trkpt lat="44.44979" lon="1.35243">
        <ele>144.4</ele>
        <time>2025-03-08T15:13:25Z</time>
      </trkpt>
      <trkpt lat="44.44984" lon="1.35246">
        <ele>144.3</ele>
        <time>2025-03-08T15:13:26Z</time>
      </trkpt>
      <trkpt lat="44.44989" lon="1.3525">
        <ele>144.1</ele>
        <time>2025-03-08T15:13:27Z</time>
      </trkpt>
      <trkpt lat="44.44994" lon="1.35254">
        <ele>144</ele>
        <time>2025-03-08T15:13:28Z</time>
      </trkpt>
      <trkpt lat="44.44999" lon="1.35257">
        <ele>143.8</ele>
        <time>2025-03-08T15:13:29Z</time>
      </trkpt>
      <trkpt lat="44.45003" lon="1.35261">
        <ele>143.7</ele>
        <time>2025-03-08T15:13:30Z</time>
      </trkpt>
      <trkpt lat="44.45008" lon="1.35264">
        <ele>143.6</ele>
        <time>2025-03-08T15:13:31Z</time>
      </trkpt>
      <trkpt lat="44.45013" lon="1.35268">
        <ele>143.4</ele>
        <time>2025-03-08T15:13:32Z</time>
      </trkpt>
      <trkpt lat="44.45018" lon="1.35271">
        <ele>143.2</ele>
        <time>2025-03-08T15:13:33Z</time>
      </trkpt>
      <trkpt lat="44.45023" lon="1.35275">
        <ele>143.1</ele>
        <time>2025-03-08T15:13:34Z</time>
      </trkpt>
      <trkpt lat="44.45028" lon="1.35279">
        <ele>142.9</ele>
        <time>2025-03-08T15:13:35Z</time>
      </trkpt>
      <trkpt lat="44.45033" lon="1.35283">
        <ele>142.7</ele>
        <time>2025-03-08T15:13:36Z</time>
      </trkpt>
      <trkpt lat="44.45038" lon="1.35287">
        <ele>142.6</ele>
        <time>2025-03-08T15:13:37Z</time>
      </trkpt>
      <trkpt lat="44.45042" lon="1.35291">
        <ele>142.4</ele>
        <time>2025-03-08T15:13:38Z</time>
      </trkpt>
      <trkpt lat="44.45047" lon="1.35296">
        <ele>142.3</ele>
        <time>2025-03-08T15:13:39Z</time>
      </trkpt>
      <trkpt lat="44.45052" lon="1.35301">
        <ele>142.1</ele>
        <time>2025-03-08T15:13:40Z</time>
      </trkpt>
      <trkpt lat="44.45057" lon="1.35306">
        <ele>142</ele>
        <time>2025-03-08T15:13:41Z</time>
      </trkpt>
      <trkpt lat="44.45062" lon="1.35311">
        <ele>141.8</ele>
        <time>2025-03-08T15:13:42Z</time>
      </trkpt>
      <trkpt lat="44.45067" lon="1.35316">
        <ele>141.7</ele>
        <time>2025-03-08T15:13:43Z</time>
      </trkpt>
      <trkpt lat="44.45072" lon="1.35321">
        <ele>141.5</ele>
        <time>2025-03-08T15:13:44Z</time>
      </trkpt>
      <trkpt lat="44.45077" lon="1.35325">
        <ele>141.4</ele>
        <time>2025-03-08T15:13:45Z</time>
      </trkpt>
      <trkpt lat="44.45083" lon="1.3533">
        <ele>141.2</ele>
        <time>2025-03-08T15:13:46Z</time>
      </trkpt>
      <trkpt lat="44.45088" lon="1.35334">
        <ele>141</ele>
        <time>2025-03-08T15:13:47Z</time>
      </trkpt>
      <trkpt lat="44.45094" lon="1.35339">
        <ele>140.8</ele>
        <time>2025-03-08T15:13:48Z</time>
      </trkpt>
      <trkpt lat="44.45099" lon="1.35344">
        <ele>140.7</ele>
        <time>2025-03-08T15:13:49Z</time>
      </trkpt>
      <trkpt lat="44.45105" lon="1.35348">
        <ele>140.5</ele>
        <time>2025-03-08T15:13:50Z</time>
      </trkpt>
      <trkpt lat="44.45111" lon="1.35352">
        <ele>140.3</ele>
        <time>2025-03-08T15:13:51Z</time>
      </trkpt>
      <trkpt lat="44.45117" lon="1.35355">
        <ele>140.1</ele>
        <time>2025-03-08T15:13:52Z</time>
      </trkpt>
      <trkpt lat="44.45123" lon="1.35359">
        <ele>139.9</ele>
        <time>2025-03-08T15:13:53Z</time>
      </trkpt>
      <trkpt lat="44.45128" lon="1.35363">
        <ele>139.7</ele>
        <time>2025-03-08T15:13:54Z</time>
      </trkpt>
      <trkpt lat="44.45134" lon="1.35367">
        <ele>139.5</ele>
        <time>2025-03-08T15:13:55Z</time>
      </trkpt>
      <trkpt lat="44.4514" lon="1.35372">
        <ele>139.3</ele>
        <time>2025-03-08T15:13:56Z</time>
      </trkpt>
      <trkpt lat="44.45145" lon="1.35376">
        <ele>139.1</ele>
        <time>2025-03-08T15:13:57Z</time>
      </trkpt>
      <trkpt lat="44.4515" lon="1.35379">
        <ele>138.9</ele>
        <time>2025-03-08T15:13:58Z</time>
      </trkpt>
      <trkpt lat="44.45154" lon="1.35382">
        <ele>138.8</ele>
        <time>2025-03-08T15:13:59Z</time>
      </trkpt>
      <trkpt lat="44.45157" lon="1.35385">
        <ele>138.7</ele>
        <time>2025-03-08T15:14:00Z</time>
      </trkpt>
      <trkpt lat="44.4516" lon="1.35388">
        <ele>138.6</ele>
        <time>2025-03-08T15:14:01Z</time>
      </trkpt>
      <trkpt lat="44.45164" lon="1.35391">
        <ele>138.4</ele>
        <time>2025-03-08T15:14:02Z</time>
      </trkpt>
      <trkpt lat="44.45167" lon="1.35395">
        <ele>138.3</ele>
        <time>2025-03-08T15:14:03Z</time>
      </trkpt>
      <trkpt lat="44.45171" lon="1.35399">
        <ele>138.2</ele>
        <time>2025-03-08T15:14:04Z</time>
      </trkpt>
      <trkpt lat="44.45175" lon="1.35404">
        <ele>138.1</ele>
        <time>2025-03-08T15:14:05Z</time>
      </trkpt>
      <trkpt lat="44.45179" lon="1.35409">
        <ele>137.9</ele>
        <time>2025-03-08T15:14:06Z</time>
      </trkpt>
      <trkpt lat="44.45183" lon="1.35413">
        <ele>137.8</ele>
        <time>2025-03-08T15:14:07Z</time>
      </trkpt>
      <trkpt lat="44.45187" lon="1.35418">
        <ele>137.7</ele>
        <time>2025-03-08T15:14:08Z</time>
      </trkpt>
      <trkpt lat="44.4519" lon="1.35422">
        <ele>137.6</ele>
        <time>2025-03-08T15:14:09Z</time>
      </trkpt>
      <trkpt lat="44.45194" lon="1.35427">
        <ele>137.5</ele>
        <time>2025-03-08T15:14:10Z</time>
      </trkpt>
      <trkpt lat="44.45198" lon="1.35431">
        <ele>137.4</ele>
        <time>2025-03-08T15:14:11Z</time>
      </trkpt>
      <trkpt lat="44.45201" lon="1.35436">
        <ele>137.3</ele>
        <time>2025-03-08T15:14:12Z</time>
      </trkpt>
      <trkpt lat="44.45205" lon="1.35441">
        <ele>137.3</ele>
        <time>2025-03-08T15:14:13Z</time>
      </trkpt>
      <trkpt lat="44.45208" lon="1.35446">
        <ele>137.2</ele>
        <time>2025-03-08T15:14:14Z</time>
      </trkpt>
      <trkpt lat="44.45211" lon="1.35451">
        <ele>137.1</ele>
        <time>2025-03-08T15:14:15Z</time>
      </trkpt>
      <trkpt lat="44.45215" lon="1.35456">
        <ele>137.1</ele>
        <time>2025-03-08T15:14:16Z</time>
      </trkpt>
      <trkpt lat="44.45218" lon="1.35461">
        <ele>137</ele>
        <time>2025-03-08T15:14:17Z</time>
      </trkpt>
      <trkpt lat="44.45222" lon="1.35466">
        <ele>137</ele>
        <time>2025-03-08T15:14:18Z</time>
      </trkpt>
      <trkpt lat="44.45226" lon="1.3547">
        <ele>137</ele>
        <time>2025-03-08T15:14:19Z</time>
      </trkpt>
      <trkpt lat="44.45228" lon="1.35475">
        <ele>137</ele>
        <time>2025-03-08T15:14:20Z</time>
      </trkpt>
      <trkpt lat="44.45231" lon="1.3548">
        <ele>137</ele>
        <time>2025-03-08T15:14:21Z</time>
      </trkpt>
      <trkpt lat="44.45235" lon="1.35485">
        <ele>137.1</ele>
        <time>2025-03-08T15:14:22Z</time>
      </trkpt>
      <trkpt lat="44.45238" lon="1.35488">
        <ele>137</ele>
        <time>2025-03-08T15:14:23Z</time>
      </trkpt>
      <trkpt lat="44.45241" lon="1.35491">
        <ele>137</ele>
        <time>2025-03-08T15:14:24Z</time>
      </trkpt>
      <trkpt lat="44.45244" lon="1.35494">
        <ele>136.9</ele>
        <time>2025-03-08T15:14:25Z</time>
      </trkpt>
      <trkpt lat="44.45248" lon="1.35497">
        <ele>136.9</ele>
        <time>2025-03-08T15:14:26Z</time>
      </trkpt>
      <trkpt lat="44.45251" lon="1.355">
        <ele>136.8</ele>
        <time>2025-03-08T15:14:27Z</time>
      </trkpt>
      <trkpt lat="44.45254" lon="1.35503">
        <ele>136.8</ele>
        <time>2025-03-08T15:14:28Z</time>
      </trkpt>
      <trkpt lat="44.45257" lon="1.35506">
        <ele>136.7</ele>
        <time>2025-03-08T15:14:29Z</time>
      </trkpt>
      <trkpt lat="44.4526" lon="1.35509">
        <ele>136.7</ele>
        <time>2025-03-08T15:14:30Z</time>
      </trkpt>
      <trkpt lat="44.45262" lon="1.35512">
        <ele>136.6</ele>
        <time>2025-03-08T15:14:31Z</time>
      </trkpt>
      <trkpt lat="44.45265" lon="1.35515">
        <ele>136.6</ele>
        <time>2025-03-08T15:14:32Z</time>
      </trkpt>
      <trkpt lat="44.45268" lon="1.35519">
        <ele>136.5</ele>
        <time>2025-03-08T15:14:33Z</time>
      </trkpt>
      <trkpt lat="44.45271" lon="1.35523">
        <ele>136.5</ele>
        <time>2025-03-08T15:14:34Z</time>
      </trkpt>
      <trkpt lat="44.45275" lon="1.35527">
        <ele>136.4</ele>
        <time>2025-03-08T15:14:35Z</time>
      </trkpt>
      <trkpt lat="44.45278" lon="1.35531">
        <ele>136.4</ele>
        <time>2025-03-08T15:14:36Z</time>
      </trkpt>
      <trkpt lat="44.45281" lon="1.35535">
        <ele>136.3</ele>
        <time>2025-03-08T15:14:37Z</time>
      </trkpt>
      <trkpt lat="44.45285" lon="1.35538">
        <ele>136.3</ele>
        <time>2025-03-08T15:14:38Z</time>
      </trkpt>
      <trkpt lat="44.45288" lon="1.35542">
        <ele>136.3</ele>
        <time>2025-03-08T15:14:39Z</time>
      </trkpt>
      <trkpt lat="44.45291" lon="1.35546">
        <ele>136.2</ele>
        <time>2025-03-08T15:14:40Z</time>
      </trkpt>
      <trkpt lat="44.45294" lon="1.35549">
        <ele>136.2</ele>
        <time>2025-03-08T15:14:41Z</time>
      </trkpt>
      <trkpt lat="44.45297" lon="1.35553">
        <ele>136.1</ele>
        <time>2025-03-08T15:14:42Z</time>
      </trkpt>
      <trkpt lat="44.453" lon="1.35557">
        <ele>136.1</ele>
        <time>2025-03-08T15:14:43Z</time>
      </trkpt>
      <trkpt lat="44.45303" lon="1.35561">
        <ele>136.1</ele>
        <time>2025-03-08T15:14:44Z</time>
      </trkpt>
      <trkpt lat="44.45306" lon="1.35564">
        <ele>136</ele>
        <time>2025-03-08T15:14:45Z</time>
      </trkpt>
      <trkpt lat="44.45309" lon="1.35567">
        <ele>136</ele>
        <time>2025-03-08T15:14:46Z</time>
      </trkpt>
      <trkpt lat="44.45313" lon="1.35571">
        <ele>136</ele>
        <time>2025-03-08T15:14:47Z</time>
      </trkpt>
      <trkpt lat="44.45315" lon="1.35576">
        <ele>136</ele>
        <time>2025-03-08T15:14:48Z</time>
      </trkpt>
      <trkpt lat="44.45317" lon="1.35581">
        <ele>136.2</ele>
        <time>2025-03-08T15:14:49Z</time>
      </trkpt>
      <trkpt lat="44.45316" lon="1.35587">
        <ele>136.4</ele>
        <time>2025-03-08T15:14:50Z</time>
      </trkpt>
      <trkpt lat="44.45314" lon="1.35591">
        <ele>136.5</ele>
        <time>2025-03-08T15:14:51Z</time>
      </trkpt>
      <trkpt lat="44.45311" lon="1.35595">
        <ele>136.7</ele>
        <time>2025-03-08T15:14:52Z</time>
      </trkpt>
      <trkpt lat="44.45308" lon="1.35597">
        <ele>136.8</ele>
        <time>2025-03-08T15:14:53Z</time>
      </trkpt>
      <trkpt lat="44.45306" lon="1.35599">
        <ele>136.9</ele>
        <time>2025-03-08T15:14:54Z</time>
      </trkpt>
      <trkpt lat="44.45304" lon="1.35601">
        <ele>137</ele>
        <time>2025-03-08T15:14:55Z</time>
      </trkpt>
      <trkpt lat="44.45301" lon="1.35604">
        <ele>137.1</ele>
        <time>2025-03-08T15:14:56Z</time>
      </trkpt>
      <trkpt lat="44.45299" lon="1.35607">
        <ele>137.3</ele>
        <time>2025-03-08T15:14:57Z</time>
      </trkpt>
      <trkpt lat="44.45297" lon="1.35609">
        <ele>137.4</ele>
        <time>2025-03-08T15:14:58Z</time>
      </trkpt>
      <trkpt lat="44.45294" lon="1.35612">
        <ele>137.6</ele>
        <time>2025-03-08T15:14:59Z</time>
      </trkpt>
      <trkpt lat="44.45292" lon="1.35614">
        <ele>137.7</ele>
        <time>2025-03-08T15:15:00Z</time>
      </trkpt>
      <trkpt lat="44.4529" lon="1.35617">
        <ele>137.9</ele>
        <time>2025-03-08T15:15:01Z</time>
      </trkpt>
      <trkpt lat="44.45287" lon="1.35621">
        <ele>138.1</ele>
        <time>2025-03-08T15:15:02Z</time>
      </trkpt>
      <trkpt lat="44.45286" lon="1.35623">
        <ele>138.2</ele>
        <time>2025-03-08T15:15:03Z</time>
      </trkpt>
      <trkpt lat="44.45284" lon="1.35626">
        <ele>138.4</ele>
        <time>2025-03-08T15:15:04Z</time>
      </trkpt>
      <trkpt lat="44.45282" lon="1.35629">
        <ele>138.6</ele>
        <time>2025-03-08T15:15:05Z</time>
      </trkpt>
      <trkpt lat="44.45281" lon="1.35633">
        <ele>138.8</ele>
        <time>2025-03-08T15:15:06Z</time>
      </trkpt>
      <trkpt lat="44.45279" lon="1.35636">
        <ele>138.9</ele>
        <time>2025-03-08T15:15:07Z</time>
      </trkpt>
      <trkpt lat="44.45277" lon="1.35641">
        <ele>139.1</ele>
        <time>2025-03-08T15:15:08Z</time>
      </trkpt>
      <trkpt lat="44.45276" lon="1.35642">
        <ele>139.2</ele>
        <time>2025-03-08T15:15:09Z</time>
      </trkpt>
      <trkpt lat="44.45274" lon="1.35645">
        <ele>139.4</ele>
        <time>2025-03-08T15:15:10Z</time>
      </trkpt>
      <trkpt lat="44.45272" lon="1.35649">
        <ele>139.6</ele>
        <time>2025-03-08T15:15:11Z</time>
      </trkpt>
      <trkpt lat="44.45271" lon="1.35652">
        <ele>139.7</ele>
        <time>2025-03-08T15:15:12Z</time>
      </trkpt>
      <trkpt lat="44.45269" lon="1.35654">
        <ele>139.9</ele>
        <time>2025-03-08T15:15:13Z</time>
      </trkpt>
      <trkpt lat="44.45266" lon="1.35657">
        <ele>140</ele>
        <time>2025-03-08T15:15:14Z</time>
      </trkpt>
      <trkpt lat="44.45264" lon="1.3566">
        <ele>140.2</ele>
        <time>2025-03-08T15:15:15Z</time>
      </trkpt>
      <trkpt lat="44.45262" lon="1.35662">
        <ele>140.3</ele>
        <time>2025-03-08T15:15:16Z</time>
      </trkpt>
      <trkpt lat="44.45259" lon="1.35665">
        <ele>140.5</ele>
        <time>2025-03-08T15:15:17Z</time>
      </trkpt>
      <trkpt lat="44.45257" lon="1.35667">
        <ele>140.6</ele>
        <time>2025-03-08T15:15:18Z</time>
      </trkpt>
      <trkpt lat="44.45255" lon="1.3567">
        <ele>140.7</ele>
        <time>2025-03-08T15:15:19Z</time>
      </trkpt>
      <trkpt lat="44.45253" lon="1.35673">
        <ele>140.8</ele>
        <time>2025-03-08T15:15:20Z</time>
      </trkpt>
      <trkpt lat="44.45251" lon="1.35675">
        <ele>140.9</ele>
        <time>2025-03-08T15:15:21Z</time>
      </trkpt>
      <trkpt lat="44.45248" lon="1.35678">
        <ele>141</ele>
        <time>2025-03-08T15:15:22Z</time>
      </trkpt>
      <trkpt lat="44.45246" lon="1.35681">
        <ele>141.1</ele>
        <time>2025-03-08T15:15:23Z</time>
      </trkpt>
      <trkpt lat="44.45244" lon="1.35684">
        <ele>141.2</ele>
        <time>2025-03-08T15:15:24Z</time>
      </trkpt>
      <trkpt lat="44.45241" lon="1.35687">
        <ele>141.3</ele>
        <time>2025-03-08T15:15:25Z</time>
      </trkpt>
      <trkpt lat="44.45239" lon="1.3569">
        <ele>141.4</ele>
        <time>2025-03-08T15:15:26Z</time>
      </trkpt>
      <trkpt lat="44.45236" lon="1.35692">
        <ele>141.4</ele>
        <time>2025-03-08T15:15:27Z</time>
      </trkpt>
      <trkpt lat="44.45234" lon="1.35695">
        <ele>141.5</ele>
        <time>2025-03-08T15:15:28Z</time>
      </trkpt>
      <trkpt lat="44.45231" lon="1.35697">
        <ele>141.6</ele>
        <time>2025-03-08T15:15:29Z</time>
      </trkpt>
      <trkpt lat="44.45229" lon="1.357">
        <ele>141.6</ele>
        <time>2025-03-08T15:15:30Z</time>
      </trkpt>
      <trkpt lat="44.45226" lon="1.35702">
        <ele>141.7</ele>
        <time>2025-03-08T15:15:31Z</time>
      </trkpt>
      <trkpt lat="44.45224" lon="1.35705">
        <ele>141.7</ele>
        <time>2025-03-08T15:15:32Z</time>
      </trkpt>
      <trkpt lat="44.45221" lon="1.35707">
        <ele>141.8</ele>
        <time>2025-03-08T15:15:33Z</time>
      </trkpt>
      <trkpt lat="44.45218" lon="1.3571">
        <ele>141.8</ele>
        <time>2025-03-08T15:15:34Z</time>
      </trkpt>
      <trkpt lat="44.45216" lon="1.35712">
        <ele>141.9</ele>
        <time>2025-03-08T15:15:35Z</time>
      </trkpt>
      <trkpt lat="44.45213" lon="1.35715">
        <ele>141.9</ele>
        <time>2025-03-08T15:15:36Z</time>
      </trkpt>
      <trkpt lat="44.4521" lon="1.35718">
        <ele>141.9</ele>
        <time>2025-03-08T15:15:37Z</time>
      </trkpt>
      <trkpt lat="44.45207" lon="1.35721">
        <ele>141.9</ele>
        <time>2025-03-08T15:15:38Z</time>
      </trkpt>
      <trkpt lat="44.45204" lon="1.35723">
        <ele>142</ele>
        <time>2025-03-08T15:15:39Z</time>
      </trkpt>
      <trkpt lat="44.45201" lon="1.35726">
        <ele>142</ele>
        <time>2025-03-08T15:15:40Z</time>
      </trkpt>
      <trkpt lat="44.45199" lon="1.35729">
        <ele>142</ele>
        <time>2025-03-08T15:15:41Z</time>
      </trkpt>
      <trkpt lat="44.45196" lon="1.35731">
        <ele>142</ele>
        <time>2025-03-08T15:15:42Z</time>
      </trkpt>
      <trkpt lat="44.45193" lon="1.35734">
        <ele>142</ele>
        <time>2025-03-08T15:15:43Z</time>
      </trkpt>
      <trkpt lat="44.4519" lon="1.35736">
        <ele>142.1</ele>
        <time>2025-03-08T15:15:44Z</time>
      </trkpt>
      <trkpt lat="44.45187" lon="1.35739">
        <ele>142.1</ele>
        <time>2025-03-08T15:15:45Z</time>
      </trkpt>
      <trkpt lat="44.45184" lon="1.35741">
        <ele>142.1</ele>
        <time>2025-03-08T15:15:46Z</time>
      </trkpt>
      <trkpt lat="44.45181" lon="1.35743">
        <ele>142.1</ele>
        <time>2025-03-08T15:15:47Z</time>
      </trkpt>
      <trkpt lat="44.45178" lon="1.35746">
        <ele>142.1</ele>
        <time>2025-03-08T15:15:48Z</time>
      </trkpt>
      <trkpt lat="44.45175" lon="1.35749">
        <ele>142.2</ele>
        <time>2025-03-08T15:15:49Z</time>
      </trkpt>
      <trkpt lat="44.45173" lon="1.35752">
        <ele>142.2</ele>
        <time>2025-03-08T15:15:50Z</time>
      </trkpt>
      <trkpt lat="44.4517" lon="1.35755">
        <ele>142.2</ele>
        <time>2025-03-08T15:15:51Z</time>
      </trkpt>
      <trkpt lat="44.45168" lon="1.35758">
        <ele>142.2</ele>
        <time>2025-03-08T15:15:52Z</time>
      </trkpt>
      <trkpt lat="44.45165" lon="1.35761">
        <ele>142.3</ele>
        <time>2025-03-08T15:15:53Z</time>
      </trkpt>
      <trkpt lat="44.45162" lon="1.35764">
        <ele>142.3</ele>
        <time>2025-03-08T15:15:54Z</time>
      </trkpt>
      <trkpt lat="44.4516" lon="1.35768">
        <ele>142.3</ele>
        <time>2025-03-08T15:15:55Z</time>
      </trkpt>
      <trkpt lat="44.45158" lon="1.35771">
        <ele>142.3</ele>
        <time>2025-03-08T15:15:56Z</time>
      </trkpt>
      <trkpt lat="44.45156" lon="1.35775">
        <ele>142.4</ele>
        <time>2025-03-08T15:15:57Z</time>
      </trkpt>
      <trkpt lat="44.45154" lon="1.35779">
        <ele>142.4</ele>
        <time>2025-03-08T15:15:58Z</time>
      </trkpt>
      <trkpt lat="44.45153" lon="1.35784">
        <ele>142.4</ele>
        <time>2025-03-08T15:15:59Z</time>
      </trkpt>
      <trkpt lat="44.45151" lon="1.35788">
        <ele>142.4</ele>
        <time>2025-03-08T15:16:00Z</time>
      </trkpt>
      <trkpt lat="44.4515" lon="1.35793">
        <ele>142.4</ele>
        <time>2025-03-08T15:16:01Z</time>
      </trkpt>
      <trkpt lat="44.45148" lon="1.35797">
        <ele>142.5</ele>
        <time>2025-03-08T15:16:02Z</time>
      </trkpt>
      <trkpt lat="44.45147" lon="1.35801">
        <ele>142.5</ele>
        <time>2025-03-08T15:16:03Z</time>
      </trkpt>
      <trkpt lat="44.45146" lon="1.35806">
        <ele>142.5</ele>
        <time>2025-03-08T15:16:04Z</time>
      </trkpt>
      <trkpt lat="44.45145" lon="1.3581">
        <ele>142.5</ele>
        <time>2025-03-08T15:16:05Z</time>
      </trkpt>
      <trkpt lat="44.45143" lon="1.35814">
        <ele>142.5</ele>
        <time>2025-03-08T15:16:06Z</time>
      </trkpt>
      <trkpt lat="44.45142" lon="1.35818">
        <ele>142.5</ele>
        <time>2025-03-08T15:16:07Z</time>
      </trkpt>
      <trkpt lat="44.45142" lon="1.35823">
        <ele>142.5</ele>
        <time>2025-03-08T15:16:08Z</time>
      </trkpt>
      <trkpt lat="44.45141" lon="1.35828">
        <ele>142.4</ele>
        <time>2025-03-08T15:16:09Z</time>
      </trkpt>
      <trkpt lat="44.45141" lon="1.35833">
        <ele>142.4</ele>
        <time>2025-03-08T15:16:10Z</time>
      </trkpt>
      <trkpt lat="44.45141" lon="1.35838">
        <ele>142.4</ele>
        <time>2025-03-08T15:16:11Z</time>
      </trkpt>
      <trkpt lat="44.45141" lon="1.35843">
        <ele>142.4</ele>
        <time>2025-03-08T15:16:12Z</time>
      </trkpt>
      <trkpt lat="44.45141" lon="1.35849">
        <ele>142.3</ele>
        <time>2025-03-08T15:16:13Z</time>
      </trkpt>
      <trkpt lat="44.45141" lon="1.35854">
        <ele>142.3</ele>
        <time>2025-03-08T15:16:14Z</time>
      </trkpt>
      <trkpt lat="44.45141" lon="1.3586">
        <ele>142.3</ele>
        <time>2025-03-08T15:16:15Z</time>
      </trkpt>
      <trkpt lat="44.45141" lon="1.35864">
        <ele>142.2</ele>
        <time>2025-03-08T15:16:16Z</time>
      </trkpt>
      <trkpt lat="44.4514" lon="1.35869">
        <ele>142.2</ele>
        <time>2025-03-08T15:16:17Z</time>
      </trkpt>
      <trkpt lat="44.45139" lon="1.35875">
        <ele>142.1</ele>
        <time>2025-03-08T15:16:18Z</time>
      </trkpt>
      <trkpt lat="44.45138" lon="1.3588">
        <ele>142.1</ele>
        <time>2025-03-08T15:16:19Z</time>
      </trkpt>
      <trkpt lat="44.45137" lon="1.35885">
        <ele>142</ele>
        <time>2025-03-08T15:16:20Z</time>
      </trkpt>
      <trkpt lat="44.45134" lon="1.35889">
        <ele>142</ele>
        <time>2025-03-08T15:16:21Z</time>
      </trkpt>
      <trkpt lat="44.45131" lon="1.35893">
        <ele>142</ele>
        <time>2025-03-08T15:16:22Z</time>
      </trkpt>
      <trkpt lat="44.45128" lon="1.35896">
        <ele>142</ele>
        <time>2025-03-08T15:16:23Z</time>
      </trkpt>
      <trkpt lat="44.45125" lon="1.35899">
        <ele>142</ele>
        <time>2025-03-08T15:16:24Z</time>
      </trkpt>
      <trkpt lat="44.45122" lon="1.35901">
        <ele>142</ele>
        <time>2025-03-08T15:16:25Z</time>
      </trkpt>
      <trkpt lat="44.45119" lon="1.35903">
        <ele>142</ele>
        <time>2025-03-08T15:16:26Z</time>
      </trkpt>
      <trkpt lat="44.45115" lon="1.35905">
        <ele>142</ele>
        <time>2025-03-08T15:16:27Z</time>
      </trkpt>
      <trkpt lat="44.45111" lon="1.35907">
        <ele>142</ele>
        <time>2025-03-08T15:16:28Z</time>
      </trkpt>
      <trkpt lat="44.45107" lon="1.35908">
        <ele>142</ele>
        <time>2025-03-08T15:16:29Z</time>
      </trkpt>
      <trkpt lat="44.45104" lon="1.3591">
        <ele>142.1</ele>
        <time>2025-03-08T15:16:30Z</time>
      </trkpt>
      <trkpt lat="44.451" lon="1.35911">
        <ele>142.1</ele>
        <time>2025-03-08T15:16:31Z</time>
      </trkpt>
      <trkpt lat="44.45096" lon="1.35912">
        <ele>142.1</ele>
        <time>2025-03-08T15:16:32Z</time>
      </trkpt>
      <trkpt lat="44.45092" lon="1.35913">
        <ele>142.2</ele>
        <time>2025-03-08T15:16:33Z</time>
      </trkpt>
      <trkpt lat="44.45088" lon="1.35914">
        <ele>142.2</ele>
        <time>2025-03-08T15:16:34Z</time>
      </trkpt>
      <trkpt lat="44.45084" lon="1.35915">
        <ele>142.3</ele>
        <time>2025-03-08T15:16:35Z</time>
      </trkpt>
      <trkpt lat="44.4508" lon="1.35917">
        <ele>142.4</ele>
        <time>2025-03-08T15:16:36Z</time>
      </trkpt>
      <trkpt lat="44.45076" lon="1.35919">
        <ele>142.5</ele>
        <time>2025-03-08T15:16:37Z</time>
      </trkpt>
      <trkpt lat="44.45072" lon="1.3592">
        <ele>142.6</ele>
        <time>2025-03-08T15:16:38Z</time>
      </trkpt>
      <trkpt lat="44.45069" lon="1.35922">
        <ele>142.7</ele>
        <time>2025-03-08T15:16:39Z</time>
      </trkpt>
      <trkpt lat="44.45065" lon="1.35924">
        <ele>142.8</ele>
        <time>2025-03-08T15:16:40Z</time>
      </trkpt>
      <trkpt lat="44.45061" lon="1.35926">
        <ele>142.9</ele>
        <time>2025-03-08T15:16:41Z</time>
      </trkpt>
      <trkpt lat="44.45058" lon="1.35929">
        <ele>143</ele>
        <time>2025-03-08T15:16:42Z</time>
      </trkpt>
      <trkpt lat="44.45054" lon="1.35931">
        <ele>143.1</ele>
        <time>2025-03-08T15:16:43Z</time>
      </trkpt>
      <trkpt lat="44.45051" lon="1.35933">
        <ele>143.2</ele>
        <time>2025-03-08T15:16:44Z</time>
      </trkpt>
      <trkpt lat="44.45048" lon="1.35936">
        <ele>143.3</ele>
        <time>2025-03-08T15:16:45Z</time>
      </trkpt>
      <trkpt lat="44.45045" lon="1.35939">
        <ele>143.4</ele>
        <time>2025-03-08T15:16:46Z</time>
      </trkpt>
      <trkpt lat="44.45042" lon="1.35941">
        <ele>143.4</ele>
        <time>2025-03-08T15:16:47Z</time>
      </trkpt>
      <trkpt lat="44.45038" lon="1.35943">
        <ele>143.5</ele>
        <time>2025-03-08T15:16:48Z</time>
      </trkpt>
      <trkpt lat="44.45035" lon="1.35946">
        <ele>143.6</ele>
        <time>2025-03-08T15:16:49Z</time>
      </trkpt>
      <trkpt lat="44.45032" lon="1.35948">
        <ele>143.7</ele>
        <time>2025-03-08T15:16:50Z</time>
      </trkpt>
      <trkpt lat="44.45029" lon="1.35951">
        <ele>143.8</ele>
        <time>2025-03-08T15:16:51Z</time>
      </trkpt>
      <trkpt lat="44.45026" lon="1.35953">
        <ele>143.9</ele>
        <time>2025-03-08T15:16:52Z</time>
      </trkpt>
      <trkpt lat="44.45023" lon="1.35956">
        <ele>144</ele>
        <time>2025-03-08T15:16:53Z</time>
      </trkpt>
      <trkpt lat="44.4502" lon="1.35959">
        <ele>144.1</ele>
        <time>2025-03-08T15:16:54Z</time>
      </trkpt>
      <trkpt lat="44.45017" lon="1.35961">
        <ele>144.2</ele>
        <time>2025-03-08T15:16:55Z</time>
      </trkpt>
      <trkpt lat="44.45015" lon="1.35962">
        <ele>144.2</ele>
        <time>2025-03-08T15:16:56Z</time>
      </trkpt>
      <trkpt lat="44.45012" lon="1.35965">
        <ele>144.3</ele>
        <time>2025-03-08T15:16:57Z</time>
      </trkpt>
      <trkpt lat="44.45009" lon="1.35967">
        <ele>144.4</ele>
        <time>2025-03-08T15:16:58Z</time>
      </trkpt>
      <trkpt lat="44.45006" lon="1.35969">
        <ele>144.5</ele>
        <time>2025-03-08T15:16:59Z</time>
      </trkpt>
      <trkpt lat="44.45002" lon="1.35971">
        <ele>144.6</ele>
        <time>2025-03-08T15:17:00Z</time>
      </trkpt>
      <trkpt lat="44.44999" lon="1.35972">
        <ele>144.6</ele>
        <time>2025-03-08T15:17:01Z</time>
      </trkpt>
      <trkpt lat="44.44996" lon="1.35974">
        <ele>144.7</ele>
        <time>2025-03-08T15:17:02Z</time>
      </trkpt>
      <trkpt lat="44.44992" lon="1.35976">
        <ele>144.8</ele>
        <time>2025-03-08T15:17:03Z</time>
      </trkpt>
      <trkpt lat="44.44989" lon="1.35978">
        <ele>144.9</ele>
        <time>2025-03-08T15:17:04Z</time>
      </trkpt>
      <trkpt lat="44.44985" lon="1.35979">
        <ele>145</ele>
        <time>2025-03-08T15:17:05Z</time>
      </trkpt>
      <trkpt lat="44.44982" lon="1.35981">
        <ele>145.1</ele>
        <time>2025-03-08T15:17:06Z</time>
      </trkpt>
      <trkpt lat="44.44979" lon="1.35982">
        <ele>145.2</ele>
        <time>2025-03-08T15:17:07Z</time>
      </trkpt>
      <trkpt lat="44.44975" lon="1.35983">
        <ele>145.3</ele>
        <time>2025-03-08T15:17:08Z</time>
      </trkpt>
      <trkpt lat="44.44971" lon="1.35985">
        <ele>145.5</ele>
        <time>2025-03-08T15:17:09Z</time>
      </trkpt>
      <trkpt lat="44.44967" lon="1.35988">
        <ele>145.6</ele>
        <time>2025-03-08T15:17:10Z</time>
      </trkpt>
      <trkpt lat="44.44963" lon="1.3599">
        <ele>145.6</ele>
        <time>2025-03-08T15:17:11Z</time>
      </trkpt>
      <trkpt lat="44.4496" lon="1.35992">
        <ele>145.7</ele>
        <time>2025-03-08T15:17:12Z</time>
      </trkpt>
      <trkpt lat="44.44957" lon="1.35994">
        <ele>145.8</ele>
        <time>2025-03-08T15:17:13Z</time>
      </trkpt>
      <trkpt lat="44.44954" lon="1.35996">
        <ele>145.8</ele>
        <time>2025-03-08T15:17:14Z</time>
      </trkpt>
      <trkpt lat="44.4495" lon="1.35998">
        <ele>145.9</ele>
        <time>2025-03-08T15:17:15Z</time>
      </trkpt>
      <trkpt lat="44.44947" lon="1.36">
        <ele>145.9</ele>
        <time>2025-03-08T15:17:16Z</time>
      </trkpt>
      <trkpt lat="44.44944" lon="1.36003">
        <ele>146</ele>
        <time>2025-03-08T15:17:17Z</time>
      </trkpt>
      <trkpt lat="44.44941" lon="1.36005">
        <ele>146</ele>
        <time>2025-03-08T15:17:18Z</time>
      </trkpt>
      <trkpt lat="44.44937" lon="1.36008">
        <ele>146.1</ele>
        <time>2025-03-08T15:17:19Z</time>
      </trkpt>
      <trkpt lat="44.44934" lon="1.3601">
        <ele>146.1</ele>
        <time>2025-03-08T15:17:20Z</time>
      </trkpt>
      <trkpt lat="44.44931" lon="1.36012">
        <ele>146.2</ele>
        <time>2025-03-08T15:17:21Z</time>
      </trkpt>
      <trkpt lat="44.44927" lon="1.36014">
        <ele>146.3</ele>
        <time>2025-03-08T15:17:22Z</time>
      </trkpt>
      <trkpt lat="44.44924" lon="1.36016">
        <ele>146.3</ele>
        <time>2025-03-08T15:17:23Z</time>
      </trkpt>
      <trkpt lat="44.44921" lon="1.36018">
        <ele>146.4</ele>
        <time>2025-03-08T15:17:24Z</time>
      </trkpt>
      <trkpt lat="44.44917" lon="1.3602">
        <ele>146.4</ele>
        <time>2025-03-08T15:17:25Z</time>
      </trkpt>
      <trkpt lat="44.44914" lon="1.36023">
        <ele>146.5</ele>
        <time>2025-03-08T15:17:26Z</time>
      </trkpt>
      <trkpt lat="44.4491" lon="1.36025">
        <ele>146.6</ele>
        <time>2025-03-08T15:17:27Z</time>
      </trkpt>
      <trkpt lat="44.44906" lon="1.36027">
        <ele>146.6</ele>
        <time>2025-03-08T15:17:28Z</time>
      </trkpt>
      <trkpt lat="44.44902" lon="1.36029">
        <ele>146.7</ele>
        <time>2025-03-08T15:17:29Z</time>
      </trkpt>
      <trkpt lat="44.44898" lon="1.36031">
        <ele>146.7</ele>
        <time>2025-03-08T15:17:30Z</time>
      </trkpt>
      <trkpt lat="44.44894" lon="1.36033">
        <ele>146.8</ele>
        <time>2025-03-08T15:17:31Z</time>
      </trkpt>
      <trkpt lat="44.44891" lon="1.36035">
        <ele>146.8</ele>
        <time>2025-03-08T15:17:32Z</time>
      </trkpt>
      <trkpt lat="44.44887" lon="1.36037">
        <ele>146.9</ele>
        <time>2025-03-08T15:17:33Z</time>
      </trkpt>
      <trkpt lat="44.44884" lon="1.36039">
        <ele>146.9</ele>
        <time>2025-03-08T15:17:34Z</time>
      </trkpt>
      <trkpt lat="44.4488" lon="1.36041">
        <ele>147</ele>
        <time>2025-03-08T15:17:35Z</time>
      </trkpt>
      <trkpt lat="44.44877" lon="1.36044">
        <ele>147</ele>
        <time>2025-03-08T15:17:36Z</time>
      </trkpt>
      <trkpt lat="44.44872" lon="1.36047">
        <ele>147.1</ele>
        <time>2025-03-08T15:17:37Z</time>
      </trkpt>
      <trkpt lat="44.44869" lon="1.36049">
        <ele>147.1</ele>
        <time>2025-03-08T15:17:38Z</time>
      </trkpt>
      <trkpt lat="44.44866" lon="1.36051">
        <ele>147.1</ele>
        <time>2025-03-08T15:17:39Z</time>
      </trkpt>
      <trkpt lat="44.44863" lon="1.36053">
        <ele>147.2</ele>
        <time>2025-03-08T15:17:40Z</time>
      </trkpt>
      <trkpt lat="44.4486" lon="1.36055">
        <ele>147.2</ele>
        <time>2025-03-08T15:17:41Z</time>
      </trkpt>
      <trkpt lat="44.44857" lon="1.36057">
        <ele>147.2</ele>
        <time>2025-03-08T15:17:42Z</time>
      </trkpt>
      <trkpt lat="44.44854" lon="1.36058">
        <ele>147.2</ele>
        <time>2025-03-08T15:17:43Z</time>
      </trkpt>
      <trkpt lat="44.44851" lon="1.3606">
        <ele>147.2</ele>
        <time>2025-03-08T15:17:44Z</time>
      </trkpt>
      <trkpt lat="44.44848" lon="1.36062">
        <ele>147.2</ele>
        <time>2025-03-08T15:17:45Z</time>
      </trkpt>
      <trkpt lat="44.44845" lon="1.36064">
        <ele>147.2</ele>
        <time>2025-03-08T15:17:46Z</time>
      </trkpt>
      <trkpt lat="44.44845" lon="1.36064">
        <ele>147.2</ele>
        <time>2025-03-08T15:17:47Z</time>
      </trkpt>
      <trkpt lat="44.44846" lon="1.36063">
        <ele>147.2</ele>
        <time>2025-03-08T15:17:48Z</time>
      </trkpt>
      <trkpt lat="44.44847" lon="1.36062">
        <ele>147</ele>
        <time>2025-03-08T15:17:49Z</time>
      </trkpt>
      <trkpt lat="44.44848" lon="1.36061">
        <ele>146.8</ele>
        <time>2025-03-08T15:17:50Z</time>
      </trkpt>
      <trkpt lat="44.44849" lon="1.36059">
        <ele>146.7</ele>
        <time>2025-03-08T15:17:51Z</time>
      </trkpt>
      <trkpt lat="44.44851" lon="1.36056">
        <ele>146.4</ele>
        <time>2025-03-08T15:17:52Z</time>
      </trkpt>
      <trkpt lat="44.44851" lon="1.36052">
        <ele>146.1</ele>
        <time>2025-03-08T15:17:53Z</time>
      </trkpt>
      <trkpt lat="44.4485" lon="1.36048">
        <ele>145.8</ele>
        <time>2025-03-08T15:17:54Z</time>
      </trkpt>
      <trkpt lat="44.44849" lon="1.36045">
        <ele>145.5</ele>
        <time>2025-03-08T15:17:55Z</time>
      </trkpt>
      <trkpt lat="44.44846" lon="1.36041">
        <ele>145.3</ele>
        <time>2025-03-08T15:17:56Z</time>
      </trkpt>
      <trkpt lat="44.44845" lon="1.36036">
        <ele>145.1</ele>
        <time>2025-03-08T15:17:57Z</time>
      </trkpt>
      <trkpt lat="44.44844" lon="1.36031">
        <ele>144.9</ele>
        <time>2025-03-08T15:17:58Z</time>
      </trkpt>
      <trkpt lat="44.44843" lon="1.3603">
        <ele>144.9</ele>
        <time>2025-03-08T15:17:59Z</time>
      </trkpt>
      <trkpt lat="44.44843" lon="1.36028">
        <ele>144.9</ele>
        <time>2025-03-08T15:18:00Z</time>
      </trkpt>
      <trkpt lat="44.44842" lon="1.36028">
        <ele>144.9</ele>
        <time>2025-03-08T15:18:01Z</time>
      </trkpt>
      <trkpt lat="44.44842" lon="1.36028">
        <ele>144.9</ele>
        <time>2025-03-08T15:18:02Z</time>
      </trkpt>
      <trkpt lat="44.44842" lon="1.36028">
        <ele>144.9</ele>
        <time>2025-03-08T15:18:03Z</time>
      </trkpt>
      <trkpt lat="44.44842" lon="1.36028">
        <ele>144.9</ele>
        <time>2025-03-08T15:18:04Z</time>
      </trkpt>
      <trkpt lat="44.44842" lon="1.36028">
        <ele>144.9</ele>
        <time>2025-03-08T15:18:05Z</time>
      </trkpt>
      <trkpt lat="44.44841" lon="1.36028">
        <ele>144.9</ele>
        <time>2025-03-08T15:18:06Z</time>
      </trkpt>
      <trkpt lat="44.44841" lon="1.36028">
        <ele>144.9</ele>
        <time>2025-03-08T15:18:07Z</time>
      </trkpt>
      <trkpt lat="44.44841" lon="1.36028">
        <ele>144.9</ele>
        <time>2025-03-08T15:18:08Z</time>
      </trkpt>
      <trkpt lat="44.44841" lon="1.36028">
        <ele>144.9</ele>
        <time>2025-03-08T15:18:09Z</time>
      </trkpt>
      <trkpt lat="44.4484" lon="1.36028">
        <ele>144.9</ele>
        <time>2025-03-08T15:18:10Z</time>
      </trkpt>
      <trkpt lat="44.4484" lon="1.36028">
        <ele>144.8</ele>
        <time>2025-03-08T15:18:11Z</time>
      </trkpt>
      <trkpt lat="44.44839" lon="1.36026">
        <ele>144.8</ele>
        <time>2025-03-08T15:18:12Z</time>
      </trkpt>
      <trkpt lat="44.44839" lon="1.36025">
        <ele>144.8</ele>
        <time>2025-03-08T15:18:13Z</time>
      </trkpt>
      <trkpt lat="44.44839" lon="1.36024">
        <ele>144.8</ele>
        <time>2025-03-08T15:18:14Z</time>
      </trkpt>
      <trkpt lat="44.44839" lon="1.36024">
        <ele>144.8</ele>
        <time>2025-03-08T15:18:15Z</time>
      </trkpt>
      <trkpt lat="44.4484" lon="1.36024">
        <ele>144.8</ele>
        <time>2025-03-08T15:18:16Z</time>
      </trkpt>
      <trkpt lat="44.44841" lon="1.36024">
        <ele>144.9</ele>
        <time>2025-03-08T15:18:17Z</time>
      </trkpt>
      <trkpt lat="44.44841" lon="1.36024">
        <ele>144.9</ele>
        <time>2025-03-08T15:18:18Z</time>
      </trkpt>
      <trkpt lat="44.44841" lon="1.36024">
        <ele>144.9</ele>
        <time>2025-03-08T15:18:19Z</time>
      </trkpt>
      <trkpt lat="44.44841" lon="1.36024">
        <ele>144.9</ele>
        <time>2025-03-08T15:18:20Z</time>
      </trkpt>
      <trkpt lat="44.44841" lon="1.36024">
        <ele>144.9</ele>
        <time>2025-03-08T15:18:21Z</time>
      </trkpt>
      <trkpt lat="44.44841" lon="1.36024">
        <ele>144.9</ele>
        <time>2025-03-08T15:18:22Z</time>
      </trkpt>
      <trkpt lat="44.44841" lon="1.36024">
        <ele>144.9</ele>
        <time>2025-03-08T15:18:23Z</time>
      </trkpt>
      <trkpt lat="44.44841" lon="1.36024">
        <ele>144.9</ele>
        <time>2025-03-08T15:18:24Z</time>
      </trkpt>
      <trkpt lat="44.44841" lon="1.36024">
        <ele>144.9</ele>
        <time>2025-03-08T15:18:25Z</time>
      </trkpt>
      <trkpt lat="44.44841" lon="1.36024">
        <ele>144.9</ele>
        <time>2025-03-08T15:18:26Z</time>
      </trkpt>
      <trkpt lat="44.44841" lon="1.36024">
        <ele>144.9</ele>
        <time>2025-03-08T15:18:27Z</time>
      </trkpt>
      <trkpt lat="44.44841" lon="1.36024">
        <ele>144.9</ele>
        <time>2025-03-08T15:18:28Z</time>
      </trkpt>
      <trkpt lat="44.44841" lon="1.36024">
        <ele>144.9</ele>
        <time>2025-03-08T15:18:29Z</time>
      </trkpt>
      <trkpt lat="44.44841" lon="1.36024">
        <ele>144.9</ele>
        <time>2025-03-08T15:18:30Z</time>
      </trkpt>
      <trkpt lat="44.44841" lon="1.36024">
        <ele>144.9</ele>
        <time>2025-03-08T15:18:31Z</time>
      </trkpt>
      <trkpt lat="44.44841" lon="1.36024">
        <ele>144.9</ele>
        <time>2025-03-08T15:18:32Z</time>
      </trkpt>
      <trkpt lat="44.44841" lon="1.36022">
        <ele>144.9</ele>
        <time>2025-03-08T15:18:33Z</time>
      </trkpt>
      <trkpt lat="44.44841" lon="1.36021">
        <ele>144.9</ele>
        <time>2025-03-08T15:18:34Z</time>
      </trkpt>
      <trkpt lat="44.4484" lon="1.3602">
        <ele>144.9</ele>
        <time>2025-03-08T15:18:35Z</time>
      </trkpt>
      <trkpt lat="44.44839" lon="1.36019">
        <ele>145</ele>
        <time>2025-03-08T15:18:36Z</time>
      </trkpt>
      <trkpt lat="44.44837" lon="1.36019">
        <ele>145.1</ele>
        <time>2025-03-08T15:18:37Z</time>
      </trkpt>
      <trkpt lat="44.44836" lon="1.3602">
        <ele>145.1</ele>
        <time>2025-03-08T15:18:38Z</time>
      </trkpt>
      <trkpt lat="44.44836" lon="1.3602">
        <ele>145.1</ele>
        <time>2025-03-08T15:18:39Z</time>
      </trkpt>
      <trkpt lat="44.44836" lon="1.36019">
        <ele>145.1</ele>
        <time>2025-03-08T15:18:40Z</time>
      </trkpt>
      <trkpt lat="44.44835" lon="1.36019">
        <ele>145.2</ele>
        <time>2025-03-08T15:18:41Z</time>
      </trkpt>
      <trkpt lat="44.44835" lon="1.36018">
        <ele>145.2</ele>
        <time>2025-03-08T15:18:42Z</time>
      </trkpt>
      <trkpt lat="44.44835" lon="1.36018">
        <ele>145.2</ele>
        <time>2025-03-08T15:18:43Z</time>
      </trkpt>
      <trkpt lat="44.44835" lon="1.36017">
        <ele>145.2</ele>
        <time>2025-03-08T15:18:44Z</time>
      </trkpt>
      <trkpt lat="44.44835" lon="1.36017">
        <ele>145.2</ele>
        <time>2025-03-08T15:18:45Z</time>
      </trkpt>
      <trkpt lat="44.44835" lon="1.36017">
        <ele>145.3</ele>
        <time>2025-03-08T15:18:46Z</time>
      </trkpt>
      <trkpt lat="44.44834" lon="1.36016">
        <ele>145.3</ele>
        <time>2025-03-08T15:18:47Z</time>
      </trkpt>
      <trkpt lat="44.44834" lon="1.36016">
        <ele>145.3</ele>
        <time>2025-03-08T15:18:48Z</time>
      </trkpt>
      <trkpt lat="44.44834" lon="1.36015">
        <ele>145.3</ele>
        <time>2025-03-08T15:18:49Z</time>
      </trkpt>
      <trkpt lat="44.44833" lon="1.36014">
        <ele>145.4</ele>
        <time>2025-03-08T15:18:50Z</time>
      </trkpt>
      <trkpt lat="44.44832" lon="1.36012">
        <ele>145.5</ele>
        <time>2025-03-08T15:18:51Z</time>
      </trkpt>
      <trkpt lat="44.44831" lon="1.3601">
        <ele>145.7</ele>
        <time>2025-03-08T15:18:52Z</time>
      </trkpt>
      <trkpt lat="44.4483" lon="1.36008">
        <ele>145.8</ele>
        <time>2025-03-08T15:18:53Z</time>
      </trkpt>
      <trkpt lat="44.44829" lon="1.36006">
        <ele>146</ele>
        <time>2025-03-08T15:18:54Z</time>
      </trkpt>
      <trkpt lat="44.44828" lon="1.36005">
        <ele>146.1</ele>
        <time>2025-03-08T15:18:55Z</time>
      </trkpt>
      <trkpt lat="44.44828" lon="1.36004">
        <ele>146.2</ele>
        <time>2025-03-08T15:18:56Z</time>
      </trkpt>
      <trkpt lat="44.44826" lon="1.36001">
        <ele>146.4</ele>
        <time>2025-03-08T15:18:57Z</time>
      </trkpt>
      <trkpt lat="44.44825" lon="1.36">
        <ele>146.6</ele>
        <time>2025-03-08T15:18:58Z</time>
      </trkpt>
      <trkpt lat="44.44823" lon="1.35998">
        <ele>146.8</ele>
        <time>2025-03-08T15:18:59Z</time>
      </trkpt>
      <trkpt lat="44.4482" lon="1.35995">
        <ele>147.2</ele>
        <time>2025-03-08T15:19:00Z</time>
      </trkpt>
      <trkpt lat="44.44819" lon="1.35995">
        <ele>147.3</ele>
        <time>2025-03-08T15:19:01Z</time>
      </trkpt>
      <trkpt lat="44.44818" lon="1.35995">
        <ele>147.5</ele>
        <time>2025-03-08T15:19:02Z</time>
      </trkpt>
      <trkpt lat="44.44816" lon="1.35995">
        <ele>147.7</ele>
        <time>2025-03-08T15:19:03Z</time>
      </trkpt>
      <trkpt lat="44.44813" lon="1.35995">
        <ele>148</ele>
        <time>2025-03-08T15:19:04Z</time>
      </trkpt>
      <trkpt lat="44.4481" lon="1.35995">
        <ele>148.2</ele>
        <time>2025-03-08T15:19:05Z</time>
      </trkpt>
      <trkpt lat="44.44806" lon="1.35996">
        <ele>148.3</ele>
        <time>2025-03-08T15:19:06Z</time>
      </trkpt>
      <trkpt lat="44.44805" lon="1.35996">
        <ele>148.4</ele>
        <time>2025-03-08T15:19:07Z</time>
      </trkpt>
      <trkpt lat="44.44801" lon="1.35996">
        <ele>148.6</ele>
        <time>2025-03-08T15:19:08Z</time>
      </trkpt>
      <trkpt lat="44.448" lon="1.35996">
        <ele>148.6</ele>
        <time>2025-03-08T15:19:09Z</time>
      </trkpt>
      <trkpt lat="44.44799" lon="1.35997">
        <ele>148.7</ele>
        <time>2025-03-08T15:19:10Z</time>
      </trkpt>
      <trkpt lat="44.44797" lon="1.35996">
        <ele>148.8</ele>
        <time>2025-03-08T15:19:11Z</time>
      </trkpt>
      <trkpt lat="44.44796" lon="1.35996">
        <ele>148.9</ele>
        <time>2025-03-08T15:19:12Z</time>
      </trkpt>
      <trkpt lat="44.44794" lon="1.35996">
        <ele>149</ele>
        <time>2025-03-08T15:19:13Z</time>
      </trkpt>
      <trkpt lat="44.44791" lon="1.35995">
        <ele>149.2</ele>
        <time>2025-03-08T15:19:14Z</time>
      </trkpt>
      <trkpt lat="44.44789" lon="1.35995">
        <ele>149.2</ele>
        <time>2025-03-08T15:19:15Z</time>
      </trkpt>
      <trkpt lat="44.44786" lon="1.35995">
        <ele>149.4</ele>
        <time>2025-03-08T15:19:16Z</time>
      </trkpt>
      <trkpt lat="44.44785" lon="1.35995">
        <ele>149.4</ele>
        <time>2025-03-08T15:19:17Z</time>
      </trkpt>
      <trkpt lat="44.44782" lon="1.35996">
        <ele>149.5</ele>
        <time>2025-03-08T15:19:18Z</time>
      </trkpt>
      <trkpt lat="44.44779" lon="1.35998">
        <ele>149.5</ele>
        <time>2025-03-08T15:19:19Z</time>
      </trkpt>
      <trkpt lat="44.44778" lon="1.35999">
        <ele>149.5</ele>
        <time>2025-03-08T15:19:20Z</time>
      </trkpt>
      <trkpt lat="44.44775" lon="1.35999">
        <ele>149.4</ele>
        <time>2025-03-08T15:19:21Z</time>
      </trkpt>
      <trkpt lat="44.44772" lon="1.36001">
        <ele>149.3</ele>
        <time>2025-03-08T15:19:22Z</time>
      </trkpt>
      <trkpt lat="44.44768" lon="1.36002">
        <ele>149.2</ele>
        <time>2025-03-08T15:19:23Z</time>
      </trkpt>
      <trkpt lat="44.44763" lon="1.36003">
        <ele>149.1</ele>
        <time>2025-03-08T15:19:24Z</time>
      </trkpt>
      <trkpt lat="44.44758" lon="1.36006">
        <ele>149</ele>
        <time>2025-03-08T15:19:25Z</time>
      </trkpt>
      <trkpt lat="44.44754" lon="1.36006">
        <ele>149</ele>
        <time>2025-03-08T15:19:26Z</time>
      </trkpt>
      <trkpt lat="44.4475" lon="1.36007">
        <ele>149</ele>
        <time>2025-03-08T15:19:27Z</time>
      </trkpt>
      <trkpt lat="44.44746" lon="1.36008">
        <ele>149</ele>
        <time>2025-03-08T15:19:28Z</time>
      </trkpt>
      <trkpt lat="44.44742" lon="1.36009">
        <ele>149.1</ele>
        <time>2025-03-08T15:19:29Z</time>
      </trkpt>
      <trkpt lat="44.44739" lon="1.36009">
        <ele>149.2</ele>
        <time>2025-03-08T15:19:30Z</time>
      </trkpt>
      <trkpt lat="44.44738" lon="1.36009">
        <ele>149.2</ele>
        <time>2025-03-08T15:19:31Z</time>
      </trkpt>
      <trkpt lat="44.44736" lon="1.36007">
        <ele>149.3</ele>
        <time>2025-03-08T15:19:32Z</time>
      </trkpt>
      <trkpt lat="44.44734" lon="1.36007">
        <ele>149.3</ele>
        <time>2025-03-08T15:19:33Z</time>
      </trkpt>
      <trkpt lat="44.44731" lon="1.36006">
        <ele>149.4</ele>
        <time>2025-03-08T15:19:34Z</time>
      </trkpt>
      <trkpt lat="44.44728" lon="1.36005">
        <ele>149.6</ele>
        <time>2025-03-08T15:19:35Z</time>
      </trkpt>
      <trkpt lat="44.44725" lon="1.36003">
        <ele>149.8</ele>
        <time>2025-03-08T15:19:36Z</time>
      </trkpt>
      <trkpt lat="44.44723" lon="1.36001">
        <ele>150</ele>
        <time>2025-03-08T15:19:37Z</time>
      </trkpt>
      <trkpt lat="44.4472" lon="1.36">
        <ele>150.1</ele>
        <time>2025-03-08T15:19:38Z</time>
      </trkpt>
      <trkpt lat="44.44717" lon="1.35999">
        <ele>150.3</ele>
        <time>2025-03-08T15:19:39Z</time>
      </trkpt>
      <trkpt lat="44.44716" lon="1.35999">
        <ele>150.4</ele>
        <time>2025-03-08T15:19:40Z</time>
      </trkpt>
      <trkpt lat="44.44712" lon="1.35997">
        <ele>150.6</ele>
        <time>2025-03-08T15:19:41Z</time>
      </trkpt>
      <trkpt lat="44.44711" lon="1.35997">
        <ele>150.6</ele>
        <time>2025-03-08T15:19:42Z</time>
      </trkpt>
      <trkpt lat="44.44708" lon="1.35996">
        <ele>150.7</ele>
        <time>2025-03-08T15:19:43Z</time>
      </trkpt>
      <trkpt lat="44.44705" lon="1.35996">
        <ele>150.7</ele>
        <time>2025-03-08T15:19:44Z</time>
      </trkpt>
      <trkpt lat="44.44701" lon="1.35996">
        <ele>150.7</ele>
        <time>2025-03-08T15:19:45Z</time>
      </trkpt>
      <trkpt lat="44.44698" lon="1.35996">
        <ele>150.7</ele>
        <time>2025-03-08T15:19:46Z</time>
      </trkpt>
      <trkpt lat="44.44692" lon="1.35999">
        <ele>150.6</ele>
        <time>2025-03-08T15:19:47Z</time>
      </trkpt>
      <trkpt lat="44.44688" lon="1.36">
        <ele>150.5</ele>
        <time>2025-03-08T15:19:48Z</time>
      </trkpt>
      <trkpt lat="44.44684" lon="1.36">
        <ele>150.4</ele>
        <time>2025-03-08T15:19:49Z</time>
      </trkpt>
      <trkpt lat="44.4468" lon="1.35999">
        <ele>150.4</ele>
        <time>2025-03-08T15:19:50Z</time>
      </trkpt>
      <trkpt lat="44.44676" lon="1.35998">
        <ele>150.4</ele>
        <time>2025-03-08T15:19:51Z</time>
      </trkpt>
      <trkpt lat="44.44672" lon="1.35997">
        <ele>150.4</ele>
        <time>2025-03-08T15:19:52Z</time>
      </trkpt>
      <trkpt lat="44.44669" lon="1.35995">
        <ele>150.5</ele>
        <time>2025-03-08T15:19:53Z</time>
      </trkpt>
      <trkpt lat="44.44666" lon="1.35995">
        <ele>150.6</ele>
        <time>2025-03-08T15:19:54Z</time>
      </trkpt>
      <trkpt lat="44.44663" lon="1.35993">
        <ele>150.7</ele>
        <time>2025-03-08T15:19:55Z</time>
      </trkpt>
      <trkpt lat="44.44661" lon="1.3599">
        <ele>150.8</ele>
        <time>2025-03-08T15:19:56Z</time>
      </trkpt>
      <trkpt lat="44.44658" lon="1.35988">
        <ele>150.9</ele>
        <time>2025-03-08T15:19:57Z</time>
      </trkpt>
      <trkpt lat="44.44656" lon="1.35987">
        <ele>150.9</ele>
        <time>2025-03-08T15:19:58Z</time>
      </trkpt>
      <trkpt lat="44.44653" lon="1.35987">
        <ele>151</ele>
        <time>2025-03-08T15:19:59Z</time>
      </trkpt>
      <trkpt lat="44.4465" lon="1.35987">
        <ele>151.1</ele>
        <time>2025-03-08T15:20:00Z</time>
      </trkpt>
      <trkpt lat="44.44647" lon="1.35987">
        <ele>151.2</ele>
        <time>2025-03-08T15:20:01Z</time>
      </trkpt>
      <trkpt lat="44.44644" lon="1.35985">
        <ele>151.3</ele>
        <time>2025-03-08T15:20:02Z</time>
      </trkpt>
      <trkpt lat="44.44641" lon="1.35983">
        <ele>151.3</ele>
        <time>2025-03-08T15:20:03Z</time>
      </trkpt>
      <trkpt lat="44.44639" lon="1.35981">
        <ele>151.4</ele>
        <time>2025-03-08T15:20:04Z</time>
      </trkpt>
      <trkpt lat="44.44635" lon="1.35979">
        <ele>151.5</ele>
        <time>2025-03-08T15:20:05Z</time>
      </trkpt>
      <trkpt lat="44.44634" lon="1.35978">
        <ele>151.5</ele>
        <time>2025-03-08T15:20:06Z</time>
      </trkpt>
      <trkpt lat="44.44631" lon="1.35977">
        <ele>151.6</ele>
        <time>2025-03-08T15:20:07Z</time>
      </trkpt>
      <trkpt lat="44.44628" lon="1.35976">
        <ele>151.7</ele>
        <time>2025-03-08T15:20:08Z</time>
      </trkpt>
      <trkpt lat="44.44625" lon="1.35974">
        <ele>151.8</ele>
        <time>2025-03-08T15:20:09Z</time>
      </trkpt>
      <trkpt lat="44.44624" lon="1.35974">
        <ele>151.8</ele>
        <time>2025-03-08T15:20:10Z</time>
      </trkpt>
      <trkpt lat="44.4462" lon="1.35973">
        <ele>152</ele>
        <time>2025-03-08T15:20:11Z</time>
      </trkpt>
      <trkpt lat="44.44617" lon="1.35972">
        <ele>152.1</ele>
        <time>2025-03-08T15:20:12Z</time>
      </trkpt>
      <trkpt lat="44.44613" lon="1.3597">
        <ele>152.3</ele>
        <time>2025-03-08T15:20:13Z</time>
      </trkpt>
      <trkpt lat="44.44611" lon="1.35968">
        <ele>152.4</ele>
        <time>2025-03-08T15:20:14Z</time>
      </trkpt>
      <trkpt lat="44.44608" lon="1.35967">
        <ele>152.6</ele>
        <time>2025-03-08T15:20:15Z</time>
      </trkpt>
      <trkpt lat="44.44605" lon="1.35966">
        <ele>152.8</ele>
        <time>2025-03-08T15:20:16Z</time>
      </trkpt>
      <trkpt lat="44.44601" lon="1.35966">
        <ele>153</ele>
        <time>2025-03-08T15:20:17Z</time>
      </trkpt>
      <trkpt lat="44.44598" lon="1.35964">
        <ele>153.3</ele>
        <time>2025-03-08T15:20:18Z</time>
      </trkpt>
      <trkpt lat="44.44596" lon="1.35964">
        <ele>153.4</ele>
        <time>2025-03-08T15:20:19Z</time>
      </trkpt>
      <trkpt lat="44.44594" lon="1.35961">
        <ele>153.7</ele>
        <time>2025-03-08T15:20:20Z</time>
      </trkpt>
      <trkpt lat="44.44591" lon="1.35959">
        <ele>153.8</ele>
        <time>2025-03-08T15:20:21Z</time>
      </trkpt>
      <trkpt lat="44.44589" lon="1.35957">
        <ele>154</ele>
        <time>2025-03-08T15:20:22Z</time>
      </trkpt>
      <trkpt lat="44.44588" lon="1.35956">
        <ele>154.1</ele>
        <time>2025-03-08T15:20:23Z</time>
      </trkpt>
      <trkpt lat="44.44585" lon="1.35953">
        <ele>154.2</ele>
        <time>2025-03-08T15:20:24Z</time>
      </trkpt>
      <trkpt lat="44.44584" lon="1.35952">
        <ele>154.3</ele>
        <time>2025-03-08T15:20:25Z</time>
      </trkpt>
      <trkpt lat="44.44581" lon="1.35951">
        <ele>154.4</ele>
        <time>2025-03-08T15:20:26Z</time>
      </trkpt>
      <trkpt lat="44.44578" lon="1.3595">
        <ele>154.4</ele>
        <time>2025-03-08T15:20:27Z</time>
      </trkpt>
      <trkpt lat="44.44576" lon="1.35949">
        <ele>154.4</ele>
        <time>2025-03-08T15:20:28Z</time>
      </trkpt>
      <trkpt lat="44.44573" lon="1.35949">
        <ele>154.5</ele>
        <time>2025-03-08T15:20:29Z</time>
      </trkpt>
      <trkpt lat="44.4457" lon="1.35948">
        <ele>154.4</ele>
        <time>2025-03-08T15:20:30Z</time>
      </trkpt>
      <trkpt lat="44.44565" lon="1.35947">
        <ele>154.4</ele>
        <time>2025-03-08T15:20:31Z</time>
      </trkpt>
      <trkpt lat="44.44564" lon="1.35947">
        <ele>154.3</ele>
        <time>2025-03-08T15:20:32Z</time>
      </trkpt>
      <trkpt lat="44.44559" lon="1.35947">
        <ele>154.3</ele>
        <time>2025-03-08T15:20:33Z</time>
      </trkpt>
      <trkpt lat="44.44555" lon="1.35947">
        <ele>154.2</ele>
        <time>2025-03-08T15:20:34Z</time>
      </trkpt>
      <trkpt lat="44.4455" lon="1.35946">
        <ele>154.1</ele>
        <time>2025-03-08T15:20:35Z</time>
      </trkpt>
      <trkpt lat="44.44547" lon="1.35945">
        <ele>154.1</ele>
        <time>2025-03-08T15:20:36Z</time>
      </trkpt>
      <trkpt lat="44.44544" lon="1.35944">
        <ele>154.1</ele>
        <time>2025-03-08T15:20:37Z</time>
      </trkpt>
      <trkpt lat="44.44541" lon="1.35943">
        <ele>154.1</ele>
        <time>2025-03-08T15:20:38Z</time>
      </trkpt>
      <trkpt lat="44.44538" lon="1.35942">
        <ele>154.1</ele>
        <time>2025-03-08T15:20:39Z</time>
      </trkpt>
      <trkpt lat="44.44534" lon="1.35941">
        <ele>154.1</ele>
        <time>2025-03-08T15:20:40Z</time>
      </trkpt>
      <trkpt lat="44.44531" lon="1.35941">
        <ele>154.1</ele>
        <time>2025-03-08T15:20:41Z</time>
      </trkpt>
      <trkpt lat="44.44527" lon="1.3594">
        <ele>154.2</ele>
        <time>2025-03-08T15:20:42Z</time>
      </trkpt>
      <trkpt lat="44.44523" lon="1.35939">
        <ele>154.2</ele>
        <time>2025-03-08T15:20:43Z</time>
      </trkpt>
      <trkpt lat="44.44519" lon="1.35937">
        <ele>154.3</ele>
        <time>2025-03-08T15:20:44Z</time>
      </trkpt>
      <trkpt lat="44.44516" lon="1.35935">
        <ele>154.4</ele>
        <time>2025-03-08T15:20:45Z</time>
      </trkpt>
      <trkpt lat="44.44513" lon="1.35933">
        <ele>154.5</ele>
        <time>2025-03-08T15:20:46Z</time>
      </trkpt>
      <trkpt lat="44.44509" lon="1.35933">
        <ele>154.6</ele>
        <time>2025-03-08T15:20:47Z</time>
      </trkpt>
      <trkpt lat="44.44506" lon="1.35932">
        <ele>154.7</ele>
        <time>2025-03-08T15:20:48Z</time>
      </trkpt>
      <trkpt lat="44.44503" lon="1.35931">
        <ele>154.8</ele>
        <time>2025-03-08T15:20:49Z</time>
      </trkpt>
      <trkpt lat="44.44499" lon="1.35931">
        <ele>154.9</ele>
        <time>2025-03-08T15:20:50Z</time>
      </trkpt>
      <trkpt lat="44.44495" lon="1.3593">
        <ele>155.1</ele>
        <time>2025-03-08T15:20:51Z</time>
      </trkpt>
      <trkpt lat="44.44492" lon="1.35929">
        <ele>155.2</ele>
        <time>2025-03-08T15:20:52Z</time>
      </trkpt>
      <trkpt lat="44.44489" lon="1.35928">
        <ele>155.4</ele>
        <time>2025-03-08T15:20:53Z</time>
      </trkpt>
      <trkpt lat="44.44487" lon="1.35928">
        <ele>155.4</ele>
        <time>2025-03-08T15:20:54Z</time>
      </trkpt>
      <trkpt lat="44.44484" lon="1.35928">
        <ele>155.5</ele>
        <time>2025-03-08T15:20:55Z</time>
      </trkpt>
      <trkpt lat="44.44481" lon="1.35927">
        <ele>155.6</ele>
        <time>2025-03-08T15:20:56Z</time>
      </trkpt>
      <trkpt lat="44.44477" lon="1.35926">
        <ele>155.8</ele>
        <time>2025-03-08T15:20:57Z</time>
      </trkpt>
      <trkpt lat="44.44476" lon="1.35926">
        <ele>155.8</ele>
        <time>2025-03-08T15:20:58Z</time>
      </trkpt>
      <trkpt lat="44.44473" lon="1.35925">
        <ele>155.9</ele>
        <time>2025-03-08T15:20:59Z</time>
      </trkpt>
      <trkpt lat="44.44469" lon="1.35925">
        <ele>155.9</ele>
        <time>2025-03-08T15:21:00Z</time>
      </trkpt>
      <trkpt lat="44.44466" lon="1.35924">
        <ele>156</ele>
        <time>2025-03-08T15:21:01Z</time>
      </trkpt>
      <trkpt lat="44.44462" lon="1.35924">
        <ele>156.1</ele>
        <time>2025-03-08T15:21:02Z</time>
      </trkpt>
      <trkpt lat="44.44458" lon="1.35923">
        <ele>156.1</ele>
        <time>2025-03-08T15:21:03Z</time>
      </trkpt>
      <trkpt lat="44.44455" lon="1.35922">
        <ele>156.1</ele>
        <time>2025-03-08T15:21:04Z</time>
      </trkpt>
      <trkpt lat="44.44451" lon="1.35922">
        <ele>156.2</ele>
        <time>2025-03-08T15:21:05Z</time>
      </trkpt>
      <trkpt lat="44.4445" lon="1.35922">
        <ele>156.2</ele>
        <time>2025-03-08T15:21:06Z</time>
      </trkpt>
      <trkpt lat="44.44447" lon="1.35922">
        <ele>156.2</ele>
        <time>2025-03-08T15:21:07Z</time>
      </trkpt>
      <trkpt lat="44.44444" lon="1.35923">
        <ele>156.2</ele>
        <time>2025-03-08T15:21:08Z</time>
      </trkpt>
      <trkpt lat="44.4444" lon="1.35922">
        <ele>156.2</ele>
        <time>2025-03-08T15:21:09Z</time>
      </trkpt>
      <trkpt lat="44.44439" lon="1.35922">
        <ele>156.2</ele>
        <time>2025-03-08T15:21:10Z</time>
      </trkpt>
      <trkpt lat="44.44436" lon="1.35922">
        <ele>156.2</ele>
        <time>2025-03-08T15:21:11Z</time>
      </trkpt>
      <trkpt lat="44.44432" lon="1.35921">
        <ele>156.2</ele>
        <time>2025-03-08T15:21:12Z</time>
      </trkpt>
      <trkpt lat="44.44428" lon="1.3592">
        <ele>156.2</ele>
        <time>2025-03-08T15:21:13Z</time>
      </trkpt>
      <trkpt lat="44.44425" lon="1.3592">
        <ele>156.2</ele>
        <time>2025-03-08T15:21:14Z</time>
      </trkpt>
      <trkpt lat="44.44421" lon="1.35919">
        <ele>156.2</ele>
        <time>2025-03-08T15:21:15Z</time>
      </trkpt>
      <trkpt lat="44.44417" lon="1.35919">
        <ele>156.2</ele>
        <time>2025-03-08T15:21:16Z</time>
      </trkpt>
      <trkpt lat="44.44414" lon="1.35918">
        <ele>156.2</ele>
        <time>2025-03-08T15:21:17Z</time>
      </trkpt>
      <trkpt lat="44.44411" lon="1.35918">
        <ele>156.3</ele>
        <time>2025-03-08T15:21:18Z</time>
      </trkpt>
      <trkpt lat="44.44407" lon="1.35917">
        <ele>156.3</ele>
        <time>2025-03-08T15:21:19Z</time>
      </trkpt>
      <trkpt lat="44.44403" lon="1.35917">
        <ele>156.4</ele>
        <time>2025-03-08T15:21:20Z</time>
      </trkpt>
      <trkpt lat="44.44399" lon="1.35916">
        <ele>156.5</ele>
        <time>2025-03-08T15:21:21Z</time>
      </trkpt>
      <trkpt lat="44.44395" lon="1.35915">
        <ele>156.5</ele>
        <time>2025-03-08T15:21:22Z</time>
      </trkpt>
      <trkpt lat="44.44392" lon="1.35914">
        <ele>156.6</ele>
        <time>2025-03-08T15:21:23Z</time>
      </trkpt>
      <trkpt lat="44.44388" lon="1.35914">
        <ele>156.7</ele>
        <time>2025-03-08T15:21:24Z</time>
      </trkpt>
      <trkpt lat="44.44384" lon="1.35914">
        <ele>156.8</ele>
        <time>2025-03-08T15:21:25Z</time>
      </trkpt>
      <trkpt lat="44.44381" lon="1.35914">
        <ele>156.9</ele>
        <time>2025-03-08T15:21:26Z</time>
      </trkpt>
      <trkpt lat="44.44377" lon="1.35914">
        <ele>156.9</ele>
        <time>2025-03-08T15:21:27Z</time>
      </trkpt>
      <trkpt lat="44.44374" lon="1.35914">
        <ele>157</ele>
        <time>2025-03-08T15:21:28Z</time>
      </trkpt>
      <trkpt lat="44.44372" lon="1.35913">
        <ele>157</ele>
        <time>2025-03-08T15:21:29Z</time>
      </trkpt>
      <trkpt lat="44.44369" lon="1.35912">
        <ele>157</ele>
        <time>2025-03-08T15:21:30Z</time>
      </trkpt>
      <trkpt lat="44.44365" lon="1.35912">
        <ele>157</ele>
        <time>2025-03-08T15:21:31Z</time>
      </trkpt>
      <trkpt lat="44.4436" lon="1.35913">
        <ele>157</ele>
        <time>2025-03-08T15:21:32Z</time>
      </trkpt>
      <trkpt lat="44.44355" lon="1.35915">
        <ele>157</ele>
        <time>2025-03-08T15:21:33Z</time>
      </trkpt>
      <trkpt lat="44.44351" lon="1.35916">
        <ele>157</ele>
        <time>2025-03-08T15:21:34Z</time>
      </trkpt>
      <trkpt lat="44.44347" lon="1.35918">
        <ele>157</ele>
        <time>2025-03-08T15:21:35Z</time>
      </trkpt>
      <trkpt lat="44.44343" lon="1.35919">
        <ele>156.9</ele>
        <time>2025-03-08T15:21:36Z</time>
      </trkpt>
      <trkpt lat="44.44339" lon="1.3592">
        <ele>156.9</ele>
        <time>2025-03-08T15:21:37Z</time>
      </trkpt>
      <trkpt lat="44.44335" lon="1.35922">
        <ele>156.9</ele>
        <time>2025-03-08T15:21:38Z</time>
      </trkpt>
      <trkpt lat="44.44331" lon="1.35925">
        <ele>156.9</ele>
        <time>2025-03-08T15:21:39Z</time>
      </trkpt>
      <trkpt lat="44.44327" lon="1.35927">
        <ele>157</ele>
        <time>2025-03-08T15:21:40Z</time>
      </trkpt>
      <trkpt lat="44.44323" lon="1.35929">
        <ele>157</ele>
        <time>2025-03-08T15:21:41Z</time>
      </trkpt>
      <trkpt lat="44.44319" lon="1.3593">
        <ele>157</ele>
        <time>2025-03-08T15:21:42Z</time>
      </trkpt>
      <trkpt lat="44.44315" lon="1.35931">
        <ele>157.1</ele>
        <time>2025-03-08T15:21:43Z</time>
      </trkpt>
      <trkpt lat="44.44311" lon="1.35932">
        <ele>157.2</ele>
        <time>2025-03-08T15:21:44Z</time>
      </trkpt>
      <trkpt lat="44.44306" lon="1.35933">
        <ele>157.3</ele>
        <time>2025-03-08T15:21:45Z</time>
      </trkpt>
      <trkpt lat="44.44303" lon="1.35935">
        <ele>157.3</ele>
        <time>2025-03-08T15:21:46Z</time>
      </trkpt>
      <trkpt lat="44.443" lon="1.35938">
        <ele>157.3</ele>
        <time>2025-03-08T15:21:47Z</time>
      </trkpt>
      <trkpt lat="44.44297" lon="1.3594">
        <ele>157.4</ele>
        <time>2025-03-08T15:21:48Z</time>
      </trkpt>
      <trkpt lat="44.44294" lon="1.35942">
        <ele>157.4</ele>
        <time>2025-03-08T15:21:49Z</time>
      </trkpt>
      <trkpt lat="44.4429" lon="1.35945">
        <ele>157.4</ele>
        <time>2025-03-08T15:21:50Z</time>
      </trkpt>
      <trkpt lat="44.44288" lon="1.35947">
        <ele>157.3</ele>
        <time>2025-03-08T15:21:51Z</time>
      </trkpt>
      <trkpt lat="44.44285" lon="1.35949">
        <ele>157.3</ele>
        <time>2025-03-08T15:21:52Z</time>
      </trkpt>
      <trkpt lat="44.44282" lon="1.35951">
        <ele>157.3</ele>
        <time>2025-03-08T15:21:53Z</time>
      </trkpt>
      <trkpt lat="44.44281" lon="1.35951">
        <ele>157.3</ele>
        <time>2025-03-08T15:21:54Z</time>
      </trkpt>
      <trkpt lat="44.4428" lon="1.35953">
        <ele>157.3</ele>
        <time>2025-03-08T15:21:55Z</time>
      </trkpt>
      <trkpt lat="44.44279" lon="1.35954">
        <ele>157.3</ele>
        <time>2025-03-08T15:21:56Z</time>
      </trkpt>
      <trkpt lat="44.44279" lon="1.35954">
        <ele>157.3</ele>
        <time>2025-03-08T15:21:57Z</time>
      </trkpt>
      <trkpt lat="44.44279" lon="1.35955">
        <ele>157.3</ele>
        <time>2025-03-08T15:21:58Z</time>
      </trkpt>
      <trkpt lat="44.44278" lon="1.35956">
        <ele>157.3</ele>
        <time>2025-03-08T15:21:59Z</time>
      </trkpt>
      <trkpt lat="44.44275" lon="1.35958">
        <ele>157.2</ele>
        <time>2025-03-08T15:22:00Z</time>
      </trkpt>
      <trkpt lat="44.44274" lon="1.35959">
        <ele>157.2</ele>
        <time>2025-03-08T15:22:01Z</time>
      </trkpt>
      <trkpt lat="44.44271" lon="1.3596">
        <ele>157.2</ele>
        <time>2025-03-08T15:22:02Z</time>
      </trkpt>
      <trkpt lat="44.44269" lon="1.35962">
        <ele>157.2</ele>
        <time>2025-03-08T15:22:03Z</time>
      </trkpt>
      <trkpt lat="44.44266" lon="1.35964">
        <ele>157.2</ele>
        <time>2025-03-08T15:22:04Z</time>
      </trkpt>
      <trkpt lat="44.44263" lon="1.35966">
        <ele>157.2</ele>
        <time>2025-03-08T15:22:05Z</time>
      </trkpt>
      <trkpt lat="44.4426" lon="1.35969">
        <ele>157.2</ele>
        <time>2025-03-08T15:22:06Z</time>
      </trkpt>
      <trkpt lat="44.44257" lon="1.35971">
        <ele>157.2</ele>
        <time>2025-03-08T15:22:07Z</time>
      </trkpt>
      <trkpt lat="44.44253" lon="1.35973">
        <ele>157.2</ele>
        <time>2025-03-08T15:22:08Z</time>
      </trkpt>
      <trkpt lat="44.4425" lon="1.35975">
        <ele>157.2</ele>
        <time>2025-03-08T15:22:09Z</time>
      </trkpt>
      <trkpt lat="44.44247" lon="1.35977">
        <ele>157.2</ele>
        <time>2025-03-08T15:22:10Z</time>
      </trkpt>
      <trkpt lat="44.44244" lon="1.35979">
        <ele>157.2</ele>
        <time>2025-03-08T15:22:11Z</time>
      </trkpt>
      <trkpt lat="44.44241" lon="1.35981">
        <ele>157.2</ele>
        <time>2025-03-08T15:22:12Z</time>
      </trkpt>
      <trkpt lat="44.44238" lon="1.35983">
        <ele>157.2</ele>
        <time>2025-03-08T15:22:13Z</time>
      </trkpt>
      <trkpt lat="44.44235" lon="1.35985">
        <ele>157.2</ele>
        <time>2025-03-08T15:22:14Z</time>
      </trkpt>
      <trkpt lat="44.44232" lon="1.35987">
        <ele>157.2</ele>
        <time>2025-03-08T15:22:15Z</time>
      </trkpt>
      <trkpt lat="44.44229" lon="1.35989">
        <ele>157.2</ele>
        <time>2025-03-08T15:22:16Z</time>
      </trkpt>
      <trkpt lat="44.44225" lon="1.35991">
        <ele>157.2</ele>
        <time>2025-03-08T15:22:17Z</time>
      </trkpt>
      <trkpt lat="44.44222" lon="1.35994">
        <ele>157.2</ele>
        <time>2025-03-08T15:22:18Z</time>
      </trkpt>
      <trkpt lat="44.44219" lon="1.35996">
        <ele>157.2</ele>
        <time>2025-03-08T15:22:19Z</time>
      </trkpt>
      <trkpt lat="44.44215" lon="1.35999">
        <ele>157.2</ele>
        <time>2025-03-08T15:22:20Z</time>
      </trkpt>
      <trkpt lat="44.44211" lon="1.36001">
        <ele>157.2</ele>
        <time>2025-03-08T15:22:21Z</time>
      </trkpt>
      <trkpt lat="44.44208" lon="1.36003">
        <ele>157.3</ele>
        <time>2025-03-08T15:22:22Z</time>
      </trkpt>
      <trkpt lat="44.44205" lon="1.36006">
        <ele>157.4</ele>
        <time>2025-03-08T15:22:23Z</time>
      </trkpt>
      <trkpt lat="44.44201" lon="1.36009">
        <ele>157.5</ele>
        <time>2025-03-08T15:22:24Z</time>
      </trkpt>
      <trkpt lat="44.44198" lon="1.36011">
        <ele>157.6</ele>
        <time>2025-03-08T15:22:25Z</time>
      </trkpt>
      <trkpt lat="44.44195" lon="1.36013">
        <ele>157.8</ele>
        <time>2025-03-08T15:22:26Z</time>
      </trkpt>
      <trkpt lat="44.44192" lon="1.36015">
        <ele>157.9</ele>
        <time>2025-03-08T15:22:27Z</time>
      </trkpt>
      <trkpt lat="44.4419" lon="1.36017">
        <ele>158.1</ele>
        <time>2025-03-08T15:22:28Z</time>
      </trkpt>
      <trkpt lat="44.44187" lon="1.36018">
        <ele>158.3</ele>
        <time>2025-03-08T15:22:29Z</time>
      </trkpt>
      <trkpt lat="44.44184" lon="1.36021">
        <ele>158.6</ele>
        <time>2025-03-08T15:22:30Z</time>
      </trkpt>
      <trkpt lat="44.44181" lon="1.36023">
        <ele>158.9</ele>
        <time>2025-03-08T15:22:31Z</time>
      </trkpt>
      <trkpt lat="44.44178" lon="1.36026">
        <ele>159.1</ele>
        <time>2025-03-08T15:22:32Z</time>
      </trkpt>
      <trkpt lat="44.44174" lon="1.36028">
        <ele>159.3</ele>
        <time>2025-03-08T15:22:33Z</time>
      </trkpt>
      <trkpt lat="44.44171" lon="1.3603">
        <ele>159.5</ele>
        <time>2025-03-08T15:22:34Z</time>
      </trkpt>
      <trkpt lat="44.44168" lon="1.36031">
        <ele>159.6</ele>
        <time>2025-03-08T15:22:35Z</time>
      </trkpt>
      <trkpt lat="44.44167" lon="1.36032">
        <ele>159.6</ele>
        <time>2025-03-08T15:22:36Z</time>
      </trkpt>
      <trkpt lat="44.44164" lon="1.36033">
        <ele>159.7</ele>
        <time>2025-03-08T15:22:37Z</time>
      </trkpt>
      <trkpt lat="44.44162" lon="1.36035">
        <ele>159.9</ele>
        <time>2025-03-08T15:22:38Z</time>
      </trkpt>
      <trkpt lat="44.44161" lon="1.36036">
        <ele>160</ele>
        <time>2025-03-08T15:22:39Z</time>
      </trkpt>
      <trkpt lat="44.4416" lon="1.36036">
        <ele>160.1</ele>
        <time>2025-03-08T15:22:40Z</time>
      </trkpt>
      <trkpt lat="44.4416" lon="1.36036">
        <ele>160.1</ele>
        <time>2025-03-08T15:22:41Z</time>
      </trkpt>
      <trkpt lat="44.4416" lon="1.36036">
        <ele>160.1</ele>
        <time>2025-03-08T15:22:42Z</time>
      </trkpt>
      <trkpt lat="44.44159" lon="1.36036">
        <ele>160.2</ele>
        <time>2025-03-08T15:22:43Z</time>
      </trkpt>
      <trkpt lat="44.44159" lon="1.36036">
        <ele>160.2</ele>
        <time>2025-03-08T15:22:44Z</time>
      </trkpt>
      <trkpt lat="44.44159" lon="1.36036">
        <ele>160.2</ele>
        <time>2025-03-08T15:22:45Z</time>
      </trkpt>
      <trkpt lat="44.4416" lon="1.36034">
        <ele>160.4</ele>
        <time>2025-03-08T15:22:46Z</time>
      </trkpt>
      <trkpt lat="44.4416" lon="1.36033">
        <ele>160.4</ele>
        <time>2025-03-08T15:22:47Z</time>
      </trkpt>
      <trkpt lat="44.44161" lon="1.36032">
        <ele>160.5</ele>
        <time>2025-03-08T15:22:48Z</time>
      </trkpt>
      <trkpt lat="44.44161" lon="1.36031">
        <ele>160.6</ele>
        <time>2025-03-08T15:22:49Z</time>
      </trkpt>
      <trkpt lat="44.44161" lon="1.3603">
        <ele>160.8</ele>
        <time>2025-03-08T15:22:50Z</time>
      </trkpt>
      <trkpt lat="44.4416" lon="1.36028">
        <ele>161</ele>
        <time>2025-03-08T15:22:51Z</time>
      </trkpt>
      <trkpt lat="44.4416" lon="1.36027">
        <ele>161.2</ele>
        <time>2025-03-08T15:22:52Z</time>
      </trkpt>
      <trkpt lat="44.44159" lon="1.36024">
        <ele>161.5</ele>
        <time>2025-03-08T15:22:53Z</time>
      </trkpt>
      <trkpt lat="44.44158" lon="1.36023">
        <ele>161.7</ele>
        <time>2025-03-08T15:22:54Z</time>
      </trkpt>
      <trkpt lat="44.44158" lon="1.36022">
        <ele>161.8</ele>
        <time>2025-03-08T15:22:55Z</time>
      </trkpt>
      <trkpt lat="44.44158" lon="1.36019">
        <ele>162.2</ele>
        <time>2025-03-08T15:22:56Z</time>
      </trkpt>
      <trkpt lat="44.44158" lon="1.36017">
        <ele>162.3</ele>
        <time>2025-03-08T15:22:57Z</time>
      </trkpt>
      <trkpt lat="44.44158" lon="1.36016">
        <ele>162.5</ele>
        <time>2025-03-08T15:22:58Z</time>
      </trkpt>
      <trkpt lat="44.44158" lon="1.36014">
        <ele>162.8</ele>
        <time>2025-03-08T15:22:59Z</time>
      </trkpt>
      <trkpt lat="44.44157" lon="1.36012">
        <ele>163</ele>
        <time>2025-03-08T15:23:00Z</time>
      </trkpt>
      <trkpt lat="44.44157" lon="1.3601">
        <ele>163.2</ele>
        <time>2025-03-08T15:23:01Z</time>
      </trkpt>
      <trkpt lat="44.44156" lon="1.36008">
        <ele>163.5</ele>
        <time>2025-03-08T15:23:02Z</time>
      </trkpt>
      <trkpt lat="44.44155" lon="1.36007">
        <ele>163.7</ele>
        <time>2025-03-08T15:23:03Z</time>
      </trkpt>
      <trkpt lat="44.44154" lon="1.36005">
        <ele>163.9</ele>
        <time>2025-03-08T15:23:04Z</time>
      </trkpt>
      <trkpt lat="44.44153" lon="1.36003">
        <ele>164.2</ele>
        <time>2025-03-08T15:23:05Z</time>
      </trkpt>
      <trkpt lat="44.44152" lon="1.36002">
        <ele>164.4</ele>
        <time>2025-03-08T15:23:06Z</time>
      </trkpt>
      <trkpt lat="44.44152" lon="1.36">
        <ele>164.6</ele>
        <time>2025-03-08T15:23:07Z</time>
      </trkpt>
      <trkpt lat="44.44151" lon="1.35999">
        <ele>164.8</ele>
        <time>2025-03-08T15:23:08Z</time>
      </trkpt>
      <trkpt lat="44.4415" lon="1.35998">
        <ele>165</ele>
        <time>2025-03-08T15:23:09Z</time>
      </trkpt>
      <trkpt lat="44.44148" lon="1.35996">
        <ele>165.4</ele>
        <time>2025-03-08T15:23:10Z</time>
      </trkpt>
      <trkpt lat="44.44147" lon="1.35996">
        <ele>165.5</ele>
        <time>2025-03-08T15:23:11Z</time>
      </trkpt>
      <trkpt lat="44.44146" lon="1.35995">
        <ele>165.7</ele>
        <time>2025-03-08T15:23:12Z</time>
      </trkpt>
      <trkpt lat="44.44146" lon="1.35994">
        <ele>165.8</ele>
        <time>2025-03-08T15:23:13Z</time>
      </trkpt>
      <trkpt lat="44.44145" lon="1.35992">
        <ele>166</ele>
        <time>2025-03-08T15:23:14Z</time>
      </trkpt>
      <trkpt lat="44.44144" lon="1.35991">
        <ele>166.2</ele>
        <time>2025-03-08T15:23:15Z</time>
      </trkpt>
      <trkpt lat="44.44143" lon="1.35989">
        <ele>166.6</ele>
        <time>2025-03-08T15:23:16Z</time>
      </trkpt>
      <trkpt lat="44.44142" lon="1.35988">
        <ele>166.8</ele>
        <time>2025-03-08T15:23:17Z</time>
      </trkpt>
      <trkpt lat="44.44141" lon="1.35987">
        <ele>166.9</ele>
        <time>2025-03-08T15:23:18Z</time>
      </trkpt>
      <trkpt lat="44.44139" lon="1.35987">
        <ele>167.2</ele>
        <time>2025-03-08T15:23:19Z</time>
      </trkpt>
      <trkpt lat="44.44138" lon="1.35986">
        <ele>167.4</ele>
        <time>2025-03-08T15:23:20Z</time>
      </trkpt>
      <trkpt lat="44.44136" lon="1.35986">
        <ele>167.7</ele>
        <time>2025-03-08T15:23:21Z</time>
      </trkpt>
      <trkpt lat="44.44134" lon="1.35985">
        <ele>167.9</ele>
        <time>2025-03-08T15:23:22Z</time>
      </trkpt>
      <trkpt lat="44.44133" lon="1.35984">
        <ele>168.2</ele>
        <time>2025-03-08T15:23:23Z</time>
      </trkpt>
      <trkpt lat="44.44131" lon="1.35983">
        <ele>168.5</ele>
        <time>2025-03-08T15:23:24Z</time>
      </trkpt>
      <trkpt lat="44.4413" lon="1.35982">
        <ele>168.7</ele>
        <time>2025-03-08T15:23:25Z</time>
      </trkpt>
      <trkpt lat="44.44129" lon="1.35982">
        <ele>168.9</ele>
        <time>2025-03-08T15:23:26Z</time>
      </trkpt>
      <trkpt lat="44.44128" lon="1.35981">
        <ele>169</ele>
        <time>2025-03-08T15:23:27Z</time>
      </trkpt>
      <trkpt lat="44.44127" lon="1.3598">
        <ele>169.2</ele>
        <time>2025-03-08T15:23:28Z</time>
      </trkpt>
      <trkpt lat="44.44126" lon="1.35979">
        <ele>169.4</ele>
        <time>2025-03-08T15:23:29Z</time>
      </trkpt>
      <trkpt lat="44.44123" lon="1.35979">
        <ele>169.8</ele>
        <time>2025-03-08T15:23:30Z</time>
      </trkpt>
      <trkpt lat="44.44122" lon="1.35979">
        <ele>169.9</ele>
        <time>2025-03-08T15:23:31Z</time>
      </trkpt>
      <trkpt lat="44.4412" lon="1.35979">
        <ele>170.1</ele>
        <time>2025-03-08T15:23:32Z</time>
      </trkpt>
      <trkpt lat="44.44119" lon="1.35979">
        <ele>170.3</ele>
        <time>2025-03-08T15:23:33Z</time>
      </trkpt>
      <trkpt lat="44.44118" lon="1.35978">
        <ele>170.5</ele>
        <time>2025-03-08T15:23:34Z</time>
      </trkpt>
      <trkpt lat="44.44117" lon="1.35978">
        <ele>170.6</ele>
        <time>2025-03-08T15:23:35Z</time>
      </trkpt>
      <trkpt lat="44.44116" lon="1.35978">
        <ele>170.8</ele>
        <time>2025-03-08T15:23:36Z</time>
      </trkpt>
      <trkpt lat="44.44114" lon="1.35978">
        <ele>171</ele>
        <time>2025-03-08T15:23:37Z</time>
      </trkpt>
      <trkpt lat="44.44113" lon="1.35978">
        <ele>171.2</ele>
        <time>2025-03-08T15:23:38Z</time>
      </trkpt>
      <trkpt lat="44.44111" lon="1.35978">
        <ele>171.6</ele>
        <time>2025-03-08T15:23:39Z</time>
      </trkpt>
      <trkpt lat="44.4411" lon="1.35979">
        <ele>171.7</ele>
        <time>2025-03-08T15:23:40Z</time>
      </trkpt>
      <trkpt lat="44.44108" lon="1.35979">
        <ele>171.9</ele>
        <time>2025-03-08T15:23:41Z</time>
      </trkpt>
      <trkpt lat="44.44107" lon="1.35979">
        <ele>172.1</ele>
        <time>2025-03-08T15:23:42Z</time>
      </trkpt>
      <trkpt lat="44.44106" lon="1.35979">
        <ele>172.3</ele>
        <time>2025-03-08T15:23:43Z</time>
      </trkpt>
      <trkpt lat="44.44105" lon="1.35979">
        <ele>172.4</ele>
        <time>2025-03-08T15:23:44Z</time>
      </trkpt>
      <trkpt lat="44.44104" lon="1.35979">
        <ele>172.5</ele>
        <time>2025-03-08T15:23:45Z</time>
      </trkpt>
      <trkpt lat="44.44103" lon="1.35978">
        <ele>172.7</ele>
        <time>2025-03-08T15:23:46Z</time>
      </trkpt>
      <trkpt lat="44.44102" lon="1.35977">
        <ele>172.8</ele>
        <time>2025-03-08T15:23:47Z</time>
      </trkpt>
      <trkpt lat="44.44102" lon="1.35976">
        <ele>173</ele>
        <time>2025-03-08T15:23:48Z</time>
      </trkpt>
      <trkpt lat="44.44102" lon="1.35975">
        <ele>173.1</ele>
        <time>2025-03-08T15:23:49Z</time>
      </trkpt>
      <trkpt lat="44.44101" lon="1.35973">
        <ele>173.3</ele>
        <time>2025-03-08T15:23:50Z</time>
      </trkpt>
      <trkpt lat="44.441" lon="1.35971">
        <ele>173.6</ele>
        <time>2025-03-08T15:23:51Z</time>
      </trkpt>
      <trkpt lat="44.44099" lon="1.3597">
        <ele>173.7</ele>
        <time>2025-03-08T15:23:52Z</time>
      </trkpt>
      <trkpt lat="44.44099" lon="1.35969">
        <ele>173.9</ele>
        <time>2025-03-08T15:23:53Z</time>
      </trkpt>
      <trkpt lat="44.44097" lon="1.35968">
        <ele>174.2</ele>
        <time>2025-03-08T15:23:54Z</time>
      </trkpt>
      <trkpt lat="44.44096" lon="1.35967">
        <ele>174.3</ele>
        <time>2025-03-08T15:23:55Z</time>
      </trkpt>
      <trkpt lat="44.44095" lon="1.35967">
        <ele>174.5</ele>
        <time>2025-03-08T15:23:56Z</time>
      </trkpt>
      <trkpt lat="44.44094" lon="1.35966">
        <ele>174.7</ele>
        <time>2025-03-08T15:23:57Z</time>
      </trkpt>
      <trkpt lat="44.44093" lon="1.35966">
        <ele>174.9</ele>
        <time>2025-03-08T15:23:58Z</time>
      </trkpt>
      <trkpt lat="44.44092" lon="1.35965">
        <ele>175.1</ele>
        <time>2025-03-08T15:23:59Z</time>
      </trkpt>
      <trkpt lat="44.4409" lon="1.35963">
        <ele>175.4</ele>
        <time>2025-03-08T15:24:00Z</time>
      </trkpt>
      <trkpt lat="44.4409" lon="1.35962">
        <ele>175.6</ele>
        <time>2025-03-08T15:24:01Z</time>
      </trkpt>
      <trkpt lat="44.44089" lon="1.35961">
        <ele>175.7</ele>
        <time>2025-03-08T15:24:02Z</time>
      </trkpt>
      <trkpt lat="44.44087" lon="1.35959">
        <ele>176.2</ele>
        <time>2025-03-08T15:24:03Z</time>
      </trkpt>
      <trkpt lat="44.44086" lon="1.35959">
        <ele>176.4</ele>
        <time>2025-03-08T15:24:04Z</time>
      </trkpt>
      <trkpt lat="44.44086" lon="1.35958">
        <ele>176.6</ele>
        <time>2025-03-08T15:24:05Z</time>
      </trkpt>
      <trkpt lat="44.44084" lon="1.35956">
        <ele>177</ele>
        <time>2025-03-08T15:24:06Z</time>
      </trkpt>
      <trkpt lat="44.44083" lon="1.35955">
        <ele>177.3</ele>
        <time>2025-03-08T15:24:07Z</time>
      </trkpt>
      <trkpt lat="44.44082" lon="1.35955">
        <ele>177.6</ele>
        <time>2025-03-08T15:24:08Z</time>
      </trkpt>
      <trkpt lat="44.4408" lon="1.35954">
        <ele>178</ele>
        <time>2025-03-08T15:24:09Z</time>
      </trkpt>
      <trkpt lat="44.44079" lon="1.35954">
        <ele>178.3</ele>
        <time>2025-03-08T15:24:10Z</time>
      </trkpt>
      <trkpt lat="44.44077" lon="1.35954">
        <ele>178.7</ele>
        <time>2025-03-08T15:24:11Z</time>
      </trkpt>
      <trkpt lat="44.44076" lon="1.35954">
        <ele>179.1</ele>
        <time>2025-03-08T15:24:12Z</time>
      </trkpt>
      <trkpt lat="44.44074" lon="1.35954">
        <ele>179.4</ele>
        <time>2025-03-08T15:24:13Z</time>
      </trkpt>
      <trkpt lat="44.44072" lon="1.35955">
        <ele>180</ele>
        <time>2025-03-08T15:24:14Z</time>
      </trkpt>
      <trkpt lat="44.44071" lon="1.35956">
        <ele>180.3</ele>
        <time>2025-03-08T15:24:15Z</time>
      </trkpt>
      <trkpt lat="44.4407" lon="1.35957">
        <ele>180.6</ele>
        <time>2025-03-08T15:24:16Z</time>
      </trkpt>
      <trkpt lat="44.44069" lon="1.35958">
        <ele>181</ele>
        <time>2025-03-08T15:24:17Z</time>
      </trkpt>
      <trkpt lat="44.44067" lon="1.35959">
        <ele>181.6</ele>
        <time>2025-03-08T15:24:18Z</time>
      </trkpt>
      <trkpt lat="44.44065" lon="1.35962">
        <ele>182.4</ele>
        <time>2025-03-08T15:24:19Z</time>
      </trkpt>
      <trkpt lat="44.44065" lon="1.35963">
        <ele>182.7</ele>
        <time>2025-03-08T15:24:20Z</time>
      </trkpt>
      <trkpt lat="44.44065" lon="1.35965">
        <ele>183.1</ele>
        <time>2025-03-08T15:24:21Z</time>
      </trkpt>
      <trkpt lat="44.44065" lon="1.35966">
        <ele>183.4</ele>
        <time>2025-03-08T15:24:22Z</time>
      </trkpt>
      <trkpt lat="44.44065" lon="1.35967">
        <ele>183.7</ele>
        <time>2025-03-08T15:24:23Z</time>
      </trkpt>
      <trkpt lat="44.44065" lon="1.3597">
        <ele>184.3</ele>
        <time>2025-03-08T15:24:24Z</time>
      </trkpt>
      <trkpt lat="44.44065" lon="1.35971">
        <ele>184.6</ele>
        <time>2025-03-08T15:24:25Z</time>
      </trkpt>
      <trkpt lat="44.44065" lon="1.35973">
        <ele>184.9</ele>
        <time>2025-03-08T15:24:26Z</time>
      </trkpt>
      <trkpt lat="44.44065" lon="1.35975">
        <ele>185.5</ele>
        <time>2025-03-08T15:24:27Z</time>
      </trkpt>
      <trkpt lat="44.44065" lon="1.35976">
        <ele>185.8</ele>
        <time>2025-03-08T15:24:28Z</time>
      </trkpt>
      <trkpt lat="44.44064" lon="1.35977">
        <ele>186.1</ele>
        <time>2025-03-08T15:24:29Z</time>
      </trkpt>
      <trkpt lat="44.44063" lon="1.35977">
        <ele>186.4</ele>
        <time>2025-03-08T15:24:30Z</time>
      </trkpt>
      <trkpt lat="44.44063" lon="1.35977">
        <ele>186.4</ele>
        <time>2025-03-08T15:24:31Z</time>
      </trkpt>
      <trkpt lat="44.44063" lon="1.35977">
        <ele>186.5</ele>
        <time>2025-03-08T15:24:32Z</time>
      </trkpt>
      <trkpt lat="44.44063" lon="1.35977">
        <ele>186.6</ele>
        <time>2025-03-08T15:24:33Z</time>
      </trkpt>
      <trkpt lat="44.44063" lon="1.35977">
        <ele>186.6</ele>
        <time>2025-03-08T15:24:34Z</time>
      </trkpt>
      <trkpt lat="44.44063" lon="1.35978">
        <ele>186.7</ele>
        <time>2025-03-08T15:24:35Z</time>
      </trkpt>
      <trkpt lat="44.44063" lon="1.35978">
        <ele>186.8</ele>
        <time>2025-03-08T15:24:36Z</time>
      </trkpt>
      <trkpt lat="44.44062" lon="1.35978">
        <ele>187</ele>
        <time>2025-03-08T15:24:37Z</time>
      </trkpt>
      <trkpt lat="44.44062" lon="1.35978">
        <ele>187</ele>
        <time>2025-03-08T15:24:38Z</time>
      </trkpt>
      <trkpt lat="44.44062" lon="1.35978">
        <ele>187.2</ele>
        <time>2025-03-08T15:24:39Z</time>
      </trkpt>
      <trkpt lat="44.44061" lon="1.35978">
        <ele>187.4</ele>
        <time>2025-03-08T15:24:40Z</time>
      </trkpt>
      <trkpt lat="44.44061" lon="1.35978">
        <ele>187.5</ele>
        <time>2025-03-08T15:24:41Z</time>
      </trkpt>
      <trkpt lat="44.4406" lon="1.35978">
        <ele>187.7</ele>
        <time>2025-03-08T15:24:42Z</time>
      </trkpt>
      <trkpt lat="44.4406" lon="1.35978">
        <ele>187.8</ele>
        <time>2025-03-08T15:24:43Z</time>
      </trkpt>
      <trkpt lat="44.44059" lon="1.35978">
        <ele>188</ele>
        <time>2025-03-08T15:24:44Z</time>
      </trkpt>
      <trkpt lat="44.44059" lon="1.35978">
        <ele>188.2</ele>
        <time>2025-03-08T15:24:45Z</time>
      </trkpt>
      <trkpt lat="44.44058" lon="1.35978">
        <ele>188.5</ele>
        <time>2025-03-08T15:24:46Z</time>
      </trkpt>
      <trkpt lat="44.44057" lon="1.35978">
        <ele>188.7</ele>
        <time>2025-03-08T15:24:47Z</time>
      </trkpt>
      <trkpt lat="44.44056" lon="1.35978">
        <ele>188.9</ele>
        <time>2025-03-08T15:24:48Z</time>
      </trkpt>
      <trkpt lat="44.44056" lon="1.35978">
        <ele>189.1</ele>
        <time>2025-03-08T15:24:49Z</time>
      </trkpt>
      <trkpt lat="44.44055" lon="1.35978">
        <ele>189.3</ele>
        <time>2025-03-08T15:24:50Z</time>
      </trkpt>
      <trkpt lat="44.44055" lon="1.35978">
        <ele>189.5</ele>
        <time>2025-03-08T15:24:51Z</time>
      </trkpt>
      <trkpt lat="44.44054" lon="1.35978">
        <ele>189.6</ele>
        <time>2025-03-08T15:24:52Z</time>
      </trkpt>
      <trkpt lat="44.44054" lon="1.35978">
        <ele>189.7</ele>
        <time>2025-03-08T15:24:53Z</time>
      </trkpt>
      <trkpt lat="44.44054" lon="1.35978">
        <ele>189.8</ele>
        <time>2025-03-08T15:24:54Z</time>
      </trkpt>
      <trkpt lat="44.44054" lon="1.35978">
        <ele>189.8</ele>
        <time>2025-03-08T15:24:55Z</time>
      </trkpt>
      <trkpt lat="44.44054" lon="1.35978">
        <ele>189.9</ele>
        <time>2025-03-08T15:24:56Z</time>
      </trkpt>
      <trkpt lat="44.44053" lon="1.35978">
        <ele>190</ele>
        <time>2025-03-08T15:24:57Z</time>
      </trkpt>
      <trkpt lat="44.44053" lon="1.35978">
        <ele>190.2</ele>
        <time>2025-03-08T15:24:58Z</time>
      </trkpt>
      <trkpt lat="44.44053" lon="1.35978">
        <ele>190.3</ele>
        <time>2025-03-08T15:24:59Z</time>
      </trkpt>
      <trkpt lat="44.44053" lon="1.35977">
        <ele>190.4</ele>
        <time>2025-03-08T15:25:00Z</time>
      </trkpt>
      <trkpt lat="44.44053" lon="1.35977">
        <ele>190.4</ele>
        <time>2025-03-08T15:25:01Z</time>
      </trkpt>
      <trkpt lat="44.44052" lon="1.35977">
        <ele>190.6</ele>
        <time>2025-03-08T15:25:02Z</time>
      </trkpt>
      <trkpt lat="44.44052" lon="1.35976">
        <ele>190.8</ele>
        <time>2025-03-08T15:25:03Z</time>
      </trkpt>
      <trkpt lat="44.44051" lon="1.35976">
        <ele>190.9</ele>
        <time>2025-03-08T15:25:04Z</time>
      </trkpt>
      <trkpt lat="44.44051" lon="1.35976">
        <ele>191.1</ele>
        <time>2025-03-08T15:25:05Z</time>
      </trkpt>
      <trkpt lat="44.4405" lon="1.35976">
        <ele>191.3</ele>
        <time>2025-03-08T15:25:06Z</time>
      </trkpt>
      <trkpt lat="44.44049" lon="1.35975">
        <ele>191.6</ele>
        <time>2025-03-08T15:25:07Z</time>
      </trkpt>
      <trkpt lat="44.44049" lon="1.35975">
        <ele>191.8</ele>
        <time>2025-03-08T15:25:08Z</time>
      </trkpt>
      <trkpt lat="44.44048" lon="1.35975">
        <ele>192.1</ele>
        <time>2025-03-08T15:25:09Z</time>
      </trkpt>
      <trkpt lat="44.44047" lon="1.35975">
        <ele>192.2</ele>
        <time>2025-03-08T15:25:10Z</time>
      </trkpt>
      <trkpt lat="44.44047" lon="1.35975">
        <ele>192.4</ele>
        <time>2025-03-08T15:25:11Z</time>
      </trkpt>
      <trkpt lat="44.44047" lon="1.35975">
        <ele>192.5</ele>
        <time>2025-03-08T15:25:12Z</time>
      </trkpt>
      <trkpt lat="44.44046" lon="1.35975">
        <ele>192.6</ele>
        <time>2025-03-08T15:25:13Z</time>
      </trkpt>
      <trkpt lat="44.44044" lon="1.35975">
        <ele>193.2</ele>
        <time>2025-03-08T15:25:14Z</time>
      </trkpt>
      <trkpt lat="44.44043" lon="1.35975">
        <ele>193.6</ele>
        <time>2025-03-08T15:25:15Z</time>
      </trkpt>
      <trkpt lat="44.44042" lon="1.35975">
        <ele>194</ele>
        <time>2025-03-08T15:25:16Z</time>
      </trkpt>
      <trkpt lat="44.44041" lon="1.35975">
        <ele>194.4</ele>
        <time>2025-03-08T15:25:17Z</time>
      </trkpt>
      <trkpt lat="44.4404" lon="1.35975">
        <ele>194.7</ele>
        <time>2025-03-08T15:25:18Z</time>
      </trkpt>
      <trkpt lat="44.44039" lon="1.35975">
        <ele>195.1</ele>
        <time>2025-03-08T15:25:19Z</time>
      </trkpt>
      <trkpt lat="44.44038" lon="1.35976">
        <ele>195.4</ele>
        <time>2025-03-08T15:25:20Z</time>
      </trkpt>
      <trkpt lat="44.44038" lon="1.35976">
        <ele>195.6</ele>
        <time>2025-03-08T15:25:21Z</time>
      </trkpt>
      <trkpt lat="44.44037" lon="1.35976">
        <ele>195.7</ele>
        <time>2025-03-08T15:25:22Z</time>
      </trkpt>
      <trkpt lat="44.44037" lon="1.35976">
        <ele>195.8</ele>
        <time>2025-03-08T15:25:23Z</time>
      </trkpt>
      <trkpt lat="44.44037" lon="1.35976">
        <ele>195.9</ele>
        <time>2025-03-08T15:25:24Z</time>
      </trkpt>
      <trkpt lat="44.44036" lon="1.35976">
        <ele>196</ele>
        <time>2025-03-08T15:25:25Z</time>
      </trkpt>
      <trkpt lat="44.44036" lon="1.35976">
        <ele>196</ele>
        <time>2025-03-08T15:25:26Z</time>
      </trkpt>
      <trkpt lat="44.44036" lon="1.35975">
        <ele>196.3</ele>
        <time>2025-03-08T15:25:27Z</time>
      </trkpt>
      <trkpt lat="44.44035" lon="1.35975">
        <ele>196.6</ele>
        <time>2025-03-08T15:25:28Z</time>
      </trkpt>
      <trkpt lat="44.44034" lon="1.35975">
        <ele>196.8</ele>
        <time>2025-03-08T15:25:29Z</time>
      </trkpt>
      <trkpt lat="44.44033" lon="1.35975">
        <ele>197.1</ele>
        <time>2025-03-08T15:25:30Z</time>
      </trkpt>
      <trkpt lat="44.44033" lon="1.35976">
        <ele>197.3</ele>
        <time>2025-03-08T15:25:31Z</time>
      </trkpt>
      <trkpt lat="44.44032" lon="1.35976">
        <ele>197.5</ele>
        <time>2025-03-08T15:25:32Z</time>
      </trkpt>
      <trkpt lat="44.44031" lon="1.35976">
        <ele>197.7</ele>
        <time>2025-03-08T15:25:33Z</time>
      </trkpt>
      <trkpt lat="44.44031" lon="1.35976">
        <ele>198</ele>
        <time>2025-03-08T15:25:34Z</time>
      </trkpt>
      <trkpt lat="44.4403" lon="1.35977">
        <ele>198.3</ele>
        <time>2025-03-08T15:25:35Z</time>
      </trkpt>
      <trkpt lat="44.44029" lon="1.35977">
        <ele>198.6</ele>
        <time>2025-03-08T15:25:36Z</time>
      </trkpt>
      <trkpt lat="44.44028" lon="1.35978">
        <ele>198.9</ele>
        <time>2025-03-08T15:25:37Z</time>
      </trkpt>
      <trkpt lat="44.44027" lon="1.35979">
        <ele>199.1</ele>
        <time>2025-03-08T15:25:38Z</time>
      </trkpt>
      <trkpt lat="44.44027" lon="1.3598">
        <ele>199.5</ele>
        <time>2025-03-08T15:25:39Z</time>
      </trkpt>
      <trkpt lat="44.44025" lon="1.3598">
        <ele>199.8</ele>
        <time>2025-03-08T15:25:40Z</time>
      </trkpt>
      <trkpt lat="44.44025" lon="1.35981">
        <ele>200.1</ele>
        <time>2025-03-08T15:25:41Z</time>
      </trkpt>
      <trkpt lat="44.44024" lon="1.35981">
        <ele>200.3</ele>
        <time>2025-03-08T15:25:42Z</time>
      </trkpt>
      <trkpt lat="44.44024" lon="1.35982">
        <ele>200.5</ele>
        <time>2025-03-08T15:25:43Z</time>
      </trkpt>
      <trkpt lat="44.44024" lon="1.35983">
        <ele>200.6</ele>
        <time>2025-03-08T15:25:44Z</time>
      </trkpt>
      <trkpt lat="44.44023" lon="1.35983">
        <ele>200.9</ele>
        <time>2025-03-08T15:25:45Z</time>
      </trkpt>
      <trkpt lat="44.44023" lon="1.35983">
        <ele>201.1</ele>
        <time>2025-03-08T15:25:46Z</time>
      </trkpt>
      <trkpt lat="44.44022" lon="1.35983">
        <ele>201.4</ele>
        <time>2025-03-08T15:25:47Z</time>
      </trkpt>
      <trkpt lat="44.44021" lon="1.35983">
        <ele>201.7</ele>
        <time>2025-03-08T15:25:48Z</time>
      </trkpt>
      <trkpt lat="44.4402" lon="1.35983">
        <ele>202</ele>
        <time>2025-03-08T15:25:49Z</time>
      </trkpt>
      <trkpt lat="44.44019" lon="1.35983">
        <ele>202.2</ele>
        <time>2025-03-08T15:25:50Z</time>
      </trkpt>
      <trkpt lat="44.44019" lon="1.35984">
        <ele>202.3</ele>
        <time>2025-03-08T15:25:51Z</time>
      </trkpt>
      <trkpt lat="44.44018" lon="1.35984">
        <ele>202.5</ele>
        <time>2025-03-08T15:25:52Z</time>
      </trkpt>
      <trkpt lat="44.44018" lon="1.35985">
        <ele>202.8</ele>
        <time>2025-03-08T15:25:53Z</time>
      </trkpt>
      <trkpt lat="44.44018" lon="1.35986">
        <ele>203</ele>
        <time>2025-03-08T15:25:54Z</time>
      </trkpt>
      <trkpt lat="44.44018" lon="1.35987">
        <ele>203.2</ele>
        <time>2025-03-08T15:25:55Z</time>
      </trkpt>
      <trkpt lat="44.44017" lon="1.35987">
        <ele>203.3</ele>
        <time>2025-03-08T15:25:56Z</time>
      </trkpt>
      <trkpt lat="44.44017" lon="1.35987">
        <ele>203.5</ele>
        <time>2025-03-08T15:25:57Z</time>
      </trkpt>
      <trkpt lat="44.44016" lon="1.35987">
        <ele>203.7</ele>
        <time>2025-03-08T15:25:58Z</time>
      </trkpt>
      <trkpt lat="44.44015" lon="1.35987">
        <ele>203.9</ele>
        <time>2025-03-08T15:25:59Z</time>
      </trkpt>
      <trkpt lat="44.44015" lon="1.35987">
        <ele>204.2</ele>
        <time>2025-03-08T15:26:00Z</time>
      </trkpt>
      <trkpt lat="44.44013" lon="1.35987">
        <ele>204.5</ele>
        <time>2025-03-08T15:26:01Z</time>
      </trkpt>
      <trkpt lat="44.44012" lon="1.35987">
        <ele>204.8</ele>
        <time>2025-03-08T15:26:02Z</time>
      </trkpt>
      <trkpt lat="44.44012" lon="1.35987">
        <ele>205</ele>
        <time>2025-03-08T15:26:03Z</time>
      </trkpt>
      <trkpt lat="44.44011" lon="1.35988">
        <ele>205.4</ele>
        <time>2025-03-08T15:26:04Z</time>
      </trkpt>
      <trkpt lat="44.4401" lon="1.35988">
        <ele>205.6</ele>
        <time>2025-03-08T15:26:05Z</time>
      </trkpt>
      <trkpt lat="44.44009" lon="1.35989">
        <ele>205.9</ele>
        <time>2025-03-08T15:26:06Z</time>
      </trkpt>
      <trkpt lat="44.44008" lon="1.35989">
        <ele>206.2</ele>
        <time>2025-03-08T15:26:07Z</time>
      </trkpt>
      <trkpt lat="44.44007" lon="1.35989">
        <ele>206.4</ele>
        <time>2025-03-08T15:26:08Z</time>
      </trkpt>
      <trkpt lat="44.44006" lon="1.3599">
        <ele>206.7</ele>
        <time>2025-03-08T15:26:09Z</time>
      </trkpt>
      <trkpt lat="44.44005" lon="1.3599">
        <ele>206.9</ele>
        <time>2025-03-08T15:26:10Z</time>
      </trkpt>
      <trkpt lat="44.44004" lon="1.3599">
        <ele>207.1</ele>
        <time>2025-03-08T15:26:11Z</time>
      </trkpt>
      <trkpt lat="44.44003" lon="1.3599">
        <ele>207.3</ele>
        <time>2025-03-08T15:26:12Z</time>
      </trkpt>
      <trkpt lat="44.44002" lon="1.3599">
        <ele>207.6</ele>
        <time>2025-03-08T15:26:13Z</time>
      </trkpt>
      <trkpt lat="44.44001" lon="1.35991">
        <ele>207.9</ele>
        <time>2025-03-08T15:26:14Z</time>
      </trkpt>
      <trkpt lat="44.44001" lon="1.35992">
        <ele>208</ele>
        <time>2025-03-08T15:26:15Z</time>
      </trkpt>
      <trkpt lat="44.44001" lon="1.35992">
        <ele>208.2</ele>
        <time>2025-03-08T15:26:16Z</time>
      </trkpt>
      <trkpt lat="44.44" lon="1.35992">
        <ele>208.4</ele>
        <time>2025-03-08T15:26:17Z</time>
      </trkpt>
      <trkpt lat="44.43999" lon="1.35992">
        <ele>208.6</ele>
        <time>2025-03-08T15:26:18Z</time>
      </trkpt>
      <trkpt lat="44.43999" lon="1.35993">
        <ele>208.6</ele>
        <time>2025-03-08T15:26:19Z</time>
      </trkpt>
      <trkpt lat="44.43999" lon="1.35993">
        <ele>208.6</ele>
        <time>2025-03-08T15:26:20Z</time>
      </trkpt>
      <trkpt lat="44.43999" lon="1.35993">
        <ele>208.7</ele>
        <time>2025-03-08T15:26:21Z</time>
      </trkpt>
      <trkpt lat="44.43999" lon="1.35993">
        <ele>208.7</ele>
        <time>2025-03-08T15:26:22Z</time>
      </trkpt>
      <trkpt lat="44.43999" lon="1.35993">
        <ele>208.8</ele>
        <time>2025-03-08T15:26:23Z</time>
      </trkpt>
      <trkpt lat="44.43999" lon="1.35992">
        <ele>209</ele>
        <time>2025-03-08T15:26:24Z</time>
      </trkpt>
      <trkpt lat="44.43999" lon="1.35992">
        <ele>209.1</ele>
        <time>2025-03-08T15:26:25Z</time>
      </trkpt>
      <trkpt lat="44.43998" lon="1.35991">
        <ele>209.2</ele>
        <time>2025-03-08T15:26:26Z</time>
      </trkpt>
      <trkpt lat="44.43998" lon="1.35991">
        <ele>209.3</ele>
        <time>2025-03-08T15:26:27Z</time>
      </trkpt>
      <trkpt lat="44.43997" lon="1.35991">
        <ele>209.4</ele>
        <time>2025-03-08T15:26:28Z</time>
      </trkpt>
      <trkpt lat="44.43997" lon="1.3599">
        <ele>209.5</ele>
        <time>2025-03-08T15:26:29Z</time>
      </trkpt>
      <trkpt lat="44.43997" lon="1.3599">
        <ele>209.7</ele>
        <time>2025-03-08T15:26:30Z</time>
      </trkpt>
      <trkpt lat="44.43996" lon="1.35989">
        <ele>209.8</ele>
        <time>2025-03-08T15:26:31Z</time>
      </trkpt>
      <trkpt lat="44.43996" lon="1.35989">
        <ele>210</ele>
        <time>2025-03-08T15:26:32Z</time>
      </trkpt>
      <trkpt lat="44.43995" lon="1.35989">
        <ele>210.1</ele>
        <time>2025-03-08T15:26:33Z</time>
      </trkpt>
      <trkpt lat="44.43994" lon="1.35989">
        <ele>210.4</ele>
        <time>2025-03-08T15:26:34Z</time>
      </trkpt>
      <trkpt lat="44.43993" lon="1.35989">
        <ele>210.7</ele>
        <time>2025-03-08T15:26:35Z</time>
      </trkpt>
      <trkpt lat="44.43991" lon="1.35989">
        <ele>211.2</ele>
        <time>2025-03-08T15:26:36Z</time>
      </trkpt>
      <trkpt lat="44.4399" lon="1.35989">
        <ele>211.5</ele>
        <time>2025-03-08T15:26:37Z</time>
      </trkpt>
      <trkpt lat="44.43988" lon="1.3599">
        <ele>212</ele>
        <time>2025-03-08T15:26:38Z</time>
      </trkpt>
      <trkpt lat="44.43987" lon="1.3599">
        <ele>212.3</ele>
        <time>2025-03-08T15:26:39Z</time>
      </trkpt>
      <trkpt lat="44.43985" lon="1.35991">
        <ele>212.8</ele>
        <time>2025-03-08T15:26:40Z</time>
      </trkpt>
      <trkpt lat="44.43984" lon="1.35992">
        <ele>213</ele>
        <time>2025-03-08T15:26:41Z</time>
      </trkpt>
      <trkpt lat="44.43983" lon="1.35992">
        <ele>213.2</ele>
        <time>2025-03-08T15:26:42Z</time>
      </trkpt>
      <trkpt lat="44.43982" lon="1.35993">
        <ele>213.5</ele>
        <time>2025-03-08T15:26:43Z</time>
      </trkpt>
      <trkpt lat="44.43982" lon="1.35993">
        <ele>213.7</ele>
        <time>2025-03-08T15:26:44Z</time>
      </trkpt>
      <trkpt lat="44.43981" lon="1.35993">
        <ele>213.8</ele>
        <time>2025-03-08T15:26:45Z</time>
      </trkpt>
      <trkpt lat="44.43981" lon="1.35994">
        <ele>213.9</ele>
        <time>2025-03-08T15:26:46Z</time>
      </trkpt>
      <trkpt lat="44.4398" lon="1.35994">
        <ele>214</ele>
        <time>2025-03-08T15:26:47Z</time>
      </trkpt>
      <trkpt lat="44.4398" lon="1.35994">
        <ele>214.1</ele>
        <time>2025-03-08T15:26:48Z</time>
      </trkpt>
      <trkpt lat="44.4398" lon="1.35994">
        <ele>214.2</ele>
        <time>2025-03-08T15:26:49Z</time>
      </trkpt>
      <trkpt lat="44.43979" lon="1.35994">
        <ele>214.3</ele>
        <time>2025-03-08T15:26:50Z</time>
      </trkpt>
      <trkpt lat="44.43979" lon="1.35994">
        <ele>214.4</ele>
        <time>2025-03-08T15:26:51Z</time>
      </trkpt>
      <trkpt lat="44.43979" lon="1.35993">
        <ele>214.4</ele>
        <time>2025-03-08T15:26:52Z</time>
      </trkpt>
      <trkpt lat="44.43979" lon="1.35993">
        <ele>214.5</ele>
        <time>2025-03-08T15:26:53Z</time>
      </trkpt>
      <trkpt lat="44.43978" lon="1.35993">
        <ele>214.5</ele>
        <time>2025-03-08T15:26:54Z</time>
      </trkpt>
      <trkpt lat="44.43978" lon="1.35993">
        <ele>214.5</ele>
        <time>2025-03-08T15:26:55Z</time>
      </trkpt>
      <trkpt lat="44.43978" lon="1.35993">
        <ele>214.5</ele>
        <time>2025-03-08T15:26:56Z</time>
      </trkpt>
      <trkpt lat="44.43978" lon="1.35993">
        <ele>214.5</ele>
        <time>2025-03-08T15:26:57Z</time>
      </trkpt>
      <trkpt lat="44.43979" lon="1.35993">
        <ele>214.6</ele>
        <time>2025-03-08T15:26:58Z</time>
      </trkpt>
      <trkpt lat="44.43979" lon="1.35993">
        <ele>214.6</ele>
        <time>2025-03-08T15:26:59Z</time>
      </trkpt>
      <trkpt lat="44.43979" lon="1.35993">
        <ele>214.7</ele>
        <time>2025-03-08T15:27:00Z</time>
      </trkpt>
      <trkpt lat="44.43979" lon="1.35993">
        <ele>214.7</ele>
        <time>2025-03-08T15:27:01Z</time>
      </trkpt>
      <trkpt lat="44.43979" lon="1.35993">
        <ele>214.8</ele>
        <time>2025-03-08T15:27:02Z</time>
      </trkpt>
      <trkpt lat="44.43979" lon="1.35993">
        <ele>214.8</ele>
        <time>2025-03-08T15:27:03Z</time>
      </trkpt>
      <trkpt lat="44.4398" lon="1.35993">
        <ele>214.8</ele>
        <time>2025-03-08T15:27:04Z</time>
      </trkpt>
      <trkpt lat="44.4398" lon="1.35993">
        <ele>214.9</ele>
        <time>2025-03-08T15:27:05Z</time>
      </trkpt>
      <trkpt lat="44.4398" lon="1.35993">
        <ele>214.9</ele>
        <time>2025-03-08T15:27:06Z</time>
      </trkpt>
      <trkpt lat="44.43981" lon="1.35994">
        <ele>215.1</ele>
        <time>2025-03-08T15:27:07Z</time>
      </trkpt>
      <trkpt lat="44.43981" lon="1.35994">
        <ele>215.2</ele>
        <time>2025-03-08T15:27:08Z</time>
      </trkpt>
      <trkpt lat="44.43981" lon="1.35994">
        <ele>215.2</ele>
        <time>2025-03-08T15:27:09Z</time>
      </trkpt>
      <trkpt lat="44.43981" lon="1.35994">
        <ele>215.3</ele>
        <time>2025-03-08T15:27:10Z</time>
      </trkpt>
      <trkpt lat="44.4398" lon="1.35994">
        <ele>215.4</ele>
        <time>2025-03-08T15:27:11Z</time>
      </trkpt>
      <trkpt lat="44.43979" lon="1.35994">
        <ele>215.6</ele>
        <time>2025-03-08T15:27:12Z</time>
      </trkpt>
      <trkpt lat="44.43978" lon="1.35993">
        <ele>215.8</ele>
        <time>2025-03-08T15:27:13Z</time>
      </trkpt>
      <trkpt lat="44.43978" lon="1.35993">
        <ele>216</ele>
        <time>2025-03-08T15:27:14Z</time>
      </trkpt>
      <trkpt lat="44.43978" lon="1.35993">
        <ele>216</ele>
        <time>2025-03-08T15:27:15Z</time>
      </trkpt>
      <trkpt lat="44.43978" lon="1.35993">
        <ele>216.1</ele>
        <time>2025-03-08T15:27:16Z</time>
      </trkpt>
      <trkpt lat="44.43977" lon="1.35993">
        <ele>216.1</ele>
        <time>2025-03-08T15:27:17Z</time>
      </trkpt>
      <trkpt lat="44.43977" lon="1.35993">
        <ele>216.1</ele>
        <time>2025-03-08T15:27:18Z</time>
      </trkpt>
      <trkpt lat="44.43976" lon="1.35993">
        <ele>216.4</ele>
        <time>2025-03-08T15:27:19Z</time>
      </trkpt>
      <trkpt lat="44.43973" lon="1.35993">
        <ele>217</ele>
        <time>2025-03-08T15:27:20Z</time>
      </trkpt>
      <trkpt lat="44.43972" lon="1.35993">
        <ele>217.2</ele>
        <time>2025-03-08T15:27:21Z</time>
      </trkpt>
      <trkpt lat="44.43971" lon="1.35993">
        <ele>217.6</ele>
        <time>2025-03-08T15:27:22Z</time>
      </trkpt>
      <trkpt lat="44.43969" lon="1.35993">
        <ele>217.9</ele>
        <time>2025-03-08T15:27:23Z</time>
      </trkpt>
      <trkpt lat="44.43968" lon="1.35994">
        <ele>218.1</ele>
        <time>2025-03-08T15:27:24Z</time>
      </trkpt>
      <trkpt lat="44.43967" lon="1.35994">
        <ele>218.4</ele>
        <time>2025-03-08T15:27:25Z</time>
      </trkpt>
      <trkpt lat="44.43966" lon="1.35994">
        <ele>218.6</ele>
        <time>2025-03-08T15:27:26Z</time>
      </trkpt>
      <trkpt lat="44.43965" lon="1.35994">
        <ele>218.8</ele>
        <time>2025-03-08T15:27:27Z</time>
      </trkpt>
      <trkpt lat="44.43963" lon="1.35995">
        <ele>219.2</ele>
        <time>2025-03-08T15:27:28Z</time>
      </trkpt>
      <trkpt lat="44.43961" lon="1.35995">
        <ele>219.6</ele>
        <time>2025-03-08T15:27:29Z</time>
      </trkpt>
      <trkpt lat="44.4396" lon="1.35995">
        <ele>219.8</ele>
        <time>2025-03-08T15:27:30Z</time>
      </trkpt>
      <trkpt lat="44.43959" lon="1.35995">
        <ele>220</ele>
        <time>2025-03-08T15:27:31Z</time>
      </trkpt>
      <trkpt lat="44.43958" lon="1.35994">
        <ele>220.2</ele>
        <time>2025-03-08T15:27:32Z</time>
      </trkpt>
      <trkpt lat="44.43957" lon="1.35994">
        <ele>220.4</ele>
        <time>2025-03-08T15:27:33Z</time>
      </trkpt>
      <trkpt lat="44.43956" lon="1.35993">
        <ele>220.6</ele>
        <time>2025-03-08T15:27:34Z</time>
      </trkpt>
      <trkpt lat="44.43955" lon="1.35993">
        <ele>220.9</ele>
        <time>2025-03-08T15:27:35Z</time>
      </trkpt>
      <trkpt lat="44.43953" lon="1.35992">
        <ele>221.3</ele>
        <time>2025-03-08T15:27:36Z</time>
      </trkpt>
      <trkpt lat="44.43951" lon="1.35992">
        <ele>221.9</ele>
        <time>2025-03-08T15:27:37Z</time>
      </trkpt>
      <trkpt lat="44.4395" lon="1.35992">
        <ele>222.1</ele>
        <time>2025-03-08T15:27:38Z</time>
      </trkpt>
      <trkpt lat="44.43948" lon="1.35992">
        <ele>222.4</ele>
        <time>2025-03-08T15:27:39Z</time>
      </trkpt>
      <trkpt lat="44.43947" lon="1.35991">
        <ele>222.7</ele>
        <time>2025-03-08T15:27:40Z</time>
      </trkpt>
      <trkpt lat="44.43946" lon="1.35991">
        <ele>222.9</ele>
        <time>2025-03-08T15:27:41Z</time>
      </trkpt>
      <trkpt lat="44.43945" lon="1.35991">
        <ele>223</ele>
        <time>2025-03-08T15:27:42Z</time>
      </trkpt>
      <trkpt lat="44.43945" lon="1.35991">
        <ele>223.1</ele>
        <time>2025-03-08T15:27:43Z</time>
      </trkpt>
      <trkpt lat="44.43945" lon="1.35991">
        <ele>223.1</ele>
        <time>2025-03-08T15:27:44Z</time>
      </trkpt>
      <trkpt lat="44.43945" lon="1.3599">
        <ele>223.2</ele>
        <time>2025-03-08T15:27:45Z</time>
      </trkpt>
      <trkpt lat="44.43944" lon="1.3599">
        <ele>223.3</ele>
        <time>2025-03-08T15:27:46Z</time>
      </trkpt>
      <trkpt lat="44.43944" lon="1.35989">
        <ele>223.4</ele>
        <time>2025-03-08T15:27:47Z</time>
      </trkpt>
      <trkpt lat="44.43943" lon="1.35988">
        <ele>223.5</ele>
        <time>2025-03-08T15:27:48Z</time>
      </trkpt>
      <trkpt lat="44.43943" lon="1.35988">
        <ele>223.7</ele>
        <time>2025-03-08T15:27:49Z</time>
      </trkpt>
      <trkpt lat="44.43942" lon="1.35987">
        <ele>223.8</ele>
        <time>2025-03-08T15:27:50Z</time>
      </trkpt>
      <trkpt lat="44.43941" lon="1.35986">
        <ele>224</ele>
        <time>2025-03-08T15:27:51Z</time>
      </trkpt>
      <trkpt lat="44.43941" lon="1.35985">
        <ele>224.1</ele>
        <time>2025-03-08T15:27:52Z</time>
      </trkpt>
      <trkpt lat="44.43941" lon="1.35985">
        <ele>224.2</ele>
        <time>2025-03-08T15:27:53Z</time>
      </trkpt>
      <trkpt lat="44.4394" lon="1.35984">
        <ele>224.3</ele>
        <time>2025-03-08T15:27:54Z</time>
      </trkpt>
      <trkpt lat="44.4394" lon="1.35984">
        <ele>224.4</ele>
        <time>2025-03-08T15:27:55Z</time>
      </trkpt>
      <trkpt lat="44.43939" lon="1.35983">
        <ele>224.5</ele>
        <time>2025-03-08T15:27:56Z</time>
      </trkpt>
      <trkpt lat="44.43939" lon="1.35982">
        <ele>224.6</ele>
        <time>2025-03-08T15:27:57Z</time>
      </trkpt>
      <trkpt lat="44.43939" lon="1.35981">
        <ele>224.8</ele>
        <time>2025-03-08T15:27:58Z</time>
      </trkpt>
      <trkpt lat="44.43938" lon="1.3598">
        <ele>224.9</ele>
        <time>2025-03-08T15:27:59Z</time>
      </trkpt>
      <trkpt lat="44.43938" lon="1.35979">
        <ele>225</ele>
        <time>2025-03-08T15:28:00Z</time>
      </trkpt>
      <trkpt lat="44.43938" lon="1.35978">
        <ele>225.1</ele>
        <time>2025-03-08T15:28:01Z</time>
      </trkpt>
      <trkpt lat="44.43937" lon="1.35977">
        <ele>225.2</ele>
        <time>2025-03-08T15:28:02Z</time>
      </trkpt>
      <trkpt lat="44.43936" lon="1.35976">
        <ele>225.4</ele>
        <time>2025-03-08T15:28:03Z</time>
      </trkpt>
      <trkpt lat="44.43935" lon="1.35975">
        <ele>225.5</ele>
        <time>2025-03-08T15:28:04Z</time>
      </trkpt>
      <trkpt lat="44.43935" lon="1.35974">
        <ele>225.6</ele>
        <time>2025-03-08T15:28:05Z</time>
      </trkpt>
      <trkpt lat="44.43935" lon="1.35973">
        <ele>225.7</ele>
        <time>2025-03-08T15:28:06Z</time>
      </trkpt>
      <trkpt lat="44.43935" lon="1.35973">
        <ele>225.7</ele>
        <time>2025-03-08T15:28:07Z</time>
      </trkpt>
      <trkpt lat="44.43934" lon="1.35973">
        <ele>225.8</ele>
        <time>2025-03-08T15:28:08Z</time>
      </trkpt>
      <trkpt lat="44.43934" lon="1.35973">
        <ele>225.9</ele>
        <time>2025-03-08T15:28:09Z</time>
      </trkpt>
      <trkpt lat="44.43934" lon="1.35971">
        <ele>226</ele>
        <time>2025-03-08T15:28:10Z</time>
      </trkpt>
      <trkpt lat="44.43934" lon="1.3597">
        <ele>226.1</ele>
        <time>2025-03-08T15:28:11Z</time>
      </trkpt>
      <trkpt lat="44.43935" lon="1.35967">
        <ele>226.3</ele>
        <time>2025-03-08T15:28:12Z</time>
      </trkpt>
      <trkpt lat="44.43935" lon="1.35965">
        <ele>226.5</ele>
        <time>2025-03-08T15:28:13Z</time>
      </trkpt>
      <trkpt lat="44.43935" lon="1.35963">
        <ele>226.7</ele>
        <time>2025-03-08T15:28:14Z</time>
      </trkpt>
      <trkpt lat="44.43935" lon="1.35961">
        <ele>226.9</ele>
        <time>2025-03-08T15:28:15Z</time>
      </trkpt>
      <trkpt lat="44.43935" lon="1.35958">
        <ele>227.1</ele>
        <time>2025-03-08T15:28:16Z</time>
      </trkpt>
      <trkpt lat="44.43934" lon="1.35957">
        <ele>227.2</ele>
        <time>2025-03-08T15:28:17Z</time>
      </trkpt>
      <trkpt lat="44.43934" lon="1.35955">
        <ele>227.4</ele>
        <time>2025-03-08T15:28:18Z</time>
      </trkpt>
      <trkpt lat="44.43933" lon="1.35953">
        <ele>227.5</ele>
        <time>2025-03-08T15:28:19Z</time>
      </trkpt>
      <trkpt lat="44.43933" lon="1.35951">
        <ele>227.6</ele>
        <time>2025-03-08T15:28:20Z</time>
      </trkpt>
      <trkpt lat="44.43931" lon="1.3595">
        <ele>227.8</ele>
        <time>2025-03-08T15:28:21Z</time>
      </trkpt>
      <trkpt lat="44.4393" lon="1.35949">
        <ele>227.9</ele>
        <time>2025-03-08T15:28:22Z</time>
      </trkpt>
      <trkpt lat="44.43929" lon="1.35949">
        <ele>228</ele>
        <time>2025-03-08T15:28:23Z</time>
      </trkpt>
      <trkpt lat="44.43928" lon="1.35948">
        <ele>228.1</ele>
        <time>2025-03-08T15:28:24Z</time>
      </trkpt>
      <trkpt lat="44.43927" lon="1.35948">
        <ele>228.2</ele>
        <time>2025-03-08T15:28:25Z</time>
      </trkpt>
      <trkpt lat="44.43925" lon="1.35947">
        <ele>228.3</ele>
        <time>2025-03-08T15:28:26Z</time>
      </trkpt>
      <trkpt lat="44.43924" lon="1.35947">
        <ele>228.4</ele>
        <time>2025-03-08T15:28:27Z</time>
      </trkpt>
      <trkpt lat="44.43923" lon="1.35946">
        <ele>228.5</ele>
        <time>2025-03-08T15:28:28Z</time>
      </trkpt>
      <trkpt lat="44.4392" lon="1.35945">
        <ele>228.7</ele>
        <time>2025-03-08T15:28:29Z</time>
      </trkpt>
      <trkpt lat="44.43919" lon="1.35945">
        <ele>228.8</ele>
        <time>2025-03-08T15:28:30Z</time>
      </trkpt>
      <trkpt lat="44.43919" lon="1.35945">
        <ele>228.8</ele>
        <time>2025-03-08T15:28:31Z</time>
      </trkpt>
      <trkpt lat="44.43917" lon="1.35945">
        <ele>229</ele>
        <time>2025-03-08T15:28:32Z</time>
      </trkpt>
      <trkpt lat="44.43916" lon="1.35945">
        <ele>229</ele>
        <time>2025-03-08T15:28:33Z</time>
      </trkpt>
      <trkpt lat="44.43915" lon="1.35945">
        <ele>229.1</ele>
        <time>2025-03-08T15:28:34Z</time>
      </trkpt>
      <trkpt lat="44.43913" lon="1.35945">
        <ele>229.2</ele>
        <time>2025-03-08T15:28:35Z</time>
      </trkpt>
      <trkpt lat="44.43912" lon="1.35946">
        <ele>229.3</ele>
        <time>2025-03-08T15:28:36Z</time>
      </trkpt>
      <trkpt lat="44.43911" lon="1.35946">
        <ele>229.3</ele>
        <time>2025-03-08T15:28:37Z</time>
      </trkpt>
      <trkpt lat="44.43909" lon="1.35945">
        <ele>229.4</ele>
        <time>2025-03-08T15:28:38Z</time>
      </trkpt>
      <trkpt lat="44.43909" lon="1.35944">
        <ele>229.5</ele>
        <time>2025-03-08T15:28:39Z</time>
      </trkpt>
      <trkpt lat="44.43908" lon="1.35944">
        <ele>229.5</ele>
        <time>2025-03-08T15:28:40Z</time>
      </trkpt>
      <trkpt lat="44.43906" lon="1.35943">
        <ele>229.6</ele>
        <time>2025-03-08T15:28:41Z</time>
      </trkpt>
      <trkpt lat="44.43905" lon="1.35943">
        <ele>229.7</ele>
        <time>2025-03-08T15:28:42Z</time>
      </trkpt>
      <trkpt lat="44.43903" lon="1.35943">
        <ele>229.8</ele>
        <time>2025-03-08T15:28:43Z</time>
      </trkpt>
      <trkpt lat="44.43902" lon="1.35943">
        <ele>229.9</ele>
        <time>2025-03-08T15:28:44Z</time>
      </trkpt>
      <trkpt lat="44.439" lon="1.35943">
        <ele>230</ele>
        <time>2025-03-08T15:28:45Z</time>
      </trkpt>
      <trkpt lat="44.43898" lon="1.35944">
        <ele>230.1</ele>
        <time>2025-03-08T15:28:46Z</time>
      </trkpt>
      <trkpt lat="44.43897" lon="1.35944">
        <ele>230.2</ele>
        <time>2025-03-08T15:28:47Z</time>
      </trkpt>
      <trkpt lat="44.43895" lon="1.35945">
        <ele>230.3</ele>
        <time>2025-03-08T15:28:48Z</time>
      </trkpt>
      <trkpt lat="44.43892" lon="1.35946">
        <ele>230.5</ele>
        <time>2025-03-08T15:28:49Z</time>
      </trkpt>
      <trkpt lat="44.43891" lon="1.35947">
        <ele>230.5</ele>
        <time>2025-03-08T15:28:50Z</time>
      </trkpt>
      <trkpt lat="44.43889" lon="1.35946">
        <ele>230.6</ele>
        <time>2025-03-08T15:28:51Z</time>
      </trkpt>
      <trkpt lat="44.43888" lon="1.35946">
        <ele>230.7</ele>
        <time>2025-03-08T15:28:52Z</time>
      </trkpt>
      <trkpt lat="44.43887" lon="1.35945">
        <ele>230.7</ele>
        <time>2025-03-08T15:28:53Z</time>
      </trkpt>
      <trkpt lat="44.43886" lon="1.35944">
        <ele>230.8</ele>
        <time>2025-03-08T15:28:54Z</time>
      </trkpt>
      <trkpt lat="44.43884" lon="1.35943">
        <ele>230.9</ele>
        <time>2025-03-08T15:28:55Z</time>
      </trkpt>
      <trkpt lat="44.43882" lon="1.35941">
        <ele>231</ele>
        <time>2025-03-08T15:28:56Z</time>
      </trkpt>
      <trkpt lat="44.43881" lon="1.35941">
        <ele>231.1</ele>
        <time>2025-03-08T15:28:57Z</time>
      </trkpt>
      <trkpt lat="44.43879" lon="1.3594">
        <ele>231.2</ele>
        <time>2025-03-08T15:28:58Z</time>
      </trkpt>
      <trkpt lat="44.43877" lon="1.35939">
        <ele>231.3</ele>
        <time>2025-03-08T15:28:59Z</time>
      </trkpt>
      <trkpt lat="44.43875" lon="1.35939">
        <ele>231.4</ele>
        <time>2025-03-08T15:29:00Z</time>
      </trkpt>
      <trkpt lat="44.43874" lon="1.35938">
        <ele>231.4</ele>
        <time>2025-03-08T15:29:01Z</time>
      </trkpt>
      <trkpt lat="44.43873" lon="1.35937">
        <ele>231.5</ele>
        <time>2025-03-08T15:29:02Z</time>
      </trkpt>
      <trkpt lat="44.43872" lon="1.35936">
        <ele>231.5</ele>
        <time>2025-03-08T15:29:03Z</time>
      </trkpt>
      <trkpt lat="44.43871" lon="1.35935">
        <ele>231.6</ele>
        <time>2025-03-08T15:29:04Z</time>
      </trkpt>
      <trkpt lat="44.4387" lon="1.35933">
        <ele>231.7</ele>
        <time>2025-03-08T15:29:05Z</time>
      </trkpt>
      <trkpt lat="44.4387" lon="1.3593">
        <ele>231.7</ele>
        <time>2025-03-08T15:29:06Z</time>
      </trkpt>
      <trkpt lat="44.43869" lon="1.35928">
        <ele>231.8</ele>
        <time>2025-03-08T15:29:07Z</time>
      </trkpt>
      <trkpt lat="44.43869" lon="1.35924">
        <ele>231.9</ele>
        <time>2025-03-08T15:29:08Z</time>
      </trkpt>
      <trkpt lat="44.43868" lon="1.35923">
        <ele>231.9</ele>
        <time>2025-03-08T15:29:09Z</time>
      </trkpt>
      <trkpt lat="44.43867" lon="1.35919">
        <ele>232</ele>
        <time>2025-03-08T15:29:10Z</time>
      </trkpt>
      <trkpt lat="44.43866" lon="1.35918">
        <ele>232</ele>
        <time>2025-03-08T15:29:11Z</time>
      </trkpt>
      <trkpt lat="44.43865" lon="1.35915">
        <ele>232.1</ele>
        <time>2025-03-08T15:29:12Z</time>
      </trkpt>
      <trkpt lat="44.43864" lon="1.35914">
        <ele>232.1</ele>
        <time>2025-03-08T15:29:13Z</time>
      </trkpt>
      <trkpt lat="44.43861" lon="1.35911">
        <ele>232.2</ele>
        <time>2025-03-08T15:29:14Z</time>
      </trkpt>
      <trkpt lat="44.4386" lon="1.3591">
        <ele>232.2</ele>
        <time>2025-03-08T15:29:15Z</time>
      </trkpt>
      <trkpt lat="44.43857" lon="1.35909">
        <ele>232.3</ele>
        <time>2025-03-08T15:29:16Z</time>
      </trkpt>
      <trkpt lat="44.43856" lon="1.35908">
        <ele>232.3</ele>
        <time>2025-03-08T15:29:17Z</time>
      </trkpt>
      <trkpt lat="44.43853" lon="1.35907">
        <ele>232.4</ele>
        <time>2025-03-08T15:29:18Z</time>
      </trkpt>
      <trkpt lat="44.43851" lon="1.35907">
        <ele>232.4</ele>
        <time>2025-03-08T15:29:19Z</time>
      </trkpt>
      <trkpt lat="44.43849" lon="1.35904">
        <ele>232.5</ele>
        <time>2025-03-08T15:29:20Z</time>
      </trkpt>
      <trkpt lat="44.43848" lon="1.35903">
        <ele>232.5</ele>
        <time>2025-03-08T15:29:21Z</time>
      </trkpt>
      <trkpt lat="44.43845" lon="1.359">
        <ele>232.6</ele>
        <time>2025-03-08T15:29:22Z</time>
      </trkpt>
      <trkpt lat="44.43844" lon="1.35899">
        <ele>232.7</ele>
        <time>2025-03-08T15:29:23Z</time>
      </trkpt>
      <trkpt lat="44.43842" lon="1.35896">
        <ele>232.8</ele>
        <time>2025-03-08T15:29:24Z</time>
      </trkpt>
      <trkpt lat="44.43841" lon="1.35895">
        <ele>232.8</ele>
        <time>2025-03-08T15:29:25Z</time>
      </trkpt>
      <trkpt lat="44.43838" lon="1.35891">
        <ele>233</ele>
        <time>2025-03-08T15:29:26Z</time>
      </trkpt>
      <trkpt lat="44.43838" lon="1.3589">
        <ele>233</ele>
        <time>2025-03-08T15:29:27Z</time>
      </trkpt>
      <trkpt lat="44.43835" lon="1.35887">
        <ele>233.1</ele>
        <time>2025-03-08T15:29:28Z</time>
      </trkpt>
      <trkpt lat="44.43834" lon="1.35886">
        <ele>233.2</ele>
        <time>2025-03-08T15:29:29Z</time>
      </trkpt>
      <trkpt lat="44.43832" lon="1.35883">
        <ele>233.3</ele>
        <time>2025-03-08T15:29:30Z</time>
      </trkpt>
      <trkpt lat="44.43832" lon="1.35882">
        <ele>233.4</ele>
        <time>2025-03-08T15:29:31Z</time>
      </trkpt>
      <trkpt lat="44.4383" lon="1.35878">
        <ele>233.5</ele>
        <time>2025-03-08T15:29:32Z</time>
      </trkpt>
      <trkpt lat="44.43829" lon="1.35877">
        <ele>233.6</ele>
        <time>2025-03-08T15:29:33Z</time>
      </trkpt>
      <trkpt lat="44.43827" lon="1.35874">
        <ele>233.8</ele>
        <time>2025-03-08T15:29:34Z</time>
      </trkpt>
      <trkpt lat="44.43827" lon="1.35873">
        <ele>233.8</ele>
        <time>2025-03-08T15:29:35Z</time>
      </trkpt>
      <trkpt lat="44.43824" lon="1.3587">
        <ele>234.1</ele>
        <time>2025-03-08T15:29:36Z</time>
      </trkpt>
      <trkpt lat="44.43823" lon="1.35869">
        <ele>234.1</ele>
        <time>2025-03-08T15:29:37Z</time>
      </trkpt>
      <trkpt lat="44.43822" lon="1.35866">
        <ele>234.3</ele>
        <time>2025-03-08T15:29:38Z</time>
      </trkpt>
      <trkpt lat="44.43821" lon="1.35865">
        <ele>234.4</ele>
        <time>2025-03-08T15:29:39Z</time>
      </trkpt>
      <trkpt lat="44.43821" lon="1.35862">
        <ele>234.6</ele>
        <time>2025-03-08T15:29:40Z</time>
      </trkpt>
      <trkpt lat="44.4382" lon="1.3586">
        <ele>234.7</ele>
        <time>2025-03-08T15:29:41Z</time>
      </trkpt>
      <trkpt lat="44.43819" lon="1.35858">
        <ele>234.9</ele>
        <time>2025-03-08T15:29:42Z</time>
      </trkpt>
      <trkpt lat="44.43818" lon="1.35856">
        <ele>235.1</ele>
        <time>2025-03-08T15:29:43Z</time>
      </trkpt>
      <trkpt lat="44.43815" lon="1.35854">
        <ele>235.4</ele>
        <time>2025-03-08T15:29:44Z</time>
      </trkpt>
      <trkpt lat="44.43814" lon="1.35854">
        <ele>235.5</ele>
        <time>2025-03-08T15:29:45Z</time>
      </trkpt>
      <trkpt lat="44.43811" lon="1.35852">
        <ele>235.8</ele>
        <time>2025-03-08T15:29:46Z</time>
      </trkpt>
      <trkpt lat="44.4381" lon="1.35851">
        <ele>235.9</ele>
        <time>2025-03-08T15:29:47Z</time>
      </trkpt>
      <trkpt lat="44.4381" lon="1.3585">
        <ele>236.1</ele>
        <time>2025-03-08T15:29:48Z</time>
      </trkpt>
      <trkpt lat="44.4381" lon="1.35847">
        <ele>236.3</ele>
        <time>2025-03-08T15:29:49Z</time>
      </trkpt>
      <trkpt lat="44.43809" lon="1.35842">
        <ele>236.6</ele>
        <time>2025-03-08T15:29:50Z</time>
      </trkpt>
      <trkpt lat="44.43809" lon="1.35841">
        <ele>236.8</ele>
        <time>2025-03-08T15:29:51Z</time>
      </trkpt>
      <trkpt lat="44.43808" lon="1.35836">
        <ele>237.1</ele>
        <time>2025-03-08T15:29:52Z</time>
      </trkpt>
      <trkpt lat="44.43807" lon="1.35835">
        <ele>237.2</ele>
        <time>2025-03-08T15:29:53Z</time>
      </trkpt>
      <trkpt lat="44.43804" lon="1.35833">
        <ele>237.5</ele>
        <time>2025-03-08T15:29:54Z</time>
      </trkpt>
      <trkpt lat="44.43803" lon="1.35832">
        <ele>237.6</ele>
        <time>2025-03-08T15:29:55Z</time>
      </trkpt>
      <trkpt lat="44.43799" lon="1.35831">
        <ele>237.8</ele>
        <time>2025-03-08T15:29:56Z</time>
      </trkpt>
      <trkpt lat="44.43798" lon="1.3583">
        <ele>237.9</ele>
        <time>2025-03-08T15:29:57Z</time>
      </trkpt>
      <trkpt lat="44.43795" lon="1.35829">
        <ele>238.1</ele>
        <time>2025-03-08T15:29:58Z</time>
      </trkpt>
      <trkpt lat="44.43792" lon="1.35827">
        <ele>238.3</ele>
        <time>2025-03-08T15:29:59Z</time>
      </trkpt>
      <trkpt lat="44.43791" lon="1.35826">
        <ele>238.4</ele>
        <time>2025-03-08T15:30:00Z</time>
      </trkpt>
      <trkpt lat="44.43788" lon="1.35824">
        <ele>238.6</ele>
        <time>2025-03-08T15:30:01Z</time>
      </trkpt>
      <trkpt lat="44.43787" lon="1.35823">
        <ele>238.7</ele>
        <time>2025-03-08T15:30:02Z</time>
      </trkpt>
      <trkpt lat="44.43785" lon="1.3582">
        <ele>238.9</ele>
        <time>2025-03-08T15:30:03Z</time>
      </trkpt>
      <trkpt lat="44.43784" lon="1.35819">
        <ele>239</ele>
        <time>2025-03-08T15:30:04Z</time>
      </trkpt>
      <trkpt lat="44.43782" lon="1.35817">
        <ele>239.2</ele>
        <time>2025-03-08T15:30:05Z</time>
      </trkpt>
      <trkpt lat="44.43781" lon="1.35816">
        <ele>239.3</ele>
        <time>2025-03-08T15:30:06Z</time>
      </trkpt>
      <trkpt lat="44.43778" lon="1.35814">
        <ele>239.5</ele>
        <time>2025-03-08T15:30:07Z</time>
      </trkpt>
      <trkpt lat="44.43777" lon="1.35813">
        <ele>239.6</ele>
        <time>2025-03-08T15:30:08Z</time>
      </trkpt>
      <trkpt lat="44.43776" lon="1.35811">
        <ele>239.8</ele>
        <time>2025-03-08T15:30:09Z</time>
      </trkpt>
      <trkpt lat="44.43774" lon="1.3581">
        <ele>239.9</ele>
        <time>2025-03-08T15:30:10Z</time>
      </trkpt>
      <trkpt lat="44.43773" lon="1.35808">
        <ele>240.1</ele>
        <time>2025-03-08T15:30:11Z</time>
      </trkpt>
      <trkpt lat="44.43772" lon="1.35806">
        <ele>240.2</ele>
        <time>2025-03-08T15:30:12Z</time>
      </trkpt>
      <trkpt lat="44.43769" lon="1.35804">
        <ele>240.5</ele>
        <time>2025-03-08T15:30:13Z</time>
      </trkpt>
      <trkpt lat="44.43768" lon="1.35803">
        <ele>240.5</ele>
        <time>2025-03-08T15:30:14Z</time>
      </trkpt>
      <trkpt lat="44.43767" lon="1.35802">
        <ele>240.7</ele>
        <time>2025-03-08T15:30:15Z</time>
      </trkpt>
      <trkpt lat="44.43766" lon="1.35801">
        <ele>240.8</ele>
        <time>2025-03-08T15:30:16Z</time>
      </trkpt>
      <trkpt lat="44.43765" lon="1.358">
        <ele>240.9</ele>
        <time>2025-03-08T15:30:17Z</time>
      </trkpt>
      <trkpt lat="44.43763" lon="1.35799">
        <ele>241.1</ele>
        <time>2025-03-08T15:30:18Z</time>
      </trkpt>
      <trkpt lat="44.43762" lon="1.35798">
        <ele>241.2</ele>
        <time>2025-03-08T15:30:19Z</time>
      </trkpt>
      <trkpt lat="44.43761" lon="1.35796">
        <ele>241.4</ele>
        <time>2025-03-08T15:30:20Z</time>
      </trkpt>
      <trkpt lat="44.43759" lon="1.35794">
        <ele>241.6</ele>
        <time>2025-03-08T15:30:21Z</time>
      </trkpt>
      <trkpt lat="44.43758" lon="1.35794">
        <ele>241.7</ele>
        <time>2025-03-08T15:30:22Z</time>
      </trkpt>
      <trkpt lat="44.43756" lon="1.35793">
        <ele>241.9</ele>
        <time>2025-03-08T15:30:23Z</time>
      </trkpt>
      <trkpt lat="44.43755" lon="1.35792">
        <ele>242.1</ele>
        <time>2025-03-08T15:30:24Z</time>
      </trkpt>
      <trkpt lat="44.43753" lon="1.3579">
        <ele>242.2</ele>
        <time>2025-03-08T15:30:25Z</time>
      </trkpt>
      <trkpt lat="44.43752" lon="1.35789">
        <ele>242.4</ele>
        <time>2025-03-08T15:30:26Z</time>
      </trkpt>
      <trkpt lat="44.4375" lon="1.35788">
        <ele>242.6</ele>
        <time>2025-03-08T15:30:27Z</time>
      </trkpt>
      <trkpt lat="44.43749" lon="1.35786">
        <ele>242.7</ele>
        <time>2025-03-08T15:30:28Z</time>
      </trkpt>
      <trkpt lat="44.43748" lon="1.35785">
        <ele>242.9</ele>
        <time>2025-03-08T15:30:29Z</time>
      </trkpt>
      <trkpt lat="44.43747" lon="1.35784">
        <ele>243</ele>
        <time>2025-03-08T15:30:30Z</time>
      </trkpt>
      <trkpt lat="44.43745" lon="1.35783">
        <ele>243.2</ele>
        <time>2025-03-08T15:30:31Z</time>
      </trkpt>
      <trkpt lat="44.43744" lon="1.35782">
        <ele>243.3</ele>
        <time>2025-03-08T15:30:32Z</time>
      </trkpt>
      <trkpt lat="44.43743" lon="1.35781">
        <ele>243.4</ele>
        <time>2025-03-08T15:30:33Z</time>
      </trkpt>
      <trkpt lat="44.43742" lon="1.35782">
        <ele>243.6</ele>
        <time>2025-03-08T15:30:34Z</time>
      </trkpt>
      <trkpt lat="44.4374" lon="1.35783">
        <ele>243.7</ele>
        <time>2025-03-08T15:30:35Z</time>
      </trkpt>
      <trkpt lat="44.4374" lon="1.35784">
        <ele>243.8</ele>
        <time>2025-03-08T15:30:36Z</time>
      </trkpt>
      <trkpt lat="44.4374" lon="1.35784">
        <ele>243.8</ele>
        <time>2025-03-08T15:30:37Z</time>
      </trkpt>
      <trkpt lat="44.4374" lon="1.35784">
        <ele>243.9</ele>
        <time>2025-03-08T15:30:38Z</time>
      </trkpt>
      <trkpt lat="44.43741" lon="1.35783">
        <ele>244</ele>
        <time>2025-03-08T15:30:39Z</time>
      </trkpt>
      <trkpt lat="44.43741" lon="1.35783">
        <ele>244</ele>
        <time>2025-03-08T15:30:40Z</time>
      </trkpt>
      <trkpt lat="44.43742" lon="1.35783">
        <ele>244</ele>
        <time>2025-03-08T15:30:41Z</time>
      </trkpt>
      <trkpt lat="44.43742" lon="1.35783">
        <ele>244.1</ele>
        <time>2025-03-08T15:30:42Z</time>
      </trkpt>
      <trkpt lat="44.43742" lon="1.35783">
        <ele>244.1</ele>
        <time>2025-03-08T15:30:43Z</time>
      </trkpt>
      <trkpt lat="44.43742" lon="1.35784">
        <ele>244.1</ele>
        <time>2025-03-08T15:30:44Z</time>
      </trkpt>
      <trkpt lat="44.43742" lon="1.35783">
        <ele>244.1</ele>
        <time>2025-03-08T15:30:45Z</time>
      </trkpt>
      <trkpt lat="44.43743" lon="1.35782">
        <ele>244.2</ele>
        <time>2025-03-08T15:30:46Z</time>
      </trkpt>
      <trkpt lat="44.43742" lon="1.3578">
        <ele>244.3</ele>
        <time>2025-03-08T15:30:47Z</time>
      </trkpt>
      <trkpt lat="44.43742" lon="1.35779">
        <ele>244.5</ele>
        <time>2025-03-08T15:30:48Z</time>
      </trkpt>
      <trkpt lat="44.43741" lon="1.35778">
        <ele>244.6</ele>
        <time>2025-03-08T15:30:49Z</time>
      </trkpt>
      <trkpt lat="44.4374" lon="1.35776">
        <ele>244.7</ele>
        <time>2025-03-08T15:30:50Z</time>
      </trkpt>
      <trkpt lat="44.43739" lon="1.35775">
        <ele>244.8</ele>
        <time>2025-03-08T15:30:51Z</time>
      </trkpt>
      <trkpt lat="44.43737" lon="1.35774">
        <ele>245</ele>
        <time>2025-03-08T15:30:52Z</time>
      </trkpt>
      <trkpt lat="44.43736" lon="1.35773">
        <ele>245.1</ele>
        <time>2025-03-08T15:30:53Z</time>
      </trkpt>
      <trkpt lat="44.43735" lon="1.35771">
        <ele>245.3</ele>
        <time>2025-03-08T15:30:54Z</time>
      </trkpt>
      <trkpt lat="44.43734" lon="1.3577">
        <ele>245.4</ele>
        <time>2025-03-08T15:30:55Z</time>
      </trkpt>
      <trkpt lat="44.43732" lon="1.3577">
        <ele>245.6</ele>
        <time>2025-03-08T15:30:56Z</time>
      </trkpt>
      <trkpt lat="44.43731" lon="1.35769">
        <ele>245.7</ele>
        <time>2025-03-08T15:30:57Z</time>
      </trkpt>
      <trkpt lat="44.43729" lon="1.35768">
        <ele>245.9</ele>
        <time>2025-03-08T15:30:58Z</time>
      </trkpt>
      <trkpt lat="44.43728" lon="1.35766">
        <ele>246</ele>
        <time>2025-03-08T15:30:59Z</time>
      </trkpt>
      <trkpt lat="44.43727" lon="1.35765">
        <ele>246.2</ele>
        <time>2025-03-08T15:31:00Z</time>
      </trkpt>
      <trkpt lat="44.43725" lon="1.35764">
        <ele>246.4</ele>
        <time>2025-03-08T15:31:01Z</time>
      </trkpt>
      <trkpt lat="44.43724" lon="1.35764">
        <ele>246.5</ele>
        <time>2025-03-08T15:31:02Z</time>
      </trkpt>
      <trkpt lat="44.43723" lon="1.35763">
        <ele>246.7</ele>
        <time>2025-03-08T15:31:03Z</time>
      </trkpt>
      <trkpt lat="44.43721" lon="1.35762">
        <ele>246.8</ele>
        <time>2025-03-08T15:31:04Z</time>
      </trkpt>
      <trkpt lat="44.4372" lon="1.35762">
        <ele>247</ele>
        <time>2025-03-08T15:31:05Z</time>
      </trkpt>
      <trkpt lat="44.43718" lon="1.35761">
        <ele>247.2</ele>
        <time>2025-03-08T15:31:06Z</time>
      </trkpt>
      <trkpt lat="44.43716" lon="1.3576">
        <ele>247.4</ele>
        <time>2025-03-08T15:31:07Z</time>
      </trkpt>
      <trkpt lat="44.43714" lon="1.3576">
        <ele>247.6</ele>
        <time>2025-03-08T15:31:08Z</time>
      </trkpt>
      <trkpt lat="44.43713" lon="1.3576">
        <ele>247.8</ele>
        <time>2025-03-08T15:31:09Z</time>
      </trkpt>
      <trkpt lat="44.43712" lon="1.3576">
        <ele>247.9</ele>
        <time>2025-03-08T15:31:10Z</time>
      </trkpt>
      <trkpt lat="44.4371" lon="1.3576">
        <ele>248.1</ele>
        <time>2025-03-08T15:31:11Z</time>
      </trkpt>
      <trkpt lat="44.43708" lon="1.3576">
        <ele>248.3</ele>
        <time>2025-03-08T15:31:12Z</time>
      </trkpt>
      <trkpt lat="44.43706" lon="1.3576">
        <ele>248.6</ele>
        <time>2025-03-08T15:31:13Z</time>
      </trkpt>
      <trkpt lat="44.43705" lon="1.3576">
        <ele>248.8</ele>
        <time>2025-03-08T15:31:14Z</time>
      </trkpt>
      <trkpt lat="44.43701" lon="1.35761">
        <ele>249.2</ele>
        <time>2025-03-08T15:31:15Z</time>
      </trkpt>
      <trkpt lat="44.43699" lon="1.35761">
        <ele>249.4</ele>
        <time>2025-03-08T15:31:16Z</time>
      </trkpt>
      <trkpt lat="44.43696" lon="1.35761">
        <ele>249.8</ele>
        <time>2025-03-08T15:31:17Z</time>
      </trkpt>
      <trkpt lat="44.43695" lon="1.35761">
        <ele>249.9</ele>
        <time>2025-03-08T15:31:18Z</time>
      </trkpt>
      <trkpt lat="44.43692" lon="1.35761">
        <ele>250.3</ele>
        <time>2025-03-08T15:31:19Z</time>
      </trkpt>
      <trkpt lat="44.43691" lon="1.35761">
        <ele>250.4</ele>
        <time>2025-03-08T15:31:20Z</time>
      </trkpt>
      <trkpt lat="44.43688" lon="1.3576">
        <ele>250.7</ele>
        <time>2025-03-08T15:31:21Z</time>
      </trkpt>
      <trkpt lat="44.43687" lon="1.3576">
        <ele>250.8</ele>
        <time>2025-03-08T15:31:22Z</time>
      </trkpt>
      <trkpt lat="44.43684" lon="1.35759">
        <ele>251.2</ele>
        <time>2025-03-08T15:31:23Z</time>
      </trkpt>
      <trkpt lat="44.43683" lon="1.35759">
        <ele>251.3</ele>
        <time>2025-03-08T15:31:24Z</time>
      </trkpt>
      <trkpt lat="44.43682" lon="1.35759">
        <ele>251.5</ele>
        <time>2025-03-08T15:31:25Z</time>
      </trkpt>
      <trkpt lat="44.4368" lon="1.35758">
        <ele>251.7</ele>
        <time>2025-03-08T15:31:26Z</time>
      </trkpt>
      <trkpt lat="44.43679" lon="1.35757">
        <ele>251.8</ele>
        <time>2025-03-08T15:31:27Z</time>
      </trkpt>
      <trkpt lat="44.43677" lon="1.35756">
        <ele>252</ele>
        <time>2025-03-08T15:31:28Z</time>
      </trkpt>
      <trkpt lat="44.43674" lon="1.35756">
        <ele>252.4</ele>
        <time>2025-03-08T15:31:29Z</time>
      </trkpt>
      <trkpt lat="44.43673" lon="1.35756">
        <ele>252.5</ele>
        <time>2025-03-08T15:31:30Z</time>
      </trkpt>
      <trkpt lat="44.4367" lon="1.35755">
        <ele>252.8</ele>
        <time>2025-03-08T15:31:31Z</time>
      </trkpt>
      <trkpt lat="44.43668" lon="1.35755">
        <ele>252.9</ele>
        <time>2025-03-08T15:31:32Z</time>
      </trkpt>
      <trkpt lat="44.43667" lon="1.35754">
        <ele>253.1</ele>
        <time>2025-03-08T15:31:33Z</time>
      </trkpt>
      <trkpt lat="44.43665" lon="1.35754">
        <ele>253.2</ele>
        <time>2025-03-08T15:31:34Z</time>
      </trkpt>
      <trkpt lat="44.43664" lon="1.35754">
        <ele>253.3</ele>
        <time>2025-03-08T15:31:35Z</time>
      </trkpt>
      <trkpt lat="44.43663" lon="1.35753">
        <ele>253.5</ele>
        <time>2025-03-08T15:31:36Z</time>
      </trkpt>
      <trkpt lat="44.43661" lon="1.35752">
        <ele>253.6</ele>
        <time>2025-03-08T15:31:37Z</time>
      </trkpt>
      <trkpt lat="44.4366" lon="1.35752">
        <ele>253.7</ele>
        <time>2025-03-08T15:31:38Z</time>
      </trkpt>
      <trkpt lat="44.43659" lon="1.35752">
        <ele>253.7</ele>
        <time>2025-03-08T15:31:39Z</time>
      </trkpt>
      <trkpt lat="44.43659" lon="1.35752">
        <ele>253.7</ele>
        <time>2025-03-08T15:31:40Z</time>
      </trkpt>
      <trkpt lat="44.43659" lon="1.35753">
        <ele>253.8</ele>
        <time>2025-03-08T15:31:41Z</time>
      </trkpt>
      <trkpt lat="44.43659" lon="1.35753">
        <ele>253.9</ele>
        <time>2025-03-08T15:31:42Z</time>
      </trkpt>
      <trkpt lat="44.4366" lon="1.35755">
        <ele>254</ele>
        <time>2025-03-08T15:31:43Z</time>
      </trkpt>
      <trkpt lat="44.43664" lon="1.35758">
        <ele>254.3</ele>
        <time>2025-03-08T15:31:44Z</time>
      </trkpt>
      <trkpt lat="44.43665" lon="1.35758">
        <ele>254.3</ele>
        <time>2025-03-08T15:31:45Z</time>
      </trkpt>
      <trkpt lat="44.43668" lon="1.35759">
        <ele>254.5</ele>
        <time>2025-03-08T15:31:46Z</time>
      </trkpt>
      <trkpt lat="44.43669" lon="1.35759">
        <ele>254.6</ele>
        <time>2025-03-08T15:31:47Z</time>
      </trkpt>
      <trkpt lat="44.43671" lon="1.3576">
        <ele>254.8</ele>
        <time>2025-03-08T15:31:48Z</time>
      </trkpt>
      <trkpt lat="44.43672" lon="1.3576">
        <ele>254.9</ele>
        <time>2025-03-08T15:31:49Z</time>
      </trkpt>
      <trkpt lat="44.43675" lon="1.3576">
        <ele>255.1</ele>
        <time>2025-03-08T15:31:50Z</time>
      </trkpt>
      <trkpt lat="44.43676" lon="1.35761">
        <ele>255.1</ele>
        <time>2025-03-08T15:31:51Z</time>
      </trkpt>
      <trkpt lat="44.4368" lon="1.35761">
        <ele>255.4</ele>
        <time>2025-03-08T15:31:52Z</time>
      </trkpt>
      <trkpt lat="44.43681" lon="1.35761">
        <ele>255.4</ele>
        <time>2025-03-08T15:31:53Z</time>
      </trkpt>
      <trkpt lat="44.43685" lon="1.35762">
        <ele>255.7</ele>
        <time>2025-03-08T15:31:54Z</time>
      </trkpt>
      <trkpt lat="44.43686" lon="1.35762">
        <ele>255.8</ele>
        <time>2025-03-08T15:31:55Z</time>
      </trkpt>
      <trkpt lat="44.43689" lon="1.3576">
        <ele>256</ele>
        <time>2025-03-08T15:31:56Z</time>
      </trkpt>
      <trkpt lat="44.43691" lon="1.35758">
        <ele>256.1</ele>
        <time>2025-03-08T15:31:57Z</time>
      </trkpt>
      <trkpt lat="44.43693" lon="1.35755">
        <ele>256.3</ele>
        <time>2025-03-08T15:31:58Z</time>
      </trkpt>
      <trkpt lat="44.43693" lon="1.35751">
        <ele>256.5</ele>
        <time>2025-03-08T15:31:59Z</time>
      </trkpt>
      <trkpt lat="44.43693" lon="1.35748">
        <ele>256.7</ele>
        <time>2025-03-08T15:32:00Z</time>
      </trkpt>
      <trkpt lat="44.43693" lon="1.35742">
        <ele>256.9</ele>
        <time>2025-03-08T15:32:01Z</time>
      </trkpt>
      <trkpt lat="44.43692" lon="1.35741">
        <ele>257</ele>
        <time>2025-03-08T15:32:02Z</time>
      </trkpt>
      <trkpt lat="44.43691" lon="1.35736">
        <ele>257.2</ele>
        <time>2025-03-08T15:32:03Z</time>
      </trkpt>
      <trkpt lat="44.43691" lon="1.35735">
        <ele>257.3</ele>
        <time>2025-03-08T15:32:04Z</time>
      </trkpt>
      <trkpt lat="44.43691" lon="1.35731">
        <ele>257.5</ele>
        <time>2025-03-08T15:32:05Z</time>
      </trkpt>
      <trkpt lat="44.43691" lon="1.35729">
        <ele>257.5</ele>
        <time>2025-03-08T15:32:06Z</time>
      </trkpt>
      <trkpt lat="44.4369" lon="1.35725">
        <ele>257.7</ele>
        <time>2025-03-08T15:32:07Z</time>
      </trkpt>
      <trkpt lat="44.4369" lon="1.35723">
        <ele>257.8</ele>
        <time>2025-03-08T15:32:08Z</time>
      </trkpt>
      <trkpt lat="44.4369" lon="1.35719">
        <ele>258</ele>
        <time>2025-03-08T15:32:09Z</time>
      </trkpt>
      <trkpt lat="44.4369" lon="1.35717">
        <ele>258</ele>
        <time>2025-03-08T15:32:10Z</time>
      </trkpt>
      <trkpt lat="44.4369" lon="1.35713">
        <ele>258.2</ele>
        <time>2025-03-08T15:32:11Z</time>
      </trkpt>
      <trkpt lat="44.4369" lon="1.35712">
        <ele>258.3</ele>
        <time>2025-03-08T15:32:12Z</time>
      </trkpt>
      <trkpt lat="44.4369" lon="1.35707">
        <ele>258.4</ele>
        <time>2025-03-08T15:32:13Z</time>
      </trkpt>
      <trkpt lat="44.4369" lon="1.35706">
        <ele>258.5</ele>
        <time>2025-03-08T15:32:14Z</time>
      </trkpt>
      <trkpt lat="44.4369" lon="1.35701">
        <ele>258.7</ele>
        <time>2025-03-08T15:32:15Z</time>
      </trkpt>
      <trkpt lat="44.4369" lon="1.357">
        <ele>258.8</ele>
        <time>2025-03-08T15:32:16Z</time>
      </trkpt>
      <trkpt lat="44.43689" lon="1.35695">
        <ele>258.9</ele>
        <time>2025-03-08T15:32:17Z</time>
      </trkpt>
      <trkpt lat="44.43689" lon="1.35694">
        <ele>259</ele>
        <time>2025-03-08T15:32:18Z</time>
      </trkpt>
      <trkpt lat="44.43688" lon="1.3569">
        <ele>259.2</ele>
        <time>2025-03-08T15:32:19Z</time>
      </trkpt>
      <trkpt lat="44.43688" lon="1.35688">
        <ele>259.2</ele>
        <time>2025-03-08T15:32:20Z</time>
      </trkpt>
      <trkpt lat="44.43688" lon="1.35684">
        <ele>259.4</ele>
        <time>2025-03-08T15:32:21Z</time>
      </trkpt>
      <trkpt lat="44.43687" lon="1.35683">
        <ele>259.4</ele>
        <time>2025-03-08T15:32:22Z</time>
      </trkpt>
      <trkpt lat="44.43687" lon="1.35678">
        <ele>259.6</ele>
        <time>2025-03-08T15:32:23Z</time>
      </trkpt>
      <trkpt lat="44.43687" lon="1.35677">
        <ele>259.6</ele>
        <time>2025-03-08T15:32:24Z</time>
      </trkpt>
      <trkpt lat="44.43686" lon="1.35673">
        <ele>259.8</ele>
        <time>2025-03-08T15:32:25Z</time>
      </trkpt>
      <trkpt lat="44.43687" lon="1.35672">
        <ele>259.8</ele>
        <time>2025-03-08T15:32:26Z</time>
      </trkpt>
      <trkpt lat="44.43687" lon="1.35667">
        <ele>260</ele>
        <time>2025-03-08T15:32:27Z</time>
      </trkpt>
      <trkpt lat="44.43687" lon="1.35666">
        <ele>260</ele>
        <time>2025-03-08T15:32:28Z</time>
      </trkpt>
      <trkpt lat="44.43687" lon="1.35661">
        <ele>260.2</ele>
        <time>2025-03-08T15:32:29Z</time>
      </trkpt>
      <trkpt lat="44.43687" lon="1.3566">
        <ele>260.2</ele>
        <time>2025-03-08T15:32:30Z</time>
      </trkpt>
      <trkpt lat="44.43687" lon="1.35655">
        <ele>260.4</ele>
        <time>2025-03-08T15:32:31Z</time>
      </trkpt>
      <trkpt lat="44.43686" lon="1.35654">
        <ele>260.4</ele>
        <time>2025-03-08T15:32:32Z</time>
      </trkpt>
      <trkpt lat="44.43686" lon="1.35649">
        <ele>260.6</ele>
        <time>2025-03-08T15:32:33Z</time>
      </trkpt>
      <trkpt lat="44.43686" lon="1.35648">
        <ele>260.6</ele>
        <time>2025-03-08T15:32:34Z</time>
      </trkpt>
      <trkpt lat="44.43685" lon="1.35643">
        <ele>260.8</ele>
        <time>2025-03-08T15:32:35Z</time>
      </trkpt>
      <trkpt lat="44.43685" lon="1.35642">
        <ele>260.8</ele>
        <time>2025-03-08T15:32:36Z</time>
      </trkpt>
      <trkpt lat="44.43685" lon="1.35637">
        <ele>261</ele>
        <time>2025-03-08T15:32:37Z</time>
      </trkpt>
      <trkpt lat="44.43685" lon="1.35636">
        <ele>261</ele>
        <time>2025-03-08T15:32:38Z</time>
      </trkpt>
      <trkpt lat="44.43685" lon="1.35631">
        <ele>261.2</ele>
        <time>2025-03-08T15:32:39Z</time>
      </trkpt>
      <trkpt lat="44.43684" lon="1.3563">
        <ele>261.3</ele>
        <time>2025-03-08T15:32:40Z</time>
      </trkpt>
      <trkpt lat="44.43684" lon="1.35625">
        <ele>261.4</ele>
        <time>2025-03-08T15:32:41Z</time>
      </trkpt>
      <trkpt lat="44.43684" lon="1.35624">
        <ele>261.5</ele>
        <time>2025-03-08T15:32:42Z</time>
      </trkpt>
      <trkpt lat="44.43684" lon="1.35619">
        <ele>261.6</ele>
        <time>2025-03-08T15:32:43Z</time>
      </trkpt>
      <trkpt lat="44.43684" lon="1.35618">
        <ele>261.6</ele>
        <time>2025-03-08T15:32:44Z</time>
      </trkpt>
      <trkpt lat="44.43683" lon="1.35613">
        <ele>261.8</ele>
        <time>2025-03-08T15:32:45Z</time>
      </trkpt>
      <trkpt lat="44.43683" lon="1.35612">
        <ele>261.8</ele>
        <time>2025-03-08T15:32:46Z</time>
      </trkpt>
      <trkpt lat="44.43682" lon="1.35607">
        <ele>262</ele>
        <time>2025-03-08T15:32:47Z</time>
      </trkpt>
      <trkpt lat="44.43682" lon="1.35606">
        <ele>262</ele>
        <time>2025-03-08T15:32:48Z</time>
      </trkpt>
      <trkpt lat="44.43681" lon="1.35601">
        <ele>262.2</ele>
        <time>2025-03-08T15:32:49Z</time>
      </trkpt>
      <trkpt lat="44.43681" lon="1.356">
        <ele>262.2</ele>
        <time>2025-03-08T15:32:50Z</time>
      </trkpt>
      <trkpt lat="44.43679" lon="1.35595">
        <ele>262.3</ele>
        <time>2025-03-08T15:32:51Z</time>
      </trkpt>
      <trkpt lat="44.43679" lon="1.35594">
        <ele>262.4</ele>
        <time>2025-03-08T15:32:52Z</time>
      </trkpt>
      <trkpt lat="44.43677" lon="1.35591">
        <ele>262.5</ele>
        <time>2025-03-08T15:32:53Z</time>
      </trkpt>
      <trkpt lat="44.43676" lon="1.3559">
        <ele>262.5</ele>
        <time>2025-03-08T15:32:54Z</time>
      </trkpt>
      <trkpt lat="44.43674" lon="1.35589">
        <ele>262.6</ele>
        <time>2025-03-08T15:32:55Z</time>
      </trkpt>
      <trkpt lat="44.43673" lon="1.35587">
        <ele>262.7</ele>
        <time>2025-03-08T15:32:56Z</time>
      </trkpt>
      <trkpt lat="44.43671" lon="1.35586">
        <ele>262.7</ele>
        <time>2025-03-08T15:32:57Z</time>
      </trkpt>
      <trkpt lat="44.43669" lon="1.35586">
        <ele>262.8</ele>
        <time>2025-03-08T15:32:58Z</time>
      </trkpt>
      <trkpt lat="44.43667" lon="1.35585">
        <ele>262.8</ele>
        <time>2025-03-08T15:32:59Z</time>
      </trkpt>
      <trkpt lat="44.43666" lon="1.35584">
        <ele>262.9</ele>
        <time>2025-03-08T15:33:00Z</time>
      </trkpt>
      <trkpt lat="44.43664" lon="1.35583">
        <ele>262.9</ele>
        <time>2025-03-08T15:33:01Z</time>
      </trkpt>
      <trkpt lat="44.43663" lon="1.35581">
        <ele>263</ele>
        <time>2025-03-08T15:33:02Z</time>
      </trkpt>
      <trkpt lat="44.43664" lon="1.35577">
        <ele>263</ele>
        <time>2025-03-08T15:33:03Z</time>
      </trkpt>
      <trkpt lat="44.43664" lon="1.35575">
        <ele>263.1</ele>
        <time>2025-03-08T15:33:04Z</time>
      </trkpt>
      <trkpt lat="44.43665" lon="1.3557">
        <ele>263.1</ele>
        <time>2025-03-08T15:33:05Z</time>
      </trkpt>
      <trkpt lat="44.43666" lon="1.35568">
        <ele>263.1</ele>
        <time>2025-03-08T15:33:06Z</time>
      </trkpt>
      <trkpt lat="44.43666" lon="1.35564">
        <ele>262.9</ele>
        <time>2025-03-08T15:33:07Z</time>
      </trkpt>
      <trkpt lat="44.43667" lon="1.35559">
        <ele>262.9</ele>
        <time>2025-03-08T15:33:08Z</time>
      </trkpt>
      <trkpt lat="44.43667" lon="1.35555">
        <ele>262.9</ele>
        <time>2025-03-08T15:33:09Z</time>
      </trkpt>
      <trkpt lat="44.43667" lon="1.3555">
        <ele>262.9</ele>
        <time>2025-03-08T15:33:10Z</time>
      </trkpt>
      <trkpt lat="44.43668" lon="1.35545">
        <ele>262.9</ele>
        <time>2025-03-08T15:33:11Z</time>
      </trkpt>
      <trkpt lat="44.43668" lon="1.35543">
        <ele>262.9</ele>
        <time>2025-03-08T15:33:12Z</time>
      </trkpt>
      <trkpt lat="44.43669" lon="1.35538">
        <ele>262.4</ele>
        <time>2025-03-08T15:33:13Z</time>
      </trkpt>
      <trkpt lat="44.43669" lon="1.35536">
        <ele>262.5</ele>
        <time>2025-03-08T15:33:14Z</time>
      </trkpt>
      <trkpt lat="44.43671" lon="1.35531">
        <ele>262.3</ele>
        <time>2025-03-08T15:33:15Z</time>
      </trkpt>
      <trkpt lat="44.43671" lon="1.3553">
        <ele>262.1</ele>
        <time>2025-03-08T15:33:16Z</time>
      </trkpt>
      <trkpt lat="44.43672" lon="1.35526">
        <ele>261.8</ele>
        <time>2025-03-08T15:33:17Z</time>
      </trkpt>
      <trkpt lat="44.43672" lon="1.35524">
        <ele>261.9</ele>
        <time>2025-03-08T15:33:18Z</time>
      </trkpt>
      <trkpt lat="44.43672" lon="1.3552">
        <ele>261.1</ele>
        <time>2025-03-08T15:33:19Z</time>
      </trkpt>
      <trkpt lat="44.43673" lon="1.35518">
        <ele>261.2</ele>
        <time>2025-03-08T15:33:20Z</time>
      </trkpt>
      <trkpt lat="44.43673" lon="1.35514">
        <ele>260.8</ele>
        <time>2025-03-08T15:33:21Z</time>
      </trkpt>
      <trkpt lat="44.43673" lon="1.35513">
        <ele>260.4</ele>
        <time>2025-03-08T15:33:22Z</time>
      </trkpt>
      <trkpt lat="44.43673" lon="1.35511">
        <ele>260.5</ele>
        <time>2025-03-08T15:33:23Z</time>
      </trkpt>
      <trkpt lat="44.43674" lon="1.3551">
        <ele>260.5</ele>
        <time>2025-03-08T15:33:24Z</time>
      </trkpt>
      <trkpt lat="44.43673" lon="1.35508">
        <ele>260.6</ele>
        <time>2025-03-08T15:33:25Z</time>
      </trkpt>
      <trkpt lat="44.43672" lon="1.35504">
        <ele>260.7</ele>
        <time>2025-03-08T15:33:26Z</time>
      </trkpt>
      <trkpt lat="44.43671" lon="1.35503">
        <ele>260.7</ele>
        <time>2025-03-08T15:33:27Z</time>
      </trkpt>
      <trkpt lat="44.43668" lon="1.35502">
        <ele>260.8</ele>
        <time>2025-03-08T15:33:28Z</time>
      </trkpt>
      <trkpt lat="44.43664" lon="1.35501">
        <ele>260.9</ele>
        <time>2025-03-08T15:33:29Z</time>
      </trkpt>
      <trkpt lat="44.43663" lon="1.355">
        <ele>260.9</ele>
        <time>2025-03-08T15:33:30Z</time>
      </trkpt>
      <trkpt lat="44.4366" lon="1.35499">
        <ele>261</ele>
        <time>2025-03-08T15:33:31Z</time>
      </trkpt>
      <trkpt lat="44.43658" lon="1.35499">
        <ele>261</ele>
        <time>2025-03-08T15:33:32Z</time>
      </trkpt>
      <trkpt lat="44.43655" lon="1.35498">
        <ele>261</ele>
        <time>2025-03-08T15:33:33Z</time>
      </trkpt>
      <trkpt lat="44.43652" lon="1.35498">
        <ele>261.1</ele>
        <time>2025-03-08T15:33:34Z</time>
      </trkpt>
      <trkpt lat="44.43649" lon="1.35498">
        <ele>261.1</ele>
        <time>2025-03-08T15:33:35Z</time>
      </trkpt>
      <trkpt lat="44.43646" lon="1.35499">
        <ele>261.2</ele>
        <time>2025-03-08T15:33:36Z</time>
      </trkpt>
      <trkpt lat="44.43642" lon="1.355">
        <ele>261.2</ele>
        <time>2025-03-08T15:33:37Z</time>
      </trkpt>
      <trkpt lat="44.43639" lon="1.35502">
        <ele>261.3</ele>
        <time>2025-03-08T15:33:38Z</time>
      </trkpt>
      <trkpt lat="44.43635" lon="1.35504">
        <ele>261.4</ele>
        <time>2025-03-08T15:33:39Z</time>
      </trkpt>
      <trkpt lat="44.43633" lon="1.35507">
        <ele>261.4</ele>
        <time>2025-03-08T15:33:40Z</time>
      </trkpt>
      <trkpt lat="44.4363" lon="1.3551">
        <ele>261.5</ele>
        <time>2025-03-08T15:33:41Z</time>
      </trkpt>
      <trkpt lat="44.43627" lon="1.35513">
        <ele>261.6</ele>
        <time>2025-03-08T15:33:42Z</time>
      </trkpt>
      <trkpt lat="44.43625" lon="1.35516">
        <ele>261.7</ele>
        <time>2025-03-08T15:33:43Z</time>
      </trkpt>
      <trkpt lat="44.43623" lon="1.3552">
        <ele>261.9</ele>
        <time>2025-03-08T15:33:44Z</time>
      </trkpt>
      <trkpt lat="44.43621" lon="1.35524">
        <ele>262</ele>
        <time>2025-03-08T15:33:45Z</time>
      </trkpt>
      <trkpt lat="44.43619" lon="1.35528">
        <ele>262.2</ele>
        <time>2025-03-08T15:33:46Z</time>
      </trkpt>
      <trkpt lat="44.43617" lon="1.35532">
        <ele>262.4</ele>
        <time>2025-03-08T15:33:47Z</time>
      </trkpt>
      <trkpt lat="44.43615" lon="1.35537">
        <ele>262.6</ele>
        <time>2025-03-08T15:33:48Z</time>
      </trkpt>
      <trkpt lat="44.43614" lon="1.35541">
        <ele>262.8</ele>
        <time>2025-03-08T15:33:49Z</time>
      </trkpt>
      <trkpt lat="44.43612" lon="1.35545">
        <ele>263</ele>
        <time>2025-03-08T15:33:50Z</time>
      </trkpt>
      <trkpt lat="44.43611" lon="1.35549">
        <ele>263.2</ele>
        <time>2025-03-08T15:33:51Z</time>
      </trkpt>
      <trkpt lat="44.4361" lon="1.35554">
        <ele>263.5</ele>
        <time>2025-03-08T15:33:52Z</time>
      </trkpt>
      <trkpt lat="44.43609" lon="1.35558">
        <ele>263.7</ele>
        <time>2025-03-08T15:33:53Z</time>
      </trkpt>
      <trkpt lat="44.43608" lon="1.35562">
        <ele>263.9</ele>
        <time>2025-03-08T15:33:54Z</time>
      </trkpt>
      <trkpt lat="44.43607" lon="1.35566">
        <ele>264.1</ele>
        <time>2025-03-08T15:33:55Z</time>
      </trkpt>
      <trkpt lat="44.43605" lon="1.3557">
        <ele>264.3</ele>
        <time>2025-03-08T15:33:56Z</time>
      </trkpt>
      <trkpt lat="44.43603" lon="1.35574">
        <ele>264.4</ele>
        <time>2025-03-08T15:33:57Z</time>
      </trkpt>
      <trkpt lat="44.43601" lon="1.35577">
        <ele>264.6</ele>
        <time>2025-03-08T15:33:58Z</time>
      </trkpt>
      <trkpt lat="44.43599" lon="1.35581">
        <ele>264.7</ele>
        <time>2025-03-08T15:33:59Z</time>
      </trkpt>
      <trkpt lat="44.43596" lon="1.35584">
        <ele>264.9</ele>
        <time>2025-03-08T15:34:00Z</time>
      </trkpt>
      <trkpt lat="44.43594" lon="1.35587">
        <ele>265</ele>
        <time>2025-03-08T15:34:01Z</time>
      </trkpt>
      <trkpt lat="44.43591" lon="1.3559">
        <ele>265.1</ele>
        <time>2025-03-08T15:34:02Z</time>
      </trkpt>
      <trkpt lat="44.43588" lon="1.35593">
        <ele>265.2</ele>
        <time>2025-03-08T15:34:03Z</time>
      </trkpt>
      <trkpt lat="44.43584" lon="1.35596">
        <ele>265.2</ele>
        <time>2025-03-08T15:34:04Z</time>
      </trkpt>
      <trkpt lat="44.4358" lon="1.35597">
        <ele>265.2</ele>
        <time>2025-03-08T15:34:05Z</time>
      </trkpt>
      <trkpt lat="44.43577" lon="1.35598">
        <ele>265.2</ele>
        <time>2025-03-08T15:34:06Z</time>
      </trkpt>
      <trkpt lat="44.43573" lon="1.35598">
        <ele>265.2</ele>
        <time>2025-03-08T15:34:07Z</time>
      </trkpt>
      <trkpt lat="44.4357" lon="1.35599">
        <ele>265.2</ele>
        <time>2025-03-08T15:34:08Z</time>
      </trkpt>
      <trkpt lat="44.43567" lon="1.35599">
        <ele>265.1</ele>
        <time>2025-03-08T15:34:09Z</time>
      </trkpt>
      <trkpt lat="44.43564" lon="1.35598">
        <ele>264.6</ele>
        <time>2025-03-08T15:34:10Z</time>
      </trkpt>
      <trkpt lat="44.43562" lon="1.35595">
        <ele>264.2</ele>
        <time>2025-03-08T15:34:11Z</time>
      </trkpt>
      <trkpt lat="44.4356" lon="1.35591">
        <ele>263.7</ele>
        <time>2025-03-08T15:34:12Z</time>
      </trkpt>
      <trkpt lat="44.43559" lon="1.35587">
        <ele>263.1</ele>
        <time>2025-03-08T15:34:13Z</time>
      </trkpt>
      <trkpt lat="44.43558" lon="1.35586">
        <ele>263</ele>
        <time>2025-03-08T15:34:14Z</time>
      </trkpt>
      <trkpt lat="44.43557" lon="1.35584">
        <ele>262.7</ele>
        <time>2025-03-08T15:34:15Z</time>
      </trkpt>
      <trkpt lat="44.43555" lon="1.35583">
        <ele>262.4</ele>
        <time>2025-03-08T15:34:16Z</time>
      </trkpt>
      <trkpt lat="44.43553" lon="1.3558">
        <ele>261.8</ele>
        <time>2025-03-08T15:34:17Z</time>
      </trkpt>
      <trkpt lat="44.4355" lon="1.35577">
        <ele>261.3</ele>
        <time>2025-03-08T15:34:18Z</time>
      </trkpt>
      <trkpt lat="44.43546" lon="1.35574">
        <ele>260.6</ele>
        <time>2025-03-08T15:34:19Z</time>
      </trkpt>
      <trkpt lat="44.43544" lon="1.35569">
        <ele>260.1</ele>
        <time>2025-03-08T15:34:20Z</time>
      </trkpt>
      <trkpt lat="44.43541" lon="1.35564">
        <ele>259.7</ele>
        <time>2025-03-08T15:34:21Z</time>
      </trkpt>
      <trkpt lat="44.43539" lon="1.35559">
        <ele>259.4</ele>
        <time>2025-03-08T15:34:22Z</time>
      </trkpt>
      <trkpt lat="44.43536" lon="1.35556">
        <ele>259.3</ele>
        <time>2025-03-08T15:34:23Z</time>
      </trkpt>
      <trkpt lat="44.43532" lon="1.35557">
        <ele>259.2</ele>
        <time>2025-03-08T15:34:24Z</time>
      </trkpt>
      <trkpt lat="44.43528" lon="1.35559">
        <ele>259.4</ele>
        <time>2025-03-08T15:34:25Z</time>
      </trkpt>
      <trkpt lat="44.43524" lon="1.35562">
        <ele>259.6</ele>
        <time>2025-03-08T15:34:26Z</time>
      </trkpt>
      <trkpt lat="44.43522" lon="1.35563">
        <ele>259.8</ele>
        <time>2025-03-08T15:34:27Z</time>
      </trkpt>
      <trkpt lat="44.43518" lon="1.35562">
        <ele>260</ele>
        <time>2025-03-08T15:34:28Z</time>
      </trkpt>
      <trkpt lat="44.43516" lon="1.35561">
        <ele>260.1</ele>
        <time>2025-03-08T15:34:29Z</time>
      </trkpt>
      <trkpt lat="44.43513" lon="1.3556">
        <ele>260.4</ele>
        <time>2025-03-08T15:34:30Z</time>
      </trkpt>
      <trkpt lat="44.43509" lon="1.35562">
        <ele>260.7</ele>
        <time>2025-03-08T15:34:31Z</time>
      </trkpt>
      <trkpt lat="44.43505" lon="1.35566">
        <ele>261.1</ele>
        <time>2025-03-08T15:34:32Z</time>
      </trkpt>
      <trkpt lat="44.43503" lon="1.3557">
        <ele>261.4</ele>
        <time>2025-03-08T15:34:33Z</time>
      </trkpt>
      <trkpt lat="44.43501" lon="1.35573">
        <ele>261.6</ele>
        <time>2025-03-08T15:34:34Z</time>
      </trkpt>
      <trkpt lat="44.43497" lon="1.35574">
        <ele>262</ele>
        <time>2025-03-08T15:34:35Z</time>
      </trkpt>
      <trkpt lat="44.43496" lon="1.35574">
        <ele>262.1</ele>
        <time>2025-03-08T15:34:36Z</time>
      </trkpt>
      <trkpt lat="44.43493" lon="1.35573">
        <ele>262.4</ele>
        <time>2025-03-08T15:34:37Z</time>
      </trkpt>
      <trkpt lat="44.4349" lon="1.35571">
        <ele>262.8</ele>
        <time>2025-03-08T15:34:38Z</time>
      </trkpt>
      <trkpt lat="44.43486" lon="1.35574">
        <ele>263.2</ele>
        <time>2025-03-08T15:34:39Z</time>
      </trkpt>
      <trkpt lat="44.43483" lon="1.35576">
        <ele>263.5</ele>
        <time>2025-03-08T15:34:40Z</time>
      </trkpt>
      <trkpt lat="44.43481" lon="1.35578">
        <ele>263.8</ele>
        <time>2025-03-08T15:34:41Z</time>
      </trkpt>
      <trkpt lat="44.43478" lon="1.35579">
        <ele>264.1</ele>
        <time>2025-03-08T15:34:42Z</time>
      </trkpt>
      <trkpt lat="44.43475" lon="1.3558">
        <ele>264.3</ele>
        <time>2025-03-08T15:34:43Z</time>
      </trkpt>
      <trkpt lat="44.43472" lon="1.3558">
        <ele>264.5</ele>
        <time>2025-03-08T15:34:44Z</time>
      </trkpt>
      <trkpt lat="44.43469" lon="1.3558">
        <ele>264.7</ele>
        <time>2025-03-08T15:34:45Z</time>
      </trkpt>
      <trkpt lat="44.43466" lon="1.3558">
        <ele>264.9</ele>
        <time>2025-03-08T15:34:46Z</time>
      </trkpt>
      <trkpt lat="44.43463" lon="1.35582">
        <ele>265.2</ele>
        <time>2025-03-08T15:34:47Z</time>
      </trkpt>
      <trkpt lat="44.43459" lon="1.35584">
        <ele>265.4</ele>
        <time>2025-03-08T15:34:48Z</time>
      </trkpt>
      <trkpt lat="44.43458" lon="1.35584">
        <ele>265.5</ele>
        <time>2025-03-08T15:34:49Z</time>
      </trkpt>
      <trkpt lat="44.43455" lon="1.35584">
        <ele>265.6</ele>
        <time>2025-03-08T15:34:50Z</time>
      </trkpt>
      <trkpt lat="44.43454" lon="1.35583">
        <ele>265.7</ele>
        <time>2025-03-08T15:34:51Z</time>
      </trkpt>
      <trkpt lat="44.43453" lon="1.35581">
        <ele>265.8</ele>
        <time>2025-03-08T15:34:52Z</time>
      </trkpt>
      <trkpt lat="44.43453" lon="1.35578">
        <ele>265.9</ele>
        <time>2025-03-08T15:34:53Z</time>
      </trkpt>
      <trkpt lat="44.43453" lon="1.35573">
        <ele>266</ele>
        <time>2025-03-08T15:34:54Z</time>
      </trkpt>
      <trkpt lat="44.43453" lon="1.35571">
        <ele>266.1</ele>
        <time>2025-03-08T15:34:55Z</time>
      </trkpt>
      <trkpt lat="44.43451" lon="1.35566">
        <ele>266.3</ele>
        <time>2025-03-08T15:34:56Z</time>
      </trkpt>
      <trkpt lat="44.43449" lon="1.35561">
        <ele>266.5</ele>
        <time>2025-03-08T15:34:57Z</time>
      </trkpt>
      <trkpt lat="44.43446" lon="1.35558">
        <ele>266.7</ele>
        <time>2025-03-08T15:34:58Z</time>
      </trkpt>
      <trkpt lat="44.43443" lon="1.35554">
        <ele>266.9</ele>
        <time>2025-03-08T15:34:59Z</time>
      </trkpt>
      <trkpt lat="44.4344" lon="1.35551">
        <ele>267</ele>
        <time>2025-03-08T15:35:00Z</time>
      </trkpt>
      <trkpt lat="44.43436" lon="1.35551">
        <ele>267.1</ele>
        <time>2025-03-08T15:35:01Z</time>
      </trkpt>
      <trkpt lat="44.43434" lon="1.3555">
        <ele>267.2</ele>
        <time>2025-03-08T15:35:02Z</time>
      </trkpt>
      <trkpt lat="44.43431" lon="1.3555">
        <ele>267.2</ele>
        <time>2025-03-08T15:35:03Z</time>
      </trkpt>
      <trkpt lat="44.4343" lon="1.3555">
        <ele>267.2</ele>
        <time>2025-03-08T15:35:04Z</time>
      </trkpt>
      <trkpt lat="44.43428" lon="1.35546">
        <ele>267.2</ele>
        <time>2025-03-08T15:35:05Z</time>
      </trkpt>
      <trkpt lat="44.43427" lon="1.35545">
        <ele>267.2</ele>
        <time>2025-03-08T15:35:06Z</time>
      </trkpt>
      <trkpt lat="44.43425" lon="1.35542">
        <ele>267.1</ele>
        <time>2025-03-08T15:35:07Z</time>
      </trkpt>
      <trkpt lat="44.43424" lon="1.35538">
        <ele>267</ele>
        <time>2025-03-08T15:35:08Z</time>
      </trkpt>
      <trkpt lat="44.43425" lon="1.35537">
        <ele>266.9</ele>
        <time>2025-03-08T15:35:09Z</time>
      </trkpt>
      <trkpt lat="44.43428" lon="1.35534">
        <ele>266.8</ele>
        <time>2025-03-08T15:35:10Z</time>
      </trkpt>
      <trkpt lat="44.43429" lon="1.35531">
        <ele>266.6</ele>
        <time>2025-03-08T15:35:11Z</time>
      </trkpt>
      <trkpt lat="44.43428" lon="1.35527">
        <ele>266.4</ele>
        <time>2025-03-08T15:35:12Z</time>
      </trkpt>
      <trkpt lat="44.43428" lon="1.35526">
        <ele>266.3</ele>
        <time>2025-03-08T15:35:13Z</time>
      </trkpt>
      <trkpt lat="44.43428" lon="1.35522">
        <ele>266.1</ele>
        <time>2025-03-08T15:35:14Z</time>
      </trkpt>
      <trkpt lat="44.43429" lon="1.35521">
        <ele>266</ele>
        <time>2025-03-08T15:35:15Z</time>
      </trkpt>
      <trkpt lat="44.4343" lon="1.35517">
        <ele>265.8</ele>
        <time>2025-03-08T15:35:16Z</time>
      </trkpt>
      <trkpt lat="44.43432" lon="1.35513">
        <ele>265.5</ele>
        <time>2025-03-08T15:35:17Z</time>
      </trkpt>
      <trkpt lat="44.43435" lon="1.3551">
        <ele>265.1</ele>
        <time>2025-03-08T15:35:18Z</time>
      </trkpt>
      <trkpt lat="44.43439" lon="1.35506">
        <ele>264.6</ele>
        <time>2025-03-08T15:35:19Z</time>
      </trkpt>
      <trkpt lat="44.43443" lon="1.35501">
        <ele>264.2</ele>
        <time>2025-03-08T15:35:20Z</time>
      </trkpt>
      <trkpt lat="44.43445" lon="1.35494">
        <ele>263.8</ele>
        <time>2025-03-08T15:35:21Z</time>
      </trkpt>
      <trkpt lat="44.43444" lon="1.35488">
        <ele>263.4</ele>
        <time>2025-03-08T15:35:22Z</time>
      </trkpt>
      <trkpt lat="44.43442" lon="1.35483">
        <ele>263.1</ele>
        <time>2025-03-08T15:35:23Z</time>
      </trkpt>
      <trkpt lat="44.4344" lon="1.35478">
        <ele>262.7</ele>
        <time>2025-03-08T15:35:24Z</time>
      </trkpt>
      <trkpt lat="44.4344" lon="1.35474">
        <ele>262.4</ele>
        <time>2025-03-08T15:35:25Z</time>
      </trkpt>
      <trkpt lat="44.43442" lon="1.3547">
        <ele>262.1</ele>
        <time>2025-03-08T15:35:26Z</time>
      </trkpt>
      <trkpt lat="44.43444" lon="1.35469">
        <ele>261.9</ele>
        <time>2025-03-08T15:35:27Z</time>
      </trkpt>
      <trkpt lat="44.43447" lon="1.35467">
        <ele>261.4</ele>
        <time>2025-03-08T15:35:28Z</time>
      </trkpt>
      <trkpt lat="44.43451" lon="1.35463">
        <ele>260.9</ele>
        <time>2025-03-08T15:35:29Z</time>
      </trkpt>
      <trkpt lat="44.43453" lon="1.35457">
        <ele>260.5</ele>
        <time>2025-03-08T15:35:30Z</time>
      </trkpt>
      <trkpt lat="44.43454" lon="1.35451">
        <ele>260.3</ele>
        <time>2025-03-08T15:35:31Z</time>
      </trkpt>
      <trkpt lat="44.43452" lon="1.35446">
        <ele>260.1</ele>
        <time>2025-03-08T15:35:32Z</time>
      </trkpt>
      <trkpt lat="44.43451" lon="1.35441">
        <ele>260</ele>
        <time>2025-03-08T15:35:33Z</time>
      </trkpt>
      <trkpt lat="44.43452" lon="1.35436">
        <ele>259.9</ele>
        <time>2025-03-08T15:35:34Z</time>
      </trkpt>
      <trkpt lat="44.43452" lon="1.35432">
        <ele>259.8</ele>
        <time>2025-03-08T15:35:35Z</time>
      </trkpt>
      <trkpt lat="44.43452" lon="1.35427">
        <ele>259.7</ele>
        <time>2025-03-08T15:35:36Z</time>
      </trkpt>
      <trkpt lat="44.43451" lon="1.35423">
        <ele>259.7</ele>
        <time>2025-03-08T15:35:37Z</time>
      </trkpt>
      <trkpt lat="44.4345" lon="1.35419">
        <ele>259.6</ele>
        <time>2025-03-08T15:35:38Z</time>
      </trkpt>
      <trkpt lat="44.43449" lon="1.35414">
        <ele>259.5</ele>
        <time>2025-03-08T15:35:39Z</time>
      </trkpt>
      <trkpt lat="44.43447" lon="1.35408">
        <ele>259.4</ele>
        <time>2025-03-08T15:35:40Z</time>
      </trkpt>
      <trkpt lat="44.43446" lon="1.35402">
        <ele>259.2</ele>
        <time>2025-03-08T15:35:41Z</time>
      </trkpt>
      <trkpt lat="44.43443" lon="1.35398">
        <ele>258.9</ele>
        <time>2025-03-08T15:35:42Z</time>
      </trkpt>
      <trkpt lat="44.43441" lon="1.35395">
        <ele>258.7</ele>
        <time>2025-03-08T15:35:43Z</time>
      </trkpt>
      <trkpt lat="44.43441" lon="1.35391">
        <ele>258.5</ele>
        <time>2025-03-08T15:35:44Z</time>
      </trkpt>
      <trkpt lat="44.43443" lon="1.35385">
        <ele>258.2</ele>
        <time>2025-03-08T15:35:45Z</time>
      </trkpt>
      <trkpt lat="44.43445" lon="1.3538">
        <ele>257.9</ele>
        <time>2025-03-08T15:35:46Z</time>
      </trkpt>
      <trkpt lat="44.43446" lon="1.35373">
        <ele>257.6</ele>
        <time>2025-03-08T15:35:47Z</time>
      </trkpt>
      <trkpt lat="44.43446" lon="1.35366">
        <ele>257.5</ele>
        <time>2025-03-08T15:35:48Z</time>
      </trkpt>
      <trkpt lat="44.43445" lon="1.35359">
        <ele>257.4</ele>
        <time>2025-03-08T15:35:49Z</time>
      </trkpt>
      <trkpt lat="44.43442" lon="1.35354">
        <ele>257.4</ele>
        <time>2025-03-08T15:35:50Z</time>
      </trkpt>
      <trkpt lat="44.4344" lon="1.35349">
        <ele>257.5</ele>
        <time>2025-03-08T15:35:51Z</time>
      </trkpt>
      <trkpt lat="44.43437" lon="1.35346">
        <ele>257.6</ele>
        <time>2025-03-08T15:35:52Z</time>
      </trkpt>
      <trkpt lat="44.43434" lon="1.35343">
        <ele>257.6</ele>
        <time>2025-03-08T15:35:53Z</time>
      </trkpt>
      <trkpt lat="44.43431" lon="1.3534">
        <ele>257.7</ele>
        <time>2025-03-08T15:35:54Z</time>
      </trkpt>
      <trkpt lat="44.43427" lon="1.35338">
        <ele>257.9</ele>
        <time>2025-03-08T15:35:55Z</time>
      </trkpt>
      <trkpt lat="44.43422" lon="1.35337">
        <ele>258.2</ele>
        <time>2025-03-08T15:35:56Z</time>
      </trkpt>
      <trkpt lat="44.43419" lon="1.35337">
        <ele>258.5</ele>
        <time>2025-03-08T15:35:57Z</time>
      </trkpt>
      <trkpt lat="44.43415" lon="1.35336">
        <ele>258.8</ele>
        <time>2025-03-08T15:35:58Z</time>
      </trkpt>
      <trkpt lat="44.43411" lon="1.35336">
        <ele>259.1</ele>
        <time>2025-03-08T15:35:59Z</time>
      </trkpt>
      <trkpt lat="44.43407" lon="1.35337">
        <ele>259.5</ele>
        <time>2025-03-08T15:36:00Z</time>
      </trkpt>
      <trkpt lat="44.43404" lon="1.3534">
        <ele>259.8</ele>
        <time>2025-03-08T15:36:01Z</time>
      </trkpt>
      <trkpt lat="44.43402" lon="1.35343">
        <ele>260</ele>
        <time>2025-03-08T15:36:02Z</time>
      </trkpt>
      <trkpt lat="44.43401" lon="1.35345">
        <ele>260.2</ele>
        <time>2025-03-08T15:36:03Z</time>
      </trkpt>
      <trkpt lat="44.43401" lon="1.35347">
        <ele>260.3</ele>
        <time>2025-03-08T15:36:04Z</time>
      </trkpt>
      <trkpt lat="44.43401" lon="1.35349">
        <ele>260.4</ele>
        <time>2025-03-08T15:36:05Z</time>
      </trkpt>
      <trkpt lat="44.434" lon="1.35351">
        <ele>260.4</ele>
        <time>2025-03-08T15:36:06Z</time>
      </trkpt>
      <trkpt lat="44.43399" lon="1.35353">
        <ele>260.6</ele>
        <time>2025-03-08T15:36:07Z</time>
      </trkpt>
      <trkpt lat="44.43398" lon="1.35355">
        <ele>260.7</ele>
        <time>2025-03-08T15:36:08Z</time>
      </trkpt>
      <trkpt lat="44.43397" lon="1.35356">
        <ele>260.8</ele>
        <time>2025-03-08T15:36:09Z</time>
      </trkpt>
      <trkpt lat="44.43395" lon="1.35357">
        <ele>260.9</ele>
        <time>2025-03-08T15:36:10Z</time>
      </trkpt>
      <trkpt lat="44.43392" lon="1.35357">
        <ele>261.1</ele>
        <time>2025-03-08T15:36:11Z</time>
      </trkpt>
      <trkpt lat="44.43389" lon="1.35358">
        <ele>261.3</ele>
        <time>2025-03-08T15:36:12Z</time>
      </trkpt>
      <trkpt lat="44.43385" lon="1.3536">
        <ele>261.6</ele>
        <time>2025-03-08T15:36:13Z</time>
      </trkpt>
      <trkpt lat="44.43382" lon="1.35362">
        <ele>261.9</ele>
        <time>2025-03-08T15:36:14Z</time>
      </trkpt>
      <trkpt lat="44.43379" lon="1.35365">
        <ele>262.2</ele>
        <time>2025-03-08T15:36:15Z</time>
      </trkpt>
      <trkpt lat="44.43376" lon="1.35368">
        <ele>262.5</ele>
        <time>2025-03-08T15:36:16Z</time>
      </trkpt>
      <trkpt lat="44.43373" lon="1.35371">
        <ele>262.8</ele>
        <time>2025-03-08T15:36:17Z</time>
      </trkpt>
      <trkpt lat="44.43371" lon="1.35374">
        <ele>263.1</ele>
        <time>2025-03-08T15:36:18Z</time>
      </trkpt>
      <trkpt lat="44.4337" lon="1.35375">
        <ele>263.3</ele>
        <time>2025-03-08T15:36:19Z</time>
      </trkpt>
      <trkpt lat="44.43368" lon="1.35379">
        <ele>263.6</ele>
        <time>2025-03-08T15:36:20Z</time>
      </trkpt>
      <trkpt lat="44.43368" lon="1.35381">
        <ele>263.7</ele>
        <time>2025-03-08T15:36:21Z</time>
      </trkpt>
      <trkpt lat="44.43366" lon="1.35384">
        <ele>263.9</ele>
        <time>2025-03-08T15:36:22Z</time>
      </trkpt>
      <trkpt lat="44.43365" lon="1.35386">
        <ele>264</ele>
        <time>2025-03-08T15:36:23Z</time>
      </trkpt>
      <trkpt lat="44.43363" lon="1.3539">
        <ele>264.3</ele>
        <time>2025-03-08T15:36:24Z</time>
      </trkpt>
      <trkpt lat="44.43362" lon="1.35391">
        <ele>264.4</ele>
        <time>2025-03-08T15:36:25Z</time>
      </trkpt>
      <trkpt lat="44.43361" lon="1.35395">
        <ele>264.6</ele>
        <time>2025-03-08T15:36:26Z</time>
      </trkpt>
      <trkpt lat="44.4336" lon="1.35396">
        <ele>264.7</ele>
        <time>2025-03-08T15:36:27Z</time>
      </trkpt>
      <trkpt lat="44.43359" lon="1.35399">
        <ele>264.8</ele>
        <time>2025-03-08T15:36:28Z</time>
      </trkpt>
      <trkpt lat="44.43358" lon="1.354">
        <ele>265</ele>
        <time>2025-03-08T15:36:29Z</time>
      </trkpt>
      <trkpt lat="44.43355" lon="1.35402">
        <ele>265.2</ele>
        <time>2025-03-08T15:36:30Z</time>
      </trkpt>
      <trkpt lat="44.43354" lon="1.35403">
        <ele>265.3</ele>
        <time>2025-03-08T15:36:31Z</time>
      </trkpt>
      <trkpt lat="44.4335" lon="1.35405">
        <ele>265.6</ele>
        <time>2025-03-08T15:36:32Z</time>
      </trkpt>
      <trkpt lat="44.43349" lon="1.35406">
        <ele>265.7</ele>
        <time>2025-03-08T15:36:33Z</time>
      </trkpt>
      <trkpt lat="44.43346" lon="1.35408">
        <ele>266.1</ele>
        <time>2025-03-08T15:36:34Z</time>
      </trkpt>
      <trkpt lat="44.43345" lon="1.35409">
        <ele>266.2</ele>
        <time>2025-03-08T15:36:35Z</time>
      </trkpt>
      <trkpt lat="44.43341" lon="1.35412">
        <ele>266.6</ele>
        <time>2025-03-08T15:36:36Z</time>
      </trkpt>
      <trkpt lat="44.4334" lon="1.35414">
        <ele>266.7</ele>
        <time>2025-03-08T15:36:37Z</time>
      </trkpt>
      <trkpt lat="44.43338" lon="1.35416">
        <ele>267</ele>
        <time>2025-03-08T15:36:38Z</time>
      </trkpt>
      <trkpt lat="44.43337" lon="1.3542">
        <ele>267.3</ele>
        <time>2025-03-08T15:36:39Z</time>
      </trkpt>
      <trkpt lat="44.43336" lon="1.35422">
        <ele>267.4</ele>
        <time>2025-03-08T15:36:40Z</time>
      </trkpt>
      <trkpt lat="44.43335" lon="1.35423">
        <ele>267.5</ele>
        <time>2025-03-08T15:36:41Z</time>
      </trkpt>
      <trkpt lat="44.43332" lon="1.35427">
        <ele>267.8</ele>
        <time>2025-03-08T15:36:42Z</time>
      </trkpt>
      <trkpt lat="44.43331" lon="1.35428">
        <ele>267.8</ele>
        <time>2025-03-08T15:36:43Z</time>
      </trkpt>
      <trkpt lat="44.4333" lon="1.35433">
        <ele>268</ele>
        <time>2025-03-08T15:36:44Z</time>
      </trkpt>
      <trkpt lat="44.43329" lon="1.35435">
        <ele>268</ele>
        <time>2025-03-08T15:36:45Z</time>
      </trkpt>
      <trkpt lat="44.43329" lon="1.35437">
        <ele>268.1</ele>
        <time>2025-03-08T15:36:46Z</time>
      </trkpt>
      <trkpt lat="44.43328" lon="1.35439">
        <ele>268.1</ele>
        <time>2025-03-08T15:36:47Z</time>
      </trkpt>
      <trkpt lat="44.43326" lon="1.35441">
        <ele>268.1</ele>
        <time>2025-03-08T15:36:48Z</time>
      </trkpt>
      <trkpt lat="44.43325" lon="1.35442">
        <ele>268.1</ele>
        <time>2025-03-08T15:36:49Z</time>
      </trkpt>
      <trkpt lat="44.43324" lon="1.35442">
        <ele>268.2</ele>
        <time>2025-03-08T15:36:50Z</time>
      </trkpt>
      <trkpt lat="44.43321" lon="1.35442">
        <ele>268.2</ele>
        <time>2025-03-08T15:36:51Z</time>
      </trkpt>
      <trkpt lat="44.43317" lon="1.35444">
        <ele>268.2</ele>
        <time>2025-03-08T15:36:52Z</time>
      </trkpt>
      <trkpt lat="44.43314" lon="1.35446">
        <ele>268.2</ele>
        <time>2025-03-08T15:36:53Z</time>
      </trkpt>
      <trkpt lat="44.43311" lon="1.35449">
        <ele>268.2</ele>
        <time>2025-03-08T15:36:54Z</time>
      </trkpt>
      <trkpt lat="44.4331" lon="1.3545">
        <ele>268.2</ele>
        <time>2025-03-08T15:36:55Z</time>
      </trkpt>
      <trkpt lat="44.43308" lon="1.35453">
        <ele>268.3</ele>
        <time>2025-03-08T15:36:56Z</time>
      </trkpt>
      <trkpt lat="44.43307" lon="1.35453">
        <ele>268.3</ele>
        <time>2025-03-08T15:36:57Z</time>
      </trkpt>
      <trkpt lat="44.43304" lon="1.35456">
        <ele>268.3</ele>
        <time>2025-03-08T15:36:58Z</time>
      </trkpt>
      <trkpt lat="44.43303" lon="1.35457">
        <ele>268.3</ele>
        <time>2025-03-08T15:36:59Z</time>
      </trkpt>
      <trkpt lat="44.43301" lon="1.3546">
        <ele>268.3</ele>
        <time>2025-03-08T15:37:00Z</time>
      </trkpt>
      <trkpt lat="44.433" lon="1.35461">
        <ele>268.3</ele>
        <time>2025-03-08T15:37:01Z</time>
      </trkpt>
      <trkpt lat="44.43299" lon="1.35463">
        <ele>268.2</ele>
        <time>2025-03-08T15:37:02Z</time>
      </trkpt>
      <trkpt lat="44.43297" lon="1.35464">
        <ele>268.2</ele>
        <time>2025-03-08T15:37:03Z</time>
      </trkpt>
      <trkpt lat="44.43293" lon="1.35464">
        <ele>268.2</ele>
        <time>2025-03-08T15:37:04Z</time>
      </trkpt>
      <trkpt lat="44.43291" lon="1.35464">
        <ele>268.1</ele>
        <time>2025-03-08T15:37:05Z</time>
      </trkpt>
      <trkpt lat="44.43288" lon="1.35464">
        <ele>268</ele>
        <time>2025-03-08T15:37:06Z</time>
      </trkpt>
      <trkpt lat="44.43284" lon="1.35464">
        <ele>267.9</ele>
        <time>2025-03-08T15:37:07Z</time>
      </trkpt>
      <trkpt lat="44.43282" lon="1.35464">
        <ele>267.8</ele>
        <time>2025-03-08T15:37:08Z</time>
      </trkpt>
      <trkpt lat="44.43278" lon="1.35463">
        <ele>267.6</ele>
        <time>2025-03-08T15:37:09Z</time>
      </trkpt>
      <trkpt lat="44.43274" lon="1.35463">
        <ele>267.4</ele>
        <time>2025-03-08T15:37:10Z</time>
      </trkpt>
      <trkpt lat="44.43271" lon="1.35464">
        <ele>267.2</ele>
        <time>2025-03-08T15:37:11Z</time>
      </trkpt>
      <trkpt lat="44.43267" lon="1.35464">
        <ele>267</ele>
        <time>2025-03-08T15:37:12Z</time>
      </trkpt>
      <trkpt lat="44.43265" lon="1.35463">
        <ele>266.8</ele>
        <time>2025-03-08T15:37:13Z</time>
      </trkpt>
      <trkpt lat="44.43261" lon="1.3546">
        <ele>266.6</ele>
        <time>2025-03-08T15:37:14Z</time>
      </trkpt>
      <trkpt lat="44.43257" lon="1.35457">
        <ele>266.2</ele>
        <time>2025-03-08T15:37:15Z</time>
      </trkpt>
      <trkpt lat="44.43252" lon="1.35454">
        <ele>265.9</ele>
        <time>2025-03-08T15:37:16Z</time>
      </trkpt>
      <trkpt lat="44.43248" lon="1.3545">
        <ele>265.6</ele>
        <time>2025-03-08T15:37:17Z</time>
      </trkpt>
      <trkpt lat="44.43244" lon="1.35446">
        <ele>265.4</ele>
        <time>2025-03-08T15:37:18Z</time>
      </trkpt>
      <trkpt lat="44.43239" lon="1.35441">
        <ele>265.3</ele>
        <time>2025-03-08T15:37:19Z</time>
      </trkpt>
      <trkpt lat="44.43235" lon="1.35437">
        <ele>265.3</ele>
        <time>2025-03-08T15:37:20Z</time>
      </trkpt>
      <trkpt lat="44.43233" lon="1.35434">
        <ele>265.4</ele>
        <time>2025-03-08T15:37:21Z</time>
      </trkpt>
      <trkpt lat="44.4323" lon="1.35431">
        <ele>265.5</ele>
        <time>2025-03-08T15:37:22Z</time>
      </trkpt>
      <trkpt lat="44.43227" lon="1.35429">
        <ele>265.6</ele>
        <time>2025-03-08T15:37:23Z</time>
      </trkpt>
      <trkpt lat="44.43225" lon="1.35426">
        <ele>265.7</ele>
        <time>2025-03-08T15:37:24Z</time>
      </trkpt>
      <trkpt lat="44.43223" lon="1.35424">
        <ele>265.7</ele>
        <time>2025-03-08T15:37:25Z</time>
      </trkpt>
      <trkpt lat="44.4322" lon="1.35421">
        <ele>265.9</ele>
        <time>2025-03-08T15:37:26Z</time>
      </trkpt>
      <trkpt lat="44.43219" lon="1.3542">
        <ele>265.9</ele>
        <time>2025-03-08T15:37:27Z</time>
      </trkpt>
      <trkpt lat="44.43217" lon="1.35415">
        <ele>266</ele>
        <time>2025-03-08T15:37:28Z</time>
      </trkpt>
      <trkpt lat="44.43216" lon="1.35414">
        <ele>266.1</ele>
        <time>2025-03-08T15:37:29Z</time>
      </trkpt>
      <trkpt lat="44.43213" lon="1.35411">
        <ele>266.2</ele>
        <time>2025-03-08T15:37:30Z</time>
      </trkpt>
      <trkpt lat="44.43209" lon="1.35409">
        <ele>266.4</ele>
        <time>2025-03-08T15:37:31Z</time>
      </trkpt>
      <trkpt lat="44.43208" lon="1.35407">
        <ele>266.4</ele>
        <time>2025-03-08T15:37:32Z</time>
      </trkpt>
      <trkpt lat="44.43204" lon="1.35405">
        <ele>266.6</ele>
        <time>2025-03-08T15:37:33Z</time>
      </trkpt>
      <trkpt lat="44.432" lon="1.35403">
        <ele>266.7</ele>
        <time>2025-03-08T15:37:34Z</time>
      </trkpt>
      <trkpt lat="44.43197" lon="1.35403">
        <ele>266.9</ele>
        <time>2025-03-08T15:37:35Z</time>
      </trkpt>
      <trkpt lat="44.43192" lon="1.35404">
        <ele>267</ele>
        <time>2025-03-08T15:37:36Z</time>
      </trkpt>
      <trkpt lat="44.43189" lon="1.35404">
        <ele>267.2</ele>
        <time>2025-03-08T15:37:37Z</time>
      </trkpt>
      <trkpt lat="44.43185" lon="1.35404">
        <ele>267.3</ele>
        <time>2025-03-08T15:37:38Z</time>
      </trkpt>
      <trkpt lat="44.43181" lon="1.35405">
        <ele>267.4</ele>
        <time>2025-03-08T15:37:39Z</time>
      </trkpt>
      <trkpt lat="44.43178" lon="1.35405">
        <ele>267.5</ele>
        <time>2025-03-08T15:37:40Z</time>
      </trkpt>
      <trkpt lat="44.43175" lon="1.35406">
        <ele>267.6</ele>
        <time>2025-03-08T15:37:41Z</time>
      </trkpt>
      <trkpt lat="44.43171" lon="1.35408">
        <ele>267.7</ele>
        <time>2025-03-08T15:37:42Z</time>
      </trkpt>
      <trkpt lat="44.4317" lon="1.35409">
        <ele>267.7</ele>
        <time>2025-03-08T15:37:43Z</time>
      </trkpt>
      <trkpt lat="44.43166" lon="1.3541">
        <ele>267.8</ele>
        <time>2025-03-08T15:37:44Z</time>
      </trkpt>
      <trkpt lat="44.43163" lon="1.35412">
        <ele>267.9</ele>
        <time>2025-03-08T15:37:45Z</time>
      </trkpt>
      <trkpt lat="44.43161" lon="1.35415">
        <ele>267.9</ele>
        <time>2025-03-08T15:37:46Z</time>
      </trkpt>
      <trkpt lat="44.43161" lon="1.35416">
        <ele>267.9</ele>
        <time>2025-03-08T15:37:47Z</time>
      </trkpt>
      <trkpt lat="44.43157" lon="1.35417">
        <ele>267.9</ele>
        <time>2025-03-08T15:37:48Z</time>
      </trkpt>
      <trkpt lat="44.43156" lon="1.35417">
        <ele>267.8</ele>
        <time>2025-03-08T15:37:49Z</time>
      </trkpt>
      <trkpt lat="44.43155" lon="1.35418">
        <ele>267.8</ele>
        <time>2025-03-08T15:37:50Z</time>
      </trkpt>
      <trkpt lat="44.43153" lon="1.35419">
        <ele>267.8</ele>
        <time>2025-03-08T15:37:51Z</time>
      </trkpt>
      <trkpt lat="44.4315" lon="1.35418">
        <ele>267.8</ele>
        <time>2025-03-08T15:37:52Z</time>
      </trkpt>
      <trkpt lat="44.43149" lon="1.35417">
        <ele>267.8</ele>
        <time>2025-03-08T15:37:53Z</time>
      </trkpt>
      <trkpt lat="44.43147" lon="1.35415">
        <ele>267.8</ele>
        <time>2025-03-08T15:37:54Z</time>
      </trkpt>
      <trkpt lat="44.43143" lon="1.35413">
        <ele>267.8</ele>
        <time>2025-03-08T15:37:55Z</time>
      </trkpt>
      <trkpt lat="44.43138" lon="1.35413">
        <ele>268</ele>
        <time>2025-03-08T15:37:56Z</time>
      </trkpt>
      <trkpt lat="44.43134" lon="1.35415">
        <ele>268.3</ele>
        <time>2025-03-08T15:37:57Z</time>
      </trkpt>
      <trkpt lat="44.43131" lon="1.35417">
        <ele>268.5</ele>
        <time>2025-03-08T15:37:58Z</time>
      </trkpt>
      <trkpt lat="44.43128" lon="1.3542">
        <ele>268.8</ele>
        <time>2025-03-08T15:37:59Z</time>
      </trkpt>
      <trkpt lat="44.43125" lon="1.35422">
        <ele>269.1</ele>
        <time>2025-03-08T15:38:00Z</time>
      </trkpt>
      <trkpt lat="44.43123" lon="1.35425">
        <ele>269.4</ele>
        <time>2025-03-08T15:38:01Z</time>
      </trkpt>
      <trkpt lat="44.43121" lon="1.35429">
        <ele>269.7</ele>
        <time>2025-03-08T15:38:02Z</time>
      </trkpt>
      <trkpt lat="44.4312" lon="1.3543">
        <ele>269.9</ele>
        <time>2025-03-08T15:38:03Z</time>
      </trkpt>
      <trkpt lat="44.43119" lon="1.35433">
        <ele>270.2</ele>
        <time>2025-03-08T15:38:04Z</time>
      </trkpt>
      <trkpt lat="44.43117" lon="1.35436">
        <ele>270.5</ele>
        <time>2025-03-08T15:38:05Z</time>
      </trkpt>
      <trkpt lat="44.43116" lon="1.35442">
        <ele>270.8</ele>
        <time>2025-03-08T15:38:06Z</time>
      </trkpt>
      <trkpt lat="44.43116" lon="1.35443">
        <ele>271</ele>
        <time>2025-03-08T15:38:07Z</time>
      </trkpt>
      <trkpt lat="44.43116" lon="1.35446">
        <ele>271.2</ele>
        <time>2025-03-08T15:38:08Z</time>
      </trkpt>
      <trkpt lat="44.43116" lon="1.35448">
        <ele>271.3</ele>
        <time>2025-03-08T15:38:09Z</time>
      </trkpt>
      <trkpt lat="44.43115" lon="1.35452">
        <ele>271.5</ele>
        <time>2025-03-08T15:38:10Z</time>
      </trkpt>
      <trkpt lat="44.43115" lon="1.35453">
        <ele>271.6</ele>
        <time>2025-03-08T15:38:11Z</time>
      </trkpt>
      <trkpt lat="44.43113" lon="1.35457">
        <ele>271.9</ele>
        <time>2025-03-08T15:38:12Z</time>
      </trkpt>
      <trkpt lat="44.43112" lon="1.35458">
        <ele>271.9</ele>
        <time>2025-03-08T15:38:13Z</time>
      </trkpt>
      <trkpt lat="44.4311" lon="1.35463">
        <ele>272.2</ele>
        <time>2025-03-08T15:38:14Z</time>
      </trkpt>
      <trkpt lat="44.4311" lon="1.35465">
        <ele>272.2</ele>
        <time>2025-03-08T15:38:15Z</time>
      </trkpt>
      <trkpt lat="44.4311" lon="1.3547">
        <ele>272.3</ele>
        <time>2025-03-08T15:38:16Z</time>
      </trkpt>
      <trkpt lat="44.4311" lon="1.35471">
        <ele>272.3</ele>
        <time>2025-03-08T15:38:17Z</time>
      </trkpt>
      <trkpt lat="44.4311" lon="1.35473">
        <ele>272.3</ele>
        <time>2025-03-08T15:38:18Z</time>
      </trkpt>
      <trkpt lat="44.4311" lon="1.35476">
        <ele>272.3</ele>
        <time>2025-03-08T15:38:19Z</time>
      </trkpt>
      <trkpt lat="44.4311" lon="1.3548">
        <ele>272.3</ele>
        <time>2025-03-08T15:38:20Z</time>
      </trkpt>
      <trkpt lat="44.43111" lon="1.35481">
        <ele>272.2</ele>
        <time>2025-03-08T15:38:21Z</time>
      </trkpt>
      <trkpt lat="44.43111" lon="1.35484">
        <ele>272.1</ele>
        <time>2025-03-08T15:38:22Z</time>
      </trkpt>
      <trkpt lat="44.43111" lon="1.35486">
        <ele>272.1</ele>
        <time>2025-03-08T15:38:23Z</time>
      </trkpt>
      <trkpt lat="44.43111" lon="1.35487">
        <ele>272</ele>
        <time>2025-03-08T15:38:24Z</time>
      </trkpt>
      <trkpt lat="44.4311" lon="1.35489">
        <ele>271.9</ele>
        <time>2025-03-08T15:38:25Z</time>
      </trkpt>
      <trkpt lat="44.43109" lon="1.3549">
        <ele>271.8</ele>
        <time>2025-03-08T15:38:26Z</time>
      </trkpt>
      <trkpt lat="44.43108" lon="1.35492">
        <ele>271.6</ele>
        <time>2025-03-08T15:38:27Z</time>
      </trkpt>
      <trkpt lat="44.43107" lon="1.35495">
        <ele>271.4</ele>
        <time>2025-03-08T15:38:28Z</time>
      </trkpt>
      <trkpt lat="44.43106" lon="1.35497">
        <ele>271.2</ele>
        <time>2025-03-08T15:38:29Z</time>
      </trkpt>
      <trkpt lat="44.43105" lon="1.35498">
        <ele>271</ele>
        <time>2025-03-08T15:38:30Z</time>
      </trkpt>
      <trkpt lat="44.43101" lon="1.35498">
        <ele>270.4</ele>
        <time>2025-03-08T15:38:31Z</time>
      </trkpt>
      <trkpt lat="44.43099" lon="1.35498">
        <ele>270.2</ele>
        <time>2025-03-08T15:38:32Z</time>
      </trkpt>
      <trkpt lat="44.43096" lon="1.35499">
        <ele>269.6</ele>
        <time>2025-03-08T15:38:33Z</time>
      </trkpt>
      <trkpt lat="44.43092" lon="1.35499">
        <ele>269</ele>
        <time>2025-03-08T15:38:34Z</time>
      </trkpt>
      <trkpt lat="44.43089" lon="1.35499">
        <ele>268.4</ele>
        <time>2025-03-08T15:38:35Z</time>
      </trkpt>
      <trkpt lat="44.43085" lon="1.355">
        <ele>267.8</ele>
        <time>2025-03-08T15:38:36Z</time>
      </trkpt>
      <trkpt lat="44.43082" lon="1.35501">
        <ele>267.2</ele>
        <time>2025-03-08T15:38:37Z</time>
      </trkpt>
      <trkpt lat="44.43079" lon="1.35503">
        <ele>266.6</ele>
        <time>2025-03-08T15:38:38Z</time>
      </trkpt>
      <trkpt lat="44.43076" lon="1.35505">
        <ele>265.9</ele>
        <time>2025-03-08T15:38:39Z</time>
      </trkpt>
      <trkpt lat="44.43073" lon="1.35506">
        <ele>265.4</ele>
        <time>2025-03-08T15:38:40Z</time>
      </trkpt>
      <trkpt lat="44.4307" lon="1.35507">
        <ele>264.7</ele>
        <time>2025-03-08T15:38:41Z</time>
      </trkpt>
      <trkpt lat="44.43069" lon="1.35507">
        <ele>264.5</ele>
        <time>2025-03-08T15:38:42Z</time>
      </trkpt>
      <trkpt lat="44.43066" lon="1.35504">
        <ele>263.8</ele>
        <time>2025-03-08T15:38:43Z</time>
      </trkpt>
      <trkpt lat="44.43065" lon="1.35502">
        <ele>263.5</ele>
        <time>2025-03-08T15:38:44Z</time>
      </trkpt>
      <trkpt lat="44.43061" lon="1.35501">
        <ele>262.8</ele>
        <time>2025-03-08T15:38:45Z</time>
      </trkpt>
      <trkpt lat="44.43057" lon="1.35501">
        <ele>262</ele>
        <time>2025-03-08T15:38:46Z</time>
      </trkpt>
      <trkpt lat="44.43053" lon="1.355">
        <ele>261.3</ele>
        <time>2025-03-08T15:38:47Z</time>
      </trkpt>
      <trkpt lat="44.43049" lon="1.35499">
        <ele>260.7</ele>
        <time>2025-03-08T15:38:48Z</time>
      </trkpt>
      <trkpt lat="44.43045" lon="1.35502">
        <ele>260</ele>
        <time>2025-03-08T15:38:49Z</time>
      </trkpt>
      <trkpt lat="44.43041" lon="1.35505">
        <ele>259.2</ele>
        <time>2025-03-08T15:38:50Z</time>
      </trkpt>
      <trkpt lat="44.43036" lon="1.35508">
        <ele>258.6</ele>
        <time>2025-03-08T15:38:51Z</time>
      </trkpt>
      <trkpt lat="44.43031" lon="1.35509">
        <ele>258</ele>
        <time>2025-03-08T15:38:52Z</time>
      </trkpt>
      <trkpt lat="44.43026" lon="1.3551">
        <ele>257.5</ele>
        <time>2025-03-08T15:38:53Z</time>
      </trkpt>
      <trkpt lat="44.43021" lon="1.35512">
        <ele>257.1</ele>
        <time>2025-03-08T15:38:54Z</time>
      </trkpt>
      <trkpt lat="44.43015" lon="1.35516">
        <ele>256.7</ele>
        <time>2025-03-08T15:38:55Z</time>
      </trkpt>
      <trkpt lat="44.4301" lon="1.3552">
        <ele>256.5</ele>
        <time>2025-03-08T15:38:56Z</time>
      </trkpt>
      <trkpt lat="44.43005" lon="1.35524">
        <ele>256.3</ele>
        <time>2025-03-08T15:38:57Z</time>
      </trkpt>
      <trkpt lat="44.42999" lon="1.35528">
        <ele>256.1</ele>
        <time>2025-03-08T15:38:58Z</time>
      </trkpt>
      <trkpt lat="44.42996" lon="1.35533">
        <ele>256</ele>
        <time>2025-03-08T15:38:59Z</time>
      </trkpt>
      <trkpt lat="44.42993" lon="1.35537">
        <ele>255.8</ele>
        <time>2025-03-08T15:39:00Z</time>
      </trkpt>
      <trkpt lat="44.4299" lon="1.35539">
        <ele>255.7</ele>
        <time>2025-03-08T15:39:01Z</time>
      </trkpt>
      <trkpt lat="44.42987" lon="1.35539">
        <ele>255.6</ele>
        <time>2025-03-08T15:39:02Z</time>
      </trkpt>
      <trkpt lat="44.42982" lon="1.3554">
        <ele>255.5</ele>
        <time>2025-03-08T15:39:03Z</time>
      </trkpt>
      <trkpt lat="44.42977" lon="1.35542">
        <ele>255.4</ele>
        <time>2025-03-08T15:39:04Z</time>
      </trkpt>
      <trkpt lat="44.42972" lon="1.35545">
        <ele>255.5</ele>
        <time>2025-03-08T15:39:05Z</time>
      </trkpt>
      <trkpt lat="44.42967" lon="1.35547">
        <ele>255.6</ele>
        <time>2025-03-08T15:39:06Z</time>
      </trkpt>
      <trkpt lat="44.42963" lon="1.3555">
        <ele>255.8</ele>
        <time>2025-03-08T15:39:07Z</time>
      </trkpt>
      <trkpt lat="44.42959" lon="1.35552">
        <ele>256.1</ele>
        <time>2025-03-08T15:39:08Z</time>
      </trkpt>
      <trkpt lat="44.42956" lon="1.35554">
        <ele>256.4</ele>
        <time>2025-03-08T15:39:09Z</time>
      </trkpt>
      <trkpt lat="44.42952" lon="1.35556">
        <ele>256.7</ele>
        <time>2025-03-08T15:39:10Z</time>
      </trkpt>
      <trkpt lat="44.42949" lon="1.35559">
        <ele>257.1</ele>
        <time>2025-03-08T15:39:11Z</time>
      </trkpt>
      <trkpt lat="44.42946" lon="1.35561">
        <ele>257.4</ele>
        <time>2025-03-08T15:39:12Z</time>
      </trkpt>
      <trkpt lat="44.42943" lon="1.35563">
        <ele>257.8</ele>
        <time>2025-03-08T15:39:13Z</time>
      </trkpt>
      <trkpt lat="44.42941" lon="1.35566">
        <ele>258.2</ele>
        <time>2025-03-08T15:39:14Z</time>
      </trkpt>
      <trkpt lat="44.42938" lon="1.35568">
        <ele>258.6</ele>
        <time>2025-03-08T15:39:15Z</time>
      </trkpt>
      <trkpt lat="44.42937" lon="1.35569">
        <ele>258.7</ele>
        <time>2025-03-08T15:39:16Z</time>
      </trkpt>
      <trkpt lat="44.42934" lon="1.35572">
        <ele>259.2</ele>
        <time>2025-03-08T15:39:17Z</time>
      </trkpt>
      <trkpt lat="44.42933" lon="1.35573">
        <ele>259.3</ele>
        <time>2025-03-08T15:39:18Z</time>
      </trkpt>
      <trkpt lat="44.42931" lon="1.35576">
        <ele>259.7</ele>
        <time>2025-03-08T15:39:19Z</time>
      </trkpt>
      <trkpt lat="44.4293" lon="1.35576">
        <ele>259.8</ele>
        <time>2025-03-08T15:39:20Z</time>
      </trkpt>
      <trkpt lat="44.42928" lon="1.35579">
        <ele>260.2</ele>
        <time>2025-03-08T15:39:21Z</time>
      </trkpt>
      <trkpt lat="44.42927" lon="1.3558">
        <ele>260.3</ele>
        <time>2025-03-08T15:39:22Z</time>
      </trkpt>
      <trkpt lat="44.42925" lon="1.35582">
        <ele>260.7</ele>
        <time>2025-03-08T15:39:23Z</time>
      </trkpt>
      <trkpt lat="44.42924" lon="1.35583">
        <ele>260.8</ele>
        <time>2025-03-08T15:39:24Z</time>
      </trkpt>
      <trkpt lat="44.42921" lon="1.35585">
        <ele>261.2</ele>
        <time>2025-03-08T15:39:25Z</time>
      </trkpt>
      <trkpt lat="44.4292" lon="1.35586">
        <ele>261.3</ele>
        <time>2025-03-08T15:39:26Z</time>
      </trkpt>
      <trkpt lat="44.42917" lon="1.35588">
        <ele>261.6</ele>
        <time>2025-03-08T15:39:27Z</time>
      </trkpt>
      <trkpt lat="44.42916" lon="1.35589">
        <ele>261.8</ele>
        <time>2025-03-08T15:39:28Z</time>
      </trkpt>
      <trkpt lat="44.42914" lon="1.35591">
        <ele>262</ele>
        <time>2025-03-08T15:39:29Z</time>
      </trkpt>
      <trkpt lat="44.42913" lon="1.35592">
        <ele>262.1</ele>
        <time>2025-03-08T15:39:30Z</time>
      </trkpt>
      <trkpt lat="44.4291" lon="1.35593">
        <ele>262.3</ele>
        <time>2025-03-08T15:39:31Z</time>
      </trkpt>
      <trkpt lat="44.42909" lon="1.35594">
        <ele>262.4</ele>
        <time>2025-03-08T15:39:32Z</time>
      </trkpt>
      <trkpt lat="44.42906" lon="1.35596">
        <ele>262.8</ele>
        <time>2025-03-08T15:39:33Z</time>
      </trkpt>
      <trkpt lat="44.42905" lon="1.35597">
        <ele>262.9</ele>
        <time>2025-03-08T15:39:34Z</time>
      </trkpt>
      <trkpt lat="44.42903" lon="1.35597">
        <ele>263</ele>
        <time>2025-03-08T15:39:35Z</time>
      </trkpt>
      <trkpt lat="44.42901" lon="1.35598">
        <ele>263.1</ele>
        <time>2025-03-08T15:39:36Z</time>
      </trkpt>
      <trkpt lat="44.429" lon="1.35599">
        <ele>263.2</ele>
        <time>2025-03-08T15:39:37Z</time>
      </trkpt>
      <trkpt lat="44.42898" lon="1.356">
        <ele>263.4</ele>
        <time>2025-03-08T15:39:38Z</time>
      </trkpt>
      <trkpt lat="44.42895" lon="1.35601">
        <ele>263.6</ele>
        <time>2025-03-08T15:39:39Z</time>
      </trkpt>
      <trkpt lat="44.42894" lon="1.35602">
        <ele>263.7</ele>
        <time>2025-03-08T15:39:40Z</time>
      </trkpt>
      <trkpt lat="44.4289" lon="1.35604">
        <ele>263.9</ele>
        <time>2025-03-08T15:39:41Z</time>
      </trkpt>
      <trkpt lat="44.42889" lon="1.35604">
        <ele>264</ele>
        <time>2025-03-08T15:39:42Z</time>
      </trkpt>
      <trkpt lat="44.42888" lon="1.35605">
        <ele>264.1</ele>
        <time>2025-03-08T15:39:43Z</time>
      </trkpt>
      <trkpt lat="44.42886" lon="1.35605">
        <ele>264.1</ele>
        <time>2025-03-08T15:39:44Z</time>
      </trkpt>
      <trkpt lat="44.42883" lon="1.35606">
        <ele>264.3</ele>
        <time>2025-03-08T15:39:45Z</time>
      </trkpt>
      <trkpt lat="44.42881" lon="1.35607">
        <ele>264.4</ele>
        <time>2025-03-08T15:39:46Z</time>
      </trkpt>
      <trkpt lat="44.42878" lon="1.35609">
        <ele>264.5</ele>
        <time>2025-03-08T15:39:47Z</time>
      </trkpt>
      <trkpt lat="44.42876" lon="1.35611">
        <ele>264.7</ele>
        <time>2025-03-08T15:39:48Z</time>
      </trkpt>
      <trkpt lat="44.42873" lon="1.35613">
        <ele>264.8</ele>
        <time>2025-03-08T15:39:49Z</time>
      </trkpt>
      <trkpt lat="44.42872" lon="1.35613">
        <ele>264.8</ele>
        <time>2025-03-08T15:39:50Z</time>
      </trkpt>
      <trkpt lat="44.4287" lon="1.35614">
        <ele>264.9</ele>
        <time>2025-03-08T15:39:51Z</time>
      </trkpt>
      <trkpt lat="44.42869" lon="1.35614">
        <ele>264.9</ele>
        <time>2025-03-08T15:39:52Z</time>
      </trkpt>
      <trkpt lat="44.42866" lon="1.35613">
        <ele>265</ele>
        <time>2025-03-08T15:39:53Z</time>
      </trkpt>
      <trkpt lat="44.42865" lon="1.35612">
        <ele>265</ele>
        <time>2025-03-08T15:39:54Z</time>
      </trkpt>
      <trkpt lat="44.42861" lon="1.35612">
        <ele>265.1</ele>
        <time>2025-03-08T15:39:55Z</time>
      </trkpt>
      <trkpt lat="44.42859" lon="1.35613">
        <ele>265.1</ele>
        <time>2025-03-08T15:39:56Z</time>
      </trkpt>
      <trkpt lat="44.42856" lon="1.35614">
        <ele>265.1</ele>
        <time>2025-03-08T15:39:57Z</time>
      </trkpt>
      <trkpt lat="44.42854" lon="1.35615">
        <ele>265.1</ele>
        <time>2025-03-08T15:39:58Z</time>
      </trkpt>
      <trkpt lat="44.42853" lon="1.35614">
        <ele>265</ele>
        <time>2025-03-08T15:39:59Z</time>
      </trkpt>
      <trkpt lat="44.42851" lon="1.35609">
        <ele>265</ele>
        <time>2025-03-08T15:40:00Z</time>
      </trkpt>
      <trkpt lat="44.42849" lon="1.35607">
        <ele>264.9</ele>
        <time>2025-03-08T15:40:01Z</time>
      </trkpt>
      <trkpt lat="44.42845" lon="1.35604">
        <ele>264.8</ele>
        <time>2025-03-08T15:40:02Z</time>
      </trkpt>
      <trkpt lat="44.42841" lon="1.35602">
        <ele>264.6</ele>
        <time>2025-03-08T15:40:03Z</time>
      </trkpt>
      <trkpt lat="44.42838" lon="1.35599">
        <ele>264.5</ele>
        <time>2025-03-08T15:40:04Z</time>
      </trkpt>
      <trkpt lat="44.42837" lon="1.35596">
        <ele>264.5</ele>
        <time>2025-03-08T15:40:05Z</time>
      </trkpt>
      <trkpt lat="44.42835" lon="1.35592">
        <ele>264.4</ele>
        <time>2025-03-08T15:40:06Z</time>
      </trkpt>
      <trkpt lat="44.42832" lon="1.35591">
        <ele>264.4</ele>
        <time>2025-03-08T15:40:07Z</time>
      </trkpt>
      <trkpt lat="44.42828" lon="1.35591">
        <ele>264.5</ele>
        <time>2025-03-08T15:40:08Z</time>
      </trkpt>
      <trkpt lat="44.42824" lon="1.35591">
        <ele>264.5</ele>
        <time>2025-03-08T15:40:09Z</time>
      </trkpt>
      <trkpt lat="44.42821" lon="1.35592">
        <ele>264.7</ele>
        <time>2025-03-08T15:40:10Z</time>
      </trkpt>
      <trkpt lat="44.42818" lon="1.35592">
        <ele>264.8</ele>
        <time>2025-03-08T15:40:11Z</time>
      </trkpt>
      <trkpt lat="44.42815" lon="1.35593">
        <ele>264.9</ele>
        <time>2025-03-08T15:40:12Z</time>
      </trkpt>
      <trkpt lat="44.42811" lon="1.35595">
        <ele>265.2</ele>
        <time>2025-03-08T15:40:13Z</time>
      </trkpt>
      <trkpt lat="44.42808" lon="1.35598">
        <ele>265.4</ele>
        <time>2025-03-08T15:40:14Z</time>
      </trkpt>
      <trkpt lat="44.42806" lon="1.356">
        <ele>265.5</ele>
        <time>2025-03-08T15:40:15Z</time>
      </trkpt>
      <trkpt lat="44.42803" lon="1.35602">
        <ele>265.7</ele>
        <time>2025-03-08T15:40:16Z</time>
      </trkpt>
      <trkpt lat="44.42802" lon="1.35603">
        <ele>265.8</ele>
        <time>2025-03-08T15:40:17Z</time>
      </trkpt>
      <trkpt lat="44.42798" lon="1.35604">
        <ele>266</ele>
        <time>2025-03-08T15:40:18Z</time>
      </trkpt>
      <trkpt lat="44.42797" lon="1.35604">
        <ele>266.1</ele>
        <time>2025-03-08T15:40:19Z</time>
      </trkpt>
      <trkpt lat="44.42794" lon="1.35605">
        <ele>266.3</ele>
        <time>2025-03-08T15:40:20Z</time>
      </trkpt>
      <trkpt lat="44.42793" lon="1.35606">
        <ele>266.4</ele>
        <time>2025-03-08T15:40:21Z</time>
      </trkpt>
      <trkpt lat="44.4279" lon="1.35607">
        <ele>266.6</ele>
        <time>2025-03-08T15:40:22Z</time>
      </trkpt>
      <trkpt lat="44.42787" lon="1.35607">
        <ele>266.7</ele>
        <time>2025-03-08T15:40:23Z</time>
      </trkpt>
      <trkpt lat="44.42784" lon="1.35608">
        <ele>266.9</ele>
        <time>2025-03-08T15:40:24Z</time>
      </trkpt>
      <trkpt lat="44.42781" lon="1.35609">
        <ele>267.2</ele>
        <time>2025-03-08T15:40:25Z</time>
      </trkpt>
      <trkpt lat="44.4278" lon="1.35609">
        <ele>267.3</ele>
        <time>2025-03-08T15:40:26Z</time>
      </trkpt>
      <trkpt lat="44.42777" lon="1.35608">
        <ele>267.5</ele>
        <time>2025-03-08T15:40:27Z</time>
      </trkpt>
      <trkpt lat="44.42776" lon="1.35608">
        <ele>267.6</ele>
        <time>2025-03-08T15:40:28Z</time>
      </trkpt>
      <trkpt lat="44.42774" lon="1.35607">
        <ele>267.9</ele>
        <time>2025-03-08T15:40:29Z</time>
      </trkpt>
      <trkpt lat="44.4277" lon="1.35606">
        <ele>268.2</ele>
        <time>2025-03-08T15:40:30Z</time>
      </trkpt>
      <trkpt lat="44.42768" lon="1.35605">
        <ele>268.4</ele>
        <time>2025-03-08T15:40:31Z</time>
      </trkpt>
      <trkpt lat="44.42764" lon="1.35605">
        <ele>268.7</ele>
        <time>2025-03-08T15:40:32Z</time>
      </trkpt>
      <trkpt lat="44.42762" lon="1.35608">
        <ele>269</ele>
        <time>2025-03-08T15:40:33Z</time>
      </trkpt>
      <trkpt lat="44.4276" lon="1.3561">
        <ele>269.2</ele>
        <time>2025-03-08T15:40:34Z</time>
      </trkpt>
      <trkpt lat="44.42759" lon="1.3561">
        <ele>269.3</ele>
        <time>2025-03-08T15:40:35Z</time>
      </trkpt>
      <trkpt lat="44.42757" lon="1.3561">
        <ele>269.4</ele>
        <time>2025-03-08T15:40:36Z</time>
      </trkpt>
      <trkpt lat="44.42755" lon="1.3561">
        <ele>269.6</ele>
        <time>2025-03-08T15:40:37Z</time>
      </trkpt>
      <trkpt lat="44.42753" lon="1.35611">
        <ele>269.7</ele>
        <time>2025-03-08T15:40:38Z</time>
      </trkpt>
      <trkpt lat="44.42752" lon="1.35612">
        <ele>269.8</ele>
        <time>2025-03-08T15:40:39Z</time>
      </trkpt>
      <trkpt lat="44.42751" lon="1.35611">
        <ele>269.9</ele>
        <time>2025-03-08T15:40:40Z</time>
      </trkpt>
      <trkpt lat="44.42751" lon="1.35609">
        <ele>269.9</ele>
        <time>2025-03-08T15:40:41Z</time>
      </trkpt>
      <trkpt lat="44.4275" lon="1.35608">
        <ele>270</ele>
        <time>2025-03-08T15:40:42Z</time>
      </trkpt>
      <trkpt lat="44.4275" lon="1.35607">
        <ele>270</ele>
        <time>2025-03-08T15:40:43Z</time>
      </trkpt>
      <trkpt lat="44.42749" lon="1.35602">
        <ele>270.2</ele>
        <time>2025-03-08T15:40:44Z</time>
      </trkpt>
      <trkpt lat="44.42749" lon="1.35601">
        <ele>270.2</ele>
        <time>2025-03-08T15:40:45Z</time>
      </trkpt>
      <trkpt lat="44.42748" lon="1.35597">
        <ele>270.3</ele>
        <time>2025-03-08T15:40:46Z</time>
      </trkpt>
      <trkpt lat="44.42747" lon="1.35595">
        <ele>270.4</ele>
        <time>2025-03-08T15:40:47Z</time>
      </trkpt>
      <trkpt lat="44.42745" lon="1.35591">
        <ele>270.6</ele>
        <time>2025-03-08T15:40:48Z</time>
      </trkpt>
      <trkpt lat="44.42741" lon="1.3559">
        <ele>270.8</ele>
        <time>2025-03-08T15:40:49Z</time>
      </trkpt>
      <trkpt lat="44.42738" lon="1.35589">
        <ele>271</ele>
        <time>2025-03-08T15:40:50Z</time>
      </trkpt>
      <trkpt lat="44.42734" lon="1.35589">
        <ele>271.3</ele>
        <time>2025-03-08T15:40:51Z</time>
      </trkpt>
      <trkpt lat="44.42734" lon="1.35589">
        <ele>271.3</ele>
        <time>2025-03-08T15:40:52Z</time>
      </trkpt>
      <trkpt lat="44.42731" lon="1.35587">
        <ele>271.5</ele>
        <time>2025-03-08T15:40:53Z</time>
      </trkpt>
      <trkpt lat="44.4273" lon="1.35587">
        <ele>271.7</ele>
        <time>2025-03-08T15:40:54Z</time>
      </trkpt>
      <trkpt lat="44.42727" lon="1.35586">
        <ele>271.9</ele>
        <time>2025-03-08T15:40:55Z</time>
      </trkpt>
      <trkpt lat="44.42724" lon="1.35586">
        <ele>272.2</ele>
        <time>2025-03-08T15:40:56Z</time>
      </trkpt>
      <trkpt lat="44.42721" lon="1.35584">
        <ele>272.5</ele>
        <time>2025-03-08T15:40:57Z</time>
      </trkpt>
      <trkpt lat="44.4272" lon="1.35584">
        <ele>272.6</ele>
        <time>2025-03-08T15:40:58Z</time>
      </trkpt>
      <trkpt lat="44.42717" lon="1.35584">
        <ele>273</ele>
        <time>2025-03-08T15:40:59Z</time>
      </trkpt>
      <trkpt lat="44.42716" lon="1.35585">
        <ele>273.2</ele>
        <time>2025-03-08T15:41:00Z</time>
      </trkpt>
      <trkpt lat="44.42712" lon="1.35586">
        <ele>273.5</ele>
        <time>2025-03-08T15:41:01Z</time>
      </trkpt>
      <trkpt lat="44.42711" lon="1.35586">
        <ele>273.6</ele>
        <time>2025-03-08T15:41:02Z</time>
      </trkpt>
      <trkpt lat="44.42709" lon="1.35586">
        <ele>273.8</ele>
        <time>2025-03-08T15:41:03Z</time>
      </trkpt>
      <trkpt lat="44.42708" lon="1.35585">
        <ele>274</ele>
        <time>2025-03-08T15:41:04Z</time>
      </trkpt>
      <trkpt lat="44.42705" lon="1.35583">
        <ele>274.3</ele>
        <time>2025-03-08T15:41:05Z</time>
      </trkpt>
      <trkpt lat="44.42704" lon="1.35583">
        <ele>274.4</ele>
        <time>2025-03-08T15:41:06Z</time>
      </trkpt>
      <trkpt lat="44.42701" lon="1.35581">
        <ele>274.8</ele>
        <time>2025-03-08T15:41:07Z</time>
      </trkpt>
      <trkpt lat="44.427" lon="1.35581">
        <ele>274.9</ele>
        <time>2025-03-08T15:41:08Z</time>
      </trkpt>
      <trkpt lat="44.42697" lon="1.3558">
        <ele>275.2</ele>
        <time>2025-03-08T15:41:09Z</time>
      </trkpt>
      <trkpt lat="44.42696" lon="1.3558">
        <ele>275.3</ele>
        <time>2025-03-08T15:41:10Z</time>
      </trkpt>
      <trkpt lat="44.42693" lon="1.35579">
        <ele>275.6</ele>
        <time>2025-03-08T15:41:11Z</time>
      </trkpt>
      <trkpt lat="44.42692" lon="1.35579">
        <ele>275.7</ele>
        <time>2025-03-08T15:41:12Z</time>
      </trkpt>
      <trkpt lat="44.42689" lon="1.35579">
        <ele>276</ele>
        <time>2025-03-08T15:41:13Z</time>
      </trkpt>
      <trkpt lat="44.42686" lon="1.3558">
        <ele>276.3</ele>
        <time>2025-03-08T15:41:14Z</time>
      </trkpt>
      <trkpt lat="44.42682" lon="1.35581">
        <ele>276.6</ele>
        <time>2025-03-08T15:41:15Z</time>
      </trkpt>
      <trkpt lat="44.42682" lon="1.35581">
        <ele>276.7</ele>
        <time>2025-03-08T15:41:16Z</time>
      </trkpt>
      <trkpt lat="44.42679" lon="1.35581">
        <ele>276.9</ele>
        <time>2025-03-08T15:41:17Z</time>
      </trkpt>
      <trkpt lat="44.42678" lon="1.35581">
        <ele>277</ele>
        <time>2025-03-08T15:41:18Z</time>
      </trkpt>
      <trkpt lat="44.42674" lon="1.35581">
        <ele>277.3</ele>
        <time>2025-03-08T15:41:19Z</time>
      </trkpt>
      <trkpt lat="44.42673" lon="1.35582">
        <ele>277.5</ele>
        <time>2025-03-08T15:41:20Z</time>
      </trkpt>
      <trkpt lat="44.42671" lon="1.35582">
        <ele>277.6</ele>
        <time>2025-03-08T15:41:21Z</time>
      </trkpt>
      <trkpt lat="44.4267" lon="1.35583">
        <ele>277.8</ele>
        <time>2025-03-08T15:41:22Z</time>
      </trkpt>
      <trkpt lat="44.42669" lon="1.35582">
        <ele>277.9</ele>
        <time>2025-03-08T15:41:23Z</time>
      </trkpt>
      <trkpt lat="44.42667" lon="1.35581">
        <ele>278.1</ele>
        <time>2025-03-08T15:41:24Z</time>
      </trkpt>
      <trkpt lat="44.42663" lon="1.35582">
        <ele>278.4</ele>
        <time>2025-03-08T15:41:25Z</time>
      </trkpt>
      <trkpt lat="44.42662" lon="1.35582">
        <ele>278.5</ele>
        <time>2025-03-08T15:41:26Z</time>
      </trkpt>
      <trkpt lat="44.42659" lon="1.35584">
        <ele>278.7</ele>
        <time>2025-03-08T15:41:27Z</time>
      </trkpt>
      <trkpt lat="44.42656" lon="1.35586">
        <ele>278.9</ele>
        <time>2025-03-08T15:41:28Z</time>
      </trkpt>
      <trkpt lat="44.42655" lon="1.35586">
        <ele>278.9</ele>
        <time>2025-03-08T15:41:29Z</time>
      </trkpt>
      <trkpt lat="44.42654" lon="1.35587">
        <ele>279</ele>
        <time>2025-03-08T15:41:30Z</time>
      </trkpt>
      <trkpt lat="44.42652" lon="1.35587">
        <ele>279.1</ele>
        <time>2025-03-08T15:41:31Z</time>
      </trkpt>
      <trkpt lat="44.42651" lon="1.35587">
        <ele>279.1</ele>
        <time>2025-03-08T15:41:32Z</time>
      </trkpt>
      <trkpt lat="44.4265" lon="1.35587">
        <ele>279.1</ele>
        <time>2025-03-08T15:41:33Z</time>
      </trkpt>
      <trkpt lat="44.42649" lon="1.35587">
        <ele>279.1</ele>
        <time>2025-03-08T15:41:34Z</time>
      </trkpt>
      <trkpt lat="44.42648" lon="1.35585">
        <ele>279.1</ele>
        <time>2025-03-08T15:41:35Z</time>
      </trkpt>
      <trkpt lat="44.42647" lon="1.35583">
        <ele>279.1</ele>
        <time>2025-03-08T15:41:36Z</time>
      </trkpt>
      <trkpt lat="44.42644" lon="1.35581">
        <ele>279.1</ele>
        <time>2025-03-08T15:41:37Z</time>
      </trkpt>
      <trkpt lat="44.42643" lon="1.3558">
        <ele>279.1</ele>
        <time>2025-03-08T15:41:38Z</time>
      </trkpt>
      <trkpt lat="44.42642" lon="1.35577">
        <ele>279</ele>
        <time>2025-03-08T15:41:39Z</time>
      </trkpt>
      <trkpt lat="44.42641" lon="1.35576">
        <ele>279</ele>
        <time>2025-03-08T15:41:40Z</time>
      </trkpt>
      <trkpt lat="44.42639" lon="1.35572">
        <ele>278.8</ele>
        <time>2025-03-08T15:41:41Z</time>
      </trkpt>
      <trkpt lat="44.42638" lon="1.3557">
        <ele>278.7</ele>
        <time>2025-03-08T15:41:42Z</time>
      </trkpt>
      <trkpt lat="44.42637" lon="1.35566">
        <ele>278.5</ele>
        <time>2025-03-08T15:41:43Z</time>
      </trkpt>
      <trkpt lat="44.42636" lon="1.35561">
        <ele>278.4</ele>
        <time>2025-03-08T15:41:44Z</time>
      </trkpt>
      <trkpt lat="44.42633" lon="1.35556">
        <ele>278.1</ele>
        <time>2025-03-08T15:41:45Z</time>
      </trkpt>
      <trkpt lat="44.42629" lon="1.35551">
        <ele>278</ele>
        <time>2025-03-08T15:41:46Z</time>
      </trkpt>
      <trkpt lat="44.42624" lon="1.35547">
        <ele>277.8</ele>
        <time>2025-03-08T15:41:47Z</time>
      </trkpt>
      <trkpt lat="44.42619" lon="1.35545">
        <ele>277.8</ele>
        <time>2025-03-08T15:41:48Z</time>
      </trkpt>
      <trkpt lat="44.42615" lon="1.35545">
        <ele>277.9</ele>
        <time>2025-03-08T15:41:49Z</time>
      </trkpt>
      <trkpt lat="44.42611" lon="1.35546">
        <ele>278</ele>
        <time>2025-03-08T15:41:50Z</time>
      </trkpt>
      <trkpt lat="44.42607" lon="1.35546">
        <ele>278.1</ele>
        <time>2025-03-08T15:41:51Z</time>
      </trkpt>
      <trkpt lat="44.42604" lon="1.35547">
        <ele>278.2</ele>
        <time>2025-03-08T15:41:52Z</time>
      </trkpt>
      <trkpt lat="44.42601" lon="1.35548">
        <ele>278.3</ele>
        <time>2025-03-08T15:41:53Z</time>
      </trkpt>
      <trkpt lat="44.42598" lon="1.35548">
        <ele>278.4</ele>
        <time>2025-03-08T15:41:54Z</time>
      </trkpt>
      <trkpt lat="44.42594" lon="1.35547">
        <ele>278.6</ele>
        <time>2025-03-08T15:41:55Z</time>
      </trkpt>
      <trkpt lat="44.4259" lon="1.35546">
        <ele>278.7</ele>
        <time>2025-03-08T15:41:56Z</time>
      </trkpt>
      <trkpt lat="44.42587" lon="1.35546">
        <ele>278.9</ele>
        <time>2025-03-08T15:41:57Z</time>
      </trkpt>
      <trkpt lat="44.42583" lon="1.35546">
        <ele>279.1</ele>
        <time>2025-03-08T15:41:58Z</time>
      </trkpt>
      <trkpt lat="44.4258" lon="1.35547">
        <ele>279.3</ele>
        <time>2025-03-08T15:41:59Z</time>
      </trkpt>
      <trkpt lat="44.42577" lon="1.35548">
        <ele>279.5</ele>
        <time>2025-03-08T15:42:00Z</time>
      </trkpt>
      <trkpt lat="44.42573" lon="1.3555">
        <ele>279.8</ele>
        <time>2025-03-08T15:42:01Z</time>
      </trkpt>
      <trkpt lat="44.4257" lon="1.35552">
        <ele>280.1</ele>
        <time>2025-03-08T15:42:02Z</time>
      </trkpt>
      <trkpt lat="44.42567" lon="1.35554">
        <ele>280.3</ele>
        <time>2025-03-08T15:42:03Z</time>
      </trkpt>
      <trkpt lat="44.42565" lon="1.35558">
        <ele>280.7</ele>
        <time>2025-03-08T15:42:04Z</time>
      </trkpt>
      <trkpt lat="44.42562" lon="1.35561">
        <ele>281</ele>
        <time>2025-03-08T15:42:05Z</time>
      </trkpt>
      <trkpt lat="44.42559" lon="1.35565">
        <ele>281.4</ele>
        <time>2025-03-08T15:42:06Z</time>
      </trkpt>
      <trkpt lat="44.42558" lon="1.35566">
        <ele>281.5</ele>
        <time>2025-03-08T15:42:07Z</time>
      </trkpt>
      <trkpt lat="44.42556" lon="1.35569">
        <ele>281.8</ele>
        <time>2025-03-08T15:42:08Z</time>
      </trkpt>
      <trkpt lat="44.42555" lon="1.35573">
        <ele>282</ele>
        <time>2025-03-08T15:42:09Z</time>
      </trkpt>
      <trkpt lat="44.42554" lon="1.35574">
        <ele>282.1</ele>
        <time>2025-03-08T15:42:10Z</time>
      </trkpt>
      <trkpt lat="44.42552" lon="1.35577">
        <ele>282.2</ele>
        <time>2025-03-08T15:42:11Z</time>
      </trkpt>
      <trkpt lat="44.42551" lon="1.35577">
        <ele>282.3</ele>
        <time>2025-03-08T15:42:12Z</time>
      </trkpt>
      <trkpt lat="44.42548" lon="1.35579">
        <ele>282.4</ele>
        <time>2025-03-08T15:42:13Z</time>
      </trkpt>
      <trkpt lat="44.42547" lon="1.3558">
        <ele>282.5</ele>
        <time>2025-03-08T15:42:14Z</time>
      </trkpt>
      <trkpt lat="44.42545" lon="1.35581">
        <ele>282.5</ele>
        <time>2025-03-08T15:42:15Z</time>
      </trkpt>
      <trkpt lat="44.42544" lon="1.35581">
        <ele>282.5</ele>
        <time>2025-03-08T15:42:16Z</time>
      </trkpt>
      <trkpt lat="44.4254" lon="1.35582">
        <ele>282.6</ele>
        <time>2025-03-08T15:42:17Z</time>
      </trkpt>
      <trkpt lat="44.42538" lon="1.35583">
        <ele>282.6</ele>
        <time>2025-03-08T15:42:18Z</time>
      </trkpt>
      <trkpt lat="44.42536" lon="1.35584">
        <ele>282.6</ele>
        <time>2025-03-08T15:42:19Z</time>
      </trkpt>
      <trkpt lat="44.42533" lon="1.35585">
        <ele>282.6</ele>
        <time>2025-03-08T15:42:20Z</time>
      </trkpt>
      <trkpt lat="44.4253" lon="1.35586">
        <ele>282.6</ele>
        <time>2025-03-08T15:42:21Z</time>
      </trkpt>
      <trkpt lat="44.42527" lon="1.35588">
        <ele>282.5</ele>
        <time>2025-03-08T15:42:22Z</time>
      </trkpt>
      <trkpt lat="44.42524" lon="1.35589">
        <ele>282.5</ele>
        <time>2025-03-08T15:42:23Z</time>
      </trkpt>
      <trkpt lat="44.42521" lon="1.3559">
        <ele>282.4</ele>
        <time>2025-03-08T15:42:24Z</time>
      </trkpt>
      <trkpt lat="44.42519" lon="1.3559">
        <ele>282.4</ele>
        <time>2025-03-08T15:42:25Z</time>
      </trkpt>
      <trkpt lat="44.42516" lon="1.35589">
        <ele>282.4</ele>
        <time>2025-03-08T15:42:26Z</time>
      </trkpt>
      <trkpt lat="44.42513" lon="1.35587">
        <ele>282.4</ele>
        <time>2025-03-08T15:42:27Z</time>
      </trkpt>
      <trkpt lat="44.42508" lon="1.35586">
        <ele>282.4</ele>
        <time>2025-03-08T15:42:28Z</time>
      </trkpt>
      <trkpt lat="44.42504" lon="1.35587">
        <ele>282.5</ele>
        <time>2025-03-08T15:42:29Z</time>
      </trkpt>
      <trkpt lat="44.425" lon="1.35589">
        <ele>282.7</ele>
        <time>2025-03-08T15:42:30Z</time>
      </trkpt>
      <trkpt lat="44.42496" lon="1.35591">
        <ele>282.8</ele>
        <time>2025-03-08T15:42:31Z</time>
      </trkpt>
      <trkpt lat="44.42492" lon="1.35594">
        <ele>283.1</ele>
        <time>2025-03-08T15:42:32Z</time>
      </trkpt>
      <trkpt lat="44.42489" lon="1.35598">
        <ele>283.3</ele>
        <time>2025-03-08T15:42:33Z</time>
      </trkpt>
      <trkpt lat="44.42487" lon="1.35603">
        <ele>283.5</ele>
        <time>2025-03-08T15:42:34Z</time>
      </trkpt>
      <trkpt lat="44.42485" lon="1.35607">
        <ele>283.6</ele>
        <time>2025-03-08T15:42:35Z</time>
      </trkpt>
      <trkpt lat="44.42484" lon="1.35608">
        <ele>283.7</ele>
        <time>2025-03-08T15:42:36Z</time>
      </trkpt>
      <trkpt lat="44.42482" lon="1.35609">
        <ele>283.8</ele>
        <time>2025-03-08T15:42:37Z</time>
      </trkpt>
      <trkpt lat="44.42479" lon="1.35611">
        <ele>283.9</ele>
        <time>2025-03-08T15:42:38Z</time>
      </trkpt>
      <trkpt lat="44.42478" lon="1.35611">
        <ele>283.9</ele>
        <time>2025-03-08T15:42:39Z</time>
      </trkpt>
      <trkpt lat="44.42475" lon="1.35614">
        <ele>284</ele>
        <time>2025-03-08T15:42:40Z</time>
      </trkpt>
      <trkpt lat="44.42474" lon="1.35616">
        <ele>284</ele>
        <time>2025-03-08T15:42:41Z</time>
      </trkpt>
      <trkpt lat="44.42471" lon="1.35618">
        <ele>284</ele>
        <time>2025-03-08T15:42:42Z</time>
      </trkpt>
      <trkpt lat="44.42469" lon="1.3562">
        <ele>284.1</ele>
        <time>2025-03-08T15:42:43Z</time>
      </trkpt>
      <trkpt lat="44.42467" lon="1.35623">
        <ele>284.1</ele>
        <time>2025-03-08T15:42:44Z</time>
      </trkpt>
      <trkpt lat="44.42464" lon="1.35625">
        <ele>284.1</ele>
        <time>2025-03-08T15:42:45Z</time>
      </trkpt>
      <trkpt lat="44.42461" lon="1.35627">
        <ele>284</ele>
        <time>2025-03-08T15:42:46Z</time>
      </trkpt>
      <trkpt lat="44.4246" lon="1.35628">
        <ele>284</ele>
        <time>2025-03-08T15:42:47Z</time>
      </trkpt>
      <trkpt lat="44.42457" lon="1.3563">
        <ele>283.9</ele>
        <time>2025-03-08T15:42:48Z</time>
      </trkpt>
      <trkpt lat="44.42456" lon="1.35631">
        <ele>283.8</ele>
        <time>2025-03-08T15:42:49Z</time>
      </trkpt>
      <trkpt lat="44.42453" lon="1.35632">
        <ele>283.7</ele>
        <time>2025-03-08T15:42:50Z</time>
      </trkpt>
      <trkpt lat="44.4245" lon="1.35633">
        <ele>283.6</ele>
        <time>2025-03-08T15:42:51Z</time>
      </trkpt>
      <trkpt lat="44.42447" lon="1.35635">
        <ele>283.4</ele>
        <time>2025-03-08T15:42:52Z</time>
      </trkpt>
      <trkpt lat="44.42446" lon="1.35635">
        <ele>283.4</ele>
        <time>2025-03-08T15:42:53Z</time>
      </trkpt>
      <trkpt lat="44.42442" lon="1.35634">
        <ele>283.1</ele>
        <time>2025-03-08T15:42:54Z</time>
      </trkpt>
      <trkpt lat="44.4244" lon="1.35634">
        <ele>283</ele>
        <time>2025-03-08T15:42:55Z</time>
      </trkpt>
      <trkpt lat="44.42435" lon="1.35635">
        <ele>282.8</ele>
        <time>2025-03-08T15:42:56Z</time>
      </trkpt>
      <trkpt lat="44.42431" lon="1.35637">
        <ele>282.6</ele>
        <time>2025-03-08T15:42:57Z</time>
      </trkpt>
      <trkpt lat="44.42427" lon="1.35638">
        <ele>282.4</ele>
        <time>2025-03-08T15:42:58Z</time>
      </trkpt>
      <trkpt lat="44.42422" lon="1.35639">
        <ele>282.2</ele>
        <time>2025-03-08T15:42:59Z</time>
      </trkpt>
      <trkpt lat="44.42417" lon="1.35641">
        <ele>282.1</ele>
        <time>2025-03-08T15:43:00Z</time>
      </trkpt>
      <trkpt lat="44.42412" lon="1.35645">
        <ele>282.3</ele>
        <time>2025-03-08T15:43:01Z</time>
      </trkpt>
      <trkpt lat="44.42409" lon="1.35649">
        <ele>282.4</ele>
        <time>2025-03-08T15:43:02Z</time>
      </trkpt>
      <trkpt lat="44.42406" lon="1.35652">
        <ele>282.5</ele>
        <time>2025-03-08T15:43:03Z</time>
      </trkpt>
      <trkpt lat="44.42403" lon="1.35655">
        <ele>282.6</ele>
        <time>2025-03-08T15:43:04Z</time>
      </trkpt>
      <trkpt lat="44.424" lon="1.35657">
        <ele>282.8</ele>
        <time>2025-03-08T15:43:05Z</time>
      </trkpt>
      <trkpt lat="44.42398" lon="1.3566">
        <ele>282.9</ele>
        <time>2025-03-08T15:43:06Z</time>
      </trkpt>
      <trkpt lat="44.42395" lon="1.35663">
        <ele>283.1</ele>
        <time>2025-03-08T15:43:07Z</time>
      </trkpt>
      <trkpt lat="44.42392" lon="1.35666">
        <ele>283.4</ele>
        <time>2025-03-08T15:43:08Z</time>
      </trkpt>
      <trkpt lat="44.42389" lon="1.35671">
        <ele>283.8</ele>
        <time>2025-03-08T15:43:09Z</time>
      </trkpt>
      <trkpt lat="44.42386" lon="1.35675">
        <ele>284.2</ele>
        <time>2025-03-08T15:43:10Z</time>
      </trkpt>
      <trkpt lat="44.42385" lon="1.35679">
        <ele>284.5</ele>
        <time>2025-03-08T15:43:11Z</time>
      </trkpt>
      <trkpt lat="44.42384" lon="1.35681">
        <ele>284.7</ele>
        <time>2025-03-08T15:43:12Z</time>
      </trkpt>
      <trkpt lat="44.42382" lon="1.35682">
        <ele>284.8</ele>
        <time>2025-03-08T15:43:13Z</time>
      </trkpt>
      <trkpt lat="44.42381" lon="1.35687">
        <ele>285.2</ele>
        <time>2025-03-08T15:43:14Z</time>
      </trkpt>
      <trkpt lat="44.4238" lon="1.35688">
        <ele>285.3</ele>
        <time>2025-03-08T15:43:15Z</time>
      </trkpt>
      <trkpt lat="44.42379" lon="1.35692">
        <ele>285.5</ele>
        <time>2025-03-08T15:43:16Z</time>
      </trkpt>
      <trkpt lat="44.42379" lon="1.35696">
        <ele>285.7</ele>
        <time>2025-03-08T15:43:17Z</time>
      </trkpt>
      <trkpt lat="44.4238" lon="1.357">
        <ele>286</ele>
        <time>2025-03-08T15:43:18Z</time>
      </trkpt>
      <trkpt lat="44.4238" lon="1.35702">
        <ele>286</ele>
        <time>2025-03-08T15:43:19Z</time>
      </trkpt>
      <trkpt lat="44.42381" lon="1.35706">
        <ele>286.3</ele>
        <time>2025-03-08T15:43:20Z</time>
      </trkpt>
      <trkpt lat="44.42382" lon="1.35707">
        <ele>286.3</ele>
        <time>2025-03-08T15:43:21Z</time>
      </trkpt>
      <trkpt lat="44.42383" lon="1.35711">
        <ele>286.5</ele>
        <time>2025-03-08T15:43:22Z</time>
      </trkpt>
      <trkpt lat="44.42383" lon="1.35712">
        <ele>286.6</ele>
        <time>2025-03-08T15:43:23Z</time>
      </trkpt>
      <trkpt lat="44.42385" lon="1.35715">
        <ele>286.7</ele>
        <time>2025-03-08T15:43:24Z</time>
      </trkpt>
      <trkpt lat="44.42385" lon="1.35716">
        <ele>286.8</ele>
        <time>2025-03-08T15:43:25Z</time>
      </trkpt>
      <trkpt lat="44.42386" lon="1.35718">
        <ele>286.9</ele>
        <time>2025-03-08T15:43:26Z</time>
      </trkpt>
      <trkpt lat="44.42386" lon="1.35721">
        <ele>287</ele>
        <time>2025-03-08T15:43:27Z</time>
      </trkpt>
      <trkpt lat="44.42387" lon="1.35723">
        <ele>287.1</ele>
        <time>2025-03-08T15:43:28Z</time>
      </trkpt>
      <trkpt lat="44.42387" lon="1.35725">
        <ele>287.1</ele>
        <time>2025-03-08T15:43:29Z</time>
      </trkpt>
      <trkpt lat="44.42388" lon="1.35727">
        <ele>287.2</ele>
        <time>2025-03-08T15:43:30Z</time>
      </trkpt>
      <trkpt lat="44.42388" lon="1.3573">
        <ele>287.2</ele>
        <time>2025-03-08T15:43:31Z</time>
      </trkpt>
      <trkpt lat="44.42389" lon="1.35732">
        <ele>287.3</ele>
        <time>2025-03-08T15:43:32Z</time>
      </trkpt>
      <trkpt lat="44.42389" lon="1.35734">
        <ele>287.3</ele>
        <time>2025-03-08T15:43:33Z</time>
      </trkpt>
      <trkpt lat="44.42389" lon="1.35736">
        <ele>287.3</ele>
        <time>2025-03-08T15:43:34Z</time>
      </trkpt>
      <trkpt lat="44.42388" lon="1.35738">
        <ele>287.3</ele>
        <time>2025-03-08T15:43:35Z</time>
      </trkpt>
      <trkpt lat="44.42387" lon="1.3574">
        <ele>287.4</ele>
        <time>2025-03-08T15:43:36Z</time>
      </trkpt>
      <trkpt lat="44.42386" lon="1.35742">
        <ele>287.4</ele>
        <time>2025-03-08T15:43:37Z</time>
      </trkpt>
      <trkpt lat="44.42383" lon="1.35744">
        <ele>287.4</ele>
        <time>2025-03-08T15:43:38Z</time>
      </trkpt>
      <trkpt lat="44.42382" lon="1.35744">
        <ele>287.3</ele>
        <time>2025-03-08T15:43:39Z</time>
      </trkpt>
      <trkpt lat="44.42379" lon="1.35745">
        <ele>287.3</ele>
        <time>2025-03-08T15:43:40Z</time>
      </trkpt>
      <trkpt lat="44.42376" lon="1.35748">
        <ele>287.3</ele>
        <time>2025-03-08T15:43:41Z</time>
      </trkpt>
      <trkpt lat="44.42374" lon="1.3575">
        <ele>287.2</ele>
        <time>2025-03-08T15:43:42Z</time>
      </trkpt>
      <trkpt lat="44.42371" lon="1.35752">
        <ele>287.2</ele>
        <time>2025-03-08T15:43:43Z</time>
      </trkpt>
      <trkpt lat="44.42368" lon="1.35754">
        <ele>287.1</ele>
        <time>2025-03-08T15:43:44Z</time>
      </trkpt>
      <trkpt lat="44.42365" lon="1.35756">
        <ele>287.1</ele>
        <time>2025-03-08T15:43:45Z</time>
      </trkpt>
      <trkpt lat="44.42362" lon="1.3576">
        <ele>287</ele>
        <time>2025-03-08T15:43:46Z</time>
      </trkpt>
      <trkpt lat="44.42362" lon="1.35764">
        <ele>286.9</ele>
        <time>2025-03-08T15:43:47Z</time>
      </trkpt>
      <trkpt lat="44.42362" lon="1.35768">
        <ele>286.9</ele>
        <time>2025-03-08T15:43:48Z</time>
      </trkpt>
      <trkpt lat="44.42362" lon="1.35771">
        <ele>286.8</ele>
        <time>2025-03-08T15:43:49Z</time>
      </trkpt>
      <trkpt lat="44.42361" lon="1.35772">
        <ele>286.8</ele>
        <time>2025-03-08T15:43:50Z</time>
      </trkpt>
      <trkpt lat="44.42357" lon="1.35775">
        <ele>286.6</ele>
        <time>2025-03-08T15:43:51Z</time>
      </trkpt>
      <trkpt lat="44.42355" lon="1.35776">
        <ele>286.6</ele>
        <time>2025-03-08T15:43:52Z</time>
      </trkpt>
      <trkpt lat="44.42353" lon="1.35778">
        <ele>286.5</ele>
        <time>2025-03-08T15:43:53Z</time>
      </trkpt>
      <trkpt lat="44.42349" lon="1.35778">
        <ele>286.4</ele>
        <time>2025-03-08T15:43:54Z</time>
      </trkpt>
      <trkpt lat="44.42345" lon="1.35779">
        <ele>286.3</ele>
        <time>2025-03-08T15:43:55Z</time>
      </trkpt>
      <trkpt lat="44.42341" lon="1.35781">
        <ele>286.2</ele>
        <time>2025-03-08T15:43:56Z</time>
      </trkpt>
      <trkpt lat="44.42339" lon="1.35785">
        <ele>286.1</ele>
        <time>2025-03-08T15:43:57Z</time>
      </trkpt>
      <trkpt lat="44.42336" lon="1.35788">
        <ele>286</ele>
        <time>2025-03-08T15:43:58Z</time>
      </trkpt>
      <trkpt lat="44.42332" lon="1.35791">
        <ele>285.9</ele>
        <time>2025-03-08T15:43:59Z</time>
      </trkpt>
      <trkpt lat="44.42329" lon="1.35795">
        <ele>285.8</ele>
        <time>2025-03-08T15:44:00Z</time>
      </trkpt>
      <trkpt lat="44.42326" lon="1.35799">
        <ele>285.8</ele>
        <time>2025-03-08T15:44:01Z</time>
      </trkpt>
      <trkpt lat="44.42323" lon="1.35803">
        <ele>285.7</ele>
        <time>2025-03-08T15:44:02Z</time>
      </trkpt>
      <trkpt lat="44.42321" lon="1.35808">
        <ele>285.7</ele>
        <time>2025-03-08T15:44:03Z</time>
      </trkpt>
      <trkpt lat="44.4232" lon="1.35812">
        <ele>285.7</ele>
        <time>2025-03-08T15:44:04Z</time>
      </trkpt>
      <trkpt lat="44.42319" lon="1.35817">
        <ele>285.8</ele>
        <time>2025-03-08T15:44:05Z</time>
      </trkpt>
      <trkpt lat="44.42318" lon="1.35818">
        <ele>285.8</ele>
        <time>2025-03-08T15:44:06Z</time>
      </trkpt>
      <trkpt lat="44.42315" lon="1.35822">
        <ele>285.8</ele>
        <time>2025-03-08T15:44:07Z</time>
      </trkpt>
      <trkpt lat="44.42314" lon="1.35823">
        <ele>285.8</ele>
        <time>2025-03-08T15:44:08Z</time>
      </trkpt>
      <trkpt lat="44.42312" lon="1.35826">
        <ele>285.8</ele>
        <time>2025-03-08T15:44:09Z</time>
      </trkpt>
      <trkpt lat="44.42309" lon="1.35827">
        <ele>285.8</ele>
        <time>2025-03-08T15:44:10Z</time>
      </trkpt>
      <trkpt lat="44.42305" lon="1.35829">
        <ele>285.8</ele>
        <time>2025-03-08T15:44:11Z</time>
      </trkpt>
      <trkpt lat="44.42302" lon="1.35832">
        <ele>285.9</ele>
        <time>2025-03-08T15:44:12Z</time>
      </trkpt>
      <trkpt lat="44.423" lon="1.35836">
        <ele>285.9</ele>
        <time>2025-03-08T15:44:13Z</time>
      </trkpt>
      <trkpt lat="44.42297" lon="1.3584">
        <ele>285.9</ele>
        <time>2025-03-08T15:44:14Z</time>
      </trkpt>
      <trkpt lat="44.42294" lon="1.35843">
        <ele>286</ele>
        <time>2025-03-08T15:44:15Z</time>
      </trkpt>
      <trkpt lat="44.42293" lon="1.35844">
        <ele>286</ele>
        <time>2025-03-08T15:44:16Z</time>
      </trkpt>
      <trkpt lat="44.42291" lon="1.35847">
        <ele>286.1</ele>
        <time>2025-03-08T15:44:17Z</time>
      </trkpt>
      <trkpt lat="44.42289" lon="1.35849">
        <ele>286.1</ele>
        <time>2025-03-08T15:44:18Z</time>
      </trkpt>
      <trkpt lat="44.42288" lon="1.35852">
        <ele>286.1</ele>
        <time>2025-03-08T15:44:19Z</time>
      </trkpt>
      <trkpt lat="44.42288" lon="1.35854">
        <ele>286.2</ele>
        <time>2025-03-08T15:44:20Z</time>
      </trkpt>
      <trkpt lat="44.42284" lon="1.35856">
        <ele>286.2</ele>
        <time>2025-03-08T15:44:21Z</time>
      </trkpt>
      <trkpt lat="44.42283" lon="1.35857">
        <ele>286.3</ele>
        <time>2025-03-08T15:44:22Z</time>
      </trkpt>
      <trkpt lat="44.4228" lon="1.35859">
        <ele>286.3</ele>
        <time>2025-03-08T15:44:23Z</time>
      </trkpt>
      <trkpt lat="44.42276" lon="1.35861">
        <ele>286.4</ele>
        <time>2025-03-08T15:44:24Z</time>
      </trkpt>
      <trkpt lat="44.42273" lon="1.35863">
        <ele>286.5</ele>
        <time>2025-03-08T15:44:25Z</time>
      </trkpt>
      <trkpt lat="44.4227" lon="1.35867">
        <ele>286.7</ele>
        <time>2025-03-08T15:44:26Z</time>
      </trkpt>
      <trkpt lat="44.42268" lon="1.35871">
        <ele>286.8</ele>
        <time>2025-03-08T15:44:27Z</time>
      </trkpt>
      <trkpt lat="44.42265" lon="1.35875">
        <ele>287.1</ele>
        <time>2025-03-08T15:44:28Z</time>
      </trkpt>
      <trkpt lat="44.42264" lon="1.3588">
        <ele>287.3</ele>
        <time>2025-03-08T15:44:29Z</time>
      </trkpt>
      <trkpt lat="44.42262" lon="1.35884">
        <ele>287.4</ele>
        <time>2025-03-08T15:44:30Z</time>
      </trkpt>
      <trkpt lat="44.42262" lon="1.35888">
        <ele>287.6</ele>
        <time>2025-03-08T15:44:31Z</time>
      </trkpt>
      <trkpt lat="44.4226" lon="1.35891">
        <ele>287.7</ele>
        <time>2025-03-08T15:44:32Z</time>
      </trkpt>
      <trkpt lat="44.42259" lon="1.35892">
        <ele>287.8</ele>
        <time>2025-03-08T15:44:33Z</time>
      </trkpt>
      <trkpt lat="44.42255" lon="1.35894">
        <ele>288</ele>
        <time>2025-03-08T15:44:34Z</time>
      </trkpt>
      <trkpt lat="44.42253" lon="1.35895">
        <ele>288.1</ele>
        <time>2025-03-08T15:44:35Z</time>
      </trkpt>
      <trkpt lat="44.42248" lon="1.35897">
        <ele>288.3</ele>
        <time>2025-03-08T15:44:36Z</time>
      </trkpt>
      <trkpt lat="44.42245" lon="1.359">
        <ele>288.4</ele>
        <time>2025-03-08T15:44:37Z</time>
      </trkpt>
      <trkpt lat="44.42243" lon="1.35903">
        <ele>288.6</ele>
        <time>2025-03-08T15:44:38Z</time>
      </trkpt>
      <trkpt lat="44.4224" lon="1.35906">
        <ele>288.8</ele>
        <time>2025-03-08T15:44:39Z</time>
      </trkpt>
      <trkpt lat="44.42237" lon="1.35909">
        <ele>289</ele>
        <time>2025-03-08T15:44:40Z</time>
      </trkpt>
      <trkpt lat="44.42235" lon="1.35912">
        <ele>289.2</ele>
        <time>2025-03-08T15:44:41Z</time>
      </trkpt>
      <trkpt lat="44.42233" lon="1.35916">
        <ele>289.5</ele>
        <time>2025-03-08T15:44:42Z</time>
      </trkpt>
      <trkpt lat="44.42232" lon="1.35917">
        <ele>289.6</ele>
        <time>2025-03-08T15:44:43Z</time>
      </trkpt>
      <trkpt lat="44.4223" lon="1.3592">
        <ele>289.8</ele>
        <time>2025-03-08T15:44:44Z</time>
      </trkpt>
      <trkpt lat="44.42228" lon="1.35922">
        <ele>290</ele>
        <time>2025-03-08T15:44:45Z</time>
      </trkpt>
      <trkpt lat="44.42226" lon="1.35925">
        <ele>290.2</ele>
        <time>2025-03-08T15:44:46Z</time>
      </trkpt>
      <trkpt lat="44.42223" lon="1.35928">
        <ele>290.5</ele>
        <time>2025-03-08T15:44:47Z</time>
      </trkpt>
      <trkpt lat="44.42223" lon="1.35929">
        <ele>290.6</ele>
        <time>2025-03-08T15:44:48Z</time>
      </trkpt>
      <trkpt lat="44.4222" lon="1.35932">
        <ele>290.9</ele>
        <time>2025-03-08T15:44:49Z</time>
      </trkpt>
      <trkpt lat="44.42219" lon="1.35933">
        <ele>291</ele>
        <time>2025-03-08T15:44:50Z</time>
      </trkpt>
      <trkpt lat="44.42216" lon="1.35936">
        <ele>291.2</ele>
        <time>2025-03-08T15:44:51Z</time>
      </trkpt>
      <trkpt lat="44.42215" lon="1.35936">
        <ele>291.3</ele>
        <time>2025-03-08T15:44:52Z</time>
      </trkpt>
      <trkpt lat="44.42212" lon="1.35939">
        <ele>291.6</ele>
        <time>2025-03-08T15:44:53Z</time>
      </trkpt>
      <trkpt lat="44.42211" lon="1.3594">
        <ele>291.7</ele>
        <time>2025-03-08T15:44:54Z</time>
      </trkpt>
      <trkpt lat="44.4221" lon="1.35942">
        <ele>291.9</ele>
        <time>2025-03-08T15:44:55Z</time>
      </trkpt>
      <trkpt lat="44.42209" lon="1.35944">
        <ele>292</ele>
        <time>2025-03-08T15:44:56Z</time>
      </trkpt>
      <trkpt lat="44.42206" lon="1.35945">
        <ele>292.2</ele>
        <time>2025-03-08T15:44:57Z</time>
      </trkpt>
      <trkpt lat="44.42205" lon="1.35945">
        <ele>292.3</ele>
        <time>2025-03-08T15:44:58Z</time>
      </trkpt>
      <trkpt lat="44.42202" lon="1.35947">
        <ele>292.6</ele>
        <time>2025-03-08T15:44:59Z</time>
      </trkpt>
      <trkpt lat="44.42201" lon="1.35948">
        <ele>292.7</ele>
        <time>2025-03-08T15:45:00Z</time>
      </trkpt>
      <trkpt lat="44.42198" lon="1.3595">
        <ele>292.9</ele>
        <time>2025-03-08T15:45:01Z</time>
      </trkpt>
      <trkpt lat="44.42197" lon="1.35951">
        <ele>293</ele>
        <time>2025-03-08T15:45:02Z</time>
      </trkpt>
      <trkpt lat="44.42195" lon="1.35955">
        <ele>293.3</ele>
        <time>2025-03-08T15:45:03Z</time>
      </trkpt>
      <trkpt lat="44.42194" lon="1.35956">
        <ele>293.4</ele>
        <time>2025-03-08T15:45:04Z</time>
      </trkpt>
      <trkpt lat="44.42193" lon="1.35958">
        <ele>293.5</ele>
        <time>2025-03-08T15:45:05Z</time>
      </trkpt>
      <trkpt lat="44.42191" lon="1.35959">
        <ele>293.7</ele>
        <time>2025-03-08T15:45:06Z</time>
      </trkpt>
      <trkpt lat="44.42187" lon="1.3596">
        <ele>293.9</ele>
        <time>2025-03-08T15:45:07Z</time>
      </trkpt>
      <trkpt lat="44.42186" lon="1.35961">
        <ele>294</ele>
        <time>2025-03-08T15:45:08Z</time>
      </trkpt>
      <trkpt lat="44.42183" lon="1.35963">
        <ele>294.3</ele>
        <time>2025-03-08T15:45:09Z</time>
      </trkpt>
      <trkpt lat="44.42182" lon="1.35963">
        <ele>294.3</ele>
        <time>2025-03-08T15:45:10Z</time>
      </trkpt>
      <trkpt lat="44.4218" lon="1.35964">
        <ele>294.4</ele>
        <time>2025-03-08T15:45:11Z</time>
      </trkpt>
      <trkpt lat="44.42178" lon="1.35964">
        <ele>294.6</ele>
        <time>2025-03-08T15:45:12Z</time>
      </trkpt>
      <trkpt lat="44.42175" lon="1.35966">
        <ele>294.8</ele>
        <time>2025-03-08T15:45:13Z</time>
      </trkpt>
      <trkpt lat="44.42173" lon="1.35966">
        <ele>294.9</ele>
        <time>2025-03-08T15:45:14Z</time>
      </trkpt>
      <trkpt lat="44.42172" lon="1.35967">
        <ele>295</ele>
        <time>2025-03-08T15:45:15Z</time>
      </trkpt>
      <trkpt lat="44.4217" lon="1.35968">
        <ele>295.1</ele>
        <time>2025-03-08T15:45:16Z</time>
      </trkpt>
      <trkpt lat="44.42167" lon="1.35967">
        <ele>295.3</ele>
        <time>2025-03-08T15:45:17Z</time>
      </trkpt>
      <trkpt lat="44.42166" lon="1.35967">
        <ele>295.3</ele>
        <time>2025-03-08T15:45:18Z</time>
      </trkpt>
      <trkpt lat="44.42163" lon="1.35966">
        <ele>295.5</ele>
        <time>2025-03-08T15:45:19Z</time>
      </trkpt>
      <trkpt lat="44.4216" lon="1.35966">
        <ele>295.7</ele>
        <time>2025-03-08T15:45:20Z</time>
      </trkpt>
      <trkpt lat="44.42157" lon="1.35967">
        <ele>295.9</ele>
        <time>2025-03-08T15:45:21Z</time>
      </trkpt>
      <trkpt lat="44.42153" lon="1.35969">
        <ele>296.2</ele>
        <time>2025-03-08T15:45:22Z</time>
      </trkpt>
      <trkpt lat="44.4215" lon="1.3597">
        <ele>296.4</ele>
        <time>2025-03-08T15:45:23Z</time>
      </trkpt>
      <trkpt lat="44.42149" lon="1.3597">
        <ele>296.5</ele>
        <time>2025-03-08T15:45:24Z</time>
      </trkpt>
      <trkpt lat="44.42146" lon="1.3597">
        <ele>296.8</ele>
        <time>2025-03-08T15:45:25Z</time>
      </trkpt>
      <trkpt lat="44.42145" lon="1.3597">
        <ele>296.9</ele>
        <time>2025-03-08T15:45:26Z</time>
      </trkpt>
      <trkpt lat="44.42141" lon="1.3597">
        <ele>297.2</ele>
        <time>2025-03-08T15:45:27Z</time>
      </trkpt>
      <trkpt lat="44.4214" lon="1.35969">
        <ele>297.3</ele>
        <time>2025-03-08T15:45:28Z</time>
      </trkpt>
      <trkpt lat="44.42136" lon="1.35969">
        <ele>297.7</ele>
        <time>2025-03-08T15:45:29Z</time>
      </trkpt>
      <trkpt lat="44.42132" lon="1.35971">
        <ele>298</ele>
        <time>2025-03-08T15:45:30Z</time>
      </trkpt>
      <trkpt lat="44.4213" lon="1.35973">
        <ele>298.2</ele>
        <time>2025-03-08T15:45:31Z</time>
      </trkpt>
      <trkpt lat="44.42129" lon="1.35974">
        <ele>298.3</ele>
        <time>2025-03-08T15:45:32Z</time>
      </trkpt>
      <trkpt lat="44.42127" lon="1.35974">
        <ele>298.5</ele>
        <time>2025-03-08T15:45:33Z</time>
      </trkpt>
      <trkpt lat="44.42126" lon="1.35974">
        <ele>298.6</ele>
        <time>2025-03-08T15:45:34Z</time>
      </trkpt>
      <trkpt lat="44.42125" lon="1.35974">
        <ele>298.6</ele>
        <time>2025-03-08T15:45:35Z</time>
      </trkpt>
      <trkpt lat="44.42122" lon="1.35975">
        <ele>298.8</ele>
        <time>2025-03-08T15:45:36Z</time>
      </trkpt>
      <trkpt lat="44.42118" lon="1.35976">
        <ele>299.1</ele>
        <time>2025-03-08T15:45:37Z</time>
      </trkpt>
      <trkpt lat="44.42116" lon="1.35978">
        <ele>299.3</ele>
        <time>2025-03-08T15:45:38Z</time>
      </trkpt>
      <trkpt lat="44.42114" lon="1.3598">
        <ele>299.4</ele>
        <time>2025-03-08T15:45:39Z</time>
      </trkpt>
      <trkpt lat="44.42113" lon="1.35981">
        <ele>299.5</ele>
        <time>2025-03-08T15:45:40Z</time>
      </trkpt>
      <trkpt lat="44.42112" lon="1.35981">
        <ele>299.6</ele>
        <time>2025-03-08T15:45:41Z</time>
      </trkpt>
      <trkpt lat="44.4211" lon="1.3598">
        <ele>299.7</ele>
        <time>2025-03-08T15:45:42Z</time>
      </trkpt>
      <trkpt lat="44.42107" lon="1.3598">
        <ele>299.9</ele>
        <time>2025-03-08T15:45:43Z</time>
      </trkpt>
      <trkpt lat="44.42105" lon="1.35981">
        <ele>300</ele>
        <time>2025-03-08T15:45:44Z</time>
      </trkpt>
      <trkpt lat="44.42102" lon="1.35982">
        <ele>300.2</ele>
        <time>2025-03-08T15:45:45Z</time>
      </trkpt>
      <trkpt lat="44.42101" lon="1.35983">
        <ele>300.3</ele>
        <time>2025-03-08T15:45:46Z</time>
      </trkpt>
      <trkpt lat="44.42098" lon="1.35985">
        <ele>300.5</ele>
        <time>2025-03-08T15:45:47Z</time>
      </trkpt>
      <trkpt lat="44.42097" lon="1.35985">
        <ele>300.5</ele>
        <time>2025-03-08T15:45:48Z</time>
      </trkpt>
      <trkpt lat="44.42094" lon="1.35987">
        <ele>300.7</ele>
        <time>2025-03-08T15:45:49Z</time>
      </trkpt>
      <trkpt lat="44.42092" lon="1.35989">
        <ele>300.8</ele>
        <time>2025-03-08T15:45:50Z</time>
      </trkpt>
      <trkpt lat="44.42091" lon="1.3599">
        <ele>300.8</ele>
        <time>2025-03-08T15:45:51Z</time>
      </trkpt>
      <trkpt lat="44.4209" lon="1.35992">
        <ele>300.9</ele>
        <time>2025-03-08T15:45:52Z</time>
      </trkpt>
      <trkpt lat="44.42089" lon="1.35993">
        <ele>300.9</ele>
        <time>2025-03-08T15:45:53Z</time>
      </trkpt>
      <trkpt lat="44.42087" lon="1.35993">
        <ele>301</ele>
        <time>2025-03-08T15:45:54Z</time>
      </trkpt>
      <trkpt lat="44.42086" lon="1.35993">
        <ele>301</ele>
        <time>2025-03-08T15:45:55Z</time>
      </trkpt>
      <trkpt lat="44.42085" lon="1.35993">
        <ele>301</ele>
        <time>2025-03-08T15:45:56Z</time>
      </trkpt>
      <trkpt lat="44.42082" lon="1.35992">
        <ele>301.1</ele>
        <time>2025-03-08T15:45:57Z</time>
      </trkpt>
      <trkpt lat="44.42081" lon="1.35991">
        <ele>301.1</ele>
        <time>2025-03-08T15:45:58Z</time>
      </trkpt>
      <trkpt lat="44.42078" lon="1.35991">
        <ele>301.1</ele>
        <time>2025-03-08T15:45:59Z</time>
      </trkpt>
      <trkpt lat="44.42074" lon="1.35992">
        <ele>301</ele>
        <time>2025-03-08T15:46:00Z</time>
      </trkpt>
      <trkpt lat="44.42073" lon="1.35992">
        <ele>301</ele>
        <time>2025-03-08T15:46:01Z</time>
      </trkpt>
      <trkpt lat="44.4207" lon="1.35993">
        <ele>301</ele>
        <time>2025-03-08T15:46:02Z</time>
      </trkpt>
      <trkpt lat="44.42068" lon="1.35993">
        <ele>300.9</ele>
        <time>2025-03-08T15:46:03Z</time>
      </trkpt>
      <trkpt lat="44.42067" lon="1.35994">
        <ele>300.9</ele>
        <time>2025-03-08T15:46:04Z</time>
      </trkpt>
      <trkpt lat="44.42065" lon="1.35994">
        <ele>300.8</ele>
        <time>2025-03-08T15:46:05Z</time>
      </trkpt>
      <trkpt lat="44.42064" lon="1.35993">
        <ele>300.8</ele>
        <time>2025-03-08T15:46:06Z</time>
      </trkpt>
      <trkpt lat="44.42064" lon="1.35991">
        <ele>300.7</ele>
        <time>2025-03-08T15:46:07Z</time>
      </trkpt>
      <trkpt lat="44.42062" lon="1.35987">
        <ele>300.5</ele>
        <time>2025-03-08T15:46:08Z</time>
      </trkpt>
      <trkpt lat="44.42062" lon="1.35985">
        <ele>300.5</ele>
        <time>2025-03-08T15:46:09Z</time>
      </trkpt>
      <trkpt lat="44.4206" lon="1.35981">
        <ele>300.3</ele>
        <time>2025-03-08T15:46:10Z</time>
      </trkpt>
      <trkpt lat="44.42058" lon="1.35978">
        <ele>300</ele>
        <time>2025-03-08T15:46:11Z</time>
      </trkpt>
      <trkpt lat="44.42056" lon="1.35974">
        <ele>299.7</ele>
        <time>2025-03-08T15:46:12Z</time>
      </trkpt>
      <trkpt lat="44.42052" lon="1.3597">
        <ele>299.4</ele>
        <time>2025-03-08T15:46:13Z</time>
      </trkpt>
      <trkpt lat="44.42048" lon="1.35967">
        <ele>299.7</ele>
        <time>2025-03-08T15:46:14Z</time>
      </trkpt>
      <trkpt lat="44.42043" lon="1.35966">
        <ele>300</ele>
        <time>2025-03-08T15:46:15Z</time>
      </trkpt>
      <trkpt lat="44.42038" lon="1.35966">
        <ele>300.5</ele>
        <time>2025-03-08T15:46:16Z</time>
      </trkpt>
      <trkpt lat="44.42034" lon="1.35966">
        <ele>300.8</ele>
        <time>2025-03-08T15:46:17Z</time>
      </trkpt>
      <trkpt lat="44.42032" lon="1.35967">
        <ele>301.2</ele>
        <time>2025-03-08T15:46:18Z</time>
      </trkpt>
      <trkpt lat="44.42031" lon="1.35967">
        <ele>301.3</ele>
        <time>2025-03-08T15:46:19Z</time>
      </trkpt>
      <trkpt lat="44.42029" lon="1.35971">
        <ele>301.9</ele>
        <time>2025-03-08T15:46:20Z</time>
      </trkpt>
      <trkpt lat="44.42029" lon="1.35973">
        <ele>302.1</ele>
        <time>2025-03-08T15:46:21Z</time>
      </trkpt>
      <trkpt lat="44.42028" lon="1.35977">
        <ele>302.8</ele>
        <time>2025-03-08T15:46:22Z</time>
      </trkpt>
      <trkpt lat="44.42028" lon="1.35979">
        <ele>302.9</ele>
        <time>2025-03-08T15:46:23Z</time>
      </trkpt>
      <trkpt lat="44.42027" lon="1.35983">
        <ele>303.3</ele>
        <time>2025-03-08T15:46:24Z</time>
      </trkpt>
      <trkpt lat="44.42027" lon="1.35984">
        <ele>303.4</ele>
        <time>2025-03-08T15:46:25Z</time>
      </trkpt>
      <trkpt lat="44.42027" lon="1.35988">
        <ele>303.8</ele>
        <time>2025-03-08T15:46:26Z</time>
      </trkpt>
      <trkpt lat="44.42027" lon="1.3599">
        <ele>303.9</ele>
        <time>2025-03-08T15:46:27Z</time>
      </trkpt>
      <trkpt lat="44.42026" lon="1.35992">
        <ele>304.4</ele>
        <time>2025-03-08T15:46:28Z</time>
      </trkpt>
      <trkpt lat="44.42026" lon="1.35994">
        <ele>304.5</ele>
        <time>2025-03-08T15:46:29Z</time>
      </trkpt>
      <trkpt lat="44.42026" lon="1.35997">
        <ele>304.8</ele>
        <time>2025-03-08T15:46:30Z</time>
      </trkpt>
      <trkpt lat="44.42026" lon="1.35999">
        <ele>305</ele>
        <time>2025-03-08T15:46:31Z</time>
      </trkpt>
      <trkpt lat="44.42025" lon="1.36001">
        <ele>305.3</ele>
        <time>2025-03-08T15:46:32Z</time>
      </trkpt>
      <trkpt lat="44.42025" lon="1.36003">
        <ele>305.4</ele>
        <time>2025-03-08T15:46:33Z</time>
      </trkpt>
      <trkpt lat="44.42025" lon="1.36006">
        <ele>305.7</ele>
        <time>2025-03-08T15:46:34Z</time>
      </trkpt>
      <trkpt lat="44.42024" lon="1.36008">
        <ele>306</ele>
        <time>2025-03-08T15:46:35Z</time>
      </trkpt>
      <trkpt lat="44.42024" lon="1.3601">
        <ele>306.2</ele>
        <time>2025-03-08T15:46:36Z</time>
      </trkpt>
      <trkpt lat="44.42024" lon="1.36013">
        <ele>306.5</ele>
        <time>2025-03-08T15:46:37Z</time>
      </trkpt>
      <trkpt lat="44.42024" lon="1.36015">
        <ele>306.6</ele>
        <time>2025-03-08T15:46:38Z</time>
      </trkpt>
      <trkpt lat="44.42024" lon="1.36017">
        <ele>307</ele>
        <time>2025-03-08T15:46:39Z</time>
      </trkpt>
      <trkpt lat="44.42024" lon="1.3602">
        <ele>307.1</ele>
        <time>2025-03-08T15:46:40Z</time>
      </trkpt>
      <trkpt lat="44.42025" lon="1.36022">
        <ele>307.4</ele>
        <time>2025-03-08T15:46:41Z</time>
      </trkpt>
      <trkpt lat="44.42025" lon="1.36024">
        <ele>307.5</ele>
        <time>2025-03-08T15:46:42Z</time>
      </trkpt>
      <trkpt lat="44.42025" lon="1.36026">
        <ele>307.9</ele>
        <time>2025-03-08T15:46:43Z</time>
      </trkpt>
      <trkpt lat="44.42024" lon="1.36028">
        <ele>308</ele>
        <time>2025-03-08T15:46:44Z</time>
      </trkpt>
      <trkpt lat="44.42023" lon="1.3603">
        <ele>308.1</ele>
        <time>2025-03-08T15:46:45Z</time>
      </trkpt>
      <trkpt lat="44.42021" lon="1.36031">
        <ele>308.1</ele>
        <time>2025-03-08T15:46:46Z</time>
      </trkpt>
      <trkpt lat="44.4202" lon="1.36032">
        <ele>308.2</ele>
        <time>2025-03-08T15:46:47Z</time>
      </trkpt>
      <trkpt lat="44.42018" lon="1.36035">
        <ele>308.3</ele>
        <time>2025-03-08T15:46:48Z</time>
      </trkpt>
      <trkpt lat="44.42017" lon="1.36036">
        <ele>308.3</ele>
        <time>2025-03-08T15:46:49Z</time>
      </trkpt>
      <trkpt lat="44.42016" lon="1.36037">
        <ele>308.4</ele>
        <time>2025-03-08T15:46:50Z</time>
      </trkpt>
      <trkpt lat="44.42014" lon="1.36038">
        <ele>308.5</ele>
        <time>2025-03-08T15:46:51Z</time>
      </trkpt>
      <trkpt lat="44.42013" lon="1.3604">
        <ele>308.5</ele>
        <time>2025-03-08T15:46:52Z</time>
      </trkpt>
      <trkpt lat="44.42011" lon="1.36041">
        <ele>308.6</ele>
        <time>2025-03-08T15:46:53Z</time>
      </trkpt>
      <trkpt lat="44.42009" lon="1.36043">
        <ele>308.7</ele>
        <time>2025-03-08T15:46:54Z</time>
      </trkpt>
      <trkpt lat="44.42008" lon="1.36044">
        <ele>308.7</ele>
        <time>2025-03-08T15:46:55Z</time>
      </trkpt>
      <trkpt lat="44.42005" lon="1.36047">
        <ele>308.8</ele>
        <time>2025-03-08T15:46:56Z</time>
      </trkpt>
      <trkpt lat="44.42004" lon="1.36047">
        <ele>308.8</ele>
        <time>2025-03-08T15:46:57Z</time>
      </trkpt>
      <trkpt lat="44.42001" lon="1.3605">
        <ele>308.9</ele>
        <time>2025-03-08T15:46:58Z</time>
      </trkpt>
      <trkpt lat="44.42" lon="1.36051">
        <ele>308.9</ele>
        <time>2025-03-08T15:46:59Z</time>
      </trkpt>
      <trkpt lat="44.41997" lon="1.36053">
        <ele>309</ele>
        <time>2025-03-08T15:47:00Z</time>
      </trkpt>
      <trkpt lat="44.41996" lon="1.36054">
        <ele>309</ele>
        <time>2025-03-08T15:47:01Z</time>
      </trkpt>
      <trkpt lat="44.41993" lon="1.36057">
        <ele>309.1</ele>
        <time>2025-03-08T15:47:02Z</time>
      </trkpt>
      <trkpt lat="44.41992" lon="1.36057">
        <ele>309.1</ele>
        <time>2025-03-08T15:47:03Z</time>
      </trkpt>
      <trkpt lat="44.41989" lon="1.3606">
        <ele>309.2</ele>
        <time>2025-03-08T15:47:04Z</time>
      </trkpt>
      <trkpt lat="44.41986" lon="1.36063">
        <ele>309.3</ele>
        <time>2025-03-08T15:47:05Z</time>
      </trkpt>
      <trkpt lat="44.41985" lon="1.36063">
        <ele>309.3</ele>
        <time>2025-03-08T15:47:06Z</time>
      </trkpt>
      <trkpt lat="44.41982" lon="1.36065">
        <ele>309.4</ele>
        <time>2025-03-08T15:47:07Z</time>
      </trkpt>
      <trkpt lat="44.41981" lon="1.36066">
        <ele>309.4</ele>
        <time>2025-03-08T15:47:08Z</time>
      </trkpt>
      <trkpt lat="44.41977" lon="1.36069">
        <ele>309.5</ele>
        <time>2025-03-08T15:47:09Z</time>
      </trkpt>
      <trkpt lat="44.41976" lon="1.3607">
        <ele>309.5</ele>
        <time>2025-03-08T15:47:10Z</time>
      </trkpt>
      <trkpt lat="44.41973" lon="1.36072">
        <ele>309.6</ele>
        <time>2025-03-08T15:47:11Z</time>
      </trkpt>
      <trkpt lat="44.4197" lon="1.36073">
        <ele>309.7</ele>
        <time>2025-03-08T15:47:12Z</time>
      </trkpt>
      <trkpt lat="44.41969" lon="1.36074">
        <ele>309.8</ele>
        <time>2025-03-08T15:47:13Z</time>
      </trkpt>
      <trkpt lat="44.41965" lon="1.36075">
        <ele>309.9</ele>
        <time>2025-03-08T15:47:14Z</time>
      </trkpt>
      <trkpt lat="44.41964" lon="1.36076">
        <ele>309.9</ele>
        <time>2025-03-08T15:47:15Z</time>
      </trkpt>
      <trkpt lat="44.41961" lon="1.36079">
        <ele>310</ele>
        <time>2025-03-08T15:47:16Z</time>
      </trkpt>
      <trkpt lat="44.41958" lon="1.3608">
        <ele>310.2</ele>
        <time>2025-03-08T15:47:17Z</time>
      </trkpt>
      <trkpt lat="44.41955" lon="1.36081">
        <ele>310.3</ele>
        <time>2025-03-08T15:47:18Z</time>
      </trkpt>
      <trkpt lat="44.41953" lon="1.36082">
        <ele>310.4</ele>
        <time>2025-03-08T15:47:19Z</time>
      </trkpt>
      <trkpt lat="44.4195" lon="1.36083">
        <ele>310.5</ele>
        <time>2025-03-08T15:47:20Z</time>
      </trkpt>
      <trkpt lat="44.41947" lon="1.36085">
        <ele>310.7</ele>
        <time>2025-03-08T15:47:21Z</time>
      </trkpt>
      <trkpt lat="44.41944" lon="1.36087">
        <ele>310.9</ele>
        <time>2025-03-08T15:47:22Z</time>
      </trkpt>
      <trkpt lat="44.41942" lon="1.36088">
        <ele>311</ele>
        <time>2025-03-08T15:47:23Z</time>
      </trkpt>
      <trkpt lat="44.41939" lon="1.3609">
        <ele>311.2</ele>
        <time>2025-03-08T15:47:24Z</time>
      </trkpt>
      <trkpt lat="44.41935" lon="1.36092">
        <ele>311.4</ele>
        <time>2025-03-08T15:47:25Z</time>
      </trkpt>
      <trkpt lat="44.41934" lon="1.36092">
        <ele>311.4</ele>
        <time>2025-03-08T15:47:26Z</time>
      </trkpt>
      <trkpt lat="44.4193" lon="1.36094">
        <ele>311.7</ele>
        <time>2025-03-08T15:47:27Z</time>
      </trkpt>
      <trkpt lat="44.41929" lon="1.36094">
        <ele>311.7</ele>
        <time>2025-03-08T15:47:28Z</time>
      </trkpt>
      <trkpt lat="44.41927" lon="1.36096">
        <ele>311.9</ele>
        <time>2025-03-08T15:47:29Z</time>
      </trkpt>
      <trkpt lat="44.41923" lon="1.36098">
        <ele>312.1</ele>
        <time>2025-03-08T15:47:30Z</time>
      </trkpt>
      <trkpt lat="44.41921" lon="1.36098">
        <ele>312.1</ele>
        <time>2025-03-08T15:47:31Z</time>
      </trkpt>
      <trkpt lat="44.41919" lon="1.36099">
        <ele>312.3</ele>
        <time>2025-03-08T15:47:32Z</time>
      </trkpt>
      <trkpt lat="44.41915" lon="1.361">
        <ele>312.4</ele>
        <time>2025-03-08T15:47:33Z</time>
      </trkpt>
      <trkpt lat="44.41913" lon="1.36101">
        <ele>312.5</ele>
        <time>2025-03-08T15:47:34Z</time>
      </trkpt>
      <trkpt lat="44.41911" lon="1.36102">
        <ele>312.6</ele>
        <time>2025-03-08T15:47:35Z</time>
      </trkpt>
      <trkpt lat="44.41908" lon="1.36102">
        <ele>312.7</ele>
        <time>2025-03-08T15:47:36Z</time>
      </trkpt>
      <trkpt lat="44.41905" lon="1.36103">
        <ele>312.7</ele>
        <time>2025-03-08T15:47:37Z</time>
      </trkpt>
      <trkpt lat="44.41902" lon="1.36104">
        <ele>312.8</ele>
        <time>2025-03-08T15:47:38Z</time>
      </trkpt>
      <trkpt lat="44.41898" lon="1.36105">
        <ele>312.9</ele>
        <time>2025-03-08T15:47:39Z</time>
      </trkpt>
      <trkpt lat="44.41897" lon="1.36105">
        <ele>312.9</ele>
        <time>2025-03-08T15:47:40Z</time>
      </trkpt>
      <trkpt lat="44.41893" lon="1.36106">
        <ele>313</ele>
        <time>2025-03-08T15:47:41Z</time>
      </trkpt>
      <trkpt lat="44.41892" lon="1.36106">
        <ele>313</ele>
        <time>2025-03-08T15:47:42Z</time>
      </trkpt>
      <trkpt lat="44.41889" lon="1.36107">
        <ele>313.1</ele>
        <time>2025-03-08T15:47:43Z</time>
      </trkpt>
      <trkpt lat="44.41886" lon="1.36108">
        <ele>313.1</ele>
        <time>2025-03-08T15:47:44Z</time>
      </trkpt>
      <trkpt lat="44.41883" lon="1.36109">
        <ele>313.2</ele>
        <time>2025-03-08T15:47:45Z</time>
      </trkpt>
      <trkpt lat="44.41881" lon="1.3611">
        <ele>313.2</ele>
        <time>2025-03-08T15:47:46Z</time>
      </trkpt>
      <trkpt lat="44.41878" lon="1.36111">
        <ele>313.2</ele>
        <time>2025-03-08T15:47:47Z</time>
      </trkpt>
      <trkpt lat="44.41875" lon="1.36111">
        <ele>313.2</ele>
        <time>2025-03-08T15:47:48Z</time>
      </trkpt>
      <trkpt lat="44.41871" lon="1.36112">
        <ele>313.1</ele>
        <time>2025-03-08T15:47:49Z</time>
      </trkpt>
      <trkpt lat="44.41869" lon="1.36113">
        <ele>313.1</ele>
        <time>2025-03-08T15:47:50Z</time>
      </trkpt>
      <trkpt lat="44.41867" lon="1.36113">
        <ele>313.1</ele>
        <time>2025-03-08T15:47:51Z</time>
      </trkpt>
      <trkpt lat="44.41864" lon="1.36114">
        <ele>313</ele>
        <time>2025-03-08T15:47:52Z</time>
      </trkpt>
      <trkpt lat="44.41861" lon="1.36115">
        <ele>313</ele>
        <time>2025-03-08T15:47:53Z</time>
      </trkpt>
      <trkpt lat="44.41857" lon="1.36116">
        <ele>312.9</ele>
        <time>2025-03-08T15:47:54Z</time>
      </trkpt>
      <trkpt lat="44.41854" lon="1.36118">
        <ele>312.8</ele>
        <time>2025-03-08T15:47:55Z</time>
      </trkpt>
      <trkpt lat="44.4185" lon="1.36119">
        <ele>312.8</ele>
        <time>2025-03-08T15:47:56Z</time>
      </trkpt>
      <trkpt lat="44.41847" lon="1.3612">
        <ele>312.7</ele>
        <time>2025-03-08T15:47:57Z</time>
      </trkpt>
      <trkpt lat="44.41843" lon="1.36121">
        <ele>312.6</ele>
        <time>2025-03-08T15:47:58Z</time>
      </trkpt>
      <trkpt lat="44.4184" lon="1.36122">
        <ele>312.6</ele>
        <time>2025-03-08T15:47:59Z</time>
      </trkpt>
      <trkpt lat="44.41836" lon="1.36123">
        <ele>312.5</ele>
        <time>2025-03-08T15:48:00Z</time>
      </trkpt>
      <trkpt lat="44.41833" lon="1.36123">
        <ele>312.4</ele>
        <time>2025-03-08T15:48:01Z</time>
      </trkpt>
      <trkpt lat="44.41829" lon="1.36124">
        <ele>312.4</ele>
        <time>2025-03-08T15:48:02Z</time>
      </trkpt>
      <trkpt lat="44.41825" lon="1.36124">
        <ele>312.3</ele>
        <time>2025-03-08T15:48:03Z</time>
      </trkpt>
      <trkpt lat="44.41822" lon="1.36124">
        <ele>312.3</ele>
        <time>2025-03-08T15:48:04Z</time>
      </trkpt>
      <trkpt lat="44.41818" lon="1.36124">
        <ele>312.3</ele>
        <time>2025-03-08T15:48:05Z</time>
      </trkpt>
      <trkpt lat="44.41815" lon="1.36124">
        <ele>312.3</ele>
        <time>2025-03-08T15:48:06Z</time>
      </trkpt>
      <trkpt lat="44.41812" lon="1.36124">
        <ele>312.3</ele>
        <time>2025-03-08T15:48:07Z</time>
      </trkpt>
      <trkpt lat="44.41809" lon="1.36124">
        <ele>312.2</ele>
        <time>2025-03-08T15:48:08Z</time>
      </trkpt>
      <trkpt lat="44.41806" lon="1.36124">
        <ele>312.2</ele>
        <time>2025-03-08T15:48:09Z</time>
      </trkpt>
      <trkpt lat="44.41803" lon="1.36124">
        <ele>312.2</ele>
        <time>2025-03-08T15:48:10Z</time>
      </trkpt>
      <trkpt lat="44.418" lon="1.36124">
        <ele>312.2</ele>
        <time>2025-03-08T15:48:11Z</time>
      </trkpt>
      <trkpt lat="44.41797" lon="1.36124">
        <ele>312.2</ele>
        <time>2025-03-08T15:48:12Z</time>
      </trkpt>
      <trkpt lat="44.41794" lon="1.36124">
        <ele>312.3</ele>
        <time>2025-03-08T15:48:13Z</time>
      </trkpt>
      <trkpt lat="44.41791" lon="1.36124">
        <ele>312.3</ele>
        <time>2025-03-08T15:48:14Z</time>
      </trkpt>
      <trkpt lat="44.41788" lon="1.36123">
        <ele>312.3</ele>
        <time>2025-03-08T15:48:15Z</time>
      </trkpt>
      <trkpt lat="44.41785" lon="1.36123">
        <ele>312.3</ele>
        <time>2025-03-08T15:48:16Z</time>
      </trkpt>
      <trkpt lat="44.41781" lon="1.36123">
        <ele>312.3</ele>
        <time>2025-03-08T15:48:17Z</time>
      </trkpt>
      <trkpt lat="44.41778" lon="1.36123">
        <ele>312.3</ele>
        <time>2025-03-08T15:48:18Z</time>
      </trkpt>
      <trkpt lat="44.41774" lon="1.36124">
        <ele>312.3</ele>
        <time>2025-03-08T15:48:19Z</time>
      </trkpt>
      <trkpt lat="44.41771" lon="1.36124">
        <ele>312.3</ele>
        <time>2025-03-08T15:48:20Z</time>
      </trkpt>
      <trkpt lat="44.41768" lon="1.36123">
        <ele>312.3</ele>
        <time>2025-03-08T15:48:21Z</time>
      </trkpt>
      <trkpt lat="44.41765" lon="1.36123">
        <ele>312.3</ele>
        <time>2025-03-08T15:48:22Z</time>
      </trkpt>
      <trkpt lat="44.41761" lon="1.36123">
        <ele>312.3</ele>
        <time>2025-03-08T15:48:23Z</time>
      </trkpt>
      <trkpt lat="44.41758" lon="1.36123">
        <ele>312.3</ele>
        <time>2025-03-08T15:48:24Z</time>
      </trkpt>
      <trkpt lat="44.41754" lon="1.36123">
        <ele>312.3</ele>
        <time>2025-03-08T15:48:25Z</time>
      </trkpt>
      <trkpt lat="44.4175" lon="1.36122">
        <ele>312.3</ele>
        <time>2025-03-08T15:48:26Z</time>
      </trkpt>
      <trkpt lat="44.41747" lon="1.36122">
        <ele>312.3</ele>
        <time>2025-03-08T15:48:27Z</time>
      </trkpt>
      <trkpt lat="44.41743" lon="1.36122">
        <ele>312.3</ele>
        <time>2025-03-08T15:48:28Z</time>
      </trkpt>
      <trkpt lat="44.4174" lon="1.36123">
        <ele>312.3</ele>
        <time>2025-03-08T15:48:29Z</time>
      </trkpt>
      <trkpt lat="44.41737" lon="1.36123">
        <ele>312.2</ele>
        <time>2025-03-08T15:48:30Z</time>
      </trkpt>
      <trkpt lat="44.41733" lon="1.36123">
        <ele>312.2</ele>
        <time>2025-03-08T15:48:31Z</time>
      </trkpt>
      <trkpt lat="44.4173" lon="1.36123">
        <ele>312.2</ele>
        <time>2025-03-08T15:48:32Z</time>
      </trkpt>
      <trkpt lat="44.41727" lon="1.36124">
        <ele>312.2</ele>
        <time>2025-03-08T15:48:33Z</time>
      </trkpt>
      <trkpt lat="44.41723" lon="1.36125">
        <ele>312.1</ele>
        <time>2025-03-08T15:48:34Z</time>
      </trkpt>
      <trkpt lat="44.41718" lon="1.36126">
        <ele>312.1</ele>
        <time>2025-03-08T15:48:35Z</time>
      </trkpt>
      <trkpt lat="44.41715" lon="1.36128">
        <ele>312.1</ele>
        <time>2025-03-08T15:48:36Z</time>
      </trkpt>
      <trkpt lat="44.41711" lon="1.36129">
        <ele>312</ele>
        <time>2025-03-08T15:48:37Z</time>
      </trkpt>
      <trkpt lat="44.41708" lon="1.3613">
        <ele>312</ele>
        <time>2025-03-08T15:48:38Z</time>
      </trkpt>
      <trkpt lat="44.41705" lon="1.36131">
        <ele>312</ele>
        <time>2025-03-08T15:48:39Z</time>
      </trkpt>
      <trkpt lat="44.41701" lon="1.36133">
        <ele>312</ele>
        <time>2025-03-08T15:48:40Z</time>
      </trkpt>
      <trkpt lat="44.41698" lon="1.36134">
        <ele>312</ele>
        <time>2025-03-08T15:48:41Z</time>
      </trkpt>
      <trkpt lat="44.41695" lon="1.36136">
        <ele>312</ele>
        <time>2025-03-08T15:48:42Z</time>
      </trkpt>
      <trkpt lat="44.41691" lon="1.36138">
        <ele>312</ele>
        <time>2025-03-08T15:48:43Z</time>
      </trkpt>
      <trkpt lat="44.41687" lon="1.3614">
        <ele>312</ele>
        <time>2025-03-08T15:48:44Z</time>
      </trkpt>
      <trkpt lat="44.41684" lon="1.36142">
        <ele>312</ele>
        <time>2025-03-08T15:48:45Z</time>
      </trkpt>
      <trkpt lat="44.41681" lon="1.36144">
        <ele>312</ele>
        <time>2025-03-08T15:48:46Z</time>
      </trkpt>
      <trkpt lat="44.41678" lon="1.36145">
        <ele>312</ele>
        <time>2025-03-08T15:48:47Z</time>
      </trkpt>
      <trkpt lat="44.41674" lon="1.36147">
        <ele>312</ele>
        <time>2025-03-08T15:48:48Z</time>
      </trkpt>
      <trkpt lat="44.41671" lon="1.36149">
        <ele>312</ele>
        <time>2025-03-08T15:48:49Z</time>
      </trkpt>
      <trkpt lat="44.41667" lon="1.36151">
        <ele>312</ele>
        <time>2025-03-08T15:48:50Z</time>
      </trkpt>
      <trkpt lat="44.41664" lon="1.36154">
        <ele>312.1</ele>
        <time>2025-03-08T15:48:51Z</time>
      </trkpt>
      <trkpt lat="44.41661" lon="1.36156">
        <ele>312.1</ele>
        <time>2025-03-08T15:48:52Z</time>
      </trkpt>
      <trkpt lat="44.41658" lon="1.36157">
        <ele>312.2</ele>
        <time>2025-03-08T15:48:53Z</time>
      </trkpt>
      <trkpt lat="44.41655" lon="1.3616">
        <ele>312.2</ele>
        <time>2025-03-08T15:48:54Z</time>
      </trkpt>
      <trkpt lat="44.41652" lon="1.36162">
        <ele>312.3</ele>
        <time>2025-03-08T15:48:55Z</time>
      </trkpt>
      <trkpt lat="44.4165" lon="1.36164">
        <ele>312.3</ele>
        <time>2025-03-08T15:48:56Z</time>
      </trkpt>
      <trkpt lat="44.41646" lon="1.36166">
        <ele>312.4</ele>
        <time>2025-03-08T15:48:57Z</time>
      </trkpt>
      <trkpt lat="44.41643" lon="1.36169">
        <ele>312.5</ele>
        <time>2025-03-08T15:48:58Z</time>
      </trkpt>
      <trkpt lat="44.4164" lon="1.36171">
        <ele>312.6</ele>
        <time>2025-03-08T15:48:59Z</time>
      </trkpt>
      <trkpt lat="44.41637" lon="1.36173">
        <ele>312.7</ele>
        <time>2025-03-08T15:49:00Z</time>
      </trkpt>
      <trkpt lat="44.41634" lon="1.36174">
        <ele>312.7</ele>
        <time>2025-03-08T15:49:01Z</time>
      </trkpt>
      <trkpt lat="44.4163" lon="1.36176">
        <ele>312.8</ele>
        <time>2025-03-08T15:49:02Z</time>
      </trkpt>
      <trkpt lat="44.41628" lon="1.36178">
        <ele>312.9</ele>
        <time>2025-03-08T15:49:03Z</time>
      </trkpt>
      <trkpt lat="44.41625" lon="1.3618">
        <ele>313</ele>
        <time>2025-03-08T15:49:04Z</time>
      </trkpt>
      <trkpt lat="44.41621" lon="1.36182">
        <ele>313.1</ele>
        <time>2025-03-08T15:49:05Z</time>
      </trkpt>
      <trkpt lat="44.41618" lon="1.36185">
        <ele>313.3</ele>
        <time>2025-03-08T15:49:06Z</time>
      </trkpt>
      <trkpt lat="44.41615" lon="1.36187">
        <ele>313.4</ele>
        <time>2025-03-08T15:49:07Z</time>
      </trkpt>
      <trkpt lat="44.41612" lon="1.36189">
        <ele>313.5</ele>
        <time>2025-03-08T15:49:08Z</time>
      </trkpt>
      <trkpt lat="44.41609" lon="1.36191">
        <ele>313.7</ele>
        <time>2025-03-08T15:49:09Z</time>
      </trkpt>
      <trkpt lat="44.41606" lon="1.36193">
        <ele>313.8</ele>
        <time>2025-03-08T15:49:10Z</time>
      </trkpt>
      <trkpt lat="44.41602" lon="1.36196">
        <ele>314</ele>
        <time>2025-03-08T15:49:11Z</time>
      </trkpt>
      <trkpt lat="44.41599" lon="1.36198">
        <ele>314.1</ele>
        <time>2025-03-08T15:49:12Z</time>
      </trkpt>
      <trkpt lat="44.41596" lon="1.36201">
        <ele>314.3</ele>
        <time>2025-03-08T15:49:13Z</time>
      </trkpt>
      <trkpt lat="44.41593" lon="1.36203">
        <ele>314.5</ele>
        <time>2025-03-08T15:49:14Z</time>
      </trkpt>
      <trkpt lat="44.4159" lon="1.36205">
        <ele>314.7</ele>
        <time>2025-03-08T15:49:15Z</time>
      </trkpt>
      <trkpt lat="44.41588" lon="1.36207">
        <ele>314.8</ele>
        <time>2025-03-08T15:49:16Z</time>
      </trkpt>
      <trkpt lat="44.41585" lon="1.36209">
        <ele>315</ele>
        <time>2025-03-08T15:49:17Z</time>
      </trkpt>
      <trkpt lat="44.41582" lon="1.36211">
        <ele>315.2</ele>
        <time>2025-03-08T15:49:18Z</time>
      </trkpt>
      <trkpt lat="44.41579" lon="1.36213">
        <ele>315.4</ele>
        <time>2025-03-08T15:49:19Z</time>
      </trkpt>
      <trkpt lat="44.41576" lon="1.36215">
        <ele>315.6</ele>
        <time>2025-03-08T15:49:20Z</time>
      </trkpt>
      <trkpt lat="44.41573" lon="1.36218">
        <ele>315.8</ele>
        <time>2025-03-08T15:49:21Z</time>
      </trkpt>
      <trkpt lat="44.41571" lon="1.3622">
        <ele>316</ele>
        <time>2025-03-08T15:49:22Z</time>
      </trkpt>
      <trkpt lat="44.41568" lon="1.36222">
        <ele>316.2</ele>
        <time>2025-03-08T15:49:23Z</time>
      </trkpt>
      <trkpt lat="44.41564" lon="1.36224">
        <ele>316.5</ele>
        <time>2025-03-08T15:49:24Z</time>
      </trkpt>
      <trkpt lat="44.41563" lon="1.36225">
        <ele>316.6</ele>
        <time>2025-03-08T15:49:25Z</time>
      </trkpt>
      <trkpt lat="44.4156" lon="1.36227">
        <ele>316.8</ele>
        <time>2025-03-08T15:49:26Z</time>
      </trkpt>
      <trkpt lat="44.41557" lon="1.36229">
        <ele>317</ele>
        <time>2025-03-08T15:49:27Z</time>
      </trkpt>
      <trkpt lat="44.41554" lon="1.3623">
        <ele>317.2</ele>
        <time>2025-03-08T15:49:28Z</time>
      </trkpt>
      <trkpt lat="44.41551" lon="1.36232">
        <ele>317.4</ele>
        <time>2025-03-08T15:49:29Z</time>
      </trkpt>
      <trkpt lat="44.41548" lon="1.36233">
        <ele>317.6</ele>
        <time>2025-03-08T15:49:30Z</time>
      </trkpt>
      <trkpt lat="44.41545" lon="1.36234">
        <ele>317.8</ele>
        <time>2025-03-08T15:49:31Z</time>
      </trkpt>
      <trkpt lat="44.41542" lon="1.36236">
        <ele>318</ele>
        <time>2025-03-08T15:49:32Z</time>
      </trkpt>
      <trkpt lat="44.41539" lon="1.36237">
        <ele>318.2</ele>
        <time>2025-03-08T15:49:33Z</time>
      </trkpt>
      <trkpt lat="44.41536" lon="1.36238">
        <ele>318.4</ele>
        <time>2025-03-08T15:49:34Z</time>
      </trkpt>
      <trkpt lat="44.41534" lon="1.3624">
        <ele>318.6</ele>
        <time>2025-03-08T15:49:35Z</time>
      </trkpt>
      <trkpt lat="44.41531" lon="1.36241">
        <ele>318.9</ele>
        <time>2025-03-08T15:49:36Z</time>
      </trkpt>
      <trkpt lat="44.41528" lon="1.36242">
        <ele>319.1</ele>
        <time>2025-03-08T15:49:37Z</time>
      </trkpt>
      <trkpt lat="44.41527" lon="1.36242">
        <ele>319.1</ele>
        <time>2025-03-08T15:49:38Z</time>
      </trkpt>
      <trkpt lat="44.41524" lon="1.3624">
        <ele>319</ele>
        <time>2025-03-08T15:49:39Z</time>
      </trkpt>
      <trkpt lat="44.41523" lon="1.3624">
        <ele>318.9</ele>
        <time>2025-03-08T15:49:40Z</time>
      </trkpt>
      <trkpt lat="44.41522" lon="1.36236">
        <ele>318.8</ele>
        <time>2025-03-08T15:49:41Z</time>
      </trkpt>
      <trkpt lat="44.41521" lon="1.36234">
        <ele>318.7</ele>
        <time>2025-03-08T15:49:42Z</time>
      </trkpt>
      <trkpt lat="44.4152" lon="1.3623">
        <ele>318.5</ele>
        <time>2025-03-08T15:49:43Z</time>
      </trkpt>
      <trkpt lat="44.41519" lon="1.36229">
        <ele>318.5</ele>
        <time>2025-03-08T15:49:44Z</time>
      </trkpt>
      <trkpt lat="44.41517" lon="1.36225">
        <ele>318.3</ele>
        <time>2025-03-08T15:49:45Z</time>
      </trkpt>
      <trkpt lat="44.41514" lon="1.36222">
        <ele>318</ele>
        <time>2025-03-08T15:49:46Z</time>
      </trkpt>
      <trkpt lat="44.41512" lon="1.36219">
        <ele>317.8</ele>
        <time>2025-03-08T15:49:47Z</time>
      </trkpt>
      <trkpt lat="44.4151" lon="1.36215">
        <ele>317.6</ele>
        <time>2025-03-08T15:49:48Z</time>
      </trkpt>
      <trkpt lat="44.41508" lon="1.36212">
        <ele>317.3</ele>
        <time>2025-03-08T15:49:49Z</time>
      </trkpt>
      <trkpt lat="44.41506" lon="1.36209">
        <ele>317</ele>
        <time>2025-03-08T15:49:50Z</time>
      </trkpt>
      <trkpt lat="44.41505" lon="1.36205">
        <ele>316.7</ele>
        <time>2025-03-08T15:49:51Z</time>
      </trkpt>
      <trkpt lat="44.41502" lon="1.36202">
        <ele>316.3</ele>
        <time>2025-03-08T15:49:52Z</time>
      </trkpt>
      <trkpt lat="44.41499" lon="1.362">
        <ele>315.9</ele>
        <time>2025-03-08T15:49:53Z</time>
      </trkpt>
      <trkpt lat="44.41496" lon="1.36199">
        <ele>315.4</ele>
        <time>2025-03-08T15:49:54Z</time>
      </trkpt>
      <trkpt lat="44.41492" lon="1.36198">
        <ele>314.8</ele>
        <time>2025-03-08T15:49:55Z</time>
      </trkpt>
      <trkpt lat="44.41487" lon="1.36196">
        <ele>313.9</ele>
        <time>2025-03-08T15:49:56Z</time>
      </trkpt>
      <trkpt lat="44.41483" lon="1.36193">
        <ele>313</ele>
        <time>2025-03-08T15:49:57Z</time>
      </trkpt>
      <trkpt lat="44.41479" lon="1.3619">
        <ele>312.1</ele>
        <time>2025-03-08T15:49:58Z</time>
      </trkpt>
      <trkpt lat="44.41474" lon="1.36188">
        <ele>311.1</ele>
        <time>2025-03-08T15:49:59Z</time>
      </trkpt>
      <trkpt lat="44.41467" lon="1.36188">
        <ele>309.8</ele>
        <time>2025-03-08T15:50:00Z</time>
      </trkpt>
      <trkpt lat="44.41459" lon="1.36188">
        <ele>308.4</ele>
        <time>2025-03-08T15:50:01Z</time>
      </trkpt>
      <trkpt lat="44.41451" lon="1.36188">
        <ele>307.4</ele>
        <time>2025-03-08T15:50:02Z</time>
      </trkpt>
      <trkpt lat="44.41443" lon="1.36188">
        <ele>306.8</ele>
        <time>2025-03-08T15:50:03Z</time>
      </trkpt>
      <trkpt lat="44.41436" lon="1.36188">
        <ele>306.5</ele>
        <time>2025-03-08T15:50:04Z</time>
      </trkpt>
      <trkpt lat="44.4143" lon="1.36186">
        <ele>306.6</ele>
        <time>2025-03-08T15:50:05Z</time>
      </trkpt>
      <trkpt lat="44.41424" lon="1.36184">
        <ele>306.7</ele>
        <time>2025-03-08T15:50:06Z</time>
      </trkpt>
      <trkpt lat="44.4142" lon="1.36181">
        <ele>307</ele>
        <time>2025-03-08T15:50:07Z</time>
      </trkpt>
      <trkpt lat="44.41416" lon="1.36179">
        <ele>307.3</ele>
        <time>2025-03-08T15:50:08Z</time>
      </trkpt>
      <trkpt lat="44.41413" lon="1.36177">
        <ele>307.6</ele>
        <time>2025-03-08T15:50:09Z</time>
      </trkpt>
      <trkpt lat="44.41411" lon="1.36175">
        <ele>307.9</ele>
        <time>2025-03-08T15:50:10Z</time>
      </trkpt>
      <trkpt lat="44.4141" lon="1.36175">
        <ele>307.9</ele>
        <time>2025-03-08T15:50:11Z</time>
      </trkpt>
      <trkpt lat="44.41409" lon="1.36171">
        <ele>308.2</ele>
        <time>2025-03-08T15:50:12Z</time>
      </trkpt>
      <trkpt lat="44.41408" lon="1.3617">
        <ele>308.4</ele>
        <time>2025-03-08T15:50:13Z</time>
      </trkpt>
      <trkpt lat="44.41406" lon="1.36166">
        <ele>308.8</ele>
        <time>2025-03-08T15:50:14Z</time>
      </trkpt>
      <trkpt lat="44.41405" lon="1.36164">
        <ele>309</ele>
        <time>2025-03-08T15:50:15Z</time>
      </trkpt>
      <trkpt lat="44.41404" lon="1.36161">
        <ele>309.3</ele>
        <time>2025-03-08T15:50:16Z</time>
      </trkpt>
      <trkpt lat="44.41402" lon="1.36156">
        <ele>309.7</ele>
        <time>2025-03-08T15:50:17Z</time>
      </trkpt>
      <trkpt lat="44.41402" lon="1.36155">
        <ele>309.8</ele>
        <time>2025-03-08T15:50:18Z</time>
      </trkpt>
      <trkpt lat="44.41402" lon="1.36152">
        <ele>310</ele>
        <time>2025-03-08T15:50:19Z</time>
      </trkpt>
      <trkpt lat="44.41401" lon="1.36151">
        <ele>310.2</ele>
        <time>2025-03-08T15:50:20Z</time>
      </trkpt>
      <trkpt lat="44.41401" lon="1.36148">
        <ele>310.4</ele>
        <time>2025-03-08T15:50:21Z</time>
      </trkpt>
      <trkpt lat="44.41401" lon="1.36146">
        <ele>310.5</ele>
        <time>2025-03-08T15:50:22Z</time>
      </trkpt>
      <trkpt lat="44.41402" lon="1.36142">
        <ele>310.8</ele>
        <time>2025-03-08T15:50:23Z</time>
      </trkpt>
      <trkpt lat="44.41402" lon="1.36141">
        <ele>310.9</ele>
        <time>2025-03-08T15:50:24Z</time>
      </trkpt>
      <trkpt lat="44.41403" lon="1.36137">
        <ele>311.2</ele>
        <time>2025-03-08T15:50:25Z</time>
      </trkpt>
      <trkpt lat="44.41403" lon="1.36136">
        <ele>311.3</ele>
        <time>2025-03-08T15:50:26Z</time>
      </trkpt>
      <trkpt lat="44.41403" lon="1.36132">
        <ele>311.5</ele>
        <time>2025-03-08T15:50:27Z</time>
      </trkpt>
      <trkpt lat="44.41404" lon="1.36131">
        <ele>311.6</ele>
        <time>2025-03-08T15:50:28Z</time>
      </trkpt>
      <trkpt lat="44.41404" lon="1.36127">
        <ele>311.9</ele>
        <time>2025-03-08T15:50:29Z</time>
      </trkpt>
      <trkpt lat="44.41405" lon="1.36125">
        <ele>311.9</ele>
        <time>2025-03-08T15:50:30Z</time>
      </trkpt>
      <trkpt lat="44.41405" lon="1.36122">
        <ele>312.1</ele>
        <time>2025-03-08T15:50:31Z</time>
      </trkpt>
      <trkpt lat="44.41406" lon="1.3612">
        <ele>312.2</ele>
        <time>2025-03-08T15:50:32Z</time>
      </trkpt>
      <trkpt lat="44.41407" lon="1.36116">
        <ele>312.4</ele>
        <time>2025-03-08T15:50:33Z</time>
      </trkpt>
      <trkpt lat="44.41407" lon="1.36114">
        <ele>312.4</ele>
        <time>2025-03-08T15:50:34Z</time>
      </trkpt>
      <trkpt lat="44.41408" lon="1.3611">
        <ele>312.5</ele>
        <time>2025-03-08T15:50:35Z</time>
      </trkpt>
      <trkpt lat="44.41408" lon="1.36109">
        <ele>312.6</ele>
        <time>2025-03-08T15:50:36Z</time>
      </trkpt>
      <trkpt lat="44.41408" lon="1.36104">
        <ele>312.6</ele>
        <time>2025-03-08T15:50:37Z</time>
      </trkpt>
      <trkpt lat="44.41408" lon="1.36103">
        <ele>312.6</ele>
        <time>2025-03-08T15:50:38Z</time>
      </trkpt>
      <trkpt lat="44.41405" lon="1.36101">
        <ele>312.7</ele>
        <time>2025-03-08T15:50:39Z</time>
      </trkpt>
      <trkpt lat="44.41404" lon="1.36102">
        <ele>312.7</ele>
        <time>2025-03-08T15:50:40Z</time>
      </trkpt>
      <trkpt lat="44.41402" lon="1.36105">
        <ele>313</ele>
        <time>2025-03-08T15:50:41Z</time>
      </trkpt>
      <trkpt lat="44.41401" lon="1.36106">
        <ele>313.2</ele>
        <time>2025-03-08T15:50:42Z</time>
      </trkpt>
      <trkpt lat="44.414" lon="1.36108">
        <ele>313.4</ele>
        <time>2025-03-08T15:50:43Z</time>
      </trkpt>
      <trkpt lat="44.41399" lon="1.3611">
        <ele>313.7</ele>
        <time>2025-03-08T15:50:44Z</time>
      </trkpt>
      <trkpt lat="44.41398" lon="1.36111">
        <ele>314</ele>
        <time>2025-03-08T15:50:45Z</time>
      </trkpt>
      <trkpt lat="44.41397" lon="1.36112">
        <ele>314.2</ele>
        <time>2025-03-08T15:50:46Z</time>
      </trkpt>
      <trkpt lat="44.41396" lon="1.36113">
        <ele>314.4</ele>
        <time>2025-03-08T15:50:47Z</time>
      </trkpt>
      <trkpt lat="44.41394" lon="1.36114">
        <ele>314.7</ele>
        <time>2025-03-08T15:50:48Z</time>
      </trkpt>
      <trkpt lat="44.41393" lon="1.36115">
        <ele>314.9</ele>
        <time>2025-03-08T15:50:49Z</time>
      </trkpt>
      <trkpt lat="44.41391" lon="1.36117">
        <ele>315.2</ele>
        <time>2025-03-08T15:50:50Z</time>
      </trkpt>
      <trkpt lat="44.41389" lon="1.36118">
        <ele>315.7</ele>
        <time>2025-03-08T15:50:51Z</time>
      </trkpt>
      <trkpt lat="44.41388" lon="1.36119">
        <ele>315.9</ele>
        <time>2025-03-08T15:50:52Z</time>
      </trkpt>
      <trkpt lat="44.41385" lon="1.36121">
        <ele>316.5</ele>
        <time>2025-03-08T15:50:53Z</time>
      </trkpt>
      <trkpt lat="44.41384" lon="1.36121">
        <ele>316.6</ele>
        <time>2025-03-08T15:50:54Z</time>
      </trkpt>
      <trkpt lat="44.4138" lon="1.36123">
        <ele>317.2</ele>
        <time>2025-03-08T15:50:55Z</time>
      </trkpt>
      <trkpt lat="44.41379" lon="1.36124">
        <ele>317.4</ele>
        <time>2025-03-08T15:50:56Z</time>
      </trkpt>
      <trkpt lat="44.41376" lon="1.36126">
        <ele>318</ele>
        <time>2025-03-08T15:50:57Z</time>
      </trkpt>
      <trkpt lat="44.41375" lon="1.36126">
        <ele>318.2</ele>
        <time>2025-03-08T15:50:58Z</time>
      </trkpt>
      <trkpt lat="44.41372" lon="1.36127">
        <ele>318.6</ele>
        <time>2025-03-08T15:50:59Z</time>
      </trkpt>
      <trkpt lat="44.41371" lon="1.36127">
        <ele>318.8</ele>
        <time>2025-03-08T15:51:00Z</time>
      </trkpt>
      <trkpt lat="44.41368" lon="1.36129">
        <ele>319.4</ele>
        <time>2025-03-08T15:51:01Z</time>
      </trkpt>
      <trkpt lat="44.41364" lon="1.36132">
        <ele>319.6</ele>
        <time>2025-03-08T15:51:02Z</time>
      </trkpt>
      <trkpt lat="44.41362" lon="1.36135">
        <ele>319.8</ele>
        <time>2025-03-08T15:51:03Z</time>
      </trkpt>
      <trkpt lat="44.4136" lon="1.36137">
        <ele>319.9</ele>
        <time>2025-03-08T15:51:04Z</time>
      </trkpt>
      <trkpt lat="44.41357" lon="1.36141">
        <ele>320.1</ele>
        <time>2025-03-08T15:51:05Z</time>
      </trkpt>
      <trkpt lat="44.41357" lon="1.36142">
        <ele>320.1</ele>
        <time>2025-03-08T15:51:06Z</time>
      </trkpt>
      <trkpt lat="44.41354" lon="1.36146">
        <ele>320.3</ele>
        <time>2025-03-08T15:51:07Z</time>
      </trkpt>
      <trkpt lat="44.41353" lon="1.36148">
        <ele>320.4</ele>
        <time>2025-03-08T15:51:08Z</time>
      </trkpt>
      <trkpt lat="44.4135" lon="1.36152">
        <ele>320.5</ele>
        <time>2025-03-08T15:51:09Z</time>
      </trkpt>
      <trkpt lat="44.4135" lon="1.36153">
        <ele>320.6</ele>
        <time>2025-03-08T15:51:10Z</time>
      </trkpt>
      <trkpt lat="44.41348" lon="1.36156">
        <ele>320.7</ele>
        <time>2025-03-08T15:51:11Z</time>
      </trkpt>
      <trkpt lat="44.41347" lon="1.36157">
        <ele>320.8</ele>
        <time>2025-03-08T15:51:12Z</time>
      </trkpt>
      <trkpt lat="44.41345" lon="1.36161">
        <ele>320.9</ele>
        <time>2025-03-08T15:51:13Z</time>
      </trkpt>
      <trkpt lat="44.41344" lon="1.36162">
        <ele>321</ele>
        <time>2025-03-08T15:51:14Z</time>
      </trkpt>
      <trkpt lat="44.41342" lon="1.36165">
        <ele>321.1</ele>
        <time>2025-03-08T15:51:15Z</time>
      </trkpt>
      <trkpt lat="44.41341" lon="1.36166">
        <ele>321.2</ele>
        <time>2025-03-08T15:51:16Z</time>
      </trkpt>
      <trkpt lat="44.41338" lon="1.36169">
        <ele>321.3</ele>
        <time>2025-03-08T15:51:17Z</time>
      </trkpt>
      <trkpt lat="44.41337" lon="1.36171">
        <ele>321.4</ele>
        <time>2025-03-08T15:51:18Z</time>
      </trkpt>
      <trkpt lat="44.41335" lon="1.36174">
        <ele>321.5</ele>
        <time>2025-03-08T15:51:19Z</time>
      </trkpt>
      <trkpt lat="44.41334" lon="1.36176">
        <ele>321.6</ele>
        <time>2025-03-08T15:51:20Z</time>
      </trkpt>
      <trkpt lat="44.41331" lon="1.3618">
        <ele>321.7</ele>
        <time>2025-03-08T15:51:21Z</time>
      </trkpt>
      <trkpt lat="44.4133" lon="1.36181">
        <ele>321.8</ele>
        <time>2025-03-08T15:51:22Z</time>
      </trkpt>
      <trkpt lat="44.41327" lon="1.36185">
        <ele>321.9</ele>
        <time>2025-03-08T15:51:23Z</time>
      </trkpt>
      <trkpt lat="44.41326" lon="1.36186">
        <ele>322</ele>
        <time>2025-03-08T15:51:24Z</time>
      </trkpt>
      <trkpt lat="44.41324" lon="1.36189">
        <ele>322.1</ele>
        <time>2025-03-08T15:51:25Z</time>
      </trkpt>
      <trkpt lat="44.41323" lon="1.3619">
        <ele>322.1</ele>
        <time>2025-03-08T15:51:26Z</time>
      </trkpt>
      <trkpt lat="44.4132" lon="1.36193">
        <ele>322.2</ele>
        <time>2025-03-08T15:51:27Z</time>
      </trkpt>
      <trkpt lat="44.41318" lon="1.36196">
        <ele>322.3</ele>
        <time>2025-03-08T15:51:28Z</time>
      </trkpt>
      <trkpt lat="44.41317" lon="1.36198">
        <ele>322.4</ele>
        <time>2025-03-08T15:51:29Z</time>
      </trkpt>
      <trkpt lat="44.41315" lon="1.36201">
        <ele>322.5</ele>
        <time>2025-03-08T15:51:30Z</time>
      </trkpt>
      <trkpt lat="44.41313" lon="1.36204">
        <ele>322.6</ele>
        <time>2025-03-08T15:51:31Z</time>
      </trkpt>
      <trkpt lat="44.41311" lon="1.36206">
        <ele>322.7</ele>
        <time>2025-03-08T15:51:32Z</time>
      </trkpt>
      <trkpt lat="44.41308" lon="1.36209">
        <ele>322.8</ele>
        <time>2025-03-08T15:51:33Z</time>
      </trkpt>
      <trkpt lat="44.41306" lon="1.36211">
        <ele>322.8</ele>
        <time>2025-03-08T15:51:34Z</time>
      </trkpt>
      <trkpt lat="44.41303" lon="1.36213">
        <ele>322.9</ele>
        <time>2025-03-08T15:51:35Z</time>
      </trkpt>
      <trkpt lat="44.413" lon="1.36215">
        <ele>322.9</ele>
        <time>2025-03-08T15:51:36Z</time>
      </trkpt>
      <trkpt lat="44.41298" lon="1.36218">
        <ele>322.9</ele>
        <time>2025-03-08T15:51:37Z</time>
      </trkpt>
      <trkpt lat="44.41296" lon="1.36221">
        <ele>323</ele>
        <time>2025-03-08T15:51:38Z</time>
      </trkpt>
      <trkpt lat="44.41294" lon="1.36225">
        <ele>323</ele>
        <time>2025-03-08T15:51:39Z</time>
      </trkpt>
      <trkpt lat="44.41292" lon="1.36228">
        <ele>323.1</ele>
        <time>2025-03-08T15:51:40Z</time>
      </trkpt>
      <trkpt lat="44.41291" lon="1.36231">
        <ele>323.1</ele>
        <time>2025-03-08T15:51:41Z</time>
      </trkpt>
      <trkpt lat="44.41289" lon="1.36234">
        <ele>323.2</ele>
        <time>2025-03-08T15:51:42Z</time>
      </trkpt>
      <trkpt lat="44.41287" lon="1.36237">
        <ele>323.2</ele>
        <time>2025-03-08T15:51:43Z</time>
      </trkpt>
      <trkpt lat="44.41285" lon="1.36241">
        <ele>323.3</ele>
        <time>2025-03-08T15:51:44Z</time>
      </trkpt>
      <trkpt lat="44.41283" lon="1.36244">
        <ele>323.3</ele>
        <time>2025-03-08T15:51:45Z</time>
      </trkpt>
      <trkpt lat="44.41281" lon="1.36248">
        <ele>323.4</ele>
        <time>2025-03-08T15:51:46Z</time>
      </trkpt>
      <trkpt lat="44.41279" lon="1.36251">
        <ele>323.4</ele>
        <time>2025-03-08T15:51:47Z</time>
      </trkpt>
      <trkpt lat="44.41277" lon="1.36255">
        <ele>323.5</ele>
        <time>2025-03-08T15:51:48Z</time>
      </trkpt>
      <trkpt lat="44.41275" lon="1.36259">
        <ele>323.5</ele>
        <time>2025-03-08T15:51:49Z</time>
      </trkpt>
      <trkpt lat="44.41273" lon="1.36263">
        <ele>323.6</ele>
        <time>2025-03-08T15:51:50Z</time>
      </trkpt>
      <trkpt lat="44.41272" lon="1.36266">
        <ele>323.6</ele>
        <time>2025-03-08T15:51:51Z</time>
      </trkpt>
      <trkpt lat="44.4127" lon="1.3627">
        <ele>323.6</ele>
        <time>2025-03-08T15:51:52Z</time>
      </trkpt>
      <trkpt lat="44.41268" lon="1.36273">
        <ele>323.7</ele>
        <time>2025-03-08T15:51:53Z</time>
      </trkpt>
      <trkpt lat="44.41267" lon="1.36276">
        <ele>323.7</ele>
        <time>2025-03-08T15:51:54Z</time>
      </trkpt>
      <trkpt lat="44.41265" lon="1.3628">
        <ele>323.8</ele>
        <time>2025-03-08T15:51:55Z</time>
      </trkpt>
      <trkpt lat="44.41263" lon="1.36283">
        <ele>323.9</ele>
        <time>2025-03-08T15:51:56Z</time>
      </trkpt>
      <trkpt lat="44.41261" lon="1.36286">
        <ele>323.9</ele>
        <time>2025-03-08T15:51:57Z</time>
      </trkpt>
      <trkpt lat="44.4126" lon="1.36289">
        <ele>324</ele>
        <time>2025-03-08T15:51:58Z</time>
      </trkpt>
      <trkpt lat="44.41258" lon="1.36293">
        <ele>324.1</ele>
        <time>2025-03-08T15:51:59Z</time>
      </trkpt>
      <trkpt lat="44.41256" lon="1.36296">
        <ele>324.1</ele>
        <time>2025-03-08T15:52:00Z</time>
      </trkpt>
      <trkpt lat="44.41255" lon="1.363">
        <ele>324.2</ele>
        <time>2025-03-08T15:52:01Z</time>
      </trkpt>
      <trkpt lat="44.41253" lon="1.36303">
        <ele>324.3</ele>
        <time>2025-03-08T15:52:02Z</time>
      </trkpt>
      <trkpt lat="44.41251" lon="1.36307">
        <ele>324.3</ele>
        <time>2025-03-08T15:52:03Z</time>
      </trkpt>
      <trkpt lat="44.41249" lon="1.36311">
        <ele>324.4</ele>
        <time>2025-03-08T15:52:04Z</time>
      </trkpt>
      <trkpt lat="44.41247" lon="1.36314">
        <ele>324.5</ele>
        <time>2025-03-08T15:52:05Z</time>
      </trkpt>
      <trkpt lat="44.41245" lon="1.36317">
        <ele>324.5</ele>
        <time>2025-03-08T15:52:06Z</time>
      </trkpt>
      <trkpt lat="44.41244" lon="1.3632">
        <ele>324.6</ele>
        <time>2025-03-08T15:52:07Z</time>
      </trkpt>
      <trkpt lat="44.41242" lon="1.36323">
        <ele>324.6</ele>
        <time>2025-03-08T15:52:08Z</time>
      </trkpt>
      <trkpt lat="44.4124" lon="1.36327">
        <ele>324.7</ele>
        <time>2025-03-08T15:52:09Z</time>
      </trkpt>
      <trkpt lat="44.41238" lon="1.36331">
        <ele>324.7</ele>
        <time>2025-03-08T15:52:10Z</time>
      </trkpt>
      <trkpt lat="44.41236" lon="1.36335">
        <ele>324.7</ele>
        <time>2025-03-08T15:52:11Z</time>
      </trkpt>
      <trkpt lat="44.41233" lon="1.36338">
        <ele>324.7</ele>
        <time>2025-03-08T15:52:12Z</time>
      </trkpt>
      <trkpt lat="44.41231" lon="1.36341">
        <ele>324.7</ele>
        <time>2025-03-08T15:52:13Z</time>
      </trkpt>
      <trkpt lat="44.41229" lon="1.36345">
        <ele>324.7</ele>
        <time>2025-03-08T15:52:14Z</time>
      </trkpt>
      <trkpt lat="44.41227" lon="1.36349">
        <ele>324.6</ele>
        <time>2025-03-08T15:52:15Z</time>
      </trkpt>
      <trkpt lat="44.41224" lon="1.36353">
        <ele>324.6</ele>
        <time>2025-03-08T15:52:16Z</time>
      </trkpt>
      <trkpt lat="44.41222" lon="1.36357">
        <ele>324.5</ele>
        <time>2025-03-08T15:52:17Z</time>
      </trkpt>
      <trkpt lat="44.41219" lon="1.36361">
        <ele>324.5</ele>
        <time>2025-03-08T15:52:18Z</time>
      </trkpt>
      <trkpt lat="44.41217" lon="1.36365">
        <ele>324.4</ele>
        <time>2025-03-08T15:52:19Z</time>
      </trkpt>
      <trkpt lat="44.41214" lon="1.36369">
        <ele>324.3</ele>
        <time>2025-03-08T15:52:20Z</time>
      </trkpt>
      <trkpt lat="44.41212" lon="1.36373">
        <ele>324.3</ele>
        <time>2025-03-08T15:52:21Z</time>
      </trkpt>
      <trkpt lat="44.41209" lon="1.36377">
        <ele>324.2</ele>
        <time>2025-03-08T15:52:22Z</time>
      </trkpt>
      <trkpt lat="44.41207" lon="1.36381">
        <ele>324.1</ele>
        <time>2025-03-08T15:52:23Z</time>
      </trkpt>
      <trkpt lat="44.41205" lon="1.36385">
        <ele>324.1</ele>
        <time>2025-03-08T15:52:24Z</time>
      </trkpt>
      <trkpt lat="44.41202" lon="1.3639">
        <ele>324</ele>
        <time>2025-03-08T15:52:25Z</time>
      </trkpt>
      <trkpt lat="44.41199" lon="1.36394">
        <ele>323.9</ele>
        <time>2025-03-08T15:52:26Z</time>
      </trkpt>
      <trkpt lat="44.41196" lon="1.36399">
        <ele>323.8</ele>
        <time>2025-03-08T15:52:27Z</time>
      </trkpt>
      <trkpt lat="44.41193" lon="1.36403">
        <ele>323.7</ele>
        <time>2025-03-08T15:52:28Z</time>
      </trkpt>
      <trkpt lat="44.41189" lon="1.36408">
        <ele>323.6</ele>
        <time>2025-03-08T15:52:29Z</time>
      </trkpt>
      <trkpt lat="44.41186" lon="1.36413">
        <ele>323.5</ele>
        <time>2025-03-08T15:52:30Z</time>
      </trkpt>
      <trkpt lat="44.41184" lon="1.36417">
        <ele>323.4</ele>
        <time>2025-03-08T15:52:31Z</time>
      </trkpt>
      <trkpt lat="44.41181" lon="1.36421">
        <ele>323.3</ele>
        <time>2025-03-08T15:52:32Z</time>
      </trkpt>
      <trkpt lat="44.41178" lon="1.36425">
        <ele>323.3</ele>
        <time>2025-03-08T15:52:33Z</time>
      </trkpt>
      <trkpt lat="44.41175" lon="1.36428">
        <ele>323.2</ele>
        <time>2025-03-08T15:52:34Z</time>
      </trkpt>
      <trkpt lat="44.41173" lon="1.3643">
        <ele>323.2</ele>
        <time>2025-03-08T15:52:35Z</time>
      </trkpt>
      <trkpt lat="44.4117" lon="1.36432">
        <ele>323.1</ele>
        <time>2025-03-08T15:52:36Z</time>
      </trkpt>
      <trkpt lat="44.41167" lon="1.36433">
        <ele>323</ele>
        <time>2025-03-08T15:52:37Z</time>
      </trkpt>
      <trkpt lat="44.41163" lon="1.36432">
        <ele>323</ele>
        <time>2025-03-08T15:52:38Z</time>
      </trkpt>
      <trkpt lat="44.41159" lon="1.36429">
        <ele>322.9</ele>
        <time>2025-03-08T15:52:39Z</time>
      </trkpt>
      <trkpt lat="44.41155" lon="1.36426">
        <ele>322.9</ele>
        <time>2025-03-08T15:52:40Z</time>
      </trkpt>
      <trkpt lat="44.41152" lon="1.36424">
        <ele>322.9</ele>
        <time>2025-03-08T15:52:41Z</time>
      </trkpt>
      <trkpt lat="44.41148" lon="1.36421">
        <ele>322.9</ele>
        <time>2025-03-08T15:52:42Z</time>
      </trkpt>
      <trkpt lat="44.41144" lon="1.3642">
        <ele>322.9</ele>
        <time>2025-03-08T15:52:43Z</time>
      </trkpt>
      <trkpt lat="44.4114" lon="1.36418">
        <ele>323</ele>
        <time>2025-03-08T15:52:44Z</time>
      </trkpt>
      <trkpt lat="44.41137" lon="1.36417">
        <ele>323.1</ele>
        <time>2025-03-08T15:52:45Z</time>
      </trkpt>
      <trkpt lat="44.41133" lon="1.36416">
        <ele>323.2</ele>
        <time>2025-03-08T15:52:46Z</time>
      </trkpt>
      <trkpt lat="44.41129" lon="1.36415">
        <ele>323.3</ele>
        <time>2025-03-08T15:52:47Z</time>
      </trkpt>
      <trkpt lat="44.41125" lon="1.36414">
        <ele>323.4</ele>
        <time>2025-03-08T15:52:48Z</time>
      </trkpt>
      <trkpt lat="44.41121" lon="1.36414">
        <ele>323.5</ele>
        <time>2025-03-08T15:52:49Z</time>
      </trkpt>
      <trkpt lat="44.41118" lon="1.36414">
        <ele>323.6</ele>
        <time>2025-03-08T15:52:50Z</time>
      </trkpt>
      <trkpt lat="44.41115" lon="1.36414">
        <ele>323.7</ele>
        <time>2025-03-08T15:52:51Z</time>
      </trkpt>
      <trkpt lat="44.41112" lon="1.36416">
        <ele>323.8</ele>
        <time>2025-03-08T15:52:52Z</time>
      </trkpt>
      <trkpt lat="44.41108" lon="1.36419">
        <ele>323.8</ele>
        <time>2025-03-08T15:52:53Z</time>
      </trkpt>
      <trkpt lat="44.41104" lon="1.36423">
        <ele>323.9</ele>
        <time>2025-03-08T15:52:54Z</time>
      </trkpt>
      <trkpt lat="44.411" lon="1.36427">
        <ele>324</ele>
        <time>2025-03-08T15:52:55Z</time>
      </trkpt>
      <trkpt lat="44.41097" lon="1.36431">
        <ele>324.1</ele>
        <time>2025-03-08T15:52:56Z</time>
      </trkpt>
      <trkpt lat="44.41094" lon="1.36435">
        <ele>324.1</ele>
        <time>2025-03-08T15:52:57Z</time>
      </trkpt>
      <trkpt lat="44.41091" lon="1.36439">
        <ele>324.2</ele>
        <time>2025-03-08T15:52:58Z</time>
      </trkpt>
      <trkpt lat="44.41088" lon="1.36444">
        <ele>324.2</ele>
        <time>2025-03-08T15:52:59Z</time>
      </trkpt>
      <trkpt lat="44.41085" lon="1.36449">
        <ele>324.3</ele>
        <time>2025-03-08T15:53:00Z</time>
      </trkpt>
      <trkpt lat="44.41083" lon="1.36453">
        <ele>324.3</ele>
        <time>2025-03-08T15:53:01Z</time>
      </trkpt>
      <trkpt lat="44.41081" lon="1.36457">
        <ele>324.3</ele>
        <time>2025-03-08T15:53:02Z</time>
      </trkpt>
      <trkpt lat="44.41079" lon="1.36461">
        <ele>324.3</ele>
        <time>2025-03-08T15:53:03Z</time>
      </trkpt>
      <trkpt lat="44.41077" lon="1.36464">
        <ele>324.3</ele>
        <time>2025-03-08T15:53:04Z</time>
      </trkpt>
      <trkpt lat="44.41075" lon="1.36467">
        <ele>324.2</ele>
        <time>2025-03-08T15:53:05Z</time>
      </trkpt>
      <trkpt lat="44.41072" lon="1.36469">
        <ele>324.2</ele>
        <time>2025-03-08T15:53:06Z</time>
      </trkpt>
      <trkpt lat="44.41069" lon="1.36468">
        <ele>324.1</ele>
        <time>2025-03-08T15:53:07Z</time>
      </trkpt>
      <trkpt lat="44.41066" lon="1.36465">
        <ele>323.9</ele>
        <time>2025-03-08T15:53:08Z</time>
      </trkpt>
      <trkpt lat="44.41062" lon="1.36463">
        <ele>323.8</ele>
        <time>2025-03-08T15:53:09Z</time>
      </trkpt>
      <trkpt lat="44.41059" lon="1.36461">
        <ele>323.6</ele>
        <time>2025-03-08T15:53:10Z</time>
      </trkpt>
      <trkpt lat="44.41055" lon="1.36458">
        <ele>323.3</ele>
        <time>2025-03-08T15:53:11Z</time>
      </trkpt>
      <trkpt lat="44.41052" lon="1.36456">
        <ele>323.1</ele>
        <time>2025-03-08T15:53:12Z</time>
      </trkpt>
      <trkpt lat="44.41047" lon="1.36453">
        <ele>322.7</ele>
        <time>2025-03-08T15:53:13Z</time>
      </trkpt>
      <trkpt lat="44.41043" lon="1.3645">
        <ele>322.4</ele>
        <time>2025-03-08T15:53:14Z</time>
      </trkpt>
      <trkpt lat="44.41038" lon="1.36446">
        <ele>322</ele>
        <time>2025-03-08T15:53:15Z</time>
      </trkpt>
      <trkpt lat="44.41033" lon="1.36442">
        <ele>321.5</ele>
        <time>2025-03-08T15:53:16Z</time>
      </trkpt>
      <trkpt lat="44.41027" lon="1.36439">
        <ele>321</ele>
        <time>2025-03-08T15:53:17Z</time>
      </trkpt>
      <trkpt lat="44.4102" lon="1.36436">
        <ele>320.4</ele>
        <time>2025-03-08T15:53:18Z</time>
      </trkpt>
      <trkpt lat="44.41014" lon="1.36432">
        <ele>319.8</ele>
        <time>2025-03-08T15:53:19Z</time>
      </trkpt>
      <trkpt lat="44.41008" lon="1.36428">
        <ele>319.3</ele>
        <time>2025-03-08T15:53:20Z</time>
      </trkpt>
      <trkpt lat="44.41001" lon="1.36423">
        <ele>318.8</ele>
        <time>2025-03-08T15:53:21Z</time>
      </trkpt>
      <trkpt lat="44.40995" lon="1.36418">
        <ele>318.4</ele>
        <time>2025-03-08T15:53:22Z</time>
      </trkpt>
      <trkpt lat="44.40988" lon="1.36412">
        <ele>318.2</ele>
        <time>2025-03-08T15:53:23Z</time>
      </trkpt>
      <trkpt lat="44.40982" lon="1.36408">
        <ele>317.9</ele>
        <time>2025-03-08T15:53:24Z</time>
      </trkpt>
      <trkpt lat="44.40976" lon="1.36403">
        <ele>317.6</ele>
        <time>2025-03-08T15:53:25Z</time>
      </trkpt>
      <trkpt lat="44.4097" lon="1.36398">
        <ele>317.4</ele>
        <time>2025-03-08T15:53:26Z</time>
      </trkpt>
      <trkpt lat="44.40964" lon="1.36393">
        <ele>317.1</ele>
        <time>2025-03-08T15:53:27Z</time>
      </trkpt>
      <trkpt lat="44.40958" lon="1.36387">
        <ele>316.8</ele>
        <time>2025-03-08T15:53:28Z</time>
      </trkpt>
      <trkpt lat="44.40953" lon="1.36381">
        <ele>316.5</ele>
        <time>2025-03-08T15:53:29Z</time>
      </trkpt>
      <trkpt lat="44.40948" lon="1.36373">
        <ele>316.3</ele>
        <time>2025-03-08T15:53:30Z</time>
      </trkpt>
      <trkpt lat="44.40943" lon="1.36364">
        <ele>316.2</ele>
        <time>2025-03-08T15:53:31Z</time>
      </trkpt>
      <trkpt lat="44.40939" lon="1.36356">
        <ele>316.1</ele>
        <time>2025-03-08T15:53:32Z</time>
      </trkpt>
      <trkpt lat="44.40935" lon="1.36347">
        <ele>316.1</ele>
        <time>2025-03-08T15:53:33Z</time>
      </trkpt>
      <trkpt lat="44.40933" lon="1.36338">
        <ele>316.1</ele>
        <time>2025-03-08T15:53:34Z</time>
      </trkpt>
      <trkpt lat="44.40931" lon="1.36329">
        <ele>316.1</ele>
        <time>2025-03-08T15:53:35Z</time>
      </trkpt>
      <trkpt lat="44.40929" lon="1.3632">
        <ele>316.2</ele>
        <time>2025-03-08T15:53:36Z</time>
      </trkpt>
      <trkpt lat="44.40928" lon="1.36311">
        <ele>316.4</ele>
        <time>2025-03-08T15:53:37Z</time>
      </trkpt>
      <trkpt lat="44.40927" lon="1.36303">
        <ele>316.5</ele>
        <time>2025-03-08T15:53:38Z</time>
      </trkpt>
      <trkpt lat="44.40926" lon="1.36294">
        <ele>316.6</ele>
        <time>2025-03-08T15:53:39Z</time>
      </trkpt>
      <trkpt lat="44.40925" lon="1.36286">
        <ele>316.7</ele>
        <time>2025-03-08T15:53:40Z</time>
      </trkpt>
      <trkpt lat="44.40924" lon="1.36278">
        <ele>316.8</ele>
        <time>2025-03-08T15:53:41Z</time>
      </trkpt>
      <trkpt lat="44.40923" lon="1.36271">
        <ele>316.8</ele>
        <time>2025-03-08T15:53:42Z</time>
      </trkpt>
      <trkpt lat="44.40922" lon="1.36264">
        <ele>316.9</ele>
        <time>2025-03-08T15:53:43Z</time>
      </trkpt>
      <trkpt lat="44.40922" lon="1.36257">
        <ele>316.9</ele>
        <time>2025-03-08T15:53:44Z</time>
      </trkpt>
      <trkpt lat="44.40921" lon="1.36249">
        <ele>316.8</ele>
        <time>2025-03-08T15:53:45Z</time>
      </trkpt>
      <trkpt lat="44.40921" lon="1.36241">
        <ele>316.8</ele>
        <time>2025-03-08T15:53:46Z</time>
      </trkpt>
      <trkpt lat="44.40921" lon="1.36233">
        <ele>316.7</ele>
        <time>2025-03-08T15:53:47Z</time>
      </trkpt>
      <trkpt lat="44.40921" lon="1.36225">
        <ele>316.7</ele>
        <time>2025-03-08T15:53:48Z</time>
      </trkpt>
      <trkpt lat="44.40921" lon="1.36218">
        <ele>316.6</ele>
        <time>2025-03-08T15:53:49Z</time>
      </trkpt>
      <trkpt lat="44.40921" lon="1.3621">
        <ele>316.6</ele>
        <time>2025-03-08T15:53:50Z</time>
      </trkpt>
      <trkpt lat="44.4092" lon="1.36202">
        <ele>316.6</ele>
        <time>2025-03-08T15:53:51Z</time>
      </trkpt>
      <trkpt lat="44.4092" lon="1.36193">
        <ele>316.5</ele>
        <time>2025-03-08T15:53:52Z</time>
      </trkpt>
      <trkpt lat="44.40919" lon="1.36185">
        <ele>316.5</ele>
        <time>2025-03-08T15:53:53Z</time>
      </trkpt>
      <trkpt lat="44.40919" lon="1.36177">
        <ele>316.5</ele>
        <time>2025-03-08T15:53:54Z</time>
      </trkpt>
      <trkpt lat="44.40918" lon="1.36169">
        <ele>316.4</ele>
        <time>2025-03-08T15:53:55Z</time>
      </trkpt>
      <trkpt lat="44.40917" lon="1.36162">
        <ele>316.4</ele>
        <time>2025-03-08T15:53:56Z</time>
      </trkpt>
      <trkpt lat="44.40917" lon="1.36154">
        <ele>316.4</ele>
        <time>2025-03-08T15:53:57Z</time>
      </trkpt>
      <trkpt lat="44.40915" lon="1.36146">
        <ele>316.3</ele>
        <time>2025-03-08T15:53:58Z</time>
      </trkpt>
      <trkpt lat="44.40914" lon="1.36138">
        <ele>316.3</ele>
        <time>2025-03-08T15:53:59Z</time>
      </trkpt>
      <trkpt lat="44.40913" lon="1.3613">
        <ele>316.2</ele>
        <time>2025-03-08T15:54:00Z</time>
      </trkpt>
      <trkpt lat="44.40911" lon="1.36122">
        <ele>316.2</ele>
        <time>2025-03-08T15:54:01Z</time>
      </trkpt>
      <trkpt lat="44.40909" lon="1.36115">
        <ele>316.2</ele>
        <time>2025-03-08T15:54:02Z</time>
      </trkpt>
      <trkpt lat="44.40907" lon="1.36107">
        <ele>316.1</ele>
        <time>2025-03-08T15:54:03Z</time>
      </trkpt>
      <trkpt lat="44.40905" lon="1.36099">
        <ele>316.1</ele>
        <time>2025-03-08T15:54:04Z</time>
      </trkpt>
      <trkpt lat="44.40904" lon="1.36092">
        <ele>316.1</ele>
        <time>2025-03-08T15:54:05Z</time>
      </trkpt>
      <trkpt lat="44.40902" lon="1.36084">
        <ele>316.1</ele>
        <time>2025-03-08T15:54:06Z</time>
      </trkpt>
      <trkpt lat="44.409" lon="1.36077">
        <ele>316.1</ele>
        <time>2025-03-08T15:54:07Z</time>
      </trkpt>
      <trkpt lat="44.40898" lon="1.3607">
        <ele>316.1</ele>
        <time>2025-03-08T15:54:08Z</time>
      </trkpt>
      <trkpt lat="44.40895" lon="1.36063">
        <ele>316</ele>
        <time>2025-03-08T15:54:09Z</time>
      </trkpt>
      <trkpt lat="44.40892" lon="1.36056">
        <ele>316</ele>
        <time>2025-03-08T15:54:10Z</time>
      </trkpt>
      <trkpt lat="44.40889" lon="1.3605">
        <ele>316</ele>
        <time>2025-03-08T15:54:11Z</time>
      </trkpt>
      <trkpt lat="44.40887" lon="1.36044">
        <ele>315.9</ele>
        <time>2025-03-08T15:54:12Z</time>
      </trkpt>
      <trkpt lat="44.40884" lon="1.36037">
        <ele>315.9</ele>
        <time>2025-03-08T15:54:13Z</time>
      </trkpt>
      <trkpt lat="44.40882" lon="1.3603">
        <ele>315.8</ele>
        <time>2025-03-08T15:54:14Z</time>
      </trkpt>
      <trkpt lat="44.40879" lon="1.36023">
        <ele>315.7</ele>
        <time>2025-03-08T15:54:15Z</time>
      </trkpt>
      <trkpt lat="44.40877" lon="1.36016">
        <ele>315.6</ele>
        <time>2025-03-08T15:54:16Z</time>
      </trkpt>
      <trkpt lat="44.40874" lon="1.36009">
        <ele>315.5</ele>
        <time>2025-03-08T15:54:17Z</time>
      </trkpt>
      <trkpt lat="44.40871" lon="1.36001">
        <ele>315.3</ele>
        <time>2025-03-08T15:54:18Z</time>
      </trkpt>
      <trkpt lat="44.40868" lon="1.35994">
        <ele>315.2</ele>
        <time>2025-03-08T15:54:19Z</time>
      </trkpt>
      <trkpt lat="44.40865" lon="1.35986">
        <ele>315</ele>
        <time>2025-03-08T15:54:20Z</time>
      </trkpt>
      <trkpt lat="44.40863" lon="1.35978">
        <ele>314.9</ele>
        <time>2025-03-08T15:54:21Z</time>
      </trkpt>
      <trkpt lat="44.4086" lon="1.35971">
        <ele>314.9</ele>
        <time>2025-03-08T15:54:22Z</time>
      </trkpt>
      <trkpt lat="44.40857" lon="1.35963">
        <ele>314.9</ele>
        <time>2025-03-08T15:54:23Z</time>
      </trkpt>
      <trkpt lat="44.40855" lon="1.35956">
        <ele>315</ele>
        <time>2025-03-08T15:54:24Z</time>
      </trkpt>
      <trkpt lat="44.40854" lon="1.35948">
        <ele>315.1</ele>
        <time>2025-03-08T15:54:25Z</time>
      </trkpt>
      <trkpt lat="44.40853" lon="1.35941">
        <ele>315.2</ele>
        <time>2025-03-08T15:54:26Z</time>
      </trkpt>
      <trkpt lat="44.40853" lon="1.35933">
        <ele>315.4</ele>
        <time>2025-03-08T15:54:27Z</time>
      </trkpt>
      <trkpt lat="44.40852" lon="1.35926">
        <ele>315.7</ele>
        <time>2025-03-08T15:54:28Z</time>
      </trkpt>
      <trkpt lat="44.40852" lon="1.35919">
        <ele>315.9</ele>
        <time>2025-03-08T15:54:29Z</time>
      </trkpt>
      <trkpt lat="44.40853" lon="1.35912">
        <ele>316.2</ele>
        <time>2025-03-08T15:54:30Z</time>
      </trkpt>
      <trkpt lat="44.40854" lon="1.35905">
        <ele>316.5</ele>
        <time>2025-03-08T15:54:31Z</time>
      </trkpt>
      <trkpt lat="44.40855" lon="1.35898">
        <ele>316.8</ele>
        <time>2025-03-08T15:54:32Z</time>
      </trkpt>
      <trkpt lat="44.40855" lon="1.35892">
        <ele>317.1</ele>
        <time>2025-03-08T15:54:33Z</time>
      </trkpt>
      <trkpt lat="44.40856" lon="1.35885">
        <ele>317.4</ele>
        <time>2025-03-08T15:54:34Z</time>
      </trkpt>
      <trkpt lat="44.40856" lon="1.35878">
        <ele>317.8</ele>
        <time>2025-03-08T15:54:35Z</time>
      </trkpt>
      <trkpt lat="44.40856" lon="1.35871">
        <ele>318.1</ele>
        <time>2025-03-08T15:54:36Z</time>
      </trkpt>
      <trkpt lat="44.40857" lon="1.35863">
        <ele>318.5</ele>
        <time>2025-03-08T15:54:37Z</time>
      </trkpt>
      <trkpt lat="44.40857" lon="1.35857">
        <ele>318.9</ele>
        <time>2025-03-08T15:54:38Z</time>
      </trkpt>
      <trkpt lat="44.40859" lon="1.35851">
        <ele>319.2</ele>
        <time>2025-03-08T15:54:39Z</time>
      </trkpt>
      <trkpt lat="44.4086" lon="1.35846">
        <ele>319.5</ele>
        <time>2025-03-08T15:54:40Z</time>
      </trkpt>
      <trkpt lat="44.40861" lon="1.35842">
        <ele>319.7</ele>
        <time>2025-03-08T15:54:41Z</time>
      </trkpt>
      <trkpt lat="44.40861" lon="1.35838">
        <ele>319.9</ele>
        <time>2025-03-08T15:54:42Z</time>
      </trkpt>
      <trkpt lat="44.4086" lon="1.35834">
        <ele>320.1</ele>
        <time>2025-03-08T15:54:43Z</time>
      </trkpt>
      <trkpt lat="44.40858" lon="1.35831">
        <ele>320.2</ele>
        <time>2025-03-08T15:54:44Z</time>
      </trkpt>
      <trkpt lat="44.40857" lon="1.35827">
        <ele>320.3</ele>
        <time>2025-03-08T15:54:45Z</time>
      </trkpt>
      <trkpt lat="44.40856" lon="1.35823">
        <ele>320.3</ele>
        <time>2025-03-08T15:54:46Z</time>
      </trkpt>
      <trkpt lat="44.40857" lon="1.35818">
        <ele>320.3</ele>
        <time>2025-03-08T15:54:47Z</time>
      </trkpt>
      <trkpt lat="44.40857" lon="1.35813">
        <ele>320.3</ele>
        <time>2025-03-08T15:54:48Z</time>
      </trkpt>
      <trkpt lat="44.40857" lon="1.35808">
        <ele>320.3</ele>
        <time>2025-03-08T15:54:49Z</time>
      </trkpt>
      <trkpt lat="44.40858" lon="1.35802">
        <ele>320.2</ele>
        <time>2025-03-08T15:54:50Z</time>
      </trkpt>
      <trkpt lat="44.40858" lon="1.35796">
        <ele>320.1</ele>
        <time>2025-03-08T15:54:51Z</time>
      </trkpt>
      <trkpt lat="44.40859" lon="1.3579">
        <ele>320</ele>
        <time>2025-03-08T15:54:52Z</time>
      </trkpt>
      <trkpt lat="44.40859" lon="1.35784">
        <ele>319.9</ele>
        <time>2025-03-08T15:54:53Z</time>
      </trkpt>
      <trkpt lat="44.40859" lon="1.35778">
        <ele>319.7</ele>
        <time>2025-03-08T15:54:54Z</time>
      </trkpt>
      <trkpt lat="44.40859" lon="1.35771">
        <ele>319.6</ele>
        <time>2025-03-08T15:54:55Z</time>
      </trkpt>
      <trkpt lat="44.40859" lon="1.35765">
        <ele>319.4</ele>
        <time>2025-03-08T15:54:56Z</time>
      </trkpt>
      <trkpt lat="44.4086" lon="1.35758">
        <ele>319.2</ele>
        <time>2025-03-08T15:54:57Z</time>
      </trkpt>
      <trkpt lat="44.4086" lon="1.35751">
        <ele>318.9</ele>
        <time>2025-03-08T15:54:58Z</time>
      </trkpt>
      <trkpt lat="44.40861" lon="1.35743">
        <ele>318.7</ele>
        <time>2025-03-08T15:54:59Z</time>
      </trkpt>
      <trkpt lat="44.40862" lon="1.35735">
        <ele>318.4</ele>
        <time>2025-03-08T15:55:00Z</time>
      </trkpt>
      <trkpt lat="44.40863" lon="1.35727">
        <ele>318.1</ele>
        <time>2025-03-08T15:55:01Z</time>
      </trkpt>
      <trkpt lat="44.40864" lon="1.35717">
        <ele>317.8</ele>
        <time>2025-03-08T15:55:02Z</time>
      </trkpt>
      <trkpt lat="44.40865" lon="1.35708">
        <ele>317.5</ele>
        <time>2025-03-08T15:55:03Z</time>
      </trkpt>
      <trkpt lat="44.40866" lon="1.35699">
        <ele>317.2</ele>
        <time>2025-03-08T15:55:04Z</time>
      </trkpt>
      <trkpt lat="44.40867" lon="1.35689">
        <ele>316.8</ele>
        <time>2025-03-08T15:55:05Z</time>
      </trkpt>
      <trkpt lat="44.40868" lon="1.3568">
        <ele>316.5</ele>
        <time>2025-03-08T15:55:06Z</time>
      </trkpt>
      <trkpt lat="44.40871" lon="1.3567">
        <ele>316.1</ele>
        <time>2025-03-08T15:55:07Z</time>
      </trkpt>
      <trkpt lat="44.40874" lon="1.35661">
        <ele>315.7</ele>
        <time>2025-03-08T15:55:08Z</time>
      </trkpt>
      <trkpt lat="44.40876" lon="1.35651">
        <ele>315.3</ele>
        <time>2025-03-08T15:55:09Z</time>
      </trkpt>
      <trkpt lat="44.40878" lon="1.35641">
        <ele>314.8</ele>
        <time>2025-03-08T15:55:10Z</time>
      </trkpt>
      <trkpt lat="44.4088" lon="1.3563">
        <ele>314.4</ele>
        <time>2025-03-08T15:55:11Z</time>
      </trkpt>
      <trkpt lat="44.40882" lon="1.35619">
        <ele>313.8</ele>
        <time>2025-03-08T15:55:12Z</time>
      </trkpt>
      <trkpt lat="44.40883" lon="1.35607">
        <ele>313.3</ele>
        <time>2025-03-08T15:55:13Z</time>
      </trkpt>
      <trkpt lat="44.40885" lon="1.35596">
        <ele>312.8</ele>
        <time>2025-03-08T15:55:14Z</time>
      </trkpt>
      <trkpt lat="44.40887" lon="1.35585">
        <ele>312.4</ele>
        <time>2025-03-08T15:55:15Z</time>
      </trkpt>
      <trkpt lat="44.40889" lon="1.35576">
        <ele>312.1</ele>
        <time>2025-03-08T15:55:16Z</time>
      </trkpt>
      <trkpt lat="44.4089" lon="1.35569">
        <ele>311.8</ele>
        <time>2025-03-08T15:55:17Z</time>
      </trkpt>
      <trkpt lat="44.4089" lon="1.35563">
        <ele>311.6</ele>
        <time>2025-03-08T15:55:18Z</time>
      </trkpt>
      <trkpt lat="44.4089" lon="1.35558">
        <ele>311.4</ele>
        <time>2025-03-08T15:55:19Z</time>
      </trkpt>
      <trkpt lat="44.40887" lon="1.35553">
        <ele>311.2</ele>
        <time>2025-03-08T15:55:20Z</time>
      </trkpt>
      <trkpt lat="44.40885" lon="1.35548">
        <ele>311</ele>
        <time>2025-03-08T15:55:21Z</time>
      </trkpt>
      <trkpt lat="44.40885" lon="1.35542">
        <ele>310.8</ele>
        <time>2025-03-08T15:55:22Z</time>
      </trkpt>
      <trkpt lat="44.40885" lon="1.35534">
        <ele>310.5</ele>
        <time>2025-03-08T15:55:23Z</time>
      </trkpt>
      <trkpt lat="44.40884" lon="1.35526">
        <ele>310.3</ele>
        <time>2025-03-08T15:55:24Z</time>
      </trkpt>
      <trkpt lat="44.40883" lon="1.35517">
        <ele>310</ele>
        <time>2025-03-08T15:55:25Z</time>
      </trkpt>
      <trkpt lat="44.40882" lon="1.35509">
        <ele>309.8</ele>
        <time>2025-03-08T15:55:26Z</time>
      </trkpt>
      <trkpt lat="44.40881" lon="1.35501">
        <ele>309.5</ele>
        <time>2025-03-08T15:55:27Z</time>
      </trkpt>
      <trkpt lat="44.40879" lon="1.35493">
        <ele>309.3</ele>
        <time>2025-03-08T15:55:28Z</time>
      </trkpt>
      <trkpt lat="44.40878" lon="1.35484">
        <ele>309.1</ele>
        <time>2025-03-08T15:55:29Z</time>
      </trkpt>
      <trkpt lat="44.40876" lon="1.35476">
        <ele>308.9</ele>
        <time>2025-03-08T15:55:30Z</time>
      </trkpt>
      <trkpt lat="44.40875" lon="1.35466">
        <ele>308.7</ele>
        <time>2025-03-08T15:55:31Z</time>
      </trkpt>
      <trkpt lat="44.40873" lon="1.35457">
        <ele>308.5</ele>
        <time>2025-03-08T15:55:32Z</time>
      </trkpt>
      <trkpt lat="44.40871" lon="1.35448">
        <ele>308.4</ele>
        <time>2025-03-08T15:55:33Z</time>
      </trkpt>
      <trkpt lat="44.40869" lon="1.35439">
        <ele>308.2</ele>
        <time>2025-03-08T15:55:34Z</time>
      </trkpt>
      <trkpt lat="44.40867" lon="1.3543">
        <ele>308.2</ele>
        <time>2025-03-08T15:55:35Z</time>
      </trkpt>
      <trkpt lat="44.40865" lon="1.35421">
        <ele>308.1</ele>
        <time>2025-03-08T15:55:36Z</time>
      </trkpt>
      <trkpt lat="44.40863" lon="1.35413">
        <ele>308.1</ele>
        <time>2025-03-08T15:55:37Z</time>
      </trkpt>
      <trkpt lat="44.40861" lon="1.35405">
        <ele>308.1</ele>
        <time>2025-03-08T15:55:38Z</time>
      </trkpt>
      <trkpt lat="44.40858" lon="1.35396">
        <ele>308.1</ele>
        <time>2025-03-08T15:55:39Z</time>
      </trkpt>
      <trkpt lat="44.40856" lon="1.35388">
        <ele>308</ele>
        <time>2025-03-08T15:55:40Z</time>
      </trkpt>
      <trkpt lat="44.40854" lon="1.3538">
        <ele>308</ele>
        <time>2025-03-08T15:55:41Z</time>
      </trkpt>
      <trkpt lat="44.40852" lon="1.35371">
        <ele>308</ele>
        <time>2025-03-08T15:55:42Z</time>
      </trkpt>
      <trkpt lat="44.4085" lon="1.35364">
        <ele>308</ele>
        <time>2025-03-08T15:55:43Z</time>
      </trkpt>
      <trkpt lat="44.40847" lon="1.35356">
        <ele>307.9</ele>
        <time>2025-03-08T15:55:44Z</time>
      </trkpt>
      <trkpt lat="44.40845" lon="1.35349">
        <ele>307.9</ele>
        <time>2025-03-08T15:55:45Z</time>
      </trkpt>
      <trkpt lat="44.40843" lon="1.35341">
        <ele>307.9</ele>
        <time>2025-03-08T15:55:46Z</time>
      </trkpt>
      <trkpt lat="44.40842" lon="1.35334">
        <ele>307.8</ele>
        <time>2025-03-08T15:55:47Z</time>
      </trkpt>
      <trkpt lat="44.40844" lon="1.35327">
        <ele>307.8</ele>
        <time>2025-03-08T15:55:48Z</time>
      </trkpt>
      <trkpt lat="44.40849" lon="1.35322">
        <ele>308.1</ele>
        <time>2025-03-08T15:55:49Z</time>
      </trkpt>
      <trkpt lat="44.40855" lon="1.35318">
        <ele>308.4</ele>
        <time>2025-03-08T15:55:50Z</time>
      </trkpt>
      <trkpt lat="44.40861" lon="1.35315">
        <ele>308.7</ele>
        <time>2025-03-08T15:55:51Z</time>
      </trkpt>
      <trkpt lat="44.40867" lon="1.35312">
        <ele>308.9</ele>
        <time>2025-03-08T15:55:52Z</time>
      </trkpt>
      <trkpt lat="44.40872" lon="1.3531">
        <ele>309.1</ele>
        <time>2025-03-08T15:55:53Z</time>
      </trkpt>
      <trkpt lat="44.40878" lon="1.35307">
        <ele>309.3</ele>
        <time>2025-03-08T15:55:54Z</time>
      </trkpt>
      <trkpt lat="44.40883" lon="1.35305">
        <ele>309.5</ele>
        <time>2025-03-08T15:55:55Z</time>
      </trkpt>
      <trkpt lat="44.4089" lon="1.35302">
        <ele>309.7</ele>
        <time>2025-03-08T15:55:56Z</time>
      </trkpt>
      <trkpt lat="44.40896" lon="1.35298">
        <ele>309.9</ele>
        <time>2025-03-08T15:55:57Z</time>
      </trkpt>
      <trkpt lat="44.40902" lon="1.35295">
        <ele>310.1</ele>
        <time>2025-03-08T15:55:58Z</time>
      </trkpt>
      <trkpt lat="44.40908" lon="1.35292">
        <ele>310.3</ele>
        <time>2025-03-08T15:55:59Z</time>
      </trkpt>
      <trkpt lat="44.40915" lon="1.35288">
        <ele>310.5</ele>
        <time>2025-03-08T15:56:00Z</time>
      </trkpt>
      <trkpt lat="44.40921" lon="1.35284">
        <ele>310.7</ele>
        <time>2025-03-08T15:56:01Z</time>
      </trkpt>
      <trkpt lat="44.40927" lon="1.35281">
        <ele>310.9</ele>
        <time>2025-03-08T15:56:02Z</time>
      </trkpt>
      <trkpt lat="44.40933" lon="1.35278">
        <ele>311.1</ele>
        <time>2025-03-08T15:56:03Z</time>
      </trkpt>
      <trkpt lat="44.40939" lon="1.35275">
        <ele>311.4</ele>
        <time>2025-03-08T15:56:04Z</time>
      </trkpt>
      <trkpt lat="44.40946" lon="1.35272">
        <ele>311.6</ele>
        <time>2025-03-08T15:56:05Z</time>
      </trkpt>
      <trkpt lat="44.40952" lon="1.35269">
        <ele>311.9</ele>
        <time>2025-03-08T15:56:06Z</time>
      </trkpt>
      <trkpt lat="44.40958" lon="1.35266">
        <ele>312.1</ele>
        <time>2025-03-08T15:56:07Z</time>
      </trkpt>
      <trkpt lat="44.40965" lon="1.35263">
        <ele>312.4</ele>
        <time>2025-03-08T15:56:08Z</time>
      </trkpt>
      <trkpt lat="44.40971" lon="1.35259">
        <ele>312.6</ele>
        <time>2025-03-08T15:56:09Z</time>
      </trkpt>
      <trkpt lat="44.40977" lon="1.35256">
        <ele>312.9</ele>
        <time>2025-03-08T15:56:10Z</time>
      </trkpt>
      <trkpt lat="44.40982" lon="1.35253">
        <ele>313.1</ele>
        <time>2025-03-08T15:56:11Z</time>
      </trkpt>
      <trkpt lat="44.40988" lon="1.3525">
        <ele>313.3</ele>
        <time>2025-03-08T15:56:12Z</time>
      </trkpt>
      <trkpt lat="44.40995" lon="1.35247">
        <ele>313.5</ele>
        <time>2025-03-08T15:56:13Z</time>
      </trkpt>
      <trkpt lat="44.41001" lon="1.35244">
        <ele>313.8</ele>
        <time>2025-03-08T15:56:14Z</time>
      </trkpt>
      <trkpt lat="44.41007" lon="1.35242">
        <ele>314</ele>
        <time>2025-03-08T15:56:15Z</time>
      </trkpt>
      <trkpt lat="44.41013" lon="1.3524">
        <ele>314.1</ele>
        <time>2025-03-08T15:56:16Z</time>
      </trkpt>
      <trkpt lat="44.41018" lon="1.35238">
        <ele>314.3</ele>
        <time>2025-03-08T15:56:17Z</time>
      </trkpt>
      <trkpt lat="44.41024" lon="1.35237">
        <ele>314.5</ele>
        <time>2025-03-08T15:56:18Z</time>
      </trkpt>
      <trkpt lat="44.4103" lon="1.35235">
        <ele>314.6</ele>
        <time>2025-03-08T15:56:19Z</time>
      </trkpt>
      <trkpt lat="44.41035" lon="1.35233">
        <ele>314.8</ele>
        <time>2025-03-08T15:56:20Z</time>
      </trkpt>
      <trkpt lat="44.41041" lon="1.35232">
        <ele>315</ele>
        <time>2025-03-08T15:56:21Z</time>
      </trkpt>
      <trkpt lat="44.41046" lon="1.35231">
        <ele>315.2</ele>
        <time>2025-03-08T15:56:22Z</time>
      </trkpt>
      <trkpt lat="44.41051" lon="1.3523">
        <ele>315.4</ele>
        <time>2025-03-08T15:56:23Z</time>
      </trkpt>
      <trkpt lat="44.41056" lon="1.35229">
        <ele>315.5</ele>
        <time>2025-03-08T15:56:24Z</time>
      </trkpt>
      <trkpt lat="44.41061" lon="1.35229">
        <ele>315.7</ele>
        <time>2025-03-08T15:56:25Z</time>
      </trkpt>
      <trkpt lat="44.41066" lon="1.35228">
        <ele>315.9</ele>
        <time>2025-03-08T15:56:26Z</time>
      </trkpt>
      <trkpt lat="44.41071" lon="1.35227">
        <ele>316</ele>
        <time>2025-03-08T15:56:27Z</time>
      </trkpt>
      <trkpt lat="44.41076" lon="1.35226">
        <ele>316.2</ele>
        <time>2025-03-08T15:56:28Z</time>
      </trkpt>
      <trkpt lat="44.4108" lon="1.35226">
        <ele>316.4</ele>
        <time>2025-03-08T15:56:29Z</time>
      </trkpt>
      <trkpt lat="44.41085" lon="1.35225">
        <ele>316.5</ele>
        <time>2025-03-08T15:56:30Z</time>
      </trkpt>
      <trkpt lat="44.41089" lon="1.35225">
        <ele>316.7</ele>
        <time>2025-03-08T15:56:31Z</time>
      </trkpt>
      <trkpt lat="44.41093" lon="1.35224">
        <ele>316.9</ele>
        <time>2025-03-08T15:56:32Z</time>
      </trkpt>
      <trkpt lat="44.41097" lon="1.35224">
        <ele>317.1</ele>
        <time>2025-03-08T15:56:33Z</time>
      </trkpt>
      <trkpt lat="44.41101" lon="1.35224">
        <ele>317.3</ele>
        <time>2025-03-08T15:56:34Z</time>
      </trkpt>
      <trkpt lat="44.41105" lon="1.35223">
        <ele>317.5</ele>
        <time>2025-03-08T15:56:35Z</time>
      </trkpt>
      <trkpt lat="44.41109" lon="1.35222">
        <ele>317.7</ele>
        <time>2025-03-08T15:56:36Z</time>
      </trkpt>
      <trkpt lat="44.41112" lon="1.35222">
        <ele>318</ele>
        <time>2025-03-08T15:56:37Z</time>
      </trkpt>
      <trkpt lat="44.41116" lon="1.35222">
        <ele>318.2</ele>
        <time>2025-03-08T15:56:38Z</time>
      </trkpt>
      <trkpt lat="44.4112" lon="1.35223">
        <ele>318.5</ele>
        <time>2025-03-08T15:56:39Z</time>
      </trkpt>
      <trkpt lat="44.41123" lon="1.35223">
        <ele>318.7</ele>
        <time>2025-03-08T15:56:40Z</time>
      </trkpt>
      <trkpt lat="44.41127" lon="1.35224">
        <ele>318.9</ele>
        <time>2025-03-08T15:56:41Z</time>
      </trkpt>
      <trkpt lat="44.4113" lon="1.35224">
        <ele>319.1</ele>
        <time>2025-03-08T15:56:42Z</time>
      </trkpt>
      <trkpt lat="44.41134" lon="1.35224">
        <ele>319.3</ele>
        <time>2025-03-08T15:56:43Z</time>
      </trkpt>
      <trkpt lat="44.41137" lon="1.35224">
        <ele>319.6</ele>
        <time>2025-03-08T15:56:44Z</time>
      </trkpt>
      <trkpt lat="44.41141" lon="1.35224">
        <ele>319.8</ele>
        <time>2025-03-08T15:56:45Z</time>
      </trkpt>
      <trkpt lat="44.41144" lon="1.35223">
        <ele>320</ele>
        <time>2025-03-08T15:56:46Z</time>
      </trkpt>
      <trkpt lat="44.41148" lon="1.35222">
        <ele>320.3</ele>
        <time>2025-03-08T15:56:47Z</time>
      </trkpt>
      <trkpt lat="44.41151" lon="1.35222">
        <ele>320.5</ele>
        <time>2025-03-08T15:56:48Z</time>
      </trkpt>
      <trkpt lat="44.41154" lon="1.35222">
        <ele>320.7</ele>
        <time>2025-03-08T15:56:49Z</time>
      </trkpt>
      <trkpt lat="44.41157" lon="1.35223">
        <ele>320.8</ele>
        <time>2025-03-08T15:56:50Z</time>
      </trkpt>
      <trkpt lat="44.4116" lon="1.35223">
        <ele>321</ele>
        <time>2025-03-08T15:56:51Z</time>
      </trkpt>
      <trkpt lat="44.41163" lon="1.35224">
        <ele>321.2</ele>
        <time>2025-03-08T15:56:52Z</time>
      </trkpt>
      <trkpt lat="44.41166" lon="1.35224">
        <ele>321.5</ele>
        <time>2025-03-08T15:56:53Z</time>
      </trkpt>
      <trkpt lat="44.4117" lon="1.35226">
        <ele>321.7</ele>
        <time>2025-03-08T15:56:54Z</time>
      </trkpt>
      <trkpt lat="44.41173" lon="1.35227">
        <ele>321.9</ele>
        <time>2025-03-08T15:56:55Z</time>
      </trkpt>
      <trkpt lat="44.41177" lon="1.35228">
        <ele>322.1</ele>
        <time>2025-03-08T15:56:56Z</time>
      </trkpt>
      <trkpt lat="44.4118" lon="1.35229">
        <ele>322.3</ele>
        <time>2025-03-08T15:56:57Z</time>
      </trkpt>
      <trkpt lat="44.41183" lon="1.3523">
        <ele>322.5</ele>
        <time>2025-03-08T15:56:58Z</time>
      </trkpt>
      <trkpt lat="44.41186" lon="1.35231">
        <ele>322.6</ele>
        <time>2025-03-08T15:56:59Z</time>
      </trkpt>
      <trkpt lat="44.41189" lon="1.35232">
        <ele>322.8</ele>
        <time>2025-03-08T15:57:00Z</time>
      </trkpt>
      <trkpt lat="44.41192" lon="1.35233">
        <ele>322.9</ele>
        <time>2025-03-08T15:57:01Z</time>
      </trkpt>
      <trkpt lat="44.41195" lon="1.35234">
        <ele>323.1</ele>
        <time>2025-03-08T15:57:02Z</time>
      </trkpt>
      <trkpt lat="44.41198" lon="1.35234">
        <ele>323.2</ele>
        <time>2025-03-08T15:57:03Z</time>
      </trkpt>
      <trkpt lat="44.41201" lon="1.35234">
        <ele>323.3</ele>
        <time>2025-03-08T15:57:04Z</time>
      </trkpt>
      <trkpt lat="44.41204" lon="1.35235">
        <ele>323.4</ele>
        <time>2025-03-08T15:57:05Z</time>
      </trkpt>
      <trkpt lat="44.41207" lon="1.35236">
        <ele>323.6</ele>
        <time>2025-03-08T15:57:06Z</time>
      </trkpt>
      <trkpt lat="44.41209" lon="1.35238">
        <ele>323.7</ele>
        <time>2025-03-08T15:57:07Z</time>
      </trkpt>
      <trkpt lat="44.41212" lon="1.35241">
        <ele>323.8</ele>
        <time>2025-03-08T15:57:08Z</time>
      </trkpt>
      <trkpt lat="44.41213" lon="1.35242">
        <ele>323.8</ele>
        <time>2025-03-08T15:57:09Z</time>
      </trkpt>
      <trkpt lat="44.41215" lon="1.35244">
        <ele>323.9</ele>
        <time>2025-03-08T15:57:10Z</time>
      </trkpt>
      <trkpt lat="44.41216" lon="1.35245">
        <ele>323.9</ele>
        <time>2025-03-08T15:57:11Z</time>
      </trkpt>
      <trkpt lat="44.41217" lon="1.35248">
        <ele>324</ele>
        <time>2025-03-08T15:57:12Z</time>
      </trkpt>
      <trkpt lat="44.41218" lon="1.35249">
        <ele>324</ele>
        <time>2025-03-08T15:57:13Z</time>
      </trkpt>
      <trkpt lat="44.41219" lon="1.35252">
        <ele>324</ele>
        <time>2025-03-08T15:57:14Z</time>
      </trkpt>
      <trkpt lat="44.4122" lon="1.35253">
        <ele>324</ele>
        <time>2025-03-08T15:57:15Z</time>
      </trkpt>
      <trkpt lat="44.41221" lon="1.35254">
        <ele>324</ele>
        <time>2025-03-08T15:57:16Z</time>
      </trkpt>
      <trkpt lat="44.41221" lon="1.35256">
        <ele>324</ele>
        <time>2025-03-08T15:57:17Z</time>
      </trkpt>
      <trkpt lat="44.41222" lon="1.35257">
        <ele>324</ele>
        <time>2025-03-08T15:57:18Z</time>
      </trkpt>
      <trkpt lat="44.41222" lon="1.35258">
        <ele>324</ele>
        <time>2025-03-08T15:57:19Z</time>
      </trkpt>
      <trkpt lat="44.41221" lon="1.35257">
        <ele>324</ele>
        <time>2025-03-08T15:57:20Z</time>
      </trkpt>
      <trkpt lat="44.41221" lon="1.35257">
        <ele>324</ele>
        <time>2025-03-08T15:57:21Z</time>
      </trkpt>
      <trkpt lat="44.41221" lon="1.35257">
        <ele>324</ele>
        <time>2025-03-08T15:57:22Z</time>
      </trkpt>
      <trkpt lat="44.41221" lon="1.35257">
        <ele>324</ele>
        <time>2025-03-08T15:57:23Z</time>
      </trkpt>
      <trkpt lat="44.41221" lon="1.35257">
        <ele>324</ele>
        <time>2025-03-08T15:57:24Z</time>
      </trkpt>
      <trkpt lat="44.41221" lon="1.35257">
        <ele>324</ele>
        <time>2025-03-08T15:57:25Z</time>
      </trkpt>
      <trkpt lat="44.41221" lon="1.35258">
        <ele>324</ele>
        <time>2025-03-08T15:57:26Z</time>
      </trkpt>
      <trkpt lat="44.41221" lon="1.35258">
        <ele>324</ele>
        <time>2025-03-08T15:57:27Z</time>
      </trkpt>
      <trkpt lat="44.41221" lon="1.35258">
        <ele>324</ele>
        <time>2025-03-08T15:57:28Z</time>
      </trkpt>
      <trkpt lat="44.41221" lon="1.35258">
        <ele>324</ele>
        <time>2025-03-08T15:57:29Z</time>
      </trkpt>
      <trkpt lat="44.41221" lon="1.3526">
        <ele>324.1</ele>
        <time>2025-03-08T15:57:30Z</time>
      </trkpt>
      <trkpt lat="44.41222" lon="1.35262">
        <ele>324.1</ele>
        <time>2025-03-08T15:57:31Z</time>
      </trkpt>
      <trkpt lat="44.41222" lon="1.35265">
        <ele>324.1</ele>
        <time>2025-03-08T15:57:32Z</time>
      </trkpt>
      <trkpt lat="44.41222" lon="1.35266">
        <ele>324.1</ele>
        <time>2025-03-08T15:57:33Z</time>
      </trkpt>
      <trkpt lat="44.41222" lon="1.35267">
        <ele>324.1</ele>
        <time>2025-03-08T15:57:34Z</time>
      </trkpt>
      <trkpt lat="44.41221" lon="1.35267">
        <ele>324.1</ele>
        <time>2025-03-08T15:57:35Z</time>
      </trkpt>
      <trkpt lat="44.41221" lon="1.35268">
        <ele>324.1</ele>
        <time>2025-03-08T15:57:36Z</time>
      </trkpt>
      <trkpt lat="44.41221" lon="1.35268">
        <ele>324.1</ele>
        <time>2025-03-08T15:57:37Z</time>
      </trkpt>
      <trkpt lat="44.41221" lon="1.35268">
        <ele>324.1</ele>
        <time>2025-03-08T15:57:38Z</time>
      </trkpt>
      <trkpt lat="44.41221" lon="1.35269">
        <ele>324.1</ele>
        <time>2025-03-08T15:57:39Z</time>
      </trkpt>
      <trkpt lat="44.41221" lon="1.35269">
        <ele>324.1</ele>
        <time>2025-03-08T15:57:40Z</time>
      </trkpt>
      <trkpt lat="44.41221" lon="1.3527">
        <ele>324.1</ele>
        <time>2025-03-08T15:57:41Z</time>
      </trkpt>
      <trkpt lat="44.4122" lon="1.3527">
        <ele>324.1</ele>
        <time>2025-03-08T15:57:42Z</time>
      </trkpt>
      <trkpt lat="44.4122" lon="1.3527">
        <ele>324.1</ele>
        <time>2025-03-08T15:57:43Z</time>
      </trkpt>
      <trkpt lat="44.4122" lon="1.35271">
        <ele>324.1</ele>
        <time>2025-03-08T15:57:47Z</time>
      </trkpt>
      <trkpt lat="44.4122" lon="1.35271">
        <ele>324.1</ele>
        <time>2025-03-08T15:58:44Z</time>
      </trkpt>
      <trkpt lat="44.4122" lon="1.35272">
        <ele>324.1</ele>
        <time>2025-03-08T15:58:45Z</time>
      </trkpt>
      <trkpt lat="44.4122" lon="1.35273">
        <ele>324.1</ele>
        <time>2025-03-08T15:58:46Z</time>
      </trkpt>
      <trkpt lat="44.41221" lon="1.35275">
        <ele>324.1</ele>
        <time>2025-03-08T15:58:47Z</time>
      </trkpt>
      <trkpt lat="44.41222" lon="1.35276">
        <ele>324.1</ele>
        <time>2025-03-08T15:58:48Z</time>
      </trkpt>
      <trkpt lat="44.41222" lon="1.35276">
        <ele>324.1</ele>
        <time>2025-03-08T15:58:49Z</time>
      </trkpt>
      <trkpt lat="44.41222" lon="1.35277">
        <ele>324.1</ele>
        <time>2025-03-08T15:58:50Z</time>
      </trkpt>
      <trkpt lat="44.41222" lon="1.35277">
        <ele>324.1</ele>
        <time>2025-03-08T15:58:51Z</time>
      </trkpt>
      <trkpt lat="44.41222" lon="1.35277">
        <ele>324.1</ele>
        <time>2025-03-08T15:58:52Z</time>
      </trkpt>
      <trkpt lat="44.41222" lon="1.35277">
        <ele>324.1</ele>
        <time>2025-03-08T15:58:53Z</time>
      </trkpt>
      <trkpt lat="44.41222" lon="1.35277">
        <ele>324.1</ele>
        <time>2025-03-08T15:58:54Z</time>
      </trkpt>
      <trkpt lat="44.41222" lon="1.35277">
        <ele>324.1</ele>
        <time>2025-03-08T15:58:55Z</time>
      </trkpt>
      <trkpt lat="44.41222" lon="1.35277">
        <ele>324.1</ele>
        <time>2025-03-08T15:58:56Z</time>
      </trkpt>
      <trkpt lat="44.41222" lon="1.35277">
        <ele>324.1</ele>
        <time>2025-03-08T15:58:57Z</time>
      </trkpt>
      <trkpt lat="44.41222" lon="1.35277">
        <ele>324.1</ele>
        <time>2025-03-08T15:58:58Z</time>
      </trkpt>
      <trkpt lat="44.41222" lon="1.35277">
        <ele>324.1</ele>
        <time>2025-03-08T15:58:59Z</time>
      </trkpt>
      <trkpt lat="44.41222" lon="1.35277">
        <ele>324.1</ele>
        <time>2025-03-08T15:59:00Z</time>
      </trkpt>
      <trkpt lat="44.41222" lon="1.35275">
        <ele>324</ele>
        <time>2025-03-08T15:59:01Z</time>
      </trkpt>
      <trkpt lat="44.41222" lon="1.35273">
        <ele>324</ele>
        <time>2025-03-08T15:59:02Z</time>
      </trkpt>
      <trkpt lat="44.41221" lon="1.35271">
        <ele>324</ele>
        <time>2025-03-08T15:59:03Z</time>
      </trkpt>
      <trkpt lat="44.41221" lon="1.3527">
        <ele>324</ele>
        <time>2025-03-08T15:59:04Z</time>
      </trkpt>
      <trkpt lat="44.41221" lon="1.3527">
        <ele>324</ele>
        <time>2025-03-08T15:59:05Z</time>
      </trkpt>
      <trkpt lat="44.41221" lon="1.35269">
        <ele>324</ele>
        <time>2025-03-08T15:59:06Z</time>
      </trkpt>
      <trkpt lat="44.41221" lon="1.35269">
        <ele>324</ele>
        <time>2025-03-08T15:59:07Z</time>
      </trkpt>
      <trkpt lat="44.41221" lon="1.35269">
        <ele>324</ele>
        <time>2025-03-08T15:59:08Z</time>
      </trkpt>
      <trkpt lat="44.41221" lon="1.35269">
        <ele>324</ele>
        <time>2025-03-08T15:59:09Z</time>
      </trkpt>
      <trkpt lat="44.41221" lon="1.35269">
        <ele>324</ele>
        <time>2025-03-08T15:59:10Z</time>
      </trkpt>
    </trkseg>
  </trk>
</gpx>